<?xml version="1.0" encoding="UTF-8" standalone="no" ?>
<gpx xmlns="http://www.topografix.com/GPX/1/1" xmlns:xsi="http://www.w3.org/2001/XMLSchema-instance" xsi:schemaLocation="http://www.topografix.com/GPX/1/1 http://www.topografix.com/GPX/1/1/gpx.xsd" version="1.1" creator="VisuGPX - https://www.visugpx.com">
  <metadata>
    <name>French-divide 2021</name>
  </metadata>
  <trk>
    <name><![CDATA[13 FD]]></name>
    <trkseg>
      <trkpt lat="43.65427" lon="0.51356">
        <ele>280.36</ele>
        <time>2021-08-19T05:29:20Z</time>
      </trkpt>
      <trkpt lat="43.65417" lon="0.51352">
        <ele>282.28</ele>
        <time>2021-08-19T05:29:29Z</time>
      </trkpt>
      <trkpt lat="43.65414" lon="0.51348">
        <ele>282.28</ele>
        <time>2021-08-19T05:29:36Z</time>
      </trkpt>
      <trkpt lat="43.65414" lon="0.51345">
        <ele>282.28</ele>
        <time>2021-08-19T05:29:44Z</time>
      </trkpt>
      <trkpt lat="43.65412" lon="0.51345">
        <ele>282.28</ele>
        <time>2021-08-19T05:29:46Z</time>
      </trkpt>
      <trkpt lat="43.65403" lon="0.51355">
        <ele>282.28</ele>
        <time>2021-08-19T05:29:53Z</time>
      </trkpt>
      <trkpt lat="43.65402" lon="0.51357">
        <ele>282.28</ele>
        <time>2021-08-19T05:29:55Z</time>
      </trkpt>
      <trkpt lat="43.65395" lon="0.51354">
        <ele>282.77</ele>
        <time>2021-08-19T05:30:00Z</time>
      </trkpt>
      <trkpt lat="43.65391" lon="0.51346">
        <ele>282.77</ele>
        <time>2021-08-19T05:30:05Z</time>
      </trkpt>
      <trkpt lat="43.6539" lon="0.51321">
        <ele>282.77</ele>
        <time>2021-08-19T05:30:12Z</time>
      </trkpt>
      <trkpt lat="43.65391" lon="0.51283">
        <ele>280.84</ele>
        <time>2021-08-19T05:30:20Z</time>
      </trkpt>
      <trkpt lat="43.65393" lon="0.5123">
        <ele>279.88</ele>
        <time>2021-08-19T05:30:28Z</time>
      </trkpt>
      <trkpt lat="43.65393" lon="0.51205">
        <ele>278.44</ele>
        <time>2021-08-19T05:30:31Z</time>
      </trkpt>
      <trkpt lat="43.65394" lon="0.51197">
        <ele>277.96</ele>
        <time>2021-08-19T05:30:32Z</time>
      </trkpt>
      <trkpt lat="43.65394" lon="0.51171">
        <ele>277.48</ele>
        <time>2021-08-19T05:30:35Z</time>
      </trkpt>
      <trkpt lat="43.65394" lon="0.51163">
        <ele>277.48</ele>
        <time>2021-08-19T05:30:36Z</time>
      </trkpt>
      <trkpt lat="43.65395" lon="0.51154">
        <ele>277</ele>
        <time>2021-08-19T05:30:37Z</time>
      </trkpt>
      <trkpt lat="43.65394" lon="0.51119">
        <ele>276.52</ele>
        <time>2021-08-19T05:30:41Z</time>
      </trkpt>
      <trkpt lat="43.65387" lon="0.51058">
        <ele>275.56</ele>
        <time>2021-08-19T05:30:48Z</time>
      </trkpt>
      <trkpt lat="43.65379" lon="0.50995">
        <ele>240.95</ele>
        <time>2021-08-19T05:30:55Z</time>
      </trkpt>
      <trkpt lat="43.65378" lon="0.50986">
        <ele>240.95</ele>
        <time>2021-08-19T05:30:56Z</time>
      </trkpt>
      <trkpt lat="43.65375" lon="0.50957">
        <ele>259.69</ele>
        <time>2021-08-19T05:30:59Z</time>
      </trkpt>
      <trkpt lat="43.65375" lon="0.50948">
        <ele>260.17</ele>
        <time>2021-08-19T05:31:00Z</time>
      </trkpt>
      <trkpt lat="43.65374" lon="0.50939">
        <ele>260.17</ele>
        <time>2021-08-19T05:31:01Z</time>
      </trkpt>
      <trkpt lat="43.65368" lon="0.50887">
        <ele>260.17</ele>
        <time>2021-08-19T05:31:08Z</time>
      </trkpt>
      <trkpt lat="43.65363" lon="0.50833">
        <ele>260.17</ele>
        <time>2021-08-19T05:31:16Z</time>
      </trkpt>
      <trkpt lat="43.65363" lon="0.50812">
        <ele>261.14</ele>
        <time>2021-08-19T05:31:21Z</time>
      </trkpt>
      <trkpt lat="43.65358" lon="0.50811">
        <ele>261.14</ele>
        <time>2021-08-19T05:31:28Z</time>
      </trkpt>
      <trkpt lat="43.65356" lon="0.50805">
        <ele>261.14</ele>
        <time>2021-08-19T05:31:34Z</time>
      </trkpt>
      <trkpt lat="43.65356" lon="0.50803">
        <ele>261.14</ele>
        <time>2021-08-19T05:31:35Z</time>
      </trkpt>
      <trkpt lat="43.65356" lon="0.50778">
        <ele>261.14</ele>
        <time>2021-08-19T05:31:42Z</time>
      </trkpt>
      <trkpt lat="43.65359" lon="0.50755">
        <ele>261.62</ele>
        <time>2021-08-19T05:31:49Z</time>
      </trkpt>
      <trkpt lat="43.65363" lon="0.50728">
        <ele>261.62</ele>
        <time>2021-08-19T05:31:56Z</time>
      </trkpt>
      <trkpt lat="43.65372" lon="0.5068">
        <ele>262.58</ele>
        <time>2021-08-19T05:32:05Z</time>
      </trkpt>
      <trkpt lat="43.65383" lon="0.50625">
        <ele>262.58</ele>
        <time>2021-08-19T05:32:15Z</time>
      </trkpt>
      <trkpt lat="43.65385" lon="0.50614">
        <ele>262.58</ele>
        <time>2021-08-19T05:32:17Z</time>
      </trkpt>
      <trkpt lat="43.65391" lon="0.5059">
        <ele>262.58</ele>
        <time>2021-08-19T05:32:21Z</time>
      </trkpt>
      <trkpt lat="43.65415" lon="0.50543">
        <ele>262.58</ele>
        <time>2021-08-19T05:32:30Z</time>
      </trkpt>
      <trkpt lat="43.65438" lon="0.50504">
        <ele>263.54</ele>
        <time>2021-08-19T05:32:38Z</time>
      </trkpt>
      <trkpt lat="43.65469" lon="0.50454">
        <ele>263.54</ele>
        <time>2021-08-19T05:32:48Z</time>
      </trkpt>
      <trkpt lat="43.65501" lon="0.504">
        <ele>263.54</ele>
        <time>2021-08-19T05:32:58Z</time>
      </trkpt>
      <trkpt lat="43.65511" lon="0.50383">
        <ele>262.58</ele>
        <time>2021-08-19T05:33:01Z</time>
      </trkpt>
      <trkpt lat="43.65537" lon="0.50336">
        <ele>260.65</ele>
        <time>2021-08-19T05:33:09Z</time>
      </trkpt>
      <trkpt lat="43.65563" lon="0.50269">
        <ele>257.29</ele>
        <time>2021-08-19T05:33:17Z</time>
      </trkpt>
      <trkpt lat="43.65594" lon="0.50179">
        <ele>254.41</ele>
        <time>2021-08-19T05:33:26Z</time>
      </trkpt>
      <trkpt lat="43.65608" lon="0.5012">
        <ele>251.04</ele>
        <time>2021-08-19T05:33:31Z</time>
      </trkpt>
      <trkpt lat="43.65623" lon="0.50029">
        <ele>250.56</ele>
        <time>2021-08-19T05:33:39Z</time>
      </trkpt>
      <trkpt lat="43.65635" lon="0.49951">
        <ele>250.56</ele>
        <time>2021-08-19T05:33:47Z</time>
      </trkpt>
      <trkpt lat="43.65634" lon="0.49943">
        <ele>250.56</ele>
        <time>2021-08-19T05:33:48Z</time>
      </trkpt>
      <trkpt lat="43.65632" lon="0.49934">
        <ele>250.56</ele>
        <time>2021-08-19T05:33:49Z</time>
      </trkpt>
      <trkpt lat="43.65629" lon="0.49927">
        <ele>250.56</ele>
        <time>2021-08-19T05:33:50Z</time>
      </trkpt>
      <trkpt lat="43.65625" lon="0.4992">
        <ele>250.56</ele>
        <time>2021-08-19T05:33:51Z</time>
      </trkpt>
      <trkpt lat="43.65621" lon="0.49914">
        <ele>250.56</ele>
        <time>2021-08-19T05:33:52Z</time>
      </trkpt>
      <trkpt lat="43.65616" lon="0.49907">
        <ele>250.08</ele>
        <time>2021-08-19T05:33:53Z</time>
      </trkpt>
      <trkpt lat="43.6558" lon="0.49856">
        <ele>249.6</ele>
        <time>2021-08-19T05:34:01Z</time>
      </trkpt>
      <trkpt lat="43.65557" lon="0.49824">
        <ele>249.6</ele>
        <time>2021-08-19T05:34:07Z</time>
      </trkpt>
      <trkpt lat="43.65554" lon="0.49819">
        <ele>249.6</ele>
        <time>2021-08-19T05:34:08Z</time>
      </trkpt>
      <trkpt lat="43.65549" lon="0.49808">
        <ele>251.04</ele>
        <time>2021-08-19T05:34:10Z</time>
      </trkpt>
      <trkpt lat="43.65525" lon="0.49749">
        <ele>249.6</ele>
        <time>2021-08-19T05:34:19Z</time>
      </trkpt>
      <trkpt lat="43.65493" lon="0.49699">
        <ele>248.16</ele>
        <time>2021-08-19T05:34:26Z</time>
      </trkpt>
      <trkpt lat="43.65464" lon="0.49653">
        <ele>247.68</ele>
        <time>2021-08-19T05:34:32Z</time>
      </trkpt>
      <trkpt lat="43.65459" lon="0.49645">
        <ele>247.68</ele>
        <time>2021-08-19T05:34:33Z</time>
      </trkpt>
      <trkpt lat="43.65432" lon="0.49609">
        <ele>246.72</ele>
        <time>2021-08-19T05:34:39Z</time>
      </trkpt>
      <trkpt lat="43.65405" lon="0.49586">
        <ele>248.16</ele>
        <time>2021-08-19T05:34:45Z</time>
      </trkpt>
      <trkpt lat="43.65387" lon="0.49574">
        <ele>250.56</ele>
        <time>2021-08-19T05:34:51Z</time>
      </trkpt>
      <trkpt lat="43.65376" lon="0.49563">
        <ele>252</ele>
        <time>2021-08-19T05:34:58Z</time>
      </trkpt>
      <trkpt lat="43.65375" lon="0.49561">
        <ele>252.48</ele>
        <time>2021-08-19T05:34:59Z</time>
      </trkpt>
      <trkpt lat="43.65374" lon="0.4956">
        <ele>252.48</ele>
        <time>2021-08-19T05:35:00Z</time>
      </trkpt>
      <trkpt lat="43.65373" lon="0.49559">
        <ele>252.48</ele>
        <time>2021-08-19T05:35:01Z</time>
      </trkpt>
      <trkpt lat="43.65372" lon="0.49558">
        <ele>252.96</ele>
        <time>2021-08-19T05:35:02Z</time>
      </trkpt>
      <trkpt lat="43.65371" lon="0.49558">
        <ele>252.96</ele>
        <time>2021-08-19T05:35:03Z</time>
      </trkpt>
      <trkpt lat="43.6537" lon="0.49557">
        <ele>252.96</ele>
        <time>2021-08-19T05:35:04Z</time>
      </trkpt>
      <trkpt lat="43.65369" lon="0.49557">
        <ele>253.44</ele>
        <time>2021-08-19T05:35:05Z</time>
      </trkpt>
      <trkpt lat="43.65359" lon="0.49547">
        <ele>254.89</ele>
        <time>2021-08-19T05:35:13Z</time>
      </trkpt>
      <trkpt lat="43.65343" lon="0.49533">
        <ele>257.29</ele>
        <time>2021-08-19T05:35:25Z</time>
      </trkpt>
      <trkpt lat="43.65329" lon="0.49519">
        <ele>258.25</ele>
        <time>2021-08-19T05:35:34Z</time>
      </trkpt>
      <trkpt lat="43.6531" lon="0.49498">
        <ele>258.25</ele>
        <time>2021-08-19T05:35:43Z</time>
      </trkpt>
      <trkpt lat="43.65283" lon="0.49471">
        <ele>258.25</ele>
        <time>2021-08-19T05:35:51Z</time>
      </trkpt>
      <trkpt lat="43.6526" lon="0.49451">
        <ele>257.29</ele>
        <time>2021-08-19T05:35:58Z</time>
      </trkpt>
      <trkpt lat="43.65253" lon="0.49444">
        <ele>257.29</ele>
        <time>2021-08-19T05:36:00Z</time>
      </trkpt>
      <trkpt lat="43.65224" lon="0.4942">
        <ele>253.44</ele>
        <time>2021-08-19T05:36:06Z</time>
      </trkpt>
      <trkpt lat="43.65205" lon="0.49407">
        <ele>250.08</ele>
        <time>2021-08-19T05:36:09Z</time>
      </trkpt>
      <trkpt lat="43.65181" lon="0.49395">
        <ele>246.72</ele>
        <time>2021-08-19T05:36:12Z</time>
      </trkpt>
      <trkpt lat="43.65155" lon="0.49382">
        <ele>242.87</ele>
        <time>2021-08-19T05:36:15Z</time>
      </trkpt>
      <trkpt lat="43.65119" lon="0.49363">
        <ele>239.51</ele>
        <time>2021-08-19T05:36:19Z</time>
      </trkpt>
      <trkpt lat="43.6511" lon="0.49359">
        <ele>239.51</ele>
        <time>2021-08-19T05:36:20Z</time>
      </trkpt>
      <trkpt lat="43.65041" lon="0.4933">
        <ele>239.02</ele>
        <time>2021-08-19T05:36:28Z</time>
      </trkpt>
      <trkpt lat="43.64997" lon="0.49327">
        <ele>239.02</ele>
        <time>2021-08-19T05:36:34Z</time>
      </trkpt>
      <trkpt lat="43.64976" lon="0.49329">
        <ele>240.47</ele>
        <time>2021-08-19T05:36:38Z</time>
      </trkpt>
      <trkpt lat="43.6494" lon="0.49331">
        <ele>241.43</ele>
        <time>2021-08-19T05:36:46Z</time>
      </trkpt>
      <trkpt lat="43.64903" lon="0.49329">
        <ele>238.06</ele>
        <time>2021-08-19T05:36:52Z</time>
      </trkpt>
      <trkpt lat="43.64835" lon="0.49325">
        <ele>236.14</ele>
        <time>2021-08-19T05:37:02Z</time>
      </trkpt>
      <trkpt lat="43.64795" lon="0.49319">
        <ele>237.58</ele>
        <time>2021-08-19T05:37:09Z</time>
      </trkpt>
      <trkpt lat="43.64784" lon="0.49317">
        <ele>239.51</ele>
        <time>2021-08-19T05:37:12Z</time>
      </trkpt>
      <trkpt lat="43.64773" lon="0.49313">
        <ele>241.43</ele>
        <time>2021-08-19T05:37:19Z</time>
      </trkpt>
      <trkpt lat="43.64771" lon="0.49313">
        <ele>241.43</ele>
        <time>2021-08-19T05:37:20Z</time>
      </trkpt>
      <trkpt lat="43.6477" lon="0.49312">
        <ele>241.91</ele>
        <time>2021-08-19T05:37:21Z</time>
      </trkpt>
      <trkpt lat="43.64768" lon="0.49311">
        <ele>241.91</ele>
        <time>2021-08-19T05:37:22Z</time>
      </trkpt>
      <trkpt lat="43.64751" lon="0.49308">
        <ele>244.31</ele>
        <time>2021-08-19T05:37:32Z</time>
      </trkpt>
      <trkpt lat="43.64733" lon="0.49301">
        <ele>244.79</ele>
        <time>2021-08-19T05:37:41Z</time>
      </trkpt>
      <trkpt lat="43.64713" lon="0.49278">
        <ele>244.79</ele>
        <time>2021-08-19T05:37:48Z</time>
      </trkpt>
      <trkpt lat="43.64693" lon="0.49241">
        <ele>241.43</ele>
        <time>2021-08-19T05:37:54Z</time>
      </trkpt>
      <trkpt lat="43.64665" lon="0.49192">
        <ele>237.58</ele>
        <time>2021-08-19T05:38:00Z</time>
      </trkpt>
      <trkpt lat="43.64623" lon="0.49123">
        <ele>235.66</ele>
        <time>2021-08-19T05:38:08Z</time>
      </trkpt>
      <trkpt lat="43.64617" lon="0.49117">
        <ele>235.66</ele>
        <time>2021-08-19T05:38:09Z</time>
      </trkpt>
      <trkpt lat="43.64611" lon="0.49113">
        <ele>235.66</ele>
        <time>2021-08-19T05:38:10Z</time>
      </trkpt>
      <trkpt lat="43.64604" lon="0.49111">
        <ele>235.66</ele>
        <time>2021-08-19T05:38:11Z</time>
      </trkpt>
      <trkpt lat="43.64598" lon="0.49109">
        <ele>235.66</ele>
        <time>2021-08-19T05:38:12Z</time>
      </trkpt>
      <trkpt lat="43.64591" lon="0.49108">
        <ele>235.66</ele>
        <time>2021-08-19T05:38:13Z</time>
      </trkpt>
      <trkpt lat="43.64547" lon="0.49101">
        <ele>237.58</ele>
        <time>2021-08-19T05:38:21Z</time>
      </trkpt>
      <trkpt lat="43.64538" lon="0.49099">
        <ele>238.06</ele>
        <time>2021-08-19T05:38:23Z</time>
      </trkpt>
      <trkpt lat="43.64508" lon="0.49093">
        <ele>239.51</ele>
        <time>2021-08-19T05:38:31Z</time>
      </trkpt>
      <trkpt lat="43.64494" lon="0.49084">
        <ele>241.43</ele>
        <time>2021-08-19T05:38:38Z</time>
      </trkpt>
      <trkpt lat="43.64482" lon="0.49068">
        <ele>242.87</ele>
        <time>2021-08-19T05:38:46Z</time>
      </trkpt>
      <trkpt lat="43.64467" lon="0.49043">
        <ele>244.31</ele>
        <time>2021-08-19T05:38:55Z</time>
      </trkpt>
      <trkpt lat="43.64453" lon="0.49021">
        <ele>243.35</ele>
        <time>2021-08-19T05:39:01Z</time>
      </trkpt>
      <trkpt lat="43.64433" lon="0.4899">
        <ele>239.99</ele>
        <time>2021-08-19T05:39:06Z</time>
      </trkpt>
      <trkpt lat="43.64406" lon="0.48947">
        <ele>236.14</ele>
        <time>2021-08-19T05:39:11Z</time>
      </trkpt>
      <trkpt lat="43.64389" lon="0.4892">
        <ele>235.18</ele>
        <time>2021-08-19T05:39:14Z</time>
      </trkpt>
      <trkpt lat="43.64383" lon="0.48913">
        <ele>235.18</ele>
        <time>2021-08-19T05:39:15Z</time>
      </trkpt>
      <trkpt lat="43.64376" lon="0.48906">
        <ele>235.66</ele>
        <time>2021-08-19T05:39:16Z</time>
      </trkpt>
      <trkpt lat="43.64343" lon="0.4888">
        <ele>238.06</ele>
        <time>2021-08-19T05:39:22Z</time>
      </trkpt>
      <trkpt lat="43.64317" lon="0.48875">
        <ele>239.99</ele>
        <time>2021-08-19T05:39:29Z</time>
      </trkpt>
      <trkpt lat="43.64313" lon="0.48876">
        <ele>240.47</ele>
        <time>2021-08-19T05:39:30Z</time>
      </trkpt>
      <trkpt lat="43.64309" lon="0.48877">
        <ele>240.47</ele>
        <time>2021-08-19T05:39:31Z</time>
      </trkpt>
      <trkpt lat="43.64305" lon="0.48879">
        <ele>240.47</ele>
        <time>2021-08-19T05:39:32Z</time>
      </trkpt>
      <trkpt lat="43.64301" lon="0.48882">
        <ele>240.47</ele>
        <time>2021-08-19T05:39:33Z</time>
      </trkpt>
      <trkpt lat="43.64291" lon="0.48889">
        <ele>238.54</ele>
        <time>2021-08-19T05:39:35Z</time>
      </trkpt>
      <trkpt lat="43.64269" lon="0.48911">
        <ele>235.18</ele>
        <time>2021-08-19T05:39:39Z</time>
      </trkpt>
      <trkpt lat="43.64244" lon="0.4893">
        <ele>231.81</ele>
        <time>2021-08-19T05:39:42Z</time>
      </trkpt>
      <trkpt lat="43.64226" lon="0.4894">
        <ele>230.85</ele>
        <time>2021-08-19T05:39:44Z</time>
      </trkpt>
      <trkpt lat="43.64217" lon="0.48944">
        <ele>230.37</ele>
        <time>2021-08-19T05:39:45Z</time>
      </trkpt>
      <trkpt lat="43.64207" lon="0.48946">
        <ele>230.85</ele>
        <time>2021-08-19T05:39:46Z</time>
      </trkpt>
      <trkpt lat="43.64198" lon="0.48946">
        <ele>230.37</ele>
        <time>2021-08-19T05:39:47Z</time>
      </trkpt>
      <trkpt lat="43.64189" lon="0.48944">
        <ele>230.37</ele>
        <time>2021-08-19T05:39:48Z</time>
      </trkpt>
      <trkpt lat="43.64181" lon="0.48943">
        <ele>230.37</ele>
        <time>2021-08-19T05:39:49Z</time>
      </trkpt>
      <trkpt lat="43.6415" lon="0.48931">
        <ele>233.26</ele>
        <time>2021-08-19T05:39:54Z</time>
      </trkpt>
      <trkpt lat="43.64129" lon="0.48922">
        <ele>234.22</ele>
        <time>2021-08-19T05:39:58Z</time>
      </trkpt>
      <trkpt lat="43.64082" lon="0.48913">
        <ele>235.18</ele>
        <time>2021-08-19T05:40:08Z</time>
      </trkpt>
      <trkpt lat="43.64063" lon="0.48907">
        <ele>231.81</ele>
        <time>2021-08-19T05:40:11Z</time>
      </trkpt>
      <trkpt lat="43.64033" lon="0.48898">
        <ele>228.45</ele>
        <time>2021-08-19T05:40:15Z</time>
      </trkpt>
      <trkpt lat="43.64026" lon="0.48893">
        <ele>228.45</ele>
        <time>2021-08-19T05:40:16Z</time>
      </trkpt>
      <trkpt lat="43.64019" lon="0.48887">
        <ele>228.45</ele>
        <time>2021-08-19T05:40:17Z</time>
      </trkpt>
      <trkpt lat="43.64014" lon="0.4888">
        <ele>227.97</ele>
        <time>2021-08-19T05:40:18Z</time>
      </trkpt>
      <trkpt lat="43.64009" lon="0.48873">
        <ele>227.97</ele>
        <time>2021-08-19T05:40:19Z</time>
      </trkpt>
      <trkpt lat="43.63977" lon="0.48836">
        <ele>227.49</ele>
        <time>2021-08-19T05:40:25Z</time>
      </trkpt>
      <trkpt lat="43.63971" lon="0.48832">
        <ele>227.01</ele>
        <time>2021-08-19T05:40:26Z</time>
      </trkpt>
      <trkpt lat="43.63964" lon="0.48829">
        <ele>226.53</ele>
        <time>2021-08-19T05:40:27Z</time>
      </trkpt>
      <trkpt lat="43.63956" lon="0.48826">
        <ele>225.57</ele>
        <time>2021-08-19T05:40:28Z</time>
      </trkpt>
      <trkpt lat="43.63948" lon="0.48824">
        <ele>223.64</ele>
        <time>2021-08-19T05:40:29Z</time>
      </trkpt>
      <trkpt lat="43.63939" lon="0.48823">
        <ele>222.68</ele>
        <time>2021-08-19T05:40:30Z</time>
      </trkpt>
      <trkpt lat="43.63929" lon="0.48822">
        <ele>221.72</ele>
        <time>2021-08-19T05:40:31Z</time>
      </trkpt>
      <trkpt lat="43.6392" lon="0.48822">
        <ele>221.72</ele>
        <time>2021-08-19T05:40:32Z</time>
      </trkpt>
      <trkpt lat="43.63896" lon="0.4882">
        <ele>221.72</ele>
        <time>2021-08-19T05:40:36Z</time>
      </trkpt>
      <trkpt lat="43.63894" lon="0.48817">
        <ele>221.72</ele>
        <time>2021-08-19T05:40:37Z</time>
      </trkpt>
      <trkpt lat="43.63892" lon="0.48812">
        <ele>221.72</ele>
        <time>2021-08-19T05:40:38Z</time>
      </trkpt>
      <trkpt lat="43.63891" lon="0.48807">
        <ele>221.72</ele>
        <time>2021-08-19T05:40:39Z</time>
      </trkpt>
      <trkpt lat="43.63888" lon="0.48802">
        <ele>221.72</ele>
        <time>2021-08-19T05:40:40Z</time>
      </trkpt>
      <trkpt lat="43.63887" lon="0.488">
        <ele>221.72</ele>
        <time>2021-08-19T05:40:41Z</time>
      </trkpt>
      <trkpt lat="43.63885" lon="0.48799">
        <ele>223.64</ele>
        <time>2021-08-19T05:40:42Z</time>
      </trkpt>
      <trkpt lat="43.63884" lon="0.48798">
        <ele>223.64</ele>
        <time>2021-08-19T05:40:43Z</time>
      </trkpt>
      <trkpt lat="43.63881" lon="0.48795">
        <ele>224.61</ele>
        <time>2021-08-19T05:40:49Z</time>
      </trkpt>
      <trkpt lat="43.63875" lon="0.48791">
        <ele>225.57</ele>
        <time>2021-08-19T05:40:57Z</time>
      </trkpt>
      <trkpt lat="43.63869" lon="0.48787">
        <ele>227.49</ele>
        <time>2021-08-19T05:41:06Z</time>
      </trkpt>
      <trkpt lat="43.63861" lon="0.48784">
        <ele>228.93</ele>
        <time>2021-08-19T05:41:16Z</time>
      </trkpt>
      <trkpt lat="43.63852" lon="0.48781">
        <ele>230.37</ele>
        <time>2021-08-19T05:41:26Z</time>
      </trkpt>
      <trkpt lat="43.63851" lon="0.4878">
        <ele>230.37</ele>
        <time>2021-08-19T05:41:27Z</time>
      </trkpt>
      <trkpt lat="43.63844" lon="0.4878">
        <ele>230.85</ele>
        <time>2021-08-19T05:41:34Z</time>
      </trkpt>
      <trkpt lat="43.63838" lon="0.48778">
        <ele>230.85</ele>
        <time>2021-08-19T05:41:39Z</time>
      </trkpt>
      <trkpt lat="43.63837" lon="0.48779">
        <ele>230.85</ele>
        <time>2021-08-19T05:41:40Z</time>
      </trkpt>
      <trkpt lat="43.63835" lon="0.48778">
        <ele>230.85</ele>
        <time>2021-08-19T05:41:41Z</time>
      </trkpt>
      <trkpt lat="43.63832" lon="0.48778">
        <ele>231.33</ele>
        <time>2021-08-19T05:41:42Z</time>
      </trkpt>
      <trkpt lat="43.6383" lon="0.48778">
        <ele>231.33</ele>
        <time>2021-08-19T05:41:43Z</time>
      </trkpt>
      <trkpt lat="43.63819" lon="0.48778">
        <ele>231.33</ele>
        <time>2021-08-19T05:41:46Z</time>
      </trkpt>
      <trkpt lat="43.63817" lon="0.48776">
        <ele>231.33</ele>
        <time>2021-08-19T05:41:47Z</time>
      </trkpt>
      <trkpt lat="43.63815" lon="0.48774">
        <ele>231.33</ele>
        <time>2021-08-19T05:41:48Z</time>
      </trkpt>
      <trkpt lat="43.63813" lon="0.48772">
        <ele>231.33</ele>
        <time>2021-08-19T05:41:49Z</time>
      </trkpt>
      <trkpt lat="43.63811" lon="0.48771">
        <ele>231.33</ele>
        <time>2021-08-19T05:41:50Z</time>
      </trkpt>
      <trkpt lat="43.63809" lon="0.48768">
        <ele>231.33</ele>
        <time>2021-08-19T05:41:51Z</time>
      </trkpt>
      <trkpt lat="43.63808" lon="0.48765">
        <ele>231.33</ele>
        <time>2021-08-19T05:41:52Z</time>
      </trkpt>
      <trkpt lat="43.63806" lon="0.48762">
        <ele>229.89</ele>
        <time>2021-08-19T05:41:53Z</time>
      </trkpt>
      <trkpt lat="43.63803" lon="0.48758">
        <ele>229.41</ele>
        <time>2021-08-19T05:41:54Z</time>
      </trkpt>
      <trkpt lat="43.638" lon="0.48756">
        <ele>228.93</ele>
        <time>2021-08-19T05:41:55Z</time>
      </trkpt>
      <trkpt lat="43.63796" lon="0.48753">
        <ele>227.97</ele>
        <time>2021-08-19T05:41:56Z</time>
      </trkpt>
      <trkpt lat="43.63793" lon="0.48752">
        <ele>227.01</ele>
        <time>2021-08-19T05:41:57Z</time>
      </trkpt>
      <trkpt lat="43.6379" lon="0.48752">
        <ele>226.05</ele>
        <time>2021-08-19T05:41:58Z</time>
      </trkpt>
      <trkpt lat="43.63786" lon="0.48753">
        <ele>225.57</ele>
        <time>2021-08-19T05:41:59Z</time>
      </trkpt>
      <trkpt lat="43.63782" lon="0.48755">
        <ele>224.61</ele>
        <time>2021-08-19T05:42:00Z</time>
      </trkpt>
      <trkpt lat="43.63778" lon="0.48757">
        <ele>223.64</ele>
        <time>2021-08-19T05:42:01Z</time>
      </trkpt>
      <trkpt lat="43.63774" lon="0.48759">
        <ele>223.16</ele>
        <time>2021-08-19T05:42:02Z</time>
      </trkpt>
      <trkpt lat="43.63769" lon="0.4876">
        <ele>222.68</ele>
        <time>2021-08-19T05:42:03Z</time>
      </trkpt>
      <trkpt lat="43.63764" lon="0.4876">
        <ele>222.2</ele>
        <time>2021-08-19T05:42:04Z</time>
      </trkpt>
      <trkpt lat="43.6376" lon="0.48759">
        <ele>221.72</ele>
        <time>2021-08-19T05:42:05Z</time>
      </trkpt>
      <trkpt lat="43.63756" lon="0.48757">
        <ele>220.76</ele>
        <time>2021-08-19T05:42:06Z</time>
      </trkpt>
      <trkpt lat="43.63753" lon="0.48756">
        <ele>220.28</ele>
        <time>2021-08-19T05:42:07Z</time>
      </trkpt>
      <trkpt lat="43.63746" lon="0.48752">
        <ele>219.8</ele>
        <time>2021-08-19T05:42:09Z</time>
      </trkpt>
      <trkpt lat="43.63742" lon="0.4875">
        <ele>219.8</ele>
        <time>2021-08-19T05:42:10Z</time>
      </trkpt>
      <trkpt lat="43.63732" lon="0.48741">
        <ele>217.88</ele>
        <time>2021-08-19T05:42:15Z</time>
      </trkpt>
      <trkpt lat="43.63713" lon="0.48736">
        <ele>216.43</ele>
        <time>2021-08-19T05:42:19Z</time>
      </trkpt>
      <trkpt lat="43.63687" lon="0.4873">
        <ele>214.99</ele>
        <time>2021-08-19T05:42:25Z</time>
      </trkpt>
      <trkpt lat="43.63678" lon="0.48723">
        <ele>213.07</ele>
        <time>2021-08-19T05:42:29Z</time>
      </trkpt>
      <trkpt lat="43.6367" lon="0.48712">
        <ele>211.15</ele>
        <time>2021-08-19T05:42:34Z</time>
      </trkpt>
      <trkpt lat="43.63666" lon="0.48695">
        <ele>208.74</ele>
        <time>2021-08-19T05:42:38Z</time>
      </trkpt>
      <trkpt lat="43.63665" lon="0.48689">
        <ele>208.26</ele>
        <time>2021-08-19T05:42:39Z</time>
      </trkpt>
      <trkpt lat="43.63673" lon="0.48654">
        <ele>202.98</ele>
        <time>2021-08-19T05:42:44Z</time>
      </trkpt>
      <trkpt lat="43.63678" lon="0.48629">
        <ele>200.09</ele>
        <time>2021-08-19T05:42:47Z</time>
      </trkpt>
      <trkpt lat="43.63692" lon="0.48586">
        <ele>195.77</ele>
        <time>2021-08-19T05:42:52Z</time>
      </trkpt>
      <trkpt lat="43.63705" lon="0.48556">
        <ele>191.92</ele>
        <time>2021-08-19T05:42:56Z</time>
      </trkpt>
      <trkpt lat="43.63712" lon="0.48541">
        <ele>190.96</ele>
        <time>2021-08-19T05:42:58Z</time>
      </trkpt>
      <trkpt lat="43.63718" lon="0.48528">
        <ele>189.52</ele>
        <time>2021-08-19T05:43:00Z</time>
      </trkpt>
      <trkpt lat="43.63725" lon="0.48508">
        <ele>188.08</ele>
        <time>2021-08-19T05:43:03Z</time>
      </trkpt>
      <trkpt lat="43.63744" lon="0.48459">
        <ele>184.71</ele>
        <time>2021-08-19T05:43:11Z</time>
      </trkpt>
      <trkpt lat="43.63759" lon="0.48424">
        <ele>181.35</ele>
        <time>2021-08-19T05:43:16Z</time>
      </trkpt>
      <trkpt lat="43.63775" lon="0.48384">
        <ele>179.42</ele>
        <time>2021-08-19T05:43:22Z</time>
      </trkpt>
      <trkpt lat="43.63785" lon="0.48356">
        <ele>177.5</ele>
        <time>2021-08-19T05:43:26Z</time>
      </trkpt>
      <trkpt lat="43.63791" lon="0.48324">
        <ele>175.58</ele>
        <time>2021-08-19T05:43:30Z</time>
      </trkpt>
      <trkpt lat="43.63792" lon="0.48279">
        <ele>173.66</ele>
        <time>2021-08-19T05:43:35Z</time>
      </trkpt>
      <trkpt lat="43.63793" lon="0.4822">
        <ele>171.73</ele>
        <time>2021-08-19T05:43:42Z</time>
      </trkpt>
      <trkpt lat="43.63792" lon="0.48182">
        <ele>171.25</ele>
        <time>2021-08-19T05:43:47Z</time>
      </trkpt>
      <trkpt lat="43.63792" lon="0.48129">
        <ele>170.29</ele>
        <time>2021-08-19T05:43:54Z</time>
      </trkpt>
      <trkpt lat="43.63789" lon="0.48073">
        <ele>168.37</ele>
        <time>2021-08-19T05:44:01Z</time>
      </trkpt>
      <trkpt lat="43.63788" lon="0.48055">
        <ele>168.37</ele>
        <time>2021-08-19T05:44:03Z</time>
      </trkpt>
      <trkpt lat="43.63789" lon="0.48046">
        <ele>168.37</ele>
        <time>2021-08-19T05:44:04Z</time>
      </trkpt>
      <trkpt lat="43.6379" lon="0.48039">
        <ele>168.37</ele>
        <time>2021-08-19T05:44:05Z</time>
      </trkpt>
      <trkpt lat="43.63792" lon="0.48031">
        <ele>168.37</ele>
        <time>2021-08-19T05:44:06Z</time>
      </trkpt>
      <trkpt lat="43.63792" lon="0.48024">
        <ele>168.37</ele>
        <time>2021-08-19T05:44:07Z</time>
      </trkpt>
      <trkpt lat="43.63793" lon="0.48009">
        <ele>167.41</ele>
        <time>2021-08-19T05:44:09Z</time>
      </trkpt>
      <trkpt lat="43.63793" lon="0.48002">
        <ele>167.41</ele>
        <time>2021-08-19T05:44:10Z</time>
      </trkpt>
      <trkpt lat="43.63792" lon="0.47995">
        <ele>167.41</ele>
        <time>2021-08-19T05:44:11Z</time>
      </trkpt>
      <trkpt lat="43.63791" lon="0.47989">
        <ele>167.41</ele>
        <time>2021-08-19T05:44:12Z</time>
      </trkpt>
      <trkpt lat="43.63791" lon="0.47982">
        <ele>167.41</ele>
        <time>2021-08-19T05:44:13Z</time>
      </trkpt>
      <trkpt lat="43.63791" lon="0.47975">
        <ele>167.41</ele>
        <time>2021-08-19T05:44:14Z</time>
      </trkpt>
      <trkpt lat="43.63798" lon="0.47943">
        <ele>167.41</ele>
        <time>2021-08-19T05:44:21Z</time>
      </trkpt>
      <trkpt lat="43.63806" lon="0.47937">
        <ele>167.41</ele>
        <time>2021-08-19T05:44:24Z</time>
      </trkpt>
      <trkpt lat="43.63814" lon="0.47934">
        <ele>167.41</ele>
        <time>2021-08-19T05:44:29Z</time>
      </trkpt>
      <trkpt lat="43.63815" lon="0.47928">
        <ele>167.41</ele>
        <time>2021-08-19T05:44:35Z</time>
      </trkpt>
      <trkpt lat="43.63814" lon="0.4792">
        <ele>167.41</ele>
        <time>2021-08-19T05:44:43Z</time>
      </trkpt>
      <trkpt lat="43.63813" lon="0.47914">
        <ele>167.41</ele>
        <time>2021-08-19T05:44:51Z</time>
      </trkpt>
      <trkpt lat="43.63813" lon="0.47913">
        <ele>167.41</ele>
        <time>2021-08-19T05:44:52Z</time>
      </trkpt>
      <trkpt lat="43.6381" lon="0.47906">
        <ele>167.41</ele>
        <time>2021-08-19T05:44:58Z</time>
      </trkpt>
      <trkpt lat="43.63804" lon="0.47887">
        <ele>167.41</ele>
        <time>2021-08-19T05:45:06Z</time>
      </trkpt>
      <trkpt lat="43.63796" lon="0.4786">
        <ele>167.41</ele>
        <time>2021-08-19T05:45:14Z</time>
      </trkpt>
      <trkpt lat="43.63788" lon="0.47836">
        <ele>167.41</ele>
        <time>2021-08-19T05:45:21Z</time>
      </trkpt>
      <trkpt lat="43.63772" lon="0.47789">
        <ele>168.37</ele>
        <time>2021-08-19T05:45:33Z</time>
      </trkpt>
      <trkpt lat="43.63763" lon="0.47763">
        <ele>168.85</ele>
        <time>2021-08-19T05:45:40Z</time>
      </trkpt>
      <trkpt lat="43.63761" lon="0.47757">
        <ele>169.33</ele>
        <time>2021-08-19T05:45:42Z</time>
      </trkpt>
      <trkpt lat="43.6376" lon="0.47758">
        <ele>169.33</ele>
        <time>2021-08-19T05:45:43Z</time>
      </trkpt>
      <trkpt lat="43.63758" lon="0.4776">
        <ele>169.33</ele>
        <time>2021-08-19T05:45:44Z</time>
      </trkpt>
      <trkpt lat="43.63756" lon="0.47761">
        <ele>169.33</ele>
        <time>2021-08-19T05:45:45Z</time>
      </trkpt>
      <trkpt lat="43.63753" lon="0.47764">
        <ele>169.33</ele>
        <time>2021-08-19T05:45:46Z</time>
      </trkpt>
      <trkpt lat="43.63731" lon="0.47783">
        <ele>169.33</ele>
        <time>2021-08-19T05:45:53Z</time>
      </trkpt>
      <trkpt lat="43.63695" lon="0.47812">
        <ele>169.81</ele>
        <time>2021-08-19T05:46:03Z</time>
      </trkpt>
      <trkpt lat="43.6366" lon="0.4784">
        <ele>169.81</ele>
        <time>2021-08-19T05:46:11Z</time>
      </trkpt>
      <trkpt lat="43.6365" lon="0.4785">
        <ele>168.37</ele>
        <time>2021-08-19T05:46:13Z</time>
      </trkpt>
      <trkpt lat="43.63597" lon="0.47885">
        <ele>167.89</ele>
        <time>2021-08-19T05:46:22Z</time>
      </trkpt>
      <trkpt lat="43.63542" lon="0.47914">
        <ele>167.89</ele>
        <time>2021-08-19T05:46:32Z</time>
      </trkpt>
      <trkpt lat="43.63493" lon="0.47937">
        <ele>167.89</ele>
        <time>2021-08-19T05:46:41Z</time>
      </trkpt>
      <trkpt lat="43.63447" lon="0.47944">
        <ele>167.89</ele>
        <time>2021-08-19T05:46:49Z</time>
      </trkpt>
      <trkpt lat="43.63415" lon="0.47953">
        <ele>169.81</ele>
        <time>2021-08-19T05:46:55Z</time>
      </trkpt>
      <trkpt lat="43.63407" lon="0.47957">
        <ele>169.81</ele>
        <time>2021-08-19T05:46:57Z</time>
      </trkpt>
      <trkpt lat="43.63403" lon="0.47956">
        <ele>169.81</ele>
        <time>2021-08-19T05:46:58Z</time>
      </trkpt>
      <trkpt lat="43.634" lon="0.47953">
        <ele>170.29</ele>
        <time>2021-08-19T05:46:59Z</time>
      </trkpt>
      <trkpt lat="43.63398" lon="0.47949">
        <ele>170.77</ele>
        <time>2021-08-19T05:47:00Z</time>
      </trkpt>
      <trkpt lat="43.63398" lon="0.47946">
        <ele>171.25</ele>
        <time>2021-08-19T05:47:01Z</time>
      </trkpt>
      <trkpt lat="43.63398" lon="0.47941">
        <ele>171.25</ele>
        <time>2021-08-19T05:47:02Z</time>
      </trkpt>
      <trkpt lat="43.63398" lon="0.47937">
        <ele>171.25</ele>
        <time>2021-08-19T05:47:03Z</time>
      </trkpt>
      <trkpt lat="43.63398" lon="0.47934">
        <ele>171.25</ele>
        <time>2021-08-19T05:47:04Z</time>
      </trkpt>
      <trkpt lat="43.63399" lon="0.4791">
        <ele>173.17</ele>
        <time>2021-08-19T05:47:12Z</time>
      </trkpt>
      <trkpt lat="43.63397" lon="0.47879">
        <ele>174.62</ele>
        <time>2021-08-19T05:47:21Z</time>
      </trkpt>
      <trkpt lat="43.63396" lon="0.47844">
        <ele>177.02</ele>
        <time>2021-08-19T05:47:32Z</time>
      </trkpt>
      <trkpt lat="43.63394" lon="0.47805">
        <ele>179.42</ele>
        <time>2021-08-19T05:47:44Z</time>
      </trkpt>
      <trkpt lat="43.63393" lon="0.47772">
        <ele>180.87</ele>
        <time>2021-08-19T05:47:56Z</time>
      </trkpt>
      <trkpt lat="43.63391" lon="0.47746">
        <ele>183.27</ele>
        <time>2021-08-19T05:48:06Z</time>
      </trkpt>
      <trkpt lat="43.63388" lon="0.47723">
        <ele>184.71</ele>
        <time>2021-08-19T05:48:15Z</time>
      </trkpt>
      <trkpt lat="43.63385" lon="0.47701">
        <ele>185.67</ele>
        <time>2021-08-19T05:48:24Z</time>
      </trkpt>
      <trkpt lat="43.6338" lon="0.47672">
        <ele>188.08</ele>
        <time>2021-08-19T05:48:35Z</time>
      </trkpt>
      <trkpt lat="43.63376" lon="0.47645">
        <ele>189.52</ele>
        <time>2021-08-19T05:48:45Z</time>
      </trkpt>
      <trkpt lat="43.63373" lon="0.47624">
        <ele>190.96</ele>
        <time>2021-08-19T05:48:53Z</time>
      </trkpt>
      <trkpt lat="43.63371" lon="0.47599">
        <ele>192.4</ele>
        <time>2021-08-19T05:49:02Z</time>
      </trkpt>
      <trkpt lat="43.63367" lon="0.47568">
        <ele>193.36</ele>
        <time>2021-08-19T05:49:12Z</time>
      </trkpt>
      <trkpt lat="43.63366" lon="0.47532">
        <ele>194.8</ele>
        <time>2021-08-19T05:49:23Z</time>
      </trkpt>
      <trkpt lat="43.63371" lon="0.47519">
        <ele>195.28</ele>
        <time>2021-08-19T05:49:28Z</time>
      </trkpt>
      <trkpt lat="43.6338" lon="0.475">
        <ele>196.25</ele>
        <time>2021-08-19T05:49:35Z</time>
      </trkpt>
      <trkpt lat="43.63376" lon="0.47476">
        <ele>196.25</ele>
        <time>2021-08-19T05:49:41Z</time>
      </trkpt>
      <trkpt lat="43.6336" lon="0.47433">
        <ele>197.21</ele>
        <time>2021-08-19T05:49:52Z</time>
      </trkpt>
      <trkpt lat="43.63348" lon="0.474">
        <ele>198.65</ele>
        <time>2021-08-19T05:50:01Z</time>
      </trkpt>
      <trkpt lat="43.6334" lon="0.47372">
        <ele>199.61</ele>
        <time>2021-08-19T05:50:09Z</time>
      </trkpt>
      <trkpt lat="43.63336" lon="0.47343">
        <ele>201.05</ele>
        <time>2021-08-19T05:50:17Z</time>
      </trkpt>
      <trkpt lat="43.63333" lon="0.47301">
        <ele>203.46</ele>
        <time>2021-08-19T05:50:29Z</time>
      </trkpt>
      <trkpt lat="43.63332" lon="0.47285">
        <ele>204.9</ele>
        <time>2021-08-19T05:50:36Z</time>
      </trkpt>
      <trkpt lat="43.63331" lon="0.47262">
        <ele>206.82</ele>
        <time>2021-08-19T05:50:45Z</time>
      </trkpt>
      <trkpt lat="43.63329" lon="0.47239">
        <ele>208.26</ele>
        <time>2021-08-19T05:50:54Z</time>
      </trkpt>
      <trkpt lat="43.63327" lon="0.47218">
        <ele>209.7</ele>
        <time>2021-08-19T05:51:02Z</time>
      </trkpt>
      <trkpt lat="43.63324" lon="0.47192">
        <ele>211.63</ele>
        <time>2021-08-19T05:51:12Z</time>
      </trkpt>
      <trkpt lat="43.63322" lon="0.47166">
        <ele>213.55</ele>
        <time>2021-08-19T05:51:22Z</time>
      </trkpt>
      <trkpt lat="43.63319" lon="0.47136">
        <ele>214.99</ele>
        <time>2021-08-19T05:51:33Z</time>
      </trkpt>
      <trkpt lat="43.63315" lon="0.47102">
        <ele>217.4</ele>
        <time>2021-08-19T05:51:45Z</time>
      </trkpt>
      <trkpt lat="43.63311" lon="0.47071">
        <ele>218.36</ele>
        <time>2021-08-19T05:51:56Z</time>
      </trkpt>
      <trkpt lat="43.63309" lon="0.47051">
        <ele>219.8</ele>
        <time>2021-08-19T05:52:03Z</time>
      </trkpt>
      <trkpt lat="43.63305" lon="0.47029">
        <ele>221.24</ele>
        <time>2021-08-19T05:52:11Z</time>
      </trkpt>
      <trkpt lat="43.633" lon="0.46994">
        <ele>222.2</ele>
        <time>2021-08-19T05:52:21Z</time>
      </trkpt>
      <trkpt lat="43.63292" lon="0.46956">
        <ele>223.64</ele>
        <time>2021-08-19T05:52:32Z</time>
      </trkpt>
      <trkpt lat="43.6328" lon="0.46919">
        <ele>225.09</ele>
        <time>2021-08-19T05:52:43Z</time>
      </trkpt>
      <trkpt lat="43.63273" lon="0.46906">
        <ele>226.53</ele>
        <time>2021-08-19T05:52:50Z</time>
      </trkpt>
      <trkpt lat="43.63273" lon="0.46906">
        <ele>226.53</ele>
        <time>2021-08-19T05:52:57Z</time>
      </trkpt>
      <trkpt lat="43.63273" lon="0.46906">
        <ele>226.53</ele>
        <time>2021-08-19T05:53:11Z</time>
      </trkpt>
      <trkpt lat="43.63272" lon="0.46905">
        <ele>226.53</ele>
        <time>2021-08-19T05:53:25Z</time>
      </trkpt>
      <trkpt lat="43.63271" lon="0.46905">
        <ele>226.53</ele>
        <time>2021-08-19T05:53:26Z</time>
      </trkpt>
      <trkpt lat="43.63269" lon="0.46904">
        <ele>226.53</ele>
        <time>2021-08-19T05:53:27Z</time>
      </trkpt>
      <trkpt lat="43.63268" lon="0.46902">
        <ele>226.53</ele>
        <time>2021-08-19T05:53:28Z</time>
      </trkpt>
      <trkpt lat="43.63254" lon="0.46895">
        <ele>227.49</ele>
        <time>2021-08-19T05:53:35Z</time>
      </trkpt>
      <trkpt lat="43.63234" lon="0.4689">
        <ele>229.41</ele>
        <time>2021-08-19T05:53:44Z</time>
      </trkpt>
      <trkpt lat="43.63212" lon="0.46888">
        <ele>231.81</ele>
        <time>2021-08-19T05:53:55Z</time>
      </trkpt>
      <trkpt lat="43.63204" lon="0.46875">
        <ele>233.26</ele>
        <time>2021-08-19T05:54:01Z</time>
      </trkpt>
      <trkpt lat="43.63204" lon="0.46872">
        <ele>233.26</ele>
        <time>2021-08-19T05:54:02Z</time>
      </trkpt>
      <trkpt lat="43.63205" lon="0.46868">
        <ele>233.74</ele>
        <time>2021-08-19T05:54:03Z</time>
      </trkpt>
      <trkpt lat="43.63205" lon="0.46865">
        <ele>233.74</ele>
        <time>2021-08-19T05:54:04Z</time>
      </trkpt>
      <trkpt lat="43.63207" lon="0.46862">
        <ele>233.74</ele>
        <time>2021-08-19T05:54:05Z</time>
      </trkpt>
      <trkpt lat="43.63208" lon="0.46859">
        <ele>233.74</ele>
        <time>2021-08-19T05:54:06Z</time>
      </trkpt>
      <trkpt lat="43.63209" lon="0.46856">
        <ele>234.22</ele>
        <time>2021-08-19T05:54:07Z</time>
      </trkpt>
      <trkpt lat="43.6321" lon="0.46853">
        <ele>234.22</ele>
        <time>2021-08-19T05:54:08Z</time>
      </trkpt>
      <trkpt lat="43.63223" lon="0.46816">
        <ele>235.18</ele>
        <time>2021-08-19T05:54:19Z</time>
      </trkpt>
      <trkpt lat="43.63238" lon="0.46777">
        <ele>237.58</ele>
        <time>2021-08-19T05:54:31Z</time>
      </trkpt>
      <trkpt lat="43.63249" lon="0.46741">
        <ele>239.99</ele>
        <time>2021-08-19T05:54:43Z</time>
      </trkpt>
      <trkpt lat="43.63261" lon="0.46704">
        <ele>242.39</ele>
        <time>2021-08-19T05:54:56Z</time>
      </trkpt>
      <trkpt lat="43.63269" lon="0.46668">
        <ele>244.31</ele>
        <time>2021-08-19T05:55:08Z</time>
      </trkpt>
      <trkpt lat="43.63276" lon="0.46633">
        <ele>245.27</ele>
        <time>2021-08-19T05:55:17Z</time>
      </trkpt>
      <trkpt lat="43.63283" lon="0.46586">
        <ele>246.72</ele>
        <time>2021-08-19T05:55:28Z</time>
      </trkpt>
      <trkpt lat="43.63293" lon="0.46549">
        <ele>247.2</ele>
        <time>2021-08-19T05:55:36Z</time>
      </trkpt>
      <trkpt lat="43.6331" lon="0.46501">
        <ele>248.64</ele>
        <time>2021-08-19T05:55:47Z</time>
      </trkpt>
      <trkpt lat="43.63332" lon="0.46447">
        <ele>249.12</ele>
        <time>2021-08-19T05:55:59Z</time>
      </trkpt>
      <trkpt lat="43.63342" lon="0.46426">
        <ele>248.16</ele>
        <time>2021-08-19T05:56:03Z</time>
      </trkpt>
      <trkpt lat="43.63375" lon="0.46384">
        <ele>247.68</ele>
        <time>2021-08-19T05:56:12Z</time>
      </trkpt>
      <trkpt lat="43.63398" lon="0.46348">
        <ele>247.68</ele>
        <time>2021-08-19T05:56:19Z</time>
      </trkpt>
      <trkpt lat="43.634" lon="0.46342">
        <ele>247.68</ele>
        <time>2021-08-19T05:56:20Z</time>
      </trkpt>
      <trkpt lat="43.63402" lon="0.46336">
        <ele>247.68</ele>
        <time>2021-08-19T05:56:21Z</time>
      </trkpt>
      <trkpt lat="43.63418" lon="0.46304">
        <ele>247.68</ele>
        <time>2021-08-19T05:56:27Z</time>
      </trkpt>
      <trkpt lat="43.63424" lon="0.46287">
        <ele>248.64</ele>
        <time>2021-08-19T05:56:30Z</time>
      </trkpt>
      <trkpt lat="43.63439" lon="0.46248">
        <ele>250.56</ele>
        <time>2021-08-19T05:56:38Z</time>
      </trkpt>
      <trkpt lat="43.63444" lon="0.46229">
        <ele>251.04</ele>
        <time>2021-08-19T05:56:42Z</time>
      </trkpt>
      <trkpt lat="43.63446" lon="0.46224">
        <ele>251.04</ele>
        <time>2021-08-19T05:56:43Z</time>
      </trkpt>
      <trkpt lat="43.63447" lon="0.46218">
        <ele>251.04</ele>
        <time>2021-08-19T05:56:44Z</time>
      </trkpt>
      <trkpt lat="43.63449" lon="0.46193">
        <ele>251.52</ele>
        <time>2021-08-19T05:56:50Z</time>
      </trkpt>
      <trkpt lat="43.63457" lon="0.46161">
        <ele>251.04</ele>
        <time>2021-08-19T05:56:57Z</time>
      </trkpt>
      <trkpt lat="43.63474" lon="0.4612">
        <ele>249.6</ele>
        <time>2021-08-19T05:57:05Z</time>
      </trkpt>
      <trkpt lat="43.63479" lon="0.46109">
        <ele>248.64</ele>
        <time>2021-08-19T05:57:07Z</time>
      </trkpt>
      <trkpt lat="43.63505" lon="0.46073">
        <ele>248.16</ele>
        <time>2021-08-19T05:57:15Z</time>
      </trkpt>
      <trkpt lat="43.63508" lon="0.46069">
        <ele>248.16</ele>
        <time>2021-08-19T05:57:16Z</time>
      </trkpt>
      <trkpt lat="43.63511" lon="0.46065">
        <ele>248.16</ele>
        <time>2021-08-19T05:57:17Z</time>
      </trkpt>
      <trkpt lat="43.63532" lon="0.46035">
        <ele>248.16</ele>
        <time>2021-08-19T05:57:25Z</time>
      </trkpt>
      <trkpt lat="43.63555" lon="0.46003">
        <ele>249.12</ele>
        <time>2021-08-19T05:57:34Z</time>
      </trkpt>
      <trkpt lat="43.63567" lon="0.45983">
        <ele>250.08</ele>
        <time>2021-08-19T05:57:40Z</time>
      </trkpt>
      <trkpt lat="43.63579" lon="0.4596">
        <ele>251.04</ele>
        <time>2021-08-19T05:57:47Z</time>
      </trkpt>
      <trkpt lat="43.63593" lon="0.45937">
        <ele>252</ele>
        <time>2021-08-19T05:57:55Z</time>
      </trkpt>
      <trkpt lat="43.63607" lon="0.45908">
        <ele>252.96</ele>
        <time>2021-08-19T05:58:03Z</time>
      </trkpt>
      <trkpt lat="43.63615" lon="0.45887">
        <ele>252.96</ele>
        <time>2021-08-19T05:58:08Z</time>
      </trkpt>
      <trkpt lat="43.63625" lon="0.45854">
        <ele>252.96</ele>
        <time>2021-08-19T05:58:15Z</time>
      </trkpt>
      <trkpt lat="43.63641" lon="0.4581">
        <ele>252.48</ele>
        <time>2021-08-19T05:58:24Z</time>
      </trkpt>
      <trkpt lat="43.63662" lon="0.4575">
        <ele>252.48</ele>
        <time>2021-08-19T05:58:35Z</time>
      </trkpt>
      <trkpt lat="43.63672" lon="0.45714">
        <ele>252.48</ele>
        <time>2021-08-19T05:58:42Z</time>
      </trkpt>
      <trkpt lat="43.6368" lon="0.45681">
        <ele>252.48</ele>
        <time>2021-08-19T05:58:49Z</time>
      </trkpt>
      <trkpt lat="43.63688" lon="0.4564">
        <ele>252.96</ele>
        <time>2021-08-19T05:58:57Z</time>
      </trkpt>
      <trkpt lat="43.63695" lon="0.45599">
        <ele>252.96</ele>
        <time>2021-08-19T05:59:05Z</time>
      </trkpt>
      <trkpt lat="43.63703" lon="0.45551">
        <ele>252.96</ele>
        <time>2021-08-19T05:59:14Z</time>
      </trkpt>
      <trkpt lat="43.63708" lon="0.45536">
        <ele>252.96</ele>
        <time>2021-08-19T05:59:17Z</time>
      </trkpt>
      <trkpt lat="43.63709" lon="0.45531">
        <ele>252.96</ele>
        <time>2021-08-19T05:59:18Z</time>
      </trkpt>
      <trkpt lat="43.63711" lon="0.45527">
        <ele>252.96</ele>
        <time>2021-08-19T05:59:19Z</time>
      </trkpt>
      <trkpt lat="43.63712" lon="0.45521">
        <ele>252.96</ele>
        <time>2021-08-19T05:59:20Z</time>
      </trkpt>
      <trkpt lat="43.63713" lon="0.45515">
        <ele>252.96</ele>
        <time>2021-08-19T05:59:21Z</time>
      </trkpt>
      <trkpt lat="43.63714" lon="0.45509">
        <ele>252.96</ele>
        <time>2021-08-19T05:59:22Z</time>
      </trkpt>
      <trkpt lat="43.63718" lon="0.45493">
        <ele>252.96</ele>
        <time>2021-08-19T05:59:25Z</time>
      </trkpt>
      <trkpt lat="43.63719" lon="0.45487">
        <ele>252.96</ele>
        <time>2021-08-19T05:59:26Z</time>
      </trkpt>
      <trkpt lat="43.63721" lon="0.45482">
        <ele>252.96</ele>
        <time>2021-08-19T05:59:27Z</time>
      </trkpt>
      <trkpt lat="43.63733" lon="0.45438">
        <ele>252.96</ele>
        <time>2021-08-19T05:59:35Z</time>
      </trkpt>
      <trkpt lat="43.63742" lon="0.45396">
        <ele>252</ele>
        <time>2021-08-19T05:59:43Z</time>
      </trkpt>
      <trkpt lat="43.63751" lon="0.45357">
        <ele>251.52</ele>
        <time>2021-08-19T05:59:51Z</time>
      </trkpt>
      <trkpt lat="43.63754" lon="0.4534">
        <ele>251.04</ele>
        <time>2021-08-19T05:59:54Z</time>
      </trkpt>
      <trkpt lat="43.63764" lon="0.45302">
        <ele>250.56</ele>
        <time>2021-08-19T06:00:01Z</time>
      </trkpt>
      <trkpt lat="43.63772" lon="0.45281">
        <ele>250.56</ele>
        <time>2021-08-19T06:00:05Z</time>
      </trkpt>
      <trkpt lat="43.63773" lon="0.45276">
        <ele>250.56</ele>
        <time>2021-08-19T06:00:06Z</time>
      </trkpt>
      <trkpt lat="43.63778" lon="0.4526">
        <ele>250.08</ele>
        <time>2021-08-19T06:00:09Z</time>
      </trkpt>
      <trkpt lat="43.6378" lon="0.45254">
        <ele>250.08</ele>
        <time>2021-08-19T06:00:10Z</time>
      </trkpt>
      <trkpt lat="43.63789" lon="0.45219">
        <ele>249.6</ele>
        <time>2021-08-19T06:00:16Z</time>
      </trkpt>
      <trkpt lat="43.63793" lon="0.45202">
        <ele>249.12</ele>
        <time>2021-08-19T06:00:19Z</time>
      </trkpt>
      <trkpt lat="43.63796" lon="0.4519">
        <ele>248.64</ele>
        <time>2021-08-19T06:00:21Z</time>
      </trkpt>
      <trkpt lat="43.63797" lon="0.45183">
        <ele>248.16</ele>
        <time>2021-08-19T06:00:22Z</time>
      </trkpt>
      <trkpt lat="43.63807" lon="0.45141">
        <ele>245.75</ele>
        <time>2021-08-19T06:00:27Z</time>
      </trkpt>
      <trkpt lat="43.63808" lon="0.45131">
        <ele>245.27</ele>
        <time>2021-08-19T06:00:28Z</time>
      </trkpt>
      <trkpt lat="43.63809" lon="0.45121">
        <ele>244.31</ele>
        <time>2021-08-19T06:00:29Z</time>
      </trkpt>
      <trkpt lat="43.63809" lon="0.45048">
        <ele>242.39</ele>
        <time>2021-08-19T06:00:36Z</time>
      </trkpt>
      <trkpt lat="43.63808" lon="0.45038">
        <ele>242.39</ele>
        <time>2021-08-19T06:00:37Z</time>
      </trkpt>
      <trkpt lat="43.63807" lon="0.45027">
        <ele>241.91</ele>
        <time>2021-08-19T06:00:38Z</time>
      </trkpt>
      <trkpt lat="43.63805" lon="0.45017">
        <ele>241.91</ele>
        <time>2021-08-19T06:00:39Z</time>
      </trkpt>
      <trkpt lat="43.6378" lon="0.44945">
        <ele>240.95</ele>
        <time>2021-08-19T06:00:47Z</time>
      </trkpt>
      <trkpt lat="43.63763" lon="0.44899">
        <ele>240.95</ele>
        <time>2021-08-19T06:00:53Z</time>
      </trkpt>
      <trkpt lat="43.6376" lon="0.44892">
        <ele>240.95</ele>
        <time>2021-08-19T06:00:54Z</time>
      </trkpt>
      <trkpt lat="43.63757" lon="0.44886">
        <ele>240.95</ele>
        <time>2021-08-19T06:00:55Z</time>
      </trkpt>
      <trkpt lat="43.63746" lon="0.44871">
        <ele>240.95</ele>
        <time>2021-08-19T06:00:58Z</time>
      </trkpt>
      <trkpt lat="43.63742" lon="0.44867">
        <ele>240.95</ele>
        <time>2021-08-19T06:00:59Z</time>
      </trkpt>
      <trkpt lat="43.63732" lon="0.4486">
        <ele>240.95</ele>
        <time>2021-08-19T06:01:01Z</time>
      </trkpt>
      <trkpt lat="43.63727" lon="0.44857">
        <ele>240.95</ele>
        <time>2021-08-19T06:01:02Z</time>
      </trkpt>
      <trkpt lat="43.63686" lon="0.44848">
        <ele>240.95</ele>
        <time>2021-08-19T06:01:10Z</time>
      </trkpt>
      <trkpt lat="43.63659" lon="0.44844">
        <ele>240.95</ele>
        <time>2021-08-19T06:01:15Z</time>
      </trkpt>
      <trkpt lat="43.6362" lon="0.4482">
        <ele>240.47</ele>
        <time>2021-08-19T06:01:23Z</time>
      </trkpt>
      <trkpt lat="43.63596" lon="0.44794">
        <ele>237.1</ele>
        <time>2021-08-19T06:01:27Z</time>
      </trkpt>
      <trkpt lat="43.63574" lon="0.44772">
        <ele>235.66</ele>
        <time>2021-08-19T06:01:30Z</time>
      </trkpt>
      <trkpt lat="43.63534" lon="0.44741">
        <ele>232.3</ele>
        <time>2021-08-19T06:01:35Z</time>
      </trkpt>
      <trkpt lat="43.63487" lon="0.44716">
        <ele>227.97</ele>
        <time>2021-08-19T06:01:40Z</time>
      </trkpt>
      <trkpt lat="43.63456" lon="0.44699">
        <ele>224.61</ele>
        <time>2021-08-19T06:01:43Z</time>
      </trkpt>
      <trkpt lat="43.63413" lon="0.44666">
        <ele>221.24</ele>
        <time>2021-08-19T06:01:47Z</time>
      </trkpt>
      <trkpt lat="43.63403" lon="0.44657">
        <ele>221.24</ele>
        <time>2021-08-19T06:01:48Z</time>
      </trkpt>
      <trkpt lat="43.63352" lon="0.44612">
        <ele>217.88</ele>
        <time>2021-08-19T06:01:53Z</time>
      </trkpt>
      <trkpt lat="43.63291" lon="0.44538">
        <ele>215.95</ele>
        <time>2021-08-19T06:02:00Z</time>
      </trkpt>
      <trkpt lat="43.6326" lon="0.44495">
        <ele>212.59</ele>
        <time>2021-08-19T06:02:04Z</time>
      </trkpt>
      <trkpt lat="43.63221" lon="0.44457">
        <ele>209.22</ele>
        <time>2021-08-19T06:02:08Z</time>
      </trkpt>
      <trkpt lat="43.63153" lon="0.44402">
        <ele>208.26</ele>
        <time>2021-08-19T06:02:15Z</time>
      </trkpt>
      <trkpt lat="43.63103" lon="0.44373">
        <ele>203.94</ele>
        <time>2021-08-19T06:02:20Z</time>
      </trkpt>
      <trkpt lat="43.6308" lon="0.4436">
        <ele>198.65</ele>
        <time>2021-08-19T06:02:22Z</time>
      </trkpt>
      <trkpt lat="43.63055" lon="0.44345">
        <ele>194.8</ele>
        <time>2021-08-19T06:02:24Z</time>
      </trkpt>
      <trkpt lat="43.63028" lon="0.44331">
        <ele>190.48</ele>
        <time>2021-08-19T06:02:26Z</time>
      </trkpt>
      <trkpt lat="43.63001" lon="0.44315">
        <ele>187.11</ele>
        <time>2021-08-19T06:02:28Z</time>
      </trkpt>
      <trkpt lat="43.62972" lon="0.443">
        <ele>183.27</ele>
        <time>2021-08-19T06:02:30Z</time>
      </trkpt>
      <trkpt lat="43.62944" lon="0.44288">
        <ele>182.31</ele>
        <time>2021-08-19T06:02:32Z</time>
      </trkpt>
      <trkpt lat="43.6292" lon="0.44281">
        <ele>181.35</ele>
        <time>2021-08-19T06:02:34Z</time>
      </trkpt>
      <trkpt lat="43.62908" lon="0.44279">
        <ele>180.38</ele>
        <time>2021-08-19T06:02:35Z</time>
      </trkpt>
      <trkpt lat="43.62896" lon="0.4428">
        <ele>178.46</ele>
        <time>2021-08-19T06:02:36Z</time>
      </trkpt>
      <trkpt lat="43.6287" lon="0.44283">
        <ele>174.14</ele>
        <time>2021-08-19T06:02:38Z</time>
      </trkpt>
      <trkpt lat="43.62845" lon="0.44288">
        <ele>171.25</ele>
        <time>2021-08-19T06:02:40Z</time>
      </trkpt>
      <trkpt lat="43.6281" lon="0.44297">
        <ele>166.45</ele>
        <time>2021-08-19T06:02:43Z</time>
      </trkpt>
      <trkpt lat="43.62784" lon="0.4431">
        <ele>161.64</ele>
        <time>2021-08-19T06:02:45Z</time>
      </trkpt>
      <trkpt lat="43.62759" lon="0.44325">
        <ele>158.75</ele>
        <time>2021-08-19T06:02:47Z</time>
      </trkpt>
      <trkpt lat="43.62703" lon="0.4437">
        <ele>155.87</ele>
        <time>2021-08-19T06:02:52Z</time>
      </trkpt>
      <trkpt lat="43.62686" lon="0.44385">
        <ele>155.87</ele>
        <time>2021-08-19T06:02:54Z</time>
      </trkpt>
      <trkpt lat="43.62679" lon="0.44389">
        <ele>155.87</ele>
        <time>2021-08-19T06:02:55Z</time>
      </trkpt>
      <trkpt lat="43.62672" lon="0.44389">
        <ele>155.39</ele>
        <time>2021-08-19T06:02:56Z</time>
      </trkpt>
      <trkpt lat="43.62665" lon="0.44386">
        <ele>155.87</ele>
        <time>2021-08-19T06:02:57Z</time>
      </trkpt>
      <trkpt lat="43.62659" lon="0.4438">
        <ele>155.87</ele>
        <time>2021-08-19T06:02:58Z</time>
      </trkpt>
      <trkpt lat="43.62653" lon="0.44376">
        <ele>155.87</ele>
        <time>2021-08-19T06:02:59Z</time>
      </trkpt>
      <trkpt lat="43.62646" lon="0.44372">
        <ele>155.87</ele>
        <time>2021-08-19T06:03:00Z</time>
      </trkpt>
      <trkpt lat="43.6264" lon="0.44369">
        <ele>155.87</ele>
        <time>2021-08-19T06:03:01Z</time>
      </trkpt>
      <trkpt lat="43.62578" lon="0.44345">
        <ele>155.87</ele>
        <time>2021-08-19T06:03:11Z</time>
      </trkpt>
      <trkpt lat="43.6254" lon="0.4432">
        <ele>155.87</ele>
        <time>2021-08-19T06:03:18Z</time>
      </trkpt>
      <trkpt lat="43.62495" lon="0.44283">
        <ele>155.87</ele>
        <time>2021-08-19T06:03:27Z</time>
      </trkpt>
      <trkpt lat="43.6246" lon="0.4426">
        <ele>157.31</ele>
        <time>2021-08-19T06:03:35Z</time>
      </trkpt>
      <trkpt lat="43.62432" lon="0.4425">
        <ele>158.75</ele>
        <time>2021-08-19T06:03:43Z</time>
      </trkpt>
      <trkpt lat="43.62401" lon="0.4426">
        <ele>157.79</ele>
        <time>2021-08-19T06:03:50Z</time>
      </trkpt>
      <trkpt lat="43.62371" lon="0.44272">
        <ele>157.31</ele>
        <time>2021-08-19T06:03:56Z</time>
      </trkpt>
      <trkpt lat="43.62325" lon="0.44296">
        <ele>157.31</ele>
        <time>2021-08-19T06:04:06Z</time>
      </trkpt>
      <trkpt lat="43.62297" lon="0.44309">
        <ele>157.31</ele>
        <time>2021-08-19T06:04:12Z</time>
      </trkpt>
      <trkpt lat="43.62292" lon="0.44312">
        <ele>157.31</ele>
        <time>2021-08-19T06:04:13Z</time>
      </trkpt>
      <trkpt lat="43.62255" lon="0.44332">
        <ele>157.31</ele>
        <time>2021-08-19T06:04:21Z</time>
      </trkpt>
      <trkpt lat="43.62201" lon="0.44358">
        <ele>157.31</ele>
        <time>2021-08-19T06:04:31Z</time>
      </trkpt>
      <trkpt lat="43.62168" lon="0.44375">
        <ele>158.75</ele>
        <time>2021-08-19T06:04:38Z</time>
      </trkpt>
      <trkpt lat="43.62155" lon="0.4438">
        <ele>159.72</ele>
        <time>2021-08-19T06:04:41Z</time>
      </trkpt>
      <trkpt lat="43.62126" lon="0.44396">
        <ele>161.16</ele>
        <time>2021-08-19T06:04:49Z</time>
      </trkpt>
      <trkpt lat="43.62094" lon="0.44419">
        <ele>161.16</ele>
        <time>2021-08-19T06:04:57Z</time>
      </trkpt>
      <trkpt lat="43.62082" lon="0.44434">
        <ele>159.72</ele>
        <time>2021-08-19T06:05:00Z</time>
      </trkpt>
      <trkpt lat="43.62075" lon="0.44446">
        <ele>159.24</ele>
        <time>2021-08-19T06:05:02Z</time>
      </trkpt>
      <trkpt lat="43.62057" lon="0.44482">
        <ele>159.24</ele>
        <time>2021-08-19T06:05:08Z</time>
      </trkpt>
      <trkpt lat="43.62055" lon="0.44488">
        <ele>159.24</ele>
        <time>2021-08-19T06:05:09Z</time>
      </trkpt>
      <trkpt lat="43.62045" lon="0.44502">
        <ele>159.24</ele>
        <time>2021-08-19T06:05:12Z</time>
      </trkpt>
      <trkpt lat="43.62041" lon="0.44506">
        <ele>159.24</ele>
        <time>2021-08-19T06:05:13Z</time>
      </trkpt>
      <trkpt lat="43.62036" lon="0.44507">
        <ele>159.24</ele>
        <time>2021-08-19T06:05:14Z</time>
      </trkpt>
      <trkpt lat="43.6203" lon="0.44506">
        <ele>159.24</ele>
        <time>2021-08-19T06:05:15Z</time>
      </trkpt>
      <trkpt lat="43.62027" lon="0.44504">
        <ele>159.24</ele>
        <time>2021-08-19T06:05:16Z</time>
      </trkpt>
      <trkpt lat="43.62024" lon="0.44502">
        <ele>159.24</ele>
        <time>2021-08-19T06:05:17Z</time>
      </trkpt>
      <trkpt lat="43.62019" lon="0.44499">
        <ele>159.24</ele>
        <time>2021-08-19T06:05:18Z</time>
      </trkpt>
      <trkpt lat="43.61982" lon="0.44473">
        <ele>160.68</ele>
        <time>2021-08-19T06:05:27Z</time>
      </trkpt>
      <trkpt lat="43.61978" lon="0.44471">
        <ele>160.68</ele>
        <time>2021-08-19T06:05:28Z</time>
      </trkpt>
      <trkpt lat="43.61952" lon="0.44455">
        <ele>162.12</ele>
        <time>2021-08-19T06:05:36Z</time>
      </trkpt>
      <trkpt lat="43.61927" lon="0.44441">
        <ele>164.52</ele>
        <time>2021-08-19T06:05:46Z</time>
      </trkpt>
      <trkpt lat="43.61909" lon="0.44432">
        <ele>165.48</ele>
        <time>2021-08-19T06:05:53Z</time>
      </trkpt>
      <trkpt lat="43.61893" lon="0.4442">
        <ele>165.96</ele>
        <time>2021-08-19T06:06:00Z</time>
      </trkpt>
      <trkpt lat="43.61864" lon="0.44404">
        <ele>166.45</ele>
        <time>2021-08-19T06:06:10Z</time>
      </trkpt>
      <trkpt lat="43.61838" lon="0.4439">
        <ele>166.93</ele>
        <time>2021-08-19T06:06:18Z</time>
      </trkpt>
      <trkpt lat="43.61809" lon="0.44372">
        <ele>167.89</ele>
        <time>2021-08-19T06:06:27Z</time>
      </trkpt>
      <trkpt lat="43.61779" lon="0.44354">
        <ele>168.37</ele>
        <time>2021-08-19T06:06:36Z</time>
      </trkpt>
      <trkpt lat="43.61741" lon="0.44332">
        <ele>168.37</ele>
        <time>2021-08-19T06:06:46Z</time>
      </trkpt>
      <trkpt lat="43.61703" lon="0.44311">
        <ele>168.85</ele>
        <time>2021-08-19T06:06:56Z</time>
      </trkpt>
      <trkpt lat="43.61683" lon="0.443">
        <ele>169.33</ele>
        <time>2021-08-19T06:07:01Z</time>
      </trkpt>
      <trkpt lat="43.6168" lon="0.44297">
        <ele>169.33</ele>
        <time>2021-08-19T06:07:02Z</time>
      </trkpt>
      <trkpt lat="43.61641" lon="0.44275">
        <ele>170.29</ele>
        <time>2021-08-19T06:07:12Z</time>
      </trkpt>
      <trkpt lat="43.61612" lon="0.44255">
        <ele>171.73</ele>
        <time>2021-08-19T06:07:21Z</time>
      </trkpt>
      <trkpt lat="43.61601" lon="0.44248">
        <ele>172.21</ele>
        <time>2021-08-19T06:07:26Z</time>
      </trkpt>
      <trkpt lat="43.61601" lon="0.44251">
        <ele>172.21</ele>
        <time>2021-08-19T06:07:27Z</time>
      </trkpt>
      <trkpt lat="43.61602" lon="0.44253">
        <ele>172.21</ele>
        <time>2021-08-19T06:07:28Z</time>
      </trkpt>
      <trkpt lat="43.61605" lon="0.44254">
        <ele>172.21</ele>
        <time>2021-08-19T06:07:29Z</time>
      </trkpt>
      <trkpt lat="43.61607" lon="0.44255">
        <ele>172.21</ele>
        <time>2021-08-19T06:07:30Z</time>
      </trkpt>
      <trkpt lat="43.6161" lon="0.44256">
        <ele>172.21</ele>
        <time>2021-08-19T06:07:31Z</time>
      </trkpt>
      <trkpt lat="43.61613" lon="0.44258">
        <ele>172.21</ele>
        <time>2021-08-19T06:07:32Z</time>
      </trkpt>
      <trkpt lat="43.61615" lon="0.4426">
        <ele>172.21</ele>
        <time>2021-08-19T06:07:33Z</time>
      </trkpt>
      <trkpt lat="43.61618" lon="0.44261">
        <ele>172.21</ele>
        <time>2021-08-19T06:07:34Z</time>
      </trkpt>
      <trkpt lat="43.6162" lon="0.44263">
        <ele>171.73</ele>
        <time>2021-08-19T06:07:35Z</time>
      </trkpt>
      <trkpt lat="43.61626" lon="0.44267">
        <ele>172.21</ele>
        <time>2021-08-19T06:07:40Z</time>
      </trkpt>
      <trkpt lat="43.61624" lon="0.44266">
        <ele>172.21</ele>
        <time>2021-08-19T06:07:50Z</time>
      </trkpt>
      <trkpt lat="43.61623" lon="0.44264">
        <ele>172.21</ele>
        <time>2021-08-19T06:07:51Z</time>
      </trkpt>
      <trkpt lat="43.61617" lon="0.4426">
        <ele>172.21</ele>
        <time>2021-08-19T06:07:54Z</time>
      </trkpt>
      <trkpt lat="43.61615" lon="0.44257">
        <ele>172.21</ele>
        <time>2021-08-19T06:07:55Z</time>
      </trkpt>
      <trkpt lat="43.61593" lon="0.44244">
        <ele>172.21</ele>
        <time>2021-08-19T06:08:02Z</time>
      </trkpt>
      <trkpt lat="43.61558" lon="0.44226">
        <ele>172.21</ele>
        <time>2021-08-19T06:08:12Z</time>
      </trkpt>
      <trkpt lat="43.61536" lon="0.44214">
        <ele>172.69</ele>
        <time>2021-08-19T06:08:19Z</time>
      </trkpt>
      <trkpt lat="43.6152" lon="0.44207">
        <ele>173.17</ele>
        <time>2021-08-19T06:08:25Z</time>
      </trkpt>
      <trkpt lat="43.61516" lon="0.44209">
        <ele>173.66</ele>
        <time>2021-08-19T06:08:30Z</time>
      </trkpt>
      <trkpt lat="43.61514" lon="0.44206">
        <ele>173.66</ele>
        <time>2021-08-19T06:08:45Z</time>
      </trkpt>
      <trkpt lat="43.61512" lon="0.44206">
        <ele>173.66</ele>
        <time>2021-08-19T06:09:00Z</time>
      </trkpt>
      <trkpt lat="43.61514" lon="0.44206">
        <ele>173.66</ele>
        <time>2021-08-19T06:09:15Z</time>
      </trkpt>
      <trkpt lat="43.61515" lon="0.44206">
        <ele>174.14</ele>
        <time>2021-08-19T06:09:25Z</time>
      </trkpt>
      <trkpt lat="43.61516" lon="0.44207">
        <ele>174.14</ele>
        <time>2021-08-19T06:09:35Z</time>
      </trkpt>
      <trkpt lat="43.61517" lon="0.44209">
        <ele>174.14</ele>
        <time>2021-08-19T06:09:58Z</time>
      </trkpt>
      <trkpt lat="43.61517" lon="0.44206">
        <ele>174.14</ele>
        <time>2021-08-19T06:10:17Z</time>
      </trkpt>
      <trkpt lat="43.61516" lon="0.44204">
        <ele>174.14</ele>
        <time>2021-08-19T06:10:38Z</time>
      </trkpt>
      <trkpt lat="43.61515" lon="0.44205">
        <ele>174.14</ele>
        <time>2021-08-19T06:11:06Z</time>
      </trkpt>
      <trkpt lat="43.61514" lon="0.44203">
        <ele>174.14</ele>
        <time>2021-08-19T06:11:20Z</time>
      </trkpt>
      <trkpt lat="43.61515" lon="0.44205">
        <ele>174.14</ele>
        <time>2021-08-19T06:11:40Z</time>
      </trkpt>
      <trkpt lat="43.61514" lon="0.44204">
        <ele>174.14</ele>
        <time>2021-08-19T06:11:53Z</time>
      </trkpt>
      <trkpt lat="43.61516" lon="0.44204">
        <ele>174.62</ele>
        <time>2021-08-19T06:12:18Z</time>
      </trkpt>
      <trkpt lat="43.61515" lon="0.44203">
        <ele>174.62</ele>
        <time>2021-08-19T06:12:42Z</time>
      </trkpt>
      <trkpt lat="43.61515" lon="0.44204">
        <ele>174.62</ele>
        <time>2021-08-19T06:13:00Z</time>
      </trkpt>
      <trkpt lat="43.61515" lon="0.44206">
        <ele>174.62</ele>
        <time>2021-08-19T06:13:15Z</time>
      </trkpt>
      <trkpt lat="43.61514" lon="0.44205">
        <ele>174.62</ele>
        <time>2021-08-19T06:13:31Z</time>
      </trkpt>
      <trkpt lat="43.61515" lon="0.44204">
        <ele>174.62</ele>
        <time>2021-08-19T06:13:46Z</time>
      </trkpt>
      <trkpt lat="43.61517" lon="0.44205">
        <ele>174.62</ele>
        <time>2021-08-19T06:14:00Z</time>
      </trkpt>
      <trkpt lat="43.61516" lon="0.44204">
        <ele>174.62</ele>
        <time>2021-08-19T06:14:10Z</time>
      </trkpt>
      <trkpt lat="43.61515" lon="0.44201">
        <ele>174.62</ele>
        <time>2021-08-19T06:14:11Z</time>
      </trkpt>
      <trkpt lat="43.61515" lon="0.44199">
        <ele>174.62</ele>
        <time>2021-08-19T06:14:17Z</time>
      </trkpt>
      <trkpt lat="43.61513" lon="0.44199">
        <ele>174.62</ele>
        <time>2021-08-19T06:14:24Z</time>
      </trkpt>
      <trkpt lat="43.61509" lon="0.44195">
        <ele>174.62</ele>
        <time>2021-08-19T06:14:47Z</time>
      </trkpt>
      <trkpt lat="43.61509" lon="0.44193">
        <ele>175.1</ele>
        <time>2021-08-19T06:15:03Z</time>
      </trkpt>
      <trkpt lat="43.61509" lon="0.44195">
        <ele>175.1</ele>
        <time>2021-08-19T06:15:14Z</time>
      </trkpt>
      <trkpt lat="43.61509" lon="0.44195">
        <ele>175.1</ele>
        <time>2021-08-19T06:15:26Z</time>
      </trkpt>
      <trkpt lat="43.61509" lon="0.44192">
        <ele>175.58</ele>
        <time>2021-08-19T06:15:46Z</time>
      </trkpt>
      <trkpt lat="43.61509" lon="0.44195">
        <ele>175.58</ele>
        <time>2021-08-19T06:16:01Z</time>
      </trkpt>
      <trkpt lat="43.6151" lon="0.44199">
        <ele>175.58</ele>
        <time>2021-08-19T06:16:26Z</time>
      </trkpt>
      <trkpt lat="43.6151" lon="0.442">
        <ele>176.06</ele>
        <time>2021-08-19T06:16:39Z</time>
      </trkpt>
      <trkpt lat="43.6151" lon="0.44201">
        <ele>176.06</ele>
        <time>2021-08-19T06:16:57Z</time>
      </trkpt>
      <trkpt lat="43.6151" lon="0.44202">
        <ele>176.06</ele>
        <time>2021-08-19T06:17:15Z</time>
      </trkpt>
      <trkpt lat="43.61511" lon="0.44201">
        <ele>176.54</ele>
        <time>2021-08-19T06:17:30Z</time>
      </trkpt>
      <trkpt lat="43.6151" lon="0.44199">
        <ele>176.54</ele>
        <time>2021-08-19T06:17:49Z</time>
      </trkpt>
      <trkpt lat="43.61509" lon="0.44197">
        <ele>176.54</ele>
        <time>2021-08-19T06:18:01Z</time>
      </trkpt>
      <trkpt lat="43.61509" lon="0.44199">
        <ele>176.54</ele>
        <time>2021-08-19T06:18:19Z</time>
      </trkpt>
      <trkpt lat="43.6151" lon="0.44197">
        <ele>177.02</ele>
        <time>2021-08-19T06:18:43Z</time>
      </trkpt>
      <trkpt lat="43.6151" lon="0.44198">
        <ele>177.02</ele>
        <time>2021-08-19T06:19:03Z</time>
      </trkpt>
      <trkpt lat="43.6151" lon="0.44197">
        <ele>177.02</ele>
        <time>2021-08-19T06:19:06Z</time>
      </trkpt>
      <trkpt lat="43.6151" lon="0.44197">
        <ele>177.02</ele>
        <time>2021-08-19T06:19:11Z</time>
      </trkpt>
      <trkpt lat="43.61511" lon="0.44195">
        <ele>177.5</ele>
        <time>2021-08-19T06:19:15Z</time>
      </trkpt>
      <trkpt lat="43.6151" lon="0.44196">
        <ele>177.5</ele>
        <time>2021-08-19T06:19:29Z</time>
      </trkpt>
      <trkpt lat="43.61508" lon="0.44197">
        <ele>177.5</ele>
        <time>2021-08-19T06:19:46Z</time>
      </trkpt>
      <trkpt lat="43.61509" lon="0.44197">
        <ele>177.5</ele>
        <time>2021-08-19T06:20:04Z</time>
      </trkpt>
      <trkpt lat="43.6151" lon="0.44198">
        <ele>177.98</ele>
        <time>2021-08-19T06:20:19Z</time>
      </trkpt>
      <trkpt lat="43.61511" lon="0.442">
        <ele>177.98</ele>
        <time>2021-08-19T06:20:39Z</time>
      </trkpt>
      <trkpt lat="43.61512" lon="0.44199">
        <ele>177.98</ele>
        <time>2021-08-19T06:20:53Z</time>
      </trkpt>
      <trkpt lat="43.61512" lon="0.44201">
        <ele>177.98</ele>
        <time>2021-08-19T06:21:01Z</time>
      </trkpt>
      <trkpt lat="43.61512" lon="0.442">
        <ele>177.98</ele>
        <time>2021-08-19T06:21:02Z</time>
      </trkpt>
      <trkpt lat="43.61512" lon="0.44199">
        <ele>177.98</ele>
        <time>2021-08-19T06:21:03Z</time>
      </trkpt>
      <trkpt lat="43.61513" lon="0.44192">
        <ele>177.98</ele>
        <time>2021-08-19T06:21:08Z</time>
      </trkpt>
      <trkpt lat="43.61512" lon="0.44191">
        <ele>177.98</ele>
        <time>2021-08-19T06:21:09Z</time>
      </trkpt>
      <trkpt lat="43.61511" lon="0.44191">
        <ele>177.98</ele>
        <time>2021-08-19T06:21:10Z</time>
      </trkpt>
      <trkpt lat="43.6151" lon="0.44191">
        <ele>177.98</ele>
        <time>2021-08-19T06:21:11Z</time>
      </trkpt>
      <trkpt lat="43.61509" lon="0.44192">
        <ele>177.98</ele>
        <time>2021-08-19T06:21:12Z</time>
      </trkpt>
      <trkpt lat="43.61491" lon="0.44185">
        <ele>178.94</ele>
        <time>2021-08-19T06:21:20Z</time>
      </trkpt>
      <trkpt lat="43.61469" lon="0.44173">
        <ele>179.42</ele>
        <time>2021-08-19T06:21:27Z</time>
      </trkpt>
      <trkpt lat="43.61432" lon="0.44153">
        <ele>179.42</ele>
        <time>2021-08-19T06:21:37Z</time>
      </trkpt>
      <trkpt lat="43.61401" lon="0.44134">
        <ele>179.9</ele>
        <time>2021-08-19T06:21:45Z</time>
      </trkpt>
      <trkpt lat="43.61366" lon="0.44114">
        <ele>180.38</ele>
        <time>2021-08-19T06:21:54Z</time>
      </trkpt>
      <trkpt lat="43.61358" lon="0.4411">
        <ele>180.38</ele>
        <time>2021-08-19T06:21:56Z</time>
      </trkpt>
      <trkpt lat="43.61323" lon="0.4409">
        <ele>180.38</ele>
        <time>2021-08-19T06:22:04Z</time>
      </trkpt>
      <trkpt lat="43.61307" lon="0.44079">
        <ele>180.38</ele>
        <time>2021-08-19T06:22:08Z</time>
      </trkpt>
      <trkpt lat="43.61303" lon="0.44077">
        <ele>180.38</ele>
        <time>2021-08-19T06:22:09Z</time>
      </trkpt>
      <trkpt lat="43.61271" lon="0.4406">
        <ele>180.38</ele>
        <time>2021-08-19T06:22:16Z</time>
      </trkpt>
      <trkpt lat="43.61227" lon="0.44036">
        <ele>180.38</ele>
        <time>2021-08-19T06:22:26Z</time>
      </trkpt>
      <trkpt lat="43.61186" lon="0.44014">
        <ele>181.83</ele>
        <time>2021-08-19T06:22:36Z</time>
      </trkpt>
      <trkpt lat="43.61138" lon="0.43987">
        <ele>181.83</ele>
        <time>2021-08-19T06:22:48Z</time>
      </trkpt>
      <trkpt lat="43.61107" lon="0.43972">
        <ele>183.27</ele>
        <time>2021-08-19T06:22:56Z</time>
      </trkpt>
      <trkpt lat="43.61076" lon="0.43953">
        <ele>184.23</ele>
        <time>2021-08-19T06:23:05Z</time>
      </trkpt>
      <trkpt lat="43.61046" lon="0.43937">
        <ele>185.19</ele>
        <time>2021-08-19T06:23:14Z</time>
      </trkpt>
      <trkpt lat="43.61004" lon="0.43913">
        <ele>186.15</ele>
        <time>2021-08-19T06:23:27Z</time>
      </trkpt>
      <trkpt lat="43.60982" lon="0.43901">
        <ele>187.11</ele>
        <time>2021-08-19T06:23:34Z</time>
      </trkpt>
      <trkpt lat="43.60952" lon="0.43885">
        <ele>188.08</ele>
        <time>2021-08-19T06:23:43Z</time>
      </trkpt>
      <trkpt lat="43.60913" lon="0.43862">
        <ele>188.56</ele>
        <time>2021-08-19T06:23:54Z</time>
      </trkpt>
      <trkpt lat="43.60884" lon="0.43846">
        <ele>189.52</ele>
        <time>2021-08-19T06:24:02Z</time>
      </trkpt>
      <trkpt lat="43.60863" lon="0.43834">
        <ele>189.52</ele>
        <time>2021-08-19T06:24:08Z</time>
      </trkpt>
      <trkpt lat="43.60859" lon="0.43831">
        <ele>189.52</ele>
        <time>2021-08-19T06:24:09Z</time>
      </trkpt>
      <trkpt lat="43.60856" lon="0.43829">
        <ele>190</ele>
        <time>2021-08-19T06:24:10Z</time>
      </trkpt>
      <trkpt lat="43.60834" lon="0.43818">
        <ele>190.48</ele>
        <time>2021-08-19T06:24:17Z</time>
      </trkpt>
      <trkpt lat="43.60809" lon="0.43805">
        <ele>191.44</ele>
        <time>2021-08-19T06:24:25Z</time>
      </trkpt>
      <trkpt lat="43.60768" lon="0.43782">
        <ele>192.4</ele>
        <time>2021-08-19T06:24:38Z</time>
      </trkpt>
      <trkpt lat="43.60741" lon="0.43767">
        <ele>193.36</ele>
        <time>2021-08-19T06:24:47Z</time>
      </trkpt>
      <trkpt lat="43.60728" lon="0.43758">
        <ele>194.32</ele>
        <time>2021-08-19T06:24:53Z</time>
      </trkpt>
      <trkpt lat="43.60728" lon="0.43759">
        <ele>194.32</ele>
        <time>2021-08-19T06:25:00Z</time>
      </trkpt>
      <trkpt lat="43.60726" lon="0.43757">
        <ele>194.32</ele>
        <time>2021-08-19T06:25:08Z</time>
      </trkpt>
      <trkpt lat="43.60727" lon="0.43757">
        <ele>193.84</ele>
        <time>2021-08-19T06:25:26Z</time>
      </trkpt>
      <trkpt lat="43.60726" lon="0.43756">
        <ele>194.32</ele>
        <time>2021-08-19T06:25:36Z</time>
      </trkpt>
      <trkpt lat="43.60725" lon="0.43756">
        <ele>194.32</ele>
        <time>2021-08-19T06:25:37Z</time>
      </trkpt>
      <trkpt lat="43.60713" lon="0.43754">
        <ele>194.32</ele>
        <time>2021-08-19T06:25:42Z</time>
      </trkpt>
      <trkpt lat="43.60679" lon="0.43742">
        <ele>192.88</ele>
        <time>2021-08-19T06:25:50Z</time>
      </trkpt>
      <trkpt lat="43.6064" lon="0.4373">
        <ele>192.88</ele>
        <time>2021-08-19T06:25:59Z</time>
      </trkpt>
      <trkpt lat="43.6062" lon="0.43723">
        <ele>192.88</ele>
        <time>2021-08-19T06:26:06Z</time>
      </trkpt>
      <trkpt lat="43.60586" lon="0.43711">
        <ele>192.88</ele>
        <time>2021-08-19T06:26:15Z</time>
      </trkpt>
      <trkpt lat="43.60563" lon="0.43702">
        <ele>192.88</ele>
        <time>2021-08-19T06:26:20Z</time>
      </trkpt>
      <trkpt lat="43.60548" lon="0.43696">
        <ele>193.84</ele>
        <time>2021-08-19T06:26:24Z</time>
      </trkpt>
      <trkpt lat="43.60547" lon="0.43698">
        <ele>193.84</ele>
        <time>2021-08-19T06:26:25Z</time>
      </trkpt>
      <trkpt lat="43.60549" lon="0.437">
        <ele>193.84</ele>
        <time>2021-08-19T06:26:26Z</time>
      </trkpt>
      <trkpt lat="43.60571" lon="0.43709">
        <ele>193.84</ele>
        <time>2021-08-19T06:26:32Z</time>
      </trkpt>
      <trkpt lat="43.60621" lon="0.43727">
        <ele>193.84</ele>
        <time>2021-08-19T06:26:43Z</time>
      </trkpt>
      <trkpt lat="43.60668" lon="0.43741">
        <ele>192.88</ele>
        <time>2021-08-19T06:26:52Z</time>
      </trkpt>
      <trkpt lat="43.60686" lon="0.4375">
        <ele>192.88</ele>
        <time>2021-08-19T06:26:57Z</time>
      </trkpt>
      <trkpt lat="43.60685" lon="0.43752">
        <ele>192.88</ele>
        <time>2021-08-19T06:26:58Z</time>
      </trkpt>
      <trkpt lat="43.60683" lon="0.43753">
        <ele>192.88</ele>
        <time>2021-08-19T06:26:59Z</time>
      </trkpt>
      <trkpt lat="43.6068" lon="0.43753">
        <ele>192.4</ele>
        <time>2021-08-19T06:27:00Z</time>
      </trkpt>
      <trkpt lat="43.60678" lon="0.43752">
        <ele>191.92</ele>
        <time>2021-08-19T06:27:01Z</time>
      </trkpt>
      <trkpt lat="43.60674" lon="0.43752">
        <ele>191.44</ele>
        <time>2021-08-19T06:27:02Z</time>
      </trkpt>
      <trkpt lat="43.60671" lon="0.43753">
        <ele>190.48</ele>
        <time>2021-08-19T06:27:03Z</time>
      </trkpt>
      <trkpt lat="43.60667" lon="0.43755">
        <ele>190.48</ele>
        <time>2021-08-19T06:27:04Z</time>
      </trkpt>
      <trkpt lat="43.60664" lon="0.43759">
        <ele>190</ele>
        <time>2021-08-19T06:27:05Z</time>
      </trkpt>
      <trkpt lat="43.6066" lon="0.43763">
        <ele>189.04</ele>
        <time>2021-08-19T06:27:06Z</time>
      </trkpt>
      <trkpt lat="43.60656" lon="0.43768">
        <ele>188.56</ele>
        <time>2021-08-19T06:27:07Z</time>
      </trkpt>
      <trkpt lat="43.60653" lon="0.43774">
        <ele>188.08</ele>
        <time>2021-08-19T06:27:08Z</time>
      </trkpt>
      <trkpt lat="43.60618" lon="0.4383">
        <ele>185.19</ele>
        <time>2021-08-19T06:27:17Z</time>
      </trkpt>
      <trkpt lat="43.60615" lon="0.43835">
        <ele>185.19</ele>
        <time>2021-08-19T06:27:18Z</time>
      </trkpt>
      <trkpt lat="43.60608" lon="0.43845">
        <ele>185.19</ele>
        <time>2021-08-19T06:27:20Z</time>
      </trkpt>
      <trkpt lat="43.60607" lon="0.4385">
        <ele>185.19</ele>
        <time>2021-08-19T06:27:21Z</time>
      </trkpt>
      <trkpt lat="43.60608" lon="0.43855">
        <ele>185.19</ele>
        <time>2021-08-19T06:27:22Z</time>
      </trkpt>
      <trkpt lat="43.60626" lon="0.43896">
        <ele>184.71</ele>
        <time>2021-08-19T06:27:31Z</time>
      </trkpt>
      <trkpt lat="43.60633" lon="0.43917">
        <ele>184.23</ele>
        <time>2021-08-19T06:27:35Z</time>
      </trkpt>
      <trkpt lat="43.60633" lon="0.43921">
        <ele>184.23</ele>
        <time>2021-08-19T06:27:36Z</time>
      </trkpt>
      <trkpt lat="43.60631" lon="0.43924">
        <ele>184.23</ele>
        <time>2021-08-19T06:27:37Z</time>
      </trkpt>
      <trkpt lat="43.60628" lon="0.43925">
        <ele>184.23</ele>
        <time>2021-08-19T06:27:38Z</time>
      </trkpt>
      <trkpt lat="43.60624" lon="0.43925">
        <ele>184.23</ele>
        <time>2021-08-19T06:27:39Z</time>
      </trkpt>
      <trkpt lat="43.60621" lon="0.43925">
        <ele>184.23</ele>
        <time>2021-08-19T06:27:40Z</time>
      </trkpt>
      <trkpt lat="43.60602" lon="0.43918">
        <ele>184.23</ele>
        <time>2021-08-19T06:27:47Z</time>
      </trkpt>
      <trkpt lat="43.60589" lon="0.43912">
        <ele>185.19</ele>
        <time>2021-08-19T06:27:52Z</time>
      </trkpt>
      <trkpt lat="43.60565" lon="0.43903">
        <ele>186.15</ele>
        <time>2021-08-19T06:28:01Z</time>
      </trkpt>
      <trkpt lat="43.60549" lon="0.43899">
        <ele>186.63</ele>
        <time>2021-08-19T06:28:06Z</time>
      </trkpt>
      <trkpt lat="43.60547" lon="0.43901">
        <ele>186.63</ele>
        <time>2021-08-19T06:28:07Z</time>
      </trkpt>
      <trkpt lat="43.60537" lon="0.43904">
        <ele>186.63</ele>
        <time>2021-08-19T06:28:11Z</time>
      </trkpt>
      <trkpt lat="43.60534" lon="0.43903">
        <ele>187.11</ele>
        <time>2021-08-19T06:28:12Z</time>
      </trkpt>
      <trkpt lat="43.60532" lon="0.439">
        <ele>186.63</ele>
        <time>2021-08-19T06:28:13Z</time>
      </trkpt>
      <trkpt lat="43.6053" lon="0.43897">
        <ele>186.63</ele>
        <time>2021-08-19T06:28:14Z</time>
      </trkpt>
      <trkpt lat="43.60528" lon="0.43895">
        <ele>186.63</ele>
        <time>2021-08-19T06:28:15Z</time>
      </trkpt>
      <trkpt lat="43.60526" lon="0.43892">
        <ele>186.63</ele>
        <time>2021-08-19T06:28:16Z</time>
      </trkpt>
      <trkpt lat="43.60509" lon="0.43871">
        <ele>187.59</ele>
        <time>2021-08-19T06:28:24Z</time>
      </trkpt>
      <trkpt lat="43.60488" lon="0.43844">
        <ele>189.04</ele>
        <time>2021-08-19T06:28:35Z</time>
      </trkpt>
      <trkpt lat="43.6047" lon="0.43818">
        <ele>190</ele>
        <time>2021-08-19T06:28:47Z</time>
      </trkpt>
      <trkpt lat="43.60458" lon="0.43804">
        <ele>190</ele>
        <time>2021-08-19T06:28:54Z</time>
      </trkpt>
      <trkpt lat="43.60441" lon="0.43785">
        <ele>190.96</ele>
        <time>2021-08-19T06:29:04Z</time>
      </trkpt>
      <trkpt lat="43.60436" lon="0.43782">
        <ele>191.44</ele>
        <time>2021-08-19T06:29:07Z</time>
      </trkpt>
      <trkpt lat="43.60435" lon="0.43782">
        <ele>191.44</ele>
        <time>2021-08-19T06:29:08Z</time>
      </trkpt>
      <trkpt lat="43.60434" lon="0.43784">
        <ele>191.92</ele>
        <time>2021-08-19T06:29:09Z</time>
      </trkpt>
      <trkpt lat="43.60432" lon="0.43785">
        <ele>191.92</ele>
        <time>2021-08-19T06:29:10Z</time>
      </trkpt>
      <trkpt lat="43.60431" lon="0.43785">
        <ele>191.92</ele>
        <time>2021-08-19T06:29:11Z</time>
      </trkpt>
      <trkpt lat="43.6043" lon="0.43786">
        <ele>191.92</ele>
        <time>2021-08-19T06:29:12Z</time>
      </trkpt>
      <trkpt lat="43.60429" lon="0.43786">
        <ele>192.88</ele>
        <time>2021-08-19T06:29:13Z</time>
      </trkpt>
      <trkpt lat="43.60421" lon="0.43792">
        <ele>193.84</ele>
        <time>2021-08-19T06:29:21Z</time>
      </trkpt>
      <trkpt lat="43.60413" lon="0.43798">
        <ele>194.8</ele>
        <time>2021-08-19T06:29:31Z</time>
      </trkpt>
      <trkpt lat="43.60407" lon="0.43803">
        <ele>196.73</ele>
        <time>2021-08-19T06:29:41Z</time>
      </trkpt>
      <trkpt lat="43.604" lon="0.43806">
        <ele>198.17</ele>
        <time>2021-08-19T06:29:51Z</time>
      </trkpt>
      <trkpt lat="43.60391" lon="0.43806">
        <ele>199.61</ele>
        <time>2021-08-19T06:30:01Z</time>
      </trkpt>
      <trkpt lat="43.60388" lon="0.43805">
        <ele>200.09</ele>
        <time>2021-08-19T06:30:09Z</time>
      </trkpt>
      <trkpt lat="43.60386" lon="0.43803">
        <ele>200.09</ele>
        <time>2021-08-19T06:30:12Z</time>
      </trkpt>
      <trkpt lat="43.60384" lon="0.43802">
        <ele>200.09</ele>
        <time>2021-08-19T06:30:13Z</time>
      </trkpt>
      <trkpt lat="43.60383" lon="0.43801">
        <ele>200.09</ele>
        <time>2021-08-19T06:30:14Z</time>
      </trkpt>
      <trkpt lat="43.60382" lon="0.438">
        <ele>200.09</ele>
        <time>2021-08-19T06:30:15Z</time>
      </trkpt>
      <trkpt lat="43.6038" lon="0.43798">
        <ele>200.09</ele>
        <time>2021-08-19T06:30:16Z</time>
      </trkpt>
      <trkpt lat="43.60379" lon="0.43797">
        <ele>200.09</ele>
        <time>2021-08-19T06:30:17Z</time>
      </trkpt>
      <trkpt lat="43.60366" lon="0.43787">
        <ele>201.05</ele>
        <time>2021-08-19T06:30:25Z</time>
      </trkpt>
      <trkpt lat="43.60358" lon="0.43777">
        <ele>201.53</ele>
        <time>2021-08-19T06:30:31Z</time>
      </trkpt>
      <trkpt lat="43.60351" lon="0.43769">
        <ele>202.49</ele>
        <time>2021-08-19T06:30:37Z</time>
      </trkpt>
      <trkpt lat="43.60337" lon="0.43756">
        <ele>203.46</ele>
        <time>2021-08-19T06:30:46Z</time>
      </trkpt>
      <trkpt lat="43.60322" lon="0.43741">
        <ele>204.9</ele>
        <time>2021-08-19T06:30:56Z</time>
      </trkpt>
      <trkpt lat="43.60311" lon="0.4373">
        <ele>205.86</ele>
        <time>2021-08-19T06:31:03Z</time>
      </trkpt>
      <trkpt lat="43.60294" lon="0.43712">
        <ele>206.34</ele>
        <time>2021-08-19T06:31:13Z</time>
      </trkpt>
      <trkpt lat="43.60289" lon="0.43705">
        <ele>206.34</ele>
        <time>2021-08-19T06:31:15Z</time>
      </trkpt>
      <trkpt lat="43.60285" lon="0.43701">
        <ele>204.9</ele>
        <time>2021-08-19T06:31:16Z</time>
      </trkpt>
      <trkpt lat="43.60281" lon="0.43697">
        <ele>203.46</ele>
        <time>2021-08-19T06:31:17Z</time>
      </trkpt>
      <trkpt lat="43.60276" lon="0.43694">
        <ele>202.98</ele>
        <time>2021-08-19T06:31:18Z</time>
      </trkpt>
      <trkpt lat="43.60271" lon="0.43692">
        <ele>202.98</ele>
        <time>2021-08-19T06:31:19Z</time>
      </trkpt>
      <trkpt lat="43.60266" lon="0.4369">
        <ele>202.01</ele>
        <time>2021-08-19T06:31:20Z</time>
      </trkpt>
      <trkpt lat="43.60262" lon="0.43689">
        <ele>201.53</ele>
        <time>2021-08-19T06:31:21Z</time>
      </trkpt>
      <trkpt lat="43.60246" lon="0.43683">
        <ele>200.09</ele>
        <time>2021-08-19T06:31:26Z</time>
      </trkpt>
      <trkpt lat="43.60244" lon="0.43683">
        <ele>200.09</ele>
        <time>2021-08-19T06:31:27Z</time>
      </trkpt>
      <trkpt lat="43.60243" lon="0.43685">
        <ele>200.09</ele>
        <time>2021-08-19T06:31:28Z</time>
      </trkpt>
      <trkpt lat="43.60244" lon="0.43687">
        <ele>199.61</ele>
        <time>2021-08-19T06:31:29Z</time>
      </trkpt>
      <trkpt lat="43.60245" lon="0.43688">
        <ele>199.61</ele>
        <time>2021-08-19T06:31:30Z</time>
      </trkpt>
      <trkpt lat="43.60247" lon="0.43689">
        <ele>199.61</ele>
        <time>2021-08-19T06:31:31Z</time>
      </trkpt>
      <trkpt lat="43.60248" lon="0.43691">
        <ele>199.61</ele>
        <time>2021-08-19T06:31:32Z</time>
      </trkpt>
      <trkpt lat="43.60254" lon="0.43693">
        <ele>200.09</ele>
        <time>2021-08-19T06:31:38Z</time>
      </trkpt>
      <trkpt lat="43.60255" lon="0.43694">
        <ele>201.05</ele>
        <time>2021-08-19T06:31:40Z</time>
      </trkpt>
      <trkpt lat="43.60261" lon="0.43698">
        <ele>202.49</ele>
        <time>2021-08-19T06:31:49Z</time>
      </trkpt>
      <trkpt lat="43.60268" lon="0.43705">
        <ele>204.42</ele>
        <time>2021-08-19T06:32:01Z</time>
      </trkpt>
      <trkpt lat="43.60272" lon="0.43713">
        <ele>206.34</ele>
        <time>2021-08-19T06:32:12Z</time>
      </trkpt>
      <trkpt lat="43.60272" lon="0.43715">
        <ele>206.82</ele>
        <time>2021-08-19T06:32:22Z</time>
      </trkpt>
      <trkpt lat="43.60273" lon="0.43721">
        <ele>207.78</ele>
        <time>2021-08-19T06:32:30Z</time>
      </trkpt>
      <trkpt lat="43.60273" lon="0.4373">
        <ele>209.7</ele>
        <time>2021-08-19T06:32:40Z</time>
      </trkpt>
      <trkpt lat="43.60274" lon="0.43739">
        <ele>210.67</ele>
        <time>2021-08-19T06:32:50Z</time>
      </trkpt>
      <trkpt lat="43.60274" lon="0.43743">
        <ele>211.63</ele>
        <time>2021-08-19T06:32:58Z</time>
      </trkpt>
      <trkpt lat="43.60274" lon="0.43752">
        <ele>213.07</ele>
        <time>2021-08-19T06:33:08Z</time>
      </trkpt>
      <trkpt lat="43.60274" lon="0.43765">
        <ele>215.47</ele>
        <time>2021-08-19T06:33:21Z</time>
      </trkpt>
      <trkpt lat="43.60273" lon="0.43771">
        <ele>215.95</ele>
        <time>2021-08-19T06:33:27Z</time>
      </trkpt>
      <trkpt lat="43.60269" lon="0.43786">
        <ele>217.88</ele>
        <time>2021-08-19T06:33:38Z</time>
      </trkpt>
      <trkpt lat="43.60265" lon="0.43802">
        <ele>219.8</ele>
        <time>2021-08-19T06:33:50Z</time>
      </trkpt>
      <trkpt lat="43.60263" lon="0.43804">
        <ele>219.8</ele>
        <time>2021-08-19T06:33:57Z</time>
      </trkpt>
      <trkpt lat="43.60261" lon="0.43813">
        <ele>219.8</ele>
        <time>2021-08-19T06:34:03Z</time>
      </trkpt>
      <trkpt lat="43.60259" lon="0.43817">
        <ele>220.28</ele>
        <time>2021-08-19T06:34:05Z</time>
      </trkpt>
      <trkpt lat="43.60258" lon="0.43818">
        <ele>220.28</ele>
        <time>2021-08-19T06:34:06Z</time>
      </trkpt>
      <trkpt lat="43.60258" lon="0.4382">
        <ele>220.28</ele>
        <time>2021-08-19T06:34:07Z</time>
      </trkpt>
      <trkpt lat="43.60257" lon="0.43822">
        <ele>220.28</ele>
        <time>2021-08-19T06:34:08Z</time>
      </trkpt>
      <trkpt lat="43.60257" lon="0.43824">
        <ele>221.24</ele>
        <time>2021-08-19T06:34:09Z</time>
      </trkpt>
      <trkpt lat="43.60257" lon="0.43826">
        <ele>221.24</ele>
        <time>2021-08-19T06:34:10Z</time>
      </trkpt>
      <trkpt lat="43.60256" lon="0.43827">
        <ele>221.24</ele>
        <time>2021-08-19T06:34:11Z</time>
      </trkpt>
      <trkpt lat="43.60256" lon="0.43829">
        <ele>221.24</ele>
        <time>2021-08-19T06:34:12Z</time>
      </trkpt>
      <trkpt lat="43.60255" lon="0.4383">
        <ele>221.24</ele>
        <time>2021-08-19T06:34:13Z</time>
      </trkpt>
      <trkpt lat="43.60255" lon="0.43832">
        <ele>221.24</ele>
        <time>2021-08-19T06:34:14Z</time>
      </trkpt>
      <trkpt lat="43.60254" lon="0.43834">
        <ele>222.2</ele>
        <time>2021-08-19T06:34:15Z</time>
      </trkpt>
      <trkpt lat="43.60254" lon="0.43836">
        <ele>222.2</ele>
        <time>2021-08-19T06:34:16Z</time>
      </trkpt>
      <trkpt lat="43.60253" lon="0.43838">
        <ele>222.2</ele>
        <time>2021-08-19T06:34:17Z</time>
      </trkpt>
      <trkpt lat="43.60247" lon="0.43861">
        <ele>223.64</ele>
        <time>2021-08-19T06:34:27Z</time>
      </trkpt>
      <trkpt lat="43.60239" lon="0.43886">
        <ele>224.61</ele>
        <time>2021-08-19T06:34:38Z</time>
      </trkpt>
      <trkpt lat="43.60231" lon="0.43912">
        <ele>226.53</ele>
        <time>2021-08-19T06:34:49Z</time>
      </trkpt>
      <trkpt lat="43.60225" lon="0.43932">
        <ele>227.49</ele>
        <time>2021-08-19T06:34:57Z</time>
      </trkpt>
      <trkpt lat="43.60216" lon="0.43958">
        <ele>229.41</ele>
        <time>2021-08-19T06:35:08Z</time>
      </trkpt>
      <trkpt lat="43.60208" lon="0.43982">
        <ele>230.85</ele>
        <time>2021-08-19T06:35:18Z</time>
      </trkpt>
      <trkpt lat="43.602" lon="0.44008">
        <ele>232.78</ele>
        <time>2021-08-19T06:35:29Z</time>
      </trkpt>
      <trkpt lat="43.60191" lon="0.44028">
        <ele>234.22</ele>
        <time>2021-08-19T06:35:38Z</time>
      </trkpt>
      <trkpt lat="43.6018" lon="0.44056">
        <ele>236.62</ele>
        <time>2021-08-19T06:35:50Z</time>
      </trkpt>
      <trkpt lat="43.6017" lon="0.44077">
        <ele>238.06</ele>
        <time>2021-08-19T06:35:59Z</time>
      </trkpt>
      <trkpt lat="43.60155" lon="0.44093">
        <ele>238.06</ele>
        <time>2021-08-19T06:36:07Z</time>
      </trkpt>
      <trkpt lat="43.60127" lon="0.44116">
        <ele>238.54</ele>
        <time>2021-08-19T06:36:17Z</time>
      </trkpt>
      <trkpt lat="43.60103" lon="0.44131">
        <ele>239.02</ele>
        <time>2021-08-19T06:36:25Z</time>
      </trkpt>
      <trkpt lat="43.6008" lon="0.44137">
        <ele>239.99</ele>
        <time>2021-08-19T06:36:34Z</time>
      </trkpt>
      <trkpt lat="43.6006" lon="0.44143">
        <ele>241.43</ele>
        <time>2021-08-19T06:36:43Z</time>
      </trkpt>
      <trkpt lat="43.60045" lon="0.44147">
        <ele>242.39</ele>
        <time>2021-08-19T06:36:51Z</time>
      </trkpt>
      <trkpt lat="43.60024" lon="0.44152">
        <ele>243.35</ele>
        <time>2021-08-19T06:37:00Z</time>
      </trkpt>
      <trkpt lat="43.60006" lon="0.44156">
        <ele>244.31</ele>
        <time>2021-08-19T06:37:08Z</time>
      </trkpt>
      <trkpt lat="43.59985" lon="0.44158">
        <ele>244.79</ele>
        <time>2021-08-19T06:37:16Z</time>
      </trkpt>
      <trkpt lat="43.59958" lon="0.44163">
        <ele>245.27</ele>
        <time>2021-08-19T06:37:27Z</time>
      </trkpt>
      <trkpt lat="43.59936" lon="0.44171">
        <ele>246.23</ele>
        <time>2021-08-19T06:37:36Z</time>
      </trkpt>
      <trkpt lat="43.59909" lon="0.4418">
        <ele>246.72</ele>
        <time>2021-08-19T06:37:46Z</time>
      </trkpt>
      <trkpt lat="43.59875" lon="0.44191">
        <ele>246.72</ele>
        <time>2021-08-19T06:37:57Z</time>
      </trkpt>
      <trkpt lat="43.59838" lon="0.44201">
        <ele>246.72</ele>
        <time>2021-08-19T06:38:06Z</time>
      </trkpt>
      <trkpt lat="43.59785" lon="0.44214">
        <ele>246.72</ele>
        <time>2021-08-19T06:38:19Z</time>
      </trkpt>
      <trkpt lat="43.59741" lon="0.44226">
        <ele>246.72</ele>
        <time>2021-08-19T06:38:30Z</time>
      </trkpt>
      <trkpt lat="43.59697" lon="0.44238">
        <ele>246.23</ele>
        <time>2021-08-19T06:38:39Z</time>
      </trkpt>
      <trkpt lat="43.59678" lon="0.44243">
        <ele>248.16</ele>
        <time>2021-08-19T06:38:46Z</time>
      </trkpt>
      <trkpt lat="43.59664" lon="0.44246">
        <ele>249.12</ele>
        <time>2021-08-19T06:38:53Z</time>
      </trkpt>
      <trkpt lat="43.59645" lon="0.44251">
        <ele>251.04</ele>
        <time>2021-08-19T06:39:01Z</time>
      </trkpt>
      <trkpt lat="43.59627" lon="0.44257">
        <ele>251.52</ele>
        <time>2021-08-19T06:39:08Z</time>
      </trkpt>
      <trkpt lat="43.59607" lon="0.44264">
        <ele>251.52</ele>
        <time>2021-08-19T06:39:15Z</time>
      </trkpt>
      <trkpt lat="43.59578" lon="0.44271">
        <ele>251.52</ele>
        <time>2021-08-19T06:39:24Z</time>
      </trkpt>
      <trkpt lat="43.59559" lon="0.4427">
        <ele>251.52</ele>
        <time>2021-08-19T06:39:30Z</time>
      </trkpt>
      <trkpt lat="43.59544" lon="0.44264">
        <ele>250.08</ele>
        <time>2021-08-19T06:39:35Z</time>
      </trkpt>
      <trkpt lat="43.59519" lon="0.44261">
        <ele>250.08</ele>
        <time>2021-08-19T06:39:43Z</time>
      </trkpt>
      <trkpt lat="43.5949" lon="0.44267">
        <ele>249.6</ele>
        <time>2021-08-19T06:39:52Z</time>
      </trkpt>
      <trkpt lat="43.5947" lon="0.44276">
        <ele>249.6</ele>
        <time>2021-08-19T06:39:58Z</time>
      </trkpt>
      <trkpt lat="43.59455" lon="0.44282">
        <ele>249.6</ele>
        <time>2021-08-19T06:40:04Z</time>
      </trkpt>
      <trkpt lat="43.59427" lon="0.44295">
        <ele>249.6</ele>
        <time>2021-08-19T06:40:12Z</time>
      </trkpt>
      <trkpt lat="43.59393" lon="0.44313">
        <ele>249.6</ele>
        <time>2021-08-19T06:40:21Z</time>
      </trkpt>
      <trkpt lat="43.59368" lon="0.44322">
        <ele>251.04</ele>
        <time>2021-08-19T06:40:28Z</time>
      </trkpt>
      <trkpt lat="43.59352" lon="0.4432">
        <ele>252</ele>
        <time>2021-08-19T06:40:33Z</time>
      </trkpt>
      <trkpt lat="43.59333" lon="0.44313">
        <ele>252.48</ele>
        <time>2021-08-19T06:40:40Z</time>
      </trkpt>
      <trkpt lat="43.59298" lon="0.44302">
        <ele>254.41</ele>
        <time>2021-08-19T06:40:52Z</time>
      </trkpt>
      <trkpt lat="43.59273" lon="0.44299">
        <ele>255.37</ele>
        <time>2021-08-19T06:41:00Z</time>
      </trkpt>
      <trkpt lat="43.59247" lon="0.44298">
        <ele>255.85</ele>
        <time>2021-08-19T06:41:07Z</time>
      </trkpt>
      <trkpt lat="43.59221" lon="0.443">
        <ele>255.85</ele>
        <time>2021-08-19T06:41:14Z</time>
      </trkpt>
      <trkpt lat="43.59216" lon="0.44299">
        <ele>255.85</ele>
        <time>2021-08-19T06:41:15Z</time>
      </trkpt>
      <trkpt lat="43.59212" lon="0.44298">
        <ele>255.85</ele>
        <time>2021-08-19T06:41:16Z</time>
      </trkpt>
      <trkpt lat="43.59208" lon="0.44297">
        <ele>255.85</ele>
        <time>2021-08-19T06:41:17Z</time>
      </trkpt>
      <trkpt lat="43.59204" lon="0.44295">
        <ele>255.85</ele>
        <time>2021-08-19T06:41:18Z</time>
      </trkpt>
      <trkpt lat="43.59199" lon="0.44293">
        <ele>255.85</ele>
        <time>2021-08-19T06:41:19Z</time>
      </trkpt>
      <trkpt lat="43.59195" lon="0.44291">
        <ele>255.85</ele>
        <time>2021-08-19T06:41:20Z</time>
      </trkpt>
      <trkpt lat="43.59147" lon="0.4426">
        <ele>253.44</ele>
        <time>2021-08-19T06:41:29Z</time>
      </trkpt>
      <trkpt lat="43.59126" lon="0.44241">
        <ele>253.44</ele>
        <time>2021-08-19T06:41:34Z</time>
      </trkpt>
      <trkpt lat="43.59122" lon="0.44238">
        <ele>253.44</ele>
        <time>2021-08-19T06:41:35Z</time>
      </trkpt>
      <trkpt lat="43.59119" lon="0.44236">
        <ele>253.93</ele>
        <time>2021-08-19T06:41:36Z</time>
      </trkpt>
      <trkpt lat="43.59115" lon="0.44235">
        <ele>253.93</ele>
        <time>2021-08-19T06:41:37Z</time>
      </trkpt>
      <trkpt lat="43.59111" lon="0.44234">
        <ele>253.93</ele>
        <time>2021-08-19T06:41:38Z</time>
      </trkpt>
      <trkpt lat="43.59108" lon="0.44234">
        <ele>253.93</ele>
        <time>2021-08-19T06:41:39Z</time>
      </trkpt>
      <trkpt lat="43.59099" lon="0.44235">
        <ele>255.85</ele>
        <time>2021-08-19T06:41:42Z</time>
      </trkpt>
      <trkpt lat="43.59096" lon="0.44234">
        <ele>255.85</ele>
        <time>2021-08-19T06:41:43Z</time>
      </trkpt>
      <trkpt lat="43.59094" lon="0.44231">
        <ele>255.85</ele>
        <time>2021-08-19T06:41:44Z</time>
      </trkpt>
      <trkpt lat="43.59092" lon="0.44227">
        <ele>255.85</ele>
        <time>2021-08-19T06:41:45Z</time>
      </trkpt>
      <trkpt lat="43.59092" lon="0.44222">
        <ele>255.85</ele>
        <time>2021-08-19T06:41:46Z</time>
      </trkpt>
      <trkpt lat="43.59092" lon="0.44217">
        <ele>255.85</ele>
        <time>2021-08-19T06:41:47Z</time>
      </trkpt>
      <trkpt lat="43.59093" lon="0.44212">
        <ele>255.85</ele>
        <time>2021-08-19T06:41:48Z</time>
      </trkpt>
      <trkpt lat="43.59094" lon="0.442">
        <ele>255.85</ele>
        <time>2021-08-19T06:41:50Z</time>
      </trkpt>
      <trkpt lat="43.59094" lon="0.44194">
        <ele>255.85</ele>
        <time>2021-08-19T06:41:51Z</time>
      </trkpt>
      <trkpt lat="43.59095" lon="0.44166">
        <ele>254.41</ele>
        <time>2021-08-19T06:41:55Z</time>
      </trkpt>
      <trkpt lat="43.59097" lon="0.44134">
        <ele>252.96</ele>
        <time>2021-08-19T06:41:59Z</time>
      </trkpt>
      <trkpt lat="43.59101" lon="0.44109">
        <ele>251.52</ele>
        <time>2021-08-19T06:42:02Z</time>
      </trkpt>
      <trkpt lat="43.59103" lon="0.44101">
        <ele>251.52</ele>
        <time>2021-08-19T06:42:03Z</time>
      </trkpt>
      <trkpt lat="43.59106" lon="0.44093">
        <ele>251.52</ele>
        <time>2021-08-19T06:42:04Z</time>
      </trkpt>
      <trkpt lat="43.59121" lon="0.44067">
        <ele>251.52</ele>
        <time>2021-08-19T06:42:08Z</time>
      </trkpt>
      <trkpt lat="43.59124" lon="0.44061">
        <ele>251.52</ele>
        <time>2021-08-19T06:42:09Z</time>
      </trkpt>
      <trkpt lat="43.59127" lon="0.44055">
        <ele>251.52</ele>
        <time>2021-08-19T06:42:10Z</time>
      </trkpt>
      <trkpt lat="43.59139" lon="0.44031">
        <ele>251.04</ele>
        <time>2021-08-19T06:42:14Z</time>
      </trkpt>
      <trkpt lat="43.59142" lon="0.44019">
        <ele>250.56</ele>
        <time>2021-08-19T06:42:16Z</time>
      </trkpt>
      <trkpt lat="43.5915" lon="0.43977">
        <ele>246.23</ele>
        <time>2021-08-19T06:42:21Z</time>
      </trkpt>
      <trkpt lat="43.59153" lon="0.43956">
        <ele>245.27</ele>
        <time>2021-08-19T06:42:23Z</time>
      </trkpt>
      <trkpt lat="43.59153" lon="0.43934">
        <ele>244.31</ele>
        <time>2021-08-19T06:42:25Z</time>
      </trkpt>
      <trkpt lat="43.59152" lon="0.43913">
        <ele>243.35</ele>
        <time>2021-08-19T06:42:27Z</time>
      </trkpt>
      <trkpt lat="43.59153" lon="0.43902">
        <ele>241.91</ele>
        <time>2021-08-19T06:42:28Z</time>
      </trkpt>
      <trkpt lat="43.59156" lon="0.43881">
        <ele>239.51</ele>
        <time>2021-08-19T06:42:30Z</time>
      </trkpt>
      <trkpt lat="43.59157" lon="0.43845">
        <ele>238.06</ele>
        <time>2021-08-19T06:42:33Z</time>
      </trkpt>
      <trkpt lat="43.59156" lon="0.43833">
        <ele>236.62</ele>
        <time>2021-08-19T06:42:34Z</time>
      </trkpt>
      <trkpt lat="43.59151" lon="0.43795">
        <ele>234.7</ele>
        <time>2021-08-19T06:42:37Z</time>
      </trkpt>
      <trkpt lat="43.59149" lon="0.43782">
        <ele>234.7</ele>
        <time>2021-08-19T06:42:38Z</time>
      </trkpt>
      <trkpt lat="43.59146" lon="0.4377">
        <ele>233.74</ele>
        <time>2021-08-19T06:42:39Z</time>
      </trkpt>
      <trkpt lat="43.5913" lon="0.43724">
        <ele>231.33</ele>
        <time>2021-08-19T06:42:43Z</time>
      </trkpt>
      <trkpt lat="43.59119" lon="0.43689">
        <ele>230.37</ele>
        <time>2021-08-19T06:42:47Z</time>
      </trkpt>
      <trkpt lat="43.59119" lon="0.43681">
        <ele>230.37</ele>
        <time>2021-08-19T06:42:48Z</time>
      </trkpt>
      <trkpt lat="43.59119" lon="0.43675">
        <ele>230.37</ele>
        <time>2021-08-19T06:42:49Z</time>
      </trkpt>
      <trkpt lat="43.59118" lon="0.43667">
        <ele>230.37</ele>
        <time>2021-08-19T06:42:50Z</time>
      </trkpt>
      <trkpt lat="43.59117" lon="0.43659">
        <ele>229.89</ele>
        <time>2021-08-19T06:42:51Z</time>
      </trkpt>
      <trkpt lat="43.59116" lon="0.43652">
        <ele>229.89</ele>
        <time>2021-08-19T06:42:52Z</time>
      </trkpt>
      <trkpt lat="43.59114" lon="0.43645">
        <ele>229.41</ele>
        <time>2021-08-19T06:42:53Z</time>
      </trkpt>
      <trkpt lat="43.59111" lon="0.43637">
        <ele>228.93</ele>
        <time>2021-08-19T06:42:54Z</time>
      </trkpt>
      <trkpt lat="43.59105" lon="0.43622">
        <ele>227.97</ele>
        <time>2021-08-19T06:42:56Z</time>
      </trkpt>
      <trkpt lat="43.59081" lon="0.43556">
        <ele>225.57</ele>
        <time>2021-08-19T06:43:05Z</time>
      </trkpt>
      <trkpt lat="43.59074" lon="0.43536">
        <ele>225.57</ele>
        <time>2021-08-19T06:43:08Z</time>
      </trkpt>
      <trkpt lat="43.59075" lon="0.4353">
        <ele>225.57</ele>
        <time>2021-08-19T06:43:09Z</time>
      </trkpt>
      <trkpt lat="43.59077" lon="0.43524">
        <ele>225.57</ele>
        <time>2021-08-19T06:43:10Z</time>
      </trkpt>
      <trkpt lat="43.59079" lon="0.43518">
        <ele>225.57</ele>
        <time>2021-08-19T06:43:11Z</time>
      </trkpt>
      <trkpt lat="43.5908" lon="0.43511">
        <ele>225.09</ele>
        <time>2021-08-19T06:43:12Z</time>
      </trkpt>
      <trkpt lat="43.59081" lon="0.43504">
        <ele>224.61</ele>
        <time>2021-08-19T06:43:13Z</time>
      </trkpt>
      <trkpt lat="43.59082" lon="0.43497">
        <ele>224.12</ele>
        <time>2021-08-19T06:43:14Z</time>
      </trkpt>
      <trkpt lat="43.59086" lon="0.43454">
        <ele>220.28</ele>
        <time>2021-08-19T06:43:19Z</time>
      </trkpt>
      <trkpt lat="43.59092" lon="0.43407">
        <ele>216.91</ele>
        <time>2021-08-19T06:43:24Z</time>
      </trkpt>
      <trkpt lat="43.59096" lon="0.43372">
        <ele>214.03</ele>
        <time>2021-08-19T06:43:28Z</time>
      </trkpt>
      <trkpt lat="43.59105" lon="0.4333">
        <ele>210.19</ele>
        <time>2021-08-19T06:43:33Z</time>
      </trkpt>
      <trkpt lat="43.59106" lon="0.4332">
        <ele>208.74</ele>
        <time>2021-08-19T06:43:34Z</time>
      </trkpt>
      <trkpt lat="43.5912" lon="0.43236">
        <ele>206.82</ele>
        <time>2021-08-19T06:43:42Z</time>
      </trkpt>
      <trkpt lat="43.59123" lon="0.43221">
        <ele>205.86</ele>
        <time>2021-08-19T06:43:44Z</time>
      </trkpt>
      <trkpt lat="43.59122" lon="0.43216">
        <ele>206.34</ele>
        <time>2021-08-19T06:43:45Z</time>
      </trkpt>
      <trkpt lat="43.5912" lon="0.43213">
        <ele>206.34</ele>
        <time>2021-08-19T06:43:46Z</time>
      </trkpt>
      <trkpt lat="43.59119" lon="0.43212">
        <ele>206.34</ele>
        <time>2021-08-19T06:43:47Z</time>
      </trkpt>
      <trkpt lat="43.59116" lon="0.43213">
        <ele>207.78</ele>
        <time>2021-08-19T06:43:52Z</time>
      </trkpt>
      <trkpt lat="43.59116" lon="0.43213">
        <ele>207.78</ele>
        <time>2021-08-19T06:43:53Z</time>
      </trkpt>
      <trkpt lat="43.59111" lon="0.43213">
        <ele>209.22</ele>
        <time>2021-08-19T06:44:03Z</time>
      </trkpt>
      <trkpt lat="43.59104" lon="0.43211">
        <ele>210.67</ele>
        <time>2021-08-19T06:44:14Z</time>
      </trkpt>
      <trkpt lat="43.59099" lon="0.43209">
        <ele>211.63</ele>
        <time>2021-08-19T06:44:23Z</time>
      </trkpt>
      <trkpt lat="43.59093" lon="0.43206">
        <ele>213.07</ele>
        <time>2021-08-19T06:44:34Z</time>
      </trkpt>
      <trkpt lat="43.5909" lon="0.43206">
        <ele>214.51</ele>
        <time>2021-08-19T06:44:41Z</time>
      </trkpt>
      <trkpt lat="43.59086" lon="0.43204">
        <ele>215.95</ele>
        <time>2021-08-19T06:44:51Z</time>
      </trkpt>
      <trkpt lat="43.59082" lon="0.43203">
        <ele>217.4</ele>
        <time>2021-08-19T06:45:00Z</time>
      </trkpt>
      <trkpt lat="43.59077" lon="0.43201">
        <ele>218.84</ele>
        <time>2021-08-19T06:45:12Z</time>
      </trkpt>
      <trkpt lat="43.59073" lon="0.432">
        <ele>220.28</ele>
        <time>2021-08-19T06:45:22Z</time>
      </trkpt>
      <trkpt lat="43.59067" lon="0.43198">
        <ele>221.72</ele>
        <time>2021-08-19T06:45:32Z</time>
      </trkpt>
      <trkpt lat="43.59062" lon="0.43198">
        <ele>223.16</ele>
        <time>2021-08-19T06:45:43Z</time>
      </trkpt>
      <trkpt lat="43.59057" lon="0.43198">
        <ele>225.57</ele>
        <time>2021-08-19T06:45:54Z</time>
      </trkpt>
      <trkpt lat="43.59051" lon="0.43198">
        <ele>226.53</ele>
        <time>2021-08-19T06:46:04Z</time>
      </trkpt>
      <trkpt lat="43.59044" lon="0.43197">
        <ele>228.93</ele>
        <time>2021-08-19T06:46:15Z</time>
      </trkpt>
      <trkpt lat="43.59036" lon="0.43197">
        <ele>230.37</ele>
        <time>2021-08-19T06:46:26Z</time>
      </trkpt>
      <trkpt lat="43.59032" lon="0.43192">
        <ele>231.33</ele>
        <time>2021-08-19T06:46:33Z</time>
      </trkpt>
      <trkpt lat="43.59032" lon="0.43187">
        <ele>231.33</ele>
        <time>2021-08-19T06:46:41Z</time>
      </trkpt>
      <trkpt lat="43.59032" lon="0.43185">
        <ele>231.33</ele>
        <time>2021-08-19T06:46:42Z</time>
      </trkpt>
      <trkpt lat="43.59036" lon="0.43176">
        <ele>231.33</ele>
        <time>2021-08-19T06:46:48Z</time>
      </trkpt>
      <trkpt lat="43.59044" lon="0.43155">
        <ele>231.33</ele>
        <time>2021-08-19T06:46:54Z</time>
      </trkpt>
      <trkpt lat="43.59055" lon="0.43127">
        <ele>229.89</ele>
        <time>2021-08-19T06:47:01Z</time>
      </trkpt>
      <trkpt lat="43.59057" lon="0.43122">
        <ele>229.89</ele>
        <time>2021-08-19T06:47:02Z</time>
      </trkpt>
      <trkpt lat="43.59074" lon="0.43081">
        <ele>227.49</ele>
        <time>2021-08-19T06:47:09Z</time>
      </trkpt>
      <trkpt lat="43.59078" lon="0.43073">
        <ele>226.53</ele>
        <time>2021-08-19T06:47:10Z</time>
      </trkpt>
      <trkpt lat="43.59085" lon="0.43057">
        <ele>226.05</ele>
        <time>2021-08-19T06:47:12Z</time>
      </trkpt>
      <trkpt lat="43.59105" lon="0.42991">
        <ele>223.16</ele>
        <time>2021-08-19T06:47:19Z</time>
      </trkpt>
      <trkpt lat="43.59118" lon="0.4292">
        <ele>221.24</ele>
        <time>2021-08-19T06:47:26Z</time>
      </trkpt>
      <trkpt lat="43.59129" lon="0.42856">
        <ele>217.88</ele>
        <time>2021-08-19T06:47:32Z</time>
      </trkpt>
      <trkpt lat="43.59133" lon="0.42807">
        <ele>214.51</ele>
        <time>2021-08-19T06:47:36Z</time>
      </trkpt>
      <trkpt lat="43.59141" lon="0.42746">
        <ele>212.59</ele>
        <time>2021-08-19T06:47:41Z</time>
      </trkpt>
      <trkpt lat="43.5915" lon="0.42709">
        <ele>209.7</ele>
        <time>2021-08-19T06:47:45Z</time>
      </trkpt>
      <trkpt lat="43.59159" lon="0.4266">
        <ele>205.86</ele>
        <time>2021-08-19T06:47:50Z</time>
      </trkpt>
      <trkpt lat="43.59164" lon="0.42622">
        <ele>202.49</ele>
        <time>2021-08-19T06:47:54Z</time>
      </trkpt>
      <trkpt lat="43.59168" lon="0.42583">
        <ele>198.65</ele>
        <time>2021-08-19T06:47:58Z</time>
      </trkpt>
      <trkpt lat="43.59169" lon="0.42574">
        <ele>198.65</ele>
        <time>2021-08-19T06:47:59Z</time>
      </trkpt>
      <trkpt lat="43.59171" lon="0.42566">
        <ele>197.69</ele>
        <time>2021-08-19T06:48:00Z</time>
      </trkpt>
      <trkpt lat="43.59175" lon="0.42547">
        <ele>195.77</ele>
        <time>2021-08-19T06:48:04Z</time>
      </trkpt>
      <trkpt lat="43.59178" lon="0.42532">
        <ele>194.32</ele>
        <time>2021-08-19T06:48:07Z</time>
      </trkpt>
      <trkpt lat="43.59179" lon="0.42526">
        <ele>194.32</ele>
        <time>2021-08-19T06:48:08Z</time>
      </trkpt>
      <trkpt lat="43.59179" lon="0.4252">
        <ele>193.36</ele>
        <time>2021-08-19T06:48:09Z</time>
      </trkpt>
      <trkpt lat="43.59173" lon="0.4245">
        <ele>190.96</ele>
        <time>2021-08-19T06:48:18Z</time>
      </trkpt>
      <trkpt lat="43.59171" lon="0.42432">
        <ele>190</ele>
        <time>2021-08-19T06:48:20Z</time>
      </trkpt>
      <trkpt lat="43.59154" lon="0.42373">
        <ele>186.63</ele>
        <time>2021-08-19T06:48:26Z</time>
      </trkpt>
      <trkpt lat="43.59137" lon="0.4233">
        <ele>183.27</ele>
        <time>2021-08-19T06:48:30Z</time>
      </trkpt>
      <trkpt lat="43.59118" lon="0.42283">
        <ele>179.9</ele>
        <time>2021-08-19T06:48:34Z</time>
      </trkpt>
      <trkpt lat="43.59094" lon="0.42223">
        <ele>177.02</ele>
        <time>2021-08-19T06:48:39Z</time>
      </trkpt>
      <trkpt lat="43.59088" lon="0.42205">
        <ele>176.54</ele>
        <time>2021-08-19T06:48:41Z</time>
      </trkpt>
      <trkpt lat="43.59087" lon="0.42197">
        <ele>176.06</ele>
        <time>2021-08-19T06:48:42Z</time>
      </trkpt>
      <trkpt lat="43.59088" lon="0.42188">
        <ele>175.58</ele>
        <time>2021-08-19T06:48:43Z</time>
      </trkpt>
      <trkpt lat="43.59091" lon="0.4218">
        <ele>174.62</ele>
        <time>2021-08-19T06:48:44Z</time>
      </trkpt>
      <trkpt lat="43.59096" lon="0.42174">
        <ele>174.62</ele>
        <time>2021-08-19T06:48:45Z</time>
      </trkpt>
      <trkpt lat="43.59102" lon="0.42168">
        <ele>174.14</ele>
        <time>2021-08-19T06:48:46Z</time>
      </trkpt>
      <trkpt lat="43.59142" lon="0.42137">
        <ele>171.25</ele>
        <time>2021-08-19T06:48:52Z</time>
      </trkpt>
      <trkpt lat="43.59165" lon="0.42123">
        <ele>167.41</ele>
        <time>2021-08-19T06:48:55Z</time>
      </trkpt>
      <trkpt lat="43.59187" lon="0.42105">
        <ele>164.04</ele>
        <time>2021-08-19T06:48:58Z</time>
      </trkpt>
      <trkpt lat="43.59212" lon="0.42083">
        <ele>160.2</ele>
        <time>2021-08-19T06:49:02Z</time>
      </trkpt>
      <trkpt lat="43.59223" lon="0.42068">
        <ele>159.24</ele>
        <time>2021-08-19T06:49:06Z</time>
      </trkpt>
      <trkpt lat="43.59224" lon="0.42064">
        <ele>159.24</ele>
        <time>2021-08-19T06:49:07Z</time>
      </trkpt>
      <trkpt lat="43.59223" lon="0.4206">
        <ele>159.24</ele>
        <time>2021-08-19T06:49:08Z</time>
      </trkpt>
      <trkpt lat="43.59222" lon="0.42056">
        <ele>159.24</ele>
        <time>2021-08-19T06:49:09Z</time>
      </trkpt>
      <trkpt lat="43.5922" lon="0.42051">
        <ele>159.24</ele>
        <time>2021-08-19T06:49:10Z</time>
      </trkpt>
      <trkpt lat="43.59217" lon="0.42046">
        <ele>158.27</ele>
        <time>2021-08-19T06:49:11Z</time>
      </trkpt>
      <trkpt lat="43.59214" lon="0.42042">
        <ele>158.75</ele>
        <time>2021-08-19T06:49:12Z</time>
      </trkpt>
      <trkpt lat="43.59186" lon="0.41994">
        <ele>158.27</ele>
        <time>2021-08-19T06:49:22Z</time>
      </trkpt>
      <trkpt lat="43.59162" lon="0.41955">
        <ele>158.27</ele>
        <time>2021-08-19T06:49:30Z</time>
      </trkpt>
      <trkpt lat="43.5913" lon="0.41905">
        <ele>157.31</ele>
        <time>2021-08-19T06:49:40Z</time>
      </trkpt>
      <trkpt lat="43.59098" lon="0.41871">
        <ele>154.91</ele>
        <time>2021-08-19T06:49:47Z</time>
      </trkpt>
      <trkpt lat="43.59058" lon="0.41829">
        <ele>151.54</ele>
        <time>2021-08-19T06:49:54Z</time>
      </trkpt>
      <trkpt lat="43.59038" lon="0.41811">
        <ele>150.58</ele>
        <time>2021-08-19T06:49:57Z</time>
      </trkpt>
      <trkpt lat="43.5903" lon="0.41808">
        <ele>150.1</ele>
        <time>2021-08-19T06:49:58Z</time>
      </trkpt>
      <trkpt lat="43.59022" lon="0.41805">
        <ele>149.14</ele>
        <time>2021-08-19T06:49:59Z</time>
      </trkpt>
      <trkpt lat="43.59013" lon="0.41803">
        <ele>149.14</ele>
        <time>2021-08-19T06:50:00Z</time>
      </trkpt>
      <trkpt lat="43.59005" lon="0.41804">
        <ele>149.14</ele>
        <time>2021-08-19T06:50:01Z</time>
      </trkpt>
      <trkpt lat="43.58997" lon="0.41807">
        <ele>149.14</ele>
        <time>2021-08-19T06:50:02Z</time>
      </trkpt>
      <trkpt lat="43.58989" lon="0.4181">
        <ele>148.18</ele>
        <time>2021-08-19T06:50:03Z</time>
      </trkpt>
      <trkpt lat="43.58965" lon="0.41818">
        <ele>147.22</ele>
        <time>2021-08-19T06:50:06Z</time>
      </trkpt>
      <trkpt lat="43.58957" lon="0.41817">
        <ele>146.74</ele>
        <time>2021-08-19T06:50:07Z</time>
      </trkpt>
      <trkpt lat="43.58949" lon="0.41814">
        <ele>146.74</ele>
        <time>2021-08-19T06:50:08Z</time>
      </trkpt>
      <trkpt lat="43.58942" lon="0.41808">
        <ele>145.78</ele>
        <time>2021-08-19T06:50:09Z</time>
      </trkpt>
      <trkpt lat="43.58936" lon="0.418">
        <ele>145.78</ele>
        <time>2021-08-19T06:50:10Z</time>
      </trkpt>
      <trkpt lat="43.5893" lon="0.41792">
        <ele>145.3</ele>
        <time>2021-08-19T06:50:11Z</time>
      </trkpt>
      <trkpt lat="43.58925" lon="0.41784">
        <ele>145.3</ele>
        <time>2021-08-19T06:50:12Z</time>
      </trkpt>
      <trkpt lat="43.58904" lon="0.41747">
        <ele>142.41</ele>
        <time>2021-08-19T06:50:16Z</time>
      </trkpt>
      <trkpt lat="43.58901" lon="0.41735">
        <ele>141.93</ele>
        <time>2021-08-19T06:50:17Z</time>
      </trkpt>
      <trkpt lat="43.58898" lon="0.41722">
        <ele>141.93</ele>
        <time>2021-08-19T06:50:18Z</time>
      </trkpt>
      <trkpt lat="43.58896" lon="0.41709">
        <ele>140.97</ele>
        <time>2021-08-19T06:50:19Z</time>
      </trkpt>
      <trkpt lat="43.58895" lon="0.41697">
        <ele>140.97</ele>
        <time>2021-08-19T06:50:20Z</time>
      </trkpt>
      <trkpt lat="43.58888" lon="0.41591">
        <ele>140.01</ele>
        <time>2021-08-19T06:50:29Z</time>
      </trkpt>
      <trkpt lat="43.58891" lon="0.4152">
        <ele>139.53</ele>
        <time>2021-08-19T06:50:36Z</time>
      </trkpt>
      <trkpt lat="43.58893" lon="0.41446">
        <ele>139.05</ele>
        <time>2021-08-19T06:50:44Z</time>
      </trkpt>
      <trkpt lat="43.58891" lon="0.41437">
        <ele>139.05</ele>
        <time>2021-08-19T06:50:45Z</time>
      </trkpt>
      <trkpt lat="43.58887" lon="0.41429">
        <ele>139.05</ele>
        <time>2021-08-19T06:50:46Z</time>
      </trkpt>
      <trkpt lat="43.58883" lon="0.41423">
        <ele>139.05</ele>
        <time>2021-08-19T06:50:47Z</time>
      </trkpt>
      <trkpt lat="43.58878" lon="0.41417">
        <ele>138.57</ele>
        <time>2021-08-19T06:50:48Z</time>
      </trkpt>
      <trkpt lat="43.58873" lon="0.41412">
        <ele>138.57</ele>
        <time>2021-08-19T06:50:49Z</time>
      </trkpt>
      <trkpt lat="43.58866" lon="0.41408">
        <ele>138.57</ele>
        <time>2021-08-19T06:50:50Z</time>
      </trkpt>
      <trkpt lat="43.58861" lon="0.41406">
        <ele>138.57</ele>
        <time>2021-08-19T06:50:51Z</time>
      </trkpt>
      <trkpt lat="43.58855" lon="0.41404">
        <ele>138.57</ele>
        <time>2021-08-19T06:50:52Z</time>
      </trkpt>
      <trkpt lat="43.58849" lon="0.41402">
        <ele>138.57</ele>
        <time>2021-08-19T06:50:53Z</time>
      </trkpt>
      <trkpt lat="43.58804" lon="0.41386">
        <ele>138.57</ele>
        <time>2021-08-19T06:51:01Z</time>
      </trkpt>
      <trkpt lat="43.58771" lon="0.41373">
        <ele>138.57</ele>
        <time>2021-08-19T06:51:07Z</time>
      </trkpt>
      <trkpt lat="43.58767" lon="0.4137">
        <ele>138.57</ele>
        <time>2021-08-19T06:51:08Z</time>
      </trkpt>
      <trkpt lat="43.58762" lon="0.41365">
        <ele>138.57</ele>
        <time>2021-08-19T06:51:09Z</time>
      </trkpt>
      <trkpt lat="43.5875" lon="0.41354">
        <ele>138.57</ele>
        <time>2021-08-19T06:51:12Z</time>
      </trkpt>
      <trkpt lat="43.58746" lon="0.41352">
        <ele>138.57</ele>
        <time>2021-08-19T06:51:13Z</time>
      </trkpt>
      <trkpt lat="43.58718" lon="0.41334">
        <ele>138.57</ele>
        <time>2021-08-19T06:51:19Z</time>
      </trkpt>
      <trkpt lat="43.58685" lon="0.41298">
        <ele>138.57</ele>
        <time>2021-08-19T06:51:27Z</time>
      </trkpt>
      <trkpt lat="43.58661" lon="0.41274">
        <ele>138.57</ele>
        <time>2021-08-19T06:51:33Z</time>
      </trkpt>
      <trkpt lat="43.58623" lon="0.41238">
        <ele>138.57</ele>
        <time>2021-08-19T06:51:42Z</time>
      </trkpt>
      <trkpt lat="43.58619" lon="0.41238">
        <ele>138.57</ele>
        <time>2021-08-19T06:51:46Z</time>
      </trkpt>
      <trkpt lat="43.58618" lon="0.41233">
        <ele>138.57</ele>
        <time>2021-08-19T06:51:49Z</time>
      </trkpt>
      <trkpt lat="43.58619" lon="0.41228">
        <ele>138.57</ele>
        <time>2021-08-19T06:51:55Z</time>
      </trkpt>
      <trkpt lat="43.58616" lon="0.41223">
        <ele>138.57</ele>
        <time>2021-08-19T06:52:12Z</time>
      </trkpt>
      <trkpt lat="43.58616" lon="0.41221">
        <ele>138.57</ele>
        <time>2021-08-19T06:52:28Z</time>
      </trkpt>
      <trkpt lat="43.58617" lon="0.41223">
        <ele>138.57</ele>
        <time>2021-08-19T06:52:48Z</time>
      </trkpt>
      <trkpt lat="43.58617" lon="0.41221">
        <ele>138.57</ele>
        <time>2021-08-19T06:53:06Z</time>
      </trkpt>
      <trkpt lat="43.58618" lon="0.41222">
        <ele>138.57</ele>
        <time>2021-08-19T06:53:20Z</time>
      </trkpt>
      <trkpt lat="43.58619" lon="0.41223">
        <ele>138.57</ele>
        <time>2021-08-19T06:53:36Z</time>
      </trkpt>
      <trkpt lat="43.58619" lon="0.41222">
        <ele>138.57</ele>
        <time>2021-08-19T06:53:53Z</time>
      </trkpt>
      <trkpt lat="43.58619" lon="0.41222">
        <ele>138.57</ele>
        <time>2021-08-19T06:54:04Z</time>
      </trkpt>
      <trkpt lat="43.5862" lon="0.41224">
        <ele>138.57</ele>
        <time>2021-08-19T06:54:05Z</time>
      </trkpt>
      <trkpt lat="43.58621" lon="0.41223">
        <ele>138.57</ele>
        <time>2021-08-19T06:54:11Z</time>
      </trkpt>
      <trkpt lat="43.5862" lon="0.41221">
        <ele>138.57</ele>
        <time>2021-08-19T06:54:21Z</time>
      </trkpt>
      <trkpt lat="43.58619" lon="0.4122">
        <ele>138.57</ele>
        <time>2021-08-19T06:54:36Z</time>
      </trkpt>
      <trkpt lat="43.58616" lon="0.41219">
        <ele>138.57</ele>
        <time>2021-08-19T06:54:57Z</time>
      </trkpt>
      <trkpt lat="43.58617" lon="0.41221">
        <ele>138.57</ele>
        <time>2021-08-19T06:55:10Z</time>
      </trkpt>
      <trkpt lat="43.58615" lon="0.41218">
        <ele>138.57</ele>
        <time>2021-08-19T06:55:25Z</time>
      </trkpt>
      <trkpt lat="43.58616" lon="0.41219">
        <ele>138.57</ele>
        <time>2021-08-19T06:55:40Z</time>
      </trkpt>
      <trkpt lat="43.58616" lon="0.41218">
        <ele>138.57</ele>
        <time>2021-08-19T06:55:51Z</time>
      </trkpt>
      <trkpt lat="43.58615" lon="0.41218">
        <ele>138.57</ele>
        <time>2021-08-19T06:56:03Z</time>
      </trkpt>
      <trkpt lat="43.58616" lon="0.41218">
        <ele>138.57</ele>
        <time>2021-08-19T06:56:18Z</time>
      </trkpt>
      <trkpt lat="43.58614" lon="0.41216">
        <ele>138.57</ele>
        <time>2021-08-19T06:56:29Z</time>
      </trkpt>
      <trkpt lat="43.58612" lon="0.41215">
        <ele>138.57</ele>
        <time>2021-08-19T06:56:48Z</time>
      </trkpt>
      <trkpt lat="43.58613" lon="0.41216">
        <ele>138.57</ele>
        <time>2021-08-19T06:56:56Z</time>
      </trkpt>
      <trkpt lat="43.58614" lon="0.41217">
        <ele>138.57</ele>
        <time>2021-08-19T06:56:58Z</time>
      </trkpt>
      <trkpt lat="43.58614" lon="0.41218">
        <ele>138.57</ele>
        <time>2021-08-19T06:56:59Z</time>
      </trkpt>
      <trkpt lat="43.58606" lon="0.41211">
        <ele>138.57</ele>
        <time>2021-08-19T06:57:08Z</time>
      </trkpt>
      <trkpt lat="43.58598" lon="0.41203">
        <ele>140.01</ele>
        <time>2021-08-19T06:57:17Z</time>
      </trkpt>
      <trkpt lat="43.58597" lon="0.41202">
        <ele>140.01</ele>
        <time>2021-08-19T06:57:27Z</time>
      </trkpt>
      <trkpt lat="43.58597" lon="0.41202">
        <ele>140.01</ele>
        <time>2021-08-19T06:57:42Z</time>
      </trkpt>
      <trkpt lat="43.58597" lon="0.41203">
        <ele>140.01</ele>
        <time>2021-08-19T06:57:53Z</time>
      </trkpt>
      <trkpt lat="43.58595" lon="0.41202">
        <ele>140.01</ele>
        <time>2021-08-19T06:58:08Z</time>
      </trkpt>
      <trkpt lat="43.58594" lon="0.41202">
        <ele>140.01</ele>
        <time>2021-08-19T06:58:23Z</time>
      </trkpt>
      <trkpt lat="43.58593" lon="0.41203">
        <ele>140.01</ele>
        <time>2021-08-19T06:58:36Z</time>
      </trkpt>
      <trkpt lat="43.58593" lon="0.41204">
        <ele>140.01</ele>
        <time>2021-08-19T06:58:55Z</time>
      </trkpt>
      <trkpt lat="43.58592" lon="0.41204">
        <ele>140.01</ele>
        <time>2021-08-19T06:58:59Z</time>
      </trkpt>
      <trkpt lat="43.58591" lon="0.41204">
        <ele>140.01</ele>
        <time>2021-08-19T06:59:06Z</time>
      </trkpt>
      <trkpt lat="43.58592" lon="0.41202">
        <ele>140.01</ele>
        <time>2021-08-19T06:59:23Z</time>
      </trkpt>
      <trkpt lat="43.58592" lon="0.41203">
        <ele>140.01</ele>
        <time>2021-08-19T06:59:42Z</time>
      </trkpt>
      <trkpt lat="43.58593" lon="0.41202">
        <ele>140.01</ele>
        <time>2021-08-19T07:00:06Z</time>
      </trkpt>
      <trkpt lat="43.58591" lon="0.41201">
        <ele>140.49</ele>
        <time>2021-08-19T07:00:22Z</time>
      </trkpt>
      <trkpt lat="43.58591" lon="0.412">
        <ele>140.49</ele>
        <time>2021-08-19T07:00:41Z</time>
      </trkpt>
      <trkpt lat="43.58591" lon="0.41199">
        <ele>140.49</ele>
        <time>2021-08-19T07:00:56Z</time>
      </trkpt>
      <trkpt lat="43.58594" lon="0.41199">
        <ele>140.49</ele>
        <time>2021-08-19T07:01:13Z</time>
      </trkpt>
      <trkpt lat="43.58595" lon="0.41198">
        <ele>140.49</ele>
        <time>2021-08-19T07:01:28Z</time>
      </trkpt>
      <trkpt lat="43.58596" lon="0.412">
        <ele>140.49</ele>
        <time>2021-08-19T07:01:44Z</time>
      </trkpt>
      <trkpt lat="43.58597" lon="0.412">
        <ele>140.49</ele>
        <time>2021-08-19T07:02:04Z</time>
      </trkpt>
      <trkpt lat="43.58597" lon="0.412">
        <ele>140.49</ele>
        <time>2021-08-19T07:02:28Z</time>
      </trkpt>
      <trkpt lat="43.58597" lon="0.412">
        <ele>140.49</ele>
        <time>2021-08-19T07:02:58Z</time>
      </trkpt>
      <trkpt lat="43.58597" lon="0.41202">
        <ele>140.49</ele>
        <time>2021-08-19T07:03:19Z</time>
      </trkpt>
      <trkpt lat="43.58597" lon="0.41204">
        <ele>140.01</ele>
        <time>2021-08-19T07:03:48Z</time>
      </trkpt>
      <trkpt lat="43.58597" lon="0.41204">
        <ele>140.01</ele>
        <time>2021-08-19T07:04:01Z</time>
      </trkpt>
      <trkpt lat="43.58599" lon="0.41204">
        <ele>140.01</ele>
        <time>2021-08-19T07:04:18Z</time>
      </trkpt>
      <trkpt lat="43.58599" lon="0.41204">
        <ele>140.01</ele>
        <time>2021-08-19T07:04:21Z</time>
      </trkpt>
      <trkpt lat="43.58601" lon="0.41205">
        <ele>140.01</ele>
        <time>2021-08-19T07:04:22Z</time>
      </trkpt>
      <trkpt lat="43.58601" lon="0.41208">
        <ele>140.01</ele>
        <time>2021-08-19T07:04:23Z</time>
      </trkpt>
      <trkpt lat="43.58601" lon="0.4121">
        <ele>140.01</ele>
        <time>2021-08-19T07:04:24Z</time>
      </trkpt>
      <trkpt lat="43.586" lon="0.41213">
        <ele>140.01</ele>
        <time>2021-08-19T07:04:25Z</time>
      </trkpt>
      <trkpt lat="43.58597" lon="0.41215">
        <ele>139.05</ele>
        <time>2021-08-19T07:04:26Z</time>
      </trkpt>
      <trkpt lat="43.58593" lon="0.41215">
        <ele>138.57</ele>
        <time>2021-08-19T07:04:27Z</time>
      </trkpt>
      <trkpt lat="43.58589" lon="0.41213">
        <ele>138.57</ele>
        <time>2021-08-19T07:04:28Z</time>
      </trkpt>
      <trkpt lat="43.58585" lon="0.41212">
        <ele>138.09</ele>
        <time>2021-08-19T07:04:29Z</time>
      </trkpt>
      <trkpt lat="43.58581" lon="0.41214">
        <ele>138.09</ele>
        <time>2021-08-19T07:04:30Z</time>
      </trkpt>
      <trkpt lat="43.5858" lon="0.41217">
        <ele>138.09</ele>
        <time>2021-08-19T07:04:31Z</time>
      </trkpt>
      <trkpt lat="43.58581" lon="0.4122">
        <ele>138.09</ele>
        <time>2021-08-19T07:04:32Z</time>
      </trkpt>
      <trkpt lat="43.58582" lon="0.41222">
        <ele>138.09</ele>
        <time>2021-08-19T07:04:33Z</time>
      </trkpt>
      <trkpt lat="43.58584" lon="0.41223">
        <ele>138.09</ele>
        <time>2021-08-19T07:04:34Z</time>
      </trkpt>
      <trkpt lat="43.58586" lon="0.41222">
        <ele>138.09</ele>
        <time>2021-08-19T07:04:41Z</time>
      </trkpt>
      <trkpt lat="43.58588" lon="0.4122">
        <ele>138.09</ele>
        <time>2021-08-19T07:04:43Z</time>
      </trkpt>
      <trkpt lat="43.58589" lon="0.41219">
        <ele>138.09</ele>
        <time>2021-08-19T07:04:44Z</time>
      </trkpt>
      <trkpt lat="43.5859" lon="0.41218">
        <ele>138.09</ele>
        <time>2021-08-19T07:04:45Z</time>
      </trkpt>
      <trkpt lat="43.586" lon="0.41212">
        <ele>139.53</ele>
        <time>2021-08-19T07:04:51Z</time>
      </trkpt>
      <trkpt lat="43.58602" lon="0.41211">
        <ele>139.53</ele>
        <time>2021-08-19T07:04:52Z</time>
      </trkpt>
      <trkpt lat="43.58603" lon="0.41209">
        <ele>139.53</ele>
        <time>2021-08-19T07:04:53Z</time>
      </trkpt>
      <trkpt lat="43.58603" lon="0.41207">
        <ele>139.53</ele>
        <time>2021-08-19T07:04:54Z</time>
      </trkpt>
      <trkpt lat="43.58599" lon="0.41188">
        <ele>140.01</ele>
        <time>2021-08-19T07:05:00Z</time>
      </trkpt>
      <trkpt lat="43.58592" lon="0.41168">
        <ele>141.45</ele>
        <time>2021-08-19T07:05:07Z</time>
      </trkpt>
      <trkpt lat="43.58586" lon="0.41143">
        <ele>142.41</ele>
        <time>2021-08-19T07:05:15Z</time>
      </trkpt>
      <trkpt lat="43.58579" lon="0.41111">
        <ele>142.41</ele>
        <time>2021-08-19T07:05:23Z</time>
      </trkpt>
      <trkpt lat="43.58569" lon="0.41076">
        <ele>141.93</ele>
        <time>2021-08-19T07:05:30Z</time>
      </trkpt>
      <trkpt lat="43.58554" lon="0.41057">
        <ele>141.93</ele>
        <time>2021-08-19T07:05:35Z</time>
      </trkpt>
      <trkpt lat="43.58551" lon="0.41054">
        <ele>141.93</ele>
        <time>2021-08-19T07:05:36Z</time>
      </trkpt>
      <trkpt lat="43.58547" lon="0.41051">
        <ele>141.93</ele>
        <time>2021-08-19T07:05:37Z</time>
      </trkpt>
      <trkpt lat="43.58515" lon="0.41041">
        <ele>141.93</ele>
        <time>2021-08-19T07:05:45Z</time>
      </trkpt>
      <trkpt lat="43.58471" lon="0.41026">
        <ele>141.93</ele>
        <time>2021-08-19T07:05:56Z</time>
      </trkpt>
      <trkpt lat="43.58451" lon="0.41013">
        <ele>143.37</ele>
        <time>2021-08-19T07:06:03Z</time>
      </trkpt>
      <trkpt lat="43.58448" lon="0.41014">
        <ele>143.37</ele>
        <time>2021-08-19T07:06:04Z</time>
      </trkpt>
      <trkpt lat="43.58436" lon="0.41023">
        <ele>143.37</ele>
        <time>2021-08-19T07:06:08Z</time>
      </trkpt>
      <trkpt lat="43.58432" lon="0.41025">
        <ele>143.37</ele>
        <time>2021-08-19T07:06:09Z</time>
      </trkpt>
      <trkpt lat="43.58427" lon="0.41026">
        <ele>143.37</ele>
        <time>2021-08-19T07:06:10Z</time>
      </trkpt>
      <trkpt lat="43.58422" lon="0.41027">
        <ele>143.37</ele>
        <time>2021-08-19T07:06:11Z</time>
      </trkpt>
      <trkpt lat="43.58416" lon="0.41026">
        <ele>143.37</ele>
        <time>2021-08-19T07:06:12Z</time>
      </trkpt>
      <trkpt lat="43.58366" lon="0.41025">
        <ele>141.93</ele>
        <time>2021-08-19T07:06:22Z</time>
      </trkpt>
      <trkpt lat="43.58331" lon="0.41025">
        <ele>144.34</ele>
        <time>2021-08-19T07:06:31Z</time>
      </trkpt>
      <trkpt lat="43.58306" lon="0.41025">
        <ele>145.78</ele>
        <time>2021-08-19T07:06:40Z</time>
      </trkpt>
      <trkpt lat="43.58278" lon="0.41025">
        <ele>147.22</ele>
        <time>2021-08-19T07:06:50Z</time>
      </trkpt>
      <trkpt lat="43.58241" lon="0.41023">
        <ele>148.66</ele>
        <time>2021-08-19T07:07:03Z</time>
      </trkpt>
      <trkpt lat="43.58212" lon="0.41015">
        <ele>149.14</ele>
        <time>2021-08-19T07:07:10Z</time>
      </trkpt>
      <trkpt lat="43.58203" lon="0.41012">
        <ele>147.7</ele>
        <time>2021-08-19T07:07:12Z</time>
      </trkpt>
      <trkpt lat="43.58161" lon="0.40994">
        <ele>144.82</ele>
        <time>2021-08-19T07:07:19Z</time>
      </trkpt>
      <trkpt lat="43.58088" lon="0.40957">
        <ele>142.41</ele>
        <time>2021-08-19T07:07:30Z</time>
      </trkpt>
      <trkpt lat="43.58082" lon="0.40952">
        <ele>142.41</ele>
        <time>2021-08-19T07:07:31Z</time>
      </trkpt>
      <trkpt lat="43.58044" lon="0.40923">
        <ele>142.41</ele>
        <time>2021-08-19T07:07:38Z</time>
      </trkpt>
      <trkpt lat="43.58012" lon="0.409">
        <ele>142.89</ele>
        <time>2021-08-19T07:07:45Z</time>
      </trkpt>
      <trkpt lat="43.57978" lon="0.40885">
        <ele>142.89</ele>
        <time>2021-08-19T07:07:52Z</time>
      </trkpt>
      <trkpt lat="43.57973" lon="0.40881">
        <ele>142.89</ele>
        <time>2021-08-19T07:07:53Z</time>
      </trkpt>
      <trkpt lat="43.5797" lon="0.40877">
        <ele>142.89</ele>
        <time>2021-08-19T07:07:54Z</time>
      </trkpt>
      <trkpt lat="43.57967" lon="0.40873">
        <ele>143.85</ele>
        <time>2021-08-19T07:07:55Z</time>
      </trkpt>
      <trkpt lat="43.57965" lon="0.40867">
        <ele>143.85</ele>
        <time>2021-08-19T07:07:56Z</time>
      </trkpt>
      <trkpt lat="43.57964" lon="0.40862">
        <ele>143.85</ele>
        <time>2021-08-19T07:07:57Z</time>
      </trkpt>
      <trkpt lat="43.57963" lon="0.40857">
        <ele>143.85</ele>
        <time>2021-08-19T07:07:58Z</time>
      </trkpt>
      <trkpt lat="43.57962" lon="0.40851">
        <ele>143.85</ele>
        <time>2021-08-19T07:07:59Z</time>
      </trkpt>
      <trkpt lat="43.57962" lon="0.40846">
        <ele>143.85</ele>
        <time>2021-08-19T07:08:00Z</time>
      </trkpt>
      <trkpt lat="43.57961" lon="0.4084">
        <ele>144.34</ele>
        <time>2021-08-19T07:08:01Z</time>
      </trkpt>
      <trkpt lat="43.5796" lon="0.40836">
        <ele>144.34</ele>
        <time>2021-08-19T07:08:02Z</time>
      </trkpt>
      <trkpt lat="43.57957" lon="0.40818">
        <ele>145.78</ele>
        <time>2021-08-19T07:08:08Z</time>
      </trkpt>
      <trkpt lat="43.57956" lon="0.40811">
        <ele>146.74</ele>
        <time>2021-08-19T07:08:13Z</time>
      </trkpt>
      <trkpt lat="43.57953" lon="0.40786">
        <ele>149.14</ele>
        <time>2021-08-19T07:08:26Z</time>
      </trkpt>
      <trkpt lat="43.57953" lon="0.40768">
        <ele>151.06</ele>
        <time>2021-08-19T07:08:36Z</time>
      </trkpt>
      <trkpt lat="43.57951" lon="0.4075">
        <ele>152.51</ele>
        <time>2021-08-19T07:08:45Z</time>
      </trkpt>
      <trkpt lat="43.5795" lon="0.40744">
        <ele>152.99</ele>
        <time>2021-08-19T07:08:48Z</time>
      </trkpt>
      <trkpt lat="43.57946" lon="0.40729">
        <ele>153.95</ele>
        <time>2021-08-19T07:08:54Z</time>
      </trkpt>
      <trkpt lat="43.57944" lon="0.40713">
        <ele>155.39</ele>
        <time>2021-08-19T07:09:00Z</time>
      </trkpt>
      <trkpt lat="43.57945" lon="0.40702">
        <ele>156.35</ele>
        <time>2021-08-19T07:09:07Z</time>
      </trkpt>
      <trkpt lat="43.57946" lon="0.40689">
        <ele>157.79</ele>
        <time>2021-08-19T07:09:18Z</time>
      </trkpt>
      <trkpt lat="43.57945" lon="0.40677">
        <ele>159.72</ele>
        <time>2021-08-19T07:09:28Z</time>
      </trkpt>
      <trkpt lat="43.57945" lon="0.40666">
        <ele>161.16</ele>
        <time>2021-08-19T07:09:37Z</time>
      </trkpt>
      <trkpt lat="43.57945" lon="0.40656">
        <ele>162.6</ele>
        <time>2021-08-19T07:09:46Z</time>
      </trkpt>
      <trkpt lat="43.57946" lon="0.40643">
        <ele>164.52</ele>
        <time>2021-08-19T07:09:57Z</time>
      </trkpt>
      <trkpt lat="43.57945" lon="0.40629">
        <ele>165.96</ele>
        <time>2021-08-19T07:10:07Z</time>
      </trkpt>
      <trkpt lat="43.57945" lon="0.40621">
        <ele>166.93</ele>
        <time>2021-08-19T07:10:15Z</time>
      </trkpt>
      <trkpt lat="43.57945" lon="0.40613">
        <ele>167.41</ele>
        <time>2021-08-19T07:10:22Z</time>
      </trkpt>
      <trkpt lat="43.57944" lon="0.40602">
        <ele>168.37</ele>
        <time>2021-08-19T07:10:28Z</time>
      </trkpt>
      <trkpt lat="43.5794" lon="0.40587">
        <ele>171.25</ele>
        <time>2021-08-19T07:10:37Z</time>
      </trkpt>
      <trkpt lat="43.57935" lon="0.40566">
        <ele>173.17</ele>
        <time>2021-08-19T07:10:48Z</time>
      </trkpt>
      <trkpt lat="43.57924" lon="0.40556">
        <ele>175.1</ele>
        <time>2021-08-19T07:10:57Z</time>
      </trkpt>
      <trkpt lat="43.57906" lon="0.40552">
        <ele>175.1</ele>
        <time>2021-08-19T07:11:06Z</time>
      </trkpt>
      <trkpt lat="43.57895" lon="0.40547">
        <ele>175.1</ele>
        <time>2021-08-19T07:11:09Z</time>
      </trkpt>
      <trkpt lat="43.57887" lon="0.40541">
        <ele>175.1</ele>
        <time>2021-08-19T07:11:11Z</time>
      </trkpt>
      <trkpt lat="43.57858" lon="0.40518">
        <ele>175.58</ele>
        <time>2021-08-19T07:11:20Z</time>
      </trkpt>
      <trkpt lat="43.57849" lon="0.40511">
        <ele>177.02</ele>
        <time>2021-08-19T07:11:26Z</time>
      </trkpt>
      <trkpt lat="43.57833" lon="0.40498">
        <ele>178.46</ele>
        <time>2021-08-19T07:11:36Z</time>
      </trkpt>
      <trkpt lat="43.57823" lon="0.40481">
        <ele>179.9</ele>
        <time>2021-08-19T07:11:44Z</time>
      </trkpt>
      <trkpt lat="43.57817" lon="0.40451">
        <ele>181.35</ele>
        <time>2021-08-19T07:11:54Z</time>
      </trkpt>
      <trkpt lat="43.5781" lon="0.40411">
        <ele>182.79</ele>
        <time>2021-08-19T07:12:05Z</time>
      </trkpt>
      <trkpt lat="43.57802" lon="0.40382">
        <ele>183.75</ele>
        <time>2021-08-19T07:12:13Z</time>
      </trkpt>
      <trkpt lat="43.57792" lon="0.40353">
        <ele>185.67</ele>
        <time>2021-08-19T07:12:23Z</time>
      </trkpt>
      <trkpt lat="43.57785" lon="0.40331">
        <ele>186.63</ele>
        <time>2021-08-19T07:12:30Z</time>
      </trkpt>
      <trkpt lat="43.57771" lon="0.40296">
        <ele>187.59</ele>
        <time>2021-08-19T07:12:40Z</time>
      </trkpt>
      <trkpt lat="43.57758" lon="0.40261">
        <ele>188.08</ele>
        <time>2021-08-19T07:12:49Z</time>
      </trkpt>
      <trkpt lat="43.57748" lon="0.40225">
        <ele>189.04</ele>
        <time>2021-08-19T07:12:58Z</time>
      </trkpt>
      <trkpt lat="43.57748" lon="0.40194">
        <ele>190</ele>
        <time>2021-08-19T07:13:05Z</time>
      </trkpt>
      <trkpt lat="43.57751" lon="0.40157">
        <ele>190.96</ele>
        <time>2021-08-19T07:13:13Z</time>
      </trkpt>
      <trkpt lat="43.57756" lon="0.40112">
        <ele>191.92</ele>
        <time>2021-08-19T07:13:23Z</time>
      </trkpt>
      <trkpt lat="43.57762" lon="0.40072">
        <ele>192.88</ele>
        <time>2021-08-19T07:13:33Z</time>
      </trkpt>
      <trkpt lat="43.57768" lon="0.40047">
        <ele>193.36</ele>
        <time>2021-08-19T07:13:39Z</time>
      </trkpt>
      <trkpt lat="43.57774" lon="0.40028">
        <ele>194.32</ele>
        <time>2021-08-19T07:13:45Z</time>
      </trkpt>
      <trkpt lat="43.57777" lon="0.40004">
        <ele>194.8</ele>
        <time>2021-08-19T07:13:52Z</time>
      </trkpt>
      <trkpt lat="43.57778" lon="0.39965">
        <ele>195.77</ele>
        <time>2021-08-19T07:14:01Z</time>
      </trkpt>
      <trkpt lat="43.5778" lon="0.39933">
        <ele>196.73</ele>
        <time>2021-08-19T07:14:11Z</time>
      </trkpt>
      <trkpt lat="43.57781" lon="0.39903">
        <ele>197.69</ele>
        <time>2021-08-19T07:14:20Z</time>
      </trkpt>
      <trkpt lat="43.5778" lon="0.39878">
        <ele>198.17</ele>
        <time>2021-08-19T07:14:27Z</time>
      </trkpt>
      <trkpt lat="43.57773" lon="0.39848">
        <ele>198.17</ele>
        <time>2021-08-19T07:14:34Z</time>
      </trkpt>
      <trkpt lat="43.57769" lon="0.39824">
        <ele>198.17</ele>
        <time>2021-08-19T07:14:41Z</time>
      </trkpt>
      <trkpt lat="43.57774" lon="0.39803">
        <ele>199.61</ele>
        <time>2021-08-19T07:14:48Z</time>
      </trkpt>
      <trkpt lat="43.57783" lon="0.39778">
        <ele>202.49</ele>
        <time>2021-08-19T07:14:57Z</time>
      </trkpt>
      <trkpt lat="43.57791" lon="0.39751">
        <ele>202.98</ele>
        <time>2021-08-19T07:15:05Z</time>
      </trkpt>
      <trkpt lat="43.578" lon="0.39716">
        <ele>203.94</ele>
        <time>2021-08-19T07:15:15Z</time>
      </trkpt>
      <trkpt lat="43.57808" lon="0.39687">
        <ele>204.42</ele>
        <time>2021-08-19T07:15:22Z</time>
      </trkpt>
      <trkpt lat="43.57818" lon="0.39651">
        <ele>204.9</ele>
        <time>2021-08-19T07:15:31Z</time>
      </trkpt>
      <trkpt lat="43.57826" lon="0.39623">
        <ele>205.38</ele>
        <time>2021-08-19T07:15:38Z</time>
      </trkpt>
      <trkpt lat="43.57831" lon="0.39597">
        <ele>205.86</ele>
        <time>2021-08-19T07:15:45Z</time>
      </trkpt>
      <trkpt lat="43.57837" lon="0.3957">
        <ele>206.34</ele>
        <time>2021-08-19T07:15:52Z</time>
      </trkpt>
      <trkpt lat="43.57847" lon="0.39539">
        <ele>206.82</ele>
        <time>2021-08-19T07:16:00Z</time>
      </trkpt>
      <trkpt lat="43.57854" lon="0.39511">
        <ele>207.78</ele>
        <time>2021-08-19T07:16:07Z</time>
      </trkpt>
      <trkpt lat="43.57862" lon="0.39471">
        <ele>209.22</ele>
        <time>2021-08-19T07:16:16Z</time>
      </trkpt>
      <trkpt lat="43.57874" lon="0.39431">
        <ele>209.7</ele>
        <time>2021-08-19T07:16:25Z</time>
      </trkpt>
      <trkpt lat="43.57887" lon="0.39391">
        <ele>210.67</ele>
        <time>2021-08-19T07:16:34Z</time>
      </trkpt>
      <trkpt lat="43.57898" lon="0.39354">
        <ele>212.11</ele>
        <time>2021-08-19T07:16:43Z</time>
      </trkpt>
      <trkpt lat="43.57909" lon="0.39327">
        <ele>213.55</ele>
        <time>2021-08-19T07:16:51Z</time>
      </trkpt>
      <trkpt lat="43.57916" lon="0.39307">
        <ele>214.03</ele>
        <time>2021-08-19T07:16:57Z</time>
      </trkpt>
      <trkpt lat="43.57918" lon="0.39305">
        <ele>214.03</ele>
        <time>2021-08-19T07:16:58Z</time>
      </trkpt>
      <trkpt lat="43.57925" lon="0.39289">
        <ele>214.99</ele>
        <time>2021-08-19T07:17:04Z</time>
      </trkpt>
      <trkpt lat="43.57931" lon="0.39273">
        <ele>216.43</ele>
        <time>2021-08-19T07:17:10Z</time>
      </trkpt>
      <trkpt lat="43.57936" lon="0.3925">
        <ele>217.88</ele>
        <time>2021-08-19T07:17:19Z</time>
      </trkpt>
      <trkpt lat="43.57942" lon="0.39226">
        <ele>219.32</ele>
        <time>2021-08-19T07:17:28Z</time>
      </trkpt>
      <trkpt lat="43.57947" lon="0.39206">
        <ele>219.8</ele>
        <time>2021-08-19T07:17:35Z</time>
      </trkpt>
      <trkpt lat="43.57955" lon="0.3919">
        <ele>220.28</ele>
        <time>2021-08-19T07:17:41Z</time>
      </trkpt>
      <trkpt lat="43.57966" lon="0.39165">
        <ele>221.24</ele>
        <time>2021-08-19T07:17:49Z</time>
      </trkpt>
      <trkpt lat="43.57975" lon="0.39138">
        <ele>222.2</ele>
        <time>2021-08-19T07:17:57Z</time>
      </trkpt>
      <trkpt lat="43.57983" lon="0.39107">
        <ele>222.68</ele>
        <time>2021-08-19T07:18:05Z</time>
      </trkpt>
      <trkpt lat="43.57989" lon="0.39073">
        <ele>223.64</ele>
        <time>2021-08-19T07:18:13Z</time>
      </trkpt>
      <trkpt lat="43.57994" lon="0.39048">
        <ele>224.12</ele>
        <time>2021-08-19T07:18:19Z</time>
      </trkpt>
      <trkpt lat="43.58" lon="0.39027">
        <ele>224.61</ele>
        <time>2021-08-19T07:18:25Z</time>
      </trkpt>
      <trkpt lat="43.58008" lon="0.38997">
        <ele>225.57</ele>
        <time>2021-08-19T07:18:33Z</time>
      </trkpt>
      <trkpt lat="43.58016" lon="0.38975">
        <ele>226.05</ele>
        <time>2021-08-19T07:18:39Z</time>
      </trkpt>
      <trkpt lat="43.5802" lon="0.38956">
        <ele>226.53</ele>
        <time>2021-08-19T07:18:44Z</time>
      </trkpt>
      <trkpt lat="43.58027" lon="0.38933">
        <ele>227.97</ele>
        <time>2021-08-19T07:18:51Z</time>
      </trkpt>
      <trkpt lat="43.58036" lon="0.38902">
        <ele>227.97</ele>
        <time>2021-08-19T07:18:58Z</time>
      </trkpt>
      <trkpt lat="43.58048" lon="0.38873">
        <ele>228.93</ele>
        <time>2021-08-19T07:19:05Z</time>
      </trkpt>
      <trkpt lat="43.58052" lon="0.38849">
        <ele>230.37</ele>
        <time>2021-08-19T07:19:11Z</time>
      </trkpt>
      <trkpt lat="43.58057" lon="0.38823">
        <ele>231.81</ele>
        <time>2021-08-19T07:19:20Z</time>
      </trkpt>
      <trkpt lat="43.58065" lon="0.38795">
        <ele>232.78</ele>
        <time>2021-08-19T07:19:28Z</time>
      </trkpt>
      <trkpt lat="43.58073" lon="0.3877">
        <ele>233.74</ele>
        <time>2021-08-19T07:19:35Z</time>
      </trkpt>
      <trkpt lat="43.58084" lon="0.38739">
        <ele>234.7</ele>
        <time>2021-08-19T07:19:43Z</time>
      </trkpt>
      <trkpt lat="43.58103" lon="0.387">
        <ele>234.7</ele>
        <time>2021-08-19T07:19:52Z</time>
      </trkpt>
      <trkpt lat="43.58116" lon="0.38674">
        <ele>235.18</ele>
        <time>2021-08-19T07:19:58Z</time>
      </trkpt>
      <trkpt lat="43.58133" lon="0.38635">
        <ele>235.18</ele>
        <time>2021-08-19T07:20:06Z</time>
      </trkpt>
      <trkpt lat="43.58154" lon="0.38591">
        <ele>236.14</ele>
        <time>2021-08-19T07:20:16Z</time>
      </trkpt>
      <trkpt lat="43.58163" lon="0.38571">
        <ele>237.1</ele>
        <time>2021-08-19T07:20:22Z</time>
      </trkpt>
      <trkpt lat="43.58176" lon="0.38545">
        <ele>239.02</ele>
        <time>2021-08-19T07:20:31Z</time>
      </trkpt>
      <trkpt lat="43.58186" lon="0.38524">
        <ele>239.99</ele>
        <time>2021-08-19T07:20:37Z</time>
      </trkpt>
      <trkpt lat="43.58201" lon="0.38485">
        <ele>240.47</ele>
        <time>2021-08-19T07:20:46Z</time>
      </trkpt>
      <trkpt lat="43.5822" lon="0.38443">
        <ele>239.99</ele>
        <time>2021-08-19T07:20:56Z</time>
      </trkpt>
      <trkpt lat="43.58221" lon="0.38437">
        <ele>239.99</ele>
        <time>2021-08-19T07:20:57Z</time>
      </trkpt>
      <trkpt lat="43.58221" lon="0.38433">
        <ele>239.99</ele>
        <time>2021-08-19T07:20:58Z</time>
      </trkpt>
      <trkpt lat="43.5822" lon="0.38429">
        <ele>239.99</ele>
        <time>2021-08-19T07:20:59Z</time>
      </trkpt>
      <trkpt lat="43.58214" lon="0.38404">
        <ele>240.47</ele>
        <time>2021-08-19T07:21:05Z</time>
      </trkpt>
      <trkpt lat="43.58205" lon="0.38372">
        <ele>239.02</ele>
        <time>2021-08-19T07:21:11Z</time>
      </trkpt>
      <trkpt lat="43.58194" lon="0.38328">
        <ele>236.14</ele>
        <time>2021-08-19T07:21:17Z</time>
      </trkpt>
      <trkpt lat="43.58192" lon="0.3832">
        <ele>236.14</ele>
        <time>2021-08-19T07:21:18Z</time>
      </trkpt>
      <trkpt lat="43.58187" lon="0.38292">
        <ele>234.7</ele>
        <time>2021-08-19T07:21:21Z</time>
      </trkpt>
      <trkpt lat="43.58175" lon="0.38213">
        <ele>232.3</ele>
        <time>2021-08-19T07:21:29Z</time>
      </trkpt>
      <trkpt lat="43.58172" lon="0.38185">
        <ele>231.81</ele>
        <time>2021-08-19T07:21:32Z</time>
      </trkpt>
      <trkpt lat="43.58172" lon="0.3818">
        <ele>231.81</ele>
        <time>2021-08-19T07:21:33Z</time>
      </trkpt>
      <trkpt lat="43.58174" lon="0.38173">
        <ele>231.81</ele>
        <time>2021-08-19T07:21:36Z</time>
      </trkpt>
      <trkpt lat="43.58174" lon="0.38171">
        <ele>231.81</ele>
        <time>2021-08-19T07:21:37Z</time>
      </trkpt>
      <trkpt lat="43.58175" lon="0.38169">
        <ele>231.81</ele>
        <time>2021-08-19T07:21:38Z</time>
      </trkpt>
      <trkpt lat="43.58186" lon="0.3815">
        <ele>229.89</ele>
        <time>2021-08-19T07:21:43Z</time>
      </trkpt>
      <trkpt lat="43.58195" lon="0.38135">
        <ele>227.97</ele>
        <time>2021-08-19T07:21:46Z</time>
      </trkpt>
      <trkpt lat="43.58197" lon="0.38128">
        <ele>227.49</ele>
        <time>2021-08-19T07:21:47Z</time>
      </trkpt>
      <trkpt lat="43.58199" lon="0.38121">
        <ele>227.49</ele>
        <time>2021-08-19T07:21:48Z</time>
      </trkpt>
      <trkpt lat="43.58201" lon="0.38113">
        <ele>227.01</ele>
        <time>2021-08-19T07:21:49Z</time>
      </trkpt>
      <trkpt lat="43.58203" lon="0.38105">
        <ele>227.01</ele>
        <time>2021-08-19T07:21:50Z</time>
      </trkpt>
      <trkpt lat="43.58203" lon="0.38097">
        <ele>227.01</ele>
        <time>2021-08-19T07:21:51Z</time>
      </trkpt>
      <trkpt lat="43.58203" lon="0.38089">
        <ele>227.01</ele>
        <time>2021-08-19T07:21:52Z</time>
      </trkpt>
      <trkpt lat="43.58203" lon="0.38082">
        <ele>227.01</ele>
        <time>2021-08-19T07:21:53Z</time>
      </trkpt>
      <trkpt lat="43.58203" lon="0.38075">
        <ele>227.01</ele>
        <time>2021-08-19T07:21:54Z</time>
      </trkpt>
      <trkpt lat="43.58204" lon="0.38069">
        <ele>227.01</ele>
        <time>2021-08-19T07:21:55Z</time>
      </trkpt>
      <trkpt lat="43.58206" lon="0.38064">
        <ele>227.01</ele>
        <time>2021-08-19T07:21:56Z</time>
      </trkpt>
      <trkpt lat="43.58209" lon="0.38061">
        <ele>226.53</ele>
        <time>2021-08-19T07:21:57Z</time>
      </trkpt>
      <trkpt lat="43.58213" lon="0.38058">
        <ele>225.09</ele>
        <time>2021-08-19T07:21:58Z</time>
      </trkpt>
      <trkpt lat="43.58217" lon="0.38055">
        <ele>224.61</ele>
        <time>2021-08-19T07:21:59Z</time>
      </trkpt>
      <trkpt lat="43.58221" lon="0.38049">
        <ele>223.64</ele>
        <time>2021-08-19T07:22:00Z</time>
      </trkpt>
      <trkpt lat="43.58225" lon="0.38042">
        <ele>222.68</ele>
        <time>2021-08-19T07:22:01Z</time>
      </trkpt>
      <trkpt lat="43.58238" lon="0.38002">
        <ele>218.84</ele>
        <time>2021-08-19T07:22:05Z</time>
      </trkpt>
      <trkpt lat="43.58257" lon="0.37951">
        <ele>214.99</ele>
        <time>2021-08-19T07:22:10Z</time>
      </trkpt>
      <trkpt lat="43.5827" lon="0.37918">
        <ele>213.55</ele>
        <time>2021-08-19T07:22:13Z</time>
      </trkpt>
      <trkpt lat="43.58278" lon="0.37897">
        <ele>212.11</ele>
        <time>2021-08-19T07:22:15Z</time>
      </trkpt>
      <trkpt lat="43.58303" lon="0.37835">
        <ele>209.22</ele>
        <time>2021-08-19T07:22:21Z</time>
      </trkpt>
      <trkpt lat="43.58318" lon="0.37795">
        <ele>207.3</ele>
        <time>2021-08-19T07:22:26Z</time>
      </trkpt>
      <trkpt lat="43.5832" lon="0.37789">
        <ele>207.3</ele>
        <time>2021-08-19T07:22:27Z</time>
      </trkpt>
      <trkpt lat="43.58332" lon="0.37763">
        <ele>202.49</ele>
        <time>2021-08-19T07:22:31Z</time>
      </trkpt>
      <trkpt lat="43.58344" lon="0.37733">
        <ele>199.13</ele>
        <time>2021-08-19T07:22:35Z</time>
      </trkpt>
      <trkpt lat="43.58347" lon="0.37725">
        <ele>198.17</ele>
        <time>2021-08-19T07:22:36Z</time>
      </trkpt>
      <trkpt lat="43.5835" lon="0.37709">
        <ele>195.77</ele>
        <time>2021-08-19T07:22:38Z</time>
      </trkpt>
      <trkpt lat="43.5835" lon="0.377">
        <ele>195.28</ele>
        <time>2021-08-19T07:22:39Z</time>
      </trkpt>
      <trkpt lat="43.58349" lon="0.37689">
        <ele>194.32</ele>
        <time>2021-08-19T07:22:40Z</time>
      </trkpt>
      <trkpt lat="43.58347" lon="0.3768">
        <ele>193.84</ele>
        <time>2021-08-19T07:22:41Z</time>
      </trkpt>
      <trkpt lat="43.58344" lon="0.37668">
        <ele>193.36</ele>
        <time>2021-08-19T07:22:42Z</time>
      </trkpt>
      <trkpt lat="43.58336" lon="0.37624">
        <ele>190</ele>
        <time>2021-08-19T07:22:46Z</time>
      </trkpt>
      <trkpt lat="43.58334" lon="0.37612">
        <ele>190</ele>
        <time>2021-08-19T07:22:47Z</time>
      </trkpt>
      <trkpt lat="43.58328" lon="0.37567">
        <ele>188.56</ele>
        <time>2021-08-19T07:22:51Z</time>
      </trkpt>
      <trkpt lat="43.58328" lon="0.37559">
        <ele>189.04</ele>
        <time>2021-08-19T07:22:52Z</time>
      </trkpt>
      <trkpt lat="43.58329" lon="0.37541">
        <ele>188.08</ele>
        <time>2021-08-19T07:22:54Z</time>
      </trkpt>
      <trkpt lat="43.5833" lon="0.37473">
        <ele>185.67</ele>
        <time>2021-08-19T07:23:01Z</time>
      </trkpt>
      <trkpt lat="43.58331" lon="0.37464">
        <ele>185.67</ele>
        <time>2021-08-19T07:23:02Z</time>
      </trkpt>
      <trkpt lat="43.58331" lon="0.37455">
        <ele>185.67</ele>
        <time>2021-08-19T07:23:03Z</time>
      </trkpt>
      <trkpt lat="43.58334" lon="0.37436">
        <ele>185.67</ele>
        <time>2021-08-19T07:23:05Z</time>
      </trkpt>
      <trkpt lat="43.58336" lon="0.37429">
        <ele>185.67</ele>
        <time>2021-08-19T07:23:06Z</time>
      </trkpt>
      <trkpt lat="43.58338" lon="0.37413">
        <ele>185.67</ele>
        <time>2021-08-19T07:23:08Z</time>
      </trkpt>
      <trkpt lat="43.58345" lon="0.37387">
        <ele>185.19</ele>
        <time>2021-08-19T07:23:11Z</time>
      </trkpt>
      <trkpt lat="43.58352" lon="0.37316">
        <ele>183.75</ele>
        <time>2021-08-19T07:23:19Z</time>
      </trkpt>
      <trkpt lat="43.5835" lon="0.37253">
        <ele>181.35</ele>
        <time>2021-08-19T07:23:26Z</time>
      </trkpt>
      <trkpt lat="43.58351" lon="0.3718">
        <ele>178.94</ele>
        <time>2021-08-19T07:23:33Z</time>
      </trkpt>
      <trkpt lat="43.5835" lon="0.37109">
        <ele>178.94</ele>
        <time>2021-08-19T07:23:41Z</time>
      </trkpt>
      <trkpt lat="43.5835" lon="0.37087">
        <ele>178.46</ele>
        <time>2021-08-19T07:23:44Z</time>
      </trkpt>
      <trkpt lat="43.58351" lon="0.37072">
        <ele>177.98</ele>
        <time>2021-08-19T07:23:46Z</time>
      </trkpt>
      <trkpt lat="43.58349" lon="0.37033">
        <ele>177.5</ele>
        <time>2021-08-19T07:23:51Z</time>
      </trkpt>
      <trkpt lat="43.58346" lon="0.36979">
        <ele>177.02</ele>
        <time>2021-08-19T07:23:59Z</time>
      </trkpt>
      <trkpt lat="43.58344" lon="0.36935">
        <ele>175.58</ele>
        <time>2021-08-19T07:24:06Z</time>
      </trkpt>
      <trkpt lat="43.58342" lon="0.36891">
        <ele>171.25</ele>
        <time>2021-08-19T07:24:10Z</time>
      </trkpt>
      <trkpt lat="43.58342" lon="0.36882">
        <ele>171.25</ele>
        <time>2021-08-19T07:24:11Z</time>
      </trkpt>
      <trkpt lat="43.58342" lon="0.36871">
        <ele>171.25</ele>
        <time>2021-08-19T07:24:12Z</time>
      </trkpt>
      <trkpt lat="43.58344" lon="0.3681">
        <ele>169.81</ele>
        <time>2021-08-19T07:24:18Z</time>
      </trkpt>
      <trkpt lat="43.58345" lon="0.3679">
        <ele>168.37</ele>
        <time>2021-08-19T07:24:20Z</time>
      </trkpt>
      <trkpt lat="43.58344" lon="0.36782">
        <ele>167.89</ele>
        <time>2021-08-19T07:24:21Z</time>
      </trkpt>
      <trkpt lat="43.58342" lon="0.36775">
        <ele>167.89</ele>
        <time>2021-08-19T07:24:22Z</time>
      </trkpt>
      <trkpt lat="43.58339" lon="0.36769">
        <ele>167.89</ele>
        <time>2021-08-19T07:24:23Z</time>
      </trkpt>
      <trkpt lat="43.58336" lon="0.36764">
        <ele>167.89</ele>
        <time>2021-08-19T07:24:24Z</time>
      </trkpt>
      <trkpt lat="43.58332" lon="0.3676">
        <ele>167.41</ele>
        <time>2021-08-19T07:24:25Z</time>
      </trkpt>
      <trkpt lat="43.58328" lon="0.36757">
        <ele>166.45</ele>
        <time>2021-08-19T07:24:26Z</time>
      </trkpt>
      <trkpt lat="43.58323" lon="0.36756">
        <ele>166.45</ele>
        <time>2021-08-19T07:24:27Z</time>
      </trkpt>
      <trkpt lat="43.58316" lon="0.36754">
        <ele>165.48</ele>
        <time>2021-08-19T07:24:28Z</time>
      </trkpt>
      <trkpt lat="43.58307" lon="0.3675">
        <ele>165.48</ele>
        <time>2021-08-19T07:24:30Z</time>
      </trkpt>
      <trkpt lat="43.58302" lon="0.36746">
        <ele>165.48</ele>
        <time>2021-08-19T07:24:31Z</time>
      </trkpt>
      <trkpt lat="43.58291" lon="0.36729">
        <ele>165</ele>
        <time>2021-08-19T07:24:34Z</time>
      </trkpt>
      <trkpt lat="43.58276" lon="0.36702">
        <ele>165</ele>
        <time>2021-08-19T07:24:39Z</time>
      </trkpt>
      <trkpt lat="43.58274" lon="0.36696">
        <ele>165</ele>
        <time>2021-08-19T07:24:40Z</time>
      </trkpt>
      <trkpt lat="43.58272" lon="0.3669">
        <ele>165</ele>
        <time>2021-08-19T07:24:41Z</time>
      </trkpt>
      <trkpt lat="43.58271" lon="0.36685">
        <ele>165</ele>
        <time>2021-08-19T07:24:42Z</time>
      </trkpt>
      <trkpt lat="43.5827" lon="0.36679">
        <ele>165</ele>
        <time>2021-08-19T07:24:43Z</time>
      </trkpt>
      <trkpt lat="43.58265" lon="0.36652">
        <ele>164.52</ele>
        <time>2021-08-19T07:24:49Z</time>
      </trkpt>
      <trkpt lat="43.58262" lon="0.36631">
        <ele>164.52</ele>
        <time>2021-08-19T07:24:55Z</time>
      </trkpt>
      <trkpt lat="43.58259" lon="0.36603">
        <ele>165.96</ele>
        <time>2021-08-19T07:25:04Z</time>
      </trkpt>
      <trkpt lat="43.58263" lon="0.36585">
        <ele>166.93</ele>
        <time>2021-08-19T07:25:10Z</time>
      </trkpt>
      <trkpt lat="43.58258" lon="0.36565">
        <ele>167.89</ele>
        <time>2021-08-19T07:25:17Z</time>
      </trkpt>
      <trkpt lat="43.5825" lon="0.36531">
        <ele>169.33</ele>
        <time>2021-08-19T07:25:28Z</time>
      </trkpt>
      <trkpt lat="43.58246" lon="0.36504">
        <ele>170.77</ele>
        <time>2021-08-19T07:25:38Z</time>
      </trkpt>
      <trkpt lat="43.58242" lon="0.36479">
        <ele>172.21</ele>
        <time>2021-08-19T07:25:47Z</time>
      </trkpt>
      <trkpt lat="43.58238" lon="0.36455">
        <ele>173.66</ele>
        <time>2021-08-19T07:25:56Z</time>
      </trkpt>
      <trkpt lat="43.58233" lon="0.3642">
        <ele>175.1</ele>
        <time>2021-08-19T07:26:09Z</time>
      </trkpt>
      <trkpt lat="43.58231" lon="0.36389">
        <ele>176.54</ele>
        <time>2021-08-19T07:26:20Z</time>
      </trkpt>
      <trkpt lat="43.58229" lon="0.36356">
        <ele>177.02</ele>
        <time>2021-08-19T07:26:30Z</time>
      </trkpt>
      <trkpt lat="43.58228" lon="0.36323">
        <ele>177.5</ele>
        <time>2021-08-19T07:26:39Z</time>
      </trkpt>
      <trkpt lat="43.58227" lon="0.36284">
        <ele>178.46</ele>
        <time>2021-08-19T07:26:50Z</time>
      </trkpt>
      <trkpt lat="43.58226" lon="0.36254">
        <ele>178.94</ele>
        <time>2021-08-19T07:26:59Z</time>
      </trkpt>
      <trkpt lat="43.58224" lon="0.36226">
        <ele>179.42</ele>
        <time>2021-08-19T07:27:07Z</time>
      </trkpt>
      <trkpt lat="43.58224" lon="0.36197">
        <ele>180.87</ele>
        <time>2021-08-19T07:27:16Z</time>
      </trkpt>
      <trkpt lat="43.58224" lon="0.36163">
        <ele>181.83</ele>
        <time>2021-08-19T07:27:26Z</time>
      </trkpt>
      <trkpt lat="43.58224" lon="0.36131">
        <ele>182.79</ele>
        <time>2021-08-19T07:27:36Z</time>
      </trkpt>
      <trkpt lat="43.58224" lon="0.36102">
        <ele>184.23</ele>
        <time>2021-08-19T07:27:46Z</time>
      </trkpt>
      <trkpt lat="43.58224" lon="0.36076">
        <ele>186.15</ele>
        <time>2021-08-19T07:27:56Z</time>
      </trkpt>
      <trkpt lat="43.58224" lon="0.36051">
        <ele>187.11</ele>
        <time>2021-08-19T07:28:05Z</time>
      </trkpt>
      <trkpt lat="43.58221" lon="0.36025">
        <ele>188.08</ele>
        <time>2021-08-19T07:28:14Z</time>
      </trkpt>
      <trkpt lat="43.58218" lon="0.36018">
        <ele>188.56</ele>
        <time>2021-08-19T07:28:17Z</time>
      </trkpt>
      <trkpt lat="43.58217" lon="0.36016">
        <ele>188.56</ele>
        <time>2021-08-19T07:28:18Z</time>
      </trkpt>
      <trkpt lat="43.58217" lon="0.36013">
        <ele>189.04</ele>
        <time>2021-08-19T07:28:19Z</time>
      </trkpt>
      <trkpt lat="43.58217" lon="0.3601">
        <ele>189.04</ele>
        <time>2021-08-19T07:28:20Z</time>
      </trkpt>
      <trkpt lat="43.58217" lon="0.36007">
        <ele>189.04</ele>
        <time>2021-08-19T07:28:21Z</time>
      </trkpt>
      <trkpt lat="43.58217" lon="0.36004">
        <ele>189.04</ele>
        <time>2021-08-19T07:28:22Z</time>
      </trkpt>
      <trkpt lat="43.58216" lon="0.36002">
        <ele>189.04</ele>
        <time>2021-08-19T07:28:23Z</time>
      </trkpt>
      <trkpt lat="43.58216" lon="0.35999">
        <ele>189.04</ele>
        <time>2021-08-19T07:28:24Z</time>
      </trkpt>
      <trkpt lat="43.58204" lon="0.35974">
        <ele>190.48</ele>
        <time>2021-08-19T07:28:34Z</time>
      </trkpt>
      <trkpt lat="43.58194" lon="0.35957">
        <ele>190.48</ele>
        <time>2021-08-19T07:28:40Z</time>
      </trkpt>
      <trkpt lat="43.58185" lon="0.35944">
        <ele>191.44</ele>
        <time>2021-08-19T07:28:44Z</time>
      </trkpt>
      <trkpt lat="43.58184" lon="0.35939">
        <ele>191.44</ele>
        <time>2021-08-19T07:28:46Z</time>
      </trkpt>
      <trkpt lat="43.58183" lon="0.35937">
        <ele>191.44</ele>
        <time>2021-08-19T07:28:47Z</time>
      </trkpt>
      <trkpt lat="43.58182" lon="0.35934">
        <ele>191.44</ele>
        <time>2021-08-19T07:28:48Z</time>
      </trkpt>
      <trkpt lat="43.5818" lon="0.35931">
        <ele>191.92</ele>
        <time>2021-08-19T07:28:49Z</time>
      </trkpt>
      <trkpt lat="43.5818" lon="0.35929">
        <ele>191.92</ele>
        <time>2021-08-19T07:28:50Z</time>
      </trkpt>
      <trkpt lat="43.58179" lon="0.35926">
        <ele>192.4</ele>
        <time>2021-08-19T07:28:51Z</time>
      </trkpt>
      <trkpt lat="43.58178" lon="0.35923">
        <ele>192.4</ele>
        <time>2021-08-19T07:28:52Z</time>
      </trkpt>
      <trkpt lat="43.58176" lon="0.35921">
        <ele>192.4</ele>
        <time>2021-08-19T07:28:53Z</time>
      </trkpt>
      <trkpt lat="43.58175" lon="0.35918">
        <ele>192.4</ele>
        <time>2021-08-19T07:28:54Z</time>
      </trkpt>
      <trkpt lat="43.58161" lon="0.35892">
        <ele>193.84</ele>
        <time>2021-08-19T07:29:04Z</time>
      </trkpt>
      <trkpt lat="43.58156" lon="0.35876">
        <ele>193.84</ele>
        <time>2021-08-19T07:29:10Z</time>
      </trkpt>
      <trkpt lat="43.58145" lon="0.35865">
        <ele>194.32</ele>
        <time>2021-08-19T07:29:16Z</time>
      </trkpt>
      <trkpt lat="43.58136" lon="0.35855">
        <ele>194.32</ele>
        <time>2021-08-19T07:29:22Z</time>
      </trkpt>
      <trkpt lat="43.58123" lon="0.35839">
        <ele>195.28</ele>
        <time>2021-08-19T07:29:31Z</time>
      </trkpt>
      <trkpt lat="43.58111" lon="0.35822">
        <ele>197.21</ele>
        <time>2021-08-19T07:29:40Z</time>
      </trkpt>
      <trkpt lat="43.58098" lon="0.35808">
        <ele>198.17</ele>
        <time>2021-08-19T07:29:49Z</time>
      </trkpt>
      <trkpt lat="43.58085" lon="0.35789">
        <ele>199.13</ele>
        <time>2021-08-19T07:29:58Z</time>
      </trkpt>
      <trkpt lat="43.58075" lon="0.35764">
        <ele>199.61</ele>
        <time>2021-08-19T07:30:06Z</time>
      </trkpt>
      <trkpt lat="43.58066" lon="0.35736">
        <ele>200.09</ele>
        <time>2021-08-19T07:30:15Z</time>
      </trkpt>
      <trkpt lat="43.58061" lon="0.35703">
        <ele>201.53</ele>
        <time>2021-08-19T07:30:25Z</time>
      </trkpt>
      <trkpt lat="43.5806" lon="0.35679">
        <ele>202.49</ele>
        <time>2021-08-19T07:30:34Z</time>
      </trkpt>
      <trkpt lat="43.5806" lon="0.35664">
        <ele>203.94</ele>
        <time>2021-08-19T07:30:42Z</time>
      </trkpt>
      <trkpt lat="43.58056" lon="0.35646">
        <ele>205.38</ele>
        <time>2021-08-19T07:30:50Z</time>
      </trkpt>
      <trkpt lat="43.58053" lon="0.35629">
        <ele>206.34</ele>
        <time>2021-08-19T07:30:58Z</time>
      </trkpt>
      <trkpt lat="43.58049" lon="0.35604">
        <ele>207.78</ele>
        <time>2021-08-19T07:31:08Z</time>
      </trkpt>
      <trkpt lat="43.58047" lon="0.35588">
        <ele>208.26</ele>
        <time>2021-08-19T07:31:15Z</time>
      </trkpt>
      <trkpt lat="43.58046" lon="0.35572">
        <ele>209.7</ele>
        <time>2021-08-19T07:31:22Z</time>
      </trkpt>
      <trkpt lat="43.58046" lon="0.3555">
        <ele>211.15</ele>
        <time>2021-08-19T07:31:31Z</time>
      </trkpt>
      <trkpt lat="43.58044" lon="0.35537">
        <ele>212.59</ele>
        <time>2021-08-19T07:31:38Z</time>
      </trkpt>
      <trkpt lat="43.5804" lon="0.35525">
        <ele>213.55</ele>
        <time>2021-08-19T07:31:44Z</time>
      </trkpt>
      <trkpt lat="43.58034" lon="0.3551">
        <ele>214.99</ele>
        <time>2021-08-19T07:31:52Z</time>
      </trkpt>
      <trkpt lat="43.58025" lon="0.35497">
        <ele>215.95</ele>
        <time>2021-08-19T07:32:00Z</time>
      </trkpt>
      <trkpt lat="43.58021" lon="0.35488">
        <ele>217.4</ele>
        <time>2021-08-19T07:32:06Z</time>
      </trkpt>
      <trkpt lat="43.58018" lon="0.35487">
        <ele>217.88</ele>
        <time>2021-08-19T07:32:13Z</time>
      </trkpt>
      <trkpt lat="43.58015" lon="0.35485">
        <ele>218.36</ele>
        <time>2021-08-19T07:32:29Z</time>
      </trkpt>
      <trkpt lat="43.58013" lon="0.35475">
        <ele>219.32</ele>
        <time>2021-08-19T07:32:37Z</time>
      </trkpt>
      <trkpt lat="43.58013" lon="0.35474">
        <ele>219.32</ele>
        <time>2021-08-19T07:32:38Z</time>
      </trkpt>
      <trkpt lat="43.58012" lon="0.35472">
        <ele>219.8</ele>
        <time>2021-08-19T07:32:39Z</time>
      </trkpt>
      <trkpt lat="43.58009" lon="0.35458">
        <ele>220.76</ele>
        <time>2021-08-19T07:32:48Z</time>
      </trkpt>
      <trkpt lat="43.58006" lon="0.35448">
        <ele>222.2</ele>
        <time>2021-08-19T07:32:56Z</time>
      </trkpt>
      <trkpt lat="43.58005" lon="0.35438">
        <ele>223.16</ele>
        <time>2021-08-19T07:33:03Z</time>
      </trkpt>
      <trkpt lat="43.58004" lon="0.35436">
        <ele>223.16</ele>
        <time>2021-08-19T07:33:04Z</time>
      </trkpt>
      <trkpt lat="43.58002" lon="0.35422">
        <ele>224.12</ele>
        <time>2021-08-19T07:33:12Z</time>
      </trkpt>
      <trkpt lat="43.58" lon="0.3541">
        <ele>226.05</ele>
        <time>2021-08-19T07:33:20Z</time>
      </trkpt>
      <trkpt lat="43.57998" lon="0.354">
        <ele>227.01</ele>
        <time>2021-08-19T07:33:28Z</time>
      </trkpt>
      <trkpt lat="43.57995" lon="0.35392">
        <ele>227.49</ele>
        <time>2021-08-19T07:33:35Z</time>
      </trkpt>
      <trkpt lat="43.57994" lon="0.35382">
        <ele>228.45</ele>
        <time>2021-08-19T07:33:43Z</time>
      </trkpt>
      <trkpt lat="43.57991" lon="0.35376">
        <ele>229.41</ele>
        <time>2021-08-19T07:33:49Z</time>
      </trkpt>
      <trkpt lat="43.5799" lon="0.35371">
        <ele>229.89</ele>
        <time>2021-08-19T07:33:58Z</time>
      </trkpt>
      <trkpt lat="43.57989" lon="0.35362">
        <ele>231.33</ele>
        <time>2021-08-19T07:34:06Z</time>
      </trkpt>
      <trkpt lat="43.57987" lon="0.35353">
        <ele>232.3</ele>
        <time>2021-08-19T07:34:14Z</time>
      </trkpt>
      <trkpt lat="43.57985" lon="0.35342">
        <ele>233.74</ele>
        <time>2021-08-19T07:34:22Z</time>
      </trkpt>
      <trkpt lat="43.57983" lon="0.3533">
        <ele>234.7</ele>
        <time>2021-08-19T07:34:30Z</time>
      </trkpt>
      <trkpt lat="43.57981" lon="0.35317">
        <ele>236.14</ele>
        <time>2021-08-19T07:34:39Z</time>
      </trkpt>
      <trkpt lat="43.57979" lon="0.35304">
        <ele>237.58</ele>
        <time>2021-08-19T07:34:47Z</time>
      </trkpt>
      <trkpt lat="43.57978" lon="0.35295">
        <ele>238.06</ele>
        <time>2021-08-19T07:34:56Z</time>
      </trkpt>
      <trkpt lat="43.57978" lon="0.35281">
        <ele>238.06</ele>
        <time>2021-08-19T07:35:02Z</time>
      </trkpt>
      <trkpt lat="43.57978" lon="0.35277">
        <ele>238.06</ele>
        <time>2021-08-19T07:35:03Z</time>
      </trkpt>
      <trkpt lat="43.57978" lon="0.35273">
        <ele>238.06</ele>
        <time>2021-08-19T07:35:04Z</time>
      </trkpt>
      <trkpt lat="43.57978" lon="0.35268">
        <ele>237.1</ele>
        <time>2021-08-19T07:35:05Z</time>
      </trkpt>
      <trkpt lat="43.5798" lon="0.35247">
        <ele>235.18</ele>
        <time>2021-08-19T07:35:08Z</time>
      </trkpt>
      <trkpt lat="43.5798" lon="0.35239">
        <ele>234.7</ele>
        <time>2021-08-19T07:35:09Z</time>
      </trkpt>
      <trkpt lat="43.5798" lon="0.35229">
        <ele>233.74</ele>
        <time>2021-08-19T07:35:10Z</time>
      </trkpt>
      <trkpt lat="43.5798" lon="0.3522">
        <ele>233.26</ele>
        <time>2021-08-19T07:35:11Z</time>
      </trkpt>
      <trkpt lat="43.57979" lon="0.35212">
        <ele>232.78</ele>
        <time>2021-08-19T07:35:12Z</time>
      </trkpt>
      <trkpt lat="43.57977" lon="0.35203">
        <ele>232.3</ele>
        <time>2021-08-19T07:35:13Z</time>
      </trkpt>
      <trkpt lat="43.57976" lon="0.35194">
        <ele>231.33</ele>
        <time>2021-08-19T07:35:14Z</time>
      </trkpt>
      <trkpt lat="43.57975" lon="0.35185">
        <ele>231.33</ele>
        <time>2021-08-19T07:35:15Z</time>
      </trkpt>
      <trkpt lat="43.57972" lon="0.35168">
        <ele>230.37</ele>
        <time>2021-08-19T07:35:17Z</time>
      </trkpt>
      <trkpt lat="43.57963" lon="0.35123">
        <ele>227.01</ele>
        <time>2021-08-19T07:35:23Z</time>
      </trkpt>
      <trkpt lat="43.57961" lon="0.35116">
        <ele>227.01</ele>
        <time>2021-08-19T07:35:24Z</time>
      </trkpt>
      <trkpt lat="43.57954" lon="0.35087">
        <ele>224.12</ele>
        <time>2021-08-19T07:35:28Z</time>
      </trkpt>
      <trkpt lat="43.57951" lon="0.35079">
        <ele>223.64</ele>
        <time>2021-08-19T07:35:29Z</time>
      </trkpt>
      <trkpt lat="43.57946" lon="0.35057">
        <ele>222.2</ele>
        <time>2021-08-19T07:35:32Z</time>
      </trkpt>
      <trkpt lat="43.5794" lon="0.35041">
        <ele>220.76</ele>
        <time>2021-08-19T07:35:35Z</time>
      </trkpt>
      <trkpt lat="43.57933" lon="0.35025">
        <ele>218.36</ele>
        <time>2021-08-19T07:35:40Z</time>
      </trkpt>
      <trkpt lat="43.57925" lon="0.35008">
        <ele>215.47</ele>
        <time>2021-08-19T07:35:44Z</time>
      </trkpt>
      <trkpt lat="43.57922" lon="0.35002">
        <ele>214.51</ele>
        <time>2021-08-19T07:35:45Z</time>
      </trkpt>
      <trkpt lat="43.57919" lon="0.34997">
        <ele>213.55</ele>
        <time>2021-08-19T07:35:46Z</time>
      </trkpt>
      <trkpt lat="43.57916" lon="0.34991">
        <ele>213.07</ele>
        <time>2021-08-19T07:35:47Z</time>
      </trkpt>
      <trkpt lat="43.57913" lon="0.34984">
        <ele>212.11</ele>
        <time>2021-08-19T07:35:48Z</time>
      </trkpt>
      <trkpt lat="43.57908" lon="0.3497">
        <ele>211.15</ele>
        <time>2021-08-19T07:35:50Z</time>
      </trkpt>
      <trkpt lat="43.57906" lon="0.34963">
        <ele>211.15</ele>
        <time>2021-08-19T07:35:51Z</time>
      </trkpt>
      <trkpt lat="43.57901" lon="0.34947">
        <ele>209.7</ele>
        <time>2021-08-19T07:35:54Z</time>
      </trkpt>
      <trkpt lat="43.579" lon="0.34942">
        <ele>208.74</ele>
        <time>2021-08-19T07:35:55Z</time>
      </trkpt>
      <trkpt lat="43.57898" lon="0.34937">
        <ele>208.26</ele>
        <time>2021-08-19T07:35:56Z</time>
      </trkpt>
      <trkpt lat="43.57897" lon="0.34933">
        <ele>207.3</ele>
        <time>2021-08-19T07:35:57Z</time>
      </trkpt>
      <trkpt lat="43.57895" lon="0.34928">
        <ele>206.82</ele>
        <time>2021-08-19T07:35:58Z</time>
      </trkpt>
      <trkpt lat="43.57892" lon="0.34922">
        <ele>205.86</ele>
        <time>2021-08-19T07:35:59Z</time>
      </trkpt>
      <trkpt lat="43.57889" lon="0.34916">
        <ele>204.9</ele>
        <time>2021-08-19T07:36:00Z</time>
      </trkpt>
      <trkpt lat="43.57887" lon="0.34909">
        <ele>203.94</ele>
        <time>2021-08-19T07:36:01Z</time>
      </trkpt>
      <trkpt lat="43.57879" lon="0.34882">
        <ele>200.57</ele>
        <time>2021-08-19T07:36:05Z</time>
      </trkpt>
      <trkpt lat="43.57872" lon="0.34853">
        <ele>197.21</ele>
        <time>2021-08-19T07:36:09Z</time>
      </trkpt>
      <trkpt lat="43.57871" lon="0.34846">
        <ele>197.21</ele>
        <time>2021-08-19T07:36:10Z</time>
      </trkpt>
      <trkpt lat="43.57867" lon="0.34833">
        <ele>195.28</ele>
        <time>2021-08-19T07:36:12Z</time>
      </trkpt>
      <trkpt lat="43.57864" lon="0.34819">
        <ele>193.84</ele>
        <time>2021-08-19T07:36:14Z</time>
      </trkpt>
      <trkpt lat="43.57863" lon="0.34812">
        <ele>192.88</ele>
        <time>2021-08-19T07:36:15Z</time>
      </trkpt>
      <trkpt lat="43.57862" lon="0.34805">
        <ele>191.92</ele>
        <time>2021-08-19T07:36:16Z</time>
      </trkpt>
      <trkpt lat="43.57858" lon="0.34785">
        <ele>190.48</ele>
        <time>2021-08-19T07:36:19Z</time>
      </trkpt>
      <trkpt lat="43.57852" lon="0.34758">
        <ele>187.59</ele>
        <time>2021-08-19T07:36:23Z</time>
      </trkpt>
      <trkpt lat="43.57851" lon="0.34751">
        <ele>187.11</ele>
        <time>2021-08-19T07:36:24Z</time>
      </trkpt>
      <trkpt lat="43.57849" lon="0.34744">
        <ele>187.11</ele>
        <time>2021-08-19T07:36:25Z</time>
      </trkpt>
      <trkpt lat="43.57843" lon="0.3472">
        <ele>183.75</ele>
        <time>2021-08-19T07:36:29Z</time>
      </trkpt>
      <trkpt lat="43.57835" lon="0.34702">
        <ele>182.31</ele>
        <time>2021-08-19T07:36:33Z</time>
      </trkpt>
      <trkpt lat="43.57836" lon="0.34697">
        <ele>182.31</ele>
        <time>2021-08-19T07:36:34Z</time>
      </trkpt>
      <trkpt lat="43.57841" lon="0.34679">
        <ele>180.87</ele>
        <time>2021-08-19T07:36:37Z</time>
      </trkpt>
      <trkpt lat="43.57842" lon="0.34672">
        <ele>179.9</ele>
        <time>2021-08-19T07:36:38Z</time>
      </trkpt>
      <trkpt lat="43.57856" lon="0.34594">
        <ele>178.46</ele>
        <time>2021-08-19T07:36:48Z</time>
      </trkpt>
      <trkpt lat="43.57866" lon="0.34541">
        <ele>178.46</ele>
        <time>2021-08-19T07:36:56Z</time>
      </trkpt>
      <trkpt lat="43.57873" lon="0.34505">
        <ele>179.9</ele>
        <time>2021-08-19T07:37:04Z</time>
      </trkpt>
      <trkpt lat="43.57879" lon="0.34476">
        <ele>180.87</ele>
        <time>2021-08-19T07:37:12Z</time>
      </trkpt>
      <trkpt lat="43.57886" lon="0.3445">
        <ele>182.31</ele>
        <time>2021-08-19T07:37:20Z</time>
      </trkpt>
      <trkpt lat="43.57892" lon="0.34424">
        <ele>182.79</ele>
        <time>2021-08-19T07:37:28Z</time>
      </trkpt>
      <trkpt lat="43.57898" lon="0.34404">
        <ele>183.75</ele>
        <time>2021-08-19T07:37:35Z</time>
      </trkpt>
      <trkpt lat="43.579" lon="0.34383">
        <ele>185.19</ele>
        <time>2021-08-19T07:37:42Z</time>
      </trkpt>
      <trkpt lat="43.579" lon="0.34366">
        <ele>186.15</ele>
        <time>2021-08-19T07:37:49Z</time>
      </trkpt>
      <trkpt lat="43.57899" lon="0.34346">
        <ele>187.11</ele>
        <time>2021-08-19T07:37:57Z</time>
      </trkpt>
      <trkpt lat="43.57895" lon="0.34325">
        <ele>188.56</ele>
        <time>2021-08-19T07:38:06Z</time>
      </trkpt>
      <trkpt lat="43.57893" lon="0.3431">
        <ele>189.52</ele>
        <time>2021-08-19T07:38:12Z</time>
      </trkpt>
      <trkpt lat="43.57889" lon="0.34294">
        <ele>190.48</ele>
        <time>2021-08-19T07:38:19Z</time>
      </trkpt>
      <trkpt lat="43.57889" lon="0.34292">
        <ele>190.48</ele>
        <time>2021-08-19T07:38:20Z</time>
      </trkpt>
      <trkpt lat="43.57888" lon="0.34289">
        <ele>190.96</ele>
        <time>2021-08-19T07:38:21Z</time>
      </trkpt>
      <trkpt lat="43.57888" lon="0.34287">
        <ele>190.96</ele>
        <time>2021-08-19T07:38:22Z</time>
      </trkpt>
      <trkpt lat="43.57887" lon="0.34284">
        <ele>190.96</ele>
        <time>2021-08-19T07:38:23Z</time>
      </trkpt>
      <trkpt lat="43.57887" lon="0.34281">
        <ele>190.96</ele>
        <time>2021-08-19T07:38:24Z</time>
      </trkpt>
      <trkpt lat="43.57887" lon="0.34279">
        <ele>191.44</ele>
        <time>2021-08-19T07:38:25Z</time>
      </trkpt>
      <trkpt lat="43.57887" lon="0.34276">
        <ele>191.44</ele>
        <time>2021-08-19T07:38:26Z</time>
      </trkpt>
      <trkpt lat="43.57886" lon="0.34274">
        <ele>191.44</ele>
        <time>2021-08-19T07:38:27Z</time>
      </trkpt>
      <trkpt lat="43.57885" lon="0.34272">
        <ele>191.92</ele>
        <time>2021-08-19T07:38:28Z</time>
      </trkpt>
      <trkpt lat="43.57885" lon="0.34269">
        <ele>191.92</ele>
        <time>2021-08-19T07:38:29Z</time>
      </trkpt>
      <trkpt lat="43.57883" lon="0.34248">
        <ele>193.36</ele>
        <time>2021-08-19T07:38:38Z</time>
      </trkpt>
      <trkpt lat="43.57883" lon="0.3423">
        <ele>193.84</ele>
        <time>2021-08-19T07:38:45Z</time>
      </trkpt>
      <trkpt lat="43.5788" lon="0.34199">
        <ele>195.28</ele>
        <time>2021-08-19T07:38:54Z</time>
      </trkpt>
      <trkpt lat="43.57877" lon="0.34177">
        <ele>195.77</ele>
        <time>2021-08-19T07:39:01Z</time>
      </trkpt>
      <trkpt lat="43.57873" lon="0.34155">
        <ele>197.21</ele>
        <time>2021-08-19T07:39:09Z</time>
      </trkpt>
      <trkpt lat="43.57869" lon="0.34136">
        <ele>197.69</ele>
        <time>2021-08-19T07:39:16Z</time>
      </trkpt>
      <trkpt lat="43.57862" lon="0.3411">
        <ele>198.17</ele>
        <time>2021-08-19T07:39:24Z</time>
      </trkpt>
      <trkpt lat="43.57854" lon="0.34082">
        <ele>199.13</ele>
        <time>2021-08-19T07:39:32Z</time>
      </trkpt>
      <trkpt lat="43.57848" lon="0.34055">
        <ele>200.09</ele>
        <time>2021-08-19T07:39:40Z</time>
      </trkpt>
      <trkpt lat="43.57844" lon="0.34033">
        <ele>200.09</ele>
        <time>2021-08-19T07:39:47Z</time>
      </trkpt>
      <trkpt lat="43.57838" lon="0.33995">
        <ele>200.09</ele>
        <time>2021-08-19T07:39:57Z</time>
      </trkpt>
      <trkpt lat="43.5783" lon="0.3396">
        <ele>200.09</ele>
        <time>2021-08-19T07:40:06Z</time>
      </trkpt>
      <trkpt lat="43.57822" lon="0.33936">
        <ele>200.09</ele>
        <time>2021-08-19T07:40:13Z</time>
      </trkpt>
      <trkpt lat="43.57815" lon="0.33915">
        <ele>200.57</ele>
        <time>2021-08-19T07:40:20Z</time>
      </trkpt>
      <trkpt lat="43.57808" lon="0.33894">
        <ele>201.05</ele>
        <time>2021-08-19T07:40:27Z</time>
      </trkpt>
      <trkpt lat="43.57805" lon="0.33871">
        <ele>201.53</ele>
        <time>2021-08-19T07:40:34Z</time>
      </trkpt>
      <trkpt lat="43.57802" lon="0.33848">
        <ele>202.01</ele>
        <time>2021-08-19T07:40:41Z</time>
      </trkpt>
      <trkpt lat="43.57799" lon="0.33822">
        <ele>202.49</ele>
        <time>2021-08-19T07:40:48Z</time>
      </trkpt>
      <trkpt lat="43.57796" lon="0.33789">
        <ele>202.98</ele>
        <time>2021-08-19T07:40:56Z</time>
      </trkpt>
      <trkpt lat="43.57793" lon="0.33753">
        <ele>203.46</ele>
        <time>2021-08-19T07:41:04Z</time>
      </trkpt>
      <trkpt lat="43.5779" lon="0.33736">
        <ele>203.46</ele>
        <time>2021-08-19T07:41:09Z</time>
      </trkpt>
      <trkpt lat="43.57789" lon="0.33734">
        <ele>203.46</ele>
        <time>2021-08-19T07:41:10Z</time>
      </trkpt>
      <trkpt lat="43.57789" lon="0.33732">
        <ele>203.46</ele>
        <time>2021-08-19T07:41:11Z</time>
      </trkpt>
      <trkpt lat="43.57788" lon="0.33729">
        <ele>203.46</ele>
        <time>2021-08-19T07:41:12Z</time>
      </trkpt>
      <trkpt lat="43.57787" lon="0.33725">
        <ele>203.46</ele>
        <time>2021-08-19T07:41:13Z</time>
      </trkpt>
      <trkpt lat="43.57786" lon="0.33722">
        <ele>203.46</ele>
        <time>2021-08-19T07:41:14Z</time>
      </trkpt>
      <trkpt lat="43.57781" lon="0.33701">
        <ele>203.46</ele>
        <time>2021-08-19T07:41:21Z</time>
      </trkpt>
      <trkpt lat="43.57774" lon="0.33671">
        <ele>203.46</ele>
        <time>2021-08-19T07:41:28Z</time>
      </trkpt>
      <trkpt lat="43.57765" lon="0.33635">
        <ele>203.46</ele>
        <time>2021-08-19T07:41:36Z</time>
      </trkpt>
      <trkpt lat="43.57758" lon="0.33608">
        <ele>204.42</ele>
        <time>2021-08-19T07:41:43Z</time>
      </trkpt>
      <trkpt lat="43.57748" lon="0.33579">
        <ele>205.38</ele>
        <time>2021-08-19T07:41:51Z</time>
      </trkpt>
      <trkpt lat="43.57745" lon="0.33562">
        <ele>205.86</ele>
        <time>2021-08-19T07:41:57Z</time>
      </trkpt>
      <trkpt lat="43.57747" lon="0.3354">
        <ele>206.34</ele>
        <time>2021-08-19T07:42:03Z</time>
      </trkpt>
      <trkpt lat="43.57748" lon="0.33537">
        <ele>206.34</ele>
        <time>2021-08-19T07:42:04Z</time>
      </trkpt>
      <trkpt lat="43.57749" lon="0.33533">
        <ele>206.34</ele>
        <time>2021-08-19T07:42:05Z</time>
      </trkpt>
      <trkpt lat="43.5775" lon="0.33529">
        <ele>206.82</ele>
        <time>2021-08-19T07:42:06Z</time>
      </trkpt>
      <trkpt lat="43.5775" lon="0.33526">
        <ele>207.3</ele>
        <time>2021-08-19T07:42:07Z</time>
      </trkpt>
      <trkpt lat="43.57751" lon="0.33523">
        <ele>207.3</ele>
        <time>2021-08-19T07:42:08Z</time>
      </trkpt>
      <trkpt lat="43.57753" lon="0.33498">
        <ele>208.26</ele>
        <time>2021-08-19T07:42:16Z</time>
      </trkpt>
      <trkpt lat="43.57755" lon="0.33477">
        <ele>209.22</ele>
        <time>2021-08-19T07:42:23Z</time>
      </trkpt>
      <trkpt lat="43.57756" lon="0.33463">
        <ele>210.19</ele>
        <time>2021-08-19T07:42:28Z</time>
      </trkpt>
      <trkpt lat="43.57757" lon="0.33461">
        <ele>210.19</ele>
        <time>2021-08-19T07:42:29Z</time>
      </trkpt>
      <trkpt lat="43.57757" lon="0.33458">
        <ele>210.67</ele>
        <time>2021-08-19T07:42:30Z</time>
      </trkpt>
      <trkpt lat="43.57758" lon="0.33455">
        <ele>210.67</ele>
        <time>2021-08-19T07:42:31Z</time>
      </trkpt>
      <trkpt lat="43.57758" lon="0.33452">
        <ele>210.67</ele>
        <time>2021-08-19T07:42:32Z</time>
      </trkpt>
      <trkpt lat="43.57763" lon="0.33427">
        <ele>212.11</ele>
        <time>2021-08-19T07:42:42Z</time>
      </trkpt>
      <trkpt lat="43.57766" lon="0.33402">
        <ele>214.03</ele>
        <time>2021-08-19T07:42:52Z</time>
      </trkpt>
      <trkpt lat="43.57768" lon="0.33385">
        <ele>214.99</ele>
        <time>2021-08-19T07:43:00Z</time>
      </trkpt>
      <trkpt lat="43.57771" lon="0.33363">
        <ele>217.4</ele>
        <time>2021-08-19T07:43:10Z</time>
      </trkpt>
      <trkpt lat="43.57773" lon="0.33349">
        <ele>217.88</ele>
        <time>2021-08-19T07:43:17Z</time>
      </trkpt>
      <trkpt lat="43.57773" lon="0.33346">
        <ele>217.88</ele>
        <time>2021-08-19T07:43:18Z</time>
      </trkpt>
      <trkpt lat="43.57773" lon="0.33344">
        <ele>217.88</ele>
        <time>2021-08-19T07:43:19Z</time>
      </trkpt>
      <trkpt lat="43.57773" lon="0.33341">
        <ele>218.36</ele>
        <time>2021-08-19T07:43:20Z</time>
      </trkpt>
      <trkpt lat="43.57772" lon="0.33339">
        <ele>218.36</ele>
        <time>2021-08-19T07:43:21Z</time>
      </trkpt>
      <trkpt lat="43.57771" lon="0.33336">
        <ele>218.36</ele>
        <time>2021-08-19T07:43:22Z</time>
      </trkpt>
      <trkpt lat="43.57771" lon="0.33333">
        <ele>218.36</ele>
        <time>2021-08-19T07:43:23Z</time>
      </trkpt>
      <trkpt lat="43.57771" lon="0.33331">
        <ele>218.84</ele>
        <time>2021-08-19T07:43:24Z</time>
      </trkpt>
      <trkpt lat="43.57772" lon="0.33328">
        <ele>218.84</ele>
        <time>2021-08-19T07:43:25Z</time>
      </trkpt>
      <trkpt lat="43.57772" lon="0.33324">
        <ele>218.84</ele>
        <time>2021-08-19T07:43:26Z</time>
      </trkpt>
      <trkpt lat="43.57773" lon="0.33322">
        <ele>218.84</ele>
        <time>2021-08-19T07:43:27Z</time>
      </trkpt>
      <trkpt lat="43.57774" lon="0.33319">
        <ele>218.84</ele>
        <time>2021-08-19T07:43:28Z</time>
      </trkpt>
      <trkpt lat="43.57776" lon="0.33317">
        <ele>218.84</ele>
        <time>2021-08-19T07:43:29Z</time>
      </trkpt>
      <trkpt lat="43.57778" lon="0.33316">
        <ele>218.84</ele>
        <time>2021-08-19T07:43:30Z</time>
      </trkpt>
      <trkpt lat="43.57779" lon="0.33314">
        <ele>218.84</ele>
        <time>2021-08-19T07:43:31Z</time>
      </trkpt>
      <trkpt lat="43.57781" lon="0.33312">
        <ele>219.32</ele>
        <time>2021-08-19T07:43:32Z</time>
      </trkpt>
      <trkpt lat="43.57785" lon="0.33298">
        <ele>220.28</ele>
        <time>2021-08-19T07:43:39Z</time>
      </trkpt>
      <trkpt lat="43.57786" lon="0.33296">
        <ele>220.28</ele>
        <time>2021-08-19T07:43:40Z</time>
      </trkpt>
      <trkpt lat="43.57786" lon="0.33294">
        <ele>220.28</ele>
        <time>2021-08-19T07:43:41Z</time>
      </trkpt>
      <trkpt lat="43.57794" lon="0.33268">
        <ele>221.72</ele>
        <time>2021-08-19T07:43:52Z</time>
      </trkpt>
      <trkpt lat="43.578" lon="0.33248">
        <ele>222.68</ele>
        <time>2021-08-19T07:44:00Z</time>
      </trkpt>
      <trkpt lat="43.57804" lon="0.33229">
        <ele>223.64</ele>
        <time>2021-08-19T07:44:07Z</time>
      </trkpt>
      <trkpt lat="43.57811" lon="0.33206">
        <ele>224.61</ele>
        <time>2021-08-19T07:44:16Z</time>
      </trkpt>
      <trkpt lat="43.57818" lon="0.33182">
        <ele>226.05</ele>
        <time>2021-08-19T07:44:25Z</time>
      </trkpt>
      <trkpt lat="43.57824" lon="0.33161">
        <ele>227.49</ele>
        <time>2021-08-19T07:44:33Z</time>
      </trkpt>
      <trkpt lat="43.57829" lon="0.3314">
        <ele>227.97</ele>
        <time>2021-08-19T07:44:40Z</time>
      </trkpt>
      <trkpt lat="43.57834" lon="0.33114">
        <ele>228.93</ele>
        <time>2021-08-19T07:44:47Z</time>
      </trkpt>
      <trkpt lat="43.57837" lon="0.33094">
        <ele>229.41</ele>
        <time>2021-08-19T07:44:54Z</time>
      </trkpt>
      <trkpt lat="43.57838" lon="0.33072">
        <ele>227.49</ele>
        <time>2021-08-19T07:44:58Z</time>
      </trkpt>
      <trkpt lat="43.57842" lon="0.33042">
        <ele>224.12</ele>
        <time>2021-08-19T07:45:02Z</time>
      </trkpt>
      <trkpt lat="43.57842" lon="0.33038">
        <ele>224.12</ele>
        <time>2021-08-19T07:45:03Z</time>
      </trkpt>
      <trkpt lat="43.57844" lon="0.33">
        <ele>220.76</ele>
        <time>2021-08-19T07:45:08Z</time>
      </trkpt>
      <trkpt lat="43.57848" lon="0.32964">
        <ele>217.4</ele>
        <time>2021-08-19T07:45:13Z</time>
      </trkpt>
      <trkpt lat="43.5785" lon="0.3295">
        <ele>216.91</ele>
        <time>2021-08-19T07:45:15Z</time>
      </trkpt>
      <trkpt lat="43.57854" lon="0.32913">
        <ele>213.55</ele>
        <time>2021-08-19T07:45:21Z</time>
      </trkpt>
      <trkpt lat="43.57854" lon="0.32907">
        <ele>212.59</ele>
        <time>2021-08-19T07:45:22Z</time>
      </trkpt>
      <trkpt lat="43.57845" lon="0.32859">
        <ele>208.74</ele>
        <time>2021-08-19T07:45:28Z</time>
      </trkpt>
      <trkpt lat="43.57737" lon="0.32682">
        <ele>173.17</ele>
        <time>2021-08-19T07:47:38Z</time>
      </trkpt>
      <trkpt lat="43.57737" lon="0.32684">
        <ele>174.14</ele>
        <time>2021-08-19T07:49:24Z</time>
      </trkpt>
      <trkpt lat="43.57737" lon="0.32684">
        <ele>174.14</ele>
        <time>2021-08-19T07:49:25Z</time>
      </trkpt>
      <trkpt lat="43.57736" lon="0.32686">
        <ele>174.14</ele>
        <time>2021-08-19T07:49:50Z</time>
      </trkpt>
      <trkpt lat="43.57736" lon="0.32683">
        <ele>174.14</ele>
        <time>2021-08-19T07:50:14Z</time>
      </trkpt>
      <trkpt lat="43.57734" lon="0.32681">
        <ele>174.14</ele>
        <time>2021-08-19T07:50:30Z</time>
      </trkpt>
      <trkpt lat="43.57734" lon="0.32681">
        <ele>174.14</ele>
        <time>2021-08-19T07:50:49Z</time>
      </trkpt>
      <trkpt lat="43.57736" lon="0.32684">
        <ele>174.14</ele>
        <time>2021-08-19T07:51:09Z</time>
      </trkpt>
      <trkpt lat="43.57736" lon="0.32685">
        <ele>174.14</ele>
        <time>2021-08-19T07:51:25Z</time>
      </trkpt>
      <trkpt lat="43.57738" lon="0.32685">
        <ele>172.69</ele>
        <time>2021-08-19T07:51:34Z</time>
      </trkpt>
      <trkpt lat="43.57734" lon="0.32686">
        <ele>172.69</ele>
        <time>2021-08-19T07:51:36Z</time>
      </trkpt>
      <trkpt lat="43.57731" lon="0.32687">
        <ele>172.69</ele>
        <time>2021-08-19T07:51:37Z</time>
      </trkpt>
      <trkpt lat="43.57728" lon="0.32688">
        <ele>172.21</ele>
        <time>2021-08-19T07:51:38Z</time>
      </trkpt>
      <trkpt lat="43.57724" lon="0.32689">
        <ele>171.25</ele>
        <time>2021-08-19T07:51:39Z</time>
      </trkpt>
      <trkpt lat="43.57719" lon="0.32689">
        <ele>170.77</ele>
        <time>2021-08-19T07:51:40Z</time>
      </trkpt>
      <trkpt lat="43.57713" lon="0.32688">
        <ele>170.29</ele>
        <time>2021-08-19T07:51:41Z</time>
      </trkpt>
      <trkpt lat="43.57708" lon="0.32687">
        <ele>169.33</ele>
        <time>2021-08-19T07:51:42Z</time>
      </trkpt>
      <trkpt lat="43.57683" lon="0.32681">
        <ele>165.96</ele>
        <time>2021-08-19T07:51:46Z</time>
      </trkpt>
      <trkpt lat="43.57676" lon="0.3268">
        <ele>165</ele>
        <time>2021-08-19T07:51:47Z</time>
      </trkpt>
      <trkpt lat="43.57669" lon="0.3268">
        <ele>164.04</ele>
        <time>2021-08-19T07:51:48Z</time>
      </trkpt>
      <trkpt lat="43.57662" lon="0.32682">
        <ele>163.56</ele>
        <time>2021-08-19T07:51:49Z</time>
      </trkpt>
      <trkpt lat="43.57647" lon="0.32685">
        <ele>163.08</ele>
        <time>2021-08-19T07:51:51Z</time>
      </trkpt>
      <trkpt lat="43.57633" lon="0.32687">
        <ele>163.08</ele>
        <time>2021-08-19T07:51:53Z</time>
      </trkpt>
      <trkpt lat="43.57626" lon="0.32685">
        <ele>163.08</ele>
        <time>2021-08-19T07:51:54Z</time>
      </trkpt>
      <trkpt lat="43.57593" lon="0.32671">
        <ele>163.08</ele>
        <time>2021-08-19T07:52:00Z</time>
      </trkpt>
      <trkpt lat="43.57574" lon="0.32665">
        <ele>164.04</ele>
        <time>2021-08-19T07:52:04Z</time>
      </trkpt>
      <trkpt lat="43.57536" lon="0.32656">
        <ele>165.48</ele>
        <time>2021-08-19T07:52:13Z</time>
      </trkpt>
      <trkpt lat="43.57492" lon="0.32648">
        <ele>164.04</ele>
        <time>2021-08-19T07:52:22Z</time>
      </trkpt>
      <trkpt lat="43.57468" lon="0.32646">
        <ele>163.56</ele>
        <time>2021-08-19T07:52:26Z</time>
      </trkpt>
      <trkpt lat="43.57462" lon="0.32647">
        <ele>163.56</ele>
        <time>2021-08-19T07:52:27Z</time>
      </trkpt>
      <trkpt lat="43.57431" lon="0.32658">
        <ele>163.08</ele>
        <time>2021-08-19T07:52:34Z</time>
      </trkpt>
      <trkpt lat="43.57416" lon="0.32666">
        <ele>164.52</ele>
        <time>2021-08-19T07:52:38Z</time>
      </trkpt>
      <trkpt lat="43.57391" lon="0.32681">
        <ele>164.52</ele>
        <time>2021-08-19T07:52:46Z</time>
      </trkpt>
      <trkpt lat="43.57368" lon="0.32688">
        <ele>165</ele>
        <time>2021-08-19T07:52:53Z</time>
      </trkpt>
      <trkpt lat="43.57339" lon="0.32683">
        <ele>165.48</ele>
        <time>2021-08-19T07:53:02Z</time>
      </trkpt>
      <trkpt lat="43.57325" lon="0.32682">
        <ele>166.93</ele>
        <time>2021-08-19T07:53:08Z</time>
      </trkpt>
      <trkpt lat="43.57315" lon="0.32685">
        <ele>167.41</ele>
        <time>2021-08-19T07:53:15Z</time>
      </trkpt>
      <trkpt lat="43.5731" lon="0.32689">
        <ele>168.37</ele>
        <time>2021-08-19T07:53:19Z</time>
      </trkpt>
      <trkpt lat="43.57309" lon="0.3269">
        <ele>168.85</ele>
        <time>2021-08-19T07:53:20Z</time>
      </trkpt>
      <trkpt lat="43.57308" lon="0.32691">
        <ele>168.85</ele>
        <time>2021-08-19T07:53:21Z</time>
      </trkpt>
      <trkpt lat="43.57297" lon="0.32707">
        <ele>171.25</ele>
        <time>2021-08-19T07:53:31Z</time>
      </trkpt>
      <trkpt lat="43.57289" lon="0.32719">
        <ele>172.21</ele>
        <time>2021-08-19T07:53:39Z</time>
      </trkpt>
      <trkpt lat="43.57275" lon="0.32736">
        <ele>173.66</ele>
        <time>2021-08-19T07:53:48Z</time>
      </trkpt>
      <trkpt lat="43.57259" lon="0.3276">
        <ele>173.17</ele>
        <time>2021-08-19T07:53:56Z</time>
      </trkpt>
      <trkpt lat="43.57246" lon="0.3278">
        <ele>171.73</ele>
        <time>2021-08-19T07:54:01Z</time>
      </trkpt>
      <trkpt lat="43.57225" lon="0.32815">
        <ele>170.77</ele>
        <time>2021-08-19T07:54:08Z</time>
      </trkpt>
      <trkpt lat="43.57209" lon="0.32826">
        <ele>170.77</ele>
        <time>2021-08-19T07:54:14Z</time>
      </trkpt>
      <trkpt lat="43.57204" lon="0.3283">
        <ele>172.21</ele>
        <time>2021-08-19T07:54:16Z</time>
      </trkpt>
      <trkpt lat="43.57179" lon="0.32849">
        <ele>173.17</ele>
        <time>2021-08-19T07:54:26Z</time>
      </trkpt>
      <trkpt lat="43.57164" lon="0.32861">
        <ele>174.62</ele>
        <time>2021-08-19T07:54:33Z</time>
      </trkpt>
      <trkpt lat="43.57148" lon="0.32872">
        <ele>176.06</ele>
        <time>2021-08-19T07:54:42Z</time>
      </trkpt>
      <trkpt lat="43.5713" lon="0.32881">
        <ele>177.98</ele>
        <time>2021-08-19T07:54:51Z</time>
      </trkpt>
      <trkpt lat="43.57118" lon="0.32873">
        <ele>177.02</ele>
        <time>2021-08-19T07:54:56Z</time>
      </trkpt>
      <trkpt lat="43.5711" lon="0.32869">
        <ele>175.58</ele>
        <time>2021-08-19T07:54:58Z</time>
      </trkpt>
      <trkpt lat="43.57106" lon="0.32868">
        <ele>175.1</ele>
        <time>2021-08-19T07:54:59Z</time>
      </trkpt>
      <trkpt lat="43.571" lon="0.32868">
        <ele>174.62</ele>
        <time>2021-08-19T07:55:00Z</time>
      </trkpt>
      <trkpt lat="43.57094" lon="0.32869">
        <ele>173.66</ele>
        <time>2021-08-19T07:55:01Z</time>
      </trkpt>
      <trkpt lat="43.57089" lon="0.3287">
        <ele>173.17</ele>
        <time>2021-08-19T07:55:02Z</time>
      </trkpt>
      <trkpt lat="43.57083" lon="0.32872">
        <ele>172.69</ele>
        <time>2021-08-19T07:55:03Z</time>
      </trkpt>
      <trkpt lat="43.57077" lon="0.32874">
        <ele>172.69</ele>
        <time>2021-08-19T07:55:04Z</time>
      </trkpt>
      <trkpt lat="43.57057" lon="0.32882">
        <ele>171.25</ele>
        <time>2021-08-19T07:55:07Z</time>
      </trkpt>
      <trkpt lat="43.57008" lon="0.329">
        <ele>169.33</ele>
        <time>2021-08-19T07:55:14Z</time>
      </trkpt>
      <trkpt lat="43.56994" lon="0.32904">
        <ele>168.85</ele>
        <time>2021-08-19T07:55:16Z</time>
      </trkpt>
      <trkpt lat="43.56987" lon="0.32904">
        <ele>167.89</ele>
        <time>2021-08-19T07:55:17Z</time>
      </trkpt>
      <trkpt lat="43.56974" lon="0.32904">
        <ele>166.93</ele>
        <time>2021-08-19T07:55:19Z</time>
      </trkpt>
      <trkpt lat="43.56953" lon="0.32907">
        <ele>165.48</ele>
        <time>2021-08-19T07:55:22Z</time>
      </trkpt>
      <trkpt lat="43.56906" lon="0.32911">
        <ele>164.52</ele>
        <time>2021-08-19T07:55:29Z</time>
      </trkpt>
      <trkpt lat="43.56862" lon="0.32913">
        <ele>164.52</ele>
        <time>2021-08-19T07:55:37Z</time>
      </trkpt>
      <trkpt lat="43.56844" lon="0.32911">
        <ele>164.52</ele>
        <time>2021-08-19T07:55:41Z</time>
      </trkpt>
      <trkpt lat="43.56839" lon="0.32911">
        <ele>164.52</ele>
        <time>2021-08-19T07:55:42Z</time>
      </trkpt>
      <trkpt lat="43.56834" lon="0.32911">
        <ele>164.52</ele>
        <time>2021-08-19T07:55:43Z</time>
      </trkpt>
      <trkpt lat="43.56794" lon="0.32913">
        <ele>164.52</ele>
        <time>2021-08-19T07:55:51Z</time>
      </trkpt>
      <trkpt lat="43.56754" lon="0.32918">
        <ele>163.56</ele>
        <time>2021-08-19T07:55:58Z</time>
      </trkpt>
      <trkpt lat="43.56704" lon="0.3293">
        <ele>163.56</ele>
        <time>2021-08-19T07:56:06Z</time>
      </trkpt>
      <trkpt lat="43.56659" lon="0.3294">
        <ele>165</ele>
        <time>2021-08-19T07:56:15Z</time>
      </trkpt>
      <trkpt lat="43.56655" lon="0.32942">
        <ele>165</ele>
        <time>2021-08-19T07:56:16Z</time>
      </trkpt>
      <trkpt lat="43.5665" lon="0.32944">
        <ele>165</ele>
        <time>2021-08-19T07:56:17Z</time>
      </trkpt>
      <trkpt lat="43.56646" lon="0.32945">
        <ele>165</ele>
        <time>2021-08-19T07:56:18Z</time>
      </trkpt>
      <trkpt lat="43.56642" lon="0.32947">
        <ele>165</ele>
        <time>2021-08-19T07:56:19Z</time>
      </trkpt>
      <trkpt lat="43.56638" lon="0.3295">
        <ele>164.52</ele>
        <time>2021-08-19T07:56:20Z</time>
      </trkpt>
      <trkpt lat="43.56635" lon="0.32952">
        <ele>164.52</ele>
        <time>2021-08-19T07:56:21Z</time>
      </trkpt>
      <trkpt lat="43.56632" lon="0.32955">
        <ele>164.52</ele>
        <time>2021-08-19T07:56:22Z</time>
      </trkpt>
      <trkpt lat="43.56601" lon="0.32972">
        <ele>165.96</ele>
        <time>2021-08-19T07:56:31Z</time>
      </trkpt>
      <trkpt lat="43.56576" lon="0.32983">
        <ele>165.96</ele>
        <time>2021-08-19T07:56:38Z</time>
      </trkpt>
      <trkpt lat="43.56543" lon="0.33005">
        <ele>165.96</ele>
        <time>2021-08-19T07:56:47Z</time>
      </trkpt>
      <trkpt lat="43.56536" lon="0.33022">
        <ele>165.96</ele>
        <time>2021-08-19T07:56:52Z</time>
      </trkpt>
      <trkpt lat="43.56522" lon="0.33039">
        <ele>165.96</ele>
        <time>2021-08-19T07:56:58Z</time>
      </trkpt>
      <trkpt lat="43.56501" lon="0.3306">
        <ele>165.96</ele>
        <time>2021-08-19T07:57:05Z</time>
      </trkpt>
      <trkpt lat="43.56469" lon="0.33077">
        <ele>165.48</ele>
        <time>2021-08-19T07:57:14Z</time>
      </trkpt>
      <trkpt lat="43.56437" lon="0.33087">
        <ele>165.96</ele>
        <time>2021-08-19T07:57:23Z</time>
      </trkpt>
      <trkpt lat="43.56391" lon="0.33093">
        <ele>164.52</ele>
        <time>2021-08-19T07:57:33Z</time>
      </trkpt>
      <trkpt lat="43.56374" lon="0.33093">
        <ele>164.52</ele>
        <time>2021-08-19T07:57:37Z</time>
      </trkpt>
      <trkpt lat="43.56369" lon="0.33093">
        <ele>164.52</ele>
        <time>2021-08-19T07:57:38Z</time>
      </trkpt>
      <trkpt lat="43.56366" lon="0.33093">
        <ele>164.52</ele>
        <time>2021-08-19T07:57:39Z</time>
      </trkpt>
      <trkpt lat="43.56338" lon="0.33095">
        <ele>164.52</ele>
        <time>2021-08-19T07:57:46Z</time>
      </trkpt>
      <trkpt lat="43.56334" lon="0.33096">
        <ele>164.52</ele>
        <time>2021-08-19T07:57:47Z</time>
      </trkpt>
      <trkpt lat="43.56296" lon="0.33101">
        <ele>164.52</ele>
        <time>2021-08-19T07:57:56Z</time>
      </trkpt>
      <trkpt lat="43.56254" lon="0.33108">
        <ele>164.52</ele>
        <time>2021-08-19T07:58:06Z</time>
      </trkpt>
      <trkpt lat="43.56229" lon="0.33117">
        <ele>164.52</ele>
        <time>2021-08-19T07:58:13Z</time>
      </trkpt>
      <trkpt lat="43.56199" lon="0.33128">
        <ele>164.52</ele>
        <time>2021-08-19T07:58:22Z</time>
      </trkpt>
      <trkpt lat="43.5617" lon="0.33139">
        <ele>165.96</ele>
        <time>2021-08-19T07:58:31Z</time>
      </trkpt>
      <trkpt lat="43.56147" lon="0.33148">
        <ele>165.96</ele>
        <time>2021-08-19T07:58:39Z</time>
      </trkpt>
      <trkpt lat="43.56126" lon="0.33153">
        <ele>165.96</ele>
        <time>2021-08-19T07:58:46Z</time>
      </trkpt>
      <trkpt lat="43.56091" lon="0.33162">
        <ele>167.41</ele>
        <time>2021-08-19T07:58:57Z</time>
      </trkpt>
      <trkpt lat="43.5607" lon="0.33172">
        <ele>167.89</ele>
        <time>2021-08-19T07:59:04Z</time>
      </trkpt>
      <trkpt lat="43.56052" lon="0.33179">
        <ele>168.85</ele>
        <time>2021-08-19T07:59:11Z</time>
      </trkpt>
      <trkpt lat="43.5602" lon="0.33184">
        <ele>168.85</ele>
        <time>2021-08-19T07:59:19Z</time>
      </trkpt>
      <trkpt lat="43.55991" lon="0.33182">
        <ele>168.85</ele>
        <time>2021-08-19T07:59:26Z</time>
      </trkpt>
      <trkpt lat="43.55982" lon="0.3318">
        <ele>167.41</ele>
        <time>2021-08-19T07:59:28Z</time>
      </trkpt>
      <trkpt lat="43.55974" lon="0.3318">
        <ele>167.41</ele>
        <time>2021-08-19T07:59:30Z</time>
      </trkpt>
      <trkpt lat="43.55931" lon="0.33184">
        <ele>167.41</ele>
        <time>2021-08-19T07:59:41Z</time>
      </trkpt>
      <trkpt lat="43.55892" lon="0.3319">
        <ele>167.41</ele>
        <time>2021-08-19T07:59:51Z</time>
      </trkpt>
      <trkpt lat="43.55887" lon="0.33189">
        <ele>166.45</ele>
        <time>2021-08-19T07:59:52Z</time>
      </trkpt>
      <trkpt lat="43.55881" lon="0.33188">
        <ele>165.96</ele>
        <time>2021-08-19T07:59:53Z</time>
      </trkpt>
      <trkpt lat="43.55875" lon="0.33189">
        <ele>165.96</ele>
        <time>2021-08-19T07:59:54Z</time>
      </trkpt>
      <trkpt lat="43.5587" lon="0.33191">
        <ele>165.48</ele>
        <time>2021-08-19T07:59:55Z</time>
      </trkpt>
      <trkpt lat="43.55865" lon="0.33193">
        <ele>165.48</ele>
        <time>2021-08-19T07:59:56Z</time>
      </trkpt>
      <trkpt lat="43.5586" lon="0.33195">
        <ele>165.48</ele>
        <time>2021-08-19T07:59:57Z</time>
      </trkpt>
      <trkpt lat="43.55834" lon="0.33211">
        <ele>165.48</ele>
        <time>2021-08-19T08:00:04Z</time>
      </trkpt>
      <trkpt lat="43.5583" lon="0.33213">
        <ele>165.48</ele>
        <time>2021-08-19T08:00:05Z</time>
      </trkpt>
      <trkpt lat="43.55826" lon="0.33215">
        <ele>165.48</ele>
        <time>2021-08-19T08:00:06Z</time>
      </trkpt>
      <trkpt lat="43.5579" lon="0.33233">
        <ele>165.48</ele>
        <time>2021-08-19T08:00:14Z</time>
      </trkpt>
      <trkpt lat="43.55764" lon="0.33248">
        <ele>166.45</ele>
        <time>2021-08-19T08:00:20Z</time>
      </trkpt>
      <trkpt lat="43.55736" lon="0.33275">
        <ele>166.93</ele>
        <time>2021-08-19T08:00:28Z</time>
      </trkpt>
      <trkpt lat="43.55714" lon="0.33303">
        <ele>167.89</ele>
        <time>2021-08-19T08:00:36Z</time>
      </trkpt>
      <trkpt lat="43.55694" lon="0.33318">
        <ele>167.89</ele>
        <time>2021-08-19T08:00:43Z</time>
      </trkpt>
      <trkpt lat="43.55677" lon="0.3332">
        <ele>167.89</ele>
        <time>2021-08-19T08:00:49Z</time>
      </trkpt>
      <trkpt lat="43.55647" lon="0.33326">
        <ele>167.89</ele>
        <time>2021-08-19T08:00:58Z</time>
      </trkpt>
      <trkpt lat="43.55617" lon="0.33329">
        <ele>167.89</ele>
        <time>2021-08-19T08:01:07Z</time>
      </trkpt>
      <trkpt lat="43.55614" lon="0.33329">
        <ele>167.89</ele>
        <time>2021-08-19T08:01:08Z</time>
      </trkpt>
      <trkpt lat="43.55587" lon="0.33332">
        <ele>166.45</ele>
        <time>2021-08-19T08:01:15Z</time>
      </trkpt>
      <trkpt lat="43.55565" lon="0.33339">
        <ele>166.45</ele>
        <time>2021-08-19T08:01:22Z</time>
      </trkpt>
      <trkpt lat="43.55539" lon="0.33346">
        <ele>166.45</ele>
        <time>2021-08-19T08:01:29Z</time>
      </trkpt>
      <trkpt lat="43.55535" lon="0.33347">
        <ele>166.45</ele>
        <time>2021-08-19T08:01:30Z</time>
      </trkpt>
      <trkpt lat="43.55522" lon="0.33351">
        <ele>166.45</ele>
        <time>2021-08-19T08:01:33Z</time>
      </trkpt>
      <trkpt lat="43.55481" lon="0.33367">
        <ele>166.45</ele>
        <time>2021-08-19T08:01:42Z</time>
      </trkpt>
      <trkpt lat="43.55453" lon="0.33377">
        <ele>166.45</ele>
        <time>2021-08-19T08:01:48Z</time>
      </trkpt>
      <trkpt lat="43.55449" lon="0.33379">
        <ele>166.45</ele>
        <time>2021-08-19T08:01:49Z</time>
      </trkpt>
      <trkpt lat="43.55444" lon="0.33381">
        <ele>166.45</ele>
        <time>2021-08-19T08:01:50Z</time>
      </trkpt>
      <trkpt lat="43.554" lon="0.33405">
        <ele>166.45</ele>
        <time>2021-08-19T08:01:59Z</time>
      </trkpt>
      <trkpt lat="43.5536" lon="0.33423">
        <ele>166.45</ele>
        <time>2021-08-19T08:02:07Z</time>
      </trkpt>
      <trkpt lat="43.5532" lon="0.33439">
        <ele>167.41</ele>
        <time>2021-08-19T08:02:15Z</time>
      </trkpt>
      <trkpt lat="43.55307" lon="0.3344">
        <ele>167.89</ele>
        <time>2021-08-19T08:02:18Z</time>
      </trkpt>
      <trkpt lat="43.55303" lon="0.3344">
        <ele>167.89</ele>
        <time>2021-08-19T08:02:19Z</time>
      </trkpt>
      <trkpt lat="43.55298" lon="0.33441">
        <ele>167.89</ele>
        <time>2021-08-19T08:02:20Z</time>
      </trkpt>
      <trkpt lat="43.55267" lon="0.33453">
        <ele>167.89</ele>
        <time>2021-08-19T08:02:28Z</time>
      </trkpt>
      <trkpt lat="43.55254" lon="0.3346">
        <ele>167.89</ele>
        <time>2021-08-19T08:02:31Z</time>
      </trkpt>
      <trkpt lat="43.5525" lon="0.33462">
        <ele>167.89</ele>
        <time>2021-08-19T08:02:32Z</time>
      </trkpt>
      <trkpt lat="43.55214" lon="0.33486">
        <ele>167.89</ele>
        <time>2021-08-19T08:02:41Z</time>
      </trkpt>
      <trkpt lat="43.5519" lon="0.335">
        <ele>167.89</ele>
        <time>2021-08-19T08:02:47Z</time>
      </trkpt>
      <trkpt lat="43.55186" lon="0.33502">
        <ele>167.89</ele>
        <time>2021-08-19T08:02:48Z</time>
      </trkpt>
      <trkpt lat="43.55178" lon="0.33504">
        <ele>167.89</ele>
        <time>2021-08-19T08:02:50Z</time>
      </trkpt>
      <trkpt lat="43.55174" lon="0.33503">
        <ele>167.89</ele>
        <time>2021-08-19T08:02:51Z</time>
      </trkpt>
      <trkpt lat="43.55171" lon="0.335">
        <ele>167.89</ele>
        <time>2021-08-19T08:02:52Z</time>
      </trkpt>
      <trkpt lat="43.55169" lon="0.33495">
        <ele>167.89</ele>
        <time>2021-08-19T08:02:53Z</time>
      </trkpt>
      <trkpt lat="43.55168" lon="0.3349">
        <ele>167.89</ele>
        <time>2021-08-19T08:02:54Z</time>
      </trkpt>
      <trkpt lat="43.55167" lon="0.33485">
        <ele>167.89</ele>
        <time>2021-08-19T08:02:55Z</time>
      </trkpt>
      <trkpt lat="43.55165" lon="0.3348">
        <ele>167.89</ele>
        <time>2021-08-19T08:02:56Z</time>
      </trkpt>
      <trkpt lat="43.55163" lon="0.33475">
        <ele>167.89</ele>
        <time>2021-08-19T08:02:57Z</time>
      </trkpt>
      <trkpt lat="43.55162" lon="0.33469">
        <ele>167.89</ele>
        <time>2021-08-19T08:02:58Z</time>
      </trkpt>
      <trkpt lat="43.5516" lon="0.33463">
        <ele>167.89</ele>
        <time>2021-08-19T08:02:59Z</time>
      </trkpt>
      <trkpt lat="43.55144" lon="0.33419">
        <ele>166.45</ele>
        <time>2021-08-19T08:03:06Z</time>
      </trkpt>
      <trkpt lat="43.55117" lon="0.33381">
        <ele>165.96</ele>
        <time>2021-08-19T08:03:13Z</time>
      </trkpt>
      <trkpt lat="43.55077" lon="0.33338">
        <ele>165.96</ele>
        <time>2021-08-19T08:03:22Z</time>
      </trkpt>
      <trkpt lat="43.55039" lon="0.33299">
        <ele>165.96</ele>
        <time>2021-08-19T08:03:31Z</time>
      </trkpt>
      <trkpt lat="43.55011" lon="0.33267">
        <ele>165.96</ele>
        <time>2021-08-19T08:03:38Z</time>
      </trkpt>
      <trkpt lat="43.55002" lon="0.33252">
        <ele>167.89</ele>
        <time>2021-08-19T08:03:42Z</time>
      </trkpt>
      <trkpt lat="43.54994" lon="0.33232">
        <ele>166.45</ele>
        <time>2021-08-19T08:03:46Z</time>
      </trkpt>
      <trkpt lat="43.5498" lon="0.33191">
        <ele>165.48</ele>
        <time>2021-08-19T08:03:52Z</time>
      </trkpt>
      <trkpt lat="43.54978" lon="0.33184">
        <ele>165.48</ele>
        <time>2021-08-19T08:03:53Z</time>
      </trkpt>
      <trkpt lat="43.54975" lon="0.33177">
        <ele>165.48</ele>
        <time>2021-08-19T08:03:54Z</time>
      </trkpt>
      <trkpt lat="43.54951" lon="0.33103">
        <ele>165.48</ele>
        <time>2021-08-19T08:04:05Z</time>
      </trkpt>
      <trkpt lat="43.54932" lon="0.33048">
        <ele>165.48</ele>
        <time>2021-08-19T08:04:14Z</time>
      </trkpt>
      <trkpt lat="43.54931" lon="0.33042">
        <ele>165.48</ele>
        <time>2021-08-19T08:04:15Z</time>
      </trkpt>
      <trkpt lat="43.5493" lon="0.33036">
        <ele>165.48</ele>
        <time>2021-08-19T08:04:16Z</time>
      </trkpt>
      <trkpt lat="43.54927" lon="0.33011">
        <ele>166.93</ele>
        <time>2021-08-19T08:04:20Z</time>
      </trkpt>
      <trkpt lat="43.54923" lon="0.32979">
        <ele>167.89</ele>
        <time>2021-08-19T08:04:25Z</time>
      </trkpt>
      <trkpt lat="43.54923" lon="0.32959">
        <ele>169.81</ele>
        <time>2021-08-19T08:04:30Z</time>
      </trkpt>
      <trkpt lat="43.54922" lon="0.32951">
        <ele>170.29</ele>
        <time>2021-08-19T08:04:33Z</time>
      </trkpt>
      <trkpt lat="43.54921" lon="0.32947">
        <ele>170.77</ele>
        <time>2021-08-19T08:04:36Z</time>
      </trkpt>
      <trkpt lat="43.5492" lon="0.32937">
        <ele>172.21</ele>
        <time>2021-08-19T08:04:45Z</time>
      </trkpt>
      <trkpt lat="43.54918" lon="0.32922">
        <ele>172.69</ele>
        <time>2021-08-19T08:04:55Z</time>
      </trkpt>
      <trkpt lat="43.54915" lon="0.32905">
        <ele>174.62</ele>
        <time>2021-08-19T08:05:06Z</time>
      </trkpt>
      <trkpt lat="43.54912" lon="0.32887">
        <ele>176.06</ele>
        <time>2021-08-19T08:05:17Z</time>
      </trkpt>
      <trkpt lat="43.54912" lon="0.32885">
        <ele>175.58</ele>
        <time>2021-08-19T08:05:24Z</time>
      </trkpt>
      <trkpt lat="43.54911" lon="0.32881">
        <ele>175.58</ele>
        <time>2021-08-19T08:05:39Z</time>
      </trkpt>
      <trkpt lat="43.54907" lon="0.32862">
        <ele>176.54</ele>
        <time>2021-08-19T08:05:46Z</time>
      </trkpt>
      <trkpt lat="43.54903" lon="0.32832">
        <ele>177.5</ele>
        <time>2021-08-19T08:05:54Z</time>
      </trkpt>
      <trkpt lat="43.54892" lon="0.32807">
        <ele>178.94</ele>
        <time>2021-08-19T08:06:02Z</time>
      </trkpt>
      <trkpt lat="43.54881" lon="0.32785">
        <ele>179.42</ele>
        <time>2021-08-19T08:06:09Z</time>
      </trkpt>
      <trkpt lat="43.54879" lon="0.32761">
        <ele>179.9</ele>
        <time>2021-08-19T08:06:16Z</time>
      </trkpt>
      <trkpt lat="43.5487" lon="0.3274">
        <ele>180.87</ele>
        <time>2021-08-19T08:06:23Z</time>
      </trkpt>
      <trkpt lat="43.54859" lon="0.32726">
        <ele>182.31</ele>
        <time>2021-08-19T08:06:30Z</time>
      </trkpt>
      <trkpt lat="43.54843" lon="0.32703">
        <ele>183.27</ele>
        <time>2021-08-19T08:06:39Z</time>
      </trkpt>
      <trkpt lat="43.54835" lon="0.3267">
        <ele>184.23</ele>
        <time>2021-08-19T08:06:47Z</time>
      </trkpt>
      <trkpt lat="43.54834" lon="0.32639">
        <ele>185.67</ele>
        <time>2021-08-19T08:06:56Z</time>
      </trkpt>
      <trkpt lat="43.54835" lon="0.32608">
        <ele>187.59</ele>
        <time>2021-08-19T08:07:05Z</time>
      </trkpt>
      <trkpt lat="43.54833" lon="0.32569">
        <ele>189.04</ele>
        <time>2021-08-19T08:07:15Z</time>
      </trkpt>
      <trkpt lat="43.54831" lon="0.32531">
        <ele>189.52</ele>
        <time>2021-08-19T08:07:24Z</time>
      </trkpt>
      <trkpt lat="43.54829" lon="0.32492">
        <ele>189.52</ele>
        <time>2021-08-19T08:07:32Z</time>
      </trkpt>
      <trkpt lat="43.54829" lon="0.32436">
        <ele>190.48</ele>
        <time>2021-08-19T08:07:43Z</time>
      </trkpt>
      <trkpt lat="43.54831" lon="0.32382">
        <ele>191.92</ele>
        <time>2021-08-19T08:07:54Z</time>
      </trkpt>
      <trkpt lat="43.54831" lon="0.32338">
        <ele>192.88</ele>
        <time>2021-08-19T08:08:03Z</time>
      </trkpt>
      <trkpt lat="43.54832" lon="0.3229">
        <ele>194.32</ele>
        <time>2021-08-19T08:08:13Z</time>
      </trkpt>
      <trkpt lat="43.54833" lon="0.3225">
        <ele>194.32</ele>
        <time>2021-08-19T08:08:21Z</time>
      </trkpt>
      <trkpt lat="43.54834" lon="0.32222">
        <ele>194.8</ele>
        <time>2021-08-19T08:08:26Z</time>
      </trkpt>
      <trkpt lat="43.54835" lon="0.32166">
        <ele>195.77</ele>
        <time>2021-08-19T08:08:36Z</time>
      </trkpt>
      <trkpt lat="43.54842" lon="0.3214">
        <ele>196.73</ele>
        <time>2021-08-19T08:08:42Z</time>
      </trkpt>
      <trkpt lat="43.54865" lon="0.32117">
        <ele>199.13</ele>
        <time>2021-08-19T08:08:51Z</time>
      </trkpt>
      <trkpt lat="43.54889" lon="0.32089">
        <ele>201.05</ele>
        <time>2021-08-19T08:09:01Z</time>
      </trkpt>
      <trkpt lat="43.54913" lon="0.32058">
        <ele>202.98</ele>
        <time>2021-08-19T08:09:12Z</time>
      </trkpt>
      <trkpt lat="43.54943" lon="0.32036">
        <ele>203.94</ele>
        <time>2021-08-19T08:09:23Z</time>
      </trkpt>
      <trkpt lat="43.54944" lon="0.32033">
        <ele>203.94</ele>
        <time>2021-08-19T08:09:24Z</time>
      </trkpt>
      <trkpt lat="43.54944" lon="0.32029">
        <ele>204.9</ele>
        <time>2021-08-19T08:09:25Z</time>
      </trkpt>
      <trkpt lat="43.54943" lon="0.32025">
        <ele>204.9</ele>
        <time>2021-08-19T08:09:26Z</time>
      </trkpt>
      <trkpt lat="43.54941" lon="0.32022">
        <ele>204.9</ele>
        <time>2021-08-19T08:09:27Z</time>
      </trkpt>
      <trkpt lat="43.5494" lon="0.32019">
        <ele>204.9</ele>
        <time>2021-08-19T08:09:28Z</time>
      </trkpt>
      <trkpt lat="43.54939" lon="0.32015">
        <ele>204.9</ele>
        <time>2021-08-19T08:09:29Z</time>
      </trkpt>
      <trkpt lat="43.54929" lon="0.31984">
        <ele>205.38</ele>
        <time>2021-08-19T08:09:37Z</time>
      </trkpt>
      <trkpt lat="43.54916" lon="0.31948">
        <ele>206.34</ele>
        <time>2021-08-19T08:09:47Z</time>
      </trkpt>
      <trkpt lat="43.54904" lon="0.31912">
        <ele>207.3</ele>
        <time>2021-08-19T08:09:56Z</time>
      </trkpt>
      <trkpt lat="43.54891" lon="0.3187">
        <ele>207.78</ele>
        <time>2021-08-19T08:10:06Z</time>
      </trkpt>
      <trkpt lat="43.54879" lon="0.31835">
        <ele>208.74</ele>
        <time>2021-08-19T08:10:15Z</time>
      </trkpt>
      <trkpt lat="43.54869" lon="0.31809">
        <ele>209.22</ele>
        <time>2021-08-19T08:10:22Z</time>
      </trkpt>
      <trkpt lat="43.54861" lon="0.31781">
        <ele>210.19</ele>
        <time>2021-08-19T08:10:30Z</time>
      </trkpt>
      <trkpt lat="43.54853" lon="0.31757">
        <ele>211.15</ele>
        <time>2021-08-19T08:10:37Z</time>
      </trkpt>
      <trkpt lat="43.54845" lon="0.31734">
        <ele>212.11</ele>
        <time>2021-08-19T08:10:45Z</time>
      </trkpt>
      <trkpt lat="43.54838" lon="0.31714">
        <ele>213.55</ele>
        <time>2021-08-19T08:10:52Z</time>
      </trkpt>
      <trkpt lat="43.5483" lon="0.31686">
        <ele>214.51</ele>
        <time>2021-08-19T08:11:01Z</time>
      </trkpt>
      <trkpt lat="43.54822" lon="0.31664">
        <ele>215.47</ele>
        <time>2021-08-19T08:11:09Z</time>
      </trkpt>
      <trkpt lat="43.54815" lon="0.3165">
        <ele>216.43</ele>
        <time>2021-08-19T08:11:16Z</time>
      </trkpt>
      <trkpt lat="43.54804" lon="0.31625">
        <ele>216.91</ele>
        <time>2021-08-19T08:11:23Z</time>
      </trkpt>
      <trkpt lat="43.54806" lon="0.31601">
        <ele>215.47</ele>
        <time>2021-08-19T08:11:28Z</time>
      </trkpt>
      <trkpt lat="43.54816" lon="0.31575">
        <ele>212.11</ele>
        <time>2021-08-19T08:11:32Z</time>
      </trkpt>
      <trkpt lat="43.54825" lon="0.31548">
        <ele>209.22</ele>
        <time>2021-08-19T08:11:35Z</time>
      </trkpt>
      <trkpt lat="43.54834" lon="0.31521">
        <ele>205.86</ele>
        <time>2021-08-19T08:11:38Z</time>
      </trkpt>
      <trkpt lat="43.54844" lon="0.31492">
        <ele>202.49</ele>
        <time>2021-08-19T08:11:41Z</time>
      </trkpt>
      <trkpt lat="43.54847" lon="0.3148">
        <ele>201.53</ele>
        <time>2021-08-19T08:11:42Z</time>
      </trkpt>
      <trkpt lat="43.54858" lon="0.31427">
        <ele>198.17</ele>
        <time>2021-08-19T08:11:47Z</time>
      </trkpt>
      <trkpt lat="43.54865" lon="0.31398">
        <ele>194.8</ele>
        <time>2021-08-19T08:11:50Z</time>
      </trkpt>
      <trkpt lat="43.54873" lon="0.31368">
        <ele>191.44</ele>
        <time>2021-08-19T08:11:53Z</time>
      </trkpt>
      <trkpt lat="43.54884" lon="0.31334">
        <ele>187.11</ele>
        <time>2021-08-19T08:11:56Z</time>
      </trkpt>
      <trkpt lat="43.54891" lon="0.31312">
        <ele>184.23</ele>
        <time>2021-08-19T08:11:58Z</time>
      </trkpt>
      <trkpt lat="43.549" lon="0.31283">
        <ele>181.83</ele>
        <time>2021-08-19T08:12:01Z</time>
      </trkpt>
      <trkpt lat="43.54912" lon="0.31259">
        <ele>180.87</ele>
        <time>2021-08-19T08:12:05Z</time>
      </trkpt>
      <trkpt lat="43.54911" lon="0.31257">
        <ele>180.87</ele>
        <time>2021-08-19T08:12:10Z</time>
      </trkpt>
      <trkpt lat="43.54913" lon="0.31254">
        <ele>180.87</ele>
        <time>2021-08-19T08:12:30Z</time>
      </trkpt>
      <trkpt lat="43.54914" lon="0.31255">
        <ele>180.87</ele>
        <time>2021-08-19T08:12:37Z</time>
      </trkpt>
      <trkpt lat="43.5491" lon="0.31258">
        <ele>180.87</ele>
        <time>2021-08-19T08:12:48Z</time>
      </trkpt>
      <trkpt lat="43.54908" lon="0.31259">
        <ele>180.87</ele>
        <time>2021-08-19T08:12:52Z</time>
      </trkpt>
      <trkpt lat="43.54907" lon="0.31257">
        <ele>180.87</ele>
        <time>2021-08-19T08:12:58Z</time>
      </trkpt>
      <trkpt lat="43.54907" lon="0.31252">
        <ele>180.38</ele>
        <time>2021-08-19T08:13:00Z</time>
      </trkpt>
      <trkpt lat="43.5491" lon="0.31231">
        <ele>179.42</ele>
        <time>2021-08-19T08:13:05Z</time>
      </trkpt>
      <trkpt lat="43.54912" lon="0.31216">
        <ele>180.87</ele>
        <time>2021-08-19T08:13:11Z</time>
      </trkpt>
      <trkpt lat="43.54912" lon="0.31211">
        <ele>181.35</ele>
        <time>2021-08-19T08:13:13Z</time>
      </trkpt>
      <trkpt lat="43.54913" lon="0.31203">
        <ele>182.31</ele>
        <time>2021-08-19T08:13:17Z</time>
      </trkpt>
      <trkpt lat="43.54913" lon="0.312">
        <ele>182.31</ele>
        <time>2021-08-19T08:13:18Z</time>
      </trkpt>
      <trkpt lat="43.54913" lon="0.31193">
        <ele>182.31</ele>
        <time>2021-08-19T08:13:21Z</time>
      </trkpt>
      <trkpt lat="43.54914" lon="0.31191">
        <ele>182.31</ele>
        <time>2021-08-19T08:13:22Z</time>
      </trkpt>
      <trkpt lat="43.54916" lon="0.31189">
        <ele>182.31</ele>
        <time>2021-08-19T08:13:23Z</time>
      </trkpt>
      <trkpt lat="43.54925" lon="0.31185">
        <ele>182.31</ele>
        <time>2021-08-19T08:13:28Z</time>
      </trkpt>
      <trkpt lat="43.54936" lon="0.3117">
        <ele>182.79</ele>
        <time>2021-08-19T08:13:34Z</time>
      </trkpt>
      <trkpt lat="43.54938" lon="0.31162">
        <ele>183.27</ele>
        <time>2021-08-19T08:13:37Z</time>
      </trkpt>
      <trkpt lat="43.54938" lon="0.31158">
        <ele>183.27</ele>
        <time>2021-08-19T08:13:38Z</time>
      </trkpt>
      <trkpt lat="43.54938" lon="0.31156">
        <ele>183.27</ele>
        <time>2021-08-19T08:13:39Z</time>
      </trkpt>
      <trkpt lat="43.54939" lon="0.31153">
        <ele>183.27</ele>
        <time>2021-08-19T08:13:40Z</time>
      </trkpt>
      <trkpt lat="43.5494" lon="0.3115">
        <ele>183.75</ele>
        <time>2021-08-19T08:13:41Z</time>
      </trkpt>
      <trkpt lat="43.5494" lon="0.31147">
        <ele>183.75</ele>
        <time>2021-08-19T08:13:42Z</time>
      </trkpt>
      <trkpt lat="43.54942" lon="0.3113">
        <ele>185.19</ele>
        <time>2021-08-19T08:13:49Z</time>
      </trkpt>
      <trkpt lat="43.54942" lon="0.31114">
        <ele>186.15</ele>
        <time>2021-08-19T08:13:57Z</time>
      </trkpt>
      <trkpt lat="43.54941" lon="0.31105">
        <ele>187.59</ele>
        <time>2021-08-19T08:14:03Z</time>
      </trkpt>
      <trkpt lat="43.54941" lon="0.31104">
        <ele>187.59</ele>
        <time>2021-08-19T08:14:04Z</time>
      </trkpt>
      <trkpt lat="43.54941" lon="0.31091">
        <ele>188.08</ele>
        <time>2021-08-19T08:14:13Z</time>
      </trkpt>
      <trkpt lat="43.5494" lon="0.3108">
        <ele>189.04</ele>
        <time>2021-08-19T08:14:21Z</time>
      </trkpt>
      <trkpt lat="43.5494" lon="0.3107">
        <ele>190</ele>
        <time>2021-08-19T08:14:27Z</time>
      </trkpt>
      <trkpt lat="43.54937" lon="0.31061">
        <ele>190.48</ele>
        <time>2021-08-19T08:14:36Z</time>
      </trkpt>
      <trkpt lat="43.54936" lon="0.31054">
        <ele>191.44</ele>
        <time>2021-08-19T08:14:42Z</time>
      </trkpt>
      <trkpt lat="43.54933" lon="0.31038">
        <ele>192.88</ele>
        <time>2021-08-19T08:14:50Z</time>
      </trkpt>
      <trkpt lat="43.5493" lon="0.31022">
        <ele>194.32</ele>
        <time>2021-08-19T08:14:57Z</time>
      </trkpt>
      <trkpt lat="43.54928" lon="0.31012">
        <ele>195.28</ele>
        <time>2021-08-19T08:15:02Z</time>
      </trkpt>
      <trkpt lat="43.54928" lon="0.3101">
        <ele>195.28</ele>
        <time>2021-08-19T08:15:03Z</time>
      </trkpt>
      <trkpt lat="43.54927" lon="0.31008">
        <ele>195.77</ele>
        <time>2021-08-19T08:15:04Z</time>
      </trkpt>
      <trkpt lat="43.54927" lon="0.31007">
        <ele>195.77</ele>
        <time>2021-08-19T08:15:05Z</time>
      </trkpt>
      <trkpt lat="43.54926" lon="0.31005">
        <ele>195.77</ele>
        <time>2021-08-19T08:15:06Z</time>
      </trkpt>
      <trkpt lat="43.54925" lon="0.31003">
        <ele>195.77</ele>
        <time>2021-08-19T08:15:07Z</time>
      </trkpt>
      <trkpt lat="43.54925" lon="0.31001">
        <ele>196.25</ele>
        <time>2021-08-19T08:15:08Z</time>
      </trkpt>
      <trkpt lat="43.54924" lon="0.30999">
        <ele>196.25</ele>
        <time>2021-08-19T08:15:09Z</time>
      </trkpt>
      <trkpt lat="43.5492" lon="0.30982">
        <ele>197.69</ele>
        <time>2021-08-19T08:15:17Z</time>
      </trkpt>
      <trkpt lat="43.54916" lon="0.30968">
        <ele>199.61</ele>
        <time>2021-08-19T08:15:25Z</time>
      </trkpt>
      <trkpt lat="43.54914" lon="0.30965">
        <ele>199.61</ele>
        <time>2021-08-19T08:15:27Z</time>
      </trkpt>
      <trkpt lat="43.54914" lon="0.30963">
        <ele>199.61</ele>
        <time>2021-08-19T08:15:28Z</time>
      </trkpt>
      <trkpt lat="43.54914" lon="0.30961">
        <ele>199.61</ele>
        <time>2021-08-19T08:15:29Z</time>
      </trkpt>
      <trkpt lat="43.54913" lon="0.30959">
        <ele>199.61</ele>
        <time>2021-08-19T08:15:30Z</time>
      </trkpt>
      <trkpt lat="43.54913" lon="0.30956">
        <ele>199.61</ele>
        <time>2021-08-19T08:15:31Z</time>
      </trkpt>
      <trkpt lat="43.54912" lon="0.30954">
        <ele>200.09</ele>
        <time>2021-08-19T08:15:32Z</time>
      </trkpt>
      <trkpt lat="43.54912" lon="0.30952">
        <ele>200.09</ele>
        <time>2021-08-19T08:15:33Z</time>
      </trkpt>
      <trkpt lat="43.54906" lon="0.30934">
        <ele>202.49</ele>
        <time>2021-08-19T08:15:43Z</time>
      </trkpt>
      <trkpt lat="43.54901" lon="0.30917">
        <ele>203.46</ele>
        <time>2021-08-19T08:15:51Z</time>
      </trkpt>
      <trkpt lat="43.54896" lon="0.30902">
        <ele>204.9</ele>
        <time>2021-08-19T08:15:59Z</time>
      </trkpt>
      <trkpt lat="43.5489" lon="0.30886">
        <ele>206.82</ele>
        <time>2021-08-19T08:16:07Z</time>
      </trkpt>
      <trkpt lat="43.54887" lon="0.30879">
        <ele>206.82</ele>
        <time>2021-08-19T08:16:10Z</time>
      </trkpt>
      <trkpt lat="43.54886" lon="0.30877">
        <ele>206.82</ele>
        <time>2021-08-19T08:16:11Z</time>
      </trkpt>
      <trkpt lat="43.54885" lon="0.30875">
        <ele>206.82</ele>
        <time>2021-08-19T08:16:12Z</time>
      </trkpt>
      <trkpt lat="43.54884" lon="0.30874">
        <ele>206.82</ele>
        <time>2021-08-19T08:16:13Z</time>
      </trkpt>
      <trkpt lat="43.54883" lon="0.30871">
        <ele>207.3</ele>
        <time>2021-08-19T08:16:14Z</time>
      </trkpt>
      <trkpt lat="43.54879" lon="0.30852">
        <ele>208.26</ele>
        <time>2021-08-19T08:16:22Z</time>
      </trkpt>
      <trkpt lat="43.54879" lon="0.30829">
        <ele>209.22</ele>
        <time>2021-08-19T08:16:31Z</time>
      </trkpt>
      <trkpt lat="43.5488" lon="0.30811">
        <ele>210.67</ele>
        <time>2021-08-19T08:16:39Z</time>
      </trkpt>
      <trkpt lat="43.54883" lon="0.30793">
        <ele>212.59</ele>
        <time>2021-08-19T08:16:47Z</time>
      </trkpt>
      <trkpt lat="43.54885" lon="0.30788">
        <ele>213.07</ele>
        <time>2021-08-19T08:16:50Z</time>
      </trkpt>
      <trkpt lat="43.54885" lon="0.30786">
        <ele>213.07</ele>
        <time>2021-08-19T08:16:51Z</time>
      </trkpt>
      <trkpt lat="43.5489" lon="0.30766">
        <ele>214.51</ele>
        <time>2021-08-19T08:17:00Z</time>
      </trkpt>
      <trkpt lat="43.54893" lon="0.3074">
        <ele>215.95</ele>
        <time>2021-08-19T08:17:10Z</time>
      </trkpt>
      <trkpt lat="43.54896" lon="0.30719">
        <ele>217.4</ele>
        <time>2021-08-19T08:17:19Z</time>
      </trkpt>
      <trkpt lat="43.54899" lon="0.307">
        <ele>218.84</ele>
        <time>2021-08-19T08:17:28Z</time>
      </trkpt>
      <trkpt lat="43.54902" lon="0.30683">
        <ele>220.28</ele>
        <time>2021-08-19T08:17:36Z</time>
      </trkpt>
      <trkpt lat="43.54906" lon="0.30668">
        <ele>221.24</ele>
        <time>2021-08-19T08:17:43Z</time>
      </trkpt>
      <trkpt lat="43.54913" lon="0.30647">
        <ele>222.68</ele>
        <time>2021-08-19T08:17:52Z</time>
      </trkpt>
      <trkpt lat="43.54922" lon="0.3063">
        <ele>224.61</ele>
        <time>2021-08-19T08:18:01Z</time>
      </trkpt>
      <trkpt lat="43.5493" lon="0.30617">
        <ele>225.09</ele>
        <time>2021-08-19T08:18:08Z</time>
      </trkpt>
      <trkpt lat="43.5494" lon="0.30599">
        <ele>227.01</ele>
        <time>2021-08-19T08:18:17Z</time>
      </trkpt>
      <trkpt lat="43.54941" lon="0.30597">
        <ele>227.01</ele>
        <time>2021-08-19T08:18:18Z</time>
      </trkpt>
      <trkpt lat="43.54942" lon="0.30596">
        <ele>227.01</ele>
        <time>2021-08-19T08:18:19Z</time>
      </trkpt>
      <trkpt lat="43.54944" lon="0.30594">
        <ele>227.01</ele>
        <time>2021-08-19T08:18:20Z</time>
      </trkpt>
      <trkpt lat="43.54945" lon="0.30592">
        <ele>227.01</ele>
        <time>2021-08-19T08:18:21Z</time>
      </trkpt>
      <trkpt lat="43.54946" lon="0.3059">
        <ele>227.01</ele>
        <time>2021-08-19T08:18:22Z</time>
      </trkpt>
      <trkpt lat="43.54948" lon="0.30587">
        <ele>227.49</ele>
        <time>2021-08-19T08:18:23Z</time>
      </trkpt>
      <trkpt lat="43.54949" lon="0.30584">
        <ele>227.49</ele>
        <time>2021-08-19T08:18:24Z</time>
      </trkpt>
      <trkpt lat="43.54951" lon="0.30581">
        <ele>227.49</ele>
        <time>2021-08-19T08:18:25Z</time>
      </trkpt>
      <trkpt lat="43.5496" lon="0.30564">
        <ele>227.49</ele>
        <time>2021-08-19T08:18:31Z</time>
      </trkpt>
      <trkpt lat="43.54976" lon="0.30533">
        <ele>227.49</ele>
        <time>2021-08-19T08:18:40Z</time>
      </trkpt>
      <trkpt lat="43.54987" lon="0.30507">
        <ele>227.97</ele>
        <time>2021-08-19T08:18:47Z</time>
      </trkpt>
      <trkpt lat="43.54995" lon="0.30485">
        <ele>228.93</ele>
        <time>2021-08-19T08:18:54Z</time>
      </trkpt>
      <trkpt lat="43.55003" lon="0.30457">
        <ele>229.89</ele>
        <time>2021-08-19T08:19:01Z</time>
      </trkpt>
      <trkpt lat="43.55008" lon="0.3041">
        <ele>230.85</ele>
        <time>2021-08-19T08:19:10Z</time>
      </trkpt>
      <trkpt lat="43.55007" lon="0.30367">
        <ele>232.3</ele>
        <time>2021-08-19T08:19:19Z</time>
      </trkpt>
      <trkpt lat="43.55005" lon="0.30329">
        <ele>233.74</ele>
        <time>2021-08-19T08:19:28Z</time>
      </trkpt>
      <trkpt lat="43.55" lon="0.30292">
        <ele>234.7</ele>
        <time>2021-08-19T08:19:38Z</time>
      </trkpt>
      <trkpt lat="43.54991" lon="0.30241">
        <ele>235.66</ele>
        <time>2021-08-19T08:19:51Z</time>
      </trkpt>
      <trkpt lat="43.54982" lon="0.30199">
        <ele>237.1</ele>
        <time>2021-08-19T08:20:02Z</time>
      </trkpt>
      <trkpt lat="43.54977" lon="0.30169">
        <ele>239.02</ele>
        <time>2021-08-19T08:20:11Z</time>
      </trkpt>
      <trkpt lat="43.54977" lon="0.30148">
        <ele>240.47</ele>
        <time>2021-08-19T08:20:19Z</time>
      </trkpt>
      <trkpt lat="43.54976" lon="0.30116">
        <ele>241.43</ele>
        <time>2021-08-19T08:20:29Z</time>
      </trkpt>
      <trkpt lat="43.54975" lon="0.3008">
        <ele>242.39</ele>
        <time>2021-08-19T08:20:38Z</time>
      </trkpt>
      <trkpt lat="43.54975" lon="0.30053">
        <ele>244.79</ele>
        <time>2021-08-19T08:20:47Z</time>
      </trkpt>
      <trkpt lat="43.54977" lon="0.3003">
        <ele>246.23</ele>
        <time>2021-08-19T08:20:55Z</time>
      </trkpt>
      <trkpt lat="43.5498" lon="0.29998">
        <ele>248.64</ele>
        <time>2021-08-19T08:21:07Z</time>
      </trkpt>
      <trkpt lat="43.54984" lon="0.29967">
        <ele>250.08</ele>
        <time>2021-08-19T08:21:17Z</time>
      </trkpt>
      <trkpt lat="43.5499" lon="0.29934">
        <ele>250.56</ele>
        <time>2021-08-19T08:21:25Z</time>
      </trkpt>
      <trkpt lat="43.54987" lon="0.29916">
        <ele>252</ele>
        <time>2021-08-19T08:21:32Z</time>
      </trkpt>
      <trkpt lat="43.54973" lon="0.29913">
        <ele>253.93</ele>
        <time>2021-08-19T08:21:39Z</time>
      </trkpt>
      <trkpt lat="43.54951" lon="0.2991">
        <ele>254.89</ele>
        <time>2021-08-19T08:21:49Z</time>
      </trkpt>
      <trkpt lat="43.54933" lon="0.29907">
        <ele>255.85</ele>
        <time>2021-08-19T08:21:56Z</time>
      </trkpt>
      <trkpt lat="43.5491" lon="0.29895">
        <ele>256.33</ele>
        <time>2021-08-19T08:22:04Z</time>
      </trkpt>
      <trkpt lat="43.54889" lon="0.29867">
        <ele>256.33</ele>
        <time>2021-08-19T08:22:12Z</time>
      </trkpt>
      <trkpt lat="43.54876" lon="0.29839">
        <ele>256.33</ele>
        <time>2021-08-19T08:22:19Z</time>
      </trkpt>
      <trkpt lat="43.54863" lon="0.29791">
        <ele>256.33</ele>
        <time>2021-08-19T08:22:27Z</time>
      </trkpt>
      <trkpt lat="43.54857" lon="0.29765">
        <ele>256.33</ele>
        <time>2021-08-19T08:22:31Z</time>
      </trkpt>
      <trkpt lat="43.54855" lon="0.29759">
        <ele>256.33</ele>
        <time>2021-08-19T08:22:32Z</time>
      </trkpt>
      <trkpt lat="43.5484" lon="0.29693">
        <ele>257.29</ele>
        <time>2021-08-19T08:22:43Z</time>
      </trkpt>
      <trkpt lat="43.54835" lon="0.29664">
        <ele>258.25</ele>
        <time>2021-08-19T08:22:50Z</time>
      </trkpt>
      <trkpt lat="43.54828" lon="0.29636">
        <ele>259.69</ele>
        <time>2021-08-19T08:22:59Z</time>
      </trkpt>
      <trkpt lat="43.54822" lon="0.29606">
        <ele>261.62</ele>
        <time>2021-08-19T08:23:09Z</time>
      </trkpt>
      <trkpt lat="43.54815" lon="0.29579">
        <ele>263.06</ele>
        <time>2021-08-19T08:23:18Z</time>
      </trkpt>
      <trkpt lat="43.54811" lon="0.29555">
        <ele>264.02</ele>
        <time>2021-08-19T08:23:25Z</time>
      </trkpt>
      <trkpt lat="43.54802" lon="0.2952">
        <ele>264.98</ele>
        <time>2021-08-19T08:23:35Z</time>
      </trkpt>
      <trkpt lat="43.54802" lon="0.29511">
        <ele>264.98</ele>
        <time>2021-08-19T08:23:38Z</time>
      </trkpt>
      <trkpt lat="43.54803" lon="0.29509">
        <ele>264.98</ele>
        <time>2021-08-19T08:23:39Z</time>
      </trkpt>
      <trkpt lat="43.54805" lon="0.29507">
        <ele>264.98</ele>
        <time>2021-08-19T08:23:40Z</time>
      </trkpt>
      <trkpt lat="43.5482" lon="0.2949">
        <ele>262.58</ele>
        <time>2021-08-19T08:23:45Z</time>
      </trkpt>
      <trkpt lat="43.54823" lon="0.29484">
        <ele>262.58</ele>
        <time>2021-08-19T08:23:46Z</time>
      </trkpt>
      <trkpt lat="43.54826" lon="0.29478">
        <ele>262.58</ele>
        <time>2021-08-19T08:23:47Z</time>
      </trkpt>
      <trkpt lat="43.54827" lon="0.29471">
        <ele>262.58</ele>
        <time>2021-08-19T08:23:48Z</time>
      </trkpt>
      <trkpt lat="43.54828" lon="0.29463">
        <ele>262.58</ele>
        <time>2021-08-19T08:23:49Z</time>
      </trkpt>
      <trkpt lat="43.54829" lon="0.29456">
        <ele>262.58</ele>
        <time>2021-08-19T08:23:50Z</time>
      </trkpt>
      <trkpt lat="43.5483" lon="0.29436">
        <ele>262.58</ele>
        <time>2021-08-19T08:23:53Z</time>
      </trkpt>
      <trkpt lat="43.5483" lon="0.2943">
        <ele>262.58</ele>
        <time>2021-08-19T08:23:54Z</time>
      </trkpt>
      <trkpt lat="43.54828" lon="0.29405">
        <ele>263.54</ele>
        <time>2021-08-19T08:23:59Z</time>
      </trkpt>
      <trkpt lat="43.54828" lon="0.29363">
        <ele>264.98</ele>
        <time>2021-08-19T08:24:07Z</time>
      </trkpt>
      <trkpt lat="43.54839" lon="0.29334">
        <ele>264.98</ele>
        <time>2021-08-19T08:24:13Z</time>
      </trkpt>
      <trkpt lat="43.54841" lon="0.29328">
        <ele>264.98</ele>
        <time>2021-08-19T08:24:14Z</time>
      </trkpt>
      <trkpt lat="43.5484" lon="0.29322">
        <ele>264.98</ele>
        <time>2021-08-19T08:24:15Z</time>
      </trkpt>
      <trkpt lat="43.54838" lon="0.29317">
        <ele>264.98</ele>
        <time>2021-08-19T08:24:16Z</time>
      </trkpt>
      <trkpt lat="43.54836" lon="0.29314">
        <ele>265.94</ele>
        <time>2021-08-19T08:24:17Z</time>
      </trkpt>
      <trkpt lat="43.54833" lon="0.29311">
        <ele>265.94</ele>
        <time>2021-08-19T08:24:18Z</time>
      </trkpt>
      <trkpt lat="43.54831" lon="0.29309">
        <ele>266.42</ele>
        <time>2021-08-19T08:24:19Z</time>
      </trkpt>
      <trkpt lat="43.54829" lon="0.29307">
        <ele>266.42</ele>
        <time>2021-08-19T08:24:20Z</time>
      </trkpt>
      <trkpt lat="43.5482" lon="0.29294">
        <ele>268.35</ele>
        <time>2021-08-19T08:24:27Z</time>
      </trkpt>
      <trkpt lat="43.54813" lon="0.29279">
        <ele>269.31</ele>
        <time>2021-08-19T08:24:34Z</time>
      </trkpt>
      <trkpt lat="43.54799" lon="0.29266">
        <ele>270.75</ele>
        <time>2021-08-19T08:24:42Z</time>
      </trkpt>
      <trkpt lat="43.54794" lon="0.29266">
        <ele>271.23</ele>
        <time>2021-08-19T08:24:45Z</time>
      </trkpt>
      <trkpt lat="43.54792" lon="0.29265">
        <ele>271.23</ele>
        <time>2021-08-19T08:24:46Z</time>
      </trkpt>
      <trkpt lat="43.54791" lon="0.29262">
        <ele>271.23</ele>
        <time>2021-08-19T08:24:47Z</time>
      </trkpt>
      <trkpt lat="43.5479" lon="0.29259">
        <ele>271.23</ele>
        <time>2021-08-19T08:24:48Z</time>
      </trkpt>
      <trkpt lat="43.5479" lon="0.29255">
        <ele>271.23</ele>
        <time>2021-08-19T08:24:49Z</time>
      </trkpt>
      <trkpt lat="43.54791" lon="0.29252">
        <ele>271.23</ele>
        <time>2021-08-19T08:24:50Z</time>
      </trkpt>
      <trkpt lat="43.54793" lon="0.29233">
        <ele>267.86</ele>
        <time>2021-08-19T08:24:54Z</time>
      </trkpt>
      <trkpt lat="43.54797" lon="0.29205">
        <ele>266.42</ele>
        <time>2021-08-19T08:24:58Z</time>
      </trkpt>
      <trkpt lat="43.54802" lon="0.29148">
        <ele>264.02</ele>
        <time>2021-08-19T08:25:04Z</time>
      </trkpt>
      <trkpt lat="43.54808" lon="0.29091">
        <ele>262.58</ele>
        <time>2021-08-19T08:25:10Z</time>
      </trkpt>
      <trkpt lat="43.54809" lon="0.29082">
        <ele>262.58</ele>
        <time>2021-08-19T08:25:11Z</time>
      </trkpt>
      <trkpt lat="43.54811" lon="0.29073">
        <ele>262.58</ele>
        <time>2021-08-19T08:25:12Z</time>
      </trkpt>
      <trkpt lat="43.54814" lon="0.29065">
        <ele>261.62</ele>
        <time>2021-08-19T08:25:13Z</time>
      </trkpt>
      <trkpt lat="43.54817" lon="0.29055">
        <ele>260.65</ele>
        <time>2021-08-19T08:25:14Z</time>
      </trkpt>
      <trkpt lat="43.54818" lon="0.29045">
        <ele>259.21</ele>
        <time>2021-08-19T08:25:15Z</time>
      </trkpt>
      <trkpt lat="43.54819" lon="0.29034">
        <ele>258.73</ele>
        <time>2021-08-19T08:25:16Z</time>
      </trkpt>
      <trkpt lat="43.54819" lon="0.29024">
        <ele>258.25</ele>
        <time>2021-08-19T08:25:17Z</time>
      </trkpt>
      <trkpt lat="43.5482" lon="0.29013">
        <ele>257.77</ele>
        <time>2021-08-19T08:25:18Z</time>
      </trkpt>
      <trkpt lat="43.54824" lon="0.28975">
        <ele>255.85</ele>
        <time>2021-08-19T08:25:21Z</time>
      </trkpt>
      <trkpt lat="43.54824" lon="0.28961">
        <ele>255.37</ele>
        <time>2021-08-19T08:25:22Z</time>
      </trkpt>
      <trkpt lat="43.54823" lon="0.28908">
        <ele>252.48</ele>
        <time>2021-08-19T08:25:26Z</time>
      </trkpt>
      <trkpt lat="43.54819" lon="0.28856">
        <ele>250.08</ele>
        <time>2021-08-19T08:25:30Z</time>
      </trkpt>
      <trkpt lat="43.54818" lon="0.28846">
        <ele>249.12</ele>
        <time>2021-08-19T08:25:31Z</time>
      </trkpt>
      <trkpt lat="43.54815" lon="0.28836">
        <ele>249.12</ele>
        <time>2021-08-19T08:25:32Z</time>
      </trkpt>
      <trkpt lat="43.54812" lon="0.28826">
        <ele>248.16</ele>
        <time>2021-08-19T08:25:33Z</time>
      </trkpt>
      <trkpt lat="43.5481" lon="0.28815">
        <ele>248.16</ele>
        <time>2021-08-19T08:25:34Z</time>
      </trkpt>
      <trkpt lat="43.54809" lon="0.28805">
        <ele>247.2</ele>
        <time>2021-08-19T08:25:35Z</time>
      </trkpt>
      <trkpt lat="43.54807" lon="0.28795">
        <ele>247.2</ele>
        <time>2021-08-19T08:25:36Z</time>
      </trkpt>
      <trkpt lat="43.54806" lon="0.28785">
        <ele>247.2</ele>
        <time>2021-08-19T08:25:37Z</time>
      </trkpt>
      <trkpt lat="43.54805" lon="0.28775">
        <ele>247.2</ele>
        <time>2021-08-19T08:25:38Z</time>
      </trkpt>
      <trkpt lat="43.54794" lon="0.287">
        <ele>244.31</ele>
        <time>2021-08-19T08:25:45Z</time>
      </trkpt>
      <trkpt lat="43.5479" lon="0.28659">
        <ele>242.87</ele>
        <time>2021-08-19T08:25:49Z</time>
      </trkpt>
      <trkpt lat="43.54787" lon="0.2865">
        <ele>242.87</ele>
        <time>2021-08-19T08:25:50Z</time>
      </trkpt>
      <trkpt lat="43.54779" lon="0.28633">
        <ele>242.39</ele>
        <time>2021-08-19T08:25:52Z</time>
      </trkpt>
      <trkpt lat="43.54764" lon="0.28588">
        <ele>243.35</ele>
        <time>2021-08-19T08:25:58Z</time>
      </trkpt>
      <trkpt lat="43.54756" lon="0.2856">
        <ele>244.31</ele>
        <time>2021-08-19T08:26:04Z</time>
      </trkpt>
      <trkpt lat="43.54753" lon="0.28536">
        <ele>245.27</ele>
        <time>2021-08-19T08:26:10Z</time>
      </trkpt>
      <trkpt lat="43.54756" lon="0.2851">
        <ele>245.75</ele>
        <time>2021-08-19T08:26:17Z</time>
      </trkpt>
      <trkpt lat="43.54758" lon="0.28506">
        <ele>245.75</ele>
        <time>2021-08-19T08:26:20Z</time>
      </trkpt>
      <trkpt lat="43.5476" lon="0.28493">
        <ele>245.27</ele>
        <time>2021-08-19T08:26:26Z</time>
      </trkpt>
      <trkpt lat="43.54763" lon="0.28486">
        <ele>245.27</ele>
        <time>2021-08-19T08:26:28Z</time>
      </trkpt>
      <trkpt lat="43.5476" lon="0.28467">
        <ele>241.43</ele>
        <time>2021-08-19T08:26:33Z</time>
      </trkpt>
      <trkpt lat="43.54747" lon="0.28456">
        <ele>237.58</ele>
        <time>2021-08-19T08:26:37Z</time>
      </trkpt>
      <trkpt lat="43.54742" lon="0.28449">
        <ele>235.66</ele>
        <time>2021-08-19T08:26:40Z</time>
      </trkpt>
      <trkpt lat="43.54738" lon="0.2844">
        <ele>233.26</ele>
        <time>2021-08-19T08:26:44Z</time>
      </trkpt>
      <trkpt lat="43.5473" lon="0.28432">
        <ele>229.41</ele>
        <time>2021-08-19T08:26:48Z</time>
      </trkpt>
      <trkpt lat="43.54724" lon="0.28431">
        <ele>226.05</ele>
        <time>2021-08-19T08:26:51Z</time>
      </trkpt>
      <trkpt lat="43.54722" lon="0.28432">
        <ele>225.09</ele>
        <time>2021-08-19T08:26:52Z</time>
      </trkpt>
      <trkpt lat="43.54706" lon="0.28441">
        <ele>220.76</ele>
        <time>2021-08-19T08:26:57Z</time>
      </trkpt>
      <trkpt lat="43.54695" lon="0.28439">
        <ele>216.91</ele>
        <time>2021-08-19T08:27:01Z</time>
      </trkpt>
      <trkpt lat="43.54685" lon="0.28433">
        <ele>213.55</ele>
        <time>2021-08-19T08:27:05Z</time>
      </trkpt>
      <trkpt lat="43.54684" lon="0.28427">
        <ele>212.59</ele>
        <time>2021-08-19T08:27:06Z</time>
      </trkpt>
      <trkpt lat="43.54685" lon="0.28422">
        <ele>212.11</ele>
        <time>2021-08-19T08:27:07Z</time>
      </trkpt>
      <trkpt lat="43.54687" lon="0.28418">
        <ele>212.11</ele>
        <time>2021-08-19T08:27:08Z</time>
      </trkpt>
      <trkpt lat="43.5469" lon="0.28415">
        <ele>212.11</ele>
        <time>2021-08-19T08:27:09Z</time>
      </trkpt>
      <trkpt lat="43.54693" lon="0.28411">
        <ele>211.63</ele>
        <time>2021-08-19T08:27:10Z</time>
      </trkpt>
      <trkpt lat="43.54695" lon="0.28408">
        <ele>210.67</ele>
        <time>2021-08-19T08:27:11Z</time>
      </trkpt>
      <trkpt lat="43.54697" lon="0.28403">
        <ele>210.19</ele>
        <time>2021-08-19T08:27:12Z</time>
      </trkpt>
      <trkpt lat="43.54697" lon="0.28385">
        <ele>207.3</ele>
        <time>2021-08-19T08:27:16Z</time>
      </trkpt>
      <trkpt lat="43.54694" lon="0.28383">
        <ele>206.82</ele>
        <time>2021-08-19T08:27:17Z</time>
      </trkpt>
      <trkpt lat="43.54684" lon="0.28383">
        <ele>203.94</ele>
        <time>2021-08-19T08:27:20Z</time>
      </trkpt>
      <trkpt lat="43.54682" lon="0.28381">
        <ele>203.46</ele>
        <time>2021-08-19T08:27:21Z</time>
      </trkpt>
      <trkpt lat="43.54679" lon="0.28379">
        <ele>202.49</ele>
        <time>2021-08-19T08:27:22Z</time>
      </trkpt>
      <trkpt lat="43.54676" lon="0.28374">
        <ele>201.53</ele>
        <time>2021-08-19T08:27:23Z</time>
      </trkpt>
      <trkpt lat="43.54673" lon="0.28369">
        <ele>200.57</ele>
        <time>2021-08-19T08:27:24Z</time>
      </trkpt>
      <trkpt lat="43.5467" lon="0.28362">
        <ele>199.61</ele>
        <time>2021-08-19T08:27:25Z</time>
      </trkpt>
      <trkpt lat="43.54668" lon="0.28356">
        <ele>199.13</ele>
        <time>2021-08-19T08:27:26Z</time>
      </trkpt>
      <trkpt lat="43.54668" lon="0.2835">
        <ele>198.17</ele>
        <time>2021-08-19T08:27:27Z</time>
      </trkpt>
      <trkpt lat="43.54669" lon="0.28343">
        <ele>197.21</ele>
        <time>2021-08-19T08:27:28Z</time>
      </trkpt>
      <trkpt lat="43.54667" lon="0.28337">
        <ele>196.73</ele>
        <time>2021-08-19T08:27:29Z</time>
      </trkpt>
      <trkpt lat="43.54665" lon="0.2833">
        <ele>196.25</ele>
        <time>2021-08-19T08:27:30Z</time>
      </trkpt>
      <trkpt lat="43.54658" lon="0.28315">
        <ele>194.8</ele>
        <time>2021-08-19T08:27:32Z</time>
      </trkpt>
      <trkpt lat="43.54655" lon="0.28308">
        <ele>194.8</ele>
        <time>2021-08-19T08:27:33Z</time>
      </trkpt>
      <trkpt lat="43.54652" lon="0.283">
        <ele>194.32</ele>
        <time>2021-08-19T08:27:34Z</time>
      </trkpt>
      <trkpt lat="43.54648" lon="0.28294">
        <ele>194.32</ele>
        <time>2021-08-19T08:27:35Z</time>
      </trkpt>
      <trkpt lat="43.54645" lon="0.28289">
        <ele>194.32</ele>
        <time>2021-08-19T08:27:36Z</time>
      </trkpt>
      <trkpt lat="43.54641" lon="0.28286">
        <ele>194.32</ele>
        <time>2021-08-19T08:27:37Z</time>
      </trkpt>
      <trkpt lat="43.54637" lon="0.28283">
        <ele>194.32</ele>
        <time>2021-08-19T08:27:38Z</time>
      </trkpt>
      <trkpt lat="43.54621" lon="0.28277">
        <ele>194.32</ele>
        <time>2021-08-19T08:27:43Z</time>
      </trkpt>
      <trkpt lat="43.54616" lon="0.2828">
        <ele>195.77</ele>
        <time>2021-08-19T08:27:45Z</time>
      </trkpt>
      <trkpt lat="43.54606" lon="0.28283">
        <ele>195.77</ele>
        <time>2021-08-19T08:27:49Z</time>
      </trkpt>
      <trkpt lat="43.54604" lon="0.28283">
        <ele>195.77</ele>
        <time>2021-08-19T08:27:50Z</time>
      </trkpt>
      <trkpt lat="43.54603" lon="0.28281">
        <ele>195.77</ele>
        <time>2021-08-19T08:27:51Z</time>
      </trkpt>
      <trkpt lat="43.54601" lon="0.28279">
        <ele>196.25</ele>
        <time>2021-08-19T08:27:52Z</time>
      </trkpt>
      <trkpt lat="43.546" lon="0.28277">
        <ele>196.25</ele>
        <time>2021-08-19T08:27:53Z</time>
      </trkpt>
      <trkpt lat="43.54599" lon="0.28275">
        <ele>196.25</ele>
        <time>2021-08-19T08:27:54Z</time>
      </trkpt>
      <trkpt lat="43.54598" lon="0.28273">
        <ele>196.73</ele>
        <time>2021-08-19T08:27:55Z</time>
      </trkpt>
      <trkpt lat="43.54598" lon="0.28271">
        <ele>196.73</ele>
        <time>2021-08-19T08:27:56Z</time>
      </trkpt>
      <trkpt lat="43.54597" lon="0.28269">
        <ele>196.73</ele>
        <time>2021-08-19T08:27:57Z</time>
      </trkpt>
      <trkpt lat="43.54596" lon="0.28267">
        <ele>196.73</ele>
        <time>2021-08-19T08:27:58Z</time>
      </trkpt>
      <trkpt lat="43.54595" lon="0.28265">
        <ele>197.21</ele>
        <time>2021-08-19T08:27:59Z</time>
      </trkpt>
      <trkpt lat="43.54593" lon="0.28263">
        <ele>197.21</ele>
        <time>2021-08-19T08:28:00Z</time>
      </trkpt>
      <trkpt lat="43.54592" lon="0.28261">
        <ele>197.21</ele>
        <time>2021-08-19T08:28:01Z</time>
      </trkpt>
      <trkpt lat="43.54583" lon="0.28247">
        <ele>198.17</ele>
        <time>2021-08-19T08:28:09Z</time>
      </trkpt>
      <trkpt lat="43.54576" lon="0.28237">
        <ele>199.13</ele>
        <time>2021-08-19T08:28:15Z</time>
      </trkpt>
      <trkpt lat="43.54574" lon="0.28237">
        <ele>199.13</ele>
        <time>2021-08-19T08:28:16Z</time>
      </trkpt>
      <trkpt lat="43.54573" lon="0.28235">
        <ele>199.13</ele>
        <time>2021-08-19T08:28:17Z</time>
      </trkpt>
      <trkpt lat="43.54572" lon="0.28233">
        <ele>199.61</ele>
        <time>2021-08-19T08:28:18Z</time>
      </trkpt>
      <trkpt lat="43.54571" lon="0.28232">
        <ele>199.61</ele>
        <time>2021-08-19T08:28:19Z</time>
      </trkpt>
      <trkpt lat="43.54567" lon="0.28224">
        <ele>199.61</ele>
        <time>2021-08-19T08:28:23Z</time>
      </trkpt>
      <trkpt lat="43.54562" lon="0.28217">
        <ele>200.09</ele>
        <time>2021-08-19T08:28:28Z</time>
      </trkpt>
      <trkpt lat="43.5456" lon="0.28209">
        <ele>200.09</ele>
        <time>2021-08-19T08:28:32Z</time>
      </trkpt>
      <trkpt lat="43.5456" lon="0.28207">
        <ele>200.09</ele>
        <time>2021-08-19T08:28:33Z</time>
      </trkpt>
      <trkpt lat="43.5456" lon="0.28205">
        <ele>200.09</ele>
        <time>2021-08-19T08:28:34Z</time>
      </trkpt>
      <trkpt lat="43.54559" lon="0.28196">
        <ele>201.53</ele>
        <time>2021-08-19T08:28:41Z</time>
      </trkpt>
      <trkpt lat="43.54558" lon="0.28189">
        <ele>202.01</ele>
        <time>2021-08-19T08:28:46Z</time>
      </trkpt>
      <trkpt lat="43.54558" lon="0.28176">
        <ele>202.98</ele>
        <time>2021-08-19T08:28:53Z</time>
      </trkpt>
      <trkpt lat="43.54561" lon="0.28159">
        <ele>204.42</ele>
        <time>2021-08-19T08:29:01Z</time>
      </trkpt>
      <trkpt lat="43.54561" lon="0.28148">
        <ele>205.38</ele>
        <time>2021-08-19T08:29:08Z</time>
      </trkpt>
      <trkpt lat="43.54561" lon="0.28135">
        <ele>206.82</ele>
        <time>2021-08-19T08:29:15Z</time>
      </trkpt>
      <trkpt lat="43.54561" lon="0.28133">
        <ele>206.82</ele>
        <time>2021-08-19T08:29:16Z</time>
      </trkpt>
      <trkpt lat="43.5456" lon="0.28131">
        <ele>206.82</ele>
        <time>2021-08-19T08:29:17Z</time>
      </trkpt>
      <trkpt lat="43.5456" lon="0.28128">
        <ele>207.3</ele>
        <time>2021-08-19T08:29:18Z</time>
      </trkpt>
      <trkpt lat="43.5456" lon="0.28126">
        <ele>207.3</ele>
        <time>2021-08-19T08:29:19Z</time>
      </trkpt>
      <trkpt lat="43.5456" lon="0.28124">
        <ele>207.3</ele>
        <time>2021-08-19T08:29:20Z</time>
      </trkpt>
      <trkpt lat="43.5456" lon="0.28122">
        <ele>207.78</ele>
        <time>2021-08-19T08:29:21Z</time>
      </trkpt>
      <trkpt lat="43.5456" lon="0.28119">
        <ele>207.78</ele>
        <time>2021-08-19T08:29:22Z</time>
      </trkpt>
      <trkpt lat="43.5456" lon="0.28117">
        <ele>207.78</ele>
        <time>2021-08-19T08:29:23Z</time>
      </trkpt>
      <trkpt lat="43.54559" lon="0.28115">
        <ele>208.26</ele>
        <time>2021-08-19T08:29:24Z</time>
      </trkpt>
      <trkpt lat="43.54559" lon="0.28113">
        <ele>208.26</ele>
        <time>2021-08-19T08:29:25Z</time>
      </trkpt>
      <trkpt lat="43.54559" lon="0.2811">
        <ele>208.26</ele>
        <time>2021-08-19T08:29:26Z</time>
      </trkpt>
      <trkpt lat="43.54556" lon="0.28095">
        <ele>208.26</ele>
        <time>2021-08-19T08:29:31Z</time>
      </trkpt>
      <trkpt lat="43.54556" lon="0.28092">
        <ele>208.26</ele>
        <time>2021-08-19T08:29:32Z</time>
      </trkpt>
      <trkpt lat="43.54556" lon="0.28089">
        <ele>208.74</ele>
        <time>2021-08-19T08:29:33Z</time>
      </trkpt>
      <trkpt lat="43.54555" lon="0.28086">
        <ele>208.74</ele>
        <time>2021-08-19T08:29:34Z</time>
      </trkpt>
      <trkpt lat="43.54555" lon="0.28083">
        <ele>208.74</ele>
        <time>2021-08-19T08:29:35Z</time>
      </trkpt>
      <trkpt lat="43.54555" lon="0.2808">
        <ele>208.74</ele>
        <time>2021-08-19T08:29:36Z</time>
      </trkpt>
      <trkpt lat="43.54556" lon="0.28076">
        <ele>209.22</ele>
        <time>2021-08-19T08:29:37Z</time>
      </trkpt>
      <trkpt lat="43.54556" lon="0.28072">
        <ele>209.22</ele>
        <time>2021-08-19T08:29:38Z</time>
      </trkpt>
      <trkpt lat="43.54558" lon="0.28048">
        <ele>209.7</ele>
        <time>2021-08-19T08:29:45Z</time>
      </trkpt>
      <trkpt lat="43.54561" lon="0.28027">
        <ele>210.67</ele>
        <time>2021-08-19T08:29:52Z</time>
      </trkpt>
      <trkpt lat="43.54559" lon="0.2801">
        <ele>212.11</ele>
        <time>2021-08-19T08:29:58Z</time>
      </trkpt>
      <trkpt lat="43.54552" lon="0.27991">
        <ele>213.07</ele>
        <time>2021-08-19T08:30:06Z</time>
      </trkpt>
      <trkpt lat="43.54548" lon="0.2798">
        <ele>213.55</ele>
        <time>2021-08-19T08:30:12Z</time>
      </trkpt>
      <trkpt lat="43.54537" lon="0.27964">
        <ele>215.47</ele>
        <time>2021-08-19T08:30:20Z</time>
      </trkpt>
      <trkpt lat="43.54531" lon="0.27952">
        <ele>216.43</ele>
        <time>2021-08-19T08:30:26Z</time>
      </trkpt>
      <trkpt lat="43.54522" lon="0.27935">
        <ele>217.4</ele>
        <time>2021-08-19T08:30:34Z</time>
      </trkpt>
      <trkpt lat="43.54512" lon="0.2792">
        <ele>218.36</ele>
        <time>2021-08-19T08:30:42Z</time>
      </trkpt>
      <trkpt lat="43.54505" lon="0.27911">
        <ele>218.84</ele>
        <time>2021-08-19T08:30:47Z</time>
      </trkpt>
      <trkpt lat="43.54491" lon="0.27899">
        <ele>220.76</ele>
        <time>2021-08-19T08:30:55Z</time>
      </trkpt>
      <trkpt lat="43.54476" lon="0.27883">
        <ele>221.72</ele>
        <time>2021-08-19T08:31:04Z</time>
      </trkpt>
      <trkpt lat="43.54474" lon="0.2788">
        <ele>222.2</ele>
        <time>2021-08-19T08:31:05Z</time>
      </trkpt>
      <trkpt lat="43.54461" lon="0.27869">
        <ele>222.68</ele>
        <time>2021-08-19T08:31:11Z</time>
      </trkpt>
      <trkpt lat="43.54459" lon="0.27868">
        <ele>222.68</ele>
        <time>2021-08-19T08:31:12Z</time>
      </trkpt>
      <trkpt lat="43.54446" lon="0.27857">
        <ele>223.64</ele>
        <time>2021-08-19T08:31:20Z</time>
      </trkpt>
      <trkpt lat="43.54432" lon="0.27847">
        <ele>225.09</ele>
        <time>2021-08-19T08:31:27Z</time>
      </trkpt>
      <trkpt lat="43.54424" lon="0.27841">
        <ele>225.57</ele>
        <time>2021-08-19T08:31:31Z</time>
      </trkpt>
      <trkpt lat="43.5442" lon="0.27837">
        <ele>226.53</ele>
        <time>2021-08-19T08:31:34Z</time>
      </trkpt>
      <trkpt lat="43.54418" lon="0.27835">
        <ele>226.53</ele>
        <time>2021-08-19T08:31:35Z</time>
      </trkpt>
      <trkpt lat="43.54416" lon="0.27833">
        <ele>227.01</ele>
        <time>2021-08-19T08:31:36Z</time>
      </trkpt>
      <trkpt lat="43.54413" lon="0.2783">
        <ele>227.01</ele>
        <time>2021-08-19T08:31:37Z</time>
      </trkpt>
      <trkpt lat="43.54411" lon="0.27828">
        <ele>227.01</ele>
        <time>2021-08-19T08:31:38Z</time>
      </trkpt>
      <trkpt lat="43.54409" lon="0.27824">
        <ele>227.97</ele>
        <time>2021-08-19T08:31:39Z</time>
      </trkpt>
      <trkpt lat="43.54407" lon="0.27822">
        <ele>228.45</ele>
        <time>2021-08-19T08:31:40Z</time>
      </trkpt>
      <trkpt lat="43.54406" lon="0.27819">
        <ele>228.45</ele>
        <time>2021-08-19T08:31:41Z</time>
      </trkpt>
      <trkpt lat="43.54399" lon="0.27805">
        <ele>229.41</ele>
        <time>2021-08-19T08:31:47Z</time>
      </trkpt>
      <trkpt lat="43.54394" lon="0.27791">
        <ele>230.85</ele>
        <time>2021-08-19T08:31:53Z</time>
      </trkpt>
      <trkpt lat="43.54393" lon="0.27789">
        <ele>231.33</ele>
        <time>2021-08-19T08:31:54Z</time>
      </trkpt>
      <trkpt lat="43.54392" lon="0.27787">
        <ele>231.33</ele>
        <time>2021-08-19T08:31:55Z</time>
      </trkpt>
      <trkpt lat="43.54391" lon="0.27785">
        <ele>231.33</ele>
        <time>2021-08-19T08:31:56Z</time>
      </trkpt>
      <trkpt lat="43.5439" lon="0.27783">
        <ele>231.33</ele>
        <time>2021-08-19T08:31:57Z</time>
      </trkpt>
      <trkpt lat="43.54386" lon="0.27772">
        <ele>232.3</ele>
        <time>2021-08-19T08:32:02Z</time>
      </trkpt>
      <trkpt lat="43.54386" lon="0.2777">
        <ele>232.3</ele>
        <time>2021-08-19T08:32:03Z</time>
      </trkpt>
      <trkpt lat="43.54385" lon="0.27767">
        <ele>232.3</ele>
        <time>2021-08-19T08:32:04Z</time>
      </trkpt>
      <trkpt lat="43.54384" lon="0.27745">
        <ele>233.26</ele>
        <time>2021-08-19T08:32:12Z</time>
      </trkpt>
      <trkpt lat="43.54385" lon="0.27728">
        <ele>234.22</ele>
        <time>2021-08-19T08:32:18Z</time>
      </trkpt>
      <trkpt lat="43.54382" lon="0.27714">
        <ele>235.66</ele>
        <time>2021-08-19T08:32:26Z</time>
      </trkpt>
      <trkpt lat="43.54381" lon="0.27708">
        <ele>236.62</ele>
        <time>2021-08-19T08:32:30Z</time>
      </trkpt>
      <trkpt lat="43.54381" lon="0.27707">
        <ele>237.1</ele>
        <time>2021-08-19T08:32:31Z</time>
      </trkpt>
      <trkpt lat="43.54378" lon="0.27696">
        <ele>238.54</ele>
        <time>2021-08-19T08:32:39Z</time>
      </trkpt>
      <trkpt lat="43.54377" lon="0.27694">
        <ele>239.02</ele>
        <time>2021-08-19T08:32:40Z</time>
      </trkpt>
      <trkpt lat="43.54376" lon="0.27691">
        <ele>239.02</ele>
        <time>2021-08-19T08:32:41Z</time>
      </trkpt>
      <trkpt lat="43.54375" lon="0.27689">
        <ele>239.02</ele>
        <time>2021-08-19T08:32:42Z</time>
      </trkpt>
      <trkpt lat="43.54375" lon="0.27687">
        <ele>239.02</ele>
        <time>2021-08-19T08:32:43Z</time>
      </trkpt>
      <trkpt lat="43.5437" lon="0.27669">
        <ele>239.99</ele>
        <time>2021-08-19T08:32:50Z</time>
      </trkpt>
      <trkpt lat="43.54367" lon="0.27646">
        <ele>240.95</ele>
        <time>2021-08-19T08:32:58Z</time>
      </trkpt>
      <trkpt lat="43.54362" lon="0.27619">
        <ele>241.91</ele>
        <time>2021-08-19T08:33:07Z</time>
      </trkpt>
      <trkpt lat="43.54357" lon="0.27592">
        <ele>242.87</ele>
        <time>2021-08-19T08:33:15Z</time>
      </trkpt>
      <trkpt lat="43.54353" lon="0.27569">
        <ele>243.83</ele>
        <time>2021-08-19T08:33:21Z</time>
      </trkpt>
      <trkpt lat="43.54349" lon="0.27529">
        <ele>244.31</ele>
        <time>2021-08-19T08:33:30Z</time>
      </trkpt>
      <trkpt lat="43.54347" lon="0.27497">
        <ele>244.79</ele>
        <time>2021-08-19T08:33:37Z</time>
      </trkpt>
      <trkpt lat="43.54346" lon="0.27459">
        <ele>245.27</ele>
        <time>2021-08-19T08:33:45Z</time>
      </trkpt>
      <trkpt lat="43.54341" lon="0.27437">
        <ele>246.23</ele>
        <time>2021-08-19T08:33:51Z</time>
      </trkpt>
      <trkpt lat="43.54339" lon="0.27432">
        <ele>246.23</ele>
        <time>2021-08-19T08:33:52Z</time>
      </trkpt>
      <trkpt lat="43.54338" lon="0.27408">
        <ele>246.23</ele>
        <time>2021-08-19T08:33:56Z</time>
      </trkpt>
      <trkpt lat="43.54343" lon="0.27379">
        <ele>246.72</ele>
        <time>2021-08-19T08:34:02Z</time>
      </trkpt>
      <trkpt lat="43.54344" lon="0.27344">
        <ele>247.2</ele>
        <time>2021-08-19T08:34:09Z</time>
      </trkpt>
      <trkpt lat="43.54343" lon="0.27332">
        <ele>247.2</ele>
        <time>2021-08-19T08:34:11Z</time>
      </trkpt>
      <trkpt lat="43.54342" lon="0.2729">
        <ele>247.68</ele>
        <time>2021-08-19T08:34:18Z</time>
      </trkpt>
      <trkpt lat="43.54343" lon="0.27257">
        <ele>248.64</ele>
        <time>2021-08-19T08:34:25Z</time>
      </trkpt>
      <trkpt lat="43.54337" lon="0.27229">
        <ele>249.12</ele>
        <time>2021-08-19T08:34:31Z</time>
      </trkpt>
      <trkpt lat="43.54328" lon="0.27199">
        <ele>249.6</ele>
        <time>2021-08-19T08:34:38Z</time>
      </trkpt>
      <trkpt lat="43.54325" lon="0.27178">
        <ele>249.6</ele>
        <time>2021-08-19T08:34:43Z</time>
      </trkpt>
      <trkpt lat="43.54319" lon="0.27144">
        <ele>250.08</ele>
        <time>2021-08-19T08:34:49Z</time>
      </trkpt>
      <trkpt lat="43.54306" lon="0.27103">
        <ele>250.08</ele>
        <time>2021-08-19T08:34:56Z</time>
      </trkpt>
      <trkpt lat="43.54301" lon="0.27092">
        <ele>250.08</ele>
        <time>2021-08-19T08:34:58Z</time>
      </trkpt>
      <trkpt lat="43.54292" lon="0.27074">
        <ele>250.08</ele>
        <time>2021-08-19T08:35:01Z</time>
      </trkpt>
      <trkpt lat="43.54289" lon="0.2707">
        <ele>250.56</ele>
        <time>2021-08-19T08:35:02Z</time>
      </trkpt>
      <trkpt lat="43.54283" lon="0.27061">
        <ele>250.56</ele>
        <time>2021-08-19T08:35:05Z</time>
      </trkpt>
      <trkpt lat="43.5428" lon="0.27059">
        <ele>250.56</ele>
        <time>2021-08-19T08:35:06Z</time>
      </trkpt>
      <trkpt lat="43.54262" lon="0.27048">
        <ele>251.04</ele>
        <time>2021-08-19T08:35:11Z</time>
      </trkpt>
      <trkpt lat="43.54249" lon="0.27039">
        <ele>252</ele>
        <time>2021-08-19T08:35:17Z</time>
      </trkpt>
      <trkpt lat="43.54242" lon="0.27028">
        <ele>253.93</ele>
        <time>2021-08-19T08:35:23Z</time>
      </trkpt>
      <trkpt lat="43.54228" lon="0.27009">
        <ele>255.85</ele>
        <time>2021-08-19T08:35:32Z</time>
      </trkpt>
      <trkpt lat="43.54223" lon="0.26995">
        <ele>256.81</ele>
        <time>2021-08-19T08:35:38Z</time>
      </trkpt>
      <trkpt lat="43.5422" lon="0.2699">
        <ele>257.29</ele>
        <time>2021-08-19T08:35:40Z</time>
      </trkpt>
      <trkpt lat="43.54218" lon="0.26988">
        <ele>257.77</ele>
        <time>2021-08-19T08:35:41Z</time>
      </trkpt>
      <trkpt lat="43.54216" lon="0.26985">
        <ele>257.77</ele>
        <time>2021-08-19T08:35:42Z</time>
      </trkpt>
      <trkpt lat="43.54214" lon="0.26983">
        <ele>257.77</ele>
        <time>2021-08-19T08:35:43Z</time>
      </trkpt>
      <trkpt lat="43.54212" lon="0.2698">
        <ele>257.77</ele>
        <time>2021-08-19T08:35:44Z</time>
      </trkpt>
      <trkpt lat="43.54211" lon="0.26977">
        <ele>257.77</ele>
        <time>2021-08-19T08:35:45Z</time>
      </trkpt>
      <trkpt lat="43.5421" lon="0.26974">
        <ele>258.25</ele>
        <time>2021-08-19T08:35:46Z</time>
      </trkpt>
      <trkpt lat="43.5421" lon="0.26971">
        <ele>258.25</ele>
        <time>2021-08-19T08:35:47Z</time>
      </trkpt>
      <trkpt lat="43.54209" lon="0.26968">
        <ele>258.25</ele>
        <time>2021-08-19T08:35:48Z</time>
      </trkpt>
      <trkpt lat="43.5421" lon="0.26964">
        <ele>258.25</ele>
        <time>2021-08-19T08:35:49Z</time>
      </trkpt>
      <trkpt lat="43.5421" lon="0.26952">
        <ele>258.73</ele>
        <time>2021-08-19T08:35:53Z</time>
      </trkpt>
      <trkpt lat="43.54204" lon="0.26929">
        <ele>259.21</ele>
        <time>2021-08-19T08:35:59Z</time>
      </trkpt>
      <trkpt lat="43.54205" lon="0.26903">
        <ele>261.14</ele>
        <time>2021-08-19T08:36:07Z</time>
      </trkpt>
      <trkpt lat="43.54205" lon="0.26883">
        <ele>261.14</ele>
        <time>2021-08-19T08:36:13Z</time>
      </trkpt>
      <trkpt lat="43.54196" lon="0.26859">
        <ele>258.73</ele>
        <time>2021-08-19T08:36:18Z</time>
      </trkpt>
      <trkpt lat="43.54193" lon="0.26855">
        <ele>257.77</ele>
        <time>2021-08-19T08:36:19Z</time>
      </trkpt>
      <trkpt lat="43.5419" lon="0.26851">
        <ele>256.81</ele>
        <time>2021-08-19T08:36:20Z</time>
      </trkpt>
      <trkpt lat="43.54184" lon="0.26848">
        <ele>256.33</ele>
        <time>2021-08-19T08:36:21Z</time>
      </trkpt>
      <trkpt lat="43.54177" lon="0.26845">
        <ele>256.33</ele>
        <time>2021-08-19T08:36:22Z</time>
      </trkpt>
      <trkpt lat="43.54163" lon="0.26838">
        <ele>255.85</ele>
        <time>2021-08-19T08:36:24Z</time>
      </trkpt>
      <trkpt lat="43.54158" lon="0.26832">
        <ele>255.37</ele>
        <time>2021-08-19T08:36:25Z</time>
      </trkpt>
      <trkpt lat="43.54145" lon="0.26814">
        <ele>255.85</ele>
        <time>2021-08-19T08:36:28Z</time>
      </trkpt>
      <trkpt lat="43.54138" lon="0.26801">
        <ele>255.85</ele>
        <time>2021-08-19T08:36:30Z</time>
      </trkpt>
      <trkpt lat="43.54135" lon="0.26797">
        <ele>255.85</ele>
        <time>2021-08-19T08:36:31Z</time>
      </trkpt>
      <trkpt lat="43.54131" lon="0.26794">
        <ele>255.85</ele>
        <time>2021-08-19T08:36:32Z</time>
      </trkpt>
      <trkpt lat="43.54111" lon="0.26777">
        <ele>256.81</ele>
        <time>2021-08-19T08:36:39Z</time>
      </trkpt>
      <trkpt lat="43.54107" lon="0.26772">
        <ele>256.81</ele>
        <time>2021-08-19T08:36:41Z</time>
      </trkpt>
      <trkpt lat="43.54075" lon="0.26753">
        <ele>257.29</ele>
        <time>2021-08-19T08:36:48Z</time>
      </trkpt>
      <trkpt lat="43.54045" lon="0.26724">
        <ele>258.73</ele>
        <time>2021-08-19T08:36:56Z</time>
      </trkpt>
      <trkpt lat="43.5402" lon="0.26696">
        <ele>260.17</ele>
        <time>2021-08-19T08:37:05Z</time>
      </trkpt>
      <trkpt lat="43.54004" lon="0.26675">
        <ele>261.62</ele>
        <time>2021-08-19T08:37:14Z</time>
      </trkpt>
      <trkpt lat="43.53989" lon="0.2665">
        <ele>263.06</ele>
        <time>2021-08-19T08:37:24Z</time>
      </trkpt>
      <trkpt lat="43.53973" lon="0.26625">
        <ele>264.98</ele>
        <time>2021-08-19T08:37:34Z</time>
      </trkpt>
      <trkpt lat="43.53967" lon="0.26616">
        <ele>265.94</ele>
        <time>2021-08-19T08:37:40Z</time>
      </trkpt>
      <trkpt lat="43.53963" lon="0.26601">
        <ele>266.9</ele>
        <time>2021-08-19T08:37:48Z</time>
      </trkpt>
      <trkpt lat="43.53962" lon="0.26598">
        <ele>267.38</ele>
        <time>2021-08-19T08:37:50Z</time>
      </trkpt>
      <trkpt lat="43.53962" lon="0.26596">
        <ele>267.38</ele>
        <time>2021-08-19T08:37:51Z</time>
      </trkpt>
      <trkpt lat="43.53962" lon="0.26594">
        <ele>267.86</ele>
        <time>2021-08-19T08:37:52Z</time>
      </trkpt>
      <trkpt lat="43.53961" lon="0.26592">
        <ele>267.86</ele>
        <time>2021-08-19T08:37:53Z</time>
      </trkpt>
      <trkpt lat="43.53961" lon="0.2659">
        <ele>267.86</ele>
        <time>2021-08-19T08:37:54Z</time>
      </trkpt>
      <trkpt lat="43.53958" lon="0.26579">
        <ele>269.31</ele>
        <time>2021-08-19T08:37:59Z</time>
      </trkpt>
      <trkpt lat="43.53957" lon="0.26577">
        <ele>269.31</ele>
        <time>2021-08-19T08:38:00Z</time>
      </trkpt>
      <trkpt lat="43.53957" lon="0.26574">
        <ele>269.31</ele>
        <time>2021-08-19T08:38:01Z</time>
      </trkpt>
      <trkpt lat="43.53951" lon="0.26548">
        <ele>270.27</ele>
        <time>2021-08-19T08:38:10Z</time>
      </trkpt>
      <trkpt lat="43.53938" lon="0.26538">
        <ele>270.75</ele>
        <time>2021-08-19T08:38:16Z</time>
      </trkpt>
      <trkpt lat="43.53933" lon="0.26536">
        <ele>268.83</ele>
        <time>2021-08-19T08:38:17Z</time>
      </trkpt>
      <trkpt lat="43.53928" lon="0.26536">
        <ele>267.86</ele>
        <time>2021-08-19T08:38:18Z</time>
      </trkpt>
      <trkpt lat="43.53901" lon="0.26537">
        <ele>264.02</ele>
        <time>2021-08-19T08:38:22Z</time>
      </trkpt>
      <trkpt lat="43.53867" lon="0.26536">
        <ele>260.65</ele>
        <time>2021-08-19T08:38:26Z</time>
      </trkpt>
      <trkpt lat="43.53849" lon="0.26536">
        <ele>259.21</ele>
        <time>2021-08-19T08:38:28Z</time>
      </trkpt>
      <trkpt lat="43.53839" lon="0.26537">
        <ele>259.21</ele>
        <time>2021-08-19T08:38:29Z</time>
      </trkpt>
      <trkpt lat="43.5383" lon="0.26537">
        <ele>258.73</ele>
        <time>2021-08-19T08:38:30Z</time>
      </trkpt>
      <trkpt lat="43.53821" lon="0.26536">
        <ele>259.21</ele>
        <time>2021-08-19T08:38:31Z</time>
      </trkpt>
      <trkpt lat="43.53812" lon="0.26534">
        <ele>259.21</ele>
        <time>2021-08-19T08:38:32Z</time>
      </trkpt>
      <trkpt lat="43.53805" lon="0.26532">
        <ele>259.21</ele>
        <time>2021-08-19T08:38:33Z</time>
      </trkpt>
      <trkpt lat="43.53798" lon="0.26529">
        <ele>259.21</ele>
        <time>2021-08-19T08:38:34Z</time>
      </trkpt>
      <trkpt lat="43.53771" lon="0.26517">
        <ele>261.14</ele>
        <time>2021-08-19T08:38:39Z</time>
      </trkpt>
      <trkpt lat="43.53753" lon="0.26509">
        <ele>262.1</ele>
        <time>2021-08-19T08:38:45Z</time>
      </trkpt>
      <trkpt lat="43.53737" lon="0.26505">
        <ele>263.54</ele>
        <time>2021-08-19T08:38:54Z</time>
      </trkpt>
      <trkpt lat="43.5373" lon="0.26503">
        <ele>264.02</ele>
        <time>2021-08-19T08:38:58Z</time>
      </trkpt>
      <trkpt lat="43.53728" lon="0.26502">
        <ele>264.5</ele>
        <time>2021-08-19T08:38:59Z</time>
      </trkpt>
      <trkpt lat="43.53726" lon="0.26502">
        <ele>264.5</ele>
        <time>2021-08-19T08:39:00Z</time>
      </trkpt>
      <trkpt lat="43.53708" lon="0.26497">
        <ele>266.42</ele>
        <time>2021-08-19T08:39:10Z</time>
      </trkpt>
      <trkpt lat="43.53707" lon="0.26496">
        <ele>266.42</ele>
        <time>2021-08-19T08:39:11Z</time>
      </trkpt>
      <trkpt lat="43.53704" lon="0.26496">
        <ele>266.9</ele>
        <time>2021-08-19T08:39:12Z</time>
      </trkpt>
      <trkpt lat="43.53696" lon="0.26495">
        <ele>267.86</ele>
        <time>2021-08-19T08:39:19Z</time>
      </trkpt>
      <trkpt lat="43.53688" lon="0.26493">
        <ele>269.31</ele>
        <time>2021-08-19T08:39:28Z</time>
      </trkpt>
      <trkpt lat="43.53683" lon="0.26491">
        <ele>269.79</ele>
        <time>2021-08-19T08:39:35Z</time>
      </trkpt>
      <trkpt lat="43.53677" lon="0.2649">
        <ele>271.71</ele>
        <time>2021-08-19T08:39:44Z</time>
      </trkpt>
      <trkpt lat="43.53672" lon="0.26489">
        <ele>272.19</ele>
        <time>2021-08-19T08:39:51Z</time>
      </trkpt>
      <trkpt lat="43.53665" lon="0.26486">
        <ele>272.67</ele>
        <time>2021-08-19T08:39:59Z</time>
      </trkpt>
      <trkpt lat="43.53662" lon="0.26486">
        <ele>273.63</ele>
        <time>2021-08-19T08:40:05Z</time>
      </trkpt>
      <trkpt lat="43.53661" lon="0.26486">
        <ele>273.63</ele>
        <time>2021-08-19T08:40:06Z</time>
      </trkpt>
      <trkpt lat="43.5365" lon="0.26482">
        <ele>274.11</ele>
        <time>2021-08-19T08:40:13Z</time>
      </trkpt>
      <trkpt lat="43.53649" lon="0.26481">
        <ele>275.07</ele>
        <time>2021-08-19T08:40:14Z</time>
      </trkpt>
      <trkpt lat="43.53647" lon="0.26481">
        <ele>275.07</ele>
        <time>2021-08-19T08:40:15Z</time>
      </trkpt>
      <trkpt lat="43.53645" lon="0.26481">
        <ele>275.07</ele>
        <time>2021-08-19T08:40:16Z</time>
      </trkpt>
      <trkpt lat="43.53644" lon="0.26481">
        <ele>275.56</ele>
        <time>2021-08-19T08:40:17Z</time>
      </trkpt>
      <trkpt lat="43.53631" lon="0.26479">
        <ele>277.48</ele>
        <time>2021-08-19T08:40:25Z</time>
      </trkpt>
      <trkpt lat="43.53618" lon="0.26481">
        <ele>278.92</ele>
        <time>2021-08-19T08:40:33Z</time>
      </trkpt>
      <trkpt lat="43.53607" lon="0.26485">
        <ele>280.36</ele>
        <time>2021-08-19T08:40:40Z</time>
      </trkpt>
      <trkpt lat="43.53594" lon="0.26491">
        <ele>281.32</ele>
        <time>2021-08-19T08:40:47Z</time>
      </trkpt>
      <trkpt lat="43.53588" lon="0.26495">
        <ele>281.8</ele>
        <time>2021-08-19T08:40:51Z</time>
      </trkpt>
      <trkpt lat="43.53571" lon="0.26504">
        <ele>282.28</ele>
        <time>2021-08-19T08:40:59Z</time>
      </trkpt>
      <trkpt lat="43.53564" lon="0.2651">
        <ele>282.28</ele>
        <time>2021-08-19T08:41:04Z</time>
      </trkpt>
      <trkpt lat="43.53562" lon="0.26512">
        <ele>282.28</ele>
        <time>2021-08-19T08:41:05Z</time>
      </trkpt>
      <trkpt lat="43.53547" lon="0.26521">
        <ele>282.28</ele>
        <time>2021-08-19T08:41:10Z</time>
      </trkpt>
      <trkpt lat="43.53535" lon="0.26526">
        <ele>280.36</ele>
        <time>2021-08-19T08:41:13Z</time>
      </trkpt>
      <trkpt lat="43.53529" lon="0.26527">
        <ele>279.4</ele>
        <time>2021-08-19T08:41:14Z</time>
      </trkpt>
      <trkpt lat="43.53524" lon="0.26528">
        <ele>278.92</ele>
        <time>2021-08-19T08:41:15Z</time>
      </trkpt>
      <trkpt lat="43.53517" lon="0.2653">
        <ele>277.96</ele>
        <time>2021-08-19T08:41:16Z</time>
      </trkpt>
      <trkpt lat="43.5351" lon="0.26533">
        <ele>277</ele>
        <time>2021-08-19T08:41:17Z</time>
      </trkpt>
      <trkpt lat="43.53504" lon="0.26536">
        <ele>275.56</ele>
        <time>2021-08-19T08:41:18Z</time>
      </trkpt>
      <trkpt lat="43.53449" lon="0.26567">
        <ele>273.15</ele>
        <time>2021-08-19T08:41:25Z</time>
      </trkpt>
      <trkpt lat="43.53437" lon="0.26573">
        <ele>273.15</ele>
        <time>2021-08-19T08:41:27Z</time>
      </trkpt>
      <trkpt lat="43.53432" lon="0.26573">
        <ele>273.15</ele>
        <time>2021-08-19T08:41:28Z</time>
      </trkpt>
      <trkpt lat="43.53429" lon="0.2657">
        <ele>273.15</ele>
        <time>2021-08-19T08:41:29Z</time>
      </trkpt>
      <trkpt lat="43.53428" lon="0.26566">
        <ele>273.15</ele>
        <time>2021-08-19T08:41:30Z</time>
      </trkpt>
      <trkpt lat="43.53426" lon="0.26562">
        <ele>273.15</ele>
        <time>2021-08-19T08:41:31Z</time>
      </trkpt>
      <trkpt lat="43.53424" lon="0.26559">
        <ele>273.15</ele>
        <time>2021-08-19T08:41:32Z</time>
      </trkpt>
      <trkpt lat="43.53409" lon="0.26517">
        <ele>273.15</ele>
        <time>2021-08-19T08:41:40Z</time>
      </trkpt>
      <trkpt lat="43.53393" lon="0.26463">
        <ele>272.19</ele>
        <time>2021-08-19T08:41:48Z</time>
      </trkpt>
      <trkpt lat="43.53386" lon="0.2642">
        <ele>272.19</ele>
        <time>2021-08-19T08:41:55Z</time>
      </trkpt>
      <trkpt lat="43.53386" lon="0.26413">
        <ele>272.19</ele>
        <time>2021-08-19T08:41:56Z</time>
      </trkpt>
      <trkpt lat="43.53385" lon="0.26387">
        <ele>273.63</ele>
        <time>2021-08-19T08:42:01Z</time>
      </trkpt>
      <trkpt lat="43.53383" lon="0.26369">
        <ele>274.11</ele>
        <time>2021-08-19T08:42:06Z</time>
      </trkpt>
      <trkpt lat="43.53374" lon="0.26362">
        <ele>275.56</ele>
        <time>2021-08-19T08:42:12Z</time>
      </trkpt>
      <trkpt lat="43.53363" lon="0.26371">
        <ele>276.52</ele>
        <time>2021-08-19T08:42:19Z</time>
      </trkpt>
      <trkpt lat="43.53351" lon="0.26373">
        <ele>277.96</ele>
        <time>2021-08-19T08:42:26Z</time>
      </trkpt>
      <trkpt lat="43.53331" lon="0.26373">
        <ele>279.88</ele>
        <time>2021-08-19T08:42:36Z</time>
      </trkpt>
      <trkpt lat="43.53313" lon="0.26372">
        <ele>280.36</ele>
        <time>2021-08-19T08:42:43Z</time>
      </trkpt>
      <trkpt lat="43.53291" lon="0.26373">
        <ele>280.84</ele>
        <time>2021-08-19T08:42:49Z</time>
      </trkpt>
      <trkpt lat="43.53254" lon="0.26374">
        <ele>280.84</ele>
        <time>2021-08-19T08:42:57Z</time>
      </trkpt>
      <trkpt lat="43.53249" lon="0.26374">
        <ele>280.84</ele>
        <time>2021-08-19T08:42:58Z</time>
      </trkpt>
      <trkpt lat="43.53217" lon="0.26375">
        <ele>278.92</ele>
        <time>2021-08-19T08:43:04Z</time>
      </trkpt>
      <trkpt lat="43.53166" lon="0.26377">
        <ele>276.52</ele>
        <time>2021-08-19T08:43:12Z</time>
      </trkpt>
      <trkpt lat="43.53092" lon="0.26381">
        <ele>274.59</ele>
        <time>2021-08-19T08:43:22Z</time>
      </trkpt>
      <trkpt lat="43.53035" lon="0.26384">
        <ele>274.59</ele>
        <time>2021-08-19T08:43:30Z</time>
      </trkpt>
      <trkpt lat="43.53012" lon="0.26385">
        <ele>276.04</ele>
        <time>2021-08-19T08:43:34Z</time>
      </trkpt>
      <trkpt lat="43.52978" lon="0.26386">
        <ele>277</ele>
        <time>2021-08-19T08:43:41Z</time>
      </trkpt>
      <trkpt lat="43.52958" lon="0.26385">
        <ele>278.92</ele>
        <time>2021-08-19T08:43:47Z</time>
      </trkpt>
      <trkpt lat="43.52956" lon="0.26382">
        <ele>278.92</ele>
        <time>2021-08-19T08:43:48Z</time>
      </trkpt>
      <trkpt lat="43.52954" lon="0.26378">
        <ele>279.88</ele>
        <time>2021-08-19T08:43:49Z</time>
      </trkpt>
      <trkpt lat="43.52953" lon="0.26375">
        <ele>279.88</ele>
        <time>2021-08-19T08:43:50Z</time>
      </trkpt>
      <trkpt lat="43.52952" lon="0.26339">
        <ele>282.28</ele>
        <time>2021-08-19T08:43:59Z</time>
      </trkpt>
      <trkpt lat="43.52954" lon="0.26293">
        <ele>283.73</ele>
        <time>2021-08-19T08:44:09Z</time>
      </trkpt>
      <trkpt lat="43.52954" lon="0.26277">
        <ele>283.25</ele>
        <time>2021-08-19T08:44:12Z</time>
      </trkpt>
      <trkpt lat="43.52955" lon="0.2627">
        <ele>283.25</ele>
        <time>2021-08-19T08:44:13Z</time>
      </trkpt>
      <trkpt lat="43.52955" lon="0.26263">
        <ele>282.28</ele>
        <time>2021-08-19T08:44:14Z</time>
      </trkpt>
      <trkpt lat="43.52955" lon="0.26256">
        <ele>282.28</ele>
        <time>2021-08-19T08:44:15Z</time>
      </trkpt>
      <trkpt lat="43.52955" lon="0.26248">
        <ele>281.32</ele>
        <time>2021-08-19T08:44:16Z</time>
      </trkpt>
      <trkpt lat="43.5296" lon="0.2618">
        <ele>280.36</ele>
        <time>2021-08-19T08:44:25Z</time>
      </trkpt>
      <trkpt lat="43.52961" lon="0.2616">
        <ele>280.36</ele>
        <time>2021-08-19T08:44:28Z</time>
      </trkpt>
      <trkpt lat="43.52962" lon="0.26146">
        <ele>278.92</ele>
        <time>2021-08-19T08:44:30Z</time>
      </trkpt>
      <trkpt lat="43.52964" lon="0.2614">
        <ele>278.44</ele>
        <time>2021-08-19T08:44:31Z</time>
      </trkpt>
      <trkpt lat="43.52968" lon="0.26135">
        <ele>277.96</ele>
        <time>2021-08-19T08:44:32Z</time>
      </trkpt>
      <trkpt lat="43.52971" lon="0.2613">
        <ele>277.96</ele>
        <time>2021-08-19T08:44:33Z</time>
      </trkpt>
      <trkpt lat="43.52973" lon="0.26123">
        <ele>277.48</ele>
        <time>2021-08-19T08:44:34Z</time>
      </trkpt>
      <trkpt lat="43.52973" lon="0.26119">
        <ele>276.52</ele>
        <time>2021-08-19T08:44:35Z</time>
      </trkpt>
      <trkpt lat="43.52973" lon="0.26114">
        <ele>276.04</ele>
        <time>2021-08-19T08:44:36Z</time>
      </trkpt>
      <trkpt lat="43.52972" lon="0.26109">
        <ele>275.07</ele>
        <time>2021-08-19T08:44:37Z</time>
      </trkpt>
      <trkpt lat="43.5297" lon="0.26101">
        <ele>274.11</ele>
        <time>2021-08-19T08:44:38Z</time>
      </trkpt>
      <trkpt lat="43.52963" lon="0.26077">
        <ele>271.23</ele>
        <time>2021-08-19T08:44:41Z</time>
      </trkpt>
      <trkpt lat="43.52958" lon="0.26052">
        <ele>267.86</ele>
        <time>2021-08-19T08:44:44Z</time>
      </trkpt>
      <trkpt lat="43.52947" lon="0.26007">
        <ele>264.5</ele>
        <time>2021-08-19T08:44:49Z</time>
      </trkpt>
      <trkpt lat="43.52944" lon="0.25999">
        <ele>263.54</ele>
        <time>2021-08-19T08:44:50Z</time>
      </trkpt>
      <trkpt lat="43.5294" lon="0.25992">
        <ele>262.58</ele>
        <time>2021-08-19T08:44:51Z</time>
      </trkpt>
      <trkpt lat="43.52906" lon="0.2594">
        <ele>261.14</ele>
        <time>2021-08-19T08:44:59Z</time>
      </trkpt>
      <trkpt lat="43.52903" lon="0.25935">
        <ele>261.14</ele>
        <time>2021-08-19T08:45:00Z</time>
      </trkpt>
      <trkpt lat="43.52897" lon="0.25923">
        <ele>262.58</ele>
        <time>2021-08-19T08:45:03Z</time>
      </trkpt>
      <trkpt lat="43.52884" lon="0.25894">
        <ele>263.54</ele>
        <time>2021-08-19T08:45:11Z</time>
      </trkpt>
      <trkpt lat="43.52879" lon="0.25869">
        <ele>264.98</ele>
        <time>2021-08-19T08:45:19Z</time>
      </trkpt>
      <trkpt lat="43.52885" lon="0.25845">
        <ele>265.94</ele>
        <time>2021-08-19T08:45:27Z</time>
      </trkpt>
      <trkpt lat="43.52888" lon="0.25816">
        <ele>264.5</ele>
        <time>2021-08-19T08:45:33Z</time>
      </trkpt>
      <trkpt lat="43.52888" lon="0.2581">
        <ele>264.5</ele>
        <time>2021-08-19T08:45:34Z</time>
      </trkpt>
      <trkpt lat="43.52888" lon="0.25804">
        <ele>264.02</ele>
        <time>2021-08-19T08:45:35Z</time>
      </trkpt>
      <trkpt lat="43.52886" lon="0.25741">
        <ele>261.14</ele>
        <time>2021-08-19T08:45:44Z</time>
      </trkpt>
      <trkpt lat="43.52887" lon="0.25734">
        <ele>260.17</ele>
        <time>2021-08-19T08:45:45Z</time>
      </trkpt>
      <trkpt lat="43.52889" lon="0.25727">
        <ele>260.17</ele>
        <time>2021-08-19T08:45:46Z</time>
      </trkpt>
      <trkpt lat="43.52891" lon="0.25721">
        <ele>259.21</ele>
        <time>2021-08-19T08:45:47Z</time>
      </trkpt>
      <trkpt lat="43.52893" lon="0.25715">
        <ele>258.25</ele>
        <time>2021-08-19T08:45:48Z</time>
      </trkpt>
      <trkpt lat="43.52895" lon="0.25704">
        <ele>256.33</ele>
        <time>2021-08-19T08:45:50Z</time>
      </trkpt>
      <trkpt lat="43.52894" lon="0.25697">
        <ele>255.85</ele>
        <time>2021-08-19T08:45:51Z</time>
      </trkpt>
      <trkpt lat="43.52893" lon="0.25691">
        <ele>255.85</ele>
        <time>2021-08-19T08:45:52Z</time>
      </trkpt>
      <trkpt lat="43.52892" lon="0.25685">
        <ele>255.85</ele>
        <time>2021-08-19T08:45:53Z</time>
      </trkpt>
      <trkpt lat="43.5289" lon="0.25677">
        <ele>254.89</ele>
        <time>2021-08-19T08:45:54Z</time>
      </trkpt>
      <trkpt lat="43.52887" lon="0.25655">
        <ele>253.44</ele>
        <time>2021-08-19T08:45:57Z</time>
      </trkpt>
      <trkpt lat="43.52884" lon="0.2562">
        <ele>250.08</ele>
        <time>2021-08-19T08:46:01Z</time>
      </trkpt>
      <trkpt lat="43.52877" lon="0.25581">
        <ele>247.68</ele>
        <time>2021-08-19T08:46:05Z</time>
      </trkpt>
      <trkpt lat="43.52864" lon="0.25542">
        <ele>244.79</ele>
        <time>2021-08-19T08:46:09Z</time>
      </trkpt>
      <trkpt lat="43.5286" lon="0.25531">
        <ele>243.83</ele>
        <time>2021-08-19T08:46:10Z</time>
      </trkpt>
      <trkpt lat="43.52858" lon="0.2552">
        <ele>243.35</ele>
        <time>2021-08-19T08:46:11Z</time>
      </trkpt>
      <trkpt lat="43.52855" lon="0.25499">
        <ele>241.91</ele>
        <time>2021-08-19T08:46:13Z</time>
      </trkpt>
      <trkpt lat="43.52852" lon="0.25489">
        <ele>241.91</ele>
        <time>2021-08-19T08:46:14Z</time>
      </trkpt>
      <trkpt lat="43.52849" lon="0.2548">
        <ele>240.95</ele>
        <time>2021-08-19T08:46:15Z</time>
      </trkpt>
      <trkpt lat="43.52846" lon="0.25471">
        <ele>240.47</ele>
        <time>2021-08-19T08:46:16Z</time>
      </trkpt>
      <trkpt lat="43.52843" lon="0.25464">
        <ele>240.47</ele>
        <time>2021-08-19T08:46:17Z</time>
      </trkpt>
      <trkpt lat="43.52839" lon="0.25457">
        <ele>240.47</ele>
        <time>2021-08-19T08:46:18Z</time>
      </trkpt>
      <trkpt lat="43.52835" lon="0.25451">
        <ele>240.47</ele>
        <time>2021-08-19T08:46:19Z</time>
      </trkpt>
      <trkpt lat="43.52833" lon="0.25445">
        <ele>240.47</ele>
        <time>2021-08-19T08:46:20Z</time>
      </trkpt>
      <trkpt lat="43.52823" lon="0.2542">
        <ele>237.1</ele>
        <time>2021-08-19T08:46:23Z</time>
      </trkpt>
      <trkpt lat="43.52797" lon="0.25371">
        <ele>233.26</ele>
        <time>2021-08-19T08:46:28Z</time>
      </trkpt>
      <trkpt lat="43.52774" lon="0.25341">
        <ele>229.89</ele>
        <time>2021-08-19T08:46:31Z</time>
      </trkpt>
      <trkpt lat="43.5276" lon="0.25324">
        <ele>229.41</ele>
        <time>2021-08-19T08:46:33Z</time>
      </trkpt>
      <trkpt lat="43.52737" lon="0.25299">
        <ele>225.57</ele>
        <time>2021-08-19T08:46:37Z</time>
      </trkpt>
      <trkpt lat="43.52733" lon="0.25293">
        <ele>224.61</ele>
        <time>2021-08-19T08:46:38Z</time>
      </trkpt>
      <trkpt lat="43.5273" lon="0.25288">
        <ele>223.64</ele>
        <time>2021-08-19T08:46:39Z</time>
      </trkpt>
      <trkpt lat="43.52721" lon="0.25275">
        <ele>220.28</ele>
        <time>2021-08-19T08:46:41Z</time>
      </trkpt>
      <trkpt lat="43.52716" lon="0.25266">
        <ele>217.88</ele>
        <time>2021-08-19T08:46:42Z</time>
      </trkpt>
      <trkpt lat="43.52707" lon="0.25247">
        <ele>214.03</ele>
        <time>2021-08-19T08:46:44Z</time>
      </trkpt>
      <trkpt lat="43.52697" lon="0.25231">
        <ele>211.15</ele>
        <time>2021-08-19T08:46:46Z</time>
      </trkpt>
      <trkpt lat="43.52693" lon="0.25225">
        <ele>209.22</ele>
        <time>2021-08-19T08:46:47Z</time>
      </trkpt>
      <trkpt lat="43.52689" lon="0.25218">
        <ele>208.26</ele>
        <time>2021-08-19T08:46:48Z</time>
      </trkpt>
      <trkpt lat="43.52684" lon="0.25214">
        <ele>206.34</ele>
        <time>2021-08-19T08:46:49Z</time>
      </trkpt>
      <trkpt lat="43.52674" lon="0.25205">
        <ele>205.86</ele>
        <time>2021-08-19T08:46:51Z</time>
      </trkpt>
      <trkpt lat="43.52671" lon="0.25201">
        <ele>205.86</ele>
        <time>2021-08-19T08:46:52Z</time>
      </trkpt>
      <trkpt lat="43.52669" lon="0.25197">
        <ele>205.86</ele>
        <time>2021-08-19T08:46:53Z</time>
      </trkpt>
      <trkpt lat="43.52668" lon="0.25193">
        <ele>205.86</ele>
        <time>2021-08-19T08:46:54Z</time>
      </trkpt>
      <trkpt lat="43.52667" lon="0.2519">
        <ele>205.86</ele>
        <time>2021-08-19T08:46:55Z</time>
      </trkpt>
      <trkpt lat="43.52666" lon="0.25189">
        <ele>205.86</ele>
        <time>2021-08-19T08:46:56Z</time>
      </trkpt>
      <trkpt lat="43.52664" lon="0.25186">
        <ele>205.86</ele>
        <time>2021-08-19T08:46:57Z</time>
      </trkpt>
      <trkpt lat="43.52656" lon="0.25169">
        <ele>207.78</ele>
        <time>2021-08-19T08:47:05Z</time>
      </trkpt>
      <trkpt lat="43.5265" lon="0.25157">
        <ele>209.22</ele>
        <time>2021-08-19T08:47:12Z</time>
      </trkpt>
      <trkpt lat="43.52648" lon="0.25152">
        <ele>209.22</ele>
        <time>2021-08-19T08:47:14Z</time>
      </trkpt>
      <trkpt lat="43.52648" lon="0.2515">
        <ele>209.22</ele>
        <time>2021-08-19T08:47:15Z</time>
      </trkpt>
      <trkpt lat="43.52647" lon="0.25148">
        <ele>209.7</ele>
        <time>2021-08-19T08:47:16Z</time>
      </trkpt>
      <trkpt lat="43.52646" lon="0.25145">
        <ele>209.7</ele>
        <time>2021-08-19T08:47:17Z</time>
      </trkpt>
      <trkpt lat="43.52645" lon="0.25143">
        <ele>209.7</ele>
        <time>2021-08-19T08:47:18Z</time>
      </trkpt>
      <trkpt lat="43.52645" lon="0.25141">
        <ele>209.7</ele>
        <time>2021-08-19T08:47:19Z</time>
      </trkpt>
      <trkpt lat="43.52639" lon="0.25126">
        <ele>210.67</ele>
        <time>2021-08-19T08:47:27Z</time>
      </trkpt>
      <trkpt lat="43.52628" lon="0.25109">
        <ele>211.63</ele>
        <time>2021-08-19T08:47:36Z</time>
      </trkpt>
      <trkpt lat="43.52619" lon="0.2509">
        <ele>212.59</ele>
        <time>2021-08-19T08:47:44Z</time>
      </trkpt>
      <trkpt lat="43.52609" lon="0.25071">
        <ele>213.55</ele>
        <time>2021-08-19T08:47:52Z</time>
      </trkpt>
      <trkpt lat="43.52597" lon="0.25041">
        <ele>213.55</ele>
        <time>2021-08-19T08:48:01Z</time>
      </trkpt>
      <trkpt lat="43.52586" lon="0.25013">
        <ele>214.51</ele>
        <time>2021-08-19T08:48:09Z</time>
      </trkpt>
      <trkpt lat="43.52576" lon="0.24983">
        <ele>214.99</ele>
        <time>2021-08-19T08:48:17Z</time>
      </trkpt>
      <trkpt lat="43.52563" lon="0.24954">
        <ele>214.99</ele>
        <time>2021-08-19T08:48:24Z</time>
      </trkpt>
      <trkpt lat="43.52555" lon="0.24928">
        <ele>214.99</ele>
        <time>2021-08-19T08:48:31Z</time>
      </trkpt>
      <trkpt lat="43.52542" lon="0.24906">
        <ele>214.99</ele>
        <time>2021-08-19T08:48:37Z</time>
      </trkpt>
      <trkpt lat="43.52532" lon="0.24887">
        <ele>214.99</ele>
        <time>2021-08-19T08:48:43Z</time>
      </trkpt>
      <trkpt lat="43.52523" lon="0.24868">
        <ele>214.99</ele>
        <time>2021-08-19T08:48:49Z</time>
      </trkpt>
      <trkpt lat="43.52512" lon="0.2485">
        <ele>215.47</ele>
        <time>2021-08-19T08:48:56Z</time>
      </trkpt>
      <trkpt lat="43.52499" lon="0.24832">
        <ele>215.95</ele>
        <time>2021-08-19T08:49:03Z</time>
      </trkpt>
      <trkpt lat="43.52479" lon="0.24805">
        <ele>216.43</ele>
        <time>2021-08-19T08:49:12Z</time>
      </trkpt>
      <trkpt lat="43.52455" lon="0.24776">
        <ele>216.43</ele>
        <time>2021-08-19T08:49:21Z</time>
      </trkpt>
      <trkpt lat="43.5244" lon="0.24757">
        <ele>216.91</ele>
        <time>2021-08-19T08:49:28Z</time>
      </trkpt>
      <trkpt lat="43.52419" lon="0.24732">
        <ele>217.88</ele>
        <time>2021-08-19T08:49:37Z</time>
      </trkpt>
      <trkpt lat="43.52396" lon="0.24701">
        <ele>215.47</ele>
        <time>2021-08-19T08:49:44Z</time>
      </trkpt>
      <trkpt lat="43.5237" lon="0.24655">
        <ele>212.59</ele>
        <time>2021-08-19T08:49:51Z</time>
      </trkpt>
      <trkpt lat="43.52334" lon="0.24595">
        <ele>210.19</ele>
        <time>2021-08-19T08:50:00Z</time>
      </trkpt>
      <trkpt lat="43.52314" lon="0.24558">
        <ele>209.7</ele>
        <time>2021-08-19T08:50:06Z</time>
      </trkpt>
      <trkpt lat="43.52307" lon="0.24548">
        <ele>209.22</ele>
        <time>2021-08-19T08:50:08Z</time>
      </trkpt>
      <trkpt lat="43.52303" lon="0.24546">
        <ele>208.74</ele>
        <time>2021-08-19T08:50:09Z</time>
      </trkpt>
      <trkpt lat="43.52298" lon="0.24546">
        <ele>207.78</ele>
        <time>2021-08-19T08:50:10Z</time>
      </trkpt>
      <trkpt lat="43.52287" lon="0.24546">
        <ele>206.34</ele>
        <time>2021-08-19T08:50:12Z</time>
      </trkpt>
      <trkpt lat="43.5228" lon="0.24544">
        <ele>205.86</ele>
        <time>2021-08-19T08:50:13Z</time>
      </trkpt>
      <trkpt lat="43.52274" lon="0.24541">
        <ele>205.38</ele>
        <time>2021-08-19T08:50:14Z</time>
      </trkpt>
      <trkpt lat="43.52267" lon="0.24537">
        <ele>203.94</ele>
        <time>2021-08-19T08:50:15Z</time>
      </trkpt>
      <trkpt lat="43.5226" lon="0.24533">
        <ele>203.46</ele>
        <time>2021-08-19T08:50:16Z</time>
      </trkpt>
      <trkpt lat="43.52245" lon="0.24522">
        <ele>201.53</ele>
        <time>2021-08-19T08:50:18Z</time>
      </trkpt>
      <trkpt lat="43.52222" lon="0.24504">
        <ele>199.61</ele>
        <time>2021-08-19T08:50:22Z</time>
      </trkpt>
      <trkpt lat="43.52206" lon="0.24495">
        <ele>196.25</ele>
        <time>2021-08-19T08:50:25Z</time>
      </trkpt>
      <trkpt lat="43.52201" lon="0.24492">
        <ele>195.28</ele>
        <time>2021-08-19T08:50:26Z</time>
      </trkpt>
      <trkpt lat="43.52197" lon="0.24486">
        <ele>194.8</ele>
        <time>2021-08-19T08:50:27Z</time>
      </trkpt>
      <trkpt lat="43.52189" lon="0.24475">
        <ele>193.84</ele>
        <time>2021-08-19T08:50:29Z</time>
      </trkpt>
      <trkpt lat="43.52185" lon="0.24471">
        <ele>193.84</ele>
        <time>2021-08-19T08:50:30Z</time>
      </trkpt>
      <trkpt lat="43.52181" lon="0.24468">
        <ele>193.84</ele>
        <time>2021-08-19T08:50:31Z</time>
      </trkpt>
      <trkpt lat="43.52176" lon="0.24465">
        <ele>193.84</ele>
        <time>2021-08-19T08:50:32Z</time>
      </trkpt>
      <trkpt lat="43.52173" lon="0.24464">
        <ele>194.8</ele>
        <time>2021-08-19T08:50:33Z</time>
      </trkpt>
      <trkpt lat="43.5217" lon="0.24462">
        <ele>196.25</ele>
        <time>2021-08-19T08:50:34Z</time>
      </trkpt>
      <trkpt lat="43.52168" lon="0.24461">
        <ele>196.25</ele>
        <time>2021-08-19T08:50:35Z</time>
      </trkpt>
      <trkpt lat="43.52167" lon="0.2446">
        <ele>196.25</ele>
        <time>2021-08-19T08:50:36Z</time>
      </trkpt>
      <trkpt lat="43.52166" lon="0.2446">
        <ele>196.25</ele>
        <time>2021-08-19T08:50:37Z</time>
      </trkpt>
      <trkpt lat="43.52165" lon="0.24459">
        <ele>196.73</ele>
        <time>2021-08-19T08:50:38Z</time>
      </trkpt>
      <trkpt lat="43.52164" lon="0.24458">
        <ele>196.73</ele>
        <time>2021-08-19T08:50:39Z</time>
      </trkpt>
      <trkpt lat="43.52162" lon="0.24458">
        <ele>196.73</ele>
        <time>2021-08-19T08:50:40Z</time>
      </trkpt>
      <trkpt lat="43.52161" lon="0.24457">
        <ele>197.21</ele>
        <time>2021-08-19T08:50:41Z</time>
      </trkpt>
      <trkpt lat="43.5216" lon="0.24456">
        <ele>197.69</ele>
        <time>2021-08-19T08:50:42Z</time>
      </trkpt>
      <trkpt lat="43.52158" lon="0.24455">
        <ele>198.17</ele>
        <time>2021-08-19T08:50:43Z</time>
      </trkpt>
      <trkpt lat="43.52157" lon="0.24454">
        <ele>198.17</ele>
        <time>2021-08-19T08:50:44Z</time>
      </trkpt>
      <trkpt lat="43.52155" lon="0.24452">
        <ele>198.17</ele>
        <time>2021-08-19T08:50:45Z</time>
      </trkpt>
      <trkpt lat="43.52153" lon="0.24451">
        <ele>198.17</ele>
        <time>2021-08-19T08:50:46Z</time>
      </trkpt>
      <trkpt lat="43.52151" lon="0.2445">
        <ele>198.65</ele>
        <time>2021-08-19T08:50:47Z</time>
      </trkpt>
      <trkpt lat="43.52149" lon="0.24449">
        <ele>198.65</ele>
        <time>2021-08-19T08:50:48Z</time>
      </trkpt>
      <trkpt lat="43.52147" lon="0.24448">
        <ele>198.65</ele>
        <time>2021-08-19T08:50:49Z</time>
      </trkpt>
      <trkpt lat="43.52145" lon="0.24447">
        <ele>198.65</ele>
        <time>2021-08-19T08:50:50Z</time>
      </trkpt>
      <trkpt lat="43.52143" lon="0.24446">
        <ele>198.65</ele>
        <time>2021-08-19T08:50:51Z</time>
      </trkpt>
      <trkpt lat="43.52126" lon="0.24429">
        <ele>199.13</ele>
        <time>2021-08-19T08:50:59Z</time>
      </trkpt>
      <trkpt lat="43.52111" lon="0.2441">
        <ele>199.13</ele>
        <time>2021-08-19T08:51:06Z</time>
      </trkpt>
      <trkpt lat="43.52099" lon="0.24392">
        <ele>197.69</ele>
        <time>2021-08-19T08:51:11Z</time>
      </trkpt>
      <trkpt lat="43.52082" lon="0.2437">
        <ele>197.69</ele>
        <time>2021-08-19T08:51:18Z</time>
      </trkpt>
      <trkpt lat="43.52061" lon="0.24348">
        <ele>197.69</ele>
        <time>2021-08-19T08:51:26Z</time>
      </trkpt>
      <trkpt lat="43.52038" lon="0.24326">
        <ele>197.69</ele>
        <time>2021-08-19T08:51:33Z</time>
      </trkpt>
      <trkpt lat="43.5201" lon="0.243">
        <ele>197.69</ele>
        <time>2021-08-19T08:51:41Z</time>
      </trkpt>
      <trkpt lat="43.51996" lon="0.24287">
        <ele>197.69</ele>
        <time>2021-08-19T08:51:45Z</time>
      </trkpt>
      <trkpt lat="43.51961" lon="0.24259">
        <ele>196.25</ele>
        <time>2021-08-19T08:51:54Z</time>
      </trkpt>
      <trkpt lat="43.51939" lon="0.24241">
        <ele>195.28</ele>
        <time>2021-08-19T08:52:01Z</time>
      </trkpt>
      <trkpt lat="43.5191" lon="0.24218">
        <ele>193.84</ele>
        <time>2021-08-19T08:52:09Z</time>
      </trkpt>
      <trkpt lat="43.51884" lon="0.24196">
        <ele>192.4</ele>
        <time>2021-08-19T08:52:16Z</time>
      </trkpt>
      <trkpt lat="43.5187" lon="0.24184">
        <ele>191.44</ele>
        <time>2021-08-19T08:52:19Z</time>
      </trkpt>
      <trkpt lat="43.51858" lon="0.24172">
        <ele>189.52</ele>
        <time>2021-08-19T08:52:22Z</time>
      </trkpt>
      <trkpt lat="43.51854" lon="0.24167">
        <ele>189.52</ele>
        <time>2021-08-19T08:52:23Z</time>
      </trkpt>
      <trkpt lat="43.51832" lon="0.24147">
        <ele>188.08</ele>
        <time>2021-08-19T08:52:28Z</time>
      </trkpt>
      <trkpt lat="43.51827" lon="0.24144">
        <ele>187.59</ele>
        <time>2021-08-19T08:52:29Z</time>
      </trkpt>
      <trkpt lat="43.51822" lon="0.24142">
        <ele>187.59</ele>
        <time>2021-08-19T08:52:30Z</time>
      </trkpt>
      <trkpt lat="43.51817" lon="0.24141">
        <ele>187.59</ele>
        <time>2021-08-19T08:52:31Z</time>
      </trkpt>
      <trkpt lat="43.51812" lon="0.24138">
        <ele>187.59</ele>
        <time>2021-08-19T08:52:32Z</time>
      </trkpt>
      <trkpt lat="43.51808" lon="0.24135">
        <ele>187.59</ele>
        <time>2021-08-19T08:52:33Z</time>
      </trkpt>
      <trkpt lat="43.51804" lon="0.24133">
        <ele>187.59</ele>
        <time>2021-08-19T08:52:34Z</time>
      </trkpt>
      <trkpt lat="43.51801" lon="0.24132">
        <ele>188.08</ele>
        <time>2021-08-19T08:52:35Z</time>
      </trkpt>
      <trkpt lat="43.51798" lon="0.24131">
        <ele>188.08</ele>
        <time>2021-08-19T08:52:36Z</time>
      </trkpt>
      <trkpt lat="43.51795" lon="0.24131">
        <ele>188.08</ele>
        <time>2021-08-19T08:52:37Z</time>
      </trkpt>
      <trkpt lat="43.51793" lon="0.2413">
        <ele>188.08</ele>
        <time>2021-08-19T08:52:38Z</time>
      </trkpt>
      <trkpt lat="43.51791" lon="0.24131">
        <ele>188.08</ele>
        <time>2021-08-19T08:52:39Z</time>
      </trkpt>
      <trkpt lat="43.51788" lon="0.24131">
        <ele>188.08</ele>
        <time>2021-08-19T08:52:40Z</time>
      </trkpt>
      <trkpt lat="43.51768" lon="0.24139">
        <ele>188.08</ele>
        <time>2021-08-19T08:52:47Z</time>
      </trkpt>
      <trkpt lat="43.51746" lon="0.24147">
        <ele>188.08</ele>
        <time>2021-08-19T08:52:53Z</time>
      </trkpt>
      <trkpt lat="43.51706" lon="0.24146">
        <ele>187.59</ele>
        <time>2021-08-19T08:53:03Z</time>
      </trkpt>
      <trkpt lat="43.51683" lon="0.24142">
        <ele>187.59</ele>
        <time>2021-08-19T08:53:09Z</time>
      </trkpt>
      <trkpt lat="43.51675" lon="0.2414">
        <ele>187.59</ele>
        <time>2021-08-19T08:53:11Z</time>
      </trkpt>
      <trkpt lat="43.51673" lon="0.24137">
        <ele>187.59</ele>
        <time>2021-08-19T08:53:12Z</time>
      </trkpt>
      <trkpt lat="43.51671" lon="0.24133">
        <ele>187.59</ele>
        <time>2021-08-19T08:53:13Z</time>
      </trkpt>
      <trkpt lat="43.51671" lon="0.2413">
        <ele>187.59</ele>
        <time>2021-08-19T08:53:14Z</time>
      </trkpt>
      <trkpt lat="43.51672" lon="0.24127">
        <ele>187.59</ele>
        <time>2021-08-19T08:53:15Z</time>
      </trkpt>
      <trkpt lat="43.51672" lon="0.24123">
        <ele>188.56</ele>
        <time>2021-08-19T08:53:17Z</time>
      </trkpt>
      <trkpt lat="43.51673" lon="0.24121">
        <ele>188.56</ele>
        <time>2021-08-19T08:53:18Z</time>
      </trkpt>
      <trkpt lat="43.51673" lon="0.24119">
        <ele>188.56</ele>
        <time>2021-08-19T08:53:19Z</time>
      </trkpt>
      <trkpt lat="43.51674" lon="0.24117">
        <ele>188.56</ele>
        <time>2021-08-19T08:53:20Z</time>
      </trkpt>
      <trkpt lat="43.51674" lon="0.24115">
        <ele>189.04</ele>
        <time>2021-08-19T08:53:21Z</time>
      </trkpt>
      <trkpt lat="43.51674" lon="0.24113">
        <ele>189.04</ele>
        <time>2021-08-19T08:53:22Z</time>
      </trkpt>
      <trkpt lat="43.51675" lon="0.24111">
        <ele>189.04</ele>
        <time>2021-08-19T08:53:23Z</time>
      </trkpt>
      <trkpt lat="43.51675" lon="0.24109">
        <ele>189.04</ele>
        <time>2021-08-19T08:53:24Z</time>
      </trkpt>
      <trkpt lat="43.51676" lon="0.24108">
        <ele>189.52</ele>
        <time>2021-08-19T08:53:25Z</time>
      </trkpt>
      <trkpt lat="43.51677" lon="0.24105">
        <ele>189.52</ele>
        <time>2021-08-19T08:53:26Z</time>
      </trkpt>
      <trkpt lat="43.51682" lon="0.2409">
        <ele>190.48</ele>
        <time>2021-08-19T08:53:34Z</time>
      </trkpt>
      <trkpt lat="43.51688" lon="0.24072">
        <ele>191.44</ele>
        <time>2021-08-19T08:53:42Z</time>
      </trkpt>
      <trkpt lat="43.51695" lon="0.24053">
        <ele>192.4</ele>
        <time>2021-08-19T08:53:51Z</time>
      </trkpt>
      <trkpt lat="43.51703" lon="0.24029">
        <ele>192.4</ele>
        <time>2021-08-19T08:54:00Z</time>
      </trkpt>
      <trkpt lat="43.51702" lon="0.24027">
        <ele>192.4</ele>
        <time>2021-08-19T08:54:01Z</time>
      </trkpt>
      <trkpt lat="43.517" lon="0.24025">
        <ele>192.4</ele>
        <time>2021-08-19T08:54:02Z</time>
      </trkpt>
      <trkpt lat="43.51699" lon="0.24023">
        <ele>192.4</ele>
        <time>2021-08-19T08:54:03Z</time>
      </trkpt>
      <trkpt lat="43.51697" lon="0.24018">
        <ele>192.4</ele>
        <time>2021-08-19T08:54:08Z</time>
      </trkpt>
      <trkpt lat="43.51697" lon="0.24018">
        <ele>192.4</ele>
        <time>2021-08-19T08:54:21Z</time>
      </trkpt>
      <trkpt lat="43.51697" lon="0.24018">
        <ele>192.4</ele>
        <time>2021-08-19T08:54:47Z</time>
      </trkpt>
      <trkpt lat="43.51697" lon="0.24017">
        <ele>192.4</ele>
        <time>2021-08-19T08:55:02Z</time>
      </trkpt>
      <trkpt lat="43.51695" lon="0.24017">
        <ele>192.4</ele>
        <time>2021-08-19T08:55:21Z</time>
      </trkpt>
      <trkpt lat="43.51696" lon="0.24018">
        <ele>192.4</ele>
        <time>2021-08-19T08:55:35Z</time>
      </trkpt>
      <trkpt lat="43.51696" lon="0.24018">
        <ele>192.4</ele>
        <time>2021-08-19T08:55:52Z</time>
      </trkpt>
      <trkpt lat="43.51697" lon="0.24018">
        <ele>192.4</ele>
        <time>2021-08-19T08:56:07Z</time>
      </trkpt>
      <trkpt lat="43.51697" lon="0.24019">
        <ele>192.4</ele>
        <time>2021-08-19T08:56:21Z</time>
      </trkpt>
      <trkpt lat="43.51696" lon="0.24019">
        <ele>192.4</ele>
        <time>2021-08-19T08:56:37Z</time>
      </trkpt>
      <trkpt lat="43.51696" lon="0.2402">
        <ele>192.4</ele>
        <time>2021-08-19T08:56:51Z</time>
      </trkpt>
      <trkpt lat="43.51698" lon="0.24018">
        <ele>192.4</ele>
        <time>2021-08-19T08:57:17Z</time>
      </trkpt>
      <trkpt lat="43.51697" lon="0.24017">
        <ele>191.92</ele>
        <time>2021-08-19T08:57:41Z</time>
      </trkpt>
      <trkpt lat="43.51698" lon="0.24018">
        <ele>191.92</ele>
        <time>2021-08-19T08:58:01Z</time>
      </trkpt>
      <trkpt lat="43.51697" lon="0.24018">
        <ele>191.92</ele>
        <time>2021-08-19T08:58:16Z</time>
      </trkpt>
      <trkpt lat="43.51696" lon="0.24017">
        <ele>191.92</ele>
        <time>2021-08-19T08:58:38Z</time>
      </trkpt>
      <trkpt lat="43.51695" lon="0.24017">
        <ele>191.92</ele>
        <time>2021-08-19T08:58:58Z</time>
      </trkpt>
      <trkpt lat="43.51697" lon="0.24017">
        <ele>191.92</ele>
        <time>2021-08-19T08:59:21Z</time>
      </trkpt>
      <trkpt lat="43.51697" lon="0.24018">
        <ele>191.92</ele>
        <time>2021-08-19T08:59:39Z</time>
      </trkpt>
      <trkpt lat="43.51697" lon="0.24016">
        <ele>191.92</ele>
        <time>2021-08-19T08:59:59Z</time>
      </trkpt>
      <trkpt lat="43.51696" lon="0.24018">
        <ele>191.92</ele>
        <time>2021-08-19T09:00:17Z</time>
      </trkpt>
      <trkpt lat="43.51696" lon="0.24019">
        <ele>191.92</ele>
        <time>2021-08-19T09:00:34Z</time>
      </trkpt>
      <trkpt lat="43.51697" lon="0.2402">
        <ele>191.92</ele>
        <time>2021-08-19T09:00:57Z</time>
      </trkpt>
      <trkpt lat="43.51695" lon="0.2402">
        <ele>191.92</ele>
        <time>2021-08-19T09:01:12Z</time>
      </trkpt>
      <trkpt lat="43.51695" lon="0.24018">
        <ele>191.92</ele>
        <time>2021-08-19T09:01:31Z</time>
      </trkpt>
      <trkpt lat="43.51694" lon="0.2402">
        <ele>191.92</ele>
        <time>2021-08-19T09:01:45Z</time>
      </trkpt>
      <trkpt lat="43.51694" lon="0.24018">
        <ele>191.92</ele>
        <time>2021-08-19T09:02:11Z</time>
      </trkpt>
      <trkpt lat="43.51694" lon="0.24018">
        <ele>191.92</ele>
        <time>2021-08-19T09:02:26Z</time>
      </trkpt>
      <trkpt lat="43.5169" lon="0.24013">
        <ele>191.92</ele>
        <time>2021-08-19T09:02:35Z</time>
      </trkpt>
      <trkpt lat="43.51678" lon="0.23998">
        <ele>191.92</ele>
        <time>2021-08-19T09:02:45Z</time>
      </trkpt>
      <trkpt lat="43.51668" lon="0.23987">
        <ele>191.92</ele>
        <time>2021-08-19T09:02:52Z</time>
      </trkpt>
      <trkpt lat="43.51654" lon="0.23969">
        <ele>191.92</ele>
        <time>2021-08-19T09:03:00Z</time>
      </trkpt>
      <trkpt lat="43.51639" lon="0.23955">
        <ele>191.92</ele>
        <time>2021-08-19T09:03:08Z</time>
      </trkpt>
      <trkpt lat="43.51628" lon="0.23941">
        <ele>191.92</ele>
        <time>2021-08-19T09:03:15Z</time>
      </trkpt>
      <trkpt lat="43.51617" lon="0.23928">
        <ele>192.4</ele>
        <time>2021-08-19T09:03:22Z</time>
      </trkpt>
      <trkpt lat="43.51603" lon="0.23911">
        <ele>192.4</ele>
        <time>2021-08-19T09:03:30Z</time>
      </trkpt>
      <trkpt lat="43.51593" lon="0.239">
        <ele>192.4</ele>
        <time>2021-08-19T09:03:37Z</time>
      </trkpt>
      <trkpt lat="43.51578" lon="0.23884">
        <ele>193.36</ele>
        <time>2021-08-19T09:03:46Z</time>
      </trkpt>
      <trkpt lat="43.51563" lon="0.23867">
        <ele>194.8</ele>
        <time>2021-08-19T09:03:57Z</time>
      </trkpt>
      <trkpt lat="43.5155" lon="0.23852">
        <ele>194.8</ele>
        <time>2021-08-19T09:04:04Z</time>
      </trkpt>
      <trkpt lat="43.51534" lon="0.23829">
        <ele>193.36</ele>
        <time>2021-08-19T09:04:11Z</time>
      </trkpt>
      <trkpt lat="43.5152" lon="0.23815">
        <ele>193.36</ele>
        <time>2021-08-19T09:04:16Z</time>
      </trkpt>
      <trkpt lat="43.51509" lon="0.23809">
        <ele>193.36</ele>
        <time>2021-08-19T09:04:22Z</time>
      </trkpt>
      <trkpt lat="43.51494" lon="0.23802">
        <ele>194.32</ele>
        <time>2021-08-19T09:04:29Z</time>
      </trkpt>
      <trkpt lat="43.51492" lon="0.23801">
        <ele>194.32</ele>
        <time>2021-08-19T09:04:30Z</time>
      </trkpt>
      <trkpt lat="43.51479" lon="0.23794">
        <ele>194.8</ele>
        <time>2021-08-19T09:04:37Z</time>
      </trkpt>
      <trkpt lat="43.51478" lon="0.23793">
        <ele>194.8</ele>
        <time>2021-08-19T09:04:38Z</time>
      </trkpt>
      <trkpt lat="43.51477" lon="0.23792">
        <ele>195.28</ele>
        <time>2021-08-19T09:04:39Z</time>
      </trkpt>
      <trkpt lat="43.51475" lon="0.23791">
        <ele>195.28</ele>
        <time>2021-08-19T09:04:40Z</time>
      </trkpt>
      <trkpt lat="43.51474" lon="0.23791">
        <ele>195.28</ele>
        <time>2021-08-19T09:04:41Z</time>
      </trkpt>
      <trkpt lat="43.51473" lon="0.2379">
        <ele>195.28</ele>
        <time>2021-08-19T09:04:42Z</time>
      </trkpt>
      <trkpt lat="43.51467" lon="0.23785">
        <ele>196.25</ele>
        <time>2021-08-19T09:04:48Z</time>
      </trkpt>
      <trkpt lat="43.51454" lon="0.23776">
        <ele>197.69</ele>
        <time>2021-08-19T09:04:56Z</time>
      </trkpt>
      <trkpt lat="43.51444" lon="0.2377">
        <ele>199.13</ele>
        <time>2021-08-19T09:05:03Z</time>
      </trkpt>
      <trkpt lat="43.51432" lon="0.23763">
        <ele>199.61</ele>
        <time>2021-08-19T09:05:10Z</time>
      </trkpt>
      <trkpt lat="43.51423" lon="0.23755">
        <ele>200.57</ele>
        <time>2021-08-19T09:05:17Z</time>
      </trkpt>
      <trkpt lat="43.51412" lon="0.23748">
        <ele>201.53</ele>
        <time>2021-08-19T09:05:24Z</time>
      </trkpt>
      <trkpt lat="43.51397" lon="0.23737">
        <ele>202.49</ele>
        <time>2021-08-19T09:05:32Z</time>
      </trkpt>
      <trkpt lat="43.51384" lon="0.23724">
        <ele>202.98</ele>
        <time>2021-08-19T09:05:39Z</time>
      </trkpt>
      <trkpt lat="43.51361" lon="0.23703">
        <ele>202.49</ele>
        <time>2021-08-19T09:05:46Z</time>
      </trkpt>
      <trkpt lat="43.51331" lon="0.23675">
        <ele>201.05</ele>
        <time>2021-08-19T09:05:55Z</time>
      </trkpt>
      <trkpt lat="43.51305" lon="0.23655">
        <ele>200.57</ele>
        <time>2021-08-19T09:06:03Z</time>
      </trkpt>
      <trkpt lat="43.51278" lon="0.23639">
        <ele>200.57</ele>
        <time>2021-08-19T09:06:12Z</time>
      </trkpt>
      <trkpt lat="43.51256" lon="0.23631">
        <ele>201.53</ele>
        <time>2021-08-19T09:06:19Z</time>
      </trkpt>
      <trkpt lat="43.51246" lon="0.23626">
        <ele>202.49</ele>
        <time>2021-08-19T09:06:25Z</time>
      </trkpt>
      <trkpt lat="43.51241" lon="0.23624">
        <ele>202.98</ele>
        <time>2021-08-19T09:06:28Z</time>
      </trkpt>
      <trkpt lat="43.5124" lon="0.23624">
        <ele>203.46</ele>
        <time>2021-08-19T09:06:29Z</time>
      </trkpt>
      <trkpt lat="43.51239" lon="0.23623">
        <ele>203.46</ele>
        <time>2021-08-19T09:06:30Z</time>
      </trkpt>
      <trkpt lat="43.51238" lon="0.23622">
        <ele>203.46</ele>
        <time>2021-08-19T09:06:31Z</time>
      </trkpt>
      <trkpt lat="43.51237" lon="0.23622">
        <ele>203.46</ele>
        <time>2021-08-19T09:06:32Z</time>
      </trkpt>
      <trkpt lat="43.51226" lon="0.23615">
        <ele>205.38</ele>
        <time>2021-08-19T09:06:40Z</time>
      </trkpt>
      <trkpt lat="43.5122" lon="0.23612">
        <ele>205.38</ele>
        <time>2021-08-19T09:06:44Z</time>
      </trkpt>
      <trkpt lat="43.51219" lon="0.23611">
        <ele>205.86</ele>
        <time>2021-08-19T09:06:45Z</time>
      </trkpt>
      <trkpt lat="43.51217" lon="0.2361">
        <ele>205.86</ele>
        <time>2021-08-19T09:06:46Z</time>
      </trkpt>
      <trkpt lat="43.51216" lon="0.23609">
        <ele>205.86</ele>
        <time>2021-08-19T09:06:47Z</time>
      </trkpt>
      <trkpt lat="43.51214" lon="0.23607">
        <ele>206.34</ele>
        <time>2021-08-19T09:06:48Z</time>
      </trkpt>
      <trkpt lat="43.51213" lon="0.23606">
        <ele>206.34</ele>
        <time>2021-08-19T09:06:49Z</time>
      </trkpt>
      <trkpt lat="43.51211" lon="0.23605">
        <ele>206.34</ele>
        <time>2021-08-19T09:06:50Z</time>
      </trkpt>
      <trkpt lat="43.5121" lon="0.23604">
        <ele>206.34</ele>
        <time>2021-08-19T09:06:51Z</time>
      </trkpt>
      <trkpt lat="43.51209" lon="0.23602">
        <ele>206.82</ele>
        <time>2021-08-19T09:06:52Z</time>
      </trkpt>
      <trkpt lat="43.51208" lon="0.23601">
        <ele>206.82</ele>
        <time>2021-08-19T09:06:53Z</time>
      </trkpt>
      <trkpt lat="43.51206" lon="0.236">
        <ele>206.82</ele>
        <time>2021-08-19T09:06:54Z</time>
      </trkpt>
      <trkpt lat="43.51204" lon="0.23598">
        <ele>206.82</ele>
        <time>2021-08-19T09:06:55Z</time>
      </trkpt>
      <trkpt lat="43.51203" lon="0.23597">
        <ele>207.3</ele>
        <time>2021-08-19T09:06:56Z</time>
      </trkpt>
      <trkpt lat="43.51191" lon="0.23588">
        <ele>208.26</ele>
        <time>2021-08-19T09:07:03Z</time>
      </trkpt>
      <trkpt lat="43.5118" lon="0.23575">
        <ele>209.7</ele>
        <time>2021-08-19T09:07:11Z</time>
      </trkpt>
      <trkpt lat="43.51172" lon="0.23563">
        <ele>210.19</ele>
        <time>2021-08-19T09:07:18Z</time>
      </trkpt>
      <trkpt lat="43.5116" lon="0.23543">
        <ele>211.63</ele>
        <time>2021-08-19T09:07:27Z</time>
      </trkpt>
      <trkpt lat="43.51154" lon="0.23523">
        <ele>211.63</ele>
        <time>2021-08-19T09:07:34Z</time>
      </trkpt>
      <trkpt lat="43.51152" lon="0.23503">
        <ele>213.07</ele>
        <time>2021-08-19T09:07:42Z</time>
      </trkpt>
      <trkpt lat="43.5115" lon="0.23477">
        <ele>213.55</ele>
        <time>2021-08-19T09:07:50Z</time>
      </trkpt>
      <trkpt lat="43.51148" lon="0.23442">
        <ele>211.63</ele>
        <time>2021-08-19T09:07:57Z</time>
      </trkpt>
      <trkpt lat="43.51146" lon="0.23431">
        <ele>210.19</ele>
        <time>2021-08-19T09:07:59Z</time>
      </trkpt>
      <trkpt lat="43.51146" lon="0.23423">
        <ele>208.74</ele>
        <time>2021-08-19T09:08:00Z</time>
      </trkpt>
      <trkpt lat="43.51145" lon="0.23396">
        <ele>205.38</ele>
        <time>2021-08-19T09:08:03Z</time>
      </trkpt>
      <trkpt lat="43.51144" lon="0.23377">
        <ele>203.46</ele>
        <time>2021-08-19T09:08:05Z</time>
      </trkpt>
      <trkpt lat="43.51142" lon="0.23358">
        <ele>201.53</ele>
        <time>2021-08-19T09:08:07Z</time>
      </trkpt>
      <trkpt lat="43.5114" lon="0.23349">
        <ele>200.57</ele>
        <time>2021-08-19T09:08:08Z</time>
      </trkpt>
      <trkpt lat="43.51137" lon="0.2334">
        <ele>199.61</ele>
        <time>2021-08-19T09:08:09Z</time>
      </trkpt>
      <trkpt lat="43.51124" lon="0.23306">
        <ele>195.77</ele>
        <time>2021-08-19T09:08:13Z</time>
      </trkpt>
      <trkpt lat="43.51119" lon="0.23298">
        <ele>194.8</ele>
        <time>2021-08-19T09:08:14Z</time>
      </trkpt>
      <trkpt lat="43.51092" lon="0.23265">
        <ele>190.96</ele>
        <time>2021-08-19T09:08:18Z</time>
      </trkpt>
      <trkpt lat="43.5108" lon="0.23251">
        <ele>191.44</ele>
        <time>2021-08-19T09:08:20Z</time>
      </trkpt>
      <trkpt lat="43.51075" lon="0.23244">
        <ele>190.96</ele>
        <time>2021-08-19T09:08:21Z</time>
      </trkpt>
      <trkpt lat="43.51071" lon="0.23236">
        <ele>190.48</ele>
        <time>2021-08-19T09:08:22Z</time>
      </trkpt>
      <trkpt lat="43.51067" lon="0.23227">
        <ele>189.52</ele>
        <time>2021-08-19T09:08:23Z</time>
      </trkpt>
      <trkpt lat="43.51064" lon="0.23218">
        <ele>189.52</ele>
        <time>2021-08-19T09:08:24Z</time>
      </trkpt>
      <trkpt lat="43.51061" lon="0.23209">
        <ele>188.56</ele>
        <time>2021-08-19T09:08:25Z</time>
      </trkpt>
      <trkpt lat="43.51051" lon="0.23172">
        <ele>185.67</ele>
        <time>2021-08-19T09:08:29Z</time>
      </trkpt>
      <trkpt lat="43.5104" lon="0.23144">
        <ele>182.31</ele>
        <time>2021-08-19T09:08:32Z</time>
      </trkpt>
      <trkpt lat="43.51028" lon="0.23114">
        <ele>178.94</ele>
        <time>2021-08-19T09:08:35Z</time>
      </trkpt>
      <trkpt lat="43.51014" lon="0.23079">
        <ele>174.62</ele>
        <time>2021-08-19T09:08:39Z</time>
      </trkpt>
      <trkpt lat="43.51" lon="0.23044">
        <ele>172.21</ele>
        <time>2021-08-19T09:08:43Z</time>
      </trkpt>
      <trkpt lat="43.50985" lon="0.23013">
        <ele>171.73</ele>
        <time>2021-08-19T09:08:47Z</time>
      </trkpt>
      <trkpt lat="43.50972" lon="0.22999">
        <ele>171.73</ele>
        <time>2021-08-19T09:08:50Z</time>
      </trkpt>
      <trkpt lat="43.50967" lon="0.22996">
        <ele>171.73</ele>
        <time>2021-08-19T09:08:51Z</time>
      </trkpt>
      <trkpt lat="43.50962" lon="0.22994">
        <ele>171.73</ele>
        <time>2021-08-19T09:08:52Z</time>
      </trkpt>
      <trkpt lat="43.50958" lon="0.22994">
        <ele>171.73</ele>
        <time>2021-08-19T09:08:53Z</time>
      </trkpt>
      <trkpt lat="43.50953" lon="0.22995">
        <ele>171.73</ele>
        <time>2021-08-19T09:08:54Z</time>
      </trkpt>
      <trkpt lat="43.5095" lon="0.22996">
        <ele>172.69</ele>
        <time>2021-08-19T09:08:55Z</time>
      </trkpt>
      <trkpt lat="43.50942" lon="0.22998">
        <ele>173.66</ele>
        <time>2021-08-19T09:08:59Z</time>
      </trkpt>
      <trkpt lat="43.50926" lon="0.22996">
        <ele>174.62</ele>
        <time>2021-08-19T09:09:07Z</time>
      </trkpt>
      <trkpt lat="43.50914" lon="0.22995">
        <ele>175.58</ele>
        <time>2021-08-19T09:09:14Z</time>
      </trkpt>
      <trkpt lat="43.50905" lon="0.22995">
        <ele>177.02</ele>
        <time>2021-08-19T09:09:20Z</time>
      </trkpt>
      <trkpt lat="43.50893" lon="0.22992">
        <ele>178.46</ele>
        <time>2021-08-19T09:09:29Z</time>
      </trkpt>
      <trkpt lat="43.50883" lon="0.22982">
        <ele>179.9</ele>
        <time>2021-08-19T09:09:37Z</time>
      </trkpt>
      <trkpt lat="43.50877" lon="0.22963">
        <ele>180.87</ele>
        <time>2021-08-19T09:09:45Z</time>
      </trkpt>
      <trkpt lat="43.50865" lon="0.2294">
        <ele>178.46</ele>
        <time>2021-08-19T09:09:50Z</time>
      </trkpt>
      <trkpt lat="43.50863" lon="0.22932">
        <ele>177.02</ele>
        <time>2021-08-19T09:09:51Z</time>
      </trkpt>
      <trkpt lat="43.5086" lon="0.22924">
        <ele>176.06</ele>
        <time>2021-08-19T09:09:52Z</time>
      </trkpt>
      <trkpt lat="43.50859" lon="0.22915">
        <ele>175.1</ele>
        <time>2021-08-19T09:09:53Z</time>
      </trkpt>
      <trkpt lat="43.50857" lon="0.22906">
        <ele>174.62</ele>
        <time>2021-08-19T09:09:54Z</time>
      </trkpt>
      <trkpt lat="43.50854" lon="0.22897">
        <ele>173.17</ele>
        <time>2021-08-19T09:09:55Z</time>
      </trkpt>
      <trkpt lat="43.50845" lon="0.22866">
        <ele>170.29</ele>
        <time>2021-08-19T09:09:58Z</time>
      </trkpt>
      <trkpt lat="43.50834" lon="0.22821">
        <ele>168.37</ele>
        <time>2021-08-19T09:10:02Z</time>
      </trkpt>
      <trkpt lat="43.50814" lon="0.22746">
        <ele>166.93</ele>
        <time>2021-08-19T09:10:09Z</time>
      </trkpt>
      <trkpt lat="43.50808" lon="0.22716">
        <ele>166.93</ele>
        <time>2021-08-19T09:10:12Z</time>
      </trkpt>
      <trkpt lat="43.50808" lon="0.22697">
        <ele>166.45</ele>
        <time>2021-08-19T09:10:14Z</time>
      </trkpt>
      <trkpt lat="43.50808" lon="0.22687">
        <ele>166.45</ele>
        <time>2021-08-19T09:10:15Z</time>
      </trkpt>
      <trkpt lat="43.50808" lon="0.22678">
        <ele>165.96</ele>
        <time>2021-08-19T09:10:16Z</time>
      </trkpt>
      <trkpt lat="43.50807" lon="0.22669">
        <ele>166.45</ele>
        <time>2021-08-19T09:10:17Z</time>
      </trkpt>
      <trkpt lat="43.50805" lon="0.22661">
        <ele>166.45</ele>
        <time>2021-08-19T09:10:18Z</time>
      </trkpt>
      <trkpt lat="43.50803" lon="0.22653">
        <ele>166.45</ele>
        <time>2021-08-19T09:10:19Z</time>
      </trkpt>
      <trkpt lat="43.50797" lon="0.22633">
        <ele>166.45</ele>
        <time>2021-08-19T09:10:22Z</time>
      </trkpt>
      <trkpt lat="43.50793" lon="0.22626">
        <ele>166.45</ele>
        <time>2021-08-19T09:10:23Z</time>
      </trkpt>
      <trkpt lat="43.5079" lon="0.2262">
        <ele>166.45</ele>
        <time>2021-08-19T09:10:24Z</time>
      </trkpt>
      <trkpt lat="43.50786" lon="0.22615">
        <ele>166.45</ele>
        <time>2021-08-19T09:10:25Z</time>
      </trkpt>
      <trkpt lat="43.50783" lon="0.22609">
        <ele>166.45</ele>
        <time>2021-08-19T09:10:26Z</time>
      </trkpt>
      <trkpt lat="43.50765" lon="0.22579">
        <ele>166.45</ele>
        <time>2021-08-19T09:10:33Z</time>
      </trkpt>
      <trkpt lat="43.50736" lon="0.22554">
        <ele>166.45</ele>
        <time>2021-08-19T09:10:42Z</time>
      </trkpt>
      <trkpt lat="43.50707" lon="0.22523">
        <ele>165.96</ele>
        <time>2021-08-19T09:10:50Z</time>
      </trkpt>
      <trkpt lat="43.50684" lon="0.22491">
        <ele>165.48</ele>
        <time>2021-08-19T09:10:57Z</time>
      </trkpt>
      <trkpt lat="43.5068" lon="0.22486">
        <ele>165.48</ele>
        <time>2021-08-19T09:10:58Z</time>
      </trkpt>
      <trkpt lat="43.50675" lon="0.22482">
        <ele>165.48</ele>
        <time>2021-08-19T09:10:59Z</time>
      </trkpt>
      <trkpt lat="43.50656" lon="0.22466">
        <ele>165.48</ele>
        <time>2021-08-19T09:11:03Z</time>
      </trkpt>
      <trkpt lat="43.50613" lon="0.2243">
        <ele>165.48</ele>
        <time>2021-08-19T09:11:12Z</time>
      </trkpt>
      <trkpt lat="43.50604" lon="0.22423">
        <ele>165.48</ele>
        <time>2021-08-19T09:11:14Z</time>
      </trkpt>
      <trkpt lat="43.5056" lon="0.224">
        <ele>165.48</ele>
        <time>2021-08-19T09:11:23Z</time>
      </trkpt>
      <trkpt lat="43.50518" lon="0.22379">
        <ele>165.48</ele>
        <time>2021-08-19T09:11:31Z</time>
      </trkpt>
      <trkpt lat="43.50509" lon="0.22372">
        <ele>165.48</ele>
        <time>2021-08-19T09:11:33Z</time>
      </trkpt>
      <trkpt lat="43.50504" lon="0.22368">
        <ele>165.48</ele>
        <time>2021-08-19T09:11:34Z</time>
      </trkpt>
      <trkpt lat="43.50486" lon="0.22349">
        <ele>165.48</ele>
        <time>2021-08-19T09:11:38Z</time>
      </trkpt>
      <trkpt lat="43.50483" lon="0.22344">
        <ele>165.48</ele>
        <time>2021-08-19T09:11:39Z</time>
      </trkpt>
      <trkpt lat="43.50463" lon="0.2231">
        <ele>165.48</ele>
        <time>2021-08-19T09:11:46Z</time>
      </trkpt>
      <trkpt lat="43.50455" lon="0.22294">
        <ele>165.48</ele>
        <time>2021-08-19T09:11:49Z</time>
      </trkpt>
      <trkpt lat="43.5045" lon="0.22285">
        <ele>165.48</ele>
        <time>2021-08-19T09:11:51Z</time>
      </trkpt>
      <trkpt lat="43.50431" lon="0.22251">
        <ele>167.41</ele>
        <time>2021-08-19T09:11:59Z</time>
      </trkpt>
      <trkpt lat="43.50409" lon="0.22219">
        <ele>167.89</ele>
        <time>2021-08-19T09:12:09Z</time>
      </trkpt>
      <trkpt lat="43.50393" lon="0.22194">
        <ele>168.85</ele>
        <time>2021-08-19T09:12:18Z</time>
      </trkpt>
      <trkpt lat="43.50379" lon="0.22173">
        <ele>169.81</ele>
        <time>2021-08-19T09:12:26Z</time>
      </trkpt>
      <trkpt lat="43.50377" lon="0.22171">
        <ele>169.81</ele>
        <time>2021-08-19T09:12:27Z</time>
      </trkpt>
      <trkpt lat="43.50365" lon="0.22153">
        <ele>169.81</ele>
        <time>2021-08-19T09:12:33Z</time>
      </trkpt>
      <trkpt lat="43.50351" lon="0.22119">
        <ele>169.81</ele>
        <time>2021-08-19T09:12:41Z</time>
      </trkpt>
      <trkpt lat="43.50342" lon="0.22075">
        <ele>170.29</ele>
        <time>2021-08-19T09:12:50Z</time>
      </trkpt>
      <trkpt lat="43.50334" lon="0.22042">
        <ele>171.25</ele>
        <time>2021-08-19T09:12:59Z</time>
      </trkpt>
      <trkpt lat="43.50327" lon="0.2202">
        <ele>171.73</ele>
        <time>2021-08-19T09:13:06Z</time>
      </trkpt>
      <trkpt lat="43.50317" lon="0.21998">
        <ele>172.21</ele>
        <time>2021-08-19T09:13:15Z</time>
      </trkpt>
      <trkpt lat="43.50311" lon="0.21983">
        <ele>172.69</ele>
        <time>2021-08-19T09:13:22Z</time>
      </trkpt>
      <trkpt lat="43.50303" lon="0.21964">
        <ele>173.66</ele>
        <time>2021-08-19T09:13:32Z</time>
      </trkpt>
      <trkpt lat="43.50299" lon="0.21956">
        <ele>174.62</ele>
        <time>2021-08-19T09:13:37Z</time>
      </trkpt>
      <trkpt lat="43.50291" lon="0.21949">
        <ele>175.58</ele>
        <time>2021-08-19T09:13:45Z</time>
      </trkpt>
      <trkpt lat="43.5029" lon="0.21949">
        <ele>175.58</ele>
        <time>2021-08-19T09:13:46Z</time>
      </trkpt>
      <trkpt lat="43.50288" lon="0.21949">
        <ele>176.06</ele>
        <time>2021-08-19T09:13:47Z</time>
      </trkpt>
      <trkpt lat="43.50285" lon="0.21949">
        <ele>176.54</ele>
        <time>2021-08-19T09:13:51Z</time>
      </trkpt>
      <trkpt lat="43.50283" lon="0.2195">
        <ele>176.54</ele>
        <time>2021-08-19T09:13:56Z</time>
      </trkpt>
      <trkpt lat="43.50277" lon="0.21951">
        <ele>177.5</ele>
        <time>2021-08-19T09:14:03Z</time>
      </trkpt>
      <trkpt lat="43.50269" lon="0.21951">
        <ele>177.98</ele>
        <time>2021-08-19T09:14:11Z</time>
      </trkpt>
      <trkpt lat="43.5026" lon="0.21948">
        <ele>179.42</ele>
        <time>2021-08-19T09:14:22Z</time>
      </trkpt>
      <trkpt lat="43.50256" lon="0.21946">
        <ele>180.38</ele>
        <time>2021-08-19T09:14:31Z</time>
      </trkpt>
      <trkpt lat="43.5025" lon="0.21944">
        <ele>181.83</ele>
        <time>2021-08-19T09:14:40Z</time>
      </trkpt>
      <trkpt lat="43.50245" lon="0.21942">
        <ele>182.31</ele>
        <time>2021-08-19T09:14:48Z</time>
      </trkpt>
      <trkpt lat="43.50239" lon="0.2194">
        <ele>183.75</ele>
        <time>2021-08-19T09:14:58Z</time>
      </trkpt>
      <trkpt lat="43.50231" lon="0.21937">
        <ele>184.71</ele>
        <time>2021-08-19T09:15:08Z</time>
      </trkpt>
      <trkpt lat="43.50226" lon="0.21935">
        <ele>186.15</ele>
        <time>2021-08-19T09:15:16Z</time>
      </trkpt>
      <trkpt lat="43.5022" lon="0.21933">
        <ele>187.11</ele>
        <time>2021-08-19T09:15:25Z</time>
      </trkpt>
      <trkpt lat="43.50214" lon="0.21931">
        <ele>188.56</ele>
        <time>2021-08-19T09:15:36Z</time>
      </trkpt>
      <trkpt lat="43.50207" lon="0.21928">
        <ele>190</ele>
        <time>2021-08-19T09:15:47Z</time>
      </trkpt>
      <trkpt lat="43.502" lon="0.21926">
        <ele>191.44</ele>
        <time>2021-08-19T09:15:57Z</time>
      </trkpt>
      <trkpt lat="43.50196" lon="0.21924">
        <ele>192.88</ele>
        <time>2021-08-19T09:16:05Z</time>
      </trkpt>
      <trkpt lat="43.5019" lon="0.21923">
        <ele>193.84</ele>
        <time>2021-08-19T09:16:15Z</time>
      </trkpt>
      <trkpt lat="43.50182" lon="0.2192">
        <ele>195.77</ele>
        <time>2021-08-19T09:16:27Z</time>
      </trkpt>
      <trkpt lat="43.50176" lon="0.21917">
        <ele>196.73</ele>
        <time>2021-08-19T09:16:35Z</time>
      </trkpt>
      <trkpt lat="43.50167" lon="0.21914">
        <ele>198.65</ele>
        <time>2021-08-19T09:16:46Z</time>
      </trkpt>
      <trkpt lat="43.50158" lon="0.21911">
        <ele>199.61</ele>
        <time>2021-08-19T09:16:56Z</time>
      </trkpt>
      <trkpt lat="43.50149" lon="0.21907">
        <ele>201.05</ele>
        <time>2021-08-19T09:17:06Z</time>
      </trkpt>
      <trkpt lat="43.50146" lon="0.21905">
        <ele>201.53</ele>
        <time>2021-08-19T09:17:10Z</time>
      </trkpt>
      <trkpt lat="43.50145" lon="0.21902">
        <ele>201.53</ele>
        <time>2021-08-19T09:17:12Z</time>
      </trkpt>
      <trkpt lat="43.50144" lon="0.21899">
        <ele>201.53</ele>
        <time>2021-08-19T09:17:20Z</time>
      </trkpt>
      <trkpt lat="43.50144" lon="0.21898">
        <ele>201.53</ele>
        <time>2021-08-19T09:17:31Z</time>
      </trkpt>
      <trkpt lat="43.50145" lon="0.21898">
        <ele>201.53</ele>
        <time>2021-08-19T09:17:38Z</time>
      </trkpt>
      <trkpt lat="43.50145" lon="0.21896">
        <ele>201.05</ele>
        <time>2021-08-19T09:17:43Z</time>
      </trkpt>
      <trkpt lat="43.50146" lon="0.2189">
        <ele>202.01</ele>
        <time>2021-08-19T09:17:48Z</time>
      </trkpt>
      <trkpt lat="43.50146" lon="0.21888">
        <ele>201.53</ele>
        <time>2021-08-19T09:17:49Z</time>
      </trkpt>
      <trkpt lat="43.50146" lon="0.21886">
        <ele>201.53</ele>
        <time>2021-08-19T09:17:50Z</time>
      </trkpt>
      <trkpt lat="43.50146" lon="0.21884">
        <ele>201.53</ele>
        <time>2021-08-19T09:17:51Z</time>
      </trkpt>
      <trkpt lat="43.50146" lon="0.21882">
        <ele>201.53</ele>
        <time>2021-08-19T09:17:52Z</time>
      </trkpt>
      <trkpt lat="43.50146" lon="0.21879">
        <ele>201.53</ele>
        <time>2021-08-19T09:17:53Z</time>
      </trkpt>
      <trkpt lat="43.50147" lon="0.21863">
        <ele>202.49</ele>
        <time>2021-08-19T09:18:00Z</time>
      </trkpt>
      <trkpt lat="43.50149" lon="0.21845">
        <ele>203.46</ele>
        <time>2021-08-19T09:18:07Z</time>
      </trkpt>
      <trkpt lat="43.50148" lon="0.21842">
        <ele>203.46</ele>
        <time>2021-08-19T09:18:08Z</time>
      </trkpt>
      <trkpt lat="43.50148" lon="0.21839">
        <ele>203.94</ele>
        <time>2021-08-19T09:18:09Z</time>
      </trkpt>
      <trkpt lat="43.50148" lon="0.21836">
        <ele>203.94</ele>
        <time>2021-08-19T09:18:10Z</time>
      </trkpt>
      <trkpt lat="43.50148" lon="0.21834">
        <ele>203.94</ele>
        <time>2021-08-19T09:18:11Z</time>
      </trkpt>
      <trkpt lat="43.50148" lon="0.21832">
        <ele>204.42</ele>
        <time>2021-08-19T09:18:12Z</time>
      </trkpt>
      <trkpt lat="43.50148" lon="0.2183">
        <ele>204.42</ele>
        <time>2021-08-19T09:18:13Z</time>
      </trkpt>
      <trkpt lat="43.50147" lon="0.21816">
        <ele>205.38</ele>
        <time>2021-08-19T09:18:22Z</time>
      </trkpt>
      <trkpt lat="43.50144" lon="0.21809">
        <ele>205.86</ele>
        <time>2021-08-19T09:18:27Z</time>
      </trkpt>
      <trkpt lat="43.50144" lon="0.21807">
        <ele>205.86</ele>
        <time>2021-08-19T09:18:28Z</time>
      </trkpt>
      <trkpt lat="43.50143" lon="0.21806">
        <ele>205.86</ele>
        <time>2021-08-19T09:18:29Z</time>
      </trkpt>
      <trkpt lat="43.50138" lon="0.21792">
        <ele>207.3</ele>
        <time>2021-08-19T09:18:38Z</time>
      </trkpt>
      <trkpt lat="43.50138" lon="0.2179">
        <ele>207.3</ele>
        <time>2021-08-19T09:18:39Z</time>
      </trkpt>
      <trkpt lat="43.50137" lon="0.21789">
        <ele>207.3</ele>
        <time>2021-08-19T09:18:40Z</time>
      </trkpt>
      <trkpt lat="43.50137" lon="0.21787">
        <ele>207.78</ele>
        <time>2021-08-19T09:18:41Z</time>
      </trkpt>
      <trkpt lat="43.50136" lon="0.21786">
        <ele>207.78</ele>
        <time>2021-08-19T09:18:42Z</time>
      </trkpt>
      <trkpt lat="43.50136" lon="0.21784">
        <ele>208.26</ele>
        <time>2021-08-19T09:18:43Z</time>
      </trkpt>
      <trkpt lat="43.50135" lon="0.21782">
        <ele>208.26</ele>
        <time>2021-08-19T09:18:44Z</time>
      </trkpt>
      <trkpt lat="43.50135" lon="0.2178">
        <ele>208.26</ele>
        <time>2021-08-19T09:18:45Z</time>
      </trkpt>
      <trkpt lat="43.50134" lon="0.21778">
        <ele>208.74</ele>
        <time>2021-08-19T09:18:46Z</time>
      </trkpt>
      <trkpt lat="43.50133" lon="0.21771">
        <ele>208.74</ele>
        <time>2021-08-19T09:18:50Z</time>
      </trkpt>
      <trkpt lat="43.50133" lon="0.21769">
        <ele>209.22</ele>
        <time>2021-08-19T09:18:51Z</time>
      </trkpt>
      <trkpt lat="43.50132" lon="0.21761">
        <ele>209.7</ele>
        <time>2021-08-19T09:18:55Z</time>
      </trkpt>
      <trkpt lat="43.50132" lon="0.21759">
        <ele>209.7</ele>
        <time>2021-08-19T09:18:56Z</time>
      </trkpt>
      <trkpt lat="43.50132" lon="0.21757">
        <ele>210.19</ele>
        <time>2021-08-19T09:18:57Z</time>
      </trkpt>
      <trkpt lat="43.50131" lon="0.21754">
        <ele>210.19</ele>
        <time>2021-08-19T09:18:58Z</time>
      </trkpt>
      <trkpt lat="43.50131" lon="0.21752">
        <ele>210.19</ele>
        <time>2021-08-19T09:18:59Z</time>
      </trkpt>
      <trkpt lat="43.50131" lon="0.2175">
        <ele>210.19</ele>
        <time>2021-08-19T09:19:00Z</time>
      </trkpt>
      <trkpt lat="43.50131" lon="0.21723">
        <ele>211.63</ele>
        <time>2021-08-19T09:19:12Z</time>
      </trkpt>
      <trkpt lat="43.5013" lon="0.21721">
        <ele>211.63</ele>
        <time>2021-08-19T09:19:13Z</time>
      </trkpt>
      <trkpt lat="43.5013" lon="0.21719">
        <ele>211.63</ele>
        <time>2021-08-19T09:19:14Z</time>
      </trkpt>
      <trkpt lat="43.5013" lon="0.21716">
        <ele>212.11</ele>
        <time>2021-08-19T09:19:15Z</time>
      </trkpt>
      <trkpt lat="43.5013" lon="0.21714">
        <ele>212.11</ele>
        <time>2021-08-19T09:19:16Z</time>
      </trkpt>
      <trkpt lat="43.5013" lon="0.21712">
        <ele>212.11</ele>
        <time>2021-08-19T09:19:17Z</time>
      </trkpt>
      <trkpt lat="43.50129" lon="0.21696">
        <ele>212.59</ele>
        <time>2021-08-19T09:19:24Z</time>
      </trkpt>
      <trkpt lat="43.50127" lon="0.21672">
        <ele>213.55</ele>
        <time>2021-08-19T09:19:34Z</time>
      </trkpt>
      <trkpt lat="43.50125" lon="0.21654">
        <ele>214.99</ele>
        <time>2021-08-19T09:19:42Z</time>
      </trkpt>
      <trkpt lat="43.50122" lon="0.21629">
        <ele>215.47</ele>
        <time>2021-08-19T09:19:52Z</time>
      </trkpt>
      <trkpt lat="43.50117" lon="0.21598">
        <ele>215.95</ele>
        <time>2021-08-19T09:20:01Z</time>
      </trkpt>
      <trkpt lat="43.50106" lon="0.21575">
        <ele>216.91</ele>
        <time>2021-08-19T09:20:09Z</time>
      </trkpt>
      <trkpt lat="43.50087" lon="0.21556">
        <ele>217.4</ele>
        <time>2021-08-19T09:20:18Z</time>
      </trkpt>
      <trkpt lat="43.50065" lon="0.21537">
        <ele>218.84</ele>
        <time>2021-08-19T09:20:28Z</time>
      </trkpt>
      <trkpt lat="43.50051" lon="0.21527">
        <ele>220.28</ele>
        <time>2021-08-19T09:20:36Z</time>
      </trkpt>
      <trkpt lat="43.50039" lon="0.21522">
        <ele>222.2</ele>
        <time>2021-08-19T09:20:44Z</time>
      </trkpt>
      <trkpt lat="43.50025" lon="0.21519">
        <ele>224.12</ele>
        <time>2021-08-19T09:20:54Z</time>
      </trkpt>
      <trkpt lat="43.50012" lon="0.21517">
        <ele>226.05</ele>
        <time>2021-08-19T09:21:03Z</time>
      </trkpt>
      <trkpt lat="43.50009" lon="0.21518">
        <ele>226.05</ele>
        <time>2021-08-19T09:21:09Z</time>
      </trkpt>
      <trkpt lat="43.50005" lon="0.21518">
        <ele>226.53</ele>
        <time>2021-08-19T09:21:19Z</time>
      </trkpt>
      <trkpt lat="43.5" lon="0.2152">
        <ele>227.97</ele>
        <time>2021-08-19T09:21:26Z</time>
      </trkpt>
      <trkpt lat="43.49992" lon="0.21521">
        <ele>229.41</ele>
        <time>2021-08-19T09:21:35Z</time>
      </trkpt>
      <trkpt lat="43.49985" lon="0.21522">
        <ele>230.85</ele>
        <time>2021-08-19T09:21:44Z</time>
      </trkpt>
      <trkpt lat="43.49978" lon="0.21524">
        <ele>232.78</ele>
        <time>2021-08-19T09:21:53Z</time>
      </trkpt>
      <trkpt lat="43.49977" lon="0.21524">
        <ele>232.3</ele>
        <time>2021-08-19T09:21:59Z</time>
      </trkpt>
      <trkpt lat="43.49968" lon="0.21524">
        <ele>234.7</ele>
        <time>2021-08-19T09:22:10Z</time>
      </trkpt>
      <trkpt lat="43.49961" lon="0.21526">
        <ele>236.62</ele>
        <time>2021-08-19T09:22:20Z</time>
      </trkpt>
      <trkpt lat="43.49953" lon="0.21525">
        <ele>238.06</ele>
        <time>2021-08-19T09:22:31Z</time>
      </trkpt>
      <trkpt lat="43.49947" lon="0.21525">
        <ele>239.51</ele>
        <time>2021-08-19T09:22:39Z</time>
      </trkpt>
      <trkpt lat="43.49938" lon="0.21524">
        <ele>240.47</ele>
        <time>2021-08-19T09:22:48Z</time>
      </trkpt>
      <trkpt lat="43.49926" lon="0.2152">
        <ele>241.43</ele>
        <time>2021-08-19T09:22:57Z</time>
      </trkpt>
      <trkpt lat="43.49925" lon="0.2152">
        <ele>241.43</ele>
        <time>2021-08-19T09:23:05Z</time>
      </trkpt>
      <trkpt lat="43.49925" lon="0.2152">
        <ele>241.43</ele>
        <time>2021-08-19T09:23:09Z</time>
      </trkpt>
      <trkpt lat="43.49922" lon="0.21507">
        <ele>241.43</ele>
        <time>2021-08-19T09:23:15Z</time>
      </trkpt>
      <trkpt lat="43.49929" lon="0.21485">
        <ele>243.35</ele>
        <time>2021-08-19T09:23:24Z</time>
      </trkpt>
      <trkpt lat="43.49936" lon="0.21464">
        <ele>244.79</ele>
        <time>2021-08-19T09:23:32Z</time>
      </trkpt>
      <trkpt lat="43.49943" lon="0.21446">
        <ele>246.23</ele>
        <time>2021-08-19T09:23:40Z</time>
      </trkpt>
      <trkpt lat="43.49949" lon="0.21427">
        <ele>247.2</ele>
        <time>2021-08-19T09:23:48Z</time>
      </trkpt>
      <trkpt lat="43.4995" lon="0.21424">
        <ele>247.68</ele>
        <time>2021-08-19T09:23:49Z</time>
      </trkpt>
      <trkpt lat="43.49951" lon="0.21422">
        <ele>247.68</ele>
        <time>2021-08-19T09:23:50Z</time>
      </trkpt>
      <trkpt lat="43.49952" lon="0.2142">
        <ele>248.16</ele>
        <time>2021-08-19T09:23:51Z</time>
      </trkpt>
      <trkpt lat="43.49953" lon="0.21417">
        <ele>248.16</ele>
        <time>2021-08-19T09:23:52Z</time>
      </trkpt>
      <trkpt lat="43.49964" lon="0.21397">
        <ele>248.64</ele>
        <time>2021-08-19T09:24:00Z</time>
      </trkpt>
      <trkpt lat="43.49976" lon="0.21377">
        <ele>248.64</ele>
        <time>2021-08-19T09:24:07Z</time>
      </trkpt>
      <trkpt lat="43.49981" lon="0.21375">
        <ele>248.64</ele>
        <time>2021-08-19T09:24:09Z</time>
      </trkpt>
      <trkpt lat="43.49983" lon="0.21375">
        <ele>248.64</ele>
        <time>2021-08-19T09:24:10Z</time>
      </trkpt>
      <trkpt lat="43.49986" lon="0.21376">
        <ele>248.64</ele>
        <time>2021-08-19T09:24:11Z</time>
      </trkpt>
      <trkpt lat="43.49989" lon="0.21378">
        <ele>248.64</ele>
        <time>2021-08-19T09:24:12Z</time>
      </trkpt>
      <trkpt lat="43.49992" lon="0.2138">
        <ele>248.64</ele>
        <time>2021-08-19T09:24:13Z</time>
      </trkpt>
      <trkpt lat="43.50002" lon="0.21385">
        <ele>246.72</ele>
        <time>2021-08-19T09:24:16Z</time>
      </trkpt>
      <trkpt lat="43.50013" lon="0.21388">
        <ele>246.23</ele>
        <time>2021-08-19T09:24:21Z</time>
      </trkpt>
      <trkpt lat="43.50013" lon="0.2139">
        <ele>246.23</ele>
        <time>2021-08-19T09:24:33Z</time>
      </trkpt>
      <trkpt lat="43.50013" lon="0.21387">
        <ele>246.23</ele>
        <time>2021-08-19T09:24:39Z</time>
      </trkpt>
      <trkpt lat="43.50013" lon="0.21385">
        <ele>246.23</ele>
        <time>2021-08-19T09:24:40Z</time>
      </trkpt>
      <trkpt lat="43.50013" lon="0.21383">
        <ele>245.75</ele>
        <time>2021-08-19T09:24:41Z</time>
      </trkpt>
      <trkpt lat="43.50013" lon="0.21381">
        <ele>245.75</ele>
        <time>2021-08-19T09:24:42Z</time>
      </trkpt>
      <trkpt lat="43.50013" lon="0.21379">
        <ele>245.75</ele>
        <time>2021-08-19T09:24:43Z</time>
      </trkpt>
      <trkpt lat="43.50013" lon="0.21377">
        <ele>245.75</ele>
        <time>2021-08-19T09:24:44Z</time>
      </trkpt>
      <trkpt lat="43.50013" lon="0.21375">
        <ele>245.75</ele>
        <time>2021-08-19T09:24:45Z</time>
      </trkpt>
      <trkpt lat="43.50014" lon="0.21372">
        <ele>245.75</ele>
        <time>2021-08-19T09:24:46Z</time>
      </trkpt>
      <trkpt lat="43.50015" lon="0.21369">
        <ele>245.75</ele>
        <time>2021-08-19T09:24:47Z</time>
      </trkpt>
      <trkpt lat="43.50016" lon="0.21365">
        <ele>245.27</ele>
        <time>2021-08-19T09:24:48Z</time>
      </trkpt>
      <trkpt lat="43.50018" lon="0.2136">
        <ele>244.79</ele>
        <time>2021-08-19T09:24:49Z</time>
      </trkpt>
      <trkpt lat="43.50026" lon="0.21333">
        <ele>242.87</ele>
        <time>2021-08-19T09:24:53Z</time>
      </trkpt>
      <trkpt lat="43.50035" lon="0.21276">
        <ele>240.47</ele>
        <time>2021-08-19T09:25:00Z</time>
      </trkpt>
      <trkpt lat="43.50037" lon="0.21267">
        <ele>239.99</ele>
        <time>2021-08-19T09:25:01Z</time>
      </trkpt>
      <trkpt lat="43.50039" lon="0.2126">
        <ele>239.02</ele>
        <time>2021-08-19T09:25:02Z</time>
      </trkpt>
      <trkpt lat="43.50043" lon="0.21252">
        <ele>238.06</ele>
        <time>2021-08-19T09:25:03Z</time>
      </trkpt>
      <trkpt lat="43.50047" lon="0.21244">
        <ele>237.1</ele>
        <time>2021-08-19T09:25:04Z</time>
      </trkpt>
      <trkpt lat="43.50052" lon="0.21237">
        <ele>236.62</ele>
        <time>2021-08-19T09:25:05Z</time>
      </trkpt>
      <trkpt lat="43.5007" lon="0.21209">
        <ele>232.3</ele>
        <time>2021-08-19T09:25:08Z</time>
      </trkpt>
      <trkpt lat="43.50091" lon="0.21177">
        <ele>228.93</ele>
        <time>2021-08-19T09:25:11Z</time>
      </trkpt>
      <trkpt lat="43.50128" lon="0.21139">
        <ele>227.01</ele>
        <time>2021-08-19T09:25:16Z</time>
      </trkpt>
      <trkpt lat="43.50135" lon="0.21136">
        <ele>227.49</ele>
        <time>2021-08-19T09:25:17Z</time>
      </trkpt>
      <trkpt lat="43.50142" lon="0.21134">
        <ele>227.49</ele>
        <time>2021-08-19T09:25:18Z</time>
      </trkpt>
      <trkpt lat="43.50148" lon="0.21133">
        <ele>227.49</ele>
        <time>2021-08-19T09:25:19Z</time>
      </trkpt>
      <trkpt lat="43.50154" lon="0.21133">
        <ele>227.49</ele>
        <time>2021-08-19T09:25:20Z</time>
      </trkpt>
      <trkpt lat="43.5016" lon="0.21134">
        <ele>227.49</ele>
        <time>2021-08-19T09:25:21Z</time>
      </trkpt>
      <trkpt lat="43.50166" lon="0.21136">
        <ele>227.49</ele>
        <time>2021-08-19T09:25:22Z</time>
      </trkpt>
      <trkpt lat="43.50178" lon="0.21139">
        <ele>226.53</ele>
        <time>2021-08-19T09:25:24Z</time>
      </trkpt>
      <trkpt lat="43.50185" lon="0.2114">
        <ele>225.57</ele>
        <time>2021-08-19T09:25:25Z</time>
      </trkpt>
      <trkpt lat="43.50192" lon="0.21138">
        <ele>224.61</ele>
        <time>2021-08-19T09:25:26Z</time>
      </trkpt>
      <trkpt lat="43.502" lon="0.21135">
        <ele>223.64</ele>
        <time>2021-08-19T09:25:27Z</time>
      </trkpt>
      <trkpt lat="43.50207" lon="0.2113">
        <ele>223.16</ele>
        <time>2021-08-19T09:25:28Z</time>
      </trkpt>
      <trkpt lat="43.50214" lon="0.21123">
        <ele>223.16</ele>
        <time>2021-08-19T09:25:29Z</time>
      </trkpt>
      <trkpt lat="43.5022" lon="0.21116">
        <ele>223.16</ele>
        <time>2021-08-19T09:25:30Z</time>
      </trkpt>
      <trkpt lat="43.50226" lon="0.21107">
        <ele>222.2</ele>
        <time>2021-08-19T09:25:31Z</time>
      </trkpt>
      <trkpt lat="43.50231" lon="0.21099">
        <ele>222.2</ele>
        <time>2021-08-19T09:25:32Z</time>
      </trkpt>
      <trkpt lat="43.50236" lon="0.21091">
        <ele>222.2</ele>
        <time>2021-08-19T09:25:33Z</time>
      </trkpt>
      <trkpt lat="43.5024" lon="0.21082">
        <ele>222.2</ele>
        <time>2021-08-19T09:25:34Z</time>
      </trkpt>
      <trkpt lat="43.50242" lon="0.21075">
        <ele>222.2</ele>
        <time>2021-08-19T09:25:35Z</time>
      </trkpt>
      <trkpt lat="43.50247" lon="0.21059">
        <ele>221.72</ele>
        <time>2021-08-19T09:25:37Z</time>
      </trkpt>
      <trkpt lat="43.50254" lon="0.2101">
        <ele>218.36</ele>
        <time>2021-08-19T09:25:42Z</time>
      </trkpt>
      <trkpt lat="43.50259" lon="0.20973">
        <ele>214.51</ele>
        <time>2021-08-19T09:25:45Z</time>
      </trkpt>
      <trkpt lat="43.50262" lon="0.20948">
        <ele>213.55</ele>
        <time>2021-08-19T09:25:47Z</time>
      </trkpt>
      <trkpt lat="43.50268" lon="0.20881">
        <ele>214.51</ele>
        <time>2021-08-19T09:25:53Z</time>
      </trkpt>
      <trkpt lat="43.50274" lon="0.20838">
        <ele>216.43</ele>
        <time>2021-08-19T09:25:59Z</time>
      </trkpt>
      <trkpt lat="43.50277" lon="0.20827">
        <ele>216.91</ele>
        <time>2021-08-19T09:26:01Z</time>
      </trkpt>
      <trkpt lat="43.50279" lon="0.20821">
        <ele>216.91</ele>
        <time>2021-08-19T09:26:02Z</time>
      </trkpt>
      <trkpt lat="43.50293" lon="0.20791">
        <ele>213.55</ele>
        <time>2021-08-19T09:26:06Z</time>
      </trkpt>
      <trkpt lat="43.50301" lon="0.20774">
        <ele>212.11</ele>
        <time>2021-08-19T09:26:08Z</time>
      </trkpt>
      <trkpt lat="43.5032" lon="0.2073">
        <ele>208.26</ele>
        <time>2021-08-19T09:26:14Z</time>
      </trkpt>
      <trkpt lat="43.50332" lon="0.20703">
        <ele>205.38</ele>
        <time>2021-08-19T09:26:19Z</time>
      </trkpt>
      <trkpt lat="43.50337" lon="0.2069">
        <ele>203.94</ele>
        <time>2021-08-19T09:26:22Z</time>
      </trkpt>
      <trkpt lat="43.50337" lon="0.20685">
        <ele>203.46</ele>
        <time>2021-08-19T09:26:23Z</time>
      </trkpt>
      <trkpt lat="43.50335" lon="0.20682">
        <ele>202.49</ele>
        <time>2021-08-19T09:26:24Z</time>
      </trkpt>
      <trkpt lat="43.50333" lon="0.20679">
        <ele>202.49</ele>
        <time>2021-08-19T09:26:25Z</time>
      </trkpt>
      <trkpt lat="43.5033" lon="0.20678">
        <ele>201.53</ele>
        <time>2021-08-19T09:26:26Z</time>
      </trkpt>
      <trkpt lat="43.50327" lon="0.20678">
        <ele>201.05</ele>
        <time>2021-08-19T09:26:27Z</time>
      </trkpt>
      <trkpt lat="43.50323" lon="0.20679">
        <ele>200.09</ele>
        <time>2021-08-19T09:26:28Z</time>
      </trkpt>
      <trkpt lat="43.5032" lon="0.2068">
        <ele>199.13</ele>
        <time>2021-08-19T09:26:29Z</time>
      </trkpt>
      <trkpt lat="43.50315" lon="0.20681">
        <ele>198.17</ele>
        <time>2021-08-19T09:26:30Z</time>
      </trkpt>
      <trkpt lat="43.50307" lon="0.20682">
        <ele>196.73</ele>
        <time>2021-08-19T09:26:32Z</time>
      </trkpt>
      <trkpt lat="43.50303" lon="0.20682">
        <ele>195.77</ele>
        <time>2021-08-19T09:26:33Z</time>
      </trkpt>
      <trkpt lat="43.50299" lon="0.2068">
        <ele>194.8</ele>
        <time>2021-08-19T09:26:34Z</time>
      </trkpt>
      <trkpt lat="43.50295" lon="0.20677">
        <ele>193.84</ele>
        <time>2021-08-19T09:26:35Z</time>
      </trkpt>
      <trkpt lat="43.50291" lon="0.20673">
        <ele>192.4</ele>
        <time>2021-08-19T09:26:36Z</time>
      </trkpt>
      <trkpt lat="43.50274" lon="0.20652">
        <ele>189.04</ele>
        <time>2021-08-19T09:26:40Z</time>
      </trkpt>
      <trkpt lat="43.5026" lon="0.20636">
        <ele>184.71</ele>
        <time>2021-08-19T09:26:43Z</time>
      </trkpt>
      <trkpt lat="43.50247" lon="0.20621">
        <ele>181.35</ele>
        <time>2021-08-19T09:26:46Z</time>
      </trkpt>
      <trkpt lat="43.50242" lon="0.20617">
        <ele>179.9</ele>
        <time>2021-08-19T09:26:47Z</time>
      </trkpt>
      <trkpt lat="43.5023" lon="0.20603">
        <ele>176.54</ele>
        <time>2021-08-19T09:26:50Z</time>
      </trkpt>
      <trkpt lat="43.50227" lon="0.20599">
        <ele>175.58</ele>
        <time>2021-08-19T09:26:51Z</time>
      </trkpt>
      <trkpt lat="43.50224" lon="0.20593">
        <ele>174.62</ele>
        <time>2021-08-19T09:26:52Z</time>
      </trkpt>
      <trkpt lat="43.50221" lon="0.20586">
        <ele>173.17</ele>
        <time>2021-08-19T09:26:53Z</time>
      </trkpt>
      <trkpt lat="43.50219" lon="0.20578">
        <ele>171.73</ele>
        <time>2021-08-19T09:26:54Z</time>
      </trkpt>
      <trkpt lat="43.50217" lon="0.2057">
        <ele>170.77</ele>
        <time>2021-08-19T09:26:55Z</time>
      </trkpt>
      <trkpt lat="43.50215" lon="0.20562">
        <ele>169.33</ele>
        <time>2021-08-19T09:26:56Z</time>
      </trkpt>
      <trkpt lat="43.50208" lon="0.20522">
        <ele>166.45</ele>
        <time>2021-08-19T09:27:00Z</time>
      </trkpt>
      <trkpt lat="43.50204" lon="0.20501">
        <ele>165.48</ele>
        <time>2021-08-19T09:27:02Z</time>
      </trkpt>
      <trkpt lat="43.502" lon="0.20481">
        <ele>165.48</ele>
        <time>2021-08-19T09:27:04Z</time>
      </trkpt>
      <trkpt lat="43.50197" lon="0.20473">
        <ele>165.48</ele>
        <time>2021-08-19T09:27:05Z</time>
      </trkpt>
      <trkpt lat="43.50175" lon="0.20411">
        <ele>165.96</ele>
        <time>2021-08-19T09:27:13Z</time>
      </trkpt>
      <trkpt lat="43.50173" lon="0.20405">
        <ele>165.96</ele>
        <time>2021-08-19T09:27:14Z</time>
      </trkpt>
      <trkpt lat="43.50163" lon="0.2037">
        <ele>166.93</ele>
        <time>2021-08-19T09:27:21Z</time>
      </trkpt>
      <trkpt lat="43.50154" lon="0.20331">
        <ele>167.41</ele>
        <time>2021-08-19T09:27:30Z</time>
      </trkpt>
      <trkpt lat="43.50146" lon="0.20271">
        <ele>168.37</ele>
        <time>2021-08-19T09:27:41Z</time>
      </trkpt>
      <trkpt lat="43.50142" lon="0.20225">
        <ele>168.85</ele>
        <time>2021-08-19T09:27:50Z</time>
      </trkpt>
      <trkpt lat="43.5014" lon="0.20193">
        <ele>169.33</ele>
        <time>2021-08-19T09:27:57Z</time>
      </trkpt>
      <trkpt lat="43.5015" lon="0.20173">
        <ele>169.33</ele>
        <time>2021-08-19T09:28:02Z</time>
      </trkpt>
      <trkpt lat="43.5016" lon="0.20165">
        <ele>169.33</ele>
        <time>2021-08-19T09:28:05Z</time>
      </trkpt>
      <trkpt lat="43.50172" lon="0.20155">
        <ele>169.33</ele>
        <time>2021-08-19T09:28:08Z</time>
      </trkpt>
      <trkpt lat="43.50217" lon="0.20129">
        <ele>169.81</ele>
        <time>2021-08-19T09:28:19Z</time>
      </trkpt>
      <trkpt lat="43.50252" lon="0.20118">
        <ele>169.81</ele>
        <time>2021-08-19T09:28:27Z</time>
      </trkpt>
      <trkpt lat="43.50267" lon="0.2012">
        <ele>169.81</ele>
        <time>2021-08-19T09:28:30Z</time>
      </trkpt>
      <trkpt lat="43.50271" lon="0.20121">
        <ele>169.81</ele>
        <time>2021-08-19T09:28:31Z</time>
      </trkpt>
      <trkpt lat="43.50296" lon="0.2013">
        <ele>169.81</ele>
        <time>2021-08-19T09:28:36Z</time>
      </trkpt>
      <trkpt lat="43.50301" lon="0.20129">
        <ele>169.81</ele>
        <time>2021-08-19T09:28:37Z</time>
      </trkpt>
      <trkpt lat="43.50306" lon="0.20128">
        <ele>169.81</ele>
        <time>2021-08-19T09:28:38Z</time>
      </trkpt>
      <trkpt lat="43.5031" lon="0.20125">
        <ele>169.81</ele>
        <time>2021-08-19T09:28:39Z</time>
      </trkpt>
      <trkpt lat="43.50315" lon="0.20122">
        <ele>169.81</ele>
        <time>2021-08-19T09:28:40Z</time>
      </trkpt>
      <trkpt lat="43.50319" lon="0.20118">
        <ele>169.81</ele>
        <time>2021-08-19T09:28:41Z</time>
      </trkpt>
      <trkpt lat="43.50323" lon="0.20114">
        <ele>169.81</ele>
        <time>2021-08-19T09:28:42Z</time>
      </trkpt>
      <trkpt lat="43.50327" lon="0.2011">
        <ele>169.81</ele>
        <time>2021-08-19T09:28:43Z</time>
      </trkpt>
      <trkpt lat="43.50331" lon="0.20106">
        <ele>169.81</ele>
        <time>2021-08-19T09:28:44Z</time>
      </trkpt>
      <trkpt lat="43.50334" lon="0.20102">
        <ele>169.81</ele>
        <time>2021-08-19T09:28:45Z</time>
      </trkpt>
      <trkpt lat="43.50337" lon="0.20098">
        <ele>169.81</ele>
        <time>2021-08-19T09:28:46Z</time>
      </trkpt>
      <trkpt lat="43.50354" lon="0.20075">
        <ele>169.81</ele>
        <time>2021-08-19T09:28:51Z</time>
      </trkpt>
      <trkpt lat="43.50358" lon="0.20071">
        <ele>169.81</ele>
        <time>2021-08-19T09:28:52Z</time>
      </trkpt>
      <trkpt lat="43.50361" lon="0.20066">
        <ele>169.81</ele>
        <time>2021-08-19T09:28:53Z</time>
      </trkpt>
      <trkpt lat="43.50388" lon="0.20032">
        <ele>170.77</ele>
        <time>2021-08-19T09:29:02Z</time>
      </trkpt>
      <trkpt lat="43.50392" lon="0.20022">
        <ele>171.25</ele>
        <time>2021-08-19T09:29:04Z</time>
      </trkpt>
      <trkpt lat="43.50394" lon="0.20018">
        <ele>171.25</ele>
        <time>2021-08-19T09:29:05Z</time>
      </trkpt>
      <trkpt lat="43.50395" lon="0.20012">
        <ele>171.25</ele>
        <time>2021-08-19T09:29:06Z</time>
      </trkpt>
      <trkpt lat="43.50397" lon="0.19969">
        <ele>171.73</ele>
        <time>2021-08-19T09:29:14Z</time>
      </trkpt>
      <trkpt lat="43.50396" lon="0.19927">
        <ele>173.17</ele>
        <time>2021-08-19T09:29:23Z</time>
      </trkpt>
      <trkpt lat="43.50389" lon="0.19891">
        <ele>173.66</ele>
        <time>2021-08-19T09:29:31Z</time>
      </trkpt>
      <trkpt lat="43.5039" lon="0.19868">
        <ele>174.14</ele>
        <time>2021-08-19T09:29:36Z</time>
      </trkpt>
      <trkpt lat="43.50407" lon="0.19855">
        <ele>174.14</ele>
        <time>2021-08-19T09:29:41Z</time>
      </trkpt>
      <trkpt lat="43.50439" lon="0.19839">
        <ele>175.58</ele>
        <time>2021-08-19T09:29:51Z</time>
      </trkpt>
      <trkpt lat="43.5045" lon="0.19834">
        <ele>175.58</ele>
        <time>2021-08-19T09:29:54Z</time>
      </trkpt>
      <trkpt lat="43.50485" lon="0.19818">
        <ele>175.58</ele>
        <time>2021-08-19T09:30:03Z</time>
      </trkpt>
      <trkpt lat="43.50531" lon="0.19792">
        <ele>175.58</ele>
        <time>2021-08-19T09:30:15Z</time>
      </trkpt>
      <trkpt lat="43.50555" lon="0.19766">
        <ele>175.58</ele>
        <time>2021-08-19T09:30:22Z</time>
      </trkpt>
      <trkpt lat="43.50559" lon="0.19762">
        <ele>175.58</ele>
        <time>2021-08-19T09:30:23Z</time>
      </trkpt>
      <trkpt lat="43.50562" lon="0.19758">
        <ele>175.58</ele>
        <time>2021-08-19T09:30:24Z</time>
      </trkpt>
      <trkpt lat="43.50598" lon="0.19724">
        <ele>174.14</ele>
        <time>2021-08-19T09:30:33Z</time>
      </trkpt>
      <trkpt lat="43.50602" lon="0.1972">
        <ele>173.66</ele>
        <time>2021-08-19T09:30:34Z</time>
      </trkpt>
      <trkpt lat="43.50607" lon="0.19716">
        <ele>173.17</ele>
        <time>2021-08-19T09:30:35Z</time>
      </trkpt>
      <trkpt lat="43.50641" lon="0.19702">
        <ele>172.21</ele>
        <time>2021-08-19T09:30:41Z</time>
      </trkpt>
      <trkpt lat="43.50658" lon="0.19696">
        <ele>173.66</ele>
        <time>2021-08-19T09:30:45Z</time>
      </trkpt>
      <trkpt lat="43.5068" lon="0.19689">
        <ele>174.14</ele>
        <time>2021-08-19T09:30:51Z</time>
      </trkpt>
      <trkpt lat="43.50708" lon="0.19672">
        <ele>175.1</ele>
        <time>2021-08-19T09:31:00Z</time>
      </trkpt>
      <trkpt lat="43.50728" lon="0.19654">
        <ele>175.1</ele>
        <time>2021-08-19T09:31:07Z</time>
      </trkpt>
      <trkpt lat="43.50751" lon="0.19632">
        <ele>173.66</ele>
        <time>2021-08-19T09:31:14Z</time>
      </trkpt>
      <trkpt lat="43.5077" lon="0.19608">
        <ele>173.17</ele>
        <time>2021-08-19T09:31:21Z</time>
      </trkpt>
      <trkpt lat="43.50779" lon="0.19595">
        <ele>172.69</ele>
        <time>2021-08-19T09:31:24Z</time>
      </trkpt>
      <trkpt lat="43.508" lon="0.19559">
        <ele>171.73</ele>
        <time>2021-08-19T09:31:32Z</time>
      </trkpt>
      <trkpt lat="43.50813" lon="0.19531">
        <ele>171.25</ele>
        <time>2021-08-19T09:31:39Z</time>
      </trkpt>
      <trkpt lat="43.50822" lon="0.19504">
        <ele>169.81</ele>
        <time>2021-08-19T09:31:44Z</time>
      </trkpt>
      <trkpt lat="43.50824" lon="0.19498">
        <ele>169.81</ele>
        <time>2021-08-19T09:31:45Z</time>
      </trkpt>
      <trkpt lat="43.50827" lon="0.19492">
        <ele>169.81</ele>
        <time>2021-08-19T09:31:46Z</time>
      </trkpt>
      <trkpt lat="43.50837" lon="0.19469">
        <ele>169.81</ele>
        <time>2021-08-19T09:31:51Z</time>
      </trkpt>
      <trkpt lat="43.50842" lon="0.19457">
        <ele>171.25</ele>
        <time>2021-08-19T09:31:55Z</time>
      </trkpt>
      <trkpt lat="43.50851" lon="0.19438">
        <ele>172.69</ele>
        <time>2021-08-19T09:32:02Z</time>
      </trkpt>
      <trkpt lat="43.50858" lon="0.1942">
        <ele>172.69</ele>
        <time>2021-08-19T09:32:09Z</time>
      </trkpt>
      <trkpt lat="43.50871" lon="0.19392">
        <ele>172.69</ele>
        <time>2021-08-19T09:32:18Z</time>
      </trkpt>
      <trkpt lat="43.50884" lon="0.19366">
        <ele>172.69</ele>
        <time>2021-08-19T09:32:25Z</time>
      </trkpt>
      <trkpt lat="43.50901" lon="0.19332">
        <ele>172.69</ele>
        <time>2021-08-19T09:32:33Z</time>
      </trkpt>
      <trkpt lat="43.50916" lon="0.19304">
        <ele>171.73</ele>
        <time>2021-08-19T09:32:41Z</time>
      </trkpt>
      <trkpt lat="43.5093" lon="0.19278">
        <ele>171.25</ele>
        <time>2021-08-19T09:32:48Z</time>
      </trkpt>
      <trkpt lat="43.50949" lon="0.19259">
        <ele>170.77</ele>
        <time>2021-08-19T09:32:55Z</time>
      </trkpt>
      <trkpt lat="43.50965" lon="0.19239">
        <ele>170.29</ele>
        <time>2021-08-19T09:33:01Z</time>
      </trkpt>
      <trkpt lat="43.50993" lon="0.19199">
        <ele>169.81</ele>
        <time>2021-08-19T09:33:10Z</time>
      </trkpt>
      <trkpt lat="43.51024" lon="0.19153">
        <ele>169.33</ele>
        <time>2021-08-19T09:33:19Z</time>
      </trkpt>
      <trkpt lat="43.51044" lon="0.19118">
        <ele>168.85</ele>
        <time>2021-08-19T09:33:25Z</time>
      </trkpt>
      <trkpt lat="43.51063" lon="0.19063">
        <ele>168.85</ele>
        <time>2021-08-19T09:33:34Z</time>
      </trkpt>
      <trkpt lat="43.51076" lon="0.19019">
        <ele>168.85</ele>
        <time>2021-08-19T09:33:42Z</time>
      </trkpt>
      <trkpt lat="43.51079" lon="0.19014">
        <ele>168.85</ele>
        <time>2021-08-19T09:33:43Z</time>
      </trkpt>
      <trkpt lat="43.51096" lon="0.18978">
        <ele>168.85</ele>
        <time>2021-08-19T09:33:51Z</time>
      </trkpt>
      <trkpt lat="43.51116" lon="0.18935">
        <ele>167.89</ele>
        <time>2021-08-19T09:34:01Z</time>
      </trkpt>
      <trkpt lat="43.51131" lon="0.18901">
        <ele>167.41</ele>
        <time>2021-08-19T09:34:09Z</time>
      </trkpt>
      <trkpt lat="43.51146" lon="0.18865">
        <ele>166.93</ele>
        <time>2021-08-19T09:34:17Z</time>
      </trkpt>
      <trkpt lat="43.51156" lon="0.18831">
        <ele>166.93</ele>
        <time>2021-08-19T09:34:25Z</time>
      </trkpt>
      <trkpt lat="43.51162" lon="0.18812">
        <ele>168.37</ele>
        <time>2021-08-19T09:34:30Z</time>
      </trkpt>
      <trkpt lat="43.51169" lon="0.18783">
        <ele>168.85</ele>
        <time>2021-08-19T09:34:39Z</time>
      </trkpt>
      <trkpt lat="43.51179" lon="0.18747">
        <ele>168.85</ele>
        <time>2021-08-19T09:34:49Z</time>
      </trkpt>
      <trkpt lat="43.51188" lon="0.18715">
        <ele>169.81</ele>
        <time>2021-08-19T09:34:58Z</time>
      </trkpt>
      <trkpt lat="43.51198" lon="0.18681">
        <ele>170.77</ele>
        <time>2021-08-19T09:35:08Z</time>
      </trkpt>
      <trkpt lat="43.51208" lon="0.18641">
        <ele>170.77</ele>
        <time>2021-08-19T09:35:18Z</time>
      </trkpt>
      <trkpt lat="43.51214" lon="0.18621">
        <ele>170.77</ele>
        <time>2021-08-19T09:35:24Z</time>
      </trkpt>
      <trkpt lat="43.5122" lon="0.18598">
        <ele>170.77</ele>
        <time>2021-08-19T09:35:32Z</time>
      </trkpt>
      <trkpt lat="43.51224" lon="0.18578">
        <ele>171.25</ele>
        <time>2021-08-19T09:35:39Z</time>
      </trkpt>
      <trkpt lat="43.51222" lon="0.18572">
        <ele>171.25</ele>
        <time>2021-08-19T09:35:41Z</time>
      </trkpt>
      <trkpt lat="43.51215" lon="0.18569">
        <ele>172.21</ele>
        <time>2021-08-19T09:35:47Z</time>
      </trkpt>
      <trkpt lat="43.51209" lon="0.18567">
        <ele>172.69</ele>
        <time>2021-08-19T09:35:54Z</time>
      </trkpt>
      <trkpt lat="43.51203" lon="0.18563">
        <ele>173.66</ele>
        <time>2021-08-19T09:36:01Z</time>
      </trkpt>
      <trkpt lat="43.51195" lon="0.18559">
        <ele>174.62</ele>
        <time>2021-08-19T09:36:09Z</time>
      </trkpt>
      <trkpt lat="43.51186" lon="0.18555">
        <ele>176.06</ele>
        <time>2021-08-19T09:36:19Z</time>
      </trkpt>
      <trkpt lat="43.51175" lon="0.1855">
        <ele>177.98</ele>
        <time>2021-08-19T09:36:30Z</time>
      </trkpt>
      <trkpt lat="43.51166" lon="0.18548">
        <ele>179.9</ele>
        <time>2021-08-19T09:36:41Z</time>
      </trkpt>
      <trkpt lat="43.51159" lon="0.18544">
        <ele>180.87</ele>
        <time>2021-08-19T09:36:50Z</time>
      </trkpt>
      <trkpt lat="43.51153" lon="0.18541">
        <ele>182.31</ele>
        <time>2021-08-19T09:36:59Z</time>
      </trkpt>
      <trkpt lat="43.51145" lon="0.18538">
        <ele>184.71</ele>
        <time>2021-08-19T09:37:11Z</time>
      </trkpt>
      <trkpt lat="43.51139" lon="0.18535">
        <ele>186.15</ele>
        <time>2021-08-19T09:37:21Z</time>
      </trkpt>
      <trkpt lat="43.51131" lon="0.18533">
        <ele>187.59</ele>
        <time>2021-08-19T09:37:31Z</time>
      </trkpt>
      <trkpt lat="43.51122" lon="0.18527">
        <ele>189.52</ele>
        <time>2021-08-19T09:37:42Z</time>
      </trkpt>
      <trkpt lat="43.51111" lon="0.18521">
        <ele>190.96</ele>
        <time>2021-08-19T09:37:54Z</time>
      </trkpt>
      <trkpt lat="43.51106" lon="0.18517">
        <ele>191.44</ele>
        <time>2021-08-19T09:37:58Z</time>
      </trkpt>
      <trkpt lat="43.51104" lon="0.18514">
        <ele>191.44</ele>
        <time>2021-08-19T09:38:00Z</time>
      </trkpt>
      <trkpt lat="43.51098" lon="0.18508">
        <ele>192.4</ele>
        <time>2021-08-19T09:38:09Z</time>
      </trkpt>
      <trkpt lat="43.51094" lon="0.18505">
        <ele>191.92</ele>
        <time>2021-08-19T09:38:14Z</time>
      </trkpt>
      <trkpt lat="43.5108" lon="0.18493">
        <ele>193.36</ele>
        <time>2021-08-19T09:38:22Z</time>
      </trkpt>
      <trkpt lat="43.51065" lon="0.18473">
        <ele>194.8</ele>
        <time>2021-08-19T09:38:32Z</time>
      </trkpt>
      <trkpt lat="43.51054" lon="0.1846">
        <ele>196.25</ele>
        <time>2021-08-19T09:38:39Z</time>
      </trkpt>
      <trkpt lat="43.51055" lon="0.1845">
        <ele>196.73</ele>
        <time>2021-08-19T09:38:44Z</time>
      </trkpt>
      <trkpt lat="43.51057" lon="0.18445">
        <ele>197.21</ele>
        <time>2021-08-19T09:38:50Z</time>
      </trkpt>
      <trkpt lat="43.51061" lon="0.18436">
        <ele>198.17</ele>
        <time>2021-08-19T09:39:00Z</time>
      </trkpt>
      <trkpt lat="43.51064" lon="0.1843">
        <ele>199.61</ele>
        <time>2021-08-19T09:39:08Z</time>
      </trkpt>
      <trkpt lat="43.51067" lon="0.18423">
        <ele>201.05</ele>
        <time>2021-08-19T09:39:17Z</time>
      </trkpt>
      <trkpt lat="43.51072" lon="0.18411">
        <ele>201.53</ele>
        <time>2021-08-19T09:39:26Z</time>
      </trkpt>
      <trkpt lat="43.51076" lon="0.18397">
        <ele>202.01</ele>
        <time>2021-08-19T09:39:36Z</time>
      </trkpt>
      <trkpt lat="43.51077" lon="0.18396">
        <ele>202.49</ele>
        <time>2021-08-19T09:39:41Z</time>
      </trkpt>
      <trkpt lat="43.51077" lon="0.18394">
        <ele>202.49</ele>
        <time>2021-08-19T09:39:43Z</time>
      </trkpt>
      <trkpt lat="43.51086" lon="0.18376">
        <ele>202.49</ele>
        <time>2021-08-19T09:39:51Z</time>
      </trkpt>
      <trkpt lat="43.511" lon="0.18347">
        <ele>202.49</ele>
        <time>2021-08-19T09:40:00Z</time>
      </trkpt>
      <trkpt lat="43.51116" lon="0.18314">
        <ele>202.49</ele>
        <time>2021-08-19T09:40:08Z</time>
      </trkpt>
      <trkpt lat="43.51128" lon="0.18288">
        <ele>201.53</ele>
        <time>2021-08-19T09:40:15Z</time>
      </trkpt>
      <trkpt lat="43.51144" lon="0.18257">
        <ele>200.09</ele>
        <time>2021-08-19T09:40:22Z</time>
      </trkpt>
      <trkpt lat="43.51166" lon="0.18209">
        <ele>197.21</ele>
        <time>2021-08-19T09:40:31Z</time>
      </trkpt>
      <trkpt lat="43.51196" lon="0.18147">
        <ele>193.84</ele>
        <time>2021-08-19T09:40:40Z</time>
      </trkpt>
      <trkpt lat="43.51235" lon="0.18072">
        <ele>190.96</ele>
        <time>2021-08-19T09:40:50Z</time>
      </trkpt>
      <trkpt lat="43.51251" lon="0.18038">
        <ele>190.96</ele>
        <time>2021-08-19T09:40:56Z</time>
      </trkpt>
      <trkpt lat="43.51265" lon="0.18008">
        <ele>190.96</ele>
        <time>2021-08-19T09:41:03Z</time>
      </trkpt>
      <trkpt lat="43.51268" lon="0.17993">
        <ele>190.96</ele>
        <time>2021-08-19T09:41:07Z</time>
      </trkpt>
      <trkpt lat="43.51266" lon="0.1799">
        <ele>190.96</ele>
        <time>2021-08-19T09:41:08Z</time>
      </trkpt>
      <trkpt lat="43.51262" lon="0.17986">
        <ele>190.48</ele>
        <time>2021-08-19T09:41:09Z</time>
      </trkpt>
      <trkpt lat="43.51243" lon="0.1797">
        <ele>186.63</ele>
        <time>2021-08-19T09:41:13Z</time>
      </trkpt>
      <trkpt lat="43.51224" lon="0.17956">
        <ele>182.31</ele>
        <time>2021-08-19T09:41:16Z</time>
      </trkpt>
      <trkpt lat="43.51214" lon="0.17947">
        <ele>181.83</ele>
        <time>2021-08-19T09:41:18Z</time>
      </trkpt>
      <trkpt lat="43.5121" lon="0.17942">
        <ele>180.38</ele>
        <time>2021-08-19T09:41:19Z</time>
      </trkpt>
      <trkpt lat="43.51207" lon="0.17937">
        <ele>180.38</ele>
        <time>2021-08-19T09:41:20Z</time>
      </trkpt>
      <trkpt lat="43.51207" lon="0.17932">
        <ele>179.9</ele>
        <time>2021-08-19T09:41:21Z</time>
      </trkpt>
      <trkpt lat="43.51209" lon="0.17927">
        <ele>179.9</ele>
        <time>2021-08-19T09:41:22Z</time>
      </trkpt>
      <trkpt lat="43.51212" lon="0.17923">
        <ele>179.42</ele>
        <time>2021-08-19T09:41:23Z</time>
      </trkpt>
      <trkpt lat="43.51214" lon="0.17918">
        <ele>179.42</ele>
        <time>2021-08-19T09:41:24Z</time>
      </trkpt>
      <trkpt lat="43.51228" lon="0.17893">
        <ele>179.9</ele>
        <time>2021-08-19T09:41:31Z</time>
      </trkpt>
      <trkpt lat="43.51241" lon="0.17867">
        <ele>179.9</ele>
        <time>2021-08-19T09:41:39Z</time>
      </trkpt>
      <trkpt lat="43.51257" lon="0.17835">
        <ele>179.9</ele>
        <time>2021-08-19T09:41:47Z</time>
      </trkpt>
      <trkpt lat="43.51277" lon="0.17793">
        <ele>179.9</ele>
        <time>2021-08-19T09:41:57Z</time>
      </trkpt>
      <trkpt lat="43.51291" lon="0.17756">
        <ele>177.5</ele>
        <time>2021-08-19T09:42:04Z</time>
      </trkpt>
      <trkpt lat="43.51301" lon="0.17726">
        <ele>174.14</ele>
        <time>2021-08-19T09:42:08Z</time>
      </trkpt>
      <trkpt lat="43.51309" lon="0.177">
        <ele>170.77</ele>
        <time>2021-08-19T09:42:11Z</time>
      </trkpt>
      <trkpt lat="43.51317" lon="0.17671">
        <ele>167.41</ele>
        <time>2021-08-19T09:42:14Z</time>
      </trkpt>
      <trkpt lat="43.5132" lon="0.17662">
        <ele>166.93</ele>
        <time>2021-08-19T09:42:15Z</time>
      </trkpt>
      <trkpt lat="43.51323" lon="0.17655">
        <ele>166.45</ele>
        <time>2021-08-19T09:42:16Z</time>
      </trkpt>
      <trkpt lat="43.51326" lon="0.17651">
        <ele>166.45</ele>
        <time>2021-08-19T09:42:17Z</time>
      </trkpt>
      <trkpt lat="43.5133" lon="0.1765">
        <ele>166.93</ele>
        <time>2021-08-19T09:42:18Z</time>
      </trkpt>
      <trkpt lat="43.51333" lon="0.17651">
        <ele>166.93</ele>
        <time>2021-08-19T09:42:19Z</time>
      </trkpt>
      <trkpt lat="43.51336" lon="0.17651">
        <ele>166.93</ele>
        <time>2021-08-19T09:42:20Z</time>
      </trkpt>
      <trkpt lat="43.51337" lon="0.1765">
        <ele>166.45</ele>
        <time>2021-08-19T09:42:21Z</time>
      </trkpt>
      <trkpt lat="43.51339" lon="0.17646">
        <ele>166.45</ele>
        <time>2021-08-19T09:42:22Z</time>
      </trkpt>
      <trkpt lat="43.5134" lon="0.17642">
        <ele>165.96</ele>
        <time>2021-08-19T09:42:23Z</time>
      </trkpt>
      <trkpt lat="43.51342" lon="0.17639">
        <ele>165.96</ele>
        <time>2021-08-19T09:42:24Z</time>
      </trkpt>
      <trkpt lat="43.51345" lon="0.17637">
        <ele>165.96</ele>
        <time>2021-08-19T09:42:25Z</time>
      </trkpt>
      <trkpt lat="43.51348" lon="0.17637">
        <ele>165.96</ele>
        <time>2021-08-19T09:42:26Z</time>
      </trkpt>
      <trkpt lat="43.5135" lon="0.17637">
        <ele>165.96</ele>
        <time>2021-08-19T09:42:27Z</time>
      </trkpt>
      <trkpt lat="43.51353" lon="0.17637">
        <ele>165.96</ele>
        <time>2021-08-19T09:42:28Z</time>
      </trkpt>
      <trkpt lat="43.51373" lon="0.17641">
        <ele>165.96</ele>
        <time>2021-08-19T09:42:34Z</time>
      </trkpt>
      <trkpt lat="43.51378" lon="0.17639">
        <ele>165.96</ele>
        <time>2021-08-19T09:42:36Z</time>
      </trkpt>
      <trkpt lat="43.5138" lon="0.17637">
        <ele>165.96</ele>
        <time>2021-08-19T09:42:37Z</time>
      </trkpt>
      <trkpt lat="43.51382" lon="0.17634">
        <ele>165.96</ele>
        <time>2021-08-19T09:42:38Z</time>
      </trkpt>
      <trkpt lat="43.51382" lon="0.17631">
        <ele>165.96</ele>
        <time>2021-08-19T09:42:39Z</time>
      </trkpt>
      <trkpt lat="43.51383" lon="0.17628">
        <ele>165.96</ele>
        <time>2021-08-19T09:42:40Z</time>
      </trkpt>
      <trkpt lat="43.51384" lon="0.17625">
        <ele>165.96</ele>
        <time>2021-08-19T09:42:41Z</time>
      </trkpt>
      <trkpt lat="43.51385" lon="0.17622">
        <ele>165.96</ele>
        <time>2021-08-19T09:42:42Z</time>
      </trkpt>
      <trkpt lat="43.51391" lon="0.17602">
        <ele>165.96</ele>
        <time>2021-08-19T09:42:48Z</time>
      </trkpt>
      <trkpt lat="43.514" lon="0.17572">
        <ele>166.93</ele>
        <time>2021-08-19T09:42:56Z</time>
      </trkpt>
      <trkpt lat="43.5141" lon="0.17544">
        <ele>168.85</ele>
        <time>2021-08-19T09:43:06Z</time>
      </trkpt>
      <trkpt lat="43.51416" lon="0.17522">
        <ele>169.33</ele>
        <time>2021-08-19T09:43:13Z</time>
      </trkpt>
      <trkpt lat="43.51422" lon="0.17498">
        <ele>170.29</ele>
        <time>2021-08-19T09:43:22Z</time>
      </trkpt>
      <trkpt lat="43.51427" lon="0.17479">
        <ele>171.25</ele>
        <time>2021-08-19T09:43:30Z</time>
      </trkpt>
      <trkpt lat="43.51429" lon="0.1747">
        <ele>171.73</ele>
        <time>2021-08-19T09:43:33Z</time>
      </trkpt>
      <trkpt lat="43.51431" lon="0.17464">
        <ele>172.21</ele>
        <time>2021-08-19T09:43:34Z</time>
      </trkpt>
      <trkpt lat="43.51432" lon="0.1746">
        <ele>172.21</ele>
        <time>2021-08-19T09:43:35Z</time>
      </trkpt>
      <trkpt lat="43.51432" lon="0.17458">
        <ele>172.21</ele>
        <time>2021-08-19T09:43:36Z</time>
      </trkpt>
      <trkpt lat="43.51433" lon="0.17455">
        <ele>172.21</ele>
        <time>2021-08-19T09:43:37Z</time>
      </trkpt>
      <trkpt lat="43.51437" lon="0.17441">
        <ele>172.69</ele>
        <time>2021-08-19T09:43:43Z</time>
      </trkpt>
      <trkpt lat="43.51443" lon="0.1742">
        <ele>173.66</ele>
        <time>2021-08-19T09:43:50Z</time>
      </trkpt>
      <trkpt lat="43.51452" lon="0.17392">
        <ele>174.14</ele>
        <time>2021-08-19T09:43:59Z</time>
      </trkpt>
      <trkpt lat="43.51459" lon="0.17368">
        <ele>175.58</ele>
        <time>2021-08-19T09:44:07Z</time>
      </trkpt>
      <trkpt lat="43.51467" lon="0.17339">
        <ele>177.5</ele>
        <time>2021-08-19T09:44:18Z</time>
      </trkpt>
      <trkpt lat="43.51473" lon="0.1732">
        <ele>178.46</ele>
        <time>2021-08-19T09:44:26Z</time>
      </trkpt>
      <trkpt lat="43.51481" lon="0.17299">
        <ele>179.9</ele>
        <time>2021-08-19T09:44:35Z</time>
      </trkpt>
      <trkpt lat="43.51486" lon="0.17283">
        <ele>180.87</ele>
        <time>2021-08-19T09:44:42Z</time>
      </trkpt>
      <trkpt lat="43.51493" lon="0.17257">
        <ele>181.83</ele>
        <time>2021-08-19T09:44:51Z</time>
      </trkpt>
      <trkpt lat="43.51503" lon="0.17226">
        <ele>182.79</ele>
        <time>2021-08-19T09:45:00Z</time>
      </trkpt>
      <trkpt lat="43.51509" lon="0.17201">
        <ele>182.79</ele>
        <time>2021-08-19T09:45:06Z</time>
      </trkpt>
      <trkpt lat="43.51518" lon="0.17155">
        <ele>181.35</ele>
        <time>2021-08-19T09:45:15Z</time>
      </trkpt>
      <trkpt lat="43.51524" lon="0.17127">
        <ele>181.35</ele>
        <time>2021-08-19T09:45:21Z</time>
      </trkpt>
      <trkpt lat="43.51532" lon="0.17096">
        <ele>181.35</ele>
        <time>2021-08-19T09:45:29Z</time>
      </trkpt>
      <trkpt lat="43.51536" lon="0.17082">
        <ele>182.79</ele>
        <time>2021-08-19T09:45:34Z</time>
      </trkpt>
      <trkpt lat="43.51544" lon="0.17063">
        <ele>183.75</ele>
        <time>2021-08-19T09:45:42Z</time>
      </trkpt>
      <trkpt lat="43.5155" lon="0.17042">
        <ele>185.19</ele>
        <time>2021-08-19T09:45:51Z</time>
      </trkpt>
      <trkpt lat="43.51554" lon="0.17033">
        <ele>185.67</ele>
        <time>2021-08-19T09:45:56Z</time>
      </trkpt>
      <trkpt lat="43.51554" lon="0.17031">
        <ele>186.63</ele>
        <time>2021-08-19T09:45:57Z</time>
      </trkpt>
      <trkpt lat="43.51555" lon="0.17029">
        <ele>186.63</ele>
        <time>2021-08-19T09:45:58Z</time>
      </trkpt>
      <trkpt lat="43.51555" lon="0.17027">
        <ele>186.63</ele>
        <time>2021-08-19T09:45:59Z</time>
      </trkpt>
      <trkpt lat="43.51556" lon="0.17025">
        <ele>186.63</ele>
        <time>2021-08-19T09:46:00Z</time>
      </trkpt>
      <trkpt lat="43.51556" lon="0.17023">
        <ele>186.63</ele>
        <time>2021-08-19T09:46:01Z</time>
      </trkpt>
      <trkpt lat="43.51557" lon="0.17021">
        <ele>186.63</ele>
        <time>2021-08-19T09:46:02Z</time>
      </trkpt>
      <trkpt lat="43.51557" lon="0.17019">
        <ele>187.11</ele>
        <time>2021-08-19T09:46:03Z</time>
      </trkpt>
      <trkpt lat="43.51561" lon="0.17">
        <ele>187.11</ele>
        <time>2021-08-19T09:46:09Z</time>
      </trkpt>
      <trkpt lat="43.51567" lon="0.16984">
        <ele>185.19</ele>
        <time>2021-08-19T09:46:12Z</time>
      </trkpt>
      <trkpt lat="43.51584" lon="0.16949">
        <ele>182.31</ele>
        <time>2021-08-19T09:46:17Z</time>
      </trkpt>
      <trkpt lat="43.51607" lon="0.16916">
        <ele>178.94</ele>
        <time>2021-08-19T09:46:21Z</time>
      </trkpt>
      <trkpt lat="43.51633" lon="0.1688">
        <ele>175.1</ele>
        <time>2021-08-19T09:46:25Z</time>
      </trkpt>
      <trkpt lat="43.5164" lon="0.16871">
        <ele>174.14</ele>
        <time>2021-08-19T09:46:26Z</time>
      </trkpt>
      <trkpt lat="43.51648" lon="0.16862">
        <ele>173.17</ele>
        <time>2021-08-19T09:46:27Z</time>
      </trkpt>
      <trkpt lat="43.51657" lon="0.16856">
        <ele>171.73</ele>
        <time>2021-08-19T09:46:28Z</time>
      </trkpt>
      <trkpt lat="43.51696" lon="0.1683">
        <ele>168.37</ele>
        <time>2021-08-19T09:46:32Z</time>
      </trkpt>
      <trkpt lat="43.51746" lon="0.16795">
        <ele>165</ele>
        <time>2021-08-19T09:46:37Z</time>
      </trkpt>
      <trkpt lat="43.51765" lon="0.16782">
        <ele>164.52</ele>
        <time>2021-08-19T09:46:39Z</time>
      </trkpt>
      <trkpt lat="43.51821" lon="0.16745">
        <ele>163.08</ele>
        <time>2021-08-19T09:46:45Z</time>
      </trkpt>
      <trkpt lat="43.51828" lon="0.16738">
        <ele>163.08</ele>
        <time>2021-08-19T09:46:46Z</time>
      </trkpt>
      <trkpt lat="43.51834" lon="0.16728">
        <ele>163.08</ele>
        <time>2021-08-19T09:46:47Z</time>
      </trkpt>
      <trkpt lat="43.51839" lon="0.16719">
        <ele>162.6</ele>
        <time>2021-08-19T09:46:48Z</time>
      </trkpt>
      <trkpt lat="43.51844" lon="0.16709">
        <ele>162.6</ele>
        <time>2021-08-19T09:46:49Z</time>
      </trkpt>
      <trkpt lat="43.51878" lon="0.16645">
        <ele>162.12</ele>
        <time>2021-08-19T09:46:56Z</time>
      </trkpt>
      <trkpt lat="43.51908" lon="0.1659">
        <ele>161.64</ele>
        <time>2021-08-19T09:47:03Z</time>
      </trkpt>
      <trkpt lat="43.51944" lon="0.16521">
        <ele>160.68</ele>
        <time>2021-08-19T09:47:12Z</time>
      </trkpt>
      <trkpt lat="43.51982" lon="0.16448">
        <ele>159.72</ele>
        <time>2021-08-19T09:47:21Z</time>
      </trkpt>
      <trkpt lat="43.52022" lon="0.16374">
        <ele>157.79</ele>
        <time>2021-08-19T09:47:30Z</time>
      </trkpt>
      <trkpt lat="43.52027" lon="0.16368">
        <ele>157.79</ele>
        <time>2021-08-19T09:47:31Z</time>
      </trkpt>
      <trkpt lat="43.52033" lon="0.16363">
        <ele>157.79</ele>
        <time>2021-08-19T09:47:32Z</time>
      </trkpt>
      <trkpt lat="43.52039" lon="0.16359">
        <ele>157.79</ele>
        <time>2021-08-19T09:47:33Z</time>
      </trkpt>
      <trkpt lat="43.52045" lon="0.16355">
        <ele>157.79</ele>
        <time>2021-08-19T09:47:34Z</time>
      </trkpt>
      <trkpt lat="43.5209" lon="0.16335">
        <ele>157.79</ele>
        <time>2021-08-19T09:47:41Z</time>
      </trkpt>
      <trkpt lat="43.52119" lon="0.16322">
        <ele>157.31</ele>
        <time>2021-08-19T09:47:46Z</time>
      </trkpt>
      <trkpt lat="43.52126" lon="0.16321">
        <ele>157.31</ele>
        <time>2021-08-19T09:47:47Z</time>
      </trkpt>
      <trkpt lat="43.52131" lon="0.16319">
        <ele>157.31</ele>
        <time>2021-08-19T09:47:48Z</time>
      </trkpt>
      <trkpt lat="43.52142" lon="0.16314">
        <ele>157.31</ele>
        <time>2021-08-19T09:47:50Z</time>
      </trkpt>
      <trkpt lat="43.52147" lon="0.16312">
        <ele>157.31</ele>
        <time>2021-08-19T09:47:51Z</time>
      </trkpt>
      <trkpt lat="43.52152" lon="0.16309">
        <ele>157.31</ele>
        <time>2021-08-19T09:47:52Z</time>
      </trkpt>
      <trkpt lat="43.52184" lon="0.16293">
        <ele>157.31</ele>
        <time>2021-08-19T09:47:59Z</time>
      </trkpt>
      <trkpt lat="43.52205" lon="0.16286">
        <ele>158.75</ele>
        <time>2021-08-19T09:48:05Z</time>
      </trkpt>
      <trkpt lat="43.5224" lon="0.16265">
        <ele>158.75</ele>
        <time>2021-08-19T09:48:14Z</time>
      </trkpt>
      <trkpt lat="43.52255" lon="0.16258">
        <ele>157.31</ele>
        <time>2021-08-19T09:48:18Z</time>
      </trkpt>
      <trkpt lat="43.52259" lon="0.16256">
        <ele>157.31</ele>
        <time>2021-08-19T09:48:19Z</time>
      </trkpt>
      <trkpt lat="43.52282" lon="0.16245">
        <ele>156.83</ele>
        <time>2021-08-19T09:48:24Z</time>
      </trkpt>
      <trkpt lat="43.52287" lon="0.16242">
        <ele>156.83</ele>
        <time>2021-08-19T09:48:25Z</time>
      </trkpt>
      <trkpt lat="43.52305" lon="0.16232">
        <ele>156.83</ele>
        <time>2021-08-19T09:48:29Z</time>
      </trkpt>
      <trkpt lat="43.5232" lon="0.16223">
        <ele>156.35</ele>
        <time>2021-08-19T09:48:32Z</time>
      </trkpt>
      <trkpt lat="43.5233" lon="0.1622">
        <ele>155.87</ele>
        <time>2021-08-19T09:48:34Z</time>
      </trkpt>
      <trkpt lat="43.52369" lon="0.16203">
        <ele>155.87</ele>
        <time>2021-08-19T09:48:42Z</time>
      </trkpt>
      <trkpt lat="43.52383" lon="0.16196">
        <ele>155.87</ele>
        <time>2021-08-19T09:48:47Z</time>
      </trkpt>
      <trkpt lat="43.52388" lon="0.16196">
        <ele>156.35</ele>
        <time>2021-08-19T09:48:53Z</time>
      </trkpt>
      <trkpt lat="43.52391" lon="0.16196">
        <ele>156.35</ele>
        <time>2021-08-19T09:49:02Z</time>
      </trkpt>
      <trkpt lat="43.52391" lon="0.16199">
        <ele>156.35</ele>
        <time>2021-08-19T09:49:08Z</time>
      </trkpt>
      <trkpt lat="43.52393" lon="0.16201">
        <ele>156.35</ele>
        <time>2021-08-19T09:49:16Z</time>
      </trkpt>
      <trkpt lat="43.52398" lon="0.162">
        <ele>156.35</ele>
        <time>2021-08-19T09:49:32Z</time>
      </trkpt>
      <trkpt lat="43.52404" lon="0.162">
        <ele>156.35</ele>
        <time>2021-08-19T09:49:49Z</time>
      </trkpt>
      <trkpt lat="43.52405" lon="0.162">
        <ele>156.35</ele>
        <time>2021-08-19T09:50:05Z</time>
      </trkpt>
      <trkpt lat="43.52403" lon="0.162">
        <ele>156.35</ele>
        <time>2021-08-19T09:50:27Z</time>
      </trkpt>
      <trkpt lat="43.52404" lon="0.16199">
        <ele>156.35</ele>
        <time>2021-08-19T09:50:45Z</time>
      </trkpt>
      <trkpt lat="43.52403" lon="0.162">
        <ele>156.35</ele>
        <time>2021-08-19T09:51:07Z</time>
      </trkpt>
      <trkpt lat="43.52405" lon="0.16202">
        <ele>156.35</ele>
        <time>2021-08-19T09:51:28Z</time>
      </trkpt>
      <trkpt lat="43.52402" lon="0.16205">
        <ele>156.35</ele>
        <time>2021-08-19T09:51:45Z</time>
      </trkpt>
      <trkpt lat="43.52403" lon="0.16203">
        <ele>156.35</ele>
        <time>2021-08-19T09:51:59Z</time>
      </trkpt>
      <trkpt lat="43.52401" lon="0.16204">
        <ele>156.35</ele>
        <time>2021-08-19T09:52:12Z</time>
      </trkpt>
      <trkpt lat="43.524" lon="0.16201">
        <ele>156.35</ele>
        <time>2021-08-19T09:52:20Z</time>
      </trkpt>
      <trkpt lat="43.52398" lon="0.16198">
        <ele>156.35</ele>
        <time>2021-08-19T09:52:23Z</time>
      </trkpt>
      <trkpt lat="43.52394" lon="0.16185">
        <ele>156.35</ele>
        <time>2021-08-19T09:52:32Z</time>
      </trkpt>
      <trkpt lat="43.52394" lon="0.16182">
        <ele>156.35</ele>
        <time>2021-08-19T09:52:35Z</time>
      </trkpt>
      <trkpt lat="43.52395" lon="0.16181">
        <ele>156.35</ele>
        <time>2021-08-19T09:52:36Z</time>
      </trkpt>
      <trkpt lat="43.52395" lon="0.1618">
        <ele>156.35</ele>
        <time>2021-08-19T09:52:37Z</time>
      </trkpt>
      <trkpt lat="43.52397" lon="0.16165">
        <ele>156.35</ele>
        <time>2021-08-19T09:52:48Z</time>
      </trkpt>
      <trkpt lat="43.52397" lon="0.16162">
        <ele>156.35</ele>
        <time>2021-08-19T09:52:50Z</time>
      </trkpt>
      <trkpt lat="43.52396" lon="0.1616">
        <ele>156.35</ele>
        <time>2021-08-19T09:52:51Z</time>
      </trkpt>
      <trkpt lat="43.52393" lon="0.16149">
        <ele>156.35</ele>
        <time>2021-08-19T09:52:59Z</time>
      </trkpt>
      <trkpt lat="43.52391" lon="0.16142">
        <ele>156.35</ele>
        <time>2021-08-19T09:53:05Z</time>
      </trkpt>
      <trkpt lat="43.5239" lon="0.1614">
        <ele>156.35</ele>
        <time>2021-08-19T09:53:06Z</time>
      </trkpt>
      <trkpt lat="43.5239" lon="0.16136">
        <ele>156.35</ele>
        <time>2021-08-19T09:53:07Z</time>
      </trkpt>
      <trkpt lat="43.52389" lon="0.16133">
        <ele>156.35</ele>
        <time>2021-08-19T09:53:08Z</time>
      </trkpt>
      <trkpt lat="43.52388" lon="0.16129">
        <ele>156.35</ele>
        <time>2021-08-19T09:53:09Z</time>
      </trkpt>
      <trkpt lat="43.52385" lon="0.16113">
        <ele>156.35</ele>
        <time>2021-08-19T09:53:14Z</time>
      </trkpt>
      <trkpt lat="43.52386" lon="0.16112">
        <ele>156.35</ele>
        <time>2021-08-19T09:53:15Z</time>
      </trkpt>
      <trkpt lat="43.52389" lon="0.16109">
        <ele>156.35</ele>
        <time>2021-08-19T09:53:20Z</time>
      </trkpt>
      <trkpt lat="43.52389" lon="0.16108">
        <ele>156.35</ele>
        <time>2021-08-19T09:53:21Z</time>
      </trkpt>
      <trkpt lat="43.5239" lon="0.16106">
        <ele>156.35</ele>
        <time>2021-08-19T09:53:22Z</time>
      </trkpt>
      <trkpt lat="43.52392" lon="0.16087">
        <ele>156.35</ele>
        <time>2021-08-19T09:53:29Z</time>
      </trkpt>
      <trkpt lat="43.52391" lon="0.16084">
        <ele>156.35</ele>
        <time>2021-08-19T09:53:36Z</time>
      </trkpt>
      <trkpt lat="43.52389" lon="0.16083">
        <ele>156.35</ele>
        <time>2021-08-19T09:53:43Z</time>
      </trkpt>
      <trkpt lat="43.52389" lon="0.16083">
        <ele>157.31</ele>
        <time>2021-08-19T09:53:51Z</time>
      </trkpt>
      <trkpt lat="43.5239" lon="0.16083">
        <ele>157.31</ele>
        <time>2021-08-19T09:54:00Z</time>
      </trkpt>
      <trkpt lat="43.5239" lon="0.16081">
        <ele>157.31</ele>
        <time>2021-08-19T09:54:10Z</time>
      </trkpt>
      <trkpt lat="43.52391" lon="0.16084">
        <ele>157.31</ele>
        <time>2021-08-19T09:54:16Z</time>
      </trkpt>
      <trkpt lat="43.52391" lon="0.16087">
        <ele>157.31</ele>
        <time>2021-08-19T09:54:30Z</time>
      </trkpt>
      <trkpt lat="43.52392" lon="0.16089">
        <ele>157.31</ele>
        <time>2021-08-19T09:54:46Z</time>
      </trkpt>
      <trkpt lat="43.52389" lon="0.16088">
        <ele>157.31</ele>
        <time>2021-08-19T09:55:07Z</time>
      </trkpt>
      <trkpt lat="43.52388" lon="0.16087">
        <ele>157.31</ele>
        <time>2021-08-19T09:55:24Z</time>
      </trkpt>
      <trkpt lat="43.52389" lon="0.16085">
        <ele>157.31</ele>
        <time>2021-08-19T09:55:39Z</time>
      </trkpt>
      <trkpt lat="43.5239" lon="0.16084">
        <ele>157.31</ele>
        <time>2021-08-19T09:55:51Z</time>
      </trkpt>
      <trkpt lat="43.52388" lon="0.16086">
        <ele>157.31</ele>
        <time>2021-08-19T09:56:05Z</time>
      </trkpt>
      <trkpt lat="43.52388" lon="0.16086">
        <ele>157.31</ele>
        <time>2021-08-19T09:56:22Z</time>
      </trkpt>
      <trkpt lat="43.52389" lon="0.16085">
        <ele>157.31</ele>
        <time>2021-08-19T09:56:35Z</time>
      </trkpt>
      <trkpt lat="43.52391" lon="0.16086">
        <ele>157.31</ele>
        <time>2021-08-19T09:56:55Z</time>
      </trkpt>
      <trkpt lat="43.52387" lon="0.16086">
        <ele>157.31</ele>
        <time>2021-08-19T09:57:16Z</time>
      </trkpt>
      <trkpt lat="43.52389" lon="0.16088">
        <ele>157.31</ele>
        <time>2021-08-19T09:57:32Z</time>
      </trkpt>
      <trkpt lat="43.5239" lon="0.16085">
        <ele>157.31</ele>
        <time>2021-08-19T09:57:47Z</time>
      </trkpt>
      <trkpt lat="43.5239" lon="0.16085">
        <ele>157.31</ele>
        <time>2021-08-19T09:57:52Z</time>
      </trkpt>
      <trkpt lat="43.52394" lon="0.16087">
        <ele>157.31</ele>
        <time>2021-08-19T09:57:56Z</time>
      </trkpt>
      <trkpt lat="43.52393" lon="0.16082">
        <ele>157.31</ele>
        <time>2021-08-19T09:58:17Z</time>
      </trkpt>
      <trkpt lat="43.5239" lon="0.16083">
        <ele>157.31</ele>
        <time>2021-08-19T09:58:33Z</time>
      </trkpt>
      <trkpt lat="43.52391" lon="0.16082">
        <ele>157.31</ele>
        <time>2021-08-19T09:58:51Z</time>
      </trkpt>
      <trkpt lat="43.52389" lon="0.16083">
        <ele>157.31</ele>
        <time>2021-08-19T09:59:14Z</time>
      </trkpt>
      <trkpt lat="43.52387" lon="0.16086">
        <ele>157.31</ele>
        <time>2021-08-19T09:59:28Z</time>
      </trkpt>
      <trkpt lat="43.52387" lon="0.16086">
        <ele>157.31</ele>
        <time>2021-08-19T09:59:41Z</time>
      </trkpt>
      <trkpt lat="43.52389" lon="0.16085">
        <ele>157.31</ele>
        <time>2021-08-19T09:59:58Z</time>
      </trkpt>
      <trkpt lat="43.52388" lon="0.16083">
        <ele>157.31</ele>
        <time>2021-08-19T10:00:11Z</time>
      </trkpt>
      <trkpt lat="43.52389" lon="0.16083">
        <ele>156.83</ele>
        <time>2021-08-19T10:00:26Z</time>
      </trkpt>
      <trkpt lat="43.52389" lon="0.16083">
        <ele>156.83</ele>
        <time>2021-08-19T10:00:39Z</time>
      </trkpt>
      <trkpt lat="43.52388" lon="0.16081">
        <ele>156.83</ele>
        <time>2021-08-19T10:00:55Z</time>
      </trkpt>
      <trkpt lat="43.52391" lon="0.16082">
        <ele>156.83</ele>
        <time>2021-08-19T10:01:11Z</time>
      </trkpt>
      <trkpt lat="43.52389" lon="0.16085">
        <ele>156.83</ele>
        <time>2021-08-19T10:01:28Z</time>
      </trkpt>
      <trkpt lat="43.5239" lon="0.16088">
        <ele>156.83</ele>
        <time>2021-08-19T10:01:45Z</time>
      </trkpt>
      <trkpt lat="43.52388" lon="0.16087">
        <ele>156.83</ele>
        <time>2021-08-19T10:02:04Z</time>
      </trkpt>
      <trkpt lat="43.52388" lon="0.16089">
        <ele>156.83</ele>
        <time>2021-08-19T10:02:22Z</time>
      </trkpt>
      <trkpt lat="43.52391" lon="0.16089">
        <ele>156.83</ele>
        <time>2021-08-19T10:02:45Z</time>
      </trkpt>
      <trkpt lat="43.5239" lon="0.16087">
        <ele>156.83</ele>
        <time>2021-08-19T10:02:54Z</time>
      </trkpt>
      <trkpt lat="43.52391" lon="0.16089">
        <ele>156.83</ele>
        <time>2021-08-19T10:03:15Z</time>
      </trkpt>
      <trkpt lat="43.52389" lon="0.16089">
        <ele>156.83</ele>
        <time>2021-08-19T10:03:33Z</time>
      </trkpt>
      <trkpt lat="43.52391" lon="0.16089">
        <ele>156.83</ele>
        <time>2021-08-19T10:03:49Z</time>
      </trkpt>
      <trkpt lat="43.52389" lon="0.16087">
        <ele>156.83</ele>
        <time>2021-08-19T10:04:08Z</time>
      </trkpt>
      <trkpt lat="43.52389" lon="0.16089">
        <ele>156.83</ele>
        <time>2021-08-19T10:04:27Z</time>
      </trkpt>
      <trkpt lat="43.52387" lon="0.16088">
        <ele>156.83</ele>
        <time>2021-08-19T10:04:45Z</time>
      </trkpt>
      <trkpt lat="43.52391" lon="0.16086">
        <ele>156.83</ele>
        <time>2021-08-19T10:05:07Z</time>
      </trkpt>
      <trkpt lat="43.52389" lon="0.16087">
        <ele>156.83</ele>
        <time>2021-08-19T10:05:22Z</time>
      </trkpt>
      <trkpt lat="43.5239" lon="0.16086">
        <ele>156.83</ele>
        <time>2021-08-19T10:05:42Z</time>
      </trkpt>
      <trkpt lat="43.5239" lon="0.16087">
        <ele>156.83</ele>
        <time>2021-08-19T10:05:55Z</time>
      </trkpt>
      <trkpt lat="43.52388" lon="0.16083">
        <ele>156.83</ele>
        <time>2021-08-19T10:06:12Z</time>
      </trkpt>
      <trkpt lat="43.52389" lon="0.16083">
        <ele>156.83</ele>
        <time>2021-08-19T10:06:31Z</time>
      </trkpt>
      <trkpt lat="43.52387" lon="0.16085">
        <ele>156.83</ele>
        <time>2021-08-19T10:06:52Z</time>
      </trkpt>
      <trkpt lat="43.52389" lon="0.16085">
        <ele>156.83</ele>
        <time>2021-08-19T10:07:11Z</time>
      </trkpt>
      <trkpt lat="43.52388" lon="0.16083">
        <ele>156.83</ele>
        <time>2021-08-19T10:07:26Z</time>
      </trkpt>
      <trkpt lat="43.52389" lon="0.16082">
        <ele>157.31</ele>
        <time>2021-08-19T10:07:43Z</time>
      </trkpt>
      <trkpt lat="43.5239" lon="0.16086">
        <ele>157.31</ele>
        <time>2021-08-19T10:08:08Z</time>
      </trkpt>
      <trkpt lat="43.52391" lon="0.16086">
        <ele>157.31</ele>
        <time>2021-08-19T10:08:31Z</time>
      </trkpt>
      <trkpt lat="43.52392" lon="0.16088">
        <ele>157.31</ele>
        <time>2021-08-19T10:08:51Z</time>
      </trkpt>
      <trkpt lat="43.5239" lon="0.16088">
        <ele>157.31</ele>
        <time>2021-08-19T10:09:12Z</time>
      </trkpt>
      <trkpt lat="43.52388" lon="0.1609">
        <ele>157.31</ele>
        <time>2021-08-19T10:09:24Z</time>
      </trkpt>
      <trkpt lat="43.52387" lon="0.16089">
        <ele>157.31</ele>
        <time>2021-08-19T10:09:37Z</time>
      </trkpt>
      <trkpt lat="43.52387" lon="0.16086">
        <ele>157.31</ele>
        <time>2021-08-19T10:09:55Z</time>
      </trkpt>
      <trkpt lat="43.52388" lon="0.16086">
        <ele>157.31</ele>
        <time>2021-08-19T10:10:13Z</time>
      </trkpt>
      <trkpt lat="43.52389" lon="0.16085">
        <ele>157.31</ele>
        <time>2021-08-19T10:10:30Z</time>
      </trkpt>
      <trkpt lat="43.52389" lon="0.16085">
        <ele>156.83</ele>
        <time>2021-08-19T10:10:49Z</time>
      </trkpt>
      <trkpt lat="43.5239" lon="0.16087">
        <ele>156.83</ele>
        <time>2021-08-19T10:11:02Z</time>
      </trkpt>
      <trkpt lat="43.5239" lon="0.16089">
        <ele>156.83</ele>
        <time>2021-08-19T10:11:10Z</time>
      </trkpt>
      <trkpt lat="43.52389" lon="0.1609">
        <ele>156.83</ele>
        <time>2021-08-19T10:11:27Z</time>
      </trkpt>
      <trkpt lat="43.5239" lon="0.16087">
        <ele>156.83</ele>
        <time>2021-08-19T10:11:36Z</time>
      </trkpt>
      <trkpt lat="43.52393" lon="0.16093">
        <ele>156.83</ele>
        <time>2021-08-19T10:11:40Z</time>
      </trkpt>
      <trkpt lat="43.52399" lon="0.16097">
        <ele>156.83</ele>
        <time>2021-08-19T10:11:43Z</time>
      </trkpt>
      <trkpt lat="43.52412" lon="0.16102">
        <ele>156.83</ele>
        <time>2021-08-19T10:11:51Z</time>
      </trkpt>
      <trkpt lat="43.52413" lon="0.16104">
        <ele>156.83</ele>
        <time>2021-08-19T10:11:52Z</time>
      </trkpt>
      <trkpt lat="43.52419" lon="0.16121">
        <ele>155.87</ele>
        <time>2021-08-19T10:11:57Z</time>
      </trkpt>
      <trkpt lat="43.52423" lon="0.16133">
        <ele>155.87</ele>
        <time>2021-08-19T10:12:00Z</time>
      </trkpt>
      <trkpt lat="43.52424" lon="0.16137">
        <ele>155.87</ele>
        <time>2021-08-19T10:12:01Z</time>
      </trkpt>
      <trkpt lat="43.52425" lon="0.16142">
        <ele>155.87</ele>
        <time>2021-08-19T10:12:02Z</time>
      </trkpt>
      <trkpt lat="43.52431" lon="0.16158">
        <ele>155.39</ele>
        <time>2021-08-19T10:12:08Z</time>
      </trkpt>
      <trkpt lat="43.52433" lon="0.16158">
        <ele>155.39</ele>
        <time>2021-08-19T10:12:09Z</time>
      </trkpt>
      <trkpt lat="43.52435" lon="0.16159">
        <ele>155.39</ele>
        <time>2021-08-19T10:12:10Z</time>
      </trkpt>
      <trkpt lat="43.52438" lon="0.16159">
        <ele>155.39</ele>
        <time>2021-08-19T10:12:11Z</time>
      </trkpt>
      <trkpt lat="43.5244" lon="0.16161">
        <ele>155.39</ele>
        <time>2021-08-19T10:12:12Z</time>
      </trkpt>
      <trkpt lat="43.52442" lon="0.16163">
        <ele>155.39</ele>
        <time>2021-08-19T10:12:13Z</time>
      </trkpt>
      <trkpt lat="43.52447" lon="0.16163">
        <ele>155.39</ele>
        <time>2021-08-19T10:12:15Z</time>
      </trkpt>
      <trkpt lat="43.52468" lon="0.16151">
        <ele>155.39</ele>
        <time>2021-08-19T10:12:21Z</time>
      </trkpt>
      <trkpt lat="43.52471" lon="0.16149">
        <ele>154.91</ele>
        <time>2021-08-19T10:12:23Z</time>
      </trkpt>
      <trkpt lat="43.52476" lon="0.16149">
        <ele>154.91</ele>
        <time>2021-08-19T10:12:26Z</time>
      </trkpt>
      <trkpt lat="43.52495" lon="0.16139">
        <ele>154.91</ele>
        <time>2021-08-19T10:12:33Z</time>
      </trkpt>
      <trkpt lat="43.52498" lon="0.16138">
        <ele>154.91</ele>
        <time>2021-08-19T10:12:34Z</time>
      </trkpt>
      <trkpt lat="43.525" lon="0.16135">
        <ele>154.91</ele>
        <time>2021-08-19T10:12:35Z</time>
      </trkpt>
      <trkpt lat="43.525" lon="0.16132">
        <ele>154.91</ele>
        <time>2021-08-19T10:12:36Z</time>
      </trkpt>
      <trkpt lat="43.52499" lon="0.16129">
        <ele>154.43</ele>
        <time>2021-08-19T10:12:37Z</time>
      </trkpt>
      <trkpt lat="43.52499" lon="0.16126">
        <ele>154.43</ele>
        <time>2021-08-19T10:12:38Z</time>
      </trkpt>
      <trkpt lat="43.52498" lon="0.16123">
        <ele>154.43</ele>
        <time>2021-08-19T10:12:39Z</time>
      </trkpt>
      <trkpt lat="43.52498" lon="0.1612">
        <ele>154.43</ele>
        <time>2021-08-19T10:12:40Z</time>
      </trkpt>
      <trkpt lat="43.52498" lon="0.16118">
        <ele>154.43</ele>
        <time>2021-08-19T10:12:41Z</time>
      </trkpt>
      <trkpt lat="43.52497" lon="0.16115">
        <ele>154.43</ele>
        <time>2021-08-19T10:12:42Z</time>
      </trkpt>
      <trkpt lat="43.52491" lon="0.1609">
        <ele>154.43</ele>
        <time>2021-08-19T10:12:49Z</time>
      </trkpt>
      <trkpt lat="43.52485" lon="0.16065">
        <ele>154.43</ele>
        <time>2021-08-19T10:12:56Z</time>
      </trkpt>
      <trkpt lat="43.5248" lon="0.1604">
        <ele>155.39</ele>
        <time>2021-08-19T10:13:03Z</time>
      </trkpt>
      <trkpt lat="43.52476" lon="0.16021">
        <ele>155.39</ele>
        <time>2021-08-19T10:13:11Z</time>
      </trkpt>
      <trkpt lat="43.5247" lon="0.15997">
        <ele>155.87</ele>
        <time>2021-08-19T10:13:18Z</time>
      </trkpt>
      <trkpt lat="43.52468" lon="0.15997">
        <ele>155.87</ele>
        <time>2021-08-19T10:13:19Z</time>
      </trkpt>
      <trkpt lat="43.52447" lon="0.16006">
        <ele>155.87</ele>
        <time>2021-08-19T10:13:26Z</time>
      </trkpt>
      <trkpt lat="43.52427" lon="0.16014">
        <ele>156.35</ele>
        <time>2021-08-19T10:13:33Z</time>
      </trkpt>
      <trkpt lat="43.52416" lon="0.16018">
        <ele>156.83</ele>
        <time>2021-08-19T10:13:39Z</time>
      </trkpt>
      <trkpt lat="43.52415" lon="0.1602">
        <ele>156.83</ele>
        <time>2021-08-19T10:13:40Z</time>
      </trkpt>
      <trkpt lat="43.52415" lon="0.16022">
        <ele>156.83</ele>
        <time>2021-08-19T10:13:41Z</time>
      </trkpt>
      <trkpt lat="43.52415" lon="0.16024">
        <ele>156.83</ele>
        <time>2021-08-19T10:13:42Z</time>
      </trkpt>
      <trkpt lat="43.52415" lon="0.16027">
        <ele>156.83</ele>
        <time>2021-08-19T10:13:43Z</time>
      </trkpt>
      <trkpt lat="43.52416" lon="0.16029">
        <ele>156.83</ele>
        <time>2021-08-19T10:13:44Z</time>
      </trkpt>
      <trkpt lat="43.52416" lon="0.16045">
        <ele>156.83</ele>
        <time>2021-08-19T10:13:53Z</time>
      </trkpt>
      <trkpt lat="43.52414" lon="0.16052">
        <ele>156.83</ele>
        <time>2021-08-19T10:13:56Z</time>
      </trkpt>
      <trkpt lat="43.52413" lon="0.16055">
        <ele>156.83</ele>
        <time>2021-08-19T10:13:57Z</time>
      </trkpt>
      <trkpt lat="43.52413" lon="0.16058">
        <ele>156.83</ele>
        <time>2021-08-19T10:13:58Z</time>
      </trkpt>
      <trkpt lat="43.52419" lon="0.16079">
        <ele>156.83</ele>
        <time>2021-08-19T10:14:06Z</time>
      </trkpt>
      <trkpt lat="43.52421" lon="0.16086">
        <ele>156.83</ele>
        <time>2021-08-19T10:14:09Z</time>
      </trkpt>
      <trkpt lat="43.52422" lon="0.16087">
        <ele>156.83</ele>
        <time>2021-08-19T10:14:10Z</time>
      </trkpt>
      <trkpt lat="43.52425" lon="0.16091">
        <ele>156.83</ele>
        <time>2021-08-19T10:14:13Z</time>
      </trkpt>
      <trkpt lat="43.52426" lon="0.16093">
        <ele>156.83</ele>
        <time>2021-08-19T10:14:14Z</time>
      </trkpt>
      <trkpt lat="43.52427" lon="0.16094">
        <ele>156.83</ele>
        <time>2021-08-19T10:14:15Z</time>
      </trkpt>
      <trkpt lat="43.52428" lon="0.16094">
        <ele>156.83</ele>
        <time>2021-08-19T10:14:16Z</time>
      </trkpt>
      <trkpt lat="43.52429" lon="0.16093">
        <ele>156.83</ele>
        <time>2021-08-19T10:14:17Z</time>
      </trkpt>
      <trkpt lat="43.52435" lon="0.1609">
        <ele>156.83</ele>
        <time>2021-08-19T10:14:26Z</time>
      </trkpt>
      <trkpt lat="43.52438" lon="0.16098">
        <ele>156.83</ele>
        <time>2021-08-19T10:14:34Z</time>
      </trkpt>
      <trkpt lat="43.52435" lon="0.16102">
        <ele>156.83</ele>
        <time>2021-08-19T10:14:42Z</time>
      </trkpt>
      <trkpt lat="43.52428" lon="0.16111">
        <ele>156.83</ele>
        <time>2021-08-19T10:14:59Z</time>
      </trkpt>
      <trkpt lat="43.52401" lon="0.16142">
        <ele>156.83</ele>
        <time>2021-08-19T10:15:16Z</time>
      </trkpt>
      <trkpt lat="43.52381" lon="0.16148">
        <ele>156.83</ele>
        <time>2021-08-19T10:15:31Z</time>
      </trkpt>
      <trkpt lat="43.5238" lon="0.16154">
        <ele>156.83</ele>
        <time>2021-08-19T10:15:43Z</time>
      </trkpt>
      <trkpt lat="43.52377" lon="0.16163">
        <ele>156.35</ele>
        <time>2021-08-19T10:16:02Z</time>
      </trkpt>
      <trkpt lat="43.52376" lon="0.16157">
        <ele>156.35</ele>
        <time>2021-08-19T10:16:12Z</time>
      </trkpt>
      <trkpt lat="43.52376" lon="0.16145">
        <ele>156.35</ele>
        <time>2021-08-19T10:16:22Z</time>
      </trkpt>
      <trkpt lat="43.52377" lon="0.16128">
        <ele>156.35</ele>
        <time>2021-08-19T10:16:37Z</time>
      </trkpt>
      <trkpt lat="43.52374" lon="0.16132">
        <ele>156.35</ele>
        <time>2021-08-19T10:16:50Z</time>
      </trkpt>
      <trkpt lat="43.52362" lon="0.16141">
        <ele>156.35</ele>
        <time>2021-08-19T10:17:09Z</time>
      </trkpt>
      <trkpt lat="43.52383" lon="0.16127">
        <ele>155.87</ele>
        <time>2021-08-19T10:17:23Z</time>
      </trkpt>
      <trkpt lat="43.52405" lon="0.16114">
        <ele>155.87</ele>
        <time>2021-08-19T10:17:36Z</time>
      </trkpt>
      <trkpt lat="43.52392" lon="0.16126">
        <ele>155.87</ele>
        <time>2021-08-19T10:17:53Z</time>
      </trkpt>
      <trkpt lat="43.52391" lon="0.16125">
        <ele>155.87</ele>
        <time>2021-08-19T10:18:08Z</time>
      </trkpt>
      <trkpt lat="43.52383" lon="0.16134">
        <ele>155.87</ele>
        <time>2021-08-19T10:18:25Z</time>
      </trkpt>
      <trkpt lat="43.52386" lon="0.16137">
        <ele>155.87</ele>
        <time>2021-08-19T10:18:42Z</time>
      </trkpt>
      <trkpt lat="43.52389" lon="0.16144">
        <ele>155.87</ele>
        <time>2021-08-19T10:18:58Z</time>
      </trkpt>
      <trkpt lat="43.52384" lon="0.16156">
        <ele>155.39</ele>
        <time>2021-08-19T10:19:12Z</time>
      </trkpt>
      <trkpt lat="43.52385" lon="0.16153">
        <ele>155.39</ele>
        <time>2021-08-19T10:19:28Z</time>
      </trkpt>
      <trkpt lat="43.52371" lon="0.16155">
        <ele>155.39</ele>
        <time>2021-08-19T10:19:46Z</time>
      </trkpt>
      <trkpt lat="43.52371" lon="0.16152">
        <ele>155.39</ele>
        <time>2021-08-19T10:20:03Z</time>
      </trkpt>
      <trkpt lat="43.52377" lon="0.16141">
        <ele>155.39</ele>
        <time>2021-08-19T10:20:19Z</time>
      </trkpt>
      <trkpt lat="43.52385" lon="0.16132">
        <ele>154.91</ele>
        <time>2021-08-19T10:20:35Z</time>
      </trkpt>
      <trkpt lat="43.5239" lon="0.16129">
        <ele>154.91</ele>
        <time>2021-08-19T10:20:50Z</time>
      </trkpt>
      <trkpt lat="43.52379" lon="0.16138">
        <ele>154.43</ele>
        <time>2021-08-19T10:21:11Z</time>
      </trkpt>
      <trkpt lat="43.52386" lon="0.16131">
        <ele>154.43</ele>
        <time>2021-08-19T10:21:32Z</time>
      </trkpt>
      <trkpt lat="43.52389" lon="0.16127">
        <ele>154.43</ele>
        <time>2021-08-19T10:21:53Z</time>
      </trkpt>
      <trkpt lat="43.52392" lon="0.16128">
        <ele>153.95</ele>
        <time>2021-08-19T10:22:14Z</time>
      </trkpt>
      <trkpt lat="43.52393" lon="0.16126">
        <ele>153.95</ele>
        <time>2021-08-19T10:22:30Z</time>
      </trkpt>
      <trkpt lat="43.52413" lon="0.16121">
        <ele>153.95</ele>
        <time>2021-08-19T10:22:44Z</time>
      </trkpt>
      <trkpt lat="43.52422" lon="0.16115">
        <ele>153.95</ele>
        <time>2021-08-19T10:22:57Z</time>
      </trkpt>
      <trkpt lat="43.52414" lon="0.16118">
        <ele>153.95</ele>
        <time>2021-08-19T10:23:11Z</time>
      </trkpt>
      <trkpt lat="43.52402" lon="0.1611">
        <ele>153.95</ele>
        <time>2021-08-19T10:23:27Z</time>
      </trkpt>
      <trkpt lat="43.52403" lon="0.16111">
        <ele>153.95</ele>
        <time>2021-08-19T10:23:43Z</time>
      </trkpt>
      <trkpt lat="43.52401" lon="0.16112">
        <ele>153.95</ele>
        <time>2021-08-19T10:24:01Z</time>
      </trkpt>
      <trkpt lat="43.52396" lon="0.16106">
        <ele>153.95</ele>
        <time>2021-08-19T10:24:14Z</time>
      </trkpt>
      <trkpt lat="43.52401" lon="0.16086">
        <ele>153.95</ele>
        <time>2021-08-19T10:24:27Z</time>
      </trkpt>
      <trkpt lat="43.52406" lon="0.16074">
        <ele>153.95</ele>
        <time>2021-08-19T10:24:40Z</time>
      </trkpt>
      <trkpt lat="43.52403" lon="0.16068">
        <ele>153.95</ele>
        <time>2021-08-19T10:24:48Z</time>
      </trkpt>
      <trkpt lat="43.52403" lon="0.16065">
        <ele>153.95</ele>
        <time>2021-08-19T10:24:49Z</time>
      </trkpt>
      <trkpt lat="43.52404" lon="0.16063">
        <ele>153.95</ele>
        <time>2021-08-19T10:24:50Z</time>
      </trkpt>
      <trkpt lat="43.52406" lon="0.16059">
        <ele>153.95</ele>
        <time>2021-08-19T10:24:51Z</time>
      </trkpt>
      <trkpt lat="43.52408" lon="0.16054">
        <ele>153.95</ele>
        <time>2021-08-19T10:24:52Z</time>
      </trkpt>
      <trkpt lat="43.52408" lon="0.16052">
        <ele>153.95</ele>
        <time>2021-08-19T10:24:53Z</time>
      </trkpt>
      <trkpt lat="43.52394" lon="0.16046">
        <ele>153.95</ele>
        <time>2021-08-19T10:24:58Z</time>
      </trkpt>
      <trkpt lat="43.52373" lon="0.16054">
        <ele>153.95</ele>
        <time>2021-08-19T10:25:05Z</time>
      </trkpt>
      <trkpt lat="43.52361" lon="0.16057">
        <ele>153.95</ele>
        <time>2021-08-19T10:25:12Z</time>
      </trkpt>
      <trkpt lat="43.52358" lon="0.16061">
        <ele>154.43</ele>
        <time>2021-08-19T10:25:19Z</time>
      </trkpt>
      <trkpt lat="43.52352" lon="0.16058">
        <ele>154.43</ele>
        <time>2021-08-19T10:25:28Z</time>
      </trkpt>
      <trkpt lat="43.52351" lon="0.16055">
        <ele>154.43</ele>
        <time>2021-08-19T10:25:33Z</time>
      </trkpt>
      <trkpt lat="43.52347" lon="0.16047">
        <ele>154.43</ele>
        <time>2021-08-19T10:25:45Z</time>
      </trkpt>
      <trkpt lat="43.52346" lon="0.16047">
        <ele>154.43</ele>
        <time>2021-08-19T10:26:04Z</time>
      </trkpt>
      <trkpt lat="43.52348" lon="0.16047">
        <ele>154.43</ele>
        <time>2021-08-19T10:26:18Z</time>
      </trkpt>
      <trkpt lat="43.52349" lon="0.16046">
        <ele>154.43</ele>
        <time>2021-08-19T10:26:36Z</time>
      </trkpt>
      <trkpt lat="43.5235" lon="0.16044">
        <ele>154.91</ele>
        <time>2021-08-19T10:26:50Z</time>
      </trkpt>
      <trkpt lat="43.5235" lon="0.16044">
        <ele>154.91</ele>
        <time>2021-08-19T10:27:05Z</time>
      </trkpt>
      <trkpt lat="43.52351" lon="0.16044">
        <ele>154.91</ele>
        <time>2021-08-19T10:27:15Z</time>
      </trkpt>
      <trkpt lat="43.52349" lon="0.16046">
        <ele>154.91</ele>
        <time>2021-08-19T10:27:30Z</time>
      </trkpt>
      <trkpt lat="43.52348" lon="0.16046">
        <ele>154.91</ele>
        <time>2021-08-19T10:27:45Z</time>
      </trkpt>
      <trkpt lat="43.52347" lon="0.16044">
        <ele>155.39</ele>
        <time>2021-08-19T10:28:03Z</time>
      </trkpt>
      <trkpt lat="43.52347" lon="0.16044">
        <ele>155.39</ele>
        <time>2021-08-19T10:28:15Z</time>
      </trkpt>
      <trkpt lat="43.52349" lon="0.16045">
        <ele>155.87</ele>
        <time>2021-08-19T10:28:33Z</time>
      </trkpt>
      <trkpt lat="43.5235" lon="0.16046">
        <ele>155.87</ele>
        <time>2021-08-19T10:28:49Z</time>
      </trkpt>
      <trkpt lat="43.5235" lon="0.16046">
        <ele>155.87</ele>
        <time>2021-08-19T10:29:04Z</time>
      </trkpt>
      <trkpt lat="43.5235" lon="0.16045">
        <ele>155.87</ele>
        <time>2021-08-19T10:29:21Z</time>
      </trkpt>
      <trkpt lat="43.52351" lon="0.16046">
        <ele>156.35</ele>
        <time>2021-08-19T10:29:36Z</time>
      </trkpt>
      <trkpt lat="43.52352" lon="0.16045">
        <ele>156.35</ele>
        <time>2021-08-19T10:29:50Z</time>
      </trkpt>
      <trkpt lat="43.52352" lon="0.16042">
        <ele>156.35</ele>
        <time>2021-08-19T10:30:07Z</time>
      </trkpt>
      <trkpt lat="43.52352" lon="0.16042">
        <ele>156.35</ele>
        <time>2021-08-19T10:30:24Z</time>
      </trkpt>
      <trkpt lat="43.52351" lon="0.16043">
        <ele>156.83</ele>
        <time>2021-08-19T10:30:36Z</time>
      </trkpt>
      <trkpt lat="43.52349" lon="0.16044">
        <ele>157.31</ele>
        <time>2021-08-19T10:30:49Z</time>
      </trkpt>
      <trkpt lat="43.52348" lon="0.16045">
        <ele>157.31</ele>
        <time>2021-08-19T10:31:08Z</time>
      </trkpt>
      <trkpt lat="43.52346" lon="0.16044">
        <ele>157.31</ele>
        <time>2021-08-19T10:31:24Z</time>
      </trkpt>
      <trkpt lat="43.52346" lon="0.16046">
        <ele>157.31</ele>
        <time>2021-08-19T10:31:47Z</time>
      </trkpt>
      <trkpt lat="43.52349" lon="0.16045">
        <ele>157.79</ele>
        <time>2021-08-19T10:32:07Z</time>
      </trkpt>
      <trkpt lat="43.52351" lon="0.16046">
        <ele>157.79</ele>
        <time>2021-08-19T10:32:12Z</time>
      </trkpt>
      <trkpt lat="43.52352" lon="0.16044">
        <ele>157.79</ele>
        <time>2021-08-19T10:32:14Z</time>
      </trkpt>
      <trkpt lat="43.52351" lon="0.16043">
        <ele>157.79</ele>
        <time>2021-08-19T10:32:20Z</time>
      </trkpt>
      <trkpt lat="43.52352" lon="0.16044">
        <ele>157.79</ele>
        <time>2021-08-19T10:32:35Z</time>
      </trkpt>
      <trkpt lat="43.52353" lon="0.16044">
        <ele>157.79</ele>
        <time>2021-08-19T10:32:52Z</time>
      </trkpt>
      <trkpt lat="43.52352" lon="0.16043">
        <ele>157.79</ele>
        <time>2021-08-19T10:33:13Z</time>
      </trkpt>
      <trkpt lat="43.52349" lon="0.16045">
        <ele>158.27</ele>
        <time>2021-08-19T10:33:29Z</time>
      </trkpt>
      <trkpt lat="43.52348" lon="0.16045">
        <ele>158.75</ele>
        <time>2021-08-19T10:33:39Z</time>
      </trkpt>
      <trkpt lat="43.52348" lon="0.16045">
        <ele>158.75</ele>
        <time>2021-08-19T10:33:53Z</time>
      </trkpt>
      <trkpt lat="43.52348" lon="0.16044">
        <ele>158.75</ele>
        <time>2021-08-19T10:34:08Z</time>
      </trkpt>
      <trkpt lat="43.52351" lon="0.16043">
        <ele>158.75</ele>
        <time>2021-08-19T10:34:22Z</time>
      </trkpt>
      <trkpt lat="43.52351" lon="0.16045">
        <ele>159.24</ele>
        <time>2021-08-19T10:34:38Z</time>
      </trkpt>
      <trkpt lat="43.52352" lon="0.16044">
        <ele>159.24</ele>
        <time>2021-08-19T10:34:46Z</time>
      </trkpt>
      <trkpt lat="43.52358" lon="0.16046">
        <ele>159.24</ele>
        <time>2021-08-19T10:34:50Z</time>
      </trkpt>
      <trkpt lat="43.5236" lon="0.16048">
        <ele>159.24</ele>
        <time>2021-08-19T10:34:51Z</time>
      </trkpt>
      <trkpt lat="43.52369" lon="0.16067">
        <ele>159.24</ele>
        <time>2021-08-19T10:34:57Z</time>
      </trkpt>
      <trkpt lat="43.52377" lon="0.16096">
        <ele>158.27</ele>
        <time>2021-08-19T10:35:05Z</time>
      </trkpt>
      <trkpt lat="43.52386" lon="0.1613">
        <ele>157.79</ele>
        <time>2021-08-19T10:35:12Z</time>
      </trkpt>
      <trkpt lat="43.52388" lon="0.16135">
        <ele>157.79</ele>
        <time>2021-08-19T10:35:13Z</time>
      </trkpt>
      <trkpt lat="43.52389" lon="0.16147">
        <ele>157.79</ele>
        <time>2021-08-19T10:35:15Z</time>
      </trkpt>
      <trkpt lat="43.52402" lon="0.1617">
        <ele>157.31</ele>
        <time>2021-08-19T10:35:21Z</time>
      </trkpt>
      <trkpt lat="43.52405" lon="0.1617">
        <ele>157.31</ele>
        <time>2021-08-19T10:35:22Z</time>
      </trkpt>
      <trkpt lat="43.52428" lon="0.16157">
        <ele>156.83</ele>
        <time>2021-08-19T10:35:28Z</time>
      </trkpt>
      <trkpt lat="43.52431" lon="0.16153">
        <ele>156.83</ele>
        <time>2021-08-19T10:35:29Z</time>
      </trkpt>
      <trkpt lat="43.52433" lon="0.16149">
        <ele>156.83</ele>
        <time>2021-08-19T10:35:30Z</time>
      </trkpt>
      <trkpt lat="43.52436" lon="0.16144">
        <ele>156.83</ele>
        <time>2021-08-19T10:35:31Z</time>
      </trkpt>
      <trkpt lat="43.52438" lon="0.1614">
        <ele>156.83</ele>
        <time>2021-08-19T10:35:32Z</time>
      </trkpt>
      <trkpt lat="43.5244" lon="0.16136">
        <ele>156.83</ele>
        <time>2021-08-19T10:35:33Z</time>
      </trkpt>
      <trkpt lat="43.52441" lon="0.16132">
        <ele>156.83</ele>
        <time>2021-08-19T10:35:34Z</time>
      </trkpt>
      <trkpt lat="43.52445" lon="0.16111">
        <ele>156.83</ele>
        <time>2021-08-19T10:35:40Z</time>
      </trkpt>
      <trkpt lat="43.52448" lon="0.161">
        <ele>156.83</ele>
        <time>2021-08-19T10:35:46Z</time>
      </trkpt>
      <trkpt lat="43.52454" lon="0.16096">
        <ele>156.83</ele>
        <time>2021-08-19T10:35:56Z</time>
      </trkpt>
      <trkpt lat="43.52458" lon="0.16097">
        <ele>158.27</ele>
        <time>2021-08-19T10:36:01Z</time>
      </trkpt>
      <trkpt lat="43.52461" lon="0.16098">
        <ele>158.27</ele>
        <time>2021-08-19T10:36:15Z</time>
      </trkpt>
      <trkpt lat="43.52455" lon="0.16106">
        <ele>157.79</ele>
        <time>2021-08-19T10:36:27Z</time>
      </trkpt>
      <trkpt lat="43.52451" lon="0.16111">
        <ele>157.79</ele>
        <time>2021-08-19T10:36:39Z</time>
      </trkpt>
      <trkpt lat="43.52429" lon="0.16122">
        <ele>157.79</ele>
        <time>2021-08-19T10:36:54Z</time>
      </trkpt>
      <trkpt lat="43.52413" lon="0.16108">
        <ele>157.79</ele>
        <time>2021-08-19T10:37:07Z</time>
      </trkpt>
      <trkpt lat="43.52407" lon="0.16111">
        <ele>157.79</ele>
        <time>2021-08-19T10:37:21Z</time>
      </trkpt>
      <trkpt lat="43.52404" lon="0.16108">
        <ele>157.79</ele>
        <time>2021-08-19T10:37:35Z</time>
      </trkpt>
      <trkpt lat="43.52403" lon="0.16114">
        <ele>157.79</ele>
        <time>2021-08-19T10:37:57Z</time>
      </trkpt>
      <trkpt lat="43.52403" lon="0.1612">
        <ele>157.79</ele>
        <time>2021-08-19T10:38:12Z</time>
      </trkpt>
      <trkpt lat="43.524" lon="0.16124">
        <ele>157.79</ele>
        <time>2021-08-19T10:38:26Z</time>
      </trkpt>
      <trkpt lat="43.52394" lon="0.1613">
        <ele>157.79</ele>
        <time>2021-08-19T10:38:40Z</time>
      </trkpt>
      <trkpt lat="43.52396" lon="0.16125">
        <ele>157.31</ele>
        <time>2021-08-19T10:38:46Z</time>
      </trkpt>
      <trkpt lat="43.5241" lon="0.1611">
        <ele>157.31</ele>
        <time>2021-08-19T10:38:58Z</time>
      </trkpt>
      <trkpt lat="43.52413" lon="0.16111">
        <ele>157.31</ele>
        <time>2021-08-19T10:39:07Z</time>
      </trkpt>
      <trkpt lat="43.52407" lon="0.16121">
        <ele>157.31</ele>
        <time>2021-08-19T10:39:19Z</time>
      </trkpt>
      <trkpt lat="43.52427" lon="0.16105">
        <ele>157.31</ele>
        <time>2021-08-19T10:39:33Z</time>
      </trkpt>
      <trkpt lat="43.52432" lon="0.16101">
        <ele>157.31</ele>
        <time>2021-08-19T10:39:45Z</time>
      </trkpt>
      <trkpt lat="43.52418" lon="0.16109">
        <ele>157.31</ele>
        <time>2021-08-19T10:39:58Z</time>
      </trkpt>
      <trkpt lat="43.52413" lon="0.16105">
        <ele>157.31</ele>
        <time>2021-08-19T10:40:12Z</time>
      </trkpt>
      <trkpt lat="43.52413" lon="0.16104">
        <ele>157.31</ele>
        <time>2021-08-19T10:40:30Z</time>
      </trkpt>
      <trkpt lat="43.52395" lon="0.1612">
        <ele>157.31</ele>
        <time>2021-08-19T10:40:44Z</time>
      </trkpt>
      <trkpt lat="43.52402" lon="0.16117">
        <ele>157.31</ele>
        <time>2021-08-19T10:40:57Z</time>
      </trkpt>
      <trkpt lat="43.52417" lon="0.16109">
        <ele>157.31</ele>
        <time>2021-08-19T10:41:16Z</time>
      </trkpt>
      <trkpt lat="43.52428" lon="0.1609">
        <ele>157.79</ele>
        <time>2021-08-19T10:41:32Z</time>
      </trkpt>
      <trkpt lat="43.52419" lon="0.16081">
        <ele>157.79</ele>
        <time>2021-08-19T10:41:44Z</time>
      </trkpt>
      <trkpt lat="43.52415" lon="0.1608">
        <ele>157.79</ele>
        <time>2021-08-19T10:41:54Z</time>
      </trkpt>
      <trkpt lat="43.52424" lon="0.16084">
        <ele>157.79</ele>
        <time>2021-08-19T10:42:05Z</time>
      </trkpt>
      <trkpt lat="43.52424" lon="0.16092">
        <ele>157.31</ele>
        <time>2021-08-19T10:42:22Z</time>
      </trkpt>
      <trkpt lat="43.5242" lon="0.16093">
        <ele>157.31</ele>
        <time>2021-08-19T10:42:37Z</time>
      </trkpt>
      <trkpt lat="43.52422" lon="0.16095">
        <ele>157.31</ele>
        <time>2021-08-19T10:42:51Z</time>
      </trkpt>
      <trkpt lat="43.52425" lon="0.16095">
        <ele>157.31</ele>
        <time>2021-08-19T10:43:06Z</time>
      </trkpt>
      <trkpt lat="43.52419" lon="0.16096">
        <ele>157.31</ele>
        <time>2021-08-19T10:43:20Z</time>
      </trkpt>
      <trkpt lat="43.52414" lon="0.16104">
        <ele>157.31</ele>
        <time>2021-08-19T10:43:33Z</time>
      </trkpt>
      <trkpt lat="43.5241" lon="0.16103">
        <ele>158.27</ele>
        <time>2021-08-19T10:43:46Z</time>
      </trkpt>
      <trkpt lat="43.52419" lon="0.161">
        <ele>158.27</ele>
        <time>2021-08-19T10:43:50Z</time>
      </trkpt>
      <trkpt lat="43.52418" lon="0.16079">
        <ele>157.79</ele>
        <time>2021-08-19T10:43:57Z</time>
      </trkpt>
      <trkpt lat="43.5241" lon="0.16044">
        <ele>157.79</ele>
        <time>2021-08-19T10:44:06Z</time>
      </trkpt>
      <trkpt lat="43.52408" lon="0.1602">
        <ele>157.79</ele>
        <time>2021-08-19T10:44:11Z</time>
      </trkpt>
      <trkpt lat="43.52401" lon="0.15988">
        <ele>157.79</ele>
        <time>2021-08-19T10:44:18Z</time>
      </trkpt>
      <trkpt lat="43.52391" lon="0.15943">
        <ele>158.27</ele>
        <time>2021-08-19T10:44:27Z</time>
      </trkpt>
      <trkpt lat="43.5238" lon="0.15897">
        <ele>158.75</ele>
        <time>2021-08-19T10:44:36Z</time>
      </trkpt>
      <trkpt lat="43.52375" lon="0.15875">
        <ele>158.75</ele>
        <time>2021-08-19T10:44:40Z</time>
      </trkpt>
      <trkpt lat="43.52374" lon="0.15869">
        <ele>158.75</ele>
        <time>2021-08-19T10:44:41Z</time>
      </trkpt>
      <trkpt lat="43.52372" lon="0.15859">
        <ele>159.24</ele>
        <time>2021-08-19T10:44:43Z</time>
      </trkpt>
      <trkpt lat="43.52359" lon="0.15811">
        <ele>159.72</ele>
        <time>2021-08-19T10:44:52Z</time>
      </trkpt>
      <trkpt lat="43.52347" lon="0.15766">
        <ele>160.2</ele>
        <time>2021-08-19T10:45:01Z</time>
      </trkpt>
      <trkpt lat="43.52336" lon="0.15727">
        <ele>160.68</ele>
        <time>2021-08-19T10:45:09Z</time>
      </trkpt>
      <trkpt lat="43.52331" lon="0.15719">
        <ele>160.68</ele>
        <time>2021-08-19T10:45:11Z</time>
      </trkpt>
      <trkpt lat="43.52327" lon="0.15719">
        <ele>160.68</ele>
        <time>2021-08-19T10:45:12Z</time>
      </trkpt>
      <trkpt lat="43.52323" lon="0.15719">
        <ele>160.68</ele>
        <time>2021-08-19T10:45:13Z</time>
      </trkpt>
      <trkpt lat="43.52282" lon="0.15732">
        <ele>161.16</ele>
        <time>2021-08-19T10:45:22Z</time>
      </trkpt>
      <trkpt lat="43.52262" lon="0.15741">
        <ele>161.16</ele>
        <time>2021-08-19T10:45:27Z</time>
      </trkpt>
      <trkpt lat="43.52237" lon="0.15756">
        <ele>161.64</ele>
        <time>2021-08-19T10:45:33Z</time>
      </trkpt>
      <trkpt lat="43.52234" lon="0.15758">
        <ele>161.64</ele>
        <time>2021-08-19T10:45:34Z</time>
      </trkpt>
      <trkpt lat="43.52216" lon="0.15773">
        <ele>162.12</ele>
        <time>2021-08-19T10:45:39Z</time>
      </trkpt>
      <trkpt lat="43.52182" lon="0.15813">
        <ele>162.6</ele>
        <time>2021-08-19T10:45:49Z</time>
      </trkpt>
      <trkpt lat="43.52158" lon="0.15854">
        <ele>162.6</ele>
        <time>2021-08-19T10:45:57Z</time>
      </trkpt>
      <trkpt lat="43.52156" lon="0.15859">
        <ele>162.6</ele>
        <time>2021-08-19T10:45:58Z</time>
      </trkpt>
      <trkpt lat="43.52141" lon="0.15909">
        <ele>163.08</ele>
        <time>2021-08-19T10:46:06Z</time>
      </trkpt>
      <trkpt lat="43.5214" lon="0.15914">
        <ele>163.08</ele>
        <time>2021-08-19T10:46:07Z</time>
      </trkpt>
      <trkpt lat="43.52137" lon="0.15916">
        <ele>163.08</ele>
        <time>2021-08-19T10:46:08Z</time>
      </trkpt>
      <trkpt lat="43.52134" lon="0.15914">
        <ele>163.56</ele>
        <time>2021-08-19T10:46:09Z</time>
      </trkpt>
      <trkpt lat="43.52133" lon="0.15911">
        <ele>163.56</ele>
        <time>2021-08-19T10:46:10Z</time>
      </trkpt>
      <trkpt lat="43.52132" lon="0.15908">
        <ele>164.04</ele>
        <time>2021-08-19T10:46:11Z</time>
      </trkpt>
      <trkpt lat="43.52125" lon="0.15884">
        <ele>164.52</ele>
        <time>2021-08-19T10:46:17Z</time>
      </trkpt>
      <trkpt lat="43.52113" lon="0.15841">
        <ele>165</ele>
        <time>2021-08-19T10:46:26Z</time>
      </trkpt>
      <trkpt lat="43.52104" lon="0.15807">
        <ele>165.48</ele>
        <time>2021-08-19T10:46:33Z</time>
      </trkpt>
      <trkpt lat="43.5209" lon="0.15756">
        <ele>165.96</ele>
        <time>2021-08-19T10:46:43Z</time>
      </trkpt>
      <trkpt lat="43.52072" lon="0.15719">
        <ele>165.96</ele>
        <time>2021-08-19T10:46:51Z</time>
      </trkpt>
      <trkpt lat="43.52044" lon="0.15686">
        <ele>166.93</ele>
        <time>2021-08-19T10:47:01Z</time>
      </trkpt>
      <trkpt lat="43.52034" lon="0.15676">
        <ele>167.89</ele>
        <time>2021-08-19T10:47:07Z</time>
      </trkpt>
      <trkpt lat="43.5203" lon="0.15672">
        <ele>168.85</ele>
        <time>2021-08-19T10:47:11Z</time>
      </trkpt>
      <trkpt lat="43.52013" lon="0.15653">
        <ele>169.81</ele>
        <time>2021-08-19T10:47:21Z</time>
      </trkpt>
      <trkpt lat="43.52" lon="0.15639">
        <ele>171.25</ele>
        <time>2021-08-19T10:47:30Z</time>
      </trkpt>
      <trkpt lat="43.51987" lon="0.15624">
        <ele>172.21</ele>
        <time>2021-08-19T10:47:40Z</time>
      </trkpt>
      <trkpt lat="43.51975" lon="0.1561">
        <ele>173.66</ele>
        <time>2021-08-19T10:47:49Z</time>
      </trkpt>
      <trkpt lat="43.51959" lon="0.15593">
        <ele>175.1</ele>
        <time>2021-08-19T10:48:01Z</time>
      </trkpt>
      <trkpt lat="43.51948" lon="0.15583">
        <ele>175.58</ele>
        <time>2021-08-19T10:48:08Z</time>
      </trkpt>
      <trkpt lat="43.51938" lon="0.15573">
        <ele>177.5</ele>
        <time>2021-08-19T10:48:15Z</time>
      </trkpt>
      <trkpt lat="43.51925" lon="0.15558">
        <ele>178.46</ele>
        <time>2021-08-19T10:48:24Z</time>
      </trkpt>
      <trkpt lat="43.51911" lon="0.15542">
        <ele>179.9</ele>
        <time>2021-08-19T10:48:33Z</time>
      </trkpt>
      <trkpt lat="43.51898" lon="0.15528">
        <ele>180.87</ele>
        <time>2021-08-19T10:48:41Z</time>
      </trkpt>
      <trkpt lat="43.51886" lon="0.15513">
        <ele>182.31</ele>
        <time>2021-08-19T10:48:50Z</time>
      </trkpt>
      <trkpt lat="43.51883" lon="0.1551">
        <ele>182.79</ele>
        <time>2021-08-19T10:48:55Z</time>
      </trkpt>
      <trkpt lat="43.51874" lon="0.15501">
        <ele>184.23</ele>
        <time>2021-08-19T10:49:05Z</time>
      </trkpt>
      <trkpt lat="43.51867" lon="0.15492">
        <ele>185.67</ele>
        <time>2021-08-19T10:49:15Z</time>
      </trkpt>
      <trkpt lat="43.51862" lon="0.15486">
        <ele>186.63</ele>
        <time>2021-08-19T10:49:23Z</time>
      </trkpt>
      <trkpt lat="43.51856" lon="0.15478">
        <ele>188.08</ele>
        <time>2021-08-19T10:49:34Z</time>
      </trkpt>
      <trkpt lat="43.51852" lon="0.15472">
        <ele>189.52</ele>
        <time>2021-08-19T10:49:42Z</time>
      </trkpt>
      <trkpt lat="43.51847" lon="0.15467">
        <ele>190.96</ele>
        <time>2021-08-19T10:49:52Z</time>
      </trkpt>
      <trkpt lat="43.51842" lon="0.15461">
        <ele>192.4</ele>
        <time>2021-08-19T10:50:02Z</time>
      </trkpt>
      <trkpt lat="43.51837" lon="0.15456">
        <ele>193.84</ele>
        <time>2021-08-19T10:50:11Z</time>
      </trkpt>
      <trkpt lat="43.51832" lon="0.15449">
        <ele>195.77</ele>
        <time>2021-08-19T10:50:21Z</time>
      </trkpt>
      <trkpt lat="43.51826" lon="0.15443">
        <ele>197.21</ele>
        <time>2021-08-19T10:50:31Z</time>
      </trkpt>
      <trkpt lat="43.51819" lon="0.15436">
        <ele>199.13</ele>
        <time>2021-08-19T10:50:42Z</time>
      </trkpt>
      <trkpt lat="43.51813" lon="0.15428">
        <ele>201.53</ele>
        <time>2021-08-19T10:50:55Z</time>
      </trkpt>
      <trkpt lat="43.51804" lon="0.15418">
        <ele>203.46</ele>
        <time>2021-08-19T10:51:08Z</time>
      </trkpt>
      <trkpt lat="43.51796" lon="0.1541">
        <ele>204.9</ele>
        <time>2021-08-19T10:51:19Z</time>
      </trkpt>
      <trkpt lat="43.5179" lon="0.15403">
        <ele>206.34</ele>
        <time>2021-08-19T10:51:28Z</time>
      </trkpt>
      <trkpt lat="43.51785" lon="0.15401">
        <ele>206.82</ele>
        <time>2021-08-19T10:51:36Z</time>
      </trkpt>
      <trkpt lat="43.51784" lon="0.154">
        <ele>206.82</ele>
        <time>2021-08-19T10:51:38Z</time>
      </trkpt>
      <trkpt lat="43.51779" lon="0.15402">
        <ele>206.82</ele>
        <time>2021-08-19T10:51:42Z</time>
      </trkpt>
      <trkpt lat="43.51777" lon="0.15403">
        <ele>206.82</ele>
        <time>2021-08-19T10:51:43Z</time>
      </trkpt>
      <trkpt lat="43.51754" lon="0.15411">
        <ele>206.82</ele>
        <time>2021-08-19T10:51:51Z</time>
      </trkpt>
      <trkpt lat="43.51728" lon="0.15416">
        <ele>206.34</ele>
        <time>2021-08-19T10:51:58Z</time>
      </trkpt>
      <trkpt lat="43.51704" lon="0.15411">
        <ele>205.38</ele>
        <time>2021-08-19T10:52:05Z</time>
      </trkpt>
      <trkpt lat="43.51686" lon="0.15412">
        <ele>205.38</ele>
        <time>2021-08-19T10:52:11Z</time>
      </trkpt>
      <trkpt lat="43.51677" lon="0.15418">
        <ele>205.38</ele>
        <time>2021-08-19T10:52:15Z</time>
      </trkpt>
      <trkpt lat="43.51645" lon="0.15436">
        <ele>207.3</ele>
        <time>2021-08-19T10:52:26Z</time>
      </trkpt>
      <trkpt lat="43.51628" lon="0.15447">
        <ele>207.78</ele>
        <time>2021-08-19T10:52:33Z</time>
      </trkpt>
      <trkpt lat="43.51611" lon="0.15457">
        <ele>205.38</ele>
        <time>2021-08-19T10:52:38Z</time>
      </trkpt>
      <trkpt lat="43.51579" lon="0.15467">
        <ele>202.49</ele>
        <time>2021-08-19T10:52:43Z</time>
      </trkpt>
      <trkpt lat="43.51563" lon="0.15463">
        <ele>201.53</ele>
        <time>2021-08-19T10:52:47Z</time>
      </trkpt>
      <trkpt lat="43.51562" lon="0.15449">
        <ele>201.05</ele>
        <time>2021-08-19T10:52:51Z</time>
      </trkpt>
      <trkpt lat="43.51553" lon="0.1542">
        <ele>196.25</ele>
        <time>2021-08-19T10:52:56Z</time>
      </trkpt>
      <trkpt lat="43.51558" lon="0.15404">
        <ele>192.4</ele>
        <time>2021-08-19T10:53:00Z</time>
      </trkpt>
      <trkpt lat="43.51562" lon="0.15398">
        <ele>191.44</ele>
        <time>2021-08-19T10:53:02Z</time>
      </trkpt>
      <trkpt lat="43.51563" lon="0.15396">
        <ele>191.92</ele>
        <time>2021-08-19T10:53:07Z</time>
      </trkpt>
      <trkpt lat="43.51566" lon="0.15392">
        <ele>191.92</ele>
        <time>2021-08-19T10:53:23Z</time>
      </trkpt>
      <trkpt lat="43.51568" lon="0.15385">
        <ele>190.96</ele>
        <time>2021-08-19T10:53:25Z</time>
      </trkpt>
      <trkpt lat="43.51573" lon="0.15358">
        <ele>184.23</ele>
        <time>2021-08-19T10:53:29Z</time>
      </trkpt>
      <trkpt lat="43.51573" lon="0.15338">
        <ele>179.42</ele>
        <time>2021-08-19T10:53:32Z</time>
      </trkpt>
      <trkpt lat="43.51576" lon="0.15308">
        <ele>174.14</ele>
        <time>2021-08-19T10:53:36Z</time>
      </trkpt>
      <trkpt lat="43.51572" lon="0.15281">
        <ele>168.85</ele>
        <time>2021-08-19T10:53:40Z</time>
      </trkpt>
      <trkpt lat="43.51571" lon="0.15274">
        <ele>167.89</ele>
        <time>2021-08-19T10:53:41Z</time>
      </trkpt>
      <trkpt lat="43.51568" lon="0.15266">
        <ele>166.45</ele>
        <time>2021-08-19T10:53:42Z</time>
      </trkpt>
      <trkpt lat="43.51565" lon="0.1526">
        <ele>165.96</ele>
        <time>2021-08-19T10:53:43Z</time>
      </trkpt>
      <trkpt lat="43.51561" lon="0.15252">
        <ele>164.52</ele>
        <time>2021-08-19T10:53:44Z</time>
      </trkpt>
      <trkpt lat="43.51556" lon="0.15245">
        <ele>163.56</ele>
        <time>2021-08-19T10:53:45Z</time>
      </trkpt>
      <trkpt lat="43.51534" lon="0.15211">
        <ele>159.72</ele>
        <time>2021-08-19T10:53:49Z</time>
      </trkpt>
      <trkpt lat="43.51497" lon="0.15155">
        <ele>157.79</ele>
        <time>2021-08-19T10:53:56Z</time>
      </trkpt>
      <trkpt lat="43.51494" lon="0.15148">
        <ele>157.79</ele>
        <time>2021-08-19T10:53:57Z</time>
      </trkpt>
      <trkpt lat="43.51491" lon="0.1514">
        <ele>157.79</ele>
        <time>2021-08-19T10:53:58Z</time>
      </trkpt>
      <trkpt lat="43.51486" lon="0.15127">
        <ele>157.79</ele>
        <time>2021-08-19T10:54:00Z</time>
      </trkpt>
      <trkpt lat="43.51484" lon="0.15115">
        <ele>157.79</ele>
        <time>2021-08-19T10:54:02Z</time>
      </trkpt>
      <trkpt lat="43.51474" lon="0.15084">
        <ele>159.24</ele>
        <time>2021-08-19T10:54:09Z</time>
      </trkpt>
      <trkpt lat="43.51463" lon="0.15055">
        <ele>159.72</ele>
        <time>2021-08-19T10:54:16Z</time>
      </trkpt>
      <trkpt lat="43.51453" lon="0.15015">
        <ele>159.72</ele>
        <time>2021-08-19T10:54:25Z</time>
      </trkpt>
      <trkpt lat="43.51443" lon="0.14987">
        <ele>159.72</ele>
        <time>2021-08-19T10:54:32Z</time>
      </trkpt>
      <trkpt lat="43.5143" lon="0.14945">
        <ele>160.2</ele>
        <time>2021-08-19T10:54:43Z</time>
      </trkpt>
      <trkpt lat="43.51417" lon="0.14904">
        <ele>160.2</ele>
        <time>2021-08-19T10:54:54Z</time>
      </trkpt>
      <trkpt lat="43.51405" lon="0.14867">
        <ele>160.68</ele>
        <time>2021-08-19T10:55:04Z</time>
      </trkpt>
      <trkpt lat="43.51399" lon="0.14852">
        <ele>161.16</ele>
        <time>2021-08-19T10:55:11Z</time>
      </trkpt>
      <trkpt lat="43.51398" lon="0.14849">
        <ele>161.16</ele>
        <time>2021-08-19T10:55:15Z</time>
      </trkpt>
      <trkpt lat="43.51396" lon="0.14849">
        <ele>161.16</ele>
        <time>2021-08-19T10:55:16Z</time>
      </trkpt>
      <trkpt lat="43.51394" lon="0.1485">
        <ele>161.16</ele>
        <time>2021-08-19T10:55:17Z</time>
      </trkpt>
      <trkpt lat="43.51365" lon="0.14863">
        <ele>161.16</ele>
        <time>2021-08-19T10:55:25Z</time>
      </trkpt>
      <trkpt lat="43.51317" lon="0.14882">
        <ele>161.16</ele>
        <time>2021-08-19T10:55:36Z</time>
      </trkpt>
      <trkpt lat="43.51312" lon="0.14883">
        <ele>161.16</ele>
        <time>2021-08-19T10:55:37Z</time>
      </trkpt>
      <trkpt lat="43.51308" lon="0.14885">
        <ele>161.16</ele>
        <time>2021-08-19T10:55:38Z</time>
      </trkpt>
      <trkpt lat="43.51278" lon="0.14898">
        <ele>162.12</ele>
        <time>2021-08-19T10:55:45Z</time>
      </trkpt>
      <trkpt lat="43.51274" lon="0.14899">
        <ele>162.12</ele>
        <time>2021-08-19T10:55:46Z</time>
      </trkpt>
      <trkpt lat="43.51253" lon="0.14908">
        <ele>162.6</ele>
        <time>2021-08-19T10:55:51Z</time>
      </trkpt>
      <trkpt lat="43.51222" lon="0.1492">
        <ele>163.08</ele>
        <time>2021-08-19T10:55:59Z</time>
      </trkpt>
      <trkpt lat="43.51182" lon="0.14937">
        <ele>163.56</ele>
        <time>2021-08-19T10:56:09Z</time>
      </trkpt>
      <trkpt lat="43.5117" lon="0.14945">
        <ele>163.56</ele>
        <time>2021-08-19T10:56:12Z</time>
      </trkpt>
      <trkpt lat="43.51166" lon="0.14949">
        <ele>163.56</ele>
        <time>2021-08-19T10:56:13Z</time>
      </trkpt>
      <trkpt lat="43.51133" lon="0.14972">
        <ele>163.56</ele>
        <time>2021-08-19T10:56:21Z</time>
      </trkpt>
      <trkpt lat="43.51074" lon="0.14999">
        <ele>163.56</ele>
        <time>2021-08-19T10:56:34Z</time>
      </trkpt>
      <trkpt lat="43.51038" lon="0.15025">
        <ele>164.04</ele>
        <time>2021-08-19T10:56:43Z</time>
      </trkpt>
      <trkpt lat="43.51034" lon="0.15026">
        <ele>164.04</ele>
        <time>2021-08-19T10:56:44Z</time>
      </trkpt>
      <trkpt lat="43.5103" lon="0.15026">
        <ele>164.04</ele>
        <time>2021-08-19T10:56:45Z</time>
      </trkpt>
      <trkpt lat="43.51027" lon="0.15024">
        <ele>164.52</ele>
        <time>2021-08-19T10:56:46Z</time>
      </trkpt>
      <trkpt lat="43.51025" lon="0.15021">
        <ele>164.52</ele>
        <time>2021-08-19T10:56:47Z</time>
      </trkpt>
      <trkpt lat="43.51023" lon="0.15018">
        <ele>164.52</ele>
        <time>2021-08-19T10:56:48Z</time>
      </trkpt>
      <trkpt lat="43.51022" lon="0.15015">
        <ele>164.52</ele>
        <time>2021-08-19T10:56:49Z</time>
      </trkpt>
      <trkpt lat="43.5102" lon="0.15013">
        <ele>164.52</ele>
        <time>2021-08-19T10:56:50Z</time>
      </trkpt>
      <trkpt lat="43.51005" lon="0.14989">
        <ele>164.52</ele>
        <time>2021-08-19T10:56:58Z</time>
      </trkpt>
      <trkpt lat="43.50995" lon="0.14972">
        <ele>165</ele>
        <time>2021-08-19T10:57:03Z</time>
      </trkpt>
      <trkpt lat="43.50983" lon="0.14953">
        <ele>165</ele>
        <time>2021-08-19T10:57:09Z</time>
      </trkpt>
      <trkpt lat="43.5096" lon="0.14916">
        <ele>165.96</ele>
        <time>2021-08-19T10:57:20Z</time>
      </trkpt>
      <trkpt lat="43.50948" lon="0.14904">
        <ele>166.45</ele>
        <time>2021-08-19T10:57:25Z</time>
      </trkpt>
      <trkpt lat="43.50945" lon="0.14905">
        <ele>166.45</ele>
        <time>2021-08-19T10:57:26Z</time>
      </trkpt>
      <trkpt lat="43.50943" lon="0.14907">
        <ele>166.45</ele>
        <time>2021-08-19T10:57:27Z</time>
      </trkpt>
      <trkpt lat="43.5094" lon="0.14909">
        <ele>166.45</ele>
        <time>2021-08-19T10:57:28Z</time>
      </trkpt>
      <trkpt lat="43.50938" lon="0.14911">
        <ele>166.45</ele>
        <time>2021-08-19T10:57:29Z</time>
      </trkpt>
      <trkpt lat="43.50935" lon="0.14914">
        <ele>166.45</ele>
        <time>2021-08-19T10:57:30Z</time>
      </trkpt>
      <trkpt lat="43.50905" lon="0.14936">
        <ele>166.93</ele>
        <time>2021-08-19T10:57:40Z</time>
      </trkpt>
      <trkpt lat="43.50879" lon="0.14951">
        <ele>166.93</ele>
        <time>2021-08-19T10:57:48Z</time>
      </trkpt>
      <trkpt lat="43.50854" lon="0.14962">
        <ele>167.41</ele>
        <time>2021-08-19T10:57:56Z</time>
      </trkpt>
      <trkpt lat="43.50831" lon="0.14965">
        <ele>167.89</ele>
        <time>2021-08-19T10:58:04Z</time>
      </trkpt>
      <trkpt lat="43.50806" lon="0.14972">
        <ele>167.89</ele>
        <time>2021-08-19T10:58:13Z</time>
      </trkpt>
      <trkpt lat="43.50784" lon="0.14986">
        <ele>168.85</ele>
        <time>2021-08-19T10:58:22Z</time>
      </trkpt>
      <trkpt lat="43.50763" lon="0.15001">
        <ele>168.85</ele>
        <time>2021-08-19T10:58:30Z</time>
      </trkpt>
      <trkpt lat="43.50736" lon="0.15026">
        <ele>169.33</ele>
        <time>2021-08-19T10:58:41Z</time>
      </trkpt>
      <trkpt lat="43.50721" lon="0.15047">
        <ele>169.33</ele>
        <time>2021-08-19T10:58:48Z</time>
      </trkpt>
      <trkpt lat="43.50705" lon="0.15069">
        <ele>169.33</ele>
        <time>2021-08-19T10:58:55Z</time>
      </trkpt>
      <trkpt lat="43.50697" lon="0.15074">
        <ele>169.33</ele>
        <time>2021-08-19T10:58:57Z</time>
      </trkpt>
      <trkpt lat="43.5066" lon="0.15097">
        <ele>169.81</ele>
        <time>2021-08-19T10:59:07Z</time>
      </trkpt>
      <trkpt lat="43.50645" lon="0.15105">
        <ele>169.81</ele>
        <time>2021-08-19T10:59:11Z</time>
      </trkpt>
      <trkpt lat="43.50641" lon="0.15106">
        <ele>169.81</ele>
        <time>2021-08-19T10:59:12Z</time>
      </trkpt>
      <trkpt lat="43.50636" lon="0.15104">
        <ele>169.81</ele>
        <time>2021-08-19T10:59:13Z</time>
      </trkpt>
      <trkpt lat="43.50632" lon="0.15101">
        <ele>169.81</ele>
        <time>2021-08-19T10:59:14Z</time>
      </trkpt>
      <trkpt lat="43.5063" lon="0.15097">
        <ele>169.81</ele>
        <time>2021-08-19T10:59:15Z</time>
      </trkpt>
      <trkpt lat="43.50628" lon="0.15092">
        <ele>169.81</ele>
        <time>2021-08-19T10:59:16Z</time>
      </trkpt>
      <trkpt lat="43.50612" lon="0.15053">
        <ele>170.29</ele>
        <time>2021-08-19T10:59:25Z</time>
      </trkpt>
      <trkpt lat="43.50597" lon="0.15027">
        <ele>172.21</ele>
        <time>2021-08-19T10:59:34Z</time>
      </trkpt>
      <trkpt lat="43.50581" lon="0.15009">
        <ele>173.66</ele>
        <time>2021-08-19T10:59:42Z</time>
      </trkpt>
      <trkpt lat="43.50557" lon="0.14991">
        <ele>174.62</ele>
        <time>2021-08-19T10:59:52Z</time>
      </trkpt>
      <trkpt lat="43.50535" lon="0.14974">
        <ele>175.58</ele>
        <time>2021-08-19T11:00:01Z</time>
      </trkpt>
      <trkpt lat="43.50514" lon="0.14954">
        <ele>176.54</ele>
        <time>2021-08-19T11:00:10Z</time>
      </trkpt>
      <trkpt lat="43.50492" lon="0.14933">
        <ele>177.5</ele>
        <time>2021-08-19T11:00:19Z</time>
      </trkpt>
      <trkpt lat="43.50475" lon="0.14906">
        <ele>178.46</ele>
        <time>2021-08-19T11:00:29Z</time>
      </trkpt>
      <trkpt lat="43.50464" lon="0.14884">
        <ele>179.42</ele>
        <time>2021-08-19T11:00:37Z</time>
      </trkpt>
      <trkpt lat="43.5045" lon="0.14857">
        <ele>181.35</ele>
        <time>2021-08-19T11:00:46Z</time>
      </trkpt>
      <trkpt lat="43.50432" lon="0.14837">
        <ele>182.31</ele>
        <time>2021-08-19T11:00:54Z</time>
      </trkpt>
      <trkpt lat="43.50407" lon="0.14812">
        <ele>183.27</ele>
        <time>2021-08-19T11:01:04Z</time>
      </trkpt>
      <trkpt lat="43.50379" lon="0.14784">
        <ele>184.71</ele>
        <time>2021-08-19T11:01:15Z</time>
      </trkpt>
      <trkpt lat="43.50357" lon="0.14758">
        <ele>186.63</ele>
        <time>2021-08-19T11:01:25Z</time>
      </trkpt>
      <trkpt lat="43.50337" lon="0.14734">
        <ele>187.59</ele>
        <time>2021-08-19T11:01:34Z</time>
      </trkpt>
      <trkpt lat="43.50323" lon="0.14718">
        <ele>189.04</ele>
        <time>2021-08-19T11:01:42Z</time>
      </trkpt>
      <trkpt lat="43.50309" lon="0.14698">
        <ele>191.44</ele>
        <time>2021-08-19T11:01:52Z</time>
      </trkpt>
      <trkpt lat="43.50296" lon="0.14682">
        <ele>192.88</ele>
        <time>2021-08-19T11:02:01Z</time>
      </trkpt>
      <trkpt lat="43.50284" lon="0.14668">
        <ele>194.32</ele>
        <time>2021-08-19T11:02:10Z</time>
      </trkpt>
      <trkpt lat="43.50272" lon="0.14655">
        <ele>195.77</ele>
        <time>2021-08-19T11:02:19Z</time>
      </trkpt>
      <trkpt lat="43.5026" lon="0.14642">
        <ele>196.73</ele>
        <time>2021-08-19T11:02:28Z</time>
      </trkpt>
      <trkpt lat="43.50248" lon="0.1463">
        <ele>198.17</ele>
        <time>2021-08-19T11:02:37Z</time>
      </trkpt>
      <trkpt lat="43.50237" lon="0.14619">
        <ele>199.61</ele>
        <time>2021-08-19T11:02:45Z</time>
      </trkpt>
      <trkpt lat="43.50235" lon="0.14616">
        <ele>199.61</ele>
        <time>2021-08-19T11:02:47Z</time>
      </trkpt>
      <trkpt lat="43.50234" lon="0.14615">
        <ele>200.09</ele>
        <time>2021-08-19T11:02:48Z</time>
      </trkpt>
      <trkpt lat="43.50233" lon="0.14613">
        <ele>200.09</ele>
        <time>2021-08-19T11:02:49Z</time>
      </trkpt>
      <trkpt lat="43.50231" lon="0.14612">
        <ele>200.57</ele>
        <time>2021-08-19T11:02:50Z</time>
      </trkpt>
      <trkpt lat="43.5023" lon="0.14612">
        <ele>200.57</ele>
        <time>2021-08-19T11:02:51Z</time>
      </trkpt>
      <trkpt lat="43.50228" lon="0.14611">
        <ele>200.57</ele>
        <time>2021-08-19T11:02:52Z</time>
      </trkpt>
      <trkpt lat="43.50227" lon="0.14609">
        <ele>201.05</ele>
        <time>2021-08-19T11:02:53Z</time>
      </trkpt>
      <trkpt lat="43.50216" lon="0.14595">
        <ele>202.01</ele>
        <time>2021-08-19T11:03:02Z</time>
      </trkpt>
      <trkpt lat="43.50204" lon="0.14582">
        <ele>203.46</ele>
        <time>2021-08-19T11:03:11Z</time>
      </trkpt>
      <trkpt lat="43.50193" lon="0.14571">
        <ele>205.86</ele>
        <time>2021-08-19T11:03:20Z</time>
      </trkpt>
      <trkpt lat="43.50188" lon="0.14566">
        <ele>206.34</ele>
        <time>2021-08-19T11:03:27Z</time>
      </trkpt>
      <trkpt lat="43.50177" lon="0.14555">
        <ele>207.78</ele>
        <time>2021-08-19T11:03:38Z</time>
      </trkpt>
      <trkpt lat="43.50169" lon="0.14546">
        <ele>209.7</ele>
        <time>2021-08-19T11:03:49Z</time>
      </trkpt>
      <trkpt lat="43.50162" lon="0.14538">
        <ele>211.15</ele>
        <time>2021-08-19T11:04:00Z</time>
      </trkpt>
      <trkpt lat="43.50155" lon="0.14531">
        <ele>212.59</ele>
        <time>2021-08-19T11:04:10Z</time>
      </trkpt>
      <trkpt lat="43.5015" lon="0.14525">
        <ele>214.03</ele>
        <time>2021-08-19T11:04:18Z</time>
      </trkpt>
      <trkpt lat="43.50142" lon="0.14517">
        <ele>215.47</ele>
        <time>2021-08-19T11:04:29Z</time>
      </trkpt>
      <trkpt lat="43.50134" lon="0.14508">
        <ele>216.91</ele>
        <time>2021-08-19T11:04:39Z</time>
      </trkpt>
      <trkpt lat="43.50127" lon="0.14501">
        <ele>218.36</ele>
        <time>2021-08-19T11:04:48Z</time>
      </trkpt>
      <trkpt lat="43.5012" lon="0.14492">
        <ele>219.8</ele>
        <time>2021-08-19T11:04:58Z</time>
      </trkpt>
      <trkpt lat="43.50116" lon="0.14489">
        <ele>220.76</ele>
        <time>2021-08-19T11:05:06Z</time>
      </trkpt>
      <trkpt lat="43.50106" lon="0.14479">
        <ele>221.72</ele>
        <time>2021-08-19T11:05:14Z</time>
      </trkpt>
      <trkpt lat="43.50104" lon="0.14478">
        <ele>222.2</ele>
        <time>2021-08-19T11:05:15Z</time>
      </trkpt>
      <trkpt lat="43.50095" lon="0.1447">
        <ele>223.16</ele>
        <time>2021-08-19T11:05:22Z</time>
      </trkpt>
      <trkpt lat="43.50081" lon="0.1446">
        <ele>224.61</ele>
        <time>2021-08-19T11:05:31Z</time>
      </trkpt>
      <trkpt lat="43.50068" lon="0.14449">
        <ele>225.57</ele>
        <time>2021-08-19T11:05:39Z</time>
      </trkpt>
      <trkpt lat="43.50052" lon="0.14437">
        <ele>226.53</ele>
        <time>2021-08-19T11:05:48Z</time>
      </trkpt>
      <trkpt lat="43.50036" lon="0.14424">
        <ele>227.49</ele>
        <time>2021-08-19T11:05:56Z</time>
      </trkpt>
      <trkpt lat="43.50014" lon="0.14411">
        <ele>229.41</ele>
        <time>2021-08-19T11:06:06Z</time>
      </trkpt>
      <trkpt lat="43.49995" lon="0.14402">
        <ele>230.85</ele>
        <time>2021-08-19T11:06:15Z</time>
      </trkpt>
      <trkpt lat="43.49975" lon="0.14389">
        <ele>232.3</ele>
        <time>2021-08-19T11:06:25Z</time>
      </trkpt>
      <trkpt lat="43.4996" lon="0.1438">
        <ele>232.78</ele>
        <time>2021-08-19T11:06:32Z</time>
      </trkpt>
      <trkpt lat="43.49949" lon="0.1437">
        <ele>232.78</ele>
        <time>2021-08-19T11:06:39Z</time>
      </trkpt>
      <trkpt lat="43.4995" lon="0.1437">
        <ele>232.78</ele>
        <time>2021-08-19T11:06:46Z</time>
      </trkpt>
      <trkpt lat="43.4995" lon="0.1437">
        <ele>232.78</ele>
        <time>2021-08-19T11:07:03Z</time>
      </trkpt>
      <trkpt lat="43.49949" lon="0.1437">
        <ele>232.78</ele>
        <time>2021-08-19T11:07:12Z</time>
      </trkpt>
      <trkpt lat="43.49948" lon="0.14369">
        <ele>232.78</ele>
        <time>2021-08-19T11:07:30Z</time>
      </trkpt>
      <trkpt lat="43.49949" lon="0.14369">
        <ele>232.78</ele>
        <time>2021-08-19T11:07:50Z</time>
      </trkpt>
      <trkpt lat="43.49949" lon="0.14368">
        <ele>232.78</ele>
        <time>2021-08-19T11:08:05Z</time>
      </trkpt>
      <trkpt lat="43.49949" lon="0.1437">
        <ele>232.78</ele>
        <time>2021-08-19T11:08:18Z</time>
      </trkpt>
      <trkpt lat="43.49949" lon="0.14372">
        <ele>232.78</ele>
        <time>2021-08-19T11:08:29Z</time>
      </trkpt>
      <trkpt lat="43.49946" lon="0.14367">
        <ele>232.78</ele>
        <time>2021-08-19T11:08:35Z</time>
      </trkpt>
      <trkpt lat="43.49946" lon="0.14366">
        <ele>232.78</ele>
        <time>2021-08-19T11:08:36Z</time>
      </trkpt>
      <trkpt lat="43.49945" lon="0.14364">
        <ele>232.78</ele>
        <time>2021-08-19T11:08:37Z</time>
      </trkpt>
      <trkpt lat="43.49944" lon="0.14362">
        <ele>232.78</ele>
        <time>2021-08-19T11:08:38Z</time>
      </trkpt>
      <trkpt lat="43.49942" lon="0.14361">
        <ele>232.78</ele>
        <time>2021-08-19T11:08:39Z</time>
      </trkpt>
      <trkpt lat="43.4994" lon="0.14359">
        <ele>232.78</ele>
        <time>2021-08-19T11:08:40Z</time>
      </trkpt>
      <trkpt lat="43.49928" lon="0.1435">
        <ele>229.89</ele>
        <time>2021-08-19T11:08:43Z</time>
      </trkpt>
      <trkpt lat="43.49908" lon="0.14341">
        <ele>227.01</ele>
        <time>2021-08-19T11:08:47Z</time>
      </trkpt>
      <trkpt lat="43.49886" lon="0.14333">
        <ele>223.64</ele>
        <time>2021-08-19T11:08:52Z</time>
      </trkpt>
      <trkpt lat="43.49882" lon="0.1433">
        <ele>222.2</ele>
        <time>2021-08-19T11:08:53Z</time>
      </trkpt>
      <trkpt lat="43.49872" lon="0.14322">
        <ele>219.8</ele>
        <time>2021-08-19T11:08:56Z</time>
      </trkpt>
      <trkpt lat="43.49868" lon="0.14318">
        <ele>219.32</ele>
        <time>2021-08-19T11:08:57Z</time>
      </trkpt>
      <trkpt lat="43.49865" lon="0.14313">
        <ele>218.36</ele>
        <time>2021-08-19T11:08:58Z</time>
      </trkpt>
      <trkpt lat="43.49857" lon="0.14296">
        <ele>214.99</ele>
        <time>2021-08-19T11:09:01Z</time>
      </trkpt>
      <trkpt lat="43.49855" lon="0.1429">
        <ele>214.03</ele>
        <time>2021-08-19T11:09:02Z</time>
      </trkpt>
      <trkpt lat="43.49853" lon="0.14284">
        <ele>213.55</ele>
        <time>2021-08-19T11:09:03Z</time>
      </trkpt>
      <trkpt lat="43.49852" lon="0.14278">
        <ele>213.55</ele>
        <time>2021-08-19T11:09:04Z</time>
      </trkpt>
      <trkpt lat="43.49852" lon="0.14271">
        <ele>212.11</ele>
        <time>2021-08-19T11:09:05Z</time>
      </trkpt>
      <trkpt lat="43.49852" lon="0.14265">
        <ele>211.15</ele>
        <time>2021-08-19T11:09:06Z</time>
      </trkpt>
      <trkpt lat="43.49852" lon="0.14257">
        <ele>210.67</ele>
        <time>2021-08-19T11:09:07Z</time>
      </trkpt>
      <trkpt lat="43.49853" lon="0.1425">
        <ele>209.22</ele>
        <time>2021-08-19T11:09:08Z</time>
      </trkpt>
      <trkpt lat="43.49855" lon="0.14244">
        <ele>209.7</ele>
        <time>2021-08-19T11:09:09Z</time>
      </trkpt>
      <trkpt lat="43.49858" lon="0.14237">
        <ele>208.74</ele>
        <time>2021-08-19T11:09:10Z</time>
      </trkpt>
      <trkpt lat="43.49862" lon="0.14233">
        <ele>207.78</ele>
        <time>2021-08-19T11:09:11Z</time>
      </trkpt>
      <trkpt lat="43.49865" lon="0.14228">
        <ele>206.82</ele>
        <time>2021-08-19T11:09:12Z</time>
      </trkpt>
      <trkpt lat="43.4987" lon="0.14225">
        <ele>206.34</ele>
        <time>2021-08-19T11:09:13Z</time>
      </trkpt>
      <trkpt lat="43.49875" lon="0.14222">
        <ele>205.38</ele>
        <time>2021-08-19T11:09:14Z</time>
      </trkpt>
      <trkpt lat="43.4988" lon="0.14219">
        <ele>204.42</ele>
        <time>2021-08-19T11:09:15Z</time>
      </trkpt>
      <trkpt lat="43.49902" lon="0.1421">
        <ele>201.05</ele>
        <time>2021-08-19T11:09:19Z</time>
      </trkpt>
      <trkpt lat="43.49915" lon="0.14202">
        <ele>199.13</ele>
        <time>2021-08-19T11:09:22Z</time>
      </trkpt>
      <trkpt lat="43.49919" lon="0.14199">
        <ele>198.65</ele>
        <time>2021-08-19T11:09:23Z</time>
      </trkpt>
      <trkpt lat="43.49922" lon="0.14195">
        <ele>197.69</ele>
        <time>2021-08-19T11:09:24Z</time>
      </trkpt>
      <trkpt lat="43.49924" lon="0.14191">
        <ele>197.21</ele>
        <time>2021-08-19T11:09:25Z</time>
      </trkpt>
      <trkpt lat="43.49926" lon="0.14185">
        <ele>196.73</ele>
        <time>2021-08-19T11:09:26Z</time>
      </trkpt>
      <trkpt lat="43.49928" lon="0.14177">
        <ele>195.77</ele>
        <time>2021-08-19T11:09:27Z</time>
      </trkpt>
      <trkpt lat="43.49935" lon="0.14142">
        <ele>191.44</ele>
        <time>2021-08-19T11:09:31Z</time>
      </trkpt>
      <trkpt lat="43.4994" lon="0.14114">
        <ele>189.52</ele>
        <time>2021-08-19T11:09:34Z</time>
      </trkpt>
      <trkpt lat="43.49948" lon="0.1408">
        <ele>188.08</ele>
        <time>2021-08-19T11:09:38Z</time>
      </trkpt>
      <trkpt lat="43.49951" lon="0.14072">
        <ele>187.59</ele>
        <time>2021-08-19T11:09:39Z</time>
      </trkpt>
      <trkpt lat="43.49954" lon="0.14065">
        <ele>187.11</ele>
        <time>2021-08-19T11:09:40Z</time>
      </trkpt>
      <trkpt lat="43.49958" lon="0.14059">
        <ele>186.63</ele>
        <time>2021-08-19T11:09:41Z</time>
      </trkpt>
      <trkpt lat="43.49961" lon="0.14054">
        <ele>186.63</ele>
        <time>2021-08-19T11:09:42Z</time>
      </trkpt>
      <trkpt lat="43.49965" lon="0.14049">
        <ele>185.67</ele>
        <time>2021-08-19T11:09:43Z</time>
      </trkpt>
      <trkpt lat="43.49967" lon="0.14044">
        <ele>185.19</ele>
        <time>2021-08-19T11:09:44Z</time>
      </trkpt>
      <trkpt lat="43.4997" lon="0.14039">
        <ele>184.71</ele>
        <time>2021-08-19T11:09:45Z</time>
      </trkpt>
      <trkpt lat="43.49972" lon="0.14033">
        <ele>183.75</ele>
        <time>2021-08-19T11:09:46Z</time>
      </trkpt>
      <trkpt lat="43.49974" lon="0.14026">
        <ele>183.27</ele>
        <time>2021-08-19T11:09:47Z</time>
      </trkpt>
      <trkpt lat="43.49975" lon="0.1402">
        <ele>182.31</ele>
        <time>2021-08-19T11:09:48Z</time>
      </trkpt>
      <trkpt lat="43.49975" lon="0.14013">
        <ele>182.31</ele>
        <time>2021-08-19T11:09:49Z</time>
      </trkpt>
      <trkpt lat="43.49977" lon="0.14001">
        <ele>180.87</ele>
        <time>2021-08-19T11:09:51Z</time>
      </trkpt>
      <trkpt lat="43.49976" lon="0.13989">
        <ele>179.42</ele>
        <time>2021-08-19T11:09:53Z</time>
      </trkpt>
      <trkpt lat="43.49974" lon="0.13972">
        <ele>176.54</ele>
        <time>2021-08-19T11:09:56Z</time>
      </trkpt>
      <trkpt lat="43.49971" lon="0.13966">
        <ele>176.06</ele>
        <time>2021-08-19T11:09:57Z</time>
      </trkpt>
      <trkpt lat="43.49968" lon="0.13962">
        <ele>175.1</ele>
        <time>2021-08-19T11:09:58Z</time>
      </trkpt>
      <trkpt lat="43.49965" lon="0.13959">
        <ele>174.14</ele>
        <time>2021-08-19T11:09:59Z</time>
      </trkpt>
      <trkpt lat="43.49961" lon="0.13956">
        <ele>173.66</ele>
        <time>2021-08-19T11:10:00Z</time>
      </trkpt>
      <trkpt lat="43.49957" lon="0.13954">
        <ele>172.69</ele>
        <time>2021-08-19T11:10:01Z</time>
      </trkpt>
      <trkpt lat="43.49938" lon="0.13946">
        <ele>169.33</ele>
        <time>2021-08-19T11:10:05Z</time>
      </trkpt>
      <trkpt lat="43.49905" lon="0.13929">
        <ele>165.96</ele>
        <time>2021-08-19T11:10:11Z</time>
      </trkpt>
      <trkpt lat="43.49899" lon="0.13928">
        <ele>165.96</ele>
        <time>2021-08-19T11:10:12Z</time>
      </trkpt>
      <trkpt lat="43.49893" lon="0.13929">
        <ele>165.48</ele>
        <time>2021-08-19T11:10:13Z</time>
      </trkpt>
      <trkpt lat="43.49883" lon="0.13932">
        <ele>165</ele>
        <time>2021-08-19T11:10:15Z</time>
      </trkpt>
      <trkpt lat="43.49879" lon="0.13935">
        <ele>164.52</ele>
        <time>2021-08-19T11:10:16Z</time>
      </trkpt>
      <trkpt lat="43.49869" lon="0.13944">
        <ele>163.08</ele>
        <time>2021-08-19T11:10:18Z</time>
      </trkpt>
      <trkpt lat="43.49864" lon="0.13951">
        <ele>162.12</ele>
        <time>2021-08-19T11:10:19Z</time>
      </trkpt>
      <trkpt lat="43.49842" lon="0.13976">
        <ele>159.24</ele>
        <time>2021-08-19T11:10:23Z</time>
      </trkpt>
      <trkpt lat="43.49829" lon="0.13987">
        <ele>158.27</ele>
        <time>2021-08-19T11:10:25Z</time>
      </trkpt>
      <trkpt lat="43.49823" lon="0.13991">
        <ele>157.79</ele>
        <time>2021-08-19T11:10:26Z</time>
      </trkpt>
      <trkpt lat="43.49816" lon="0.13993">
        <ele>157.31</ele>
        <time>2021-08-19T11:10:27Z</time>
      </trkpt>
      <trkpt lat="43.49811" lon="0.13993">
        <ele>157.31</ele>
        <time>2021-08-19T11:10:28Z</time>
      </trkpt>
      <trkpt lat="43.49808" lon="0.13992">
        <ele>157.31</ele>
        <time>2021-08-19T11:10:29Z</time>
      </trkpt>
      <trkpt lat="43.49804" lon="0.13988">
        <ele>156.83</ele>
        <time>2021-08-19T11:10:30Z</time>
      </trkpt>
      <trkpt lat="43.49801" lon="0.13982">
        <ele>156.83</ele>
        <time>2021-08-19T11:10:31Z</time>
      </trkpt>
      <trkpt lat="43.498" lon="0.13977">
        <ele>156.35</ele>
        <time>2021-08-19T11:10:32Z</time>
      </trkpt>
      <trkpt lat="43.49799" lon="0.13971">
        <ele>156.35</ele>
        <time>2021-08-19T11:10:33Z</time>
      </trkpt>
      <trkpt lat="43.49798" lon="0.13965">
        <ele>156.35</ele>
        <time>2021-08-19T11:10:34Z</time>
      </trkpt>
      <trkpt lat="43.49797" lon="0.13959">
        <ele>155.87</ele>
        <time>2021-08-19T11:10:35Z</time>
      </trkpt>
      <trkpt lat="43.49794" lon="0.13951">
        <ele>155.87</ele>
        <time>2021-08-19T11:10:36Z</time>
      </trkpt>
      <trkpt lat="43.49793" lon="0.13946">
        <ele>156.35</ele>
        <time>2021-08-19T11:10:37Z</time>
      </trkpt>
      <trkpt lat="43.49775" lon="0.13893">
        <ele>153.95</ele>
        <time>2021-08-19T11:10:44Z</time>
      </trkpt>
      <trkpt lat="43.49747" lon="0.13829">
        <ele>153.47</ele>
        <time>2021-08-19T11:10:52Z</time>
      </trkpt>
      <trkpt lat="43.49744" lon="0.13821">
        <ele>152.99</ele>
        <time>2021-08-19T11:10:53Z</time>
      </trkpt>
      <trkpt lat="43.49739" lon="0.13814">
        <ele>152.99</ele>
        <time>2021-08-19T11:10:54Z</time>
      </trkpt>
      <trkpt lat="43.49735" lon="0.13807">
        <ele>152.99</ele>
        <time>2021-08-19T11:10:55Z</time>
      </trkpt>
      <trkpt lat="43.49731" lon="0.13802">
        <ele>152.99</ele>
        <time>2021-08-19T11:10:56Z</time>
      </trkpt>
      <trkpt lat="43.49725" lon="0.13796">
        <ele>152.99</ele>
        <time>2021-08-19T11:10:57Z</time>
      </trkpt>
      <trkpt lat="43.4972" lon="0.13793">
        <ele>152.99</ele>
        <time>2021-08-19T11:10:58Z</time>
      </trkpt>
      <trkpt lat="43.49715" lon="0.13789">
        <ele>152.99</ele>
        <time>2021-08-19T11:10:59Z</time>
      </trkpt>
      <trkpt lat="43.49696" lon="0.13776">
        <ele>152.99</ele>
        <time>2021-08-19T11:11:03Z</time>
      </trkpt>
      <trkpt lat="43.49692" lon="0.13772">
        <ele>152.99</ele>
        <time>2021-08-19T11:11:04Z</time>
      </trkpt>
      <trkpt lat="43.49689" lon="0.13768">
        <ele>153.95</ele>
        <time>2021-08-19T11:11:05Z</time>
      </trkpt>
      <trkpt lat="43.49686" lon="0.13763">
        <ele>153.95</ele>
        <time>2021-08-19T11:11:06Z</time>
      </trkpt>
      <trkpt lat="43.49684" lon="0.13758">
        <ele>154.91</ele>
        <time>2021-08-19T11:11:07Z</time>
      </trkpt>
      <trkpt lat="43.49682" lon="0.13753">
        <ele>154.91</ele>
        <time>2021-08-19T11:11:08Z</time>
      </trkpt>
      <trkpt lat="43.49673" lon="0.13718">
        <ele>154.43</ele>
        <time>2021-08-19T11:11:14Z</time>
      </trkpt>
      <trkpt lat="43.49673" lon="0.13711">
        <ele>154.43</ele>
        <time>2021-08-19T11:11:15Z</time>
      </trkpt>
      <trkpt lat="43.49674" lon="0.13704">
        <ele>154.43</ele>
        <time>2021-08-19T11:11:16Z</time>
      </trkpt>
      <trkpt lat="43.49675" lon="0.1369">
        <ele>152.99</ele>
        <time>2021-08-19T11:11:18Z</time>
      </trkpt>
      <trkpt lat="43.49674" lon="0.13682">
        <ele>152.99</ele>
        <time>2021-08-19T11:11:19Z</time>
      </trkpt>
      <trkpt lat="43.49671" lon="0.13668">
        <ele>152.99</ele>
        <time>2021-08-19T11:11:21Z</time>
      </trkpt>
      <trkpt lat="43.49662" lon="0.13642">
        <ele>152.51</ele>
        <time>2021-08-19T11:11:25Z</time>
      </trkpt>
      <trkpt lat="43.49659" lon="0.13637">
        <ele>152.51</ele>
        <time>2021-08-19T11:11:26Z</time>
      </trkpt>
      <trkpt lat="43.49638" lon="0.13612">
        <ele>152.51</ele>
        <time>2021-08-19T11:11:31Z</time>
      </trkpt>
      <trkpt lat="43.49618" lon="0.13596">
        <ele>152.51</ele>
        <time>2021-08-19T11:11:35Z</time>
      </trkpt>
      <trkpt lat="43.49614" lon="0.13591">
        <ele>152.51</ele>
        <time>2021-08-19T11:11:36Z</time>
      </trkpt>
      <trkpt lat="43.4961" lon="0.13586">
        <ele>152.51</ele>
        <time>2021-08-19T11:11:37Z</time>
      </trkpt>
      <trkpt lat="43.49606" lon="0.1358">
        <ele>152.51</ele>
        <time>2021-08-19T11:11:38Z</time>
      </trkpt>
      <trkpt lat="43.49602" lon="0.13574">
        <ele>152.51</ele>
        <time>2021-08-19T11:11:39Z</time>
      </trkpt>
      <trkpt lat="43.49595" lon="0.13562">
        <ele>152.51</ele>
        <time>2021-08-19T11:11:41Z</time>
      </trkpt>
      <trkpt lat="43.49592" lon="0.13557">
        <ele>152.51</ele>
        <time>2021-08-19T11:11:42Z</time>
      </trkpt>
      <trkpt lat="43.4959" lon="0.13551">
        <ele>152.51</ele>
        <time>2021-08-19T11:11:43Z</time>
      </trkpt>
      <trkpt lat="43.49592" lon="0.13546">
        <ele>152.03</ele>
        <time>2021-08-19T11:11:44Z</time>
      </trkpt>
      <trkpt lat="43.49594" lon="0.13541">
        <ele>152.03</ele>
        <time>2021-08-19T11:11:45Z</time>
      </trkpt>
      <trkpt lat="43.49598" lon="0.13537">
        <ele>152.03</ele>
        <time>2021-08-19T11:11:46Z</time>
      </trkpt>
      <trkpt lat="43.49601" lon="0.13533">
        <ele>151.54</ele>
        <time>2021-08-19T11:11:47Z</time>
      </trkpt>
      <trkpt lat="43.49605" lon="0.13525">
        <ele>151.54</ele>
        <time>2021-08-19T11:11:49Z</time>
      </trkpt>
      <trkpt lat="43.49605" lon="0.13522">
        <ele>151.54</ele>
        <time>2021-08-19T11:11:50Z</time>
      </trkpt>
      <trkpt lat="43.49605" lon="0.13518">
        <ele>151.54</ele>
        <time>2021-08-19T11:11:51Z</time>
      </trkpt>
      <trkpt lat="43.49603" lon="0.13515">
        <ele>151.54</ele>
        <time>2021-08-19T11:11:52Z</time>
      </trkpt>
      <trkpt lat="43.496" lon="0.13511">
        <ele>151.54</ele>
        <time>2021-08-19T11:11:53Z</time>
      </trkpt>
      <trkpt lat="43.49598" lon="0.13507">
        <ele>151.54</ele>
        <time>2021-08-19T11:11:54Z</time>
      </trkpt>
      <trkpt lat="43.49595" lon="0.13504">
        <ele>151.54</ele>
        <time>2021-08-19T11:11:55Z</time>
      </trkpt>
      <trkpt lat="43.49591" lon="0.13502">
        <ele>151.54</ele>
        <time>2021-08-19T11:11:56Z</time>
      </trkpt>
      <trkpt lat="43.49588" lon="0.13499">
        <ele>151.54</ele>
        <time>2021-08-19T11:11:57Z</time>
      </trkpt>
      <trkpt lat="43.49586" lon="0.13493">
        <ele>151.54</ele>
        <time>2021-08-19T11:11:58Z</time>
      </trkpt>
      <trkpt lat="43.49574" lon="0.1346">
        <ele>152.99</ele>
        <time>2021-08-19T11:12:03Z</time>
      </trkpt>
      <trkpt lat="43.49571" lon="0.13455">
        <ele>152.99</ele>
        <time>2021-08-19T11:12:04Z</time>
      </trkpt>
      <trkpt lat="43.49561" lon="0.13433">
        <ele>154.43</ele>
        <time>2021-08-19T11:12:10Z</time>
      </trkpt>
      <trkpt lat="43.49549" lon="0.13414">
        <ele>152.99</ele>
        <time>2021-08-19T11:12:14Z</time>
      </trkpt>
      <trkpt lat="43.49535" lon="0.13393">
        <ele>152.99</ele>
        <time>2021-08-19T11:12:18Z</time>
      </trkpt>
      <trkpt lat="43.49531" lon="0.13389">
        <ele>152.51</ele>
        <time>2021-08-19T11:12:19Z</time>
      </trkpt>
      <trkpt lat="43.49527" lon="0.13386">
        <ele>152.51</ele>
        <time>2021-08-19T11:12:20Z</time>
      </trkpt>
      <trkpt lat="43.49522" lon="0.13384">
        <ele>152.51</ele>
        <time>2021-08-19T11:12:21Z</time>
      </trkpt>
      <trkpt lat="43.49517" lon="0.13384">
        <ele>152.51</ele>
        <time>2021-08-19T11:12:22Z</time>
      </trkpt>
      <trkpt lat="43.49512" lon="0.13383">
        <ele>152.51</ele>
        <time>2021-08-19T11:12:23Z</time>
      </trkpt>
      <trkpt lat="43.49504" lon="0.13383">
        <ele>152.51</ele>
        <time>2021-08-19T11:12:25Z</time>
      </trkpt>
      <trkpt lat="43.49486" lon="0.13389">
        <ele>152.51</ele>
        <time>2021-08-19T11:12:29Z</time>
      </trkpt>
      <trkpt lat="43.49458" lon="0.13403">
        <ele>153.95</ele>
        <time>2021-08-19T11:12:36Z</time>
      </trkpt>
      <trkpt lat="43.49455" lon="0.134">
        <ele>153.95</ele>
        <time>2021-08-19T11:12:37Z</time>
      </trkpt>
      <trkpt lat="43.49453" lon="0.13395">
        <ele>153.95</ele>
        <time>2021-08-19T11:12:38Z</time>
      </trkpt>
      <trkpt lat="43.49452" lon="0.1339">
        <ele>153.95</ele>
        <time>2021-08-19T11:12:39Z</time>
      </trkpt>
      <trkpt lat="43.4945" lon="0.13384">
        <ele>153.95</ele>
        <time>2021-08-19T11:12:40Z</time>
      </trkpt>
      <trkpt lat="43.49434" lon="0.1333">
        <ele>152.51</ele>
        <time>2021-08-19T11:12:49Z</time>
      </trkpt>
      <trkpt lat="43.49422" lon="0.13286">
        <ele>152.51</ele>
        <time>2021-08-19T11:12:56Z</time>
      </trkpt>
      <trkpt lat="43.49422" lon="0.13278">
        <ele>152.51</ele>
        <time>2021-08-19T11:12:57Z</time>
      </trkpt>
      <trkpt lat="43.49423" lon="0.13272">
        <ele>152.51</ele>
        <time>2021-08-19T11:12:58Z</time>
      </trkpt>
      <trkpt lat="43.49426" lon="0.13268">
        <ele>152.51</ele>
        <time>2021-08-19T11:12:59Z</time>
      </trkpt>
      <trkpt lat="43.4943" lon="0.13265">
        <ele>152.51</ele>
        <time>2021-08-19T11:13:00Z</time>
      </trkpt>
      <trkpt lat="43.49434" lon="0.13263">
        <ele>152.51</ele>
        <time>2021-08-19T11:13:01Z</time>
      </trkpt>
      <trkpt lat="43.49438" lon="0.13261">
        <ele>152.51</ele>
        <time>2021-08-19T11:13:02Z</time>
      </trkpt>
      <trkpt lat="43.49455" lon="0.13253">
        <ele>152.51</ele>
        <time>2021-08-19T11:13:06Z</time>
      </trkpt>
      <trkpt lat="43.49496" lon="0.1323">
        <ele>152.03</ele>
        <time>2021-08-19T11:13:15Z</time>
      </trkpt>
      <trkpt lat="43.49547" lon="0.13202">
        <ele>152.03</ele>
        <time>2021-08-19T11:13:26Z</time>
      </trkpt>
      <trkpt lat="43.49602" lon="0.13172">
        <ele>152.03</ele>
        <time>2021-08-19T11:13:38Z</time>
      </trkpt>
      <trkpt lat="43.49655" lon="0.13144">
        <ele>152.03</ele>
        <time>2021-08-19T11:13:49Z</time>
      </trkpt>
      <trkpt lat="43.49709" lon="0.13115">
        <ele>151.54</ele>
        <time>2021-08-19T11:14:00Z</time>
      </trkpt>
      <trkpt lat="43.49776" lon="0.13078">
        <ele>151.54</ele>
        <time>2021-08-19T11:14:14Z</time>
      </trkpt>
      <trkpt lat="43.49834" lon="0.13046">
        <ele>151.54</ele>
        <time>2021-08-19T11:14:26Z</time>
      </trkpt>
      <trkpt lat="43.49878" lon="0.13022">
        <ele>151.54</ele>
        <time>2021-08-19T11:14:35Z</time>
      </trkpt>
      <trkpt lat="43.49929" lon="0.12995">
        <ele>151.54</ele>
        <time>2021-08-19T11:14:45Z</time>
      </trkpt>
      <trkpt lat="43.49987" lon="0.12963">
        <ele>151.54</ele>
        <time>2021-08-19T11:14:57Z</time>
      </trkpt>
      <trkpt lat="43.5001" lon="0.12951">
        <ele>151.54</ele>
        <time>2021-08-19T11:15:02Z</time>
      </trkpt>
      <trkpt lat="43.50046" lon="0.12931">
        <ele>151.54</ele>
        <time>2021-08-19T11:15:11Z</time>
      </trkpt>
      <trkpt lat="43.50084" lon="0.12902">
        <ele>150.58</ele>
        <time>2021-08-19T11:15:20Z</time>
      </trkpt>
      <trkpt lat="43.501" lon="0.12891">
        <ele>151.06</ele>
        <time>2021-08-19T11:15:24Z</time>
      </trkpt>
      <trkpt lat="43.50103" lon="0.12887">
        <ele>151.06</ele>
        <time>2021-08-19T11:15:25Z</time>
      </trkpt>
      <trkpt lat="43.50104" lon="0.12882">
        <ele>151.06</ele>
        <time>2021-08-19T11:15:26Z</time>
      </trkpt>
      <trkpt lat="43.50104" lon="0.12878">
        <ele>150.58</ele>
        <time>2021-08-19T11:15:27Z</time>
      </trkpt>
      <trkpt lat="43.50102" lon="0.12875">
        <ele>150.58</ele>
        <time>2021-08-19T11:15:28Z</time>
      </trkpt>
      <trkpt lat="43.501" lon="0.12872">
        <ele>150.58</ele>
        <time>2021-08-19T11:15:29Z</time>
      </trkpt>
      <trkpt lat="43.50081" lon="0.12855">
        <ele>150.58</ele>
        <time>2021-08-19T11:15:35Z</time>
      </trkpt>
      <trkpt lat="43.50044" lon="0.12821">
        <ele>150.58</ele>
        <time>2021-08-19T11:15:45Z</time>
      </trkpt>
      <trkpt lat="43.50014" lon="0.12793">
        <ele>150.58</ele>
        <time>2021-08-19T11:15:53Z</time>
      </trkpt>
      <trkpt lat="43.49985" lon="0.12765">
        <ele>150.58</ele>
        <time>2021-08-19T11:16:01Z</time>
      </trkpt>
      <trkpt lat="43.49981" lon="0.12762">
        <ele>150.58</ele>
        <time>2021-08-19T11:16:02Z</time>
      </trkpt>
      <trkpt lat="43.49977" lon="0.12759">
        <ele>150.58</ele>
        <time>2021-08-19T11:16:03Z</time>
      </trkpt>
      <trkpt lat="43.49935" lon="0.12718">
        <ele>150.58</ele>
        <time>2021-08-19T11:16:14Z</time>
      </trkpt>
      <trkpt lat="43.49927" lon="0.12711">
        <ele>150.58</ele>
        <time>2021-08-19T11:16:16Z</time>
      </trkpt>
      <trkpt lat="43.49908" lon="0.12694">
        <ele>150.58</ele>
        <time>2021-08-19T11:16:22Z</time>
      </trkpt>
      <trkpt lat="43.49886" lon="0.12676">
        <ele>150.58</ele>
        <time>2021-08-19T11:16:29Z</time>
      </trkpt>
      <trkpt lat="43.49882" lon="0.12673">
        <ele>150.58</ele>
        <time>2021-08-19T11:16:30Z</time>
      </trkpt>
      <trkpt lat="43.4985" lon="0.12656">
        <ele>150.58</ele>
        <time>2021-08-19T11:16:38Z</time>
      </trkpt>
      <trkpt lat="43.49818" lon="0.12637">
        <ele>150.58</ele>
        <time>2021-08-19T11:16:46Z</time>
      </trkpt>
      <trkpt lat="43.49814" lon="0.12633">
        <ele>150.58</ele>
        <time>2021-08-19T11:16:47Z</time>
      </trkpt>
      <trkpt lat="43.49808" lon="0.12625">
        <ele>152.03</ele>
        <time>2021-08-19T11:16:49Z</time>
      </trkpt>
      <trkpt lat="43.49806" lon="0.1262">
        <ele>152.03</ele>
        <time>2021-08-19T11:16:50Z</time>
      </trkpt>
      <trkpt lat="43.49788" lon="0.12587">
        <ele>152.03</ele>
        <time>2021-08-19T11:16:57Z</time>
      </trkpt>
      <trkpt lat="43.49772" lon="0.12557">
        <ele>152.03</ele>
        <time>2021-08-19T11:17:03Z</time>
      </trkpt>
      <trkpt lat="43.49747" lon="0.12506">
        <ele>152.03</ele>
        <time>2021-08-19T11:17:12Z</time>
      </trkpt>
      <trkpt lat="43.49723" lon="0.12446">
        <ele>152.03</ele>
        <time>2021-08-19T11:17:22Z</time>
      </trkpt>
      <trkpt lat="43.49702" lon="0.1239">
        <ele>152.03</ele>
        <time>2021-08-19T11:17:31Z</time>
      </trkpt>
      <trkpt lat="43.49677" lon="0.12327">
        <ele>152.03</ele>
        <time>2021-08-19T11:17:41Z</time>
      </trkpt>
      <trkpt lat="43.49672" lon="0.12314">
        <ele>152.03</ele>
        <time>2021-08-19T11:17:43Z</time>
      </trkpt>
      <trkpt lat="43.49671" lon="0.12308">
        <ele>152.03</ele>
        <time>2021-08-19T11:17:44Z</time>
      </trkpt>
      <trkpt lat="43.4967" lon="0.12301">
        <ele>152.03</ele>
        <time>2021-08-19T11:17:45Z</time>
      </trkpt>
      <trkpt lat="43.49669" lon="0.12294">
        <ele>152.03</ele>
        <time>2021-08-19T11:17:46Z</time>
      </trkpt>
      <trkpt lat="43.49668" lon="0.12287">
        <ele>152.03</ele>
        <time>2021-08-19T11:17:47Z</time>
      </trkpt>
      <trkpt lat="43.49668" lon="0.1228">
        <ele>152.03</ele>
        <time>2021-08-19T11:17:48Z</time>
      </trkpt>
      <trkpt lat="43.49668" lon="0.12273">
        <ele>152.03</ele>
        <time>2021-08-19T11:17:49Z</time>
      </trkpt>
      <trkpt lat="43.49672" lon="0.12199">
        <ele>152.03</ele>
        <time>2021-08-19T11:18:00Z</time>
      </trkpt>
      <trkpt lat="43.49668" lon="0.12141">
        <ele>152.03</ele>
        <time>2021-08-19T11:18:09Z</time>
      </trkpt>
      <trkpt lat="43.49665" lon="0.12129">
        <ele>152.03</ele>
        <time>2021-08-19T11:18:11Z</time>
      </trkpt>
      <trkpt lat="43.49665" lon="0.12123">
        <ele>152.03</ele>
        <time>2021-08-19T11:18:12Z</time>
      </trkpt>
      <trkpt lat="43.49663" lon="0.1211">
        <ele>152.03</ele>
        <time>2021-08-19T11:18:14Z</time>
      </trkpt>
      <trkpt lat="43.4965" lon="0.12047">
        <ele>152.51</ele>
        <time>2021-08-19T11:18:24Z</time>
      </trkpt>
      <trkpt lat="43.49636" lon="0.11991">
        <ele>152.51</ele>
        <time>2021-08-19T11:18:33Z</time>
      </trkpt>
      <trkpt lat="43.49632" lon="0.11973">
        <ele>152.51</ele>
        <time>2021-08-19T11:18:36Z</time>
      </trkpt>
      <trkpt lat="43.49615" lon="0.11912">
        <ele>152.99</ele>
        <time>2021-08-19T11:18:46Z</time>
      </trkpt>
      <trkpt lat="43.496" lon="0.11863">
        <ele>152.99</ele>
        <time>2021-08-19T11:18:54Z</time>
      </trkpt>
      <trkpt lat="43.49596" lon="0.11851">
        <ele>152.99</ele>
        <time>2021-08-19T11:18:56Z</time>
      </trkpt>
      <trkpt lat="43.49575" lon="0.11811">
        <ele>153.47</ele>
        <time>2021-08-19T11:19:04Z</time>
      </trkpt>
      <trkpt lat="43.49547" lon="0.11771">
        <ele>153.95</ele>
        <time>2021-08-19T11:19:13Z</time>
      </trkpt>
      <trkpt lat="43.4954" lon="0.11762">
        <ele>153.95</ele>
        <time>2021-08-19T11:19:15Z</time>
      </trkpt>
      <trkpt lat="43.49525" lon="0.11747">
        <ele>153.95</ele>
        <time>2021-08-19T11:19:19Z</time>
      </trkpt>
      <trkpt lat="43.49497" lon="0.11723">
        <ele>153.95</ele>
        <time>2021-08-19T11:19:26Z</time>
      </trkpt>
      <trkpt lat="43.49466" lon="0.11683">
        <ele>153.95</ele>
        <time>2021-08-19T11:19:35Z</time>
      </trkpt>
      <trkpt lat="43.49437" lon="0.11635">
        <ele>154.91</ele>
        <time>2021-08-19T11:19:45Z</time>
      </trkpt>
      <trkpt lat="43.49415" lon="0.11587">
        <ele>155.39</ele>
        <time>2021-08-19T11:19:55Z</time>
      </trkpt>
      <trkpt lat="43.49413" lon="0.11582">
        <ele>155.39</ele>
        <time>2021-08-19T11:19:56Z</time>
      </trkpt>
      <trkpt lat="43.4939" lon="0.11531">
        <ele>156.83</ele>
        <time>2021-08-19T11:20:06Z</time>
      </trkpt>
      <trkpt lat="43.49367" lon="0.1148">
        <ele>156.83</ele>
        <time>2021-08-19T11:20:16Z</time>
      </trkpt>
      <trkpt lat="43.49349" lon="0.11428">
        <ele>156.83</ele>
        <time>2021-08-19T11:20:25Z</time>
      </trkpt>
      <trkpt lat="43.49328" lon="0.11366">
        <ele>157.31</ele>
        <time>2021-08-19T11:20:36Z</time>
      </trkpt>
      <trkpt lat="43.49312" lon="0.11322">
        <ele>158.27</ele>
        <time>2021-08-19T11:20:44Z</time>
      </trkpt>
      <trkpt lat="43.49293" lon="0.11274">
        <ele>159.24</ele>
        <time>2021-08-19T11:20:54Z</time>
      </trkpt>
      <trkpt lat="43.49287" lon="0.11261">
        <ele>159.24</ele>
        <time>2021-08-19T11:20:57Z</time>
      </trkpt>
      <trkpt lat="43.49284" lon="0.11259">
        <ele>160.2</ele>
        <time>2021-08-19T11:20:58Z</time>
      </trkpt>
      <trkpt lat="43.4928" lon="0.11257">
        <ele>160.2</ele>
        <time>2021-08-19T11:20:59Z</time>
      </trkpt>
      <trkpt lat="43.49277" lon="0.11256">
        <ele>160.2</ele>
        <time>2021-08-19T11:21:00Z</time>
      </trkpt>
      <trkpt lat="43.49272" lon="0.11256">
        <ele>160.2</ele>
        <time>2021-08-19T11:21:01Z</time>
      </trkpt>
      <trkpt lat="43.49269" lon="0.11256">
        <ele>160.2</ele>
        <time>2021-08-19T11:21:02Z</time>
      </trkpt>
      <trkpt lat="43.49264" lon="0.11257">
        <ele>160.2</ele>
        <time>2021-08-19T11:21:03Z</time>
      </trkpt>
      <trkpt lat="43.4926" lon="0.11258">
        <ele>160.2</ele>
        <time>2021-08-19T11:21:04Z</time>
      </trkpt>
      <trkpt lat="43.49245" lon="0.11262">
        <ele>160.2</ele>
        <time>2021-08-19T11:21:08Z</time>
      </trkpt>
      <trkpt lat="43.49241" lon="0.11261">
        <ele>160.2</ele>
        <time>2021-08-19T11:21:09Z</time>
      </trkpt>
      <trkpt lat="43.49237" lon="0.11259">
        <ele>160.2</ele>
        <time>2021-08-19T11:21:10Z</time>
      </trkpt>
      <trkpt lat="43.49235" lon="0.11254">
        <ele>160.2</ele>
        <time>2021-08-19T11:21:11Z</time>
      </trkpt>
      <trkpt lat="43.49234" lon="0.11249">
        <ele>160.68</ele>
        <time>2021-08-19T11:21:12Z</time>
      </trkpt>
      <trkpt lat="43.49234" lon="0.11244">
        <ele>160.68</ele>
        <time>2021-08-19T11:21:13Z</time>
      </trkpt>
      <trkpt lat="43.49235" lon="0.11239">
        <ele>160.68</ele>
        <time>2021-08-19T11:21:14Z</time>
      </trkpt>
      <trkpt lat="43.49236" lon="0.11234">
        <ele>160.68</ele>
        <time>2021-08-19T11:21:15Z</time>
      </trkpt>
      <trkpt lat="43.49236" lon="0.11229">
        <ele>161.16</ele>
        <time>2021-08-19T11:21:16Z</time>
      </trkpt>
      <trkpt lat="43.49237" lon="0.11224">
        <ele>161.16</ele>
        <time>2021-08-19T11:21:17Z</time>
      </trkpt>
      <trkpt lat="43.49237" lon="0.11219">
        <ele>161.16</ele>
        <time>2021-08-19T11:21:18Z</time>
      </trkpt>
      <trkpt lat="43.49237" lon="0.11213">
        <ele>161.16</ele>
        <time>2021-08-19T11:21:19Z</time>
      </trkpt>
      <trkpt lat="43.49238" lon="0.11208">
        <ele>161.16</ele>
        <time>2021-08-19T11:21:20Z</time>
      </trkpt>
      <trkpt lat="43.49239" lon="0.11203">
        <ele>161.16</ele>
        <time>2021-08-19T11:21:21Z</time>
      </trkpt>
      <trkpt lat="43.49244" lon="0.1116">
        <ele>162.12</ele>
        <time>2021-08-19T11:21:29Z</time>
      </trkpt>
      <trkpt lat="43.49251" lon="0.11113">
        <ele>163.08</ele>
        <time>2021-08-19T11:21:39Z</time>
      </trkpt>
      <trkpt lat="43.49255" lon="0.11083">
        <ele>163.08</ele>
        <time>2021-08-19T11:21:46Z</time>
      </trkpt>
      <trkpt lat="43.4926" lon="0.11054">
        <ele>163.56</ele>
        <time>2021-08-19T11:21:53Z</time>
      </trkpt>
      <trkpt lat="43.49268" lon="0.11022">
        <ele>164.04</ele>
        <time>2021-08-19T11:22:00Z</time>
      </trkpt>
      <trkpt lat="43.49273" lon="0.11002">
        <ele>164.04</ele>
        <time>2021-08-19T11:22:04Z</time>
      </trkpt>
      <trkpt lat="43.49278" lon="0.10946">
        <ele>164.04</ele>
        <time>2021-08-19T11:22:13Z</time>
      </trkpt>
      <trkpt lat="43.4928" lon="0.10887">
        <ele>165</ele>
        <time>2021-08-19T11:22:22Z</time>
      </trkpt>
      <trkpt lat="43.49281" lon="0.1088">
        <ele>165</ele>
        <time>2021-08-19T11:22:23Z</time>
      </trkpt>
      <trkpt lat="43.49284" lon="0.10824">
        <ele>165</ele>
        <time>2021-08-19T11:22:32Z</time>
      </trkpt>
      <trkpt lat="43.49286" lon="0.10763">
        <ele>165</ele>
        <time>2021-08-19T11:22:42Z</time>
      </trkpt>
      <trkpt lat="43.49287" lon="0.1072">
        <ele>166.45</ele>
        <time>2021-08-19T11:22:51Z</time>
      </trkpt>
      <trkpt lat="43.49289" lon="0.10708">
        <ele>166.93</ele>
        <time>2021-08-19T11:22:54Z</time>
      </trkpt>
      <trkpt lat="43.49291" lon="0.10706">
        <ele>167.41</ele>
        <time>2021-08-19T11:22:55Z</time>
      </trkpt>
      <trkpt lat="43.49294" lon="0.10706">
        <ele>167.89</ele>
        <time>2021-08-19T11:22:56Z</time>
      </trkpt>
      <trkpt lat="43.49297" lon="0.10706">
        <ele>167.41</ele>
        <time>2021-08-19T11:22:57Z</time>
      </trkpt>
      <trkpt lat="43.49301" lon="0.10706">
        <ele>167.89</ele>
        <time>2021-08-19T11:22:58Z</time>
      </trkpt>
      <trkpt lat="43.49304" lon="0.10707">
        <ele>167.41</ele>
        <time>2021-08-19T11:22:59Z</time>
      </trkpt>
      <trkpt lat="43.49309" lon="0.10709">
        <ele>167.41</ele>
        <time>2021-08-19T11:23:00Z</time>
      </trkpt>
      <trkpt lat="43.49314" lon="0.10711">
        <ele>167.89</ele>
        <time>2021-08-19T11:23:01Z</time>
      </trkpt>
      <trkpt lat="43.4933" lon="0.10716">
        <ele>165.96</ele>
        <time>2021-08-19T11:23:04Z</time>
      </trkpt>
      <trkpt lat="43.49349" lon="0.1072">
        <ele>165</ele>
        <time>2021-08-19T11:23:07Z</time>
      </trkpt>
      <trkpt lat="43.49356" lon="0.1072">
        <ele>164.52</ele>
        <time>2021-08-19T11:23:08Z</time>
      </trkpt>
      <trkpt lat="43.49362" lon="0.10719">
        <ele>164.52</ele>
        <time>2021-08-19T11:23:09Z</time>
      </trkpt>
      <trkpt lat="43.49369" lon="0.10716">
        <ele>164.52</ele>
        <time>2021-08-19T11:23:10Z</time>
      </trkpt>
      <trkpt lat="43.49374" lon="0.10712">
        <ele>164.04</ele>
        <time>2021-08-19T11:23:11Z</time>
      </trkpt>
      <trkpt lat="43.4938" lon="0.10708">
        <ele>164.04</ele>
        <time>2021-08-19T11:23:12Z</time>
      </trkpt>
      <trkpt lat="43.49423" lon="0.10675">
        <ele>164.04</ele>
        <time>2021-08-19T11:23:20Z</time>
      </trkpt>
      <trkpt lat="43.49432" lon="0.10668">
        <ele>165.48</ele>
        <time>2021-08-19T11:23:22Z</time>
      </trkpt>
      <trkpt lat="43.49438" lon="0.10666">
        <ele>165.48</ele>
        <time>2021-08-19T11:23:23Z</time>
      </trkpt>
      <trkpt lat="43.49483" lon="0.10646">
        <ele>165.96</ele>
        <time>2021-08-19T11:23:32Z</time>
      </trkpt>
      <trkpt lat="43.49511" lon="0.10633">
        <ele>167.89</ele>
        <time>2021-08-19T11:23:39Z</time>
      </trkpt>
      <trkpt lat="43.49544" lon="0.10613">
        <ele>168.85</ele>
        <time>2021-08-19T11:23:49Z</time>
      </trkpt>
      <trkpt lat="43.49568" lon="0.10595">
        <ele>168.85</ele>
        <time>2021-08-19T11:23:56Z</time>
      </trkpt>
      <trkpt lat="43.49572" lon="0.10587">
        <ele>169.33</ele>
        <time>2021-08-19T11:23:58Z</time>
      </trkpt>
      <trkpt lat="43.49571" lon="0.10583">
        <ele>169.33</ele>
        <time>2021-08-19T11:23:59Z</time>
      </trkpt>
      <trkpt lat="43.4957" lon="0.10581">
        <ele>169.33</ele>
        <time>2021-08-19T11:24:00Z</time>
      </trkpt>
      <trkpt lat="43.49569" lon="0.10577">
        <ele>169.33</ele>
        <time>2021-08-19T11:24:01Z</time>
      </trkpt>
      <trkpt lat="43.49567" lon="0.10574">
        <ele>169.33</ele>
        <time>2021-08-19T11:24:02Z</time>
      </trkpt>
      <trkpt lat="43.49566" lon="0.10571">
        <ele>169.33</ele>
        <time>2021-08-19T11:24:03Z</time>
      </trkpt>
      <trkpt lat="43.49564" lon="0.10568">
        <ele>169.33</ele>
        <time>2021-08-19T11:24:04Z</time>
      </trkpt>
      <trkpt lat="43.49562" lon="0.10564">
        <ele>169.33</ele>
        <time>2021-08-19T11:24:05Z</time>
      </trkpt>
      <trkpt lat="43.49549" lon="0.10532">
        <ele>170.29</ele>
        <time>2021-08-19T11:24:14Z</time>
      </trkpt>
      <trkpt lat="43.49545" lon="0.10511">
        <ele>171.73</ele>
        <time>2021-08-19T11:24:22Z</time>
      </trkpt>
      <trkpt lat="43.49544" lon="0.10508">
        <ele>171.73</ele>
        <time>2021-08-19T11:24:23Z</time>
      </trkpt>
      <trkpt lat="43.49543" lon="0.10506">
        <ele>172.21</ele>
        <time>2021-08-19T11:24:24Z</time>
      </trkpt>
      <trkpt lat="43.49542" lon="0.10503">
        <ele>172.21</ele>
        <time>2021-08-19T11:24:25Z</time>
      </trkpt>
      <trkpt lat="43.49542" lon="0.105">
        <ele>172.21</ele>
        <time>2021-08-19T11:24:26Z</time>
      </trkpt>
      <trkpt lat="43.49541" lon="0.10497">
        <ele>172.21</ele>
        <time>2021-08-19T11:24:27Z</time>
      </trkpt>
      <trkpt lat="43.49541" lon="0.10494">
        <ele>172.21</ele>
        <time>2021-08-19T11:24:28Z</time>
      </trkpt>
      <trkpt lat="43.4954" lon="0.10492">
        <ele>172.21</ele>
        <time>2021-08-19T11:24:29Z</time>
      </trkpt>
      <trkpt lat="43.49533" lon="0.10461">
        <ele>173.17</ele>
        <time>2021-08-19T11:24:39Z</time>
      </trkpt>
      <trkpt lat="43.49524" lon="0.10424">
        <ele>174.14</ele>
        <time>2021-08-19T11:24:50Z</time>
      </trkpt>
      <trkpt lat="43.49519" lon="0.10397">
        <ele>174.62</ele>
        <time>2021-08-19T11:24:58Z</time>
      </trkpt>
      <trkpt lat="43.49514" lon="0.10369">
        <ele>176.06</ele>
        <time>2021-08-19T11:25:07Z</time>
      </trkpt>
      <trkpt lat="43.4951" lon="0.10339">
        <ele>177.02</ele>
        <time>2021-08-19T11:25:16Z</time>
      </trkpt>
      <trkpt lat="43.49506" lon="0.10312">
        <ele>178.46</ele>
        <time>2021-08-19T11:25:25Z</time>
      </trkpt>
      <trkpt lat="43.49502" lon="0.10281">
        <ele>179.9</ele>
        <time>2021-08-19T11:25:36Z</time>
      </trkpt>
      <trkpt lat="43.49499" lon="0.10261">
        <ele>181.35</ele>
        <time>2021-08-19T11:25:44Z</time>
      </trkpt>
      <trkpt lat="43.49501" lon="0.10237">
        <ele>182.31</ele>
        <time>2021-08-19T11:25:53Z</time>
      </trkpt>
      <trkpt lat="43.49502" lon="0.10213">
        <ele>183.75</ele>
        <time>2021-08-19T11:26:03Z</time>
      </trkpt>
      <trkpt lat="43.49503" lon="0.10196">
        <ele>185.19</ele>
        <time>2021-08-19T11:26:10Z</time>
      </trkpt>
      <trkpt lat="43.49503" lon="0.10195">
        <ele>186.15</ele>
        <time>2021-08-19T11:26:11Z</time>
      </trkpt>
      <trkpt lat="43.49503" lon="0.10193">
        <ele>186.15</ele>
        <time>2021-08-19T11:26:12Z</time>
      </trkpt>
      <trkpt lat="43.49504" lon="0.10191">
        <ele>186.15</ele>
        <time>2021-08-19T11:26:13Z</time>
      </trkpt>
      <trkpt lat="43.49505" lon="0.1019">
        <ele>186.15</ele>
        <time>2021-08-19T11:26:14Z</time>
      </trkpt>
      <trkpt lat="43.49506" lon="0.10188">
        <ele>186.15</ele>
        <time>2021-08-19T11:26:15Z</time>
      </trkpt>
      <trkpt lat="43.49507" lon="0.10187">
        <ele>186.15</ele>
        <time>2021-08-19T11:26:16Z</time>
      </trkpt>
      <trkpt lat="43.49509" lon="0.10185">
        <ele>186.15</ele>
        <time>2021-08-19T11:26:17Z</time>
      </trkpt>
      <trkpt lat="43.4951" lon="0.10184">
        <ele>186.15</ele>
        <time>2021-08-19T11:26:18Z</time>
      </trkpt>
      <trkpt lat="43.49511" lon="0.10183">
        <ele>187.11</ele>
        <time>2021-08-19T11:26:19Z</time>
      </trkpt>
      <trkpt lat="43.49512" lon="0.10182">
        <ele>187.11</ele>
        <time>2021-08-19T11:26:20Z</time>
      </trkpt>
      <trkpt lat="43.49514" lon="0.10182">
        <ele>187.11</ele>
        <time>2021-08-19T11:26:21Z</time>
      </trkpt>
      <trkpt lat="43.4952" lon="0.10181">
        <ele>187.59</ele>
        <time>2021-08-19T11:26:26Z</time>
      </trkpt>
      <trkpt lat="43.49521" lon="0.10181">
        <ele>187.59</ele>
        <time>2021-08-19T11:26:27Z</time>
      </trkpt>
      <trkpt lat="43.49523" lon="0.1018">
        <ele>187.59</ele>
        <time>2021-08-19T11:26:28Z</time>
      </trkpt>
      <trkpt lat="43.49527" lon="0.10179">
        <ele>188.08</ele>
        <time>2021-08-19T11:26:31Z</time>
      </trkpt>
      <trkpt lat="43.49528" lon="0.10179">
        <ele>188.56</ele>
        <time>2021-08-19T11:26:32Z</time>
      </trkpt>
      <trkpt lat="43.4953" lon="0.10179">
        <ele>188.56</ele>
        <time>2021-08-19T11:26:33Z</time>
      </trkpt>
      <trkpt lat="43.49541" lon="0.10176">
        <ele>189.52</ele>
        <time>2021-08-19T11:26:40Z</time>
      </trkpt>
      <trkpt lat="43.49543" lon="0.10176">
        <ele>190</ele>
        <time>2021-08-19T11:26:41Z</time>
      </trkpt>
      <trkpt lat="43.49545" lon="0.10175">
        <ele>190</ele>
        <time>2021-08-19T11:26:42Z</time>
      </trkpt>
      <trkpt lat="43.49546" lon="0.10175">
        <ele>190</ele>
        <time>2021-08-19T11:26:43Z</time>
      </trkpt>
      <trkpt lat="43.49548" lon="0.10175">
        <ele>190</ele>
        <time>2021-08-19T11:26:44Z</time>
      </trkpt>
      <trkpt lat="43.49563" lon="0.1017">
        <ele>191.44</ele>
        <time>2021-08-19T11:26:53Z</time>
      </trkpt>
      <trkpt lat="43.49572" lon="0.10162">
        <ele>191.92</ele>
        <time>2021-08-19T11:27:00Z</time>
      </trkpt>
      <trkpt lat="43.4958" lon="0.10146">
        <ele>193.84</ele>
        <time>2021-08-19T11:27:10Z</time>
      </trkpt>
      <trkpt lat="43.49582" lon="0.10142">
        <ele>194.32</ele>
        <time>2021-08-19T11:27:12Z</time>
      </trkpt>
      <trkpt lat="43.49585" lon="0.10129">
        <ele>195.77</ele>
        <time>2021-08-19T11:27:19Z</time>
      </trkpt>
      <trkpt lat="43.49586" lon="0.10116">
        <ele>197.21</ele>
        <time>2021-08-19T11:27:27Z</time>
      </trkpt>
      <trkpt lat="43.49587" lon="0.10096">
        <ele>198.17</ele>
        <time>2021-08-19T11:27:37Z</time>
      </trkpt>
      <trkpt lat="43.49588" lon="0.10089">
        <ele>198.65</ele>
        <time>2021-08-19T11:27:40Z</time>
      </trkpt>
      <trkpt lat="43.49588" lon="0.10087">
        <ele>198.65</ele>
        <time>2021-08-19T11:27:41Z</time>
      </trkpt>
      <trkpt lat="43.49589" lon="0.10073">
        <ele>200.09</ele>
        <time>2021-08-19T11:27:48Z</time>
      </trkpt>
      <trkpt lat="43.49589" lon="0.10063">
        <ele>201.05</ele>
        <time>2021-08-19T11:27:55Z</time>
      </trkpt>
      <trkpt lat="43.4959" lon="0.10061">
        <ele>201.53</ele>
        <time>2021-08-19T11:28:04Z</time>
      </trkpt>
      <trkpt lat="43.4959" lon="0.10053">
        <ele>202.01</ele>
        <time>2021-08-19T11:28:21Z</time>
      </trkpt>
      <trkpt lat="43.49591" lon="0.10046">
        <ele>202.98</ele>
        <time>2021-08-19T11:28:28Z</time>
      </trkpt>
      <trkpt lat="43.49593" lon="0.10038">
        <ele>204.42</ele>
        <time>2021-08-19T11:28:37Z</time>
      </trkpt>
      <trkpt lat="43.49595" lon="0.10026">
        <ele>205.86</ele>
        <time>2021-08-19T11:28:46Z</time>
      </trkpt>
      <trkpt lat="43.49597" lon="0.10014">
        <ele>207.3</ele>
        <time>2021-08-19T11:28:56Z</time>
      </trkpt>
      <trkpt lat="43.496" lon="0.10004">
        <ele>208.26</ele>
        <time>2021-08-19T11:29:04Z</time>
      </trkpt>
      <trkpt lat="43.49604" lon="0.09989">
        <ele>210.19</ele>
        <time>2021-08-19T11:29:13Z</time>
      </trkpt>
      <trkpt lat="43.49608" lon="0.09977">
        <ele>211.63</ele>
        <time>2021-08-19T11:29:23Z</time>
      </trkpt>
      <trkpt lat="43.4961" lon="0.09973">
        <ele>212.11</ele>
        <time>2021-08-19T11:29:30Z</time>
      </trkpt>
      <trkpt lat="43.49611" lon="0.09969">
        <ele>212.59</ele>
        <time>2021-08-19T11:29:33Z</time>
      </trkpt>
      <trkpt lat="43.49617" lon="0.09957">
        <ele>213.55</ele>
        <time>2021-08-19T11:29:41Z</time>
      </trkpt>
      <trkpt lat="43.49621" lon="0.09947">
        <ele>214.51</ele>
        <time>2021-08-19T11:29:49Z</time>
      </trkpt>
      <trkpt lat="43.49622" lon="0.09944">
        <ele>214.99</ele>
        <time>2021-08-19T11:29:51Z</time>
      </trkpt>
      <trkpt lat="43.49627" lon="0.09935">
        <ele>215.95</ele>
        <time>2021-08-19T11:30:00Z</time>
      </trkpt>
      <trkpt lat="43.49628" lon="0.09933">
        <ele>215.95</ele>
        <time>2021-08-19T11:30:01Z</time>
      </trkpt>
      <trkpt lat="43.49634" lon="0.09922">
        <ele>217.4</ele>
        <time>2021-08-19T11:30:10Z</time>
      </trkpt>
      <trkpt lat="43.49639" lon="0.09911">
        <ele>219.32</ele>
        <time>2021-08-19T11:30:20Z</time>
      </trkpt>
      <trkpt lat="43.49645" lon="0.099">
        <ele>220.76</ele>
        <time>2021-08-19T11:30:31Z</time>
      </trkpt>
      <trkpt lat="43.49649" lon="0.09891">
        <ele>222.68</ele>
        <time>2021-08-19T11:30:40Z</time>
      </trkpt>
      <trkpt lat="43.49655" lon="0.09878">
        <ele>223.16</ele>
        <time>2021-08-19T11:30:49Z</time>
      </trkpt>
      <trkpt lat="43.49658" lon="0.0987">
        <ele>224.12</ele>
        <time>2021-08-19T11:30:58Z</time>
      </trkpt>
      <trkpt lat="43.49662" lon="0.09854">
        <ele>225.57</ele>
        <time>2021-08-19T11:31:06Z</time>
      </trkpt>
      <trkpt lat="43.49667" lon="0.09838">
        <ele>227.49</ele>
        <time>2021-08-19T11:31:14Z</time>
      </trkpt>
      <trkpt lat="43.49674" lon="0.09811">
        <ele>228.45</ele>
        <time>2021-08-19T11:31:24Z</time>
      </trkpt>
      <trkpt lat="43.49678" lon="0.09791">
        <ele>229.41</ele>
        <time>2021-08-19T11:31:30Z</time>
      </trkpt>
      <trkpt lat="43.4969" lon="0.09768">
        <ele>229.41</ele>
        <time>2021-08-19T11:31:37Z</time>
      </trkpt>
      <trkpt lat="43.49693" lon="0.09763">
        <ele>229.41</ele>
        <time>2021-08-19T11:31:38Z</time>
      </trkpt>
      <trkpt lat="43.49695" lon="0.09756">
        <ele>227.97</ele>
        <time>2021-08-19T11:31:39Z</time>
      </trkpt>
      <trkpt lat="43.49712" lon="0.09695">
        <ele>225.57</ele>
        <time>2021-08-19T11:31:47Z</time>
      </trkpt>
      <trkpt lat="43.49722" lon="0.0965">
        <ele>223.64</ele>
        <time>2021-08-19T11:31:52Z</time>
      </trkpt>
      <trkpt lat="43.49725" lon="0.09642">
        <ele>223.64</ele>
        <time>2021-08-19T11:31:53Z</time>
      </trkpt>
      <trkpt lat="43.49727" lon="0.09634">
        <ele>224.12</ele>
        <time>2021-08-19T11:31:54Z</time>
      </trkpt>
      <trkpt lat="43.4973" lon="0.09626">
        <ele>224.12</ele>
        <time>2021-08-19T11:31:55Z</time>
      </trkpt>
      <trkpt lat="43.49732" lon="0.09618">
        <ele>224.12</ele>
        <time>2021-08-19T11:31:56Z</time>
      </trkpt>
      <trkpt lat="43.49734" lon="0.09611">
        <ele>224.12</ele>
        <time>2021-08-19T11:31:57Z</time>
      </trkpt>
      <trkpt lat="43.49739" lon="0.09597">
        <ele>224.12</ele>
        <time>2021-08-19T11:31:59Z</time>
      </trkpt>
      <trkpt lat="43.49742" lon="0.09592">
        <ele>224.12</ele>
        <time>2021-08-19T11:32:00Z</time>
      </trkpt>
      <trkpt lat="43.49756" lon="0.09555">
        <ele>225.09</ele>
        <time>2021-08-19T11:32:07Z</time>
      </trkpt>
      <trkpt lat="43.49758" lon="0.09549">
        <ele>225.09</ele>
        <time>2021-08-19T11:32:08Z</time>
      </trkpt>
      <trkpt lat="43.49764" lon="0.09516">
        <ele>226.05</ele>
        <time>2021-08-19T11:32:14Z</time>
      </trkpt>
      <trkpt lat="43.49767" lon="0.09482">
        <ele>227.49</ele>
        <time>2021-08-19T11:32:20Z</time>
      </trkpt>
      <trkpt lat="43.49768" lon="0.09463">
        <ele>228.93</ele>
        <time>2021-08-19T11:32:26Z</time>
      </trkpt>
      <trkpt lat="43.4977" lon="0.09443">
        <ele>229.89</ele>
        <time>2021-08-19T11:32:34Z</time>
      </trkpt>
      <trkpt lat="43.49771" lon="0.09423">
        <ele>230.85</ele>
        <time>2021-08-19T11:32:42Z</time>
      </trkpt>
      <trkpt lat="43.49771" lon="0.09402">
        <ele>232.78</ele>
        <time>2021-08-19T11:32:51Z</time>
      </trkpt>
      <trkpt lat="43.49771" lon="0.09388">
        <ele>234.22</ele>
        <time>2021-08-19T11:33:00Z</time>
      </trkpt>
      <trkpt lat="43.4977" lon="0.09383">
        <ele>235.18</ele>
        <time>2021-08-19T11:33:03Z</time>
      </trkpt>
      <trkpt lat="43.49769" lon="0.09379">
        <ele>235.66</ele>
        <time>2021-08-19T11:33:05Z</time>
      </trkpt>
      <trkpt lat="43.49769" lon="0.09378">
        <ele>235.66</ele>
        <time>2021-08-19T11:33:06Z</time>
      </trkpt>
      <trkpt lat="43.49768" lon="0.09377">
        <ele>235.66</ele>
        <time>2021-08-19T11:33:07Z</time>
      </trkpt>
      <trkpt lat="43.49761" lon="0.09366">
        <ele>237.58</ele>
        <time>2021-08-19T11:33:16Z</time>
      </trkpt>
      <trkpt lat="43.49752" lon="0.09356">
        <ele>239.02</ele>
        <time>2021-08-19T11:33:24Z</time>
      </trkpt>
      <trkpt lat="43.49741" lon="0.09339">
        <ele>240.95</ele>
        <time>2021-08-19T11:33:33Z</time>
      </trkpt>
      <trkpt lat="43.49728" lon="0.09322">
        <ele>241.91</ele>
        <time>2021-08-19T11:33:41Z</time>
      </trkpt>
      <trkpt lat="43.49704" lon="0.09314">
        <ele>241.91</ele>
        <time>2021-08-19T11:33:49Z</time>
      </trkpt>
      <trkpt lat="43.4969" lon="0.09302">
        <ele>242.87</ele>
        <time>2021-08-19T11:33:56Z</time>
      </trkpt>
      <trkpt lat="43.49684" lon="0.09278">
        <ele>242.87</ele>
        <time>2021-08-19T11:34:01Z</time>
      </trkpt>
      <trkpt lat="43.49679" lon="0.09229">
        <ele>239.99</ele>
        <time>2021-08-19T11:34:08Z</time>
      </trkpt>
      <trkpt lat="43.49672" lon="0.09167">
        <ele>237.58</ele>
        <time>2021-08-19T11:34:15Z</time>
      </trkpt>
      <trkpt lat="43.49669" lon="0.0916">
        <ele>236.62</ele>
        <time>2021-08-19T11:34:16Z</time>
      </trkpt>
      <trkpt lat="43.49665" lon="0.09155">
        <ele>236.62</ele>
        <time>2021-08-19T11:34:17Z</time>
      </trkpt>
      <trkpt lat="43.49659" lon="0.09151">
        <ele>236.62</ele>
        <time>2021-08-19T11:34:18Z</time>
      </trkpt>
      <trkpt lat="43.49654" lon="0.09149">
        <ele>236.14</ele>
        <time>2021-08-19T11:34:19Z</time>
      </trkpt>
      <trkpt lat="43.49616" lon="0.09134">
        <ele>236.14</ele>
        <time>2021-08-19T11:34:26Z</time>
      </trkpt>
      <trkpt lat="43.49583" lon="0.09121">
        <ele>236.14</ele>
        <time>2021-08-19T11:34:34Z</time>
      </trkpt>
      <trkpt lat="43.49549" lon="0.09107">
        <ele>237.1</ele>
        <time>2021-08-19T11:34:43Z</time>
      </trkpt>
      <trkpt lat="43.49516" lon="0.09094">
        <ele>238.06</ele>
        <time>2021-08-19T11:34:52Z</time>
      </trkpt>
      <trkpt lat="43.49475" lon="0.09076">
        <ele>238.54</ele>
        <time>2021-08-19T11:35:02Z</time>
      </trkpt>
      <trkpt lat="43.49453" lon="0.09068">
        <ele>239.99</ele>
        <time>2021-08-19T11:35:09Z</time>
      </trkpt>
      <trkpt lat="43.49437" lon="0.09062">
        <ele>241.43</ele>
        <time>2021-08-19T11:35:17Z</time>
      </trkpt>
      <trkpt lat="43.4942" lon="0.09051">
        <ele>242.39</ele>
        <time>2021-08-19T11:35:26Z</time>
      </trkpt>
      <trkpt lat="43.49411" lon="0.0903">
        <ele>243.83</ele>
        <time>2021-08-19T11:35:33Z</time>
      </trkpt>
      <trkpt lat="43.49407" lon="0.08993">
        <ele>245.27</ele>
        <time>2021-08-19T11:35:44Z</time>
      </trkpt>
      <trkpt lat="43.49405" lon="0.08971">
        <ele>247.2</ele>
        <time>2021-08-19T11:35:53Z</time>
      </trkpt>
      <trkpt lat="43.49404" lon="0.08944">
        <ele>250.08</ele>
        <time>2021-08-19T11:36:03Z</time>
      </trkpt>
      <trkpt lat="43.49409" lon="0.0892">
        <ele>252.48</ele>
        <time>2021-08-19T11:36:12Z</time>
      </trkpt>
      <trkpt lat="43.49417" lon="0.08903">
        <ele>254.41</ele>
        <time>2021-08-19T11:36:19Z</time>
      </trkpt>
      <trkpt lat="43.49422" lon="0.08883">
        <ele>255.85</ele>
        <time>2021-08-19T11:36:27Z</time>
      </trkpt>
      <trkpt lat="43.49422" lon="0.08861">
        <ele>256.33</ele>
        <time>2021-08-19T11:36:35Z</time>
      </trkpt>
      <trkpt lat="43.4943" lon="0.0884">
        <ele>256.81</ele>
        <time>2021-08-19T11:36:41Z</time>
      </trkpt>
      <trkpt lat="43.49447" lon="0.08822">
        <ele>257.77</ele>
        <time>2021-08-19T11:36:48Z</time>
      </trkpt>
      <trkpt lat="43.49464" lon="0.08816">
        <ele>258.25</ele>
        <time>2021-08-19T11:36:54Z</time>
      </trkpt>
      <trkpt lat="43.49472" lon="0.08813">
        <ele>258.73</ele>
        <time>2021-08-19T11:36:57Z</time>
      </trkpt>
      <trkpt lat="43.49473" lon="0.08811">
        <ele>258.73</ele>
        <time>2021-08-19T11:36:58Z</time>
      </trkpt>
      <trkpt lat="43.49472" lon="0.08809">
        <ele>258.73</ele>
        <time>2021-08-19T11:36:59Z</time>
      </trkpt>
      <trkpt lat="43.49471" lon="0.0881">
        <ele>258.73</ele>
        <time>2021-08-19T11:37:00Z</time>
      </trkpt>
      <trkpt lat="43.49469" lon="0.08812">
        <ele>258.73</ele>
        <time>2021-08-19T11:37:01Z</time>
      </trkpt>
      <trkpt lat="43.49467" lon="0.08814">
        <ele>258.73</ele>
        <time>2021-08-19T11:37:02Z</time>
      </trkpt>
      <trkpt lat="43.49466" lon="0.08818">
        <ele>258.73</ele>
        <time>2021-08-19T11:37:03Z</time>
      </trkpt>
      <trkpt lat="43.49466" lon="0.08824">
        <ele>258.73</ele>
        <time>2021-08-19T11:37:04Z</time>
      </trkpt>
      <trkpt lat="43.49466" lon="0.08828">
        <ele>258.73</ele>
        <time>2021-08-19T11:37:05Z</time>
      </trkpt>
      <trkpt lat="43.49468" lon="0.08832">
        <ele>258.73</ele>
        <time>2021-08-19T11:37:06Z</time>
      </trkpt>
      <trkpt lat="43.4947" lon="0.08836">
        <ele>258.73</ele>
        <time>2021-08-19T11:37:07Z</time>
      </trkpt>
      <trkpt lat="43.49473" lon="0.0884">
        <ele>257.29</ele>
        <time>2021-08-19T11:37:08Z</time>
      </trkpt>
      <trkpt lat="43.49476" lon="0.08843">
        <ele>257.29</ele>
        <time>2021-08-19T11:37:09Z</time>
      </trkpt>
      <trkpt lat="43.4948" lon="0.08846">
        <ele>256.81</ele>
        <time>2021-08-19T11:37:10Z</time>
      </trkpt>
      <trkpt lat="43.49485" lon="0.08848">
        <ele>256.81</ele>
        <time>2021-08-19T11:37:11Z</time>
      </trkpt>
      <trkpt lat="43.49489" lon="0.0885">
        <ele>256.33</ele>
        <time>2021-08-19T11:37:12Z</time>
      </trkpt>
      <trkpt lat="43.49494" lon="0.08851">
        <ele>256.33</ele>
        <time>2021-08-19T11:37:13Z</time>
      </trkpt>
      <trkpt lat="43.49499" lon="0.0885">
        <ele>256.33</ele>
        <time>2021-08-19T11:37:14Z</time>
      </trkpt>
      <trkpt lat="43.49504" lon="0.08849">
        <ele>256.33</ele>
        <time>2021-08-19T11:37:15Z</time>
      </trkpt>
      <trkpt lat="43.49538" lon="0.08834">
        <ele>255.37</ele>
        <time>2021-08-19T11:37:22Z</time>
      </trkpt>
      <trkpt lat="43.49587" lon="0.08809">
        <ele>254.89</ele>
        <time>2021-08-19T11:37:31Z</time>
      </trkpt>
      <trkpt lat="43.49626" lon="0.08776">
        <ele>254.89</ele>
        <time>2021-08-19T11:37:39Z</time>
      </trkpt>
      <trkpt lat="43.49641" lon="0.08756">
        <ele>256.33</ele>
        <time>2021-08-19T11:37:43Z</time>
      </trkpt>
      <trkpt lat="43.49651" lon="0.08741">
        <ele>256.81</ele>
        <time>2021-08-19T11:37:46Z</time>
      </trkpt>
      <trkpt lat="43.49654" lon="0.08736">
        <ele>256.81</ele>
        <time>2021-08-19T11:37:47Z</time>
      </trkpt>
      <trkpt lat="43.49669" lon="0.08713">
        <ele>258.25</ele>
        <time>2021-08-19T11:37:52Z</time>
      </trkpt>
      <trkpt lat="43.49692" lon="0.08674">
        <ele>259.21</ele>
        <time>2021-08-19T11:38:00Z</time>
      </trkpt>
      <trkpt lat="43.49706" lon="0.08648">
        <ele>257.77</ele>
        <time>2021-08-19T11:38:04Z</time>
      </trkpt>
      <trkpt lat="43.4973" lon="0.08598">
        <ele>254.89</ele>
        <time>2021-08-19T11:38:10Z</time>
      </trkpt>
      <trkpt lat="43.49757" lon="0.08533">
        <ele>251.52</ele>
        <time>2021-08-19T11:38:17Z</time>
      </trkpt>
      <trkpt lat="43.49763" lon="0.08525">
        <ele>251.04</ele>
        <time>2021-08-19T11:38:18Z</time>
      </trkpt>
      <trkpt lat="43.49791" lon="0.0849">
        <ele>248.16</ele>
        <time>2021-08-19T11:38:22Z</time>
      </trkpt>
      <trkpt lat="43.49807" lon="0.08476">
        <ele>247.2</ele>
        <time>2021-08-19T11:38:24Z</time>
      </trkpt>
      <trkpt lat="43.49856" lon="0.08438">
        <ele>247.68</ele>
        <time>2021-08-19T11:38:31Z</time>
      </trkpt>
      <trkpt lat="43.49868" lon="0.0843">
        <ele>248.64</ele>
        <time>2021-08-19T11:38:33Z</time>
      </trkpt>
      <trkpt lat="43.49891" lon="0.0842">
        <ele>249.6</ele>
        <time>2021-08-19T11:38:37Z</time>
      </trkpt>
      <trkpt lat="43.49896" lon="0.08417">
        <ele>250.08</ele>
        <time>2021-08-19T11:38:38Z</time>
      </trkpt>
      <trkpt lat="43.499" lon="0.08412">
        <ele>250.08</ele>
        <time>2021-08-19T11:38:39Z</time>
      </trkpt>
      <trkpt lat="43.49904" lon="0.08409">
        <ele>250.56</ele>
        <time>2021-08-19T11:38:40Z</time>
      </trkpt>
      <trkpt lat="43.49907" lon="0.08404">
        <ele>250.56</ele>
        <time>2021-08-19T11:38:41Z</time>
      </trkpt>
      <trkpt lat="43.49912" lon="0.08393">
        <ele>250.56</ele>
        <time>2021-08-19T11:38:43Z</time>
      </trkpt>
      <trkpt lat="43.49914" lon="0.08387">
        <ele>250.56</ele>
        <time>2021-08-19T11:38:44Z</time>
      </trkpt>
      <trkpt lat="43.49914" lon="0.08381">
        <ele>250.56</ele>
        <time>2021-08-19T11:38:45Z</time>
      </trkpt>
      <trkpt lat="43.49916" lon="0.08331">
        <ele>249.12</ele>
        <time>2021-08-19T11:38:52Z</time>
      </trkpt>
      <trkpt lat="43.49917" lon="0.08286">
        <ele>245.75</ele>
        <time>2021-08-19T11:38:57Z</time>
      </trkpt>
      <trkpt lat="43.49917" lon="0.08276">
        <ele>245.27</ele>
        <time>2021-08-19T11:38:58Z</time>
      </trkpt>
      <trkpt lat="43.49918" lon="0.08267">
        <ele>244.31</ele>
        <time>2021-08-19T11:38:59Z</time>
      </trkpt>
      <trkpt lat="43.4992" lon="0.08257">
        <ele>243.35</ele>
        <time>2021-08-19T11:39:00Z</time>
      </trkpt>
      <trkpt lat="43.49923" lon="0.08247">
        <ele>242.39</ele>
        <time>2021-08-19T11:39:01Z</time>
      </trkpt>
      <trkpt lat="43.49925" lon="0.08236">
        <ele>240.95</ele>
        <time>2021-08-19T11:39:02Z</time>
      </trkpt>
      <trkpt lat="43.49928" lon="0.08225">
        <ele>239.51</ele>
        <time>2021-08-19T11:39:03Z</time>
      </trkpt>
      <trkpt lat="43.49936" lon="0.08188">
        <ele>235.66</ele>
        <time>2021-08-19T11:39:06Z</time>
      </trkpt>
      <trkpt lat="43.49941" lon="0.08136">
        <ele>232.78</ele>
        <time>2021-08-19T11:39:11Z</time>
      </trkpt>
      <trkpt lat="43.49943" lon="0.08128">
        <ele>232.78</ele>
        <time>2021-08-19T11:39:12Z</time>
      </trkpt>
      <trkpt lat="43.49947" lon="0.08119">
        <ele>231.33</ele>
        <time>2021-08-19T11:39:13Z</time>
      </trkpt>
      <trkpt lat="43.49951" lon="0.08111">
        <ele>230.85</ele>
        <time>2021-08-19T11:39:14Z</time>
      </trkpt>
      <trkpt lat="43.49956" lon="0.08103">
        <ele>229.89</ele>
        <time>2021-08-19T11:39:15Z</time>
      </trkpt>
      <trkpt lat="43.49962" lon="0.08095">
        <ele>229.89</ele>
        <time>2021-08-19T11:39:16Z</time>
      </trkpt>
      <trkpt lat="43.49981" lon="0.08074">
        <ele>226.53</ele>
        <time>2021-08-19T11:39:19Z</time>
      </trkpt>
      <trkpt lat="43.50003" lon="0.08053">
        <ele>225.09</ele>
        <time>2021-08-19T11:39:22Z</time>
      </trkpt>
      <trkpt lat="43.50023" lon="0.08028">
        <ele>221.72</ele>
        <time>2021-08-19T11:39:25Z</time>
      </trkpt>
      <trkpt lat="43.50045" lon="0.07992">
        <ele>218.84</ele>
        <time>2021-08-19T11:39:29Z</time>
      </trkpt>
      <trkpt lat="43.50054" lon="0.07977">
        <ele>216.91</ele>
        <time>2021-08-19T11:39:31Z</time>
      </trkpt>
      <trkpt lat="43.50069" lon="0.07952">
        <ele>213.55</ele>
        <time>2021-08-19T11:39:35Z</time>
      </trkpt>
      <trkpt lat="43.50072" lon="0.07945">
        <ele>212.59</ele>
        <time>2021-08-19T11:39:36Z</time>
      </trkpt>
      <trkpt lat="43.50075" lon="0.07938">
        <ele>211.63</ele>
        <time>2021-08-19T11:39:37Z</time>
      </trkpt>
      <trkpt lat="43.50077" lon="0.07931">
        <ele>210.67</ele>
        <time>2021-08-19T11:39:38Z</time>
      </trkpt>
      <trkpt lat="43.50079" lon="0.07923">
        <ele>209.7</ele>
        <time>2021-08-19T11:39:39Z</time>
      </trkpt>
      <trkpt lat="43.50081" lon="0.07913">
        <ele>208.74</ele>
        <time>2021-08-19T11:39:40Z</time>
      </trkpt>
      <trkpt lat="43.50086" lon="0.07883">
        <ele>205.38</ele>
        <time>2021-08-19T11:39:43Z</time>
      </trkpt>
      <trkpt lat="43.50093" lon="0.07841">
        <ele>201.05</ele>
        <time>2021-08-19T11:39:47Z</time>
      </trkpt>
      <trkpt lat="43.50098" lon="0.07815">
        <ele>198.65</ele>
        <time>2021-08-19T11:39:50Z</time>
      </trkpt>
      <trkpt lat="43.501" lon="0.07808">
        <ele>197.69</ele>
        <time>2021-08-19T11:39:51Z</time>
      </trkpt>
      <trkpt lat="43.50104" lon="0.078">
        <ele>196.73</ele>
        <time>2021-08-19T11:39:52Z</time>
      </trkpt>
      <trkpt lat="43.50109" lon="0.07794">
        <ele>195.77</ele>
        <time>2021-08-19T11:39:53Z</time>
      </trkpt>
      <trkpt lat="43.50113" lon="0.0779">
        <ele>195.28</ele>
        <time>2021-08-19T11:39:54Z</time>
      </trkpt>
      <trkpt lat="43.50118" lon="0.07786">
        <ele>194.8</ele>
        <time>2021-08-19T11:39:55Z</time>
      </trkpt>
      <trkpt lat="43.50124" lon="0.07782">
        <ele>193.84</ele>
        <time>2021-08-19T11:39:56Z</time>
      </trkpt>
      <trkpt lat="43.50129" lon="0.0778">
        <ele>193.84</ele>
        <time>2021-08-19T11:39:57Z</time>
      </trkpt>
      <trkpt lat="43.50134" lon="0.07776">
        <ele>193.36</ele>
        <time>2021-08-19T11:39:58Z</time>
      </trkpt>
      <trkpt lat="43.50138" lon="0.07772">
        <ele>192.88</ele>
        <time>2021-08-19T11:39:59Z</time>
      </trkpt>
      <trkpt lat="43.50141" lon="0.07765">
        <ele>191.92</ele>
        <time>2021-08-19T11:40:00Z</time>
      </trkpt>
      <trkpt lat="43.50142" lon="0.07759">
        <ele>191.44</ele>
        <time>2021-08-19T11:40:01Z</time>
      </trkpt>
      <trkpt lat="43.50141" lon="0.07752">
        <ele>190.96</ele>
        <time>2021-08-19T11:40:02Z</time>
      </trkpt>
      <trkpt lat="43.5014" lon="0.07745">
        <ele>190</ele>
        <time>2021-08-19T11:40:03Z</time>
      </trkpt>
      <trkpt lat="43.50138" lon="0.07737">
        <ele>189.52</ele>
        <time>2021-08-19T11:40:04Z</time>
      </trkpt>
      <trkpt lat="43.50129" lon="0.07701">
        <ele>185.67</ele>
        <time>2021-08-19T11:40:08Z</time>
      </trkpt>
      <trkpt lat="43.50127" lon="0.0769">
        <ele>185.19</ele>
        <time>2021-08-19T11:40:09Z</time>
      </trkpt>
      <trkpt lat="43.50126" lon="0.0768">
        <ele>184.71</ele>
        <time>2021-08-19T11:40:10Z</time>
      </trkpt>
      <trkpt lat="43.50124" lon="0.07657">
        <ele>184.23</ele>
        <time>2021-08-19T11:40:12Z</time>
      </trkpt>
      <trkpt lat="43.50121" lon="0.07639">
        <ele>184.23</ele>
        <time>2021-08-19T11:40:14Z</time>
      </trkpt>
      <trkpt lat="43.50118" lon="0.07632">
        <ele>183.75</ele>
        <time>2021-08-19T11:40:15Z</time>
      </trkpt>
      <trkpt lat="43.50114" lon="0.07628">
        <ele>183.27</ele>
        <time>2021-08-19T11:40:16Z</time>
      </trkpt>
      <trkpt lat="43.50108" lon="0.07627">
        <ele>182.79</ele>
        <time>2021-08-19T11:40:17Z</time>
      </trkpt>
      <trkpt lat="43.50102" lon="0.07628">
        <ele>182.79</ele>
        <time>2021-08-19T11:40:18Z</time>
      </trkpt>
      <trkpt lat="43.50097" lon="0.07627">
        <ele>182.79</ele>
        <time>2021-08-19T11:40:19Z</time>
      </trkpt>
      <trkpt lat="43.50092" lon="0.07626">
        <ele>182.31</ele>
        <time>2021-08-19T11:40:20Z</time>
      </trkpt>
      <trkpt lat="43.50087" lon="0.07622">
        <ele>181.83</ele>
        <time>2021-08-19T11:40:21Z</time>
      </trkpt>
      <trkpt lat="43.50083" lon="0.07618">
        <ele>181.83</ele>
        <time>2021-08-19T11:40:22Z</time>
      </trkpt>
      <trkpt lat="43.5008" lon="0.07612">
        <ele>181.83</ele>
        <time>2021-08-19T11:40:23Z</time>
      </trkpt>
      <trkpt lat="43.50078" lon="0.07606">
        <ele>181.35</ele>
        <time>2021-08-19T11:40:24Z</time>
      </trkpt>
      <trkpt lat="43.50076" lon="0.07599">
        <ele>181.35</ele>
        <time>2021-08-19T11:40:25Z</time>
      </trkpt>
      <trkpt lat="43.50075" lon="0.07592">
        <ele>181.35</ele>
        <time>2021-08-19T11:40:26Z</time>
      </trkpt>
      <trkpt lat="43.50074" lon="0.07585">
        <ele>181.35</ele>
        <time>2021-08-19T11:40:27Z</time>
      </trkpt>
      <trkpt lat="43.50073" lon="0.07578">
        <ele>180.38</ele>
        <time>2021-08-19T11:40:28Z</time>
      </trkpt>
      <trkpt lat="43.50072" lon="0.07571">
        <ele>180.38</ele>
        <time>2021-08-19T11:40:29Z</time>
      </trkpt>
      <trkpt lat="43.5007" lon="0.07565">
        <ele>180.38</ele>
        <time>2021-08-19T11:40:30Z</time>
      </trkpt>
      <trkpt lat="43.50067" lon="0.07558">
        <ele>179.9</ele>
        <time>2021-08-19T11:40:31Z</time>
      </trkpt>
      <trkpt lat="43.50064" lon="0.07551">
        <ele>179.9</ele>
        <time>2021-08-19T11:40:32Z</time>
      </trkpt>
      <trkpt lat="43.50059" lon="0.07539">
        <ele>179.9</ele>
        <time>2021-08-19T11:40:34Z</time>
      </trkpt>
      <trkpt lat="43.50057" lon="0.07534">
        <ele>179.9</ele>
        <time>2021-08-19T11:40:35Z</time>
      </trkpt>
      <trkpt lat="43.50056" lon="0.07529">
        <ele>179.9</ele>
        <time>2021-08-19T11:40:36Z</time>
      </trkpt>
      <trkpt lat="43.50057" lon="0.07524">
        <ele>179.9</ele>
        <time>2021-08-19T11:40:37Z</time>
      </trkpt>
      <trkpt lat="43.50059" lon="0.07519">
        <ele>179.9</ele>
        <time>2021-08-19T11:40:38Z</time>
      </trkpt>
      <trkpt lat="43.50061" lon="0.07515">
        <ele>179.42</ele>
        <time>2021-08-19T11:40:39Z</time>
      </trkpt>
      <trkpt lat="43.50064" lon="0.0751">
        <ele>179.42</ele>
        <time>2021-08-19T11:40:40Z</time>
      </trkpt>
      <trkpt lat="43.50071" lon="0.07495">
        <ele>179.42</ele>
        <time>2021-08-19T11:40:43Z</time>
      </trkpt>
      <trkpt lat="43.50074" lon="0.0749">
        <ele>179.42</ele>
        <time>2021-08-19T11:40:44Z</time>
      </trkpt>
      <trkpt lat="43.5008" lon="0.0748">
        <ele>179.42</ele>
        <time>2021-08-19T11:40:46Z</time>
      </trkpt>
      <trkpt lat="43.50089" lon="0.07465">
        <ele>179.42</ele>
        <time>2021-08-19T11:40:51Z</time>
      </trkpt>
      <trkpt lat="43.50088" lon="0.07461">
        <ele>179.42</ele>
        <time>2021-08-19T11:40:52Z</time>
      </trkpt>
      <trkpt lat="43.50084" lon="0.07454">
        <ele>179.42</ele>
        <time>2021-08-19T11:40:54Z</time>
      </trkpt>
      <trkpt lat="43.50081" lon="0.0745">
        <ele>179.42</ele>
        <time>2021-08-19T11:40:55Z</time>
      </trkpt>
      <trkpt lat="43.50061" lon="0.07428">
        <ele>178.46</ele>
        <time>2021-08-19T11:41:00Z</time>
      </trkpt>
      <trkpt lat="43.5006" lon="0.07421">
        <ele>177.98</ele>
        <time>2021-08-19T11:41:01Z</time>
      </trkpt>
      <trkpt lat="43.50063" lon="0.07415">
        <ele>177.5</ele>
        <time>2021-08-19T11:41:02Z</time>
      </trkpt>
      <trkpt lat="43.50066" lon="0.07411">
        <ele>177.5</ele>
        <time>2021-08-19T11:41:03Z</time>
      </trkpt>
      <trkpt lat="43.50071" lon="0.07407">
        <ele>177.5</ele>
        <time>2021-08-19T11:41:04Z</time>
      </trkpt>
      <trkpt lat="43.50094" lon="0.07386">
        <ele>176.54</ele>
        <time>2021-08-19T11:41:09Z</time>
      </trkpt>
      <trkpt lat="43.50142" lon="0.07337">
        <ele>176.06</ele>
        <time>2021-08-19T11:41:19Z</time>
      </trkpt>
      <trkpt lat="43.50197" lon="0.07281">
        <ele>175.58</ele>
        <time>2021-08-19T11:41:30Z</time>
      </trkpt>
      <trkpt lat="43.50225" lon="0.07253">
        <ele>175.58</ele>
        <time>2021-08-19T11:41:36Z</time>
      </trkpt>
      <trkpt lat="43.50228" lon="0.07247">
        <ele>175.58</ele>
        <time>2021-08-19T11:41:37Z</time>
      </trkpt>
      <trkpt lat="43.50228" lon="0.0724">
        <ele>175.58</ele>
        <time>2021-08-19T11:41:38Z</time>
      </trkpt>
      <trkpt lat="43.50227" lon="0.07233">
        <ele>175.1</ele>
        <time>2021-08-19T11:41:39Z</time>
      </trkpt>
      <trkpt lat="43.50225" lon="0.07224">
        <ele>175.1</ele>
        <time>2021-08-19T11:41:40Z</time>
      </trkpt>
      <trkpt lat="43.50223" lon="0.07216">
        <ele>174.62</ele>
        <time>2021-08-19T11:41:41Z</time>
      </trkpt>
      <trkpt lat="43.50199" lon="0.07136">
        <ele>173.66</ele>
        <time>2021-08-19T11:41:50Z</time>
      </trkpt>
      <trkpt lat="43.5018" lon="0.07073">
        <ele>172.69</ele>
        <time>2021-08-19T11:41:57Z</time>
      </trkpt>
      <trkpt lat="43.50146" lon="0.06962">
        <ele>172.21</ele>
        <time>2021-08-19T11:42:09Z</time>
      </trkpt>
      <trkpt lat="43.50136" lon="0.06926">
        <ele>172.21</ele>
        <time>2021-08-19T11:42:13Z</time>
      </trkpt>
      <trkpt lat="43.50135" lon="0.06917">
        <ele>172.21</ele>
        <time>2021-08-19T11:42:14Z</time>
      </trkpt>
      <trkpt lat="43.50132" lon="0.06851">
        <ele>171.73</ele>
        <time>2021-08-19T11:42:21Z</time>
      </trkpt>
      <trkpt lat="43.5013" lon="0.06833">
        <ele>171.73</ele>
        <time>2021-08-19T11:42:23Z</time>
      </trkpt>
      <trkpt lat="43.50128" lon="0.06823">
        <ele>171.73</ele>
        <time>2021-08-19T11:42:24Z</time>
      </trkpt>
      <trkpt lat="43.50107" lon="0.06774">
        <ele>171.25</ele>
        <time>2021-08-19T11:42:30Z</time>
      </trkpt>
      <trkpt lat="43.50103" lon="0.06767">
        <ele>171.25</ele>
        <time>2021-08-19T11:42:31Z</time>
      </trkpt>
      <trkpt lat="43.50099" lon="0.06761">
        <ele>171.25</ele>
        <time>2021-08-19T11:42:32Z</time>
      </trkpt>
      <trkpt lat="43.50095" lon="0.06755">
        <ele>171.25</ele>
        <time>2021-08-19T11:42:33Z</time>
      </trkpt>
      <trkpt lat="43.50089" lon="0.0675">
        <ele>171.25</ele>
        <time>2021-08-19T11:42:34Z</time>
      </trkpt>
      <trkpt lat="43.50083" lon="0.06746">
        <ele>171.25</ele>
        <time>2021-08-19T11:42:35Z</time>
      </trkpt>
      <trkpt lat="43.50077" lon="0.06741">
        <ele>171.25</ele>
        <time>2021-08-19T11:42:36Z</time>
      </trkpt>
      <trkpt lat="43.50065" lon="0.06731">
        <ele>171.25</ele>
        <time>2021-08-19T11:42:38Z</time>
      </trkpt>
      <trkpt lat="43.50061" lon="0.06726">
        <ele>171.25</ele>
        <time>2021-08-19T11:42:39Z</time>
      </trkpt>
      <trkpt lat="43.50056" lon="0.06718">
        <ele>171.25</ele>
        <time>2021-08-19T11:42:40Z</time>
      </trkpt>
      <trkpt lat="43.50052" lon="0.06712">
        <ele>171.25</ele>
        <time>2021-08-19T11:42:41Z</time>
      </trkpt>
      <trkpt lat="43.50048" lon="0.06705">
        <ele>171.25</ele>
        <time>2021-08-19T11:42:42Z</time>
      </trkpt>
      <trkpt lat="43.50009" lon="0.06631">
        <ele>171.25</ele>
        <time>2021-08-19T11:42:52Z</time>
      </trkpt>
      <trkpt lat="43.49977" lon="0.0657">
        <ele>171.25</ele>
        <time>2021-08-19T11:43:01Z</time>
      </trkpt>
      <trkpt lat="43.49974" lon="0.06561">
        <ele>171.25</ele>
        <time>2021-08-19T11:43:02Z</time>
      </trkpt>
      <trkpt lat="43.49957" lon="0.06495">
        <ele>171.25</ele>
        <time>2021-08-19T11:43:10Z</time>
      </trkpt>
      <trkpt lat="43.49941" lon="0.06406">
        <ele>171.25</ele>
        <time>2021-08-19T11:43:21Z</time>
      </trkpt>
      <trkpt lat="43.4993" lon="0.06315">
        <ele>171.25</ele>
        <time>2021-08-19T11:43:32Z</time>
      </trkpt>
      <trkpt lat="43.49914" lon="0.06247">
        <ele>171.25</ele>
        <time>2021-08-19T11:43:41Z</time>
      </trkpt>
      <trkpt lat="43.49912" lon="0.0624">
        <ele>171.25</ele>
        <time>2021-08-19T11:43:42Z</time>
      </trkpt>
      <trkpt lat="43.49887" lon="0.06174">
        <ele>171.25</ele>
        <time>2021-08-19T11:43:51Z</time>
      </trkpt>
      <trkpt lat="43.49853" lon="0.06102">
        <ele>171.25</ele>
        <time>2021-08-19T11:44:01Z</time>
      </trkpt>
      <trkpt lat="43.49822" lon="0.06033">
        <ele>170.29</ele>
        <time>2021-08-19T11:44:10Z</time>
      </trkpt>
      <trkpt lat="43.49804" lon="0.05994">
        <ele>170.29</ele>
        <time>2021-08-19T11:44:16Z</time>
      </trkpt>
      <trkpt lat="43.49798" lon="0.05983">
        <ele>170.29</ele>
        <time>2021-08-19T11:44:18Z</time>
      </trkpt>
      <trkpt lat="43.49797" lon="0.05977">
        <ele>170.29</ele>
        <time>2021-08-19T11:44:19Z</time>
      </trkpt>
      <trkpt lat="43.49797" lon="0.05971">
        <ele>170.29</ele>
        <time>2021-08-19T11:44:20Z</time>
      </trkpt>
      <trkpt lat="43.49798" lon="0.05965">
        <ele>170.29</ele>
        <time>2021-08-19T11:44:21Z</time>
      </trkpt>
      <trkpt lat="43.49801" lon="0.05959">
        <ele>170.29</ele>
        <time>2021-08-19T11:44:22Z</time>
      </trkpt>
      <trkpt lat="43.49803" lon="0.05954">
        <ele>170.29</ele>
        <time>2021-08-19T11:44:23Z</time>
      </trkpt>
      <trkpt lat="43.49833" lon="0.059">
        <ele>170.29</ele>
        <time>2021-08-19T11:44:32Z</time>
      </trkpt>
      <trkpt lat="43.49861" lon="0.05857">
        <ele>170.29</ele>
        <time>2021-08-19T11:44:39Z</time>
      </trkpt>
      <trkpt lat="43.49899" lon="0.05809">
        <ele>170.29</ele>
        <time>2021-08-19T11:44:48Z</time>
      </trkpt>
      <trkpt lat="43.49934" lon="0.05759">
        <ele>169.81</ele>
        <time>2021-08-19T11:44:56Z</time>
      </trkpt>
      <trkpt lat="43.4997" lon="0.05697">
        <ele>169.33</ele>
        <time>2021-08-19T11:45:05Z</time>
      </trkpt>
      <trkpt lat="43.49984" lon="0.0567">
        <ele>169.33</ele>
        <time>2021-08-19T11:45:09Z</time>
      </trkpt>
      <trkpt lat="43.49986" lon="0.05663">
        <ele>169.33</ele>
        <time>2021-08-19T11:45:10Z</time>
      </trkpt>
      <trkpt lat="43.49991" lon="0.0565">
        <ele>169.33</ele>
        <time>2021-08-19T11:45:12Z</time>
      </trkpt>
      <trkpt lat="43.49994" lon="0.05643">
        <ele>169.33</ele>
        <time>2021-08-19T11:45:13Z</time>
      </trkpt>
      <trkpt lat="43.49997" lon="0.05637">
        <ele>169.33</ele>
        <time>2021-08-19T11:45:14Z</time>
      </trkpt>
      <trkpt lat="43.5001" lon="0.05621">
        <ele>169.33</ele>
        <time>2021-08-19T11:45:17Z</time>
      </trkpt>
      <trkpt lat="43.50014" lon="0.05617">
        <ele>169.33</ele>
        <time>2021-08-19T11:45:18Z</time>
      </trkpt>
      <trkpt lat="43.50016" lon="0.05615">
        <ele>169.33</ele>
        <time>2021-08-19T11:45:19Z</time>
      </trkpt>
      <trkpt lat="43.50016" lon="0.05614">
        <ele>169.33</ele>
        <time>2021-08-19T11:45:20Z</time>
      </trkpt>
      <trkpt lat="43.50013" lon="0.05616">
        <ele>169.33</ele>
        <time>2021-08-19T11:45:23Z</time>
      </trkpt>
      <trkpt lat="43.50001" lon="0.05632">
        <ele>169.33</ele>
        <time>2021-08-19T11:45:29Z</time>
      </trkpt>
      <trkpt lat="43.49989" lon="0.05652">
        <ele>169.33</ele>
        <time>2021-08-19T11:45:34Z</time>
      </trkpt>
      <trkpt lat="43.49985" lon="0.05655">
        <ele>169.33</ele>
        <time>2021-08-19T11:45:35Z</time>
      </trkpt>
      <trkpt lat="43.49981" lon="0.05656">
        <ele>169.33</ele>
        <time>2021-08-19T11:45:36Z</time>
      </trkpt>
      <trkpt lat="43.49977" lon="0.05656">
        <ele>169.33</ele>
        <time>2021-08-19T11:45:37Z</time>
      </trkpt>
      <trkpt lat="43.49973" lon="0.05655">
        <ele>169.33</ele>
        <time>2021-08-19T11:45:38Z</time>
      </trkpt>
      <trkpt lat="43.49936" lon="0.05651">
        <ele>168.85</ele>
        <time>2021-08-19T11:45:46Z</time>
      </trkpt>
      <trkpt lat="43.49931" lon="0.0565">
        <ele>168.85</ele>
        <time>2021-08-19T11:45:47Z</time>
      </trkpt>
      <trkpt lat="43.49927" lon="0.0565">
        <ele>168.85</ele>
        <time>2021-08-19T11:45:48Z</time>
      </trkpt>
      <trkpt lat="43.49888" lon="0.05653">
        <ele>168.37</ele>
        <time>2021-08-19T11:45:56Z</time>
      </trkpt>
      <trkpt lat="43.49868" lon="0.05651">
        <ele>168.37</ele>
        <time>2021-08-19T11:46:00Z</time>
      </trkpt>
      <trkpt lat="43.49864" lon="0.05649">
        <ele>168.37</ele>
        <time>2021-08-19T11:46:01Z</time>
      </trkpt>
      <trkpt lat="43.49861" lon="0.05645">
        <ele>168.37</ele>
        <time>2021-08-19T11:46:02Z</time>
      </trkpt>
      <trkpt lat="43.49858" lon="0.05641">
        <ele>168.37</ele>
        <time>2021-08-19T11:46:03Z</time>
      </trkpt>
      <trkpt lat="43.49855" lon="0.05635">
        <ele>168.37</ele>
        <time>2021-08-19T11:46:04Z</time>
      </trkpt>
      <trkpt lat="43.49853" lon="0.05631">
        <ele>168.37</ele>
        <time>2021-08-19T11:46:05Z</time>
      </trkpt>
      <trkpt lat="43.4985" lon="0.05627">
        <ele>168.37</ele>
        <time>2021-08-19T11:46:06Z</time>
      </trkpt>
      <trkpt lat="43.49844" lon="0.05605">
        <ele>168.37</ele>
        <time>2021-08-19T11:46:12Z</time>
      </trkpt>
      <trkpt lat="43.49843" lon="0.05602">
        <ele>168.37</ele>
        <time>2021-08-19T11:46:13Z</time>
      </trkpt>
      <trkpt lat="43.49842" lon="0.05599">
        <ele>168.37</ele>
        <time>2021-08-19T11:46:14Z</time>
      </trkpt>
      <trkpt lat="43.49839" lon="0.05596">
        <ele>169.81</ele>
        <time>2021-08-19T11:46:20Z</time>
      </trkpt>
      <trkpt lat="43.49832" lon="0.05594">
        <ele>169.81</ele>
        <time>2021-08-19T11:46:30Z</time>
      </trkpt>
      <trkpt lat="43.4983" lon="0.05594">
        <ele>169.81</ele>
        <time>2021-08-19T11:46:32Z</time>
      </trkpt>
      <trkpt lat="43.49828" lon="0.05594">
        <ele>169.81</ele>
        <time>2021-08-19T11:46:39Z</time>
      </trkpt>
      <trkpt lat="43.49826" lon="0.0559">
        <ele>169.33</ele>
        <time>2021-08-19T11:47:02Z</time>
      </trkpt>
      <trkpt lat="43.49819" lon="0.05588">
        <ele>169.33</ele>
        <time>2021-08-19T11:47:08Z</time>
      </trkpt>
      <trkpt lat="43.49817" lon="0.05585">
        <ele>169.33</ele>
        <time>2021-08-19T11:47:15Z</time>
      </trkpt>
      <trkpt lat="43.49817" lon="0.05584">
        <ele>168.37</ele>
        <time>2021-08-19T11:47:23Z</time>
      </trkpt>
      <trkpt lat="43.49817" lon="0.05584">
        <ele>168.37</ele>
        <time>2021-08-19T11:47:37Z</time>
      </trkpt>
      <trkpt lat="43.49822" lon="0.05587">
        <ele>168.37</ele>
        <time>2021-08-19T11:47:59Z</time>
      </trkpt>
      <trkpt lat="43.49821" lon="0.05586">
        <ele>168.37</ele>
        <time>2021-08-19T11:48:23Z</time>
      </trkpt>
      <trkpt lat="43.49818" lon="0.05589">
        <ele>168.37</ele>
        <time>2021-08-19T11:48:51Z</time>
      </trkpt>
      <trkpt lat="43.49818" lon="0.0559">
        <ele>168.37</ele>
        <time>2021-08-19T11:49:12Z</time>
      </trkpt>
      <trkpt lat="43.49818" lon="0.05588">
        <ele>168.37</ele>
        <time>2021-08-19T11:49:39Z</time>
      </trkpt>
      <trkpt lat="43.49818" lon="0.05588">
        <ele>168.37</ele>
        <time>2021-08-19T11:50:07Z</time>
      </trkpt>
      <trkpt lat="43.49817" lon="0.05589">
        <ele>168.37</ele>
        <time>2021-08-19T11:50:31Z</time>
      </trkpt>
      <trkpt lat="43.49817" lon="0.05588">
        <ele>168.37</ele>
        <time>2021-08-19T11:50:52Z</time>
      </trkpt>
      <trkpt lat="43.49815" lon="0.05587">
        <ele>168.37</ele>
        <time>2021-08-19T11:51:12Z</time>
      </trkpt>
      <trkpt lat="43.49817" lon="0.05589">
        <ele>168.37</ele>
        <time>2021-08-19T11:51:29Z</time>
      </trkpt>
      <trkpt lat="43.49817" lon="0.0559">
        <ele>168.85</ele>
        <time>2021-08-19T11:51:44Z</time>
      </trkpt>
      <trkpt lat="43.4982" lon="0.0559">
        <ele>168.85</ele>
        <time>2021-08-19T11:52:00Z</time>
      </trkpt>
      <trkpt lat="43.49818" lon="0.0559">
        <ele>168.85</ele>
        <time>2021-08-19T11:52:22Z</time>
      </trkpt>
      <trkpt lat="43.49817" lon="0.05591">
        <ele>168.85</ele>
        <time>2021-08-19T11:52:41Z</time>
      </trkpt>
      <trkpt lat="43.49818" lon="0.05591">
        <ele>168.85</ele>
        <time>2021-08-19T11:53:05Z</time>
      </trkpt>
      <trkpt lat="43.49819" lon="0.05591">
        <ele>168.85</ele>
        <time>2021-08-19T11:53:22Z</time>
      </trkpt>
      <trkpt lat="43.49818" lon="0.0559">
        <ele>168.85</ele>
        <time>2021-08-19T11:53:47Z</time>
      </trkpt>
      <trkpt lat="43.49813" lon="0.05591">
        <ele>169.33</ele>
        <time>2021-08-19T11:54:06Z</time>
      </trkpt>
      <trkpt lat="43.49813" lon="0.05592">
        <ele>169.33</ele>
        <time>2021-08-19T11:54:21Z</time>
      </trkpt>
      <trkpt lat="43.49814" lon="0.05594">
        <ele>169.33</ele>
        <time>2021-08-19T11:54:38Z</time>
      </trkpt>
      <trkpt lat="43.49816" lon="0.05593">
        <ele>169.33</ele>
        <time>2021-08-19T11:54:57Z</time>
      </trkpt>
      <trkpt lat="43.49815" lon="0.05593">
        <ele>169.33</ele>
        <time>2021-08-19T11:55:23Z</time>
      </trkpt>
      <trkpt lat="43.49814" lon="0.05595">
        <ele>169.33</ele>
        <time>2021-08-19T11:55:36Z</time>
      </trkpt>
      <trkpt lat="43.49816" lon="0.05593">
        <ele>169.33</ele>
        <time>2021-08-19T11:55:55Z</time>
      </trkpt>
      <trkpt lat="43.49816" lon="0.05593">
        <ele>169.33</ele>
        <time>2021-08-19T11:56:19Z</time>
      </trkpt>
      <trkpt lat="43.49814" lon="0.05592">
        <ele>169.33</ele>
        <time>2021-08-19T11:56:39Z</time>
      </trkpt>
      <trkpt lat="43.49814" lon="0.05593">
        <ele>169.33</ele>
        <time>2021-08-19T11:56:47Z</time>
      </trkpt>
      <trkpt lat="43.49812" lon="0.05595">
        <ele>169.33</ele>
        <time>2021-08-19T11:56:55Z</time>
      </trkpt>
      <trkpt lat="43.49816" lon="0.05593">
        <ele>169.33</ele>
        <time>2021-08-19T11:57:15Z</time>
      </trkpt>
      <trkpt lat="43.49818" lon="0.05593">
        <ele>169.33</ele>
        <time>2021-08-19T11:57:28Z</time>
      </trkpt>
      <trkpt lat="43.49825" lon="0.05591">
        <ele>169.33</ele>
        <time>2021-08-19T11:57:48Z</time>
      </trkpt>
      <trkpt lat="43.49826" lon="0.0559">
        <ele>169.33</ele>
        <time>2021-08-19T11:58:09Z</time>
      </trkpt>
      <trkpt lat="43.49826" lon="0.05588">
        <ele>169.33</ele>
        <time>2021-08-19T11:58:32Z</time>
      </trkpt>
      <trkpt lat="43.49827" lon="0.05586">
        <ele>169.81</ele>
        <time>2021-08-19T11:58:54Z</time>
      </trkpt>
      <trkpt lat="43.49825" lon="0.05587">
        <ele>169.81</ele>
        <time>2021-08-19T11:59:11Z</time>
      </trkpt>
      <trkpt lat="43.49825" lon="0.05588">
        <ele>169.81</ele>
        <time>2021-08-19T11:59:31Z</time>
      </trkpt>
      <trkpt lat="43.49823" lon="0.05588">
        <ele>171.25</ele>
        <time>2021-08-19T12:00:00Z</time>
      </trkpt>
      <trkpt lat="43.49822" lon="0.05587">
        <ele>171.25</ele>
        <time>2021-08-19T12:00:22Z</time>
      </trkpt>
      <trkpt lat="43.49822" lon="0.05587">
        <ele>171.25</ele>
        <time>2021-08-19T12:00:35Z</time>
      </trkpt>
      <trkpt lat="43.49822" lon="0.05589">
        <ele>171.25</ele>
        <time>2021-08-19T12:00:53Z</time>
      </trkpt>
      <trkpt lat="43.49824" lon="0.05589">
        <ele>171.25</ele>
        <time>2021-08-19T12:01:07Z</time>
      </trkpt>
      <trkpt lat="43.49823" lon="0.0559">
        <ele>171.25</ele>
        <time>2021-08-19T12:01:29Z</time>
      </trkpt>
      <trkpt lat="43.49822" lon="0.05594">
        <ele>171.25</ele>
        <time>2021-08-19T12:01:42Z</time>
      </trkpt>
      <trkpt lat="43.49825" lon="0.05593">
        <ele>171.25</ele>
        <time>2021-08-19T12:01:47Z</time>
      </trkpt>
      <trkpt lat="43.49823" lon="0.05591">
        <ele>171.25</ele>
        <time>2021-08-19T12:01:52Z</time>
      </trkpt>
      <trkpt lat="43.49824" lon="0.0559">
        <ele>171.25</ele>
        <time>2021-08-19T12:02:17Z</time>
      </trkpt>
      <trkpt lat="43.49823" lon="0.05588">
        <ele>171.25</ele>
        <time>2021-08-19T12:02:39Z</time>
      </trkpt>
      <trkpt lat="43.49826" lon="0.05586">
        <ele>171.73</ele>
        <time>2021-08-19T12:02:56Z</time>
      </trkpt>
      <trkpt lat="43.49827" lon="0.05585">
        <ele>171.73</ele>
        <time>2021-08-19T12:03:13Z</time>
      </trkpt>
      <trkpt lat="43.49827" lon="0.05587">
        <ele>171.73</ele>
        <time>2021-08-19T12:03:33Z</time>
      </trkpt>
      <trkpt lat="43.49826" lon="0.05588">
        <ele>171.73</ele>
        <time>2021-08-19T12:03:52Z</time>
      </trkpt>
      <trkpt lat="43.49825" lon="0.05587">
        <ele>171.73</ele>
        <time>2021-08-19T12:04:06Z</time>
      </trkpt>
      <trkpt lat="43.49822" lon="0.05588">
        <ele>171.73</ele>
        <time>2021-08-19T12:04:22Z</time>
      </trkpt>
      <trkpt lat="43.49822" lon="0.05588">
        <ele>171.73</ele>
        <time>2021-08-19T12:04:38Z</time>
      </trkpt>
      <trkpt lat="43.49822" lon="0.0559">
        <ele>171.73</ele>
        <time>2021-08-19T12:04:55Z</time>
      </trkpt>
      <trkpt lat="43.49823" lon="0.05588">
        <ele>171.73</ele>
        <time>2021-08-19T12:05:17Z</time>
      </trkpt>
      <trkpt lat="43.49822" lon="0.05588">
        <ele>171.73</ele>
        <time>2021-08-19T12:05:38Z</time>
      </trkpt>
      <trkpt lat="43.4982" lon="0.0559">
        <ele>172.21</ele>
        <time>2021-08-19T12:05:53Z</time>
      </trkpt>
      <trkpt lat="43.49815" lon="0.05585">
        <ele>172.21</ele>
        <time>2021-08-19T12:06:01Z</time>
      </trkpt>
      <trkpt lat="43.49813" lon="0.05584">
        <ele>172.21</ele>
        <time>2021-08-19T12:06:04Z</time>
      </trkpt>
      <trkpt lat="43.49812" lon="0.05583">
        <ele>172.21</ele>
        <time>2021-08-19T12:06:05Z</time>
      </trkpt>
      <trkpt lat="43.49811" lon="0.05583">
        <ele>172.21</ele>
        <time>2021-08-19T12:06:06Z</time>
      </trkpt>
      <trkpt lat="43.49809" lon="0.05582">
        <ele>172.21</ele>
        <time>2021-08-19T12:06:07Z</time>
      </trkpt>
      <trkpt lat="43.49808" lon="0.05581">
        <ele>172.21</ele>
        <time>2021-08-19T12:06:08Z</time>
      </trkpt>
      <trkpt lat="43.49806" lon="0.05579">
        <ele>172.21</ele>
        <time>2021-08-19T12:06:09Z</time>
      </trkpt>
      <trkpt lat="43.49804" lon="0.05578">
        <ele>172.21</ele>
        <time>2021-08-19T12:06:10Z</time>
      </trkpt>
      <trkpt lat="43.49802" lon="0.05577">
        <ele>172.21</ele>
        <time>2021-08-19T12:06:11Z</time>
      </trkpt>
      <trkpt lat="43.49799" lon="0.05576">
        <ele>172.21</ele>
        <time>2021-08-19T12:06:12Z</time>
      </trkpt>
      <trkpt lat="43.49796" lon="0.05573">
        <ele>172.21</ele>
        <time>2021-08-19T12:06:13Z</time>
      </trkpt>
      <trkpt lat="43.49792" lon="0.05571">
        <ele>172.21</ele>
        <time>2021-08-19T12:06:14Z</time>
      </trkpt>
      <trkpt lat="43.4977" lon="0.05556">
        <ele>172.21</ele>
        <time>2021-08-19T12:06:21Z</time>
      </trkpt>
      <trkpt lat="43.49752" lon="0.05543">
        <ele>172.21</ele>
        <time>2021-08-19T12:06:27Z</time>
      </trkpt>
      <trkpt lat="43.49737" lon="0.05533">
        <ele>172.21</ele>
        <time>2021-08-19T12:06:33Z</time>
      </trkpt>
      <trkpt lat="43.49724" lon="0.05526">
        <ele>172.69</ele>
        <time>2021-08-19T12:06:39Z</time>
      </trkpt>
      <trkpt lat="43.49722" lon="0.05523">
        <ele>172.69</ele>
        <time>2021-08-19T12:06:40Z</time>
      </trkpt>
      <trkpt lat="43.49719" lon="0.05521">
        <ele>172.69</ele>
        <time>2021-08-19T12:06:41Z</time>
      </trkpt>
      <trkpt lat="43.49715" lon="0.05519">
        <ele>172.69</ele>
        <time>2021-08-19T12:06:42Z</time>
      </trkpt>
      <trkpt lat="43.49711" lon="0.05518">
        <ele>172.69</ele>
        <time>2021-08-19T12:06:43Z</time>
      </trkpt>
      <trkpt lat="43.497" lon="0.05513">
        <ele>172.69</ele>
        <time>2021-08-19T12:06:47Z</time>
      </trkpt>
      <trkpt lat="43.49696" lon="0.05513">
        <ele>172.69</ele>
        <time>2021-08-19T12:06:48Z</time>
      </trkpt>
      <trkpt lat="43.49692" lon="0.05512">
        <ele>172.69</ele>
        <time>2021-08-19T12:06:49Z</time>
      </trkpt>
      <trkpt lat="43.49668" lon="0.0551">
        <ele>172.69</ele>
        <time>2021-08-19T12:06:56Z</time>
      </trkpt>
      <trkpt lat="43.49641" lon="0.05508">
        <ele>172.69</ele>
        <time>2021-08-19T12:07:04Z</time>
      </trkpt>
      <trkpt lat="43.49613" lon="0.05505">
        <ele>172.69</ele>
        <time>2021-08-19T12:07:12Z</time>
      </trkpt>
      <trkpt lat="43.49588" lon="0.05502">
        <ele>172.21</ele>
        <time>2021-08-19T12:07:19Z</time>
      </trkpt>
      <trkpt lat="43.49571" lon="0.05499">
        <ele>172.21</ele>
        <time>2021-08-19T12:07:24Z</time>
      </trkpt>
      <trkpt lat="43.49549" lon="0.05498">
        <ele>172.21</ele>
        <time>2021-08-19T12:07:30Z</time>
      </trkpt>
      <trkpt lat="43.49522" lon="0.05494">
        <ele>172.21</ele>
        <time>2021-08-19T12:07:37Z</time>
      </trkpt>
      <trkpt lat="43.49507" lon="0.05489">
        <ele>172.21</ele>
        <time>2021-08-19T12:07:41Z</time>
      </trkpt>
      <trkpt lat="43.49474" lon="0.05474">
        <ele>172.21</ele>
        <time>2021-08-19T12:07:49Z</time>
      </trkpt>
      <trkpt lat="43.49448" lon="0.05467">
        <ele>172.21</ele>
        <time>2021-08-19T12:07:56Z</time>
      </trkpt>
      <trkpt lat="43.49432" lon="0.05461">
        <ele>172.21</ele>
        <time>2021-08-19T12:08:00Z</time>
      </trkpt>
      <trkpt lat="43.49424" lon="0.05458">
        <ele>172.21</ele>
        <time>2021-08-19T12:08:02Z</time>
      </trkpt>
      <trkpt lat="43.49403" lon="0.05448">
        <ele>172.21</ele>
        <time>2021-08-19T12:08:07Z</time>
      </trkpt>
      <trkpt lat="43.49366" lon="0.05426">
        <ele>172.21</ele>
        <time>2021-08-19T12:08:16Z</time>
      </trkpt>
      <trkpt lat="43.49342" lon="0.05414">
        <ele>172.21</ele>
        <time>2021-08-19T12:08:22Z</time>
      </trkpt>
      <trkpt lat="43.49322" lon="0.05406">
        <ele>172.21</ele>
        <time>2021-08-19T12:08:27Z</time>
      </trkpt>
      <trkpt lat="43.49318" lon="0.05405">
        <ele>172.21</ele>
        <time>2021-08-19T12:08:28Z</time>
      </trkpt>
      <trkpt lat="43.49314" lon="0.05404">
        <ele>172.21</ele>
        <time>2021-08-19T12:08:29Z</time>
      </trkpt>
      <trkpt lat="43.49289" lon="0.05406">
        <ele>172.21</ele>
        <time>2021-08-19T12:08:35Z</time>
      </trkpt>
      <trkpt lat="43.49252" lon="0.05417">
        <ele>172.21</ele>
        <time>2021-08-19T12:08:44Z</time>
      </trkpt>
      <trkpt lat="43.49248" lon="0.05418">
        <ele>172.21</ele>
        <time>2021-08-19T12:08:45Z</time>
      </trkpt>
      <trkpt lat="43.49217" lon="0.0542">
        <ele>172.69</ele>
        <time>2021-08-19T12:08:53Z</time>
      </trkpt>
      <trkpt lat="43.49185" lon="0.05421">
        <ele>172.69</ele>
        <time>2021-08-19T12:09:01Z</time>
      </trkpt>
      <trkpt lat="43.49153" lon="0.05411">
        <ele>173.17</ele>
        <time>2021-08-19T12:09:09Z</time>
      </trkpt>
      <trkpt lat="43.49138" lon="0.05384">
        <ele>173.17</ele>
        <time>2021-08-19T12:09:15Z</time>
      </trkpt>
      <trkpt lat="43.4913" lon="0.05362">
        <ele>173.17</ele>
        <time>2021-08-19T12:09:19Z</time>
      </trkpt>
      <trkpt lat="43.49129" lon="0.05357">
        <ele>173.17</ele>
        <time>2021-08-19T12:09:20Z</time>
      </trkpt>
      <trkpt lat="43.49125" lon="0.05302">
        <ele>173.17</ele>
        <time>2021-08-19T12:09:29Z</time>
      </trkpt>
      <trkpt lat="43.49125" lon="0.05295">
        <ele>173.17</ele>
        <time>2021-08-19T12:09:30Z</time>
      </trkpt>
      <trkpt lat="43.49125" lon="0.05289">
        <ele>173.17</ele>
        <time>2021-08-19T12:09:31Z</time>
      </trkpt>
      <trkpt lat="43.49124" lon="0.05283">
        <ele>173.17</ele>
        <time>2021-08-19T12:09:32Z</time>
      </trkpt>
      <trkpt lat="43.49122" lon="0.05277">
        <ele>173.17</ele>
        <time>2021-08-19T12:09:33Z</time>
      </trkpt>
      <trkpt lat="43.49121" lon="0.05271">
        <ele>173.17</ele>
        <time>2021-08-19T12:09:34Z</time>
      </trkpt>
      <trkpt lat="43.49118" lon="0.05265">
        <ele>173.17</ele>
        <time>2021-08-19T12:09:35Z</time>
      </trkpt>
      <trkpt lat="43.49116" lon="0.05261">
        <ele>173.17</ele>
        <time>2021-08-19T12:09:36Z</time>
      </trkpt>
      <trkpt lat="43.49113" lon="0.05256">
        <ele>173.17</ele>
        <time>2021-08-19T12:09:37Z</time>
      </trkpt>
      <trkpt lat="43.4911" lon="0.05252">
        <ele>173.17</ele>
        <time>2021-08-19T12:09:38Z</time>
      </trkpt>
      <trkpt lat="43.49106" lon="0.05247">
        <ele>173.17</ele>
        <time>2021-08-19T12:09:39Z</time>
      </trkpt>
      <trkpt lat="43.4907" lon="0.05203">
        <ele>173.17</ele>
        <time>2021-08-19T12:09:49Z</time>
      </trkpt>
      <trkpt lat="43.4903" lon="0.05154">
        <ele>172.69</ele>
        <time>2021-08-19T12:10:00Z</time>
      </trkpt>
      <trkpt lat="43.48989" lon="0.05104">
        <ele>173.17</ele>
        <time>2021-08-19T12:10:11Z</time>
      </trkpt>
      <trkpt lat="43.48952" lon="0.0506">
        <ele>173.17</ele>
        <time>2021-08-19T12:10:21Z</time>
      </trkpt>
      <trkpt lat="43.48919" lon="0.05037">
        <ele>173.17</ele>
        <time>2021-08-19T12:10:29Z</time>
      </trkpt>
      <trkpt lat="43.48886" lon="0.05029">
        <ele>173.66</ele>
        <time>2021-08-19T12:10:36Z</time>
      </trkpt>
      <trkpt lat="43.48843" lon="0.05018">
        <ele>173.66</ele>
        <time>2021-08-19T12:10:45Z</time>
      </trkpt>
      <trkpt lat="43.48788" lon="0.04995">
        <ele>174.14</ele>
        <time>2021-08-19T12:10:56Z</time>
      </trkpt>
      <trkpt lat="43.4876" lon="0.04981">
        <ele>174.14</ele>
        <time>2021-08-19T12:11:02Z</time>
      </trkpt>
      <trkpt lat="43.48722" lon="0.0496">
        <ele>174.14</ele>
        <time>2021-08-19T12:11:10Z</time>
      </trkpt>
      <trkpt lat="43.48669" lon="0.04934">
        <ele>174.62</ele>
        <time>2021-08-19T12:11:21Z</time>
      </trkpt>
      <trkpt lat="43.48615" lon="0.04906">
        <ele>174.62</ele>
        <time>2021-08-19T12:11:32Z</time>
      </trkpt>
      <trkpt lat="43.4861" lon="0.04903">
        <ele>174.62</ele>
        <time>2021-08-19T12:11:33Z</time>
      </trkpt>
      <trkpt lat="43.48591" lon="0.04891">
        <ele>174.62</ele>
        <time>2021-08-19T12:11:37Z</time>
      </trkpt>
      <trkpt lat="43.48563" lon="0.04872">
        <ele>174.62</ele>
        <time>2021-08-19T12:11:43Z</time>
      </trkpt>
      <trkpt lat="43.48554" lon="0.04865">
        <ele>174.62</ele>
        <time>2021-08-19T12:11:45Z</time>
      </trkpt>
      <trkpt lat="43.48549" lon="0.04862">
        <ele>174.62</ele>
        <time>2021-08-19T12:11:46Z</time>
      </trkpt>
      <trkpt lat="43.48545" lon="0.04859">
        <ele>174.62</ele>
        <time>2021-08-19T12:11:47Z</time>
      </trkpt>
      <trkpt lat="43.48506" lon="0.04831">
        <ele>174.62</ele>
        <time>2021-08-19T12:11:55Z</time>
      </trkpt>
      <trkpt lat="43.48479" lon="0.04821">
        <ele>174.62</ele>
        <time>2021-08-19T12:12:00Z</time>
      </trkpt>
      <trkpt lat="43.48425" lon="0.0481">
        <ele>174.62</ele>
        <time>2021-08-19T12:12:10Z</time>
      </trkpt>
      <trkpt lat="43.48393" lon="0.04803">
        <ele>174.62</ele>
        <time>2021-08-19T12:12:16Z</time>
      </trkpt>
      <trkpt lat="43.48348" lon="0.04783">
        <ele>174.62</ele>
        <time>2021-08-19T12:12:25Z</time>
      </trkpt>
      <trkpt lat="43.483" lon="0.04753">
        <ele>175.1</ele>
        <time>2021-08-19T12:12:35Z</time>
      </trkpt>
      <trkpt lat="43.48295" lon="0.04749">
        <ele>175.1</ele>
        <time>2021-08-19T12:12:36Z</time>
      </trkpt>
      <trkpt lat="43.48283" lon="0.04736">
        <ele>175.1</ele>
        <time>2021-08-19T12:12:39Z</time>
      </trkpt>
      <trkpt lat="43.4828" lon="0.0473">
        <ele>175.1</ele>
        <time>2021-08-19T12:12:40Z</time>
      </trkpt>
      <trkpt lat="43.48274" lon="0.04721">
        <ele>175.1</ele>
        <time>2021-08-19T12:12:42Z</time>
      </trkpt>
      <trkpt lat="43.4827" lon="0.04718">
        <ele>175.1</ele>
        <time>2021-08-19T12:12:43Z</time>
      </trkpt>
      <trkpt lat="43.48266" lon="0.04715">
        <ele>175.1</ele>
        <time>2021-08-19T12:12:44Z</time>
      </trkpt>
      <trkpt lat="43.48261" lon="0.04714">
        <ele>175.1</ele>
        <time>2021-08-19T12:12:45Z</time>
      </trkpt>
      <trkpt lat="43.48257" lon="0.04714">
        <ele>175.1</ele>
        <time>2021-08-19T12:12:46Z</time>
      </trkpt>
      <trkpt lat="43.48252" lon="0.04715">
        <ele>175.1</ele>
        <time>2021-08-19T12:12:47Z</time>
      </trkpt>
      <trkpt lat="43.48248" lon="0.04716">
        <ele>175.1</ele>
        <time>2021-08-19T12:12:48Z</time>
      </trkpt>
      <trkpt lat="43.48243" lon="0.04717">
        <ele>175.1</ele>
        <time>2021-08-19T12:12:49Z</time>
      </trkpt>
      <trkpt lat="43.48238" lon="0.0472">
        <ele>175.1</ele>
        <time>2021-08-19T12:12:50Z</time>
      </trkpt>
      <trkpt lat="43.48234" lon="0.04722">
        <ele>175.1</ele>
        <time>2021-08-19T12:12:51Z</time>
      </trkpt>
      <trkpt lat="43.48183" lon="0.04748">
        <ele>175.1</ele>
        <time>2021-08-19T12:13:01Z</time>
      </trkpt>
      <trkpt lat="43.48168" lon="0.04755">
        <ele>175.1</ele>
        <time>2021-08-19T12:13:04Z</time>
      </trkpt>
      <trkpt lat="43.48148" lon="0.04759">
        <ele>175.1</ele>
        <time>2021-08-19T12:13:08Z</time>
      </trkpt>
      <trkpt lat="43.48142" lon="0.04758">
        <ele>175.1</ele>
        <time>2021-08-19T12:13:09Z</time>
      </trkpt>
      <trkpt lat="43.48137" lon="0.04757">
        <ele>175.1</ele>
        <time>2021-08-19T12:13:10Z</time>
      </trkpt>
      <trkpt lat="43.48115" lon="0.04751">
        <ele>175.1</ele>
        <time>2021-08-19T12:13:14Z</time>
      </trkpt>
      <trkpt lat="43.4811" lon="0.04748">
        <ele>175.1</ele>
        <time>2021-08-19T12:13:15Z</time>
      </trkpt>
      <trkpt lat="43.48105" lon="0.04745">
        <ele>175.1</ele>
        <time>2021-08-19T12:13:16Z</time>
      </trkpt>
      <trkpt lat="43.48101" lon="0.0474">
        <ele>175.1</ele>
        <time>2021-08-19T12:13:17Z</time>
      </trkpt>
      <trkpt lat="43.48097" lon="0.04736">
        <ele>175.1</ele>
        <time>2021-08-19T12:13:18Z</time>
      </trkpt>
      <trkpt lat="43.48093" lon="0.0473">
        <ele>175.1</ele>
        <time>2021-08-19T12:13:19Z</time>
      </trkpt>
      <trkpt lat="43.48058" lon="0.04693">
        <ele>175.1</ele>
        <time>2021-08-19T12:13:27Z</time>
      </trkpt>
      <trkpt lat="43.48026" lon="0.04669">
        <ele>175.58</ele>
        <time>2021-08-19T12:13:34Z</time>
      </trkpt>
      <trkpt lat="43.48022" lon="0.04667">
        <ele>175.58</ele>
        <time>2021-08-19T12:13:35Z</time>
      </trkpt>
      <trkpt lat="43.48017" lon="0.04666">
        <ele>175.58</ele>
        <time>2021-08-19T12:13:36Z</time>
      </trkpt>
      <trkpt lat="43.48012" lon="0.04665">
        <ele>175.58</ele>
        <time>2021-08-19T12:13:37Z</time>
      </trkpt>
      <trkpt lat="43.48007" lon="0.04665">
        <ele>175.58</ele>
        <time>2021-08-19T12:13:38Z</time>
      </trkpt>
      <trkpt lat="43.47961" lon="0.04666">
        <ele>176.06</ele>
        <time>2021-08-19T12:13:47Z</time>
      </trkpt>
      <trkpt lat="43.47916" lon="0.04654">
        <ele>176.54</ele>
        <time>2021-08-19T12:13:56Z</time>
      </trkpt>
      <trkpt lat="43.47867" lon="0.04636">
        <ele>176.54</ele>
        <time>2021-08-19T12:14:06Z</time>
      </trkpt>
      <trkpt lat="43.47831" lon="0.04629">
        <ele>177.02</ele>
        <time>2021-08-19T12:14:13Z</time>
      </trkpt>
      <trkpt lat="43.47791" lon="0.04623">
        <ele>177.5</ele>
        <time>2021-08-19T12:14:21Z</time>
      </trkpt>
      <trkpt lat="43.47745" lon="0.04614">
        <ele>177.5</ele>
        <time>2021-08-19T12:14:30Z</time>
      </trkpt>
      <trkpt lat="43.47709" lon="0.04604">
        <ele>177.5</ele>
        <time>2021-08-19T12:14:37Z</time>
      </trkpt>
      <trkpt lat="43.4766" lon="0.046">
        <ele>177.5</ele>
        <time>2021-08-19T12:14:46Z</time>
      </trkpt>
      <trkpt lat="43.47622" lon="0.04596">
        <ele>177.5</ele>
        <time>2021-08-19T12:14:53Z</time>
      </trkpt>
      <trkpt lat="43.47606" lon="0.04589">
        <ele>177.5</ele>
        <time>2021-08-19T12:14:56Z</time>
      </trkpt>
      <trkpt lat="43.47601" lon="0.04585">
        <ele>177.5</ele>
        <time>2021-08-19T12:14:57Z</time>
      </trkpt>
      <trkpt lat="43.47596" lon="0.04581">
        <ele>177.5</ele>
        <time>2021-08-19T12:14:58Z</time>
      </trkpt>
      <trkpt lat="43.47541" lon="0.0453">
        <ele>177.5</ele>
        <time>2021-08-19T12:15:10Z</time>
      </trkpt>
      <trkpt lat="43.475" lon="0.04495">
        <ele>177.5</ele>
        <time>2021-08-19T12:15:19Z</time>
      </trkpt>
      <trkpt lat="43.47453" lon="0.04459">
        <ele>177.98</ele>
        <time>2021-08-19T12:15:29Z</time>
      </trkpt>
      <trkpt lat="43.47407" lon="0.0444">
        <ele>177.98</ele>
        <time>2021-08-19T12:15:38Z</time>
      </trkpt>
      <trkpt lat="43.47374" lon="0.04433">
        <ele>178.46</ele>
        <time>2021-08-19T12:15:45Z</time>
      </trkpt>
      <trkpt lat="43.47365" lon="0.0443">
        <ele>178.46</ele>
        <time>2021-08-19T12:15:47Z</time>
      </trkpt>
      <trkpt lat="43.47357" lon="0.04424">
        <ele>178.46</ele>
        <time>2021-08-19T12:15:49Z</time>
      </trkpt>
      <trkpt lat="43.47355" lon="0.04419">
        <ele>178.46</ele>
        <time>2021-08-19T12:15:50Z</time>
      </trkpt>
      <trkpt lat="43.47349" lon="0.04398">
        <ele>178.94</ele>
        <time>2021-08-19T12:15:54Z</time>
      </trkpt>
      <trkpt lat="43.47347" lon="0.04391">
        <ele>178.94</ele>
        <time>2021-08-19T12:15:55Z</time>
      </trkpt>
      <trkpt lat="43.4734" lon="0.04362">
        <ele>178.94</ele>
        <time>2021-08-19T12:16:00Z</time>
      </trkpt>
      <trkpt lat="43.47333" lon="0.04339">
        <ele>178.94</ele>
        <time>2021-08-19T12:16:04Z</time>
      </trkpt>
      <trkpt lat="43.4733" lon="0.04335">
        <ele>178.94</ele>
        <time>2021-08-19T12:16:05Z</time>
      </trkpt>
      <trkpt lat="43.47326" lon="0.04332">
        <ele>178.94</ele>
        <time>2021-08-19T12:16:06Z</time>
      </trkpt>
      <trkpt lat="43.47317" lon="0.04329">
        <ele>178.94</ele>
        <time>2021-08-19T12:16:08Z</time>
      </trkpt>
      <trkpt lat="43.47313" lon="0.04327">
        <ele>178.94</ele>
        <time>2021-08-19T12:16:09Z</time>
      </trkpt>
      <trkpt lat="43.47309" lon="0.04323">
        <ele>178.94</ele>
        <time>2021-08-19T12:16:10Z</time>
      </trkpt>
      <trkpt lat="43.47305" lon="0.04319">
        <ele>178.94</ele>
        <time>2021-08-19T12:16:11Z</time>
      </trkpt>
      <trkpt lat="43.47302" lon="0.04313">
        <ele>178.94</ele>
        <time>2021-08-19T12:16:12Z</time>
      </trkpt>
      <trkpt lat="43.473" lon="0.04308">
        <ele>178.94</ele>
        <time>2021-08-19T12:16:13Z</time>
      </trkpt>
      <trkpt lat="43.47297" lon="0.04301">
        <ele>178.94</ele>
        <time>2021-08-19T12:16:14Z</time>
      </trkpt>
      <trkpt lat="43.47296" lon="0.04295">
        <ele>178.94</ele>
        <time>2021-08-19T12:16:15Z</time>
      </trkpt>
      <trkpt lat="43.47294" lon="0.04288">
        <ele>178.94</ele>
        <time>2021-08-19T12:16:16Z</time>
      </trkpt>
      <trkpt lat="43.47293" lon="0.04282">
        <ele>178.94</ele>
        <time>2021-08-19T12:16:17Z</time>
      </trkpt>
      <trkpt lat="43.4729" lon="0.04261">
        <ele>178.94</ele>
        <time>2021-08-19T12:16:20Z</time>
      </trkpt>
      <trkpt lat="43.47288" lon="0.04255">
        <ele>178.94</ele>
        <time>2021-08-19T12:16:21Z</time>
      </trkpt>
      <trkpt lat="43.47283" lon="0.04243">
        <ele>178.94</ele>
        <time>2021-08-19T12:16:23Z</time>
      </trkpt>
      <trkpt lat="43.4728" lon="0.04237">
        <ele>178.94</ele>
        <time>2021-08-19T12:16:24Z</time>
      </trkpt>
      <trkpt lat="43.47277" lon="0.04232">
        <ele>178.94</ele>
        <time>2021-08-19T12:16:25Z</time>
      </trkpt>
      <trkpt lat="43.47273" lon="0.04227">
        <ele>178.94</ele>
        <time>2021-08-19T12:16:26Z</time>
      </trkpt>
      <trkpt lat="43.47269" lon="0.04223">
        <ele>178.94</ele>
        <time>2021-08-19T12:16:27Z</time>
      </trkpt>
      <trkpt lat="43.47264" lon="0.0422">
        <ele>178.94</ele>
        <time>2021-08-19T12:16:28Z</time>
      </trkpt>
      <trkpt lat="43.4726" lon="0.04216">
        <ele>178.94</ele>
        <time>2021-08-19T12:16:29Z</time>
      </trkpt>
      <trkpt lat="43.47255" lon="0.04214">
        <ele>178.94</ele>
        <time>2021-08-19T12:16:30Z</time>
      </trkpt>
      <trkpt lat="43.47229" lon="0.04204">
        <ele>178.94</ele>
        <time>2021-08-19T12:16:35Z</time>
      </trkpt>
      <trkpt lat="43.47224" lon="0.04203">
        <ele>178.94</ele>
        <time>2021-08-19T12:16:36Z</time>
      </trkpt>
      <trkpt lat="43.47219" lon="0.04201">
        <ele>178.94</ele>
        <time>2021-08-19T12:16:37Z</time>
      </trkpt>
      <trkpt lat="43.472" lon="0.04193">
        <ele>178.94</ele>
        <time>2021-08-19T12:16:41Z</time>
      </trkpt>
      <trkpt lat="43.47197" lon="0.04193">
        <ele>178.94</ele>
        <time>2021-08-19T12:16:42Z</time>
      </trkpt>
      <trkpt lat="43.47191" lon="0.04191">
        <ele>178.94</ele>
        <time>2021-08-19T12:16:43Z</time>
      </trkpt>
      <trkpt lat="43.47147" lon="0.04167">
        <ele>179.42</ele>
        <time>2021-08-19T12:16:52Z</time>
      </trkpt>
      <trkpt lat="43.47128" lon="0.04153">
        <ele>179.42</ele>
        <time>2021-08-19T12:16:56Z</time>
      </trkpt>
      <trkpt lat="43.47124" lon="0.04148">
        <ele>179.42</ele>
        <time>2021-08-19T12:16:57Z</time>
      </trkpt>
      <trkpt lat="43.4712" lon="0.04143">
        <ele>179.42</ele>
        <time>2021-08-19T12:16:58Z</time>
      </trkpt>
      <trkpt lat="43.47117" lon="0.04137">
        <ele>178.94</ele>
        <time>2021-08-19T12:16:59Z</time>
      </trkpt>
      <trkpt lat="43.47115" lon="0.04131">
        <ele>178.94</ele>
        <time>2021-08-19T12:17:00Z</time>
      </trkpt>
      <trkpt lat="43.47114" lon="0.04124">
        <ele>178.94</ele>
        <time>2021-08-19T12:17:01Z</time>
      </trkpt>
      <trkpt lat="43.47114" lon="0.04116">
        <ele>178.94</ele>
        <time>2021-08-19T12:17:02Z</time>
      </trkpt>
      <trkpt lat="43.47111" lon="0.04038">
        <ele>178.94</ele>
        <time>2021-08-19T12:17:12Z</time>
      </trkpt>
      <trkpt lat="43.47109" lon="0.03977">
        <ele>178.94</ele>
        <time>2021-08-19T12:17:20Z</time>
      </trkpt>
      <trkpt lat="43.47109" lon="0.03961">
        <ele>178.94</ele>
        <time>2021-08-19T12:17:22Z</time>
      </trkpt>
      <trkpt lat="43.47109" lon="0.03954">
        <ele>178.94</ele>
        <time>2021-08-19T12:17:23Z</time>
      </trkpt>
      <trkpt lat="43.47107" lon="0.03881">
        <ele>178.94</ele>
        <time>2021-08-19T12:17:32Z</time>
      </trkpt>
      <trkpt lat="43.47105" lon="0.03791">
        <ele>177.98</ele>
        <time>2021-08-19T12:17:43Z</time>
      </trkpt>
      <trkpt lat="43.47104" lon="0.03702">
        <ele>177.98</ele>
        <time>2021-08-19T12:17:54Z</time>
      </trkpt>
      <trkpt lat="43.47101" lon="0.03635">
        <ele>177.98</ele>
        <time>2021-08-19T12:18:03Z</time>
      </trkpt>
      <trkpt lat="43.47091" lon="0.03596">
        <ele>177.98</ele>
        <time>2021-08-19T12:18:09Z</time>
      </trkpt>
      <trkpt lat="43.47088" lon="0.03591">
        <ele>177.98</ele>
        <time>2021-08-19T12:18:10Z</time>
      </trkpt>
      <trkpt lat="43.47083" lon="0.03582">
        <ele>177.98</ele>
        <time>2021-08-19T12:18:12Z</time>
      </trkpt>
      <trkpt lat="43.4708" lon="0.03578">
        <ele>177.98</ele>
        <time>2021-08-19T12:18:13Z</time>
      </trkpt>
      <trkpt lat="43.47076" lon="0.03575">
        <ele>179.42</ele>
        <time>2021-08-19T12:18:14Z</time>
      </trkpt>
      <trkpt lat="43.47073" lon="0.03572">
        <ele>179.42</ele>
        <time>2021-08-19T12:18:15Z</time>
      </trkpt>
      <trkpt lat="43.47045" lon="0.03555">
        <ele>180.38</ele>
        <time>2021-08-19T12:18:23Z</time>
      </trkpt>
      <trkpt lat="43.47035" lon="0.0355">
        <ele>180.38</ele>
        <time>2021-08-19T12:18:26Z</time>
      </trkpt>
      <trkpt lat="43.47026" lon="0.03549">
        <ele>180.38</ele>
        <time>2021-08-19T12:18:28Z</time>
      </trkpt>
      <trkpt lat="43.47014" lon="0.03548">
        <ele>180.38</ele>
        <time>2021-08-19T12:18:31Z</time>
      </trkpt>
      <trkpt lat="43.47009" lon="0.03546">
        <ele>180.38</ele>
        <time>2021-08-19T12:18:32Z</time>
      </trkpt>
      <trkpt lat="43.47006" lon="0.03542">
        <ele>180.38</ele>
        <time>2021-08-19T12:18:33Z</time>
      </trkpt>
      <trkpt lat="43.47002" lon="0.03537">
        <ele>180.38</ele>
        <time>2021-08-19T12:18:34Z</time>
      </trkpt>
      <trkpt lat="43.47" lon="0.03532">
        <ele>180.38</ele>
        <time>2021-08-19T12:18:35Z</time>
      </trkpt>
      <trkpt lat="43.46999" lon="0.03527">
        <ele>179.9</ele>
        <time>2021-08-19T12:18:36Z</time>
      </trkpt>
      <trkpt lat="43.46996" lon="0.03516">
        <ele>179.9</ele>
        <time>2021-08-19T12:18:38Z</time>
      </trkpt>
      <trkpt lat="43.46995" lon="0.03511">
        <ele>179.9</ele>
        <time>2021-08-19T12:18:39Z</time>
      </trkpt>
      <trkpt lat="43.46993" lon="0.03505">
        <ele>179.9</ele>
        <time>2021-08-19T12:18:40Z</time>
      </trkpt>
      <trkpt lat="43.46991" lon="0.035">
        <ele>179.9</ele>
        <time>2021-08-19T12:18:41Z</time>
      </trkpt>
      <trkpt lat="43.46989" lon="0.03496">
        <ele>179.9</ele>
        <time>2021-08-19T12:18:42Z</time>
      </trkpt>
      <trkpt lat="43.46985" lon="0.03491">
        <ele>179.9</ele>
        <time>2021-08-19T12:18:43Z</time>
      </trkpt>
      <trkpt lat="43.46981" lon="0.03484">
        <ele>178.94</ele>
        <time>2021-08-19T12:18:44Z</time>
      </trkpt>
      <trkpt lat="43.46978" lon="0.0348">
        <ele>178.94</ele>
        <time>2021-08-19T12:18:45Z</time>
      </trkpt>
      <trkpt lat="43.46974" lon="0.03476">
        <ele>178.94</ele>
        <time>2021-08-19T12:18:46Z</time>
      </trkpt>
      <trkpt lat="43.4697" lon="0.03472">
        <ele>178.46</ele>
        <time>2021-08-19T12:18:47Z</time>
      </trkpt>
      <trkpt lat="43.46964" lon="0.03469">
        <ele>178.46</ele>
        <time>2021-08-19T12:18:48Z</time>
      </trkpt>
      <trkpt lat="43.46959" lon="0.03467">
        <ele>178.46</ele>
        <time>2021-08-19T12:18:49Z</time>
      </trkpt>
      <trkpt lat="43.46953" lon="0.03467">
        <ele>177.98</ele>
        <time>2021-08-19T12:18:50Z</time>
      </trkpt>
      <trkpt lat="43.46947" lon="0.03466">
        <ele>177.98</ele>
        <time>2021-08-19T12:18:51Z</time>
      </trkpt>
      <trkpt lat="43.46899" lon="0.03469">
        <ele>177.5</ele>
        <time>2021-08-19T12:18:59Z</time>
      </trkpt>
      <trkpt lat="43.46858" lon="0.03472">
        <ele>178.46</ele>
        <time>2021-08-19T12:19:07Z</time>
      </trkpt>
      <trkpt lat="43.46853" lon="0.03471">
        <ele>178.94</ele>
        <time>2021-08-19T12:19:08Z</time>
      </trkpt>
      <trkpt lat="43.46845" lon="0.03468">
        <ele>179.42</ele>
        <time>2021-08-19T12:19:10Z</time>
      </trkpt>
      <trkpt lat="43.46828" lon="0.03457">
        <ele>180.38</ele>
        <time>2021-08-19T12:19:15Z</time>
      </trkpt>
      <trkpt lat="43.46827" lon="0.03453">
        <ele>180.38</ele>
        <time>2021-08-19T12:19:16Z</time>
      </trkpt>
      <trkpt lat="43.46826" lon="0.03449">
        <ele>180.38</ele>
        <time>2021-08-19T12:19:17Z</time>
      </trkpt>
      <trkpt lat="43.46826" lon="0.03444">
        <ele>180.38</ele>
        <time>2021-08-19T12:19:18Z</time>
      </trkpt>
      <trkpt lat="43.46826" lon="0.03439">
        <ele>180.38</ele>
        <time>2021-08-19T12:19:19Z</time>
      </trkpt>
      <trkpt lat="43.46823" lon="0.03384">
        <ele>180.38</ele>
        <time>2021-08-19T12:19:28Z</time>
      </trkpt>
      <trkpt lat="43.46819" lon="0.03314">
        <ele>180.38</ele>
        <time>2021-08-19T12:19:38Z</time>
      </trkpt>
      <trkpt lat="43.46816" lon="0.0324">
        <ele>180.87</ele>
        <time>2021-08-19T12:19:48Z</time>
      </trkpt>
      <trkpt lat="43.46813" lon="0.03152">
        <ele>181.35</ele>
        <time>2021-08-19T12:20:00Z</time>
      </trkpt>
      <trkpt lat="43.46808" lon="0.03077">
        <ele>181.83</ele>
        <time>2021-08-19T12:20:10Z</time>
      </trkpt>
      <trkpt lat="43.46807" lon="0.03041">
        <ele>180.38</ele>
        <time>2021-08-19T12:20:14Z</time>
      </trkpt>
      <trkpt lat="43.46807" lon="0.03016">
        <ele>179.9</ele>
        <time>2021-08-19T12:20:17Z</time>
      </trkpt>
      <trkpt lat="43.46806" lon="0.03006">
        <ele>179.9</ele>
        <time>2021-08-19T12:20:18Z</time>
      </trkpt>
      <trkpt lat="43.46801" lon="0.02925">
        <ele>178.94</ele>
        <time>2021-08-19T12:20:27Z</time>
      </trkpt>
      <trkpt lat="43.46799" lon="0.0286">
        <ele>178.94</ele>
        <time>2021-08-19T12:20:35Z</time>
      </trkpt>
      <trkpt lat="43.46797" lon="0.02837">
        <ele>178.94</ele>
        <time>2021-08-19T12:20:38Z</time>
      </trkpt>
      <trkpt lat="43.46798" lon="0.02822">
        <ele>179.9</ele>
        <time>2021-08-19T12:20:40Z</time>
      </trkpt>
      <trkpt lat="43.46797" lon="0.02795">
        <ele>181.35</ele>
        <time>2021-08-19T12:20:44Z</time>
      </trkpt>
      <trkpt lat="43.46793" lon="0.02763">
        <ele>181.35</ele>
        <time>2021-08-19T12:20:49Z</time>
      </trkpt>
      <trkpt lat="43.46789" lon="0.02761">
        <ele>181.35</ele>
        <time>2021-08-19T12:20:50Z</time>
      </trkpt>
      <trkpt lat="43.46784" lon="0.02761">
        <ele>181.35</ele>
        <time>2021-08-19T12:20:51Z</time>
      </trkpt>
      <trkpt lat="43.46779" lon="0.02761">
        <ele>181.35</ele>
        <time>2021-08-19T12:20:52Z</time>
      </trkpt>
      <trkpt lat="43.46774" lon="0.02763">
        <ele>179.9</ele>
        <time>2021-08-19T12:20:53Z</time>
      </trkpt>
      <trkpt lat="43.46768" lon="0.02766">
        <ele>179.9</ele>
        <time>2021-08-19T12:20:54Z</time>
      </trkpt>
      <trkpt lat="43.46763" lon="0.02771">
        <ele>178.94</ele>
        <time>2021-08-19T12:20:55Z</time>
      </trkpt>
      <trkpt lat="43.46758" lon="0.02776">
        <ele>178.94</ele>
        <time>2021-08-19T12:20:56Z</time>
      </trkpt>
      <trkpt lat="43.46754" lon="0.02781">
        <ele>178.94</ele>
        <time>2021-08-19T12:20:57Z</time>
      </trkpt>
      <trkpt lat="43.4675" lon="0.02788">
        <ele>178.94</ele>
        <time>2021-08-19T12:20:58Z</time>
      </trkpt>
      <trkpt lat="43.46747" lon="0.02795">
        <ele>178.94</ele>
        <time>2021-08-19T12:20:59Z</time>
      </trkpt>
      <trkpt lat="43.46743" lon="0.02801">
        <ele>178.94</ele>
        <time>2021-08-19T12:21:00Z</time>
      </trkpt>
      <trkpt lat="43.46739" lon="0.02807">
        <ele>178.94</ele>
        <time>2021-08-19T12:21:01Z</time>
      </trkpt>
      <trkpt lat="43.46735" lon="0.02812">
        <ele>178.94</ele>
        <time>2021-08-19T12:21:02Z</time>
      </trkpt>
      <trkpt lat="43.4673" lon="0.02817">
        <ele>178.94</ele>
        <time>2021-08-19T12:21:03Z</time>
      </trkpt>
      <trkpt lat="43.4669" lon="0.02852">
        <ele>178.46</ele>
        <time>2021-08-19T12:21:11Z</time>
      </trkpt>
      <trkpt lat="43.46637" lon="0.02895">
        <ele>178.46</ele>
        <time>2021-08-19T12:21:22Z</time>
      </trkpt>
      <trkpt lat="43.46596" lon="0.02927">
        <ele>178.46</ele>
        <time>2021-08-19T12:21:31Z</time>
      </trkpt>
      <trkpt lat="43.46591" lon="0.02929">
        <ele>178.46</ele>
        <time>2021-08-19T12:21:32Z</time>
      </trkpt>
      <trkpt lat="43.46586" lon="0.02931">
        <ele>178.46</ele>
        <time>2021-08-19T12:21:33Z</time>
      </trkpt>
      <trkpt lat="43.46581" lon="0.02931">
        <ele>178.46</ele>
        <time>2021-08-19T12:21:34Z</time>
      </trkpt>
      <trkpt lat="43.46576" lon="0.0293">
        <ele>179.9</ele>
        <time>2021-08-19T12:21:35Z</time>
      </trkpt>
      <trkpt lat="43.46571" lon="0.02928">
        <ele>179.9</ele>
        <time>2021-08-19T12:21:36Z</time>
      </trkpt>
      <trkpt lat="43.46567" lon="0.02923">
        <ele>179.9</ele>
        <time>2021-08-19T12:21:37Z</time>
      </trkpt>
      <trkpt lat="43.46564" lon="0.02918">
        <ele>179.9</ele>
        <time>2021-08-19T12:21:38Z</time>
      </trkpt>
      <trkpt lat="43.46561" lon="0.02912">
        <ele>179.9</ele>
        <time>2021-08-19T12:21:39Z</time>
      </trkpt>
      <trkpt lat="43.46556" lon="0.02901">
        <ele>179.9</ele>
        <time>2021-08-19T12:21:41Z</time>
      </trkpt>
      <trkpt lat="43.46553" lon="0.02895">
        <ele>179.9</ele>
        <time>2021-08-19T12:21:42Z</time>
      </trkpt>
      <trkpt lat="43.46552" lon="0.02888">
        <ele>179.9</ele>
        <time>2021-08-19T12:21:43Z</time>
      </trkpt>
      <trkpt lat="43.46542" lon="0.02833">
        <ele>179.9</ele>
        <time>2021-08-19T12:21:51Z</time>
      </trkpt>
      <trkpt lat="43.46532" lon="0.02753">
        <ele>179.9</ele>
        <time>2021-08-19T12:22:02Z</time>
      </trkpt>
      <trkpt lat="43.46527" lon="0.02695">
        <ele>179.9</ele>
        <time>2021-08-19T12:22:10Z</time>
      </trkpt>
      <trkpt lat="43.46526" lon="0.02687">
        <ele>179.9</ele>
        <time>2021-08-19T12:22:11Z</time>
      </trkpt>
      <trkpt lat="43.46525" lon="0.02679">
        <ele>179.9</ele>
        <time>2021-08-19T12:22:12Z</time>
      </trkpt>
      <trkpt lat="43.46525" lon="0.02671">
        <ele>179.9</ele>
        <time>2021-08-19T12:22:13Z</time>
      </trkpt>
      <trkpt lat="43.46525" lon="0.02608">
        <ele>179.9</ele>
        <time>2021-08-19T12:22:21Z</time>
      </trkpt>
      <trkpt lat="43.46522" lon="0.02522">
        <ele>179.9</ele>
        <time>2021-08-19T12:22:32Z</time>
      </trkpt>
      <trkpt lat="43.46521" lon="0.02497">
        <ele>179.9</ele>
        <time>2021-08-19T12:22:35Z</time>
      </trkpt>
      <trkpt lat="43.46521" lon="0.02488">
        <ele>179.9</ele>
        <time>2021-08-19T12:22:36Z</time>
      </trkpt>
      <trkpt lat="43.4652" lon="0.02473">
        <ele>179.9</ele>
        <time>2021-08-19T12:22:38Z</time>
      </trkpt>
      <trkpt lat="43.46509" lon="0.02392">
        <ele>179.9</ele>
        <time>2021-08-19T12:22:48Z</time>
      </trkpt>
      <trkpt lat="43.46492" lon="0.02311">
        <ele>179.9</ele>
        <time>2021-08-19T12:22:58Z</time>
      </trkpt>
      <trkpt lat="43.46466" lon="0.02224">
        <ele>180.38</ele>
        <time>2021-08-19T12:23:09Z</time>
      </trkpt>
      <trkpt lat="43.46452" lon="0.02186">
        <ele>180.38</ele>
        <time>2021-08-19T12:23:14Z</time>
      </trkpt>
      <trkpt lat="43.4645" lon="0.02179">
        <ele>180.38</ele>
        <time>2021-08-19T12:23:15Z</time>
      </trkpt>
      <trkpt lat="43.46441" lon="0.02127">
        <ele>180.87</ele>
        <time>2021-08-19T12:23:22Z</time>
      </trkpt>
      <trkpt lat="43.46437" lon="0.021">
        <ele>181.35</ele>
        <time>2021-08-19T12:23:27Z</time>
      </trkpt>
      <trkpt lat="43.46431" lon="0.02054">
        <ele>181.35</ele>
        <time>2021-08-19T12:23:34Z</time>
      </trkpt>
      <trkpt lat="43.4643" lon="0.02048">
        <ele>181.35</ele>
        <time>2021-08-19T12:23:35Z</time>
      </trkpt>
      <trkpt lat="43.46414" lon="0.0199">
        <ele>181.35</ele>
        <time>2021-08-19T12:23:44Z</time>
      </trkpt>
      <trkpt lat="43.46395" lon="0.01923">
        <ele>181.35</ele>
        <time>2021-08-19T12:23:55Z</time>
      </trkpt>
      <trkpt lat="43.4638" lon="0.01871">
        <ele>181.35</ele>
        <time>2021-08-19T12:24:04Z</time>
      </trkpt>
      <trkpt lat="43.46379" lon="0.01864">
        <ele>181.35</ele>
        <time>2021-08-19T12:24:05Z</time>
      </trkpt>
      <trkpt lat="43.46374" lon="0.01838">
        <ele>181.35</ele>
        <time>2021-08-19T12:24:09Z</time>
      </trkpt>
      <trkpt lat="43.46367" lon="0.01799">
        <ele>181.35</ele>
        <time>2021-08-19T12:24:15Z</time>
      </trkpt>
      <trkpt lat="43.46365" lon="0.01793">
        <ele>181.35</ele>
        <time>2021-08-19T12:24:16Z</time>
      </trkpt>
      <trkpt lat="43.46364" lon="0.01786">
        <ele>181.35</ele>
        <time>2021-08-19T12:24:17Z</time>
      </trkpt>
      <trkpt lat="43.46361" lon="0.01767">
        <ele>181.35</ele>
        <time>2021-08-19T12:24:20Z</time>
      </trkpt>
      <trkpt lat="43.4636" lon="0.0176">
        <ele>180.87</ele>
        <time>2021-08-19T12:24:21Z</time>
      </trkpt>
      <trkpt lat="43.46358" lon="0.0174">
        <ele>180.87</ele>
        <time>2021-08-19T12:24:24Z</time>
      </trkpt>
      <trkpt lat="43.46352" lon="0.01701">
        <ele>180.87</ele>
        <time>2021-08-19T12:24:30Z</time>
      </trkpt>
      <trkpt lat="43.46341" lon="0.01634">
        <ele>180.87</ele>
        <time>2021-08-19T12:24:41Z</time>
      </trkpt>
      <trkpt lat="43.46334" lon="0.01604">
        <ele>180.87</ele>
        <time>2021-08-19T12:24:47Z</time>
      </trkpt>
      <trkpt lat="43.46328" lon="0.01586">
        <ele>180.87</ele>
        <time>2021-08-19T12:24:50Z</time>
      </trkpt>
      <trkpt lat="43.46325" lon="0.01581">
        <ele>180.87</ele>
        <time>2021-08-19T12:24:51Z</time>
      </trkpt>
      <trkpt lat="43.46324" lon="0.01577">
        <ele>180.87</ele>
        <time>2021-08-19T12:24:52Z</time>
      </trkpt>
      <trkpt lat="43.46324" lon="0.01575">
        <ele>181.35</ele>
        <time>2021-08-19T12:24:55Z</time>
      </trkpt>
      <trkpt lat="43.46325" lon="0.01574">
        <ele>181.35</ele>
        <time>2021-08-19T12:24:59Z</time>
      </trkpt>
      <trkpt lat="43.46325" lon="0.0157">
        <ele>181.35</ele>
        <time>2021-08-19T12:25:07Z</time>
      </trkpt>
      <trkpt lat="43.46324" lon="0.01562">
        <ele>181.35</ele>
        <time>2021-08-19T12:25:15Z</time>
      </trkpt>
      <trkpt lat="43.46324" lon="0.01561">
        <ele>181.35</ele>
        <time>2021-08-19T12:25:16Z</time>
      </trkpt>
      <trkpt lat="43.46323" lon="0.0156">
        <ele>181.35</ele>
        <time>2021-08-19T12:25:17Z</time>
      </trkpt>
      <trkpt lat="43.46323" lon="0.01556">
        <ele>181.35</ele>
        <time>2021-08-19T12:25:25Z</time>
      </trkpt>
      <trkpt lat="43.46321" lon="0.01556">
        <ele>181.35</ele>
        <time>2021-08-19T12:25:49Z</time>
      </trkpt>
      <trkpt lat="43.4632" lon="0.01556">
        <ele>181.35</ele>
        <time>2021-08-19T12:26:06Z</time>
      </trkpt>
      <trkpt lat="43.46319" lon="0.01556">
        <ele>181.35</ele>
        <time>2021-08-19T12:26:18Z</time>
      </trkpt>
      <trkpt lat="43.46321" lon="0.01556">
        <ele>181.35</ele>
        <time>2021-08-19T12:26:37Z</time>
      </trkpt>
      <trkpt lat="43.46321" lon="0.01557">
        <ele>181.35</ele>
        <time>2021-08-19T12:26:43Z</time>
      </trkpt>
      <trkpt lat="43.46322" lon="0.01558">
        <ele>181.35</ele>
        <time>2021-08-19T12:26:49Z</time>
      </trkpt>
      <trkpt lat="43.4632" lon="0.01557">
        <ele>181.35</ele>
        <time>2021-08-19T12:27:03Z</time>
      </trkpt>
      <trkpt lat="43.4632" lon="0.01555">
        <ele>181.35</ele>
        <time>2021-08-19T12:27:10Z</time>
      </trkpt>
      <trkpt lat="43.4632" lon="0.01553">
        <ele>181.35</ele>
        <time>2021-08-19T12:27:12Z</time>
      </trkpt>
      <trkpt lat="43.46319" lon="0.01551">
        <ele>181.35</ele>
        <time>2021-08-19T12:27:13Z</time>
      </trkpt>
      <trkpt lat="43.46318" lon="0.01532">
        <ele>181.35</ele>
        <time>2021-08-19T12:27:19Z</time>
      </trkpt>
      <trkpt lat="43.46315" lon="0.01496">
        <ele>181.35</ele>
        <time>2021-08-19T12:27:26Z</time>
      </trkpt>
      <trkpt lat="43.46308" lon="0.01462">
        <ele>181.35</ele>
        <time>2021-08-19T12:27:33Z</time>
      </trkpt>
      <trkpt lat="43.46298" lon="0.01416">
        <ele>181.35</ele>
        <time>2021-08-19T12:27:41Z</time>
      </trkpt>
      <trkpt lat="43.46296" lon="0.0141">
        <ele>181.35</ele>
        <time>2021-08-19T12:27:42Z</time>
      </trkpt>
      <trkpt lat="43.46291" lon="0.01372">
        <ele>179.9</ele>
        <time>2021-08-19T12:27:49Z</time>
      </trkpt>
      <trkpt lat="43.46288" lon="0.0133">
        <ele>179.9</ele>
        <time>2021-08-19T12:27:56Z</time>
      </trkpt>
      <trkpt lat="43.46287" lon="0.01324">
        <ele>179.9</ele>
        <time>2021-08-19T12:27:57Z</time>
      </trkpt>
      <trkpt lat="43.46283" lon="0.01307">
        <ele>179.9</ele>
        <time>2021-08-19T12:28:00Z</time>
      </trkpt>
      <trkpt lat="43.46272" lon="0.01279">
        <ele>179.9</ele>
        <time>2021-08-19T12:28:05Z</time>
      </trkpt>
      <trkpt lat="43.46248" lon="0.01231">
        <ele>181.35</ele>
        <time>2021-08-19T12:28:14Z</time>
      </trkpt>
      <trkpt lat="43.46243" lon="0.0122">
        <ele>181.35</ele>
        <time>2021-08-19T12:28:16Z</time>
      </trkpt>
      <trkpt lat="43.46241" lon="0.01214">
        <ele>181.35</ele>
        <time>2021-08-19T12:28:17Z</time>
      </trkpt>
      <trkpt lat="43.4624" lon="0.01208">
        <ele>181.35</ele>
        <time>2021-08-19T12:28:18Z</time>
      </trkpt>
      <trkpt lat="43.46239" lon="0.01202">
        <ele>181.35</ele>
        <time>2021-08-19T12:28:19Z</time>
      </trkpt>
      <trkpt lat="43.46239" lon="0.01196">
        <ele>181.35</ele>
        <time>2021-08-19T12:28:20Z</time>
      </trkpt>
      <trkpt lat="43.46237" lon="0.01134">
        <ele>181.35</ele>
        <time>2021-08-19T12:28:30Z</time>
      </trkpt>
      <trkpt lat="43.46234" lon="0.01056">
        <ele>181.35</ele>
        <time>2021-08-19T12:28:42Z</time>
      </trkpt>
      <trkpt lat="43.46231" lon="0.00988">
        <ele>181.35</ele>
        <time>2021-08-19T12:28:53Z</time>
      </trkpt>
      <trkpt lat="43.46222" lon="0.00934">
        <ele>181.35</ele>
        <time>2021-08-19T12:29:02Z</time>
      </trkpt>
      <trkpt lat="43.46214" lon="0.00886">
        <ele>182.31</ele>
        <time>2021-08-19T12:29:10Z</time>
      </trkpt>
      <trkpt lat="43.46214" lon="0.00881">
        <ele>181.83</ele>
        <time>2021-08-19T12:29:11Z</time>
      </trkpt>
      <trkpt lat="43.46215" lon="0.00876">
        <ele>181.83</ele>
        <time>2021-08-19T12:29:12Z</time>
      </trkpt>
      <trkpt lat="43.46217" lon="0.00871">
        <ele>181.83</ele>
        <time>2021-08-19T12:29:13Z</time>
      </trkpt>
      <trkpt lat="43.4622" lon="0.00868">
        <ele>181.83</ele>
        <time>2021-08-19T12:29:14Z</time>
      </trkpt>
      <trkpt lat="43.46222" lon="0.00864">
        <ele>181.83</ele>
        <time>2021-08-19T12:29:15Z</time>
      </trkpt>
      <trkpt lat="43.46225" lon="0.00861">
        <ele>181.83</ele>
        <time>2021-08-19T12:29:16Z</time>
      </trkpt>
      <trkpt lat="43.46228" lon="0.00858">
        <ele>181.83</ele>
        <time>2021-08-19T12:29:17Z</time>
      </trkpt>
      <trkpt lat="43.46242" lon="0.00827">
        <ele>182.31</ele>
        <time>2021-08-19T12:29:24Z</time>
      </trkpt>
      <trkpt lat="43.46237" lon="0.00797">
        <ele>183.27</ele>
        <time>2021-08-19T12:29:30Z</time>
      </trkpt>
      <trkpt lat="43.46229" lon="0.00768">
        <ele>184.23</ele>
        <time>2021-08-19T12:29:37Z</time>
      </trkpt>
      <trkpt lat="43.4622" lon="0.00735">
        <ele>184.71</ele>
        <time>2021-08-19T12:29:46Z</time>
      </trkpt>
      <trkpt lat="43.46217" lon="0.00716">
        <ele>186.15</ele>
        <time>2021-08-19T12:29:53Z</time>
      </trkpt>
      <trkpt lat="43.46217" lon="0.00712">
        <ele>186.63</ele>
        <time>2021-08-19T12:29:55Z</time>
      </trkpt>
      <trkpt lat="43.46216" lon="0.00708">
        <ele>186.63</ele>
        <time>2021-08-19T12:29:58Z</time>
      </trkpt>
      <trkpt lat="43.46215" lon="0.00706">
        <ele>187.11</ele>
        <time>2021-08-19T12:29:59Z</time>
      </trkpt>
      <trkpt lat="43.46214" lon="0.00704">
        <ele>187.11</ele>
        <time>2021-08-19T12:30:00Z</time>
      </trkpt>
      <trkpt lat="43.46214" lon="0.00703">
        <ele>187.11</ele>
        <time>2021-08-19T12:30:01Z</time>
      </trkpt>
      <trkpt lat="43.46213" lon="0.00701">
        <ele>187.59</ele>
        <time>2021-08-19T12:30:02Z</time>
      </trkpt>
      <trkpt lat="43.46213" lon="0.00699">
        <ele>187.59</ele>
        <time>2021-08-19T12:30:03Z</time>
      </trkpt>
      <trkpt lat="43.46209" lon="0.00683">
        <ele>188.56</ele>
        <time>2021-08-19T12:30:12Z</time>
      </trkpt>
      <trkpt lat="43.46204" lon="0.00669">
        <ele>190</ele>
        <time>2021-08-19T12:30:20Z</time>
      </trkpt>
      <trkpt lat="43.462" lon="0.00651">
        <ele>191.44</ele>
        <time>2021-08-19T12:30:29Z</time>
      </trkpt>
      <trkpt lat="43.46196" lon="0.00632">
        <ele>192.88</ele>
        <time>2021-08-19T12:30:37Z</time>
      </trkpt>
      <trkpt lat="43.4619" lon="0.0061">
        <ele>193.36</ele>
        <time>2021-08-19T12:30:46Z</time>
      </trkpt>
      <trkpt lat="43.46187" lon="0.00599">
        <ele>194.32</ele>
        <time>2021-08-19T12:30:52Z</time>
      </trkpt>
      <trkpt lat="43.46185" lon="0.0058">
        <ele>195.77</ele>
        <time>2021-08-19T12:31:01Z</time>
      </trkpt>
      <trkpt lat="43.46183" lon="0.00564">
        <ele>197.21</ele>
        <time>2021-08-19T12:31:09Z</time>
      </trkpt>
      <trkpt lat="43.46183" lon="0.00562">
        <ele>197.21</ele>
        <time>2021-08-19T12:31:10Z</time>
      </trkpt>
      <trkpt lat="43.46182" lon="0.0056">
        <ele>197.69</ele>
        <time>2021-08-19T12:31:11Z</time>
      </trkpt>
      <trkpt lat="43.46181" lon="0.00554">
        <ele>197.69</ele>
        <time>2021-08-19T12:31:14Z</time>
      </trkpt>
      <trkpt lat="43.46181" lon="0.00552">
        <ele>197.69</ele>
        <time>2021-08-19T12:31:15Z</time>
      </trkpt>
      <trkpt lat="43.4618" lon="0.0055">
        <ele>198.17</ele>
        <time>2021-08-19T12:31:16Z</time>
      </trkpt>
      <trkpt lat="43.46179" lon="0.00532">
        <ele>199.13</ele>
        <time>2021-08-19T12:31:24Z</time>
      </trkpt>
      <trkpt lat="43.46178" lon="0.00521">
        <ele>199.61</ele>
        <time>2021-08-19T12:31:29Z</time>
      </trkpt>
      <trkpt lat="43.46178" lon="0.00519">
        <ele>199.61</ele>
        <time>2021-08-19T12:31:30Z</time>
      </trkpt>
      <trkpt lat="43.46178" lon="0.00517">
        <ele>200.09</ele>
        <time>2021-08-19T12:31:31Z</time>
      </trkpt>
      <trkpt lat="43.46178" lon="0.00515">
        <ele>200.09</ele>
        <time>2021-08-19T12:31:32Z</time>
      </trkpt>
      <trkpt lat="43.46178" lon="0.00513">
        <ele>200.09</ele>
        <time>2021-08-19T12:31:33Z</time>
      </trkpt>
      <trkpt lat="43.46176" lon="0.005">
        <ele>201.05</ele>
        <time>2021-08-19T12:31:40Z</time>
      </trkpt>
      <trkpt lat="43.46173" lon="0.00481">
        <ele>202.98</ele>
        <time>2021-08-19T12:31:49Z</time>
      </trkpt>
      <trkpt lat="43.46172" lon="0.0046">
        <ele>203.94</ele>
        <time>2021-08-19T12:31:58Z</time>
      </trkpt>
      <trkpt lat="43.4617" lon="0.00452">
        <ele>204.42</ele>
        <time>2021-08-19T12:32:01Z</time>
      </trkpt>
      <trkpt lat="43.4617" lon="0.0045">
        <ele>204.9</ele>
        <time>2021-08-19T12:32:02Z</time>
      </trkpt>
      <trkpt lat="43.4617" lon="0.00447">
        <ele>204.9</ele>
        <time>2021-08-19T12:32:03Z</time>
      </trkpt>
      <trkpt lat="43.4617" lon="0.00429">
        <ele>206.34</ele>
        <time>2021-08-19T12:32:11Z</time>
      </trkpt>
      <trkpt lat="43.46165" lon="0.0041">
        <ele>207.78</ele>
        <time>2021-08-19T12:32:20Z</time>
      </trkpt>
      <trkpt lat="43.46161" lon="0.00394">
        <ele>209.7</ele>
        <time>2021-08-19T12:32:27Z</time>
      </trkpt>
      <trkpt lat="43.46158" lon="0.00378">
        <ele>210.67</ele>
        <time>2021-08-19T12:32:34Z</time>
      </trkpt>
      <trkpt lat="43.46157" lon="0.00363">
        <ele>212.11</ele>
        <time>2021-08-19T12:32:41Z</time>
      </trkpt>
      <trkpt lat="43.46156" lon="0.00353">
        <ele>212.59</ele>
        <time>2021-08-19T12:32:46Z</time>
      </trkpt>
      <trkpt lat="43.46156" lon="0.0035">
        <ele>213.07</ele>
        <time>2021-08-19T12:32:47Z</time>
      </trkpt>
      <trkpt lat="43.46156" lon="0.00348">
        <ele>213.07</ele>
        <time>2021-08-19T12:32:48Z</time>
      </trkpt>
      <trkpt lat="43.46156" lon="0.00345">
        <ele>213.07</ele>
        <time>2021-08-19T12:32:49Z</time>
      </trkpt>
      <trkpt lat="43.46156" lon="0.00343">
        <ele>213.55</ele>
        <time>2021-08-19T12:32:50Z</time>
      </trkpt>
      <trkpt lat="43.46156" lon="0.0034">
        <ele>213.55</ele>
        <time>2021-08-19T12:32:51Z</time>
      </trkpt>
      <trkpt lat="43.46155" lon="0.00338">
        <ele>213.55</ele>
        <time>2021-08-19T12:32:52Z</time>
      </trkpt>
      <trkpt lat="43.46155" lon="0.00336">
        <ele>214.51</ele>
        <time>2021-08-19T12:32:53Z</time>
      </trkpt>
      <trkpt lat="43.46154" lon="0.00334">
        <ele>214.51</ele>
        <time>2021-08-19T12:32:54Z</time>
      </trkpt>
      <trkpt lat="43.46154" lon="0.0033">
        <ele>214.99</ele>
        <time>2021-08-19T12:32:56Z</time>
      </trkpt>
      <trkpt lat="43.46154" lon="0.00327">
        <ele>214.99</ele>
        <time>2021-08-19T12:32:57Z</time>
      </trkpt>
      <trkpt lat="43.46153" lon="0.00325">
        <ele>215.47</ele>
        <time>2021-08-19T12:32:58Z</time>
      </trkpt>
      <trkpt lat="43.46153" lon="0.00323">
        <ele>215.47</ele>
        <time>2021-08-19T12:32:59Z</time>
      </trkpt>
      <trkpt lat="43.46153" lon="0.0032">
        <ele>215.47</ele>
        <time>2021-08-19T12:33:00Z</time>
      </trkpt>
      <trkpt lat="43.46153" lon="0.00318">
        <ele>215.95</ele>
        <time>2021-08-19T12:33:01Z</time>
      </trkpt>
      <trkpt lat="43.46153" lon="0.00314">
        <ele>215.95</ele>
        <time>2021-08-19T12:33:03Z</time>
      </trkpt>
      <trkpt lat="43.46153" lon="0.00311">
        <ele>216.91</ele>
        <time>2021-08-19T12:33:04Z</time>
      </trkpt>
      <trkpt lat="43.46151" lon="0.00301">
        <ele>217.4</ele>
        <time>2021-08-19T12:33:10Z</time>
      </trkpt>
      <trkpt lat="43.4615" lon="0.00288">
        <ele>218.36</ele>
        <time>2021-08-19T12:33:18Z</time>
      </trkpt>
      <trkpt lat="43.46148" lon="0.00277">
        <ele>219.32</ele>
        <time>2021-08-19T12:33:26Z</time>
      </trkpt>
      <trkpt lat="43.46146" lon="0.00268">
        <ele>220.76</ele>
        <time>2021-08-19T12:33:33Z</time>
      </trkpt>
      <trkpt lat="43.46145" lon="0.0026">
        <ele>221.24</ele>
        <time>2021-08-19T12:33:40Z</time>
      </trkpt>
      <trkpt lat="43.46144" lon="0.0025">
        <ele>223.64</ele>
        <time>2021-08-19T12:33:50Z</time>
      </trkpt>
      <trkpt lat="43.46143" lon="0.0024">
        <ele>224.12</ele>
        <time>2021-08-19T12:33:59Z</time>
      </trkpt>
      <trkpt lat="43.46141" lon="0.00235">
        <ele>224.61</ele>
        <time>2021-08-19T12:34:08Z</time>
      </trkpt>
      <trkpt lat="43.46142" lon="0.0022">
        <ele>225.57</ele>
        <time>2021-08-19T12:34:14Z</time>
      </trkpt>
      <trkpt lat="43.46136" lon="0.00192">
        <ele>227.01</ele>
        <time>2021-08-19T12:34:24Z</time>
      </trkpt>
      <trkpt lat="43.46137" lon="0.00188">
        <ele>227.01</ele>
        <time>2021-08-19T12:34:26Z</time>
      </trkpt>
      <trkpt lat="43.46137" lon="0.00185">
        <ele>227.01</ele>
        <time>2021-08-19T12:34:27Z</time>
      </trkpt>
      <trkpt lat="43.46137" lon="0.00183">
        <ele>227.01</ele>
        <time>2021-08-19T12:34:28Z</time>
      </trkpt>
      <trkpt lat="43.46137" lon="0.00171">
        <ele>225.57</ele>
        <time>2021-08-19T12:34:31Z</time>
      </trkpt>
      <trkpt lat="43.46133" lon="0.00134">
        <ele>222.68</ele>
        <time>2021-08-19T12:34:38Z</time>
      </trkpt>
      <trkpt lat="43.46132" lon="0.00128">
        <ele>222.2</ele>
        <time>2021-08-19T12:34:39Z</time>
      </trkpt>
      <trkpt lat="43.46128" lon="0.00114">
        <ele>221.72</ele>
        <time>2021-08-19T12:34:41Z</time>
      </trkpt>
      <trkpt lat="43.46126" lon="0.00107">
        <ele>220.76</ele>
        <time>2021-08-19T12:34:42Z</time>
      </trkpt>
      <trkpt lat="43.46123" lon="0.001">
        <ele>219.8</ele>
        <time>2021-08-19T12:34:43Z</time>
      </trkpt>
      <trkpt lat="43.4612" lon="0.00094">
        <ele>219.8</ele>
        <time>2021-08-19T12:34:44Z</time>
      </trkpt>
      <trkpt lat="43.46117" lon="0.00088">
        <ele>219.8</ele>
        <time>2021-08-19T12:34:45Z</time>
      </trkpt>
      <trkpt lat="43.46115" lon="0.00084">
        <ele>219.8</ele>
        <time>2021-08-19T12:34:46Z</time>
      </trkpt>
      <trkpt lat="43.46114" lon="0.0008">
        <ele>219.8</ele>
        <time>2021-08-19T12:34:47Z</time>
      </trkpt>
      <trkpt lat="43.46114" lon="0.00076">
        <ele>220.28</ele>
        <time>2021-08-19T12:34:52Z</time>
      </trkpt>
      <trkpt lat="43.46112" lon="0.00069">
        <ele>219.8</ele>
        <time>2021-08-19T12:35:00Z</time>
      </trkpt>
      <trkpt lat="43.46109" lon="0.00062">
        <ele>219.8</ele>
        <time>2021-08-19T12:35:07Z</time>
      </trkpt>
      <trkpt lat="43.46109" lon="0.00055">
        <ele>219.8</ele>
        <time>2021-08-19T12:35:15Z</time>
      </trkpt>
      <trkpt lat="43.46109" lon="0.00053">
        <ele>219.8</ele>
        <time>2021-08-19T12:35:16Z</time>
      </trkpt>
      <trkpt lat="43.4611" lon="0.00047">
        <ele>219.8</ele>
        <time>2021-08-19T12:35:20Z</time>
      </trkpt>
      <trkpt lat="43.46111" lon="0.00045">
        <ele>219.8</ele>
        <time>2021-08-19T12:35:21Z</time>
      </trkpt>
      <trkpt lat="43.46114" lon="0.00035">
        <ele>221.24</ele>
        <time>2021-08-19T12:35:26Z</time>
      </trkpt>
      <trkpt lat="43.46116" lon="0.00028">
        <ele>221.72</ele>
        <time>2021-08-19T12:35:29Z</time>
      </trkpt>
      <trkpt lat="43.46116" lon="0.00026">
        <ele>221.72</ele>
        <time>2021-08-19T12:35:30Z</time>
      </trkpt>
      <trkpt lat="43.46116" lon="0.00023">
        <ele>221.72</ele>
        <time>2021-08-19T12:35:31Z</time>
      </trkpt>
      <trkpt lat="43.46117" lon="7.0E-5">
        <ele>222.2</ele>
        <time>2021-08-19T12:35:37Z</time>
      </trkpt>
      <trkpt lat="43.46117" lon="4.0E-5">
        <ele>222.68</ele>
        <time>2021-08-19T12:35:38Z</time>
      </trkpt>
      <trkpt lat="43.46117" lon="2.0E-5">
        <ele>222.68</ele>
        <time>2021-08-19T12:35:39Z</time>
      </trkpt>
      <trkpt lat="43.46117" lon="-1.0E-5">
        <ele>223.16</ele>
        <time>2021-08-19T12:35:45Z</time>
      </trkpt>
      <trkpt lat="43.46116" lon="-0.00011">
        <ele>224.61</ele>
        <time>2021-08-19T12:35:53Z</time>
      </trkpt>
      <trkpt lat="43.46117" lon="-0.00022">
        <ele>225.09</ele>
        <time>2021-08-19T12:36:00Z</time>
      </trkpt>
      <trkpt lat="43.46113" lon="-0.00028">
        <ele>225.09</ele>
        <time>2021-08-19T12:36:08Z</time>
      </trkpt>
      <trkpt lat="43.46112" lon="-0.00029">
        <ele>225.09</ele>
        <time>2021-08-19T12:36:09Z</time>
      </trkpt>
      <trkpt lat="43.4611" lon="-0.00029">
        <ele>225.09</ele>
        <time>2021-08-19T12:36:10Z</time>
      </trkpt>
      <trkpt lat="43.46109" lon="-0.00029">
        <ele>225.09</ele>
        <time>2021-08-19T12:36:11Z</time>
      </trkpt>
      <trkpt lat="43.46107" lon="-0.0003">
        <ele>225.09</ele>
        <time>2021-08-19T12:36:12Z</time>
      </trkpt>
      <trkpt lat="43.46091" lon="-0.00037">
        <ele>225.57</ele>
        <time>2021-08-19T12:36:18Z</time>
      </trkpt>
      <trkpt lat="43.46061" lon="-0.00053">
        <ele>225.57</ele>
        <time>2021-08-19T12:36:27Z</time>
      </trkpt>
      <trkpt lat="43.46025" lon="-0.00071">
        <ele>226.53</ele>
        <time>2021-08-19T12:36:36Z</time>
      </trkpt>
      <trkpt lat="43.46021" lon="-0.00072">
        <ele>226.53</ele>
        <time>2021-08-19T12:36:37Z</time>
      </trkpt>
      <trkpt lat="43.46002" lon="-0.00083">
        <ele>226.53</ele>
        <time>2021-08-19T12:36:42Z</time>
      </trkpt>
      <trkpt lat="43.45999" lon="-0.00085">
        <ele>227.01</ele>
        <time>2021-08-19T12:36:43Z</time>
      </trkpt>
      <trkpt lat="43.45996" lon="-0.00087">
        <ele>227.01</ele>
        <time>2021-08-19T12:36:44Z</time>
      </trkpt>
      <trkpt lat="43.45959" lon="-0.00103">
        <ele>227.49</ele>
        <time>2021-08-19T12:36:54Z</time>
      </trkpt>
      <trkpt lat="43.45938" lon="-0.00107">
        <ele>228.93</ele>
        <time>2021-08-19T12:37:01Z</time>
      </trkpt>
      <trkpt lat="43.4592" lon="-0.00122">
        <ele>229.41</ele>
        <time>2021-08-19T12:37:08Z</time>
      </trkpt>
      <trkpt lat="43.45902" lon="-0.00133">
        <ele>230.85</ele>
        <time>2021-08-19T12:37:16Z</time>
      </trkpt>
      <trkpt lat="43.45885" lon="-0.00142">
        <ele>232.3</ele>
        <time>2021-08-19T12:37:25Z</time>
      </trkpt>
      <trkpt lat="43.45871" lon="-0.00147">
        <ele>233.26</ele>
        <time>2021-08-19T12:37:32Z</time>
      </trkpt>
      <trkpt lat="43.45853" lon="-0.00153">
        <ele>234.7</ele>
        <time>2021-08-19T12:37:41Z</time>
      </trkpt>
      <trkpt lat="43.45834" lon="-0.00152">
        <ele>235.66</ele>
        <time>2021-08-19T12:37:49Z</time>
      </trkpt>
      <trkpt lat="43.4582" lon="-0.00139">
        <ele>234.22</ele>
        <time>2021-08-19T12:37:56Z</time>
      </trkpt>
      <trkpt lat="43.45801" lon="-0.00131">
        <ele>233.26</ele>
        <time>2021-08-19T12:38:02Z</time>
      </trkpt>
      <trkpt lat="43.45797" lon="-0.0013">
        <ele>234.7</ele>
        <time>2021-08-19T12:38:04Z</time>
      </trkpt>
      <trkpt lat="43.45788" lon="-0.00128">
        <ele>235.18</ele>
        <time>2021-08-19T12:38:09Z</time>
      </trkpt>
      <trkpt lat="43.45769" lon="-0.00125">
        <ele>233.74</ele>
        <time>2021-08-19T12:38:14Z</time>
      </trkpt>
      <trkpt lat="43.45752" lon="-0.00119">
        <ele>233.26</ele>
        <time>2021-08-19T12:38:19Z</time>
      </trkpt>
      <trkpt lat="43.45742" lon="-0.00118">
        <ele>234.7</ele>
        <time>2021-08-19T12:38:24Z</time>
      </trkpt>
      <trkpt lat="43.45738" lon="-0.00117">
        <ele>235.18</ele>
        <time>2021-08-19T12:38:27Z</time>
      </trkpt>
      <trkpt lat="43.45727" lon="-0.00113">
        <ele>234.22</ele>
        <time>2021-08-19T12:38:33Z</time>
      </trkpt>
      <trkpt lat="43.45716" lon="-0.00109">
        <ele>234.22</ele>
        <time>2021-08-19T12:38:41Z</time>
      </trkpt>
      <trkpt lat="43.45709" lon="-0.00109">
        <ele>235.66</ele>
        <time>2021-08-19T12:38:50Z</time>
      </trkpt>
      <trkpt lat="43.45706" lon="-0.00107">
        <ele>236.62</ele>
        <time>2021-08-19T12:38:57Z</time>
      </trkpt>
      <trkpt lat="43.457" lon="-0.00102">
        <ele>237.58</ele>
        <time>2021-08-19T12:39:06Z</time>
      </trkpt>
      <trkpt lat="43.45698" lon="-0.00097">
        <ele>238.54</ele>
        <time>2021-08-19T12:39:14Z</time>
      </trkpt>
      <trkpt lat="43.45697" lon="-0.0009">
        <ele>239.99</ele>
        <time>2021-08-19T12:39:24Z</time>
      </trkpt>
      <trkpt lat="43.45697" lon="-0.00082">
        <ele>241.43</ele>
        <time>2021-08-19T12:39:32Z</time>
      </trkpt>
      <trkpt lat="43.45696" lon="-0.00075">
        <ele>242.87</ele>
        <time>2021-08-19T12:39:40Z</time>
      </trkpt>
      <trkpt lat="43.45695" lon="-0.00068">
        <ele>243.83</ele>
        <time>2021-08-19T12:39:49Z</time>
      </trkpt>
      <trkpt lat="43.45695" lon="-0.00059">
        <ele>245.75</ele>
        <time>2021-08-19T12:39:58Z</time>
      </trkpt>
      <trkpt lat="43.45695" lon="-0.00054">
        <ele>247.2</ele>
        <time>2021-08-19T12:40:06Z</time>
      </trkpt>
      <trkpt lat="43.45694" lon="-0.00046">
        <ele>248.64</ele>
        <time>2021-08-19T12:40:15Z</time>
      </trkpt>
      <trkpt lat="43.45694" lon="-0.00036">
        <ele>250.08</ele>
        <time>2021-08-19T12:40:24Z</time>
      </trkpt>
      <trkpt lat="43.45694" lon="-0.00033">
        <ele>250.08</ele>
        <time>2021-08-19T12:40:26Z</time>
      </trkpt>
      <trkpt lat="43.45696" lon="-0.00025">
        <ele>251.04</ele>
        <time>2021-08-19T12:40:34Z</time>
      </trkpt>
      <trkpt lat="43.457" lon="-0.00017">
        <ele>251.52</ele>
        <time>2021-08-19T12:40:42Z</time>
      </trkpt>
      <trkpt lat="43.457" lon="-7.0E-5">
        <ele>252.96</ele>
        <time>2021-08-19T12:40:50Z</time>
      </trkpt>
      <trkpt lat="43.45694" lon="-4.0E-5">
        <ele>253.93</ele>
        <time>2021-08-19T12:40:59Z</time>
      </trkpt>
      <trkpt lat="43.45692" lon="-3.0E-5">
        <ele>254.41</ele>
        <time>2021-08-19T12:41:01Z</time>
      </trkpt>
      <trkpt lat="43.4569" lon="-2.0E-5">
        <ele>254.41</ele>
        <time>2021-08-19T12:41:08Z</time>
      </trkpt>
      <trkpt lat="43.45686" lon="-2.0E-5">
        <ele>254.41</ele>
        <time>2021-08-19T12:41:12Z</time>
      </trkpt>
      <trkpt lat="43.45685" lon="-3.0E-5">
        <ele>254.89</ele>
        <time>2021-08-19T12:41:13Z</time>
      </trkpt>
      <trkpt lat="43.45666" lon="-0.00014">
        <ele>254.89</ele>
        <time>2021-08-19T12:41:21Z</time>
      </trkpt>
      <trkpt lat="43.45663" lon="-0.00015">
        <ele>254.89</ele>
        <time>2021-08-19T12:41:22Z</time>
      </trkpt>
      <trkpt lat="43.45661" lon="-0.00016">
        <ele>254.89</ele>
        <time>2021-08-19T12:41:23Z</time>
      </trkpt>
      <trkpt lat="43.45659" lon="-0.00018">
        <ele>255.37</ele>
        <time>2021-08-19T12:41:24Z</time>
      </trkpt>
      <trkpt lat="43.45656" lon="-0.0002">
        <ele>254.89</ele>
        <time>2021-08-19T12:41:25Z</time>
      </trkpt>
      <trkpt lat="43.45653" lon="-0.00021">
        <ele>254.89</ele>
        <time>2021-08-19T12:41:26Z</time>
      </trkpt>
      <trkpt lat="43.4565" lon="-0.00023">
        <ele>254.89</ele>
        <time>2021-08-19T12:41:27Z</time>
      </trkpt>
      <trkpt lat="43.45647" lon="-0.00025">
        <ele>254.89</ele>
        <time>2021-08-19T12:41:28Z</time>
      </trkpt>
      <trkpt lat="43.45631" lon="-0.00045">
        <ele>253.44</ele>
        <time>2021-08-19T12:41:35Z</time>
      </trkpt>
      <trkpt lat="43.45618" lon="-0.00064">
        <ele>253.44</ele>
        <time>2021-08-19T12:41:41Z</time>
      </trkpt>
      <trkpt lat="43.45617" lon="-0.00067">
        <ele>253.44</ele>
        <time>2021-08-19T12:41:42Z</time>
      </trkpt>
      <trkpt lat="43.45593" lon="-0.00088">
        <ele>253.44</ele>
        <time>2021-08-19T12:41:49Z</time>
      </trkpt>
      <trkpt lat="43.4558" lon="-0.00096">
        <ele>254.89</ele>
        <time>2021-08-19T12:41:54Z</time>
      </trkpt>
      <trkpt lat="43.45575" lon="-0.00099">
        <ele>255.85</ele>
        <time>2021-08-19T12:41:56Z</time>
      </trkpt>
      <trkpt lat="43.45557" lon="-0.00106">
        <ele>257.29</ele>
        <time>2021-08-19T12:42:03Z</time>
      </trkpt>
      <trkpt lat="43.45543" lon="-0.00114">
        <ele>257.29</ele>
        <time>2021-08-19T12:42:09Z</time>
      </trkpt>
      <trkpt lat="43.45518" lon="-0.00124">
        <ele>257.29</ele>
        <time>2021-08-19T12:42:16Z</time>
      </trkpt>
      <trkpt lat="43.45491" lon="-0.00131">
        <ele>255.85</ele>
        <time>2021-08-19T12:42:23Z</time>
      </trkpt>
      <trkpt lat="43.45475" lon="-0.00136">
        <ele>255.85</ele>
        <time>2021-08-19T12:42:28Z</time>
      </trkpt>
      <trkpt lat="43.45447" lon="-0.00136">
        <ele>255.37</ele>
        <time>2021-08-19T12:42:36Z</time>
      </trkpt>
      <trkpt lat="43.4543" lon="-0.00135">
        <ele>255.37</ele>
        <time>2021-08-19T12:42:40Z</time>
      </trkpt>
      <trkpt lat="43.45394" lon="-0.00131">
        <ele>255.85</ele>
        <time>2021-08-19T12:42:48Z</time>
      </trkpt>
      <trkpt lat="43.45364" lon="-0.00127">
        <ele>255.85</ele>
        <time>2021-08-19T12:42:56Z</time>
      </trkpt>
      <trkpt lat="43.45358" lon="-0.00126">
        <ele>257.29</ele>
        <time>2021-08-19T12:42:58Z</time>
      </trkpt>
      <trkpt lat="43.45326" lon="-0.00131">
        <ele>257.77</ele>
        <time>2021-08-19T12:43:08Z</time>
      </trkpt>
      <trkpt lat="43.45302" lon="-0.00134">
        <ele>258.25</ele>
        <time>2021-08-19T12:43:16Z</time>
      </trkpt>
      <trkpt lat="43.45281" lon="-0.00137">
        <ele>259.69</ele>
        <time>2021-08-19T12:43:25Z</time>
      </trkpt>
      <trkpt lat="43.45261" lon="-0.00139">
        <ele>261.14</ele>
        <time>2021-08-19T12:43:33Z</time>
      </trkpt>
      <trkpt lat="43.45238" lon="-0.00143">
        <ele>261.62</ele>
        <time>2021-08-19T12:43:41Z</time>
      </trkpt>
      <trkpt lat="43.45216" lon="-0.00149">
        <ele>262.1</ele>
        <time>2021-08-19T12:43:49Z</time>
      </trkpt>
      <trkpt lat="43.45186" lon="-0.00156">
        <ele>262.58</ele>
        <time>2021-08-19T12:43:59Z</time>
      </trkpt>
      <trkpt lat="43.45155" lon="-0.00159">
        <ele>263.06</ele>
        <time>2021-08-19T12:44:10Z</time>
      </trkpt>
      <trkpt lat="43.45127" lon="-0.00164">
        <ele>264.02</ele>
        <time>2021-08-19T12:44:20Z</time>
      </trkpt>
      <trkpt lat="43.45107" lon="-0.00168">
        <ele>264.02</ele>
        <time>2021-08-19T12:44:27Z</time>
      </trkpt>
      <trkpt lat="43.45102" lon="-0.00172">
        <ele>264.02</ele>
        <time>2021-08-19T12:44:29Z</time>
      </trkpt>
      <trkpt lat="43.45099" lon="-0.00179">
        <ele>264.02</ele>
        <time>2021-08-19T12:44:31Z</time>
      </trkpt>
      <trkpt lat="43.45099" lon="-0.00184">
        <ele>264.02</ele>
        <time>2021-08-19T12:44:32Z</time>
      </trkpt>
      <trkpt lat="43.451" lon="-0.00189">
        <ele>264.02</ele>
        <time>2021-08-19T12:44:33Z</time>
      </trkpt>
      <trkpt lat="43.451" lon="-0.00205">
        <ele>262.58</ele>
        <time>2021-08-19T12:44:36Z</time>
      </trkpt>
      <trkpt lat="43.45095" lon="-0.00249">
        <ele>262.58</ele>
        <time>2021-08-19T12:44:45Z</time>
      </trkpt>
      <trkpt lat="43.45092" lon="-0.00271">
        <ele>262.58</ele>
        <time>2021-08-19T12:44:49Z</time>
      </trkpt>
      <trkpt lat="43.45091" lon="-0.00276">
        <ele>262.58</ele>
        <time>2021-08-19T12:44:50Z</time>
      </trkpt>
      <trkpt lat="43.45087" lon="-0.00305">
        <ele>264.02</ele>
        <time>2021-08-19T12:44:56Z</time>
      </trkpt>
      <trkpt lat="43.45082" lon="-0.00328">
        <ele>265.94</ele>
        <time>2021-08-19T12:45:04Z</time>
      </trkpt>
      <trkpt lat="43.45078" lon="-0.00341">
        <ele>267.38</ele>
        <time>2021-08-19T12:45:09Z</time>
      </trkpt>
      <trkpt lat="43.45076" lon="-0.00342">
        <ele>267.38</ele>
        <time>2021-08-19T12:45:10Z</time>
      </trkpt>
      <trkpt lat="43.45074" lon="-0.00342">
        <ele>267.86</ele>
        <time>2021-08-19T12:45:11Z</time>
      </trkpt>
      <trkpt lat="43.45072" lon="-0.00341">
        <ele>267.86</ele>
        <time>2021-08-19T12:45:12Z</time>
      </trkpt>
      <trkpt lat="43.45071" lon="-0.00339">
        <ele>267.86</ele>
        <time>2021-08-19T12:45:13Z</time>
      </trkpt>
      <trkpt lat="43.45069" lon="-0.00337">
        <ele>267.86</ele>
        <time>2021-08-19T12:45:14Z</time>
      </trkpt>
      <trkpt lat="43.45067" lon="-0.00333">
        <ele>267.86</ele>
        <time>2021-08-19T12:45:15Z</time>
      </trkpt>
      <trkpt lat="43.45063" lon="-0.00329">
        <ele>266.42</ele>
        <time>2021-08-19T12:45:16Z</time>
      </trkpt>
      <trkpt lat="43.45059" lon="-0.00326">
        <ele>265.94</ele>
        <time>2021-08-19T12:45:17Z</time>
      </trkpt>
      <trkpt lat="43.45035" lon="-0.00308">
        <ele>263.06</ele>
        <time>2021-08-19T12:45:21Z</time>
      </trkpt>
      <trkpt lat="43.45008" lon="-0.00289">
        <ele>259.69</ele>
        <time>2021-08-19T12:45:25Z</time>
      </trkpt>
      <trkpt lat="43.44996" lon="-0.0028">
        <ele>258.73</ele>
        <time>2021-08-19T12:45:27Z</time>
      </trkpt>
      <trkpt lat="43.44991" lon="-0.00278">
        <ele>258.73</ele>
        <time>2021-08-19T12:45:28Z</time>
      </trkpt>
      <trkpt lat="43.44986" lon="-0.00279">
        <ele>257.77</ele>
        <time>2021-08-19T12:45:29Z</time>
      </trkpt>
      <trkpt lat="43.4498" lon="-0.00282">
        <ele>257.77</ele>
        <time>2021-08-19T12:45:30Z</time>
      </trkpt>
      <trkpt lat="43.44975" lon="-0.00288">
        <ele>257.29</ele>
        <time>2021-08-19T12:45:31Z</time>
      </trkpt>
      <trkpt lat="43.44972" lon="-0.00296">
        <ele>256.81</ele>
        <time>2021-08-19T12:45:32Z</time>
      </trkpt>
      <trkpt lat="43.44967" lon="-0.00302">
        <ele>256.33</ele>
        <time>2021-08-19T12:45:33Z</time>
      </trkpt>
      <trkpt lat="43.44961" lon="-0.0031">
        <ele>255.37</ele>
        <time>2021-08-19T12:45:34Z</time>
      </trkpt>
      <trkpt lat="43.44948" lon="-0.00325">
        <ele>252</ele>
        <time>2021-08-19T12:45:36Z</time>
      </trkpt>
      <trkpt lat="43.44932" lon="-0.00343">
        <ele>249.6</ele>
        <time>2021-08-19T12:45:38Z</time>
      </trkpt>
      <trkpt lat="43.44927" lon="-0.00354">
        <ele>248.64</ele>
        <time>2021-08-19T12:45:39Z</time>
      </trkpt>
      <trkpt lat="43.44923" lon="-0.00366">
        <ele>248.16</ele>
        <time>2021-08-19T12:45:40Z</time>
      </trkpt>
      <trkpt lat="43.44921" lon="-0.00378">
        <ele>247.68</ele>
        <time>2021-08-19T12:45:41Z</time>
      </trkpt>
      <trkpt lat="43.44919" lon="-0.0039">
        <ele>247.68</ele>
        <time>2021-08-19T12:45:42Z</time>
      </trkpt>
      <trkpt lat="43.44918" lon="-0.00403">
        <ele>247.2</ele>
        <time>2021-08-19T12:45:43Z</time>
      </trkpt>
      <trkpt lat="43.44912" lon="-0.00439">
        <ele>246.23</ele>
        <time>2021-08-19T12:45:46Z</time>
      </trkpt>
      <trkpt lat="43.44908" lon="-0.0045">
        <ele>246.23</ele>
        <time>2021-08-19T12:45:47Z</time>
      </trkpt>
      <trkpt lat="43.44903" lon="-0.00459">
        <ele>245.75</ele>
        <time>2021-08-19T12:45:48Z</time>
      </trkpt>
      <trkpt lat="43.44897" lon="-0.00469">
        <ele>245.27</ele>
        <time>2021-08-19T12:45:49Z</time>
      </trkpt>
      <trkpt lat="43.44891" lon="-0.00477">
        <ele>245.27</ele>
        <time>2021-08-19T12:45:50Z</time>
      </trkpt>
      <trkpt lat="43.44862" lon="-0.00506">
        <ele>243.35</ele>
        <time>2021-08-19T12:45:54Z</time>
      </trkpt>
      <trkpt lat="43.44854" lon="-0.00511">
        <ele>242.39</ele>
        <time>2021-08-19T12:45:55Z</time>
      </trkpt>
      <trkpt lat="43.44819" lon="-0.00524">
        <ele>241.91</ele>
        <time>2021-08-19T12:45:59Z</time>
      </trkpt>
      <trkpt lat="43.44811" lon="-0.00525">
        <ele>241.91</ele>
        <time>2021-08-19T12:46:00Z</time>
      </trkpt>
      <trkpt lat="43.44803" lon="-0.00523">
        <ele>241.91</ele>
        <time>2021-08-19T12:46:01Z</time>
      </trkpt>
      <trkpt lat="43.44784" lon="-0.00517">
        <ele>243.35</ele>
        <time>2021-08-19T12:46:04Z</time>
      </trkpt>
      <trkpt lat="43.44779" lon="-0.00512">
        <ele>243.35</ele>
        <time>2021-08-19T12:46:05Z</time>
      </trkpt>
      <trkpt lat="43.44775" lon="-0.00505">
        <ele>241.91</ele>
        <time>2021-08-19T12:46:06Z</time>
      </trkpt>
      <trkpt lat="43.44772" lon="-0.00497">
        <ele>240.95</ele>
        <time>2021-08-19T12:46:07Z</time>
      </trkpt>
      <trkpt lat="43.4477" lon="-0.00489">
        <ele>240.47</ele>
        <time>2021-08-19T12:46:08Z</time>
      </trkpt>
      <trkpt lat="43.44768" lon="-0.00482">
        <ele>239.99</ele>
        <time>2021-08-19T12:46:09Z</time>
      </trkpt>
      <trkpt lat="43.44765" lon="-0.00478">
        <ele>239.51</ele>
        <time>2021-08-19T12:46:10Z</time>
      </trkpt>
      <trkpt lat="43.44761" lon="-0.00476">
        <ele>239.02</ele>
        <time>2021-08-19T12:46:11Z</time>
      </trkpt>
      <trkpt lat="43.44732" lon="-0.00469">
        <ele>236.14</ele>
        <time>2021-08-19T12:46:16Z</time>
      </trkpt>
      <trkpt lat="43.44719" lon="-0.00468">
        <ele>234.22</ele>
        <time>2021-08-19T12:46:18Z</time>
      </trkpt>
      <trkpt lat="43.44712" lon="-0.0047">
        <ele>233.26</ele>
        <time>2021-08-19T12:46:19Z</time>
      </trkpt>
      <trkpt lat="43.44705" lon="-0.00474">
        <ele>232.3</ele>
        <time>2021-08-19T12:46:20Z</time>
      </trkpt>
      <trkpt lat="43.44698" lon="-0.00479">
        <ele>231.33</ele>
        <time>2021-08-19T12:46:21Z</time>
      </trkpt>
      <trkpt lat="43.44691" lon="-0.00483">
        <ele>230.37</ele>
        <time>2021-08-19T12:46:22Z</time>
      </trkpt>
      <trkpt lat="43.44678" lon="-0.00491">
        <ele>227.97</ele>
        <time>2021-08-19T12:46:24Z</time>
      </trkpt>
      <trkpt lat="43.44671" lon="-0.00492">
        <ele>227.01</ele>
        <time>2021-08-19T12:46:25Z</time>
      </trkpt>
      <trkpt lat="43.44664" lon="-0.0049">
        <ele>226.05</ele>
        <time>2021-08-19T12:46:26Z</time>
      </trkpt>
      <trkpt lat="43.44656" lon="-0.00485">
        <ele>224.61</ele>
        <time>2021-08-19T12:46:27Z</time>
      </trkpt>
      <trkpt lat="43.44649" lon="-0.0048">
        <ele>223.64</ele>
        <time>2021-08-19T12:46:28Z</time>
      </trkpt>
      <trkpt lat="43.44641" lon="-0.00473">
        <ele>222.2</ele>
        <time>2021-08-19T12:46:29Z</time>
      </trkpt>
      <trkpt lat="43.44618" lon="-0.00446">
        <ele>219.8</ele>
        <time>2021-08-19T12:46:32Z</time>
      </trkpt>
      <trkpt lat="43.44588" lon="-0.00404">
        <ele>215.47</ele>
        <time>2021-08-19T12:46:36Z</time>
      </trkpt>
      <trkpt lat="43.44574" lon="-0.00382">
        <ele>214.51</ele>
        <time>2021-08-19T12:46:38Z</time>
      </trkpt>
      <trkpt lat="43.4457" lon="-0.00368">
        <ele>214.03</ele>
        <time>2021-08-19T12:46:39Z</time>
      </trkpt>
      <trkpt lat="43.44561" lon="-0.00311">
        <ele>212.11</ele>
        <time>2021-08-19T12:46:43Z</time>
      </trkpt>
      <trkpt lat="43.44557" lon="-0.00299">
        <ele>212.11</ele>
        <time>2021-08-19T12:46:44Z</time>
      </trkpt>
      <trkpt lat="43.44551" lon="-0.00288">
        <ele>212.11</ele>
        <time>2021-08-19T12:46:45Z</time>
      </trkpt>
      <trkpt lat="43.44545" lon="-0.00277">
        <ele>211.15</ele>
        <time>2021-08-19T12:46:46Z</time>
      </trkpt>
      <trkpt lat="43.44538" lon="-0.00267">
        <ele>210.67</ele>
        <time>2021-08-19T12:46:47Z</time>
      </trkpt>
      <trkpt lat="43.44532" lon="-0.00259">
        <ele>210.19</ele>
        <time>2021-08-19T12:46:48Z</time>
      </trkpt>
      <trkpt lat="43.44525" lon="-0.00252">
        <ele>210.19</ele>
        <time>2021-08-19T12:46:49Z</time>
      </trkpt>
      <trkpt lat="43.4452" lon="-0.00245">
        <ele>210.19</ele>
        <time>2021-08-19T12:46:50Z</time>
      </trkpt>
      <trkpt lat="43.44517" lon="-0.00237">
        <ele>210.67</ele>
        <time>2021-08-19T12:46:51Z</time>
      </trkpt>
      <trkpt lat="43.44515" lon="-0.00228">
        <ele>210.67</ele>
        <time>2021-08-19T12:46:52Z</time>
      </trkpt>
      <trkpt lat="43.44514" lon="-0.00218">
        <ele>209.7</ele>
        <time>2021-08-19T12:46:53Z</time>
      </trkpt>
      <trkpt lat="43.44514" lon="-0.00208">
        <ele>209.7</ele>
        <time>2021-08-19T12:46:54Z</time>
      </trkpt>
      <trkpt lat="43.44513" lon="-0.00198">
        <ele>208.74</ele>
        <time>2021-08-19T12:46:55Z</time>
      </trkpt>
      <trkpt lat="43.44512" lon="-0.00188">
        <ele>208.74</ele>
        <time>2021-08-19T12:46:56Z</time>
      </trkpt>
      <trkpt lat="43.44508" lon="-0.00168">
        <ele>208.26</ele>
        <time>2021-08-19T12:46:58Z</time>
      </trkpt>
      <trkpt lat="43.44504" lon="-0.00149">
        <ele>207.78</ele>
        <time>2021-08-19T12:47:00Z</time>
      </trkpt>
      <trkpt lat="43.44503" lon="-0.00139">
        <ele>207.78</ele>
        <time>2021-08-19T12:47:01Z</time>
      </trkpt>
      <trkpt lat="43.44503" lon="-0.0013">
        <ele>207.78</ele>
        <time>2021-08-19T12:47:02Z</time>
      </trkpt>
      <trkpt lat="43.44504" lon="-0.00121">
        <ele>207.78</ele>
        <time>2021-08-19T12:47:03Z</time>
      </trkpt>
      <trkpt lat="43.44505" lon="-0.00111">
        <ele>207.78</ele>
        <time>2021-08-19T12:47:04Z</time>
      </trkpt>
      <trkpt lat="43.44514" lon="-0.00063">
        <ele>206.34</ele>
        <time>2021-08-19T12:47:09Z</time>
      </trkpt>
      <trkpt lat="43.4453" lon="0.0003">
        <ele>203.46</ele>
        <time>2021-08-19T12:47:18Z</time>
      </trkpt>
      <trkpt lat="43.44546" lon="0.00107">
        <ele>203.46</ele>
        <time>2021-08-19T12:47:26Z</time>
      </trkpt>
      <trkpt lat="43.44554" lon="0.00144">
        <ele>203.46</ele>
        <time>2021-08-19T12:47:31Z</time>
      </trkpt>
      <trkpt lat="43.44552" lon="0.00147">
        <ele>203.46</ele>
        <time>2021-08-19T12:47:32Z</time>
      </trkpt>
      <trkpt lat="43.44549" lon="0.00147">
        <ele>203.46</ele>
        <time>2021-08-19T12:47:33Z</time>
      </trkpt>
      <trkpt lat="43.44547" lon="0.00144">
        <ele>203.46</ele>
        <time>2021-08-19T12:47:34Z</time>
      </trkpt>
      <trkpt lat="43.44545" lon="0.00141">
        <ele>203.46</ele>
        <time>2021-08-19T12:47:35Z</time>
      </trkpt>
      <trkpt lat="43.44544" lon="0.00137">
        <ele>203.46</ele>
        <time>2021-08-19T12:47:36Z</time>
      </trkpt>
      <trkpt lat="43.44543" lon="0.00134">
        <ele>202.98</ele>
        <time>2021-08-19T12:47:37Z</time>
      </trkpt>
      <trkpt lat="43.44542" lon="0.0013">
        <ele>202.98</ele>
        <time>2021-08-19T12:47:38Z</time>
      </trkpt>
      <trkpt lat="43.44528" lon="0.0011">
        <ele>202.49</ele>
        <time>2021-08-19T12:47:44Z</time>
      </trkpt>
      <trkpt lat="43.4452" lon="0.00104">
        <ele>202.49</ele>
        <time>2021-08-19T12:47:46Z</time>
      </trkpt>
      <trkpt lat="43.44493" lon="0.00071">
        <ele>202.49</ele>
        <time>2021-08-19T12:47:55Z</time>
      </trkpt>
      <trkpt lat="43.44482" lon="0.00052">
        <ele>203.94</ele>
        <time>2021-08-19T12:48:01Z</time>
      </trkpt>
      <trkpt lat="43.44468" lon="0.00033">
        <ele>204.42</ele>
        <time>2021-08-19T12:48:09Z</time>
      </trkpt>
      <trkpt lat="43.44459" lon="0.0002">
        <ele>205.38</ele>
        <time>2021-08-19T12:48:15Z</time>
      </trkpt>
      <trkpt lat="43.44449" lon="5.0E-5">
        <ele>206.82</ele>
        <time>2021-08-19T12:48:23Z</time>
      </trkpt>
      <trkpt lat="43.44439" lon="-9.0E-5">
        <ele>207.78</ele>
        <time>2021-08-19T12:48:31Z</time>
      </trkpt>
      <trkpt lat="43.44433" lon="-0.00014">
        <ele>208.74</ele>
        <time>2021-08-19T12:48:34Z</time>
      </trkpt>
      <trkpt lat="43.44432" lon="-0.00016">
        <ele>208.74</ele>
        <time>2021-08-19T12:48:35Z</time>
      </trkpt>
      <trkpt lat="43.44425" lon="-0.00027">
        <ele>210.19</ele>
        <time>2021-08-19T12:48:42Z</time>
      </trkpt>
      <trkpt lat="43.44417" lon="-0.00039">
        <ele>211.63</ele>
        <time>2021-08-19T12:48:51Z</time>
      </trkpt>
      <trkpt lat="43.44407" lon="-0.00049">
        <ele>212.11</ele>
        <time>2021-08-19T12:48:59Z</time>
      </trkpt>
      <trkpt lat="43.44395" lon="-0.00055">
        <ele>213.07</ele>
        <time>2021-08-19T12:49:06Z</time>
      </trkpt>
      <trkpt lat="43.44379" lon="-0.00062">
        <ele>213.55</ele>
        <time>2021-08-19T12:49:14Z</time>
      </trkpt>
      <trkpt lat="43.44354" lon="-0.00063">
        <ele>214.99</ele>
        <time>2021-08-19T12:49:24Z</time>
      </trkpt>
      <trkpt lat="43.44338" lon="-0.0006">
        <ele>215.95</ele>
        <time>2021-08-19T12:49:32Z</time>
      </trkpt>
      <trkpt lat="43.44322" lon="-0.00059">
        <ele>216.43</ele>
        <time>2021-08-19T12:49:39Z</time>
      </trkpt>
      <trkpt lat="43.44307" lon="-0.00059">
        <ele>216.91</ele>
        <time>2021-08-19T12:49:46Z</time>
      </trkpt>
      <trkpt lat="43.44292" lon="-0.00061">
        <ele>218.36</ele>
        <time>2021-08-19T12:49:54Z</time>
      </trkpt>
      <trkpt lat="43.4428" lon="-0.00062">
        <ele>219.32</ele>
        <time>2021-08-19T12:50:01Z</time>
      </trkpt>
      <trkpt lat="43.4427" lon="-0.00062">
        <ele>220.28</ele>
        <time>2021-08-19T12:50:07Z</time>
      </trkpt>
      <trkpt lat="43.44268" lon="-0.00062">
        <ele>220.76</ele>
        <time>2021-08-19T12:50:08Z</time>
      </trkpt>
      <trkpt lat="43.44258" lon="-0.00059">
        <ele>221.72</ele>
        <time>2021-08-19T12:50:15Z</time>
      </trkpt>
      <trkpt lat="43.44256" lon="-0.00059">
        <ele>222.2</ele>
        <time>2021-08-19T12:50:16Z</time>
      </trkpt>
      <trkpt lat="43.44243" lon="-0.00055">
        <ele>223.64</ele>
        <time>2021-08-19T12:50:25Z</time>
      </trkpt>
      <trkpt lat="43.44228" lon="-0.00048">
        <ele>225.09</ele>
        <time>2021-08-19T12:50:35Z</time>
      </trkpt>
      <trkpt lat="43.44212" lon="-0.00041">
        <ele>227.01</ele>
        <time>2021-08-19T12:50:44Z</time>
      </trkpt>
      <trkpt lat="43.44195" lon="-0.00038">
        <ele>228.45</ele>
        <time>2021-08-19T12:50:53Z</time>
      </trkpt>
      <trkpt lat="43.44177" lon="-0.00032">
        <ele>229.89</ele>
        <time>2021-08-19T12:51:02Z</time>
      </trkpt>
      <trkpt lat="43.44159" lon="-0.00025">
        <ele>230.85</ele>
        <time>2021-08-19T12:51:10Z</time>
      </trkpt>
      <trkpt lat="43.4414" lon="-0.00027">
        <ele>231.81</ele>
        <time>2021-08-19T12:51:18Z</time>
      </trkpt>
      <trkpt lat="43.44126" lon="-0.00034">
        <ele>233.26</ele>
        <time>2021-08-19T12:51:26Z</time>
      </trkpt>
      <trkpt lat="43.44116" lon="-0.00037">
        <ele>234.22</ele>
        <time>2021-08-19T12:51:32Z</time>
      </trkpt>
      <trkpt lat="43.44114" lon="-0.00037">
        <ele>234.7</ele>
        <time>2021-08-19T12:51:33Z</time>
      </trkpt>
      <trkpt lat="43.44094" lon="-0.0004">
        <ele>236.62</ele>
        <time>2021-08-19T12:51:41Z</time>
      </trkpt>
      <trkpt lat="43.44069" lon="-0.00045">
        <ele>236.62</ele>
        <time>2021-08-19T12:51:49Z</time>
      </trkpt>
      <trkpt lat="43.4405" lon="-0.00047">
        <ele>236.62</ele>
        <time>2021-08-19T12:51:55Z</time>
      </trkpt>
      <trkpt lat="43.4403" lon="-0.00051">
        <ele>237.1</ele>
        <time>2021-08-19T12:52:01Z</time>
      </trkpt>
      <trkpt lat="43.44011" lon="-0.00058">
        <ele>238.06</ele>
        <time>2021-08-19T12:52:07Z</time>
      </trkpt>
      <trkpt lat="43.43989" lon="-0.00071">
        <ele>239.51</ele>
        <time>2021-08-19T12:52:14Z</time>
      </trkpt>
      <trkpt lat="43.43969" lon="-0.00085">
        <ele>240.47</ele>
        <time>2021-08-19T12:52:21Z</time>
      </trkpt>
      <trkpt lat="43.43946" lon="-0.00105">
        <ele>241.91</ele>
        <time>2021-08-19T12:52:30Z</time>
      </trkpt>
      <trkpt lat="43.43928" lon="-0.00118">
        <ele>243.35</ele>
        <time>2021-08-19T12:52:38Z</time>
      </trkpt>
      <trkpt lat="43.4391" lon="-0.00127">
        <ele>244.79</ele>
        <time>2021-08-19T12:52:46Z</time>
      </trkpt>
      <trkpt lat="43.43898" lon="-0.00131">
        <ele>245.75</ele>
        <time>2021-08-19T12:52:52Z</time>
      </trkpt>
      <trkpt lat="43.43884" lon="-0.00133">
        <ele>247.2</ele>
        <time>2021-08-19T12:52:59Z</time>
      </trkpt>
      <trkpt lat="43.43866" lon="-0.00135">
        <ele>248.16</ele>
        <time>2021-08-19T12:53:08Z</time>
      </trkpt>
      <trkpt lat="43.43851" lon="-0.00137">
        <ele>250.56</ele>
        <time>2021-08-19T12:53:16Z</time>
      </trkpt>
      <trkpt lat="43.43836" lon="-0.00141">
        <ele>251.52</ele>
        <time>2021-08-19T12:53:24Z</time>
      </trkpt>
      <trkpt lat="43.43832" lon="-0.00142">
        <ele>252</ele>
        <time>2021-08-19T12:53:26Z</time>
      </trkpt>
      <trkpt lat="43.4383" lon="-0.00142">
        <ele>252.48</ele>
        <time>2021-08-19T12:53:27Z</time>
      </trkpt>
      <trkpt lat="43.43817" lon="-0.00146">
        <ele>253.93</ele>
        <time>2021-08-19T12:53:35Z</time>
      </trkpt>
      <trkpt lat="43.43806" lon="-0.0015">
        <ele>254.89</ele>
        <time>2021-08-19T12:53:42Z</time>
      </trkpt>
      <trkpt lat="43.43793" lon="-0.00151">
        <ele>255.85</ele>
        <time>2021-08-19T12:53:49Z</time>
      </trkpt>
      <trkpt lat="43.43792" lon="-0.0015">
        <ele>256.33</ele>
        <time>2021-08-19T12:53:50Z</time>
      </trkpt>
      <trkpt lat="43.43791" lon="-0.0015">
        <ele>256.33</ele>
        <time>2021-08-19T12:53:51Z</time>
      </trkpt>
      <trkpt lat="43.43777" lon="-0.00145">
        <ele>257.29</ele>
        <time>2021-08-19T12:53:58Z</time>
      </trkpt>
      <trkpt lat="43.43761" lon="-0.00139">
        <ele>258.73</ele>
        <time>2021-08-19T12:54:07Z</time>
      </trkpt>
      <trkpt lat="43.43747" lon="-0.00136">
        <ele>259.69</ele>
        <time>2021-08-19T12:54:14Z</time>
      </trkpt>
      <trkpt lat="43.4373" lon="-0.00145">
        <ele>260.65</ele>
        <time>2021-08-19T12:54:22Z</time>
      </trkpt>
      <trkpt lat="43.43715" lon="-0.00158">
        <ele>262.1</ele>
        <time>2021-08-19T12:54:31Z</time>
      </trkpt>
      <trkpt lat="43.43706" lon="-0.00166">
        <ele>264.5</ele>
        <time>2021-08-19T12:54:38Z</time>
      </trkpt>
      <trkpt lat="43.43697" lon="-0.00171">
        <ele>265.46</ele>
        <time>2021-08-19T12:54:44Z</time>
      </trkpt>
      <trkpt lat="43.43685" lon="-0.00177">
        <ele>265.94</ele>
        <time>2021-08-19T12:54:50Z</time>
      </trkpt>
      <trkpt lat="43.43673" lon="-0.00182">
        <ele>266.42</ele>
        <time>2021-08-19T12:54:56Z</time>
      </trkpt>
      <trkpt lat="43.43662" lon="-0.00186">
        <ele>267.86</ele>
        <time>2021-08-19T12:55:03Z</time>
      </trkpt>
      <trkpt lat="43.43648" lon="-0.00191">
        <ele>268.83</ele>
        <time>2021-08-19T12:55:10Z</time>
      </trkpt>
      <trkpt lat="43.43632" lon="-0.00197">
        <ele>269.79</ele>
        <time>2021-08-19T12:55:17Z</time>
      </trkpt>
      <trkpt lat="43.43618" lon="-0.00201">
        <ele>271.23</ele>
        <time>2021-08-19T12:55:24Z</time>
      </trkpt>
      <trkpt lat="43.43597" lon="-0.00212">
        <ele>272.19</ele>
        <time>2021-08-19T12:55:32Z</time>
      </trkpt>
      <trkpt lat="43.43578" lon="-0.00219">
        <ele>274.11</ele>
        <time>2021-08-19T12:55:40Z</time>
      </trkpt>
      <trkpt lat="43.43557" lon="-0.00227">
        <ele>275.07</ele>
        <time>2021-08-19T12:55:49Z</time>
      </trkpt>
      <trkpt lat="43.43541" lon="-0.00233">
        <ele>277</ele>
        <time>2021-08-19T12:55:57Z</time>
      </trkpt>
      <trkpt lat="43.43522" lon="-0.0024">
        <ele>278.92</ele>
        <time>2021-08-19T12:56:06Z</time>
      </trkpt>
      <trkpt lat="43.4351" lon="-0.00252">
        <ele>279.88</ele>
        <time>2021-08-19T12:56:13Z</time>
      </trkpt>
      <trkpt lat="43.43496" lon="-0.00267">
        <ele>280.84</ele>
        <time>2021-08-19T12:56:20Z</time>
      </trkpt>
      <trkpt lat="43.43482" lon="-0.00281">
        <ele>282.28</ele>
        <time>2021-08-19T12:56:28Z</time>
      </trkpt>
      <trkpt lat="43.43478" lon="-0.00287">
        <ele>282.77</ele>
        <time>2021-08-19T12:56:31Z</time>
      </trkpt>
      <trkpt lat="43.43478" lon="-0.00289">
        <ele>282.77</ele>
        <time>2021-08-19T12:56:32Z</time>
      </trkpt>
      <trkpt lat="43.43477" lon="-0.00291">
        <ele>283.25</ele>
        <time>2021-08-19T12:56:33Z</time>
      </trkpt>
      <trkpt lat="43.43475" lon="-0.00292">
        <ele>283.25</ele>
        <time>2021-08-19T12:56:34Z</time>
      </trkpt>
      <trkpt lat="43.43473" lon="-0.00293">
        <ele>283.25</ele>
        <time>2021-08-19T12:56:35Z</time>
      </trkpt>
      <trkpt lat="43.43464" lon="-0.00307">
        <ele>284.69</ele>
        <time>2021-08-19T12:56:41Z</time>
      </trkpt>
      <trkpt lat="43.43455" lon="-0.00325">
        <ele>286.61</ele>
        <time>2021-08-19T12:56:49Z</time>
      </trkpt>
      <trkpt lat="43.43446" lon="-0.00343">
        <ele>288.05</ele>
        <time>2021-08-19T12:56:57Z</time>
      </trkpt>
      <trkpt lat="43.43437" lon="-0.00359">
        <ele>290.46</ele>
        <time>2021-08-19T12:57:04Z</time>
      </trkpt>
      <trkpt lat="43.43427" lon="-0.00372">
        <ele>291.42</ele>
        <time>2021-08-19T12:57:09Z</time>
      </trkpt>
      <trkpt lat="43.43426" lon="-0.00373">
        <ele>291.42</ele>
        <time>2021-08-19T12:57:10Z</time>
      </trkpt>
      <trkpt lat="43.43425" lon="-0.00375">
        <ele>291.42</ele>
        <time>2021-08-19T12:57:11Z</time>
      </trkpt>
      <trkpt lat="43.43415" lon="-0.00389">
        <ele>292.38</ele>
        <time>2021-08-19T12:57:17Z</time>
      </trkpt>
      <trkpt lat="43.43398" lon="-0.00405">
        <ele>294.3</ele>
        <time>2021-08-19T12:57:26Z</time>
      </trkpt>
      <trkpt lat="43.43387" lon="-0.00416">
        <ele>295.26</ele>
        <time>2021-08-19T12:57:33Z</time>
      </trkpt>
      <trkpt lat="43.43373" lon="-0.00427">
        <ele>296.7</ele>
        <time>2021-08-19T12:57:41Z</time>
      </trkpt>
      <trkpt lat="43.43358" lon="-0.00433">
        <ele>298.15</ele>
        <time>2021-08-19T12:57:49Z</time>
      </trkpt>
      <trkpt lat="43.4334" lon="-0.00438">
        <ele>299.59</ele>
        <time>2021-08-19T12:57:58Z</time>
      </trkpt>
      <trkpt lat="43.4332" lon="-0.00444">
        <ele>301.51</ele>
        <time>2021-08-19T12:58:07Z</time>
      </trkpt>
      <trkpt lat="43.43295" lon="-0.00448">
        <ele>302.95</ele>
        <time>2021-08-19T12:58:17Z</time>
      </trkpt>
      <trkpt lat="43.4328" lon="-0.00451">
        <ele>303.43</ele>
        <time>2021-08-19T12:58:24Z</time>
      </trkpt>
      <trkpt lat="43.43264" lon="-0.00454">
        <ele>305.36</ele>
        <time>2021-08-19T12:58:31Z</time>
      </trkpt>
      <trkpt lat="43.43247" lon="-0.00456">
        <ele>305.84</ele>
        <time>2021-08-19T12:58:38Z</time>
      </trkpt>
      <trkpt lat="43.43224" lon="-0.0046">
        <ele>306.32</ele>
        <time>2021-08-19T12:58:47Z</time>
      </trkpt>
      <trkpt lat="43.432" lon="-0.00465">
        <ele>306.32</ele>
        <time>2021-08-19T12:58:56Z</time>
      </trkpt>
      <trkpt lat="43.43174" lon="-0.00467">
        <ele>306.32</ele>
        <time>2021-08-19T12:59:04Z</time>
      </trkpt>
      <trkpt lat="43.43163" lon="-0.00472">
        <ele>306.32</ele>
        <time>2021-08-19T12:59:07Z</time>
      </trkpt>
      <trkpt lat="43.43161" lon="-0.00475">
        <ele>306.32</ele>
        <time>2021-08-19T12:59:08Z</time>
      </trkpt>
      <trkpt lat="43.43161" lon="-0.00479">
        <ele>306.32</ele>
        <time>2021-08-19T12:59:09Z</time>
      </trkpt>
      <trkpt lat="43.43164" lon="-0.00506">
        <ele>306.32</ele>
        <time>2021-08-19T12:59:15Z</time>
      </trkpt>
      <trkpt lat="43.43163" lon="-0.00512">
        <ele>306.32</ele>
        <time>2021-08-19T12:59:16Z</time>
      </trkpt>
      <trkpt lat="43.43161" lon="-0.00516">
        <ele>306.32</ele>
        <time>2021-08-19T12:59:17Z</time>
      </trkpt>
      <trkpt lat="43.43157" lon="-0.0052">
        <ele>306.32</ele>
        <time>2021-08-19T12:59:18Z</time>
      </trkpt>
      <trkpt lat="43.43154" lon="-0.00523">
        <ele>306.32</ele>
        <time>2021-08-19T12:59:19Z</time>
      </trkpt>
      <trkpt lat="43.4312" lon="-0.00548">
        <ele>306.32</ele>
        <time>2021-08-19T12:59:28Z</time>
      </trkpt>
      <trkpt lat="43.43108" lon="-0.00559">
        <ele>306.32</ele>
        <time>2021-08-19T12:59:31Z</time>
      </trkpt>
      <trkpt lat="43.43104" lon="-0.00564">
        <ele>306.32</ele>
        <time>2021-08-19T12:59:32Z</time>
      </trkpt>
      <trkpt lat="43.43065" lon="-0.00625">
        <ele>304.88</ele>
        <time>2021-08-19T12:59:42Z</time>
      </trkpt>
      <trkpt lat="43.43056" lon="-0.00636">
        <ele>304.88</ele>
        <time>2021-08-19T12:59:44Z</time>
      </trkpt>
      <trkpt lat="43.4301" lon="-0.00676">
        <ele>303.91</ele>
        <time>2021-08-19T12:59:52Z</time>
      </trkpt>
      <trkpt lat="43.42967" lon="-0.00708">
        <ele>303.43</ele>
        <time>2021-08-19T12:59:59Z</time>
      </trkpt>
      <trkpt lat="43.42912" lon="-0.00751">
        <ele>303.43</ele>
        <time>2021-08-19T13:00:08Z</time>
      </trkpt>
      <trkpt lat="43.42858" lon="-0.00792">
        <ele>303.43</ele>
        <time>2021-08-19T13:00:17Z</time>
      </trkpt>
      <trkpt lat="43.42795" lon="-0.00831">
        <ele>303.43</ele>
        <time>2021-08-19T13:00:27Z</time>
      </trkpt>
      <trkpt lat="43.42762" lon="-0.0086">
        <ele>303.43</ele>
        <time>2021-08-19T13:00:33Z</time>
      </trkpt>
      <trkpt lat="43.42728" lon="-0.00914">
        <ele>303.43</ele>
        <time>2021-08-19T13:00:41Z</time>
      </trkpt>
      <trkpt lat="43.42716" lon="-0.00937">
        <ele>303.43</ele>
        <time>2021-08-19T13:00:44Z</time>
      </trkpt>
      <trkpt lat="43.42687" lon="-0.00993">
        <ele>302.95</ele>
        <time>2021-08-19T13:00:51Z</time>
      </trkpt>
      <trkpt lat="43.42679" lon="-0.01005">
        <ele>304.39</ele>
        <time>2021-08-19T13:00:53Z</time>
      </trkpt>
      <trkpt lat="43.42657" lon="-0.01033">
        <ele>306.8</ele>
        <time>2021-08-19T13:00:59Z</time>
      </trkpt>
      <trkpt lat="43.42628" lon="-0.01067">
        <ele>308.24</ele>
        <time>2021-08-19T13:01:09Z</time>
      </trkpt>
      <trkpt lat="43.42596" lon="-0.01104">
        <ele>309.2</ele>
        <time>2021-08-19T13:01:19Z</time>
      </trkpt>
      <trkpt lat="43.42563" lon="-0.01142">
        <ele>310.16</ele>
        <time>2021-08-19T13:01:29Z</time>
      </trkpt>
      <trkpt lat="43.42559" lon="-0.01145">
        <ele>310.16</ele>
        <time>2021-08-19T13:01:30Z</time>
      </trkpt>
      <trkpt lat="43.42554" lon="-0.01148">
        <ele>310.16</ele>
        <time>2021-08-19T13:01:31Z</time>
      </trkpt>
      <trkpt lat="43.42538" lon="-0.01171">
        <ele>310.16</ele>
        <time>2021-08-19T13:01:37Z</time>
      </trkpt>
      <trkpt lat="43.42519" lon="-0.01209">
        <ele>310.16</ele>
        <time>2021-08-19T13:01:44Z</time>
      </trkpt>
      <trkpt lat="43.42496" lon="-0.01257">
        <ele>311.6</ele>
        <time>2021-08-19T13:01:53Z</time>
      </trkpt>
      <trkpt lat="43.42473" lon="-0.01308">
        <ele>311.6</ele>
        <time>2021-08-19T13:02:02Z</time>
      </trkpt>
      <trkpt lat="43.42443" lon="-0.01372">
        <ele>312.57</ele>
        <time>2021-08-19T13:02:13Z</time>
      </trkpt>
      <trkpt lat="43.42411" lon="-0.01434">
        <ele>312.09</ele>
        <time>2021-08-19T13:02:23Z</time>
      </trkpt>
      <trkpt lat="43.42382" lon="-0.01489">
        <ele>312.09</ele>
        <time>2021-08-19T13:02:31Z</time>
      </trkpt>
      <trkpt lat="43.42352" lon="-0.01544">
        <ele>311.12</ele>
        <time>2021-08-19T13:02:39Z</time>
      </trkpt>
      <trkpt lat="43.42344" lon="-0.01557">
        <ele>311.12</ele>
        <time>2021-08-19T13:02:41Z</time>
      </trkpt>
      <trkpt lat="43.42341" lon="-0.01563">
        <ele>311.12</ele>
        <time>2021-08-19T13:02:42Z</time>
      </trkpt>
      <trkpt lat="43.42319" lon="-0.01604">
        <ele>311.12</ele>
        <time>2021-08-19T13:02:49Z</time>
      </trkpt>
      <trkpt lat="43.42314" lon="-0.01605">
        <ele>311.12</ele>
        <time>2021-08-19T13:02:50Z</time>
      </trkpt>
      <trkpt lat="43.42311" lon="-0.01602">
        <ele>311.12</ele>
        <time>2021-08-19T13:02:51Z</time>
      </trkpt>
      <trkpt lat="43.42308" lon="-0.01598">
        <ele>311.12</ele>
        <time>2021-08-19T13:02:52Z</time>
      </trkpt>
      <trkpt lat="43.42307" lon="-0.01593">
        <ele>311.12</ele>
        <time>2021-08-19T13:02:53Z</time>
      </trkpt>
      <trkpt lat="43.42306" lon="-0.01588">
        <ele>311.12</ele>
        <time>2021-08-19T13:02:54Z</time>
      </trkpt>
      <trkpt lat="43.42297" lon="-0.0154">
        <ele>311.12</ele>
        <time>2021-08-19T13:03:01Z</time>
      </trkpt>
      <trkpt lat="43.42284" lon="-0.0147">
        <ele>310.64</ele>
        <time>2021-08-19T13:03:10Z</time>
      </trkpt>
      <trkpt lat="43.42275" lon="-0.01419">
        <ele>311.6</ele>
        <time>2021-08-19T13:03:17Z</time>
      </trkpt>
      <trkpt lat="43.4226" lon="-0.0136">
        <ele>309.2</ele>
        <time>2021-08-19T13:03:25Z</time>
      </trkpt>
      <trkpt lat="43.4225" lon="-0.01321">
        <ele>305.84</ele>
        <time>2021-08-19T13:03:29Z</time>
      </trkpt>
      <trkpt lat="43.42246" lon="-0.01299">
        <ele>303.91</ele>
        <time>2021-08-19T13:03:31Z</time>
      </trkpt>
      <trkpt lat="43.42245" lon="-0.01286">
        <ele>302.95</ele>
        <time>2021-08-19T13:03:32Z</time>
      </trkpt>
      <trkpt lat="43.42246" lon="-0.01261">
        <ele>300.55</ele>
        <time>2021-08-19T13:03:34Z</time>
      </trkpt>
      <trkpt lat="43.42252" lon="-0.01221">
        <ele>297.18</ele>
        <time>2021-08-19T13:03:37Z</time>
      </trkpt>
      <trkpt lat="43.42262" lon="-0.01178">
        <ele>292.86</ele>
        <time>2021-08-19T13:03:40Z</time>
      </trkpt>
      <trkpt lat="43.42274" lon="-0.01136">
        <ele>289.49</ele>
        <time>2021-08-19T13:03:43Z</time>
      </trkpt>
      <trkpt lat="43.42284" lon="-0.01112">
        <ele>287.57</ele>
        <time>2021-08-19T13:03:45Z</time>
      </trkpt>
      <trkpt lat="43.4229" lon="-0.01103">
        <ele>287.09</ele>
        <time>2021-08-19T13:03:46Z</time>
      </trkpt>
      <trkpt lat="43.42309" lon="-0.01075">
        <ele>283.73</ele>
        <time>2021-08-19T13:03:49Z</time>
      </trkpt>
      <trkpt lat="43.42331" lon="-0.01048">
        <ele>280.36</ele>
        <time>2021-08-19T13:03:52Z</time>
      </trkpt>
      <trkpt lat="43.42339" lon="-0.01041">
        <ele>279.88</ele>
        <time>2021-08-19T13:03:53Z</time>
      </trkpt>
      <trkpt lat="43.42348" lon="-0.01035">
        <ele>278.92</ele>
        <time>2021-08-19T13:03:54Z</time>
      </trkpt>
      <trkpt lat="43.42368" lon="-0.01023">
        <ele>277.96</ele>
        <time>2021-08-19T13:03:57Z</time>
      </trkpt>
      <trkpt lat="43.42372" lon="-0.01017">
        <ele>277.48</ele>
        <time>2021-08-19T13:03:58Z</time>
      </trkpt>
      <trkpt lat="43.42373" lon="-0.01011">
        <ele>277</ele>
        <time>2021-08-19T13:03:59Z</time>
      </trkpt>
      <trkpt lat="43.42373" lon="-0.01005">
        <ele>277</ele>
        <time>2021-08-19T13:04:00Z</time>
      </trkpt>
      <trkpt lat="43.4237" lon="-0.01001">
        <ele>276.04</ele>
        <time>2021-08-19T13:04:01Z</time>
      </trkpt>
      <trkpt lat="43.42366" lon="-0.01">
        <ele>276.04</ele>
        <time>2021-08-19T13:04:02Z</time>
      </trkpt>
      <trkpt lat="43.42362" lon="-0.01002">
        <ele>275.56</ele>
        <time>2021-08-19T13:04:03Z</time>
      </trkpt>
      <trkpt lat="43.42358" lon="-0.01005">
        <ele>274.59</ele>
        <time>2021-08-19T13:04:04Z</time>
      </trkpt>
      <trkpt lat="43.42354" lon="-0.01008">
        <ele>274.59</ele>
        <time>2021-08-19T13:04:05Z</time>
      </trkpt>
      <trkpt lat="43.42349" lon="-0.01012">
        <ele>274.11</ele>
        <time>2021-08-19T13:04:06Z</time>
      </trkpt>
      <trkpt lat="43.42343" lon="-0.01016">
        <ele>273.63</ele>
        <time>2021-08-19T13:04:07Z</time>
      </trkpt>
      <trkpt lat="43.42337" lon="-0.01018">
        <ele>273.15</ele>
        <time>2021-08-19T13:04:08Z</time>
      </trkpt>
      <trkpt lat="43.42303" lon="-0.01026">
        <ele>269.79</ele>
        <time>2021-08-19T13:04:13Z</time>
      </trkpt>
      <trkpt lat="43.42287" lon="-0.01025">
        <ele>268.35</ele>
        <time>2021-08-19T13:04:15Z</time>
      </trkpt>
      <trkpt lat="43.42279" lon="-0.01023">
        <ele>266.9</ele>
        <time>2021-08-19T13:04:16Z</time>
      </trkpt>
      <trkpt lat="43.42272" lon="-0.01019">
        <ele>265.94</ele>
        <time>2021-08-19T13:04:17Z</time>
      </trkpt>
      <trkpt lat="43.4224" lon="-0.00999">
        <ele>262.58</ele>
        <time>2021-08-19T13:04:21Z</time>
      </trkpt>
      <trkpt lat="43.42215" lon="-0.00983">
        <ele>259.21</ele>
        <time>2021-08-19T13:04:24Z</time>
      </trkpt>
      <trkpt lat="43.42188" lon="-0.00968">
        <ele>256.33</ele>
        <time>2021-08-19T13:04:27Z</time>
      </trkpt>
      <trkpt lat="43.42148" lon="-0.00946">
        <ele>253.44</ele>
        <time>2021-08-19T13:04:32Z</time>
      </trkpt>
      <trkpt lat="43.42144" lon="-0.0094">
        <ele>252.96</ele>
        <time>2021-08-19T13:04:33Z</time>
      </trkpt>
      <trkpt lat="43.42142" lon="-0.00932">
        <ele>252</ele>
        <time>2021-08-19T13:04:34Z</time>
      </trkpt>
      <trkpt lat="43.42142" lon="-0.00923">
        <ele>251.04</ele>
        <time>2021-08-19T13:04:35Z</time>
      </trkpt>
      <trkpt lat="43.42144" lon="-0.00912">
        <ele>250.08</ele>
        <time>2021-08-19T13:04:36Z</time>
      </trkpt>
      <trkpt lat="43.42146" lon="-0.00902">
        <ele>249.12</ele>
        <time>2021-08-19T13:04:37Z</time>
      </trkpt>
      <trkpt lat="43.42149" lon="-0.00891">
        <ele>248.16</ele>
        <time>2021-08-19T13:04:38Z</time>
      </trkpt>
      <trkpt lat="43.42154" lon="-0.0088">
        <ele>246.72</ele>
        <time>2021-08-19T13:04:39Z</time>
      </trkpt>
      <trkpt lat="43.4216" lon="-0.00869">
        <ele>245.75</ele>
        <time>2021-08-19T13:04:40Z</time>
      </trkpt>
      <trkpt lat="43.42172" lon="-0.00846">
        <ele>242.87</ele>
        <time>2021-08-19T13:04:42Z</time>
      </trkpt>
      <trkpt lat="43.42177" lon="-0.00832">
        <ele>241.43</ele>
        <time>2021-08-19T13:04:43Z</time>
      </trkpt>
      <trkpt lat="43.42182" lon="-0.00817">
        <ele>239.99</ele>
        <time>2021-08-19T13:04:44Z</time>
      </trkpt>
      <trkpt lat="43.4219" lon="-0.00786">
        <ele>236.14</ele>
        <time>2021-08-19T13:04:46Z</time>
      </trkpt>
      <trkpt lat="43.42199" lon="-0.00745">
        <ele>233.26</ele>
        <time>2021-08-19T13:04:49Z</time>
      </trkpt>
      <trkpt lat="43.42199" lon="-0.00733">
        <ele>233.26</ele>
        <time>2021-08-19T13:04:50Z</time>
      </trkpt>
      <trkpt lat="43.42197" lon="-0.00722">
        <ele>232.3</ele>
        <time>2021-08-19T13:04:51Z</time>
      </trkpt>
      <trkpt lat="43.42192" lon="-0.00711">
        <ele>230.85</ele>
        <time>2021-08-19T13:04:52Z</time>
      </trkpt>
      <trkpt lat="43.42185" lon="-0.00702">
        <ele>229.41</ele>
        <time>2021-08-19T13:04:53Z</time>
      </trkpt>
      <trkpt lat="43.42177" lon="-0.00694">
        <ele>228.45</ele>
        <time>2021-08-19T13:04:54Z</time>
      </trkpt>
      <trkpt lat="43.42167" lon="-0.00686">
        <ele>226.53</ele>
        <time>2021-08-19T13:04:55Z</time>
      </trkpt>
      <trkpt lat="43.42139" lon="-0.00659">
        <ele>223.16</ele>
        <time>2021-08-19T13:04:58Z</time>
      </trkpt>
      <trkpt lat="43.42131" lon="-0.00648">
        <ele>221.72</ele>
        <time>2021-08-19T13:04:59Z</time>
      </trkpt>
      <trkpt lat="43.42124" lon="-0.00636">
        <ele>221.24</ele>
        <time>2021-08-19T13:05:00Z</time>
      </trkpt>
      <trkpt lat="43.42117" lon="-0.00623">
        <ele>220.28</ele>
        <time>2021-08-19T13:05:01Z</time>
      </trkpt>
      <trkpt lat="43.42109" lon="-0.00611">
        <ele>220.76</ele>
        <time>2021-08-19T13:05:02Z</time>
      </trkpt>
      <trkpt lat="43.421" lon="-0.00601">
        <ele>220.28</ele>
        <time>2021-08-19T13:05:03Z</time>
      </trkpt>
      <trkpt lat="43.42091" lon="-0.00592">
        <ele>219.8</ele>
        <time>2021-08-19T13:05:04Z</time>
      </trkpt>
      <trkpt lat="43.42013" lon="-0.00515">
        <ele>216.91</ele>
        <time>2021-08-19T13:05:13Z</time>
      </trkpt>
      <trkpt lat="43.41971" lon="-0.00462">
        <ele>215.95</ele>
        <time>2021-08-19T13:05:19Z</time>
      </trkpt>
      <trkpt lat="43.41949" lon="-0.00433">
        <ele>215.47</ele>
        <time>2021-08-19T13:05:23Z</time>
      </trkpt>
      <trkpt lat="43.41944" lon="-0.00428">
        <ele>216.91</ele>
        <time>2021-08-19T13:05:24Z</time>
      </trkpt>
      <trkpt lat="43.41902" lon="-0.00404">
        <ele>216.91</ele>
        <time>2021-08-19T13:05:31Z</time>
      </trkpt>
      <trkpt lat="43.41857" lon="-0.00389">
        <ele>217.4</ele>
        <time>2021-08-19T13:05:39Z</time>
      </trkpt>
      <trkpt lat="43.41845" lon="-0.00387">
        <ele>217.88</ele>
        <time>2021-08-19T13:05:43Z</time>
      </trkpt>
      <trkpt lat="43.41845" lon="-0.00386">
        <ele>217.88</ele>
        <time>2021-08-19T13:05:48Z</time>
      </trkpt>
      <trkpt lat="43.41846" lon="-0.00386">
        <ele>217.4</ele>
        <time>2021-08-19T13:06:07Z</time>
      </trkpt>
      <trkpt lat="43.41845" lon="-0.00386">
        <ele>217.4</ele>
        <time>2021-08-19T13:06:20Z</time>
      </trkpt>
      <trkpt lat="43.41846" lon="-0.00386">
        <ele>217.4</ele>
        <time>2021-08-19T13:06:36Z</time>
      </trkpt>
      <trkpt lat="43.41845" lon="-0.00387">
        <ele>217.4</ele>
        <time>2021-08-19T13:06:42Z</time>
      </trkpt>
      <trkpt lat="43.41845" lon="-0.00388">
        <ele>217.4</ele>
        <time>2021-08-19T13:06:56Z</time>
      </trkpt>
      <trkpt lat="43.41845" lon="-0.00388">
        <ele>217.4</ele>
        <time>2021-08-19T13:07:12Z</time>
      </trkpt>
      <trkpt lat="43.41844" lon="-0.00387">
        <ele>217.4</ele>
        <time>2021-08-19T13:07:28Z</time>
      </trkpt>
      <trkpt lat="43.41843" lon="-0.00387">
        <ele>217.88</ele>
        <time>2021-08-19T13:07:47Z</time>
      </trkpt>
      <trkpt lat="43.41844" lon="-0.00387">
        <ele>217.88</ele>
        <time>2021-08-19T13:08:02Z</time>
      </trkpt>
      <trkpt lat="43.41844" lon="-0.00387">
        <ele>217.88</ele>
        <time>2021-08-19T13:08:19Z</time>
      </trkpt>
      <trkpt lat="43.41844" lon="-0.00384">
        <ele>217.88</ele>
        <time>2021-08-19T13:08:32Z</time>
      </trkpt>
      <trkpt lat="43.41843" lon="-0.00384">
        <ele>217.4</ele>
        <time>2021-08-19T13:08:41Z</time>
      </trkpt>
      <trkpt lat="43.41843" lon="-0.00384">
        <ele>217.4</ele>
        <time>2021-08-19T13:08:53Z</time>
      </trkpt>
      <trkpt lat="43.4184" lon="-0.00381">
        <ele>217.4</ele>
        <time>2021-08-19T13:09:01Z</time>
      </trkpt>
      <trkpt lat="43.41825" lon="-0.00372">
        <ele>217.4</ele>
        <time>2021-08-19T13:09:09Z</time>
      </trkpt>
      <trkpt lat="43.41819" lon="-0.00371">
        <ele>217.4</ele>
        <time>2021-08-19T13:09:15Z</time>
      </trkpt>
      <trkpt lat="43.41816" lon="-0.00369">
        <ele>217.88</ele>
        <time>2021-08-19T13:09:25Z</time>
      </trkpt>
      <trkpt lat="43.41796" lon="-0.00361">
        <ele>217.88</ele>
        <time>2021-08-19T13:09:32Z</time>
      </trkpt>
      <trkpt lat="43.4177" lon="-0.00353">
        <ele>217.88</ele>
        <time>2021-08-19T13:09:40Z</time>
      </trkpt>
      <trkpt lat="43.4175" lon="-0.00345">
        <ele>218.36</ele>
        <time>2021-08-19T13:09:47Z</time>
      </trkpt>
      <trkpt lat="43.41727" lon="-0.00337">
        <ele>218.36</ele>
        <time>2021-08-19T13:09:55Z</time>
      </trkpt>
      <trkpt lat="43.41704" lon="-0.00328">
        <ele>219.32</ele>
        <time>2021-08-19T13:10:03Z</time>
      </trkpt>
      <trkpt lat="43.41691" lon="-0.00322">
        <ele>220.28</ele>
        <time>2021-08-19T13:10:09Z</time>
      </trkpt>
      <trkpt lat="43.41681" lon="-0.00312">
        <ele>221.24</ele>
        <time>2021-08-19T13:10:16Z</time>
      </trkpt>
      <trkpt lat="43.41676" lon="-0.00306">
        <ele>222.2</ele>
        <time>2021-08-19T13:10:21Z</time>
      </trkpt>
      <trkpt lat="43.41668" lon="-0.00294">
        <ele>222.68</ele>
        <time>2021-08-19T13:10:27Z</time>
      </trkpt>
      <trkpt lat="43.4165" lon="-0.00285">
        <ele>223.64</ele>
        <time>2021-08-19T13:10:36Z</time>
      </trkpt>
      <trkpt lat="43.41635" lon="-0.00283">
        <ele>224.12</ele>
        <time>2021-08-19T13:10:43Z</time>
      </trkpt>
      <trkpt lat="43.41614" lon="-0.00281">
        <ele>224.61</ele>
        <time>2021-08-19T13:10:52Z</time>
      </trkpt>
      <trkpt lat="43.41599" lon="-0.00281">
        <ele>224.61</ele>
        <time>2021-08-19T13:10:59Z</time>
      </trkpt>
      <trkpt lat="43.41581" lon="-0.00276">
        <ele>224.61</ele>
        <time>2021-08-19T13:11:07Z</time>
      </trkpt>
      <trkpt lat="43.4156" lon="-0.00262">
        <ele>225.57</ele>
        <time>2021-08-19T13:11:17Z</time>
      </trkpt>
      <trkpt lat="43.41548" lon="-0.00255">
        <ele>225.57</ele>
        <time>2021-08-19T13:11:24Z</time>
      </trkpt>
      <trkpt lat="43.41531" lon="-0.00253">
        <ele>226.05</ele>
        <time>2021-08-19T13:11:31Z</time>
      </trkpt>
      <trkpt lat="43.41518" lon="-0.00253">
        <ele>227.01</ele>
        <time>2021-08-19T13:11:37Z</time>
      </trkpt>
      <trkpt lat="43.41506" lon="-0.00253">
        <ele>227.97</ele>
        <time>2021-08-19T13:11:45Z</time>
      </trkpt>
      <trkpt lat="43.41492" lon="-0.00251">
        <ele>228.93</ele>
        <time>2021-08-19T13:11:53Z</time>
      </trkpt>
      <trkpt lat="43.41484" lon="-0.00248">
        <ele>230.37</ele>
        <time>2021-08-19T13:12:00Z</time>
      </trkpt>
      <trkpt lat="43.41477" lon="-0.00242">
        <ele>230.85</ele>
        <time>2021-08-19T13:12:08Z</time>
      </trkpt>
      <trkpt lat="43.41474" lon="-0.00241">
        <ele>231.33</ele>
        <time>2021-08-19T13:12:16Z</time>
      </trkpt>
      <trkpt lat="43.41468" lon="-0.00237">
        <ele>231.33</ele>
        <time>2021-08-19T13:12:28Z</time>
      </trkpt>
      <trkpt lat="43.41464" lon="-0.00233">
        <ele>232.78</ele>
        <time>2021-08-19T13:12:36Z</time>
      </trkpt>
      <trkpt lat="43.41456" lon="-0.00228">
        <ele>234.22</ele>
        <time>2021-08-19T13:12:45Z</time>
      </trkpt>
      <trkpt lat="43.41451" lon="-0.00223">
        <ele>235.18</ele>
        <time>2021-08-19T13:12:52Z</time>
      </trkpt>
      <trkpt lat="43.41446" lon="-0.00218">
        <ele>236.62</ele>
        <time>2021-08-19T13:13:00Z</time>
      </trkpt>
      <trkpt lat="43.41443" lon="-0.00212">
        <ele>237.58</ele>
        <time>2021-08-19T13:13:07Z</time>
      </trkpt>
      <trkpt lat="43.41441" lon="-0.00202">
        <ele>238.54</ele>
        <time>2021-08-19T13:13:16Z</time>
      </trkpt>
      <trkpt lat="43.41438" lon="-0.00196">
        <ele>239.99</ele>
        <time>2021-08-19T13:13:25Z</time>
      </trkpt>
      <trkpt lat="43.41432" lon="-0.00193">
        <ele>240.95</ele>
        <time>2021-08-19T13:13:34Z</time>
      </trkpt>
      <trkpt lat="43.41425" lon="-0.00188">
        <ele>243.35</ele>
        <time>2021-08-19T13:13:45Z</time>
      </trkpt>
      <trkpt lat="43.41419" lon="-0.00179">
        <ele>245.27</ele>
        <time>2021-08-19T13:13:55Z</time>
      </trkpt>
      <trkpt lat="43.41413" lon="-0.00175">
        <ele>246.23</ele>
        <time>2021-08-19T13:14:04Z</time>
      </trkpt>
      <trkpt lat="43.41408" lon="-0.00173">
        <ele>247.2</ele>
        <time>2021-08-19T13:14:11Z</time>
      </trkpt>
      <trkpt lat="43.41401" lon="-0.00168">
        <ele>248.64</ele>
        <time>2021-08-19T13:14:19Z</time>
      </trkpt>
      <trkpt lat="43.41395" lon="-0.00165">
        <ele>249.6</ele>
        <time>2021-08-19T13:14:27Z</time>
      </trkpt>
      <trkpt lat="43.4139" lon="-0.00156">
        <ele>251.04</ele>
        <time>2021-08-19T13:14:36Z</time>
      </trkpt>
      <trkpt lat="43.41386" lon="-0.00146">
        <ele>252</ele>
        <time>2021-08-19T13:14:45Z</time>
      </trkpt>
      <trkpt lat="43.41384" lon="-0.00143">
        <ele>252.96</ele>
        <time>2021-08-19T13:14:51Z</time>
      </trkpt>
      <trkpt lat="43.4138" lon="-0.00136">
        <ele>254.89</ele>
        <time>2021-08-19T13:15:00Z</time>
      </trkpt>
      <trkpt lat="43.41374" lon="-0.0013">
        <ele>255.85</ele>
        <time>2021-08-19T13:15:08Z</time>
      </trkpt>
      <trkpt lat="43.41371" lon="-0.00122">
        <ele>257.29</ele>
        <time>2021-08-19T13:15:17Z</time>
      </trkpt>
      <trkpt lat="43.41367" lon="-0.00115">
        <ele>258.25</ele>
        <time>2021-08-19T13:15:25Z</time>
      </trkpt>
      <trkpt lat="43.41366" lon="-0.00108">
        <ele>260.17</ele>
        <time>2021-08-19T13:15:34Z</time>
      </trkpt>
      <trkpt lat="43.41363" lon="-0.00102">
        <ele>261.62</ele>
        <time>2021-08-19T13:15:43Z</time>
      </trkpt>
      <trkpt lat="43.41356" lon="-0.00095">
        <ele>263.06</ele>
        <time>2021-08-19T13:15:52Z</time>
      </trkpt>
      <trkpt lat="43.41352" lon="-0.00086">
        <ele>264.5</ele>
        <time>2021-08-19T13:16:02Z</time>
      </trkpt>
      <trkpt lat="43.41347" lon="-0.00076">
        <ele>265.94</ele>
        <time>2021-08-19T13:16:12Z</time>
      </trkpt>
      <trkpt lat="43.4134" lon="-0.00063">
        <ele>266.9</ele>
        <time>2021-08-19T13:16:24Z</time>
      </trkpt>
      <trkpt lat="43.41339" lon="-0.00059">
        <ele>266.9</ele>
        <time>2021-08-19T13:16:30Z</time>
      </trkpt>
      <trkpt lat="43.41338" lon="-0.00057">
        <ele>267.38</ele>
        <time>2021-08-19T13:16:31Z</time>
      </trkpt>
      <trkpt lat="43.41337" lon="-0.00055">
        <ele>267.38</ele>
        <time>2021-08-19T13:16:32Z</time>
      </trkpt>
      <trkpt lat="43.41335" lon="-0.00052">
        <ele>267.38</ele>
        <time>2021-08-19T13:16:33Z</time>
      </trkpt>
      <trkpt lat="43.41334" lon="-0.00049">
        <ele>267.38</ele>
        <time>2021-08-19T13:16:34Z</time>
      </trkpt>
      <trkpt lat="43.41333" lon="-0.00047">
        <ele>267.86</ele>
        <time>2021-08-19T13:16:35Z</time>
      </trkpt>
      <trkpt lat="43.41329" lon="-0.00034">
        <ele>268.35</ele>
        <time>2021-08-19T13:16:40Z</time>
      </trkpt>
      <trkpt lat="43.41327" lon="-0.00031">
        <ele>268.35</ele>
        <time>2021-08-19T13:16:41Z</time>
      </trkpt>
      <trkpt lat="43.41325" lon="-0.00029">
        <ele>268.83</ele>
        <time>2021-08-19T13:16:42Z</time>
      </trkpt>
      <trkpt lat="43.41324" lon="-0.00028">
        <ele>268.83</ele>
        <time>2021-08-19T13:16:43Z</time>
      </trkpt>
      <trkpt lat="43.41323" lon="-0.00025">
        <ele>268.83</ele>
        <time>2021-08-19T13:16:44Z</time>
      </trkpt>
      <trkpt lat="43.41321" lon="-0.00022">
        <ele>268.83</ele>
        <time>2021-08-19T13:16:45Z</time>
      </trkpt>
      <trkpt lat="43.41305" lon="-7.0E-5">
        <ele>268.83</ele>
        <time>2021-08-19T13:16:51Z</time>
      </trkpt>
      <trkpt lat="43.41292" lon="-1.0E-5">
        <ele>268.83</ele>
        <time>2021-08-19T13:16:56Z</time>
      </trkpt>
      <trkpt lat="43.41275" lon="5.0E-5">
        <ele>268.83</ele>
        <time>2021-08-19T13:17:02Z</time>
      </trkpt>
      <trkpt lat="43.41258" lon="0.00016">
        <ele>269.31</ele>
        <time>2021-08-19T13:17:08Z</time>
      </trkpt>
      <trkpt lat="43.41248" lon="0.00021">
        <ele>270.75</ele>
        <time>2021-08-19T13:17:14Z</time>
      </trkpt>
      <trkpt lat="43.41241" lon="0.00026">
        <ele>271.71</ele>
        <time>2021-08-19T13:17:21Z</time>
      </trkpt>
      <trkpt lat="43.4124" lon="0.00025">
        <ele>271.71</ele>
        <time>2021-08-19T13:17:35Z</time>
      </trkpt>
      <trkpt lat="43.4124" lon="0.00022">
        <ele>271.71</ele>
        <time>2021-08-19T13:17:50Z</time>
      </trkpt>
      <trkpt lat="43.4123" lon="0.00026">
        <ele>273.15</ele>
        <time>2021-08-19T13:17:58Z</time>
      </trkpt>
      <trkpt lat="43.41224" lon="0.0003">
        <ele>273.63</ele>
        <time>2021-08-19T13:18:06Z</time>
      </trkpt>
      <trkpt lat="43.41219" lon="0.00034">
        <ele>274.59</ele>
        <time>2021-08-19T13:18:15Z</time>
      </trkpt>
      <trkpt lat="43.41214" lon="0.00039">
        <ele>275.56</ele>
        <time>2021-08-19T13:18:22Z</time>
      </trkpt>
      <trkpt lat="43.41204" lon="0.00046">
        <ele>276.52</ele>
        <time>2021-08-19T13:18:29Z</time>
      </trkpt>
      <trkpt lat="43.41195" lon="0.00051">
        <ele>277.96</ele>
        <time>2021-08-19T13:18:36Z</time>
      </trkpt>
      <trkpt lat="43.41186" lon="0.00056">
        <ele>278.92</ele>
        <time>2021-08-19T13:18:44Z</time>
      </trkpt>
      <trkpt lat="43.41178" lon="0.00061">
        <ele>279.88</ele>
        <time>2021-08-19T13:18:51Z</time>
      </trkpt>
      <trkpt lat="43.41168" lon="0.00069">
        <ele>281.32</ele>
        <time>2021-08-19T13:18:59Z</time>
      </trkpt>
      <trkpt lat="43.41161" lon="0.00076">
        <ele>282.77</ele>
        <time>2021-08-19T13:19:06Z</time>
      </trkpt>
      <trkpt lat="43.41157" lon="0.00079">
        <ele>284.21</ele>
        <time>2021-08-19T13:19:10Z</time>
      </trkpt>
      <trkpt lat="43.41148" lon="0.00088">
        <ele>285.65</ele>
        <time>2021-08-19T13:19:18Z</time>
      </trkpt>
      <trkpt lat="43.41141" lon="0.00093">
        <ele>288.05</ele>
        <time>2021-08-19T13:19:25Z</time>
      </trkpt>
      <trkpt lat="43.41131" lon="0.00103">
        <ele>289.01</ele>
        <time>2021-08-19T13:19:33Z</time>
      </trkpt>
      <trkpt lat="43.41123" lon="0.00111">
        <ele>290.46</ele>
        <time>2021-08-19T13:19:40Z</time>
      </trkpt>
      <trkpt lat="43.41115" lon="0.00118">
        <ele>291.9</ele>
        <time>2021-08-19T13:19:48Z</time>
      </trkpt>
      <trkpt lat="43.41098" lon="0.00124">
        <ele>292.86</ele>
        <time>2021-08-19T13:19:57Z</time>
      </trkpt>
      <trkpt lat="43.41086" lon="0.0013">
        <ele>294.3</ele>
        <time>2021-08-19T13:20:07Z</time>
      </trkpt>
      <trkpt lat="43.41079" lon="0.00135">
        <ele>296.22</ele>
        <time>2021-08-19T13:20:15Z</time>
      </trkpt>
      <trkpt lat="43.41073" lon="0.0014">
        <ele>297.67</ele>
        <time>2021-08-19T13:20:22Z</time>
      </trkpt>
      <trkpt lat="43.41065" lon="0.00145">
        <ele>299.59</ele>
        <time>2021-08-19T13:20:29Z</time>
      </trkpt>
      <trkpt lat="43.41061" lon="0.00147">
        <ele>300.07</ele>
        <time>2021-08-19T13:20:32Z</time>
      </trkpt>
      <trkpt lat="43.41059" lon="0.00147">
        <ele>300.55</ele>
        <time>2021-08-19T13:20:33Z</time>
      </trkpt>
      <trkpt lat="43.41057" lon="0.00149">
        <ele>301.03</ele>
        <time>2021-08-19T13:20:35Z</time>
      </trkpt>
      <trkpt lat="43.41047" lon="0.00154">
        <ele>302.47</ele>
        <time>2021-08-19T13:20:42Z</time>
      </trkpt>
      <trkpt lat="43.41037" lon="0.00158">
        <ele>304.88</ele>
        <time>2021-08-19T13:20:49Z</time>
      </trkpt>
      <trkpt lat="43.41035" lon="0.00158">
        <ele>304.88</ele>
        <time>2021-08-19T13:20:50Z</time>
      </trkpt>
      <trkpt lat="43.41033" lon="0.00159">
        <ele>305.36</ele>
        <time>2021-08-19T13:20:51Z</time>
      </trkpt>
      <trkpt lat="43.41031" lon="0.00159">
        <ele>305.36</ele>
        <time>2021-08-19T13:20:52Z</time>
      </trkpt>
      <trkpt lat="43.4103" lon="0.0016">
        <ele>305.84</ele>
        <time>2021-08-19T13:20:53Z</time>
      </trkpt>
      <trkpt lat="43.41021" lon="0.00165">
        <ele>307.28</ele>
        <time>2021-08-19T13:21:00Z</time>
      </trkpt>
      <trkpt lat="43.4101" lon="0.00174">
        <ele>308.72</ele>
        <time>2021-08-19T13:21:08Z</time>
      </trkpt>
      <trkpt lat="43.41" lon="0.00181">
        <ele>310.16</ele>
        <time>2021-08-19T13:21:15Z</time>
      </trkpt>
      <trkpt lat="43.40985" lon="0.00189">
        <ele>311.12</ele>
        <time>2021-08-19T13:21:23Z</time>
      </trkpt>
      <trkpt lat="43.40964" lon="0.00206">
        <ele>312.09</ele>
        <time>2021-08-19T13:21:31Z</time>
      </trkpt>
      <trkpt lat="43.40963" lon="0.00208">
        <ele>312.09</ele>
        <time>2021-08-19T13:21:32Z</time>
      </trkpt>
      <trkpt lat="43.40961" lon="0.0021">
        <ele>312.09</ele>
        <time>2021-08-19T13:21:33Z</time>
      </trkpt>
      <trkpt lat="43.4096" lon="0.00211">
        <ele>312.57</ele>
        <time>2021-08-19T13:21:34Z</time>
      </trkpt>
      <trkpt lat="43.40958" lon="0.00212">
        <ele>312.57</ele>
        <time>2021-08-19T13:21:35Z</time>
      </trkpt>
      <trkpt lat="43.40955" lon="0.00214">
        <ele>312.57</ele>
        <time>2021-08-19T13:21:36Z</time>
      </trkpt>
      <trkpt lat="43.40954" lon="0.00215">
        <ele>313.05</ele>
        <time>2021-08-19T13:21:37Z</time>
      </trkpt>
      <trkpt lat="43.40952" lon="0.00217">
        <ele>313.05</ele>
        <time>2021-08-19T13:21:38Z</time>
      </trkpt>
      <trkpt lat="43.4094" lon="0.00231">
        <ele>314.49</ele>
        <time>2021-08-19T13:21:46Z</time>
      </trkpt>
      <trkpt lat="43.40939" lon="0.00233">
        <ele>314.49</ele>
        <time>2021-08-19T13:21:47Z</time>
      </trkpt>
      <trkpt lat="43.40937" lon="0.00236">
        <ele>314.49</ele>
        <time>2021-08-19T13:21:49Z</time>
      </trkpt>
      <trkpt lat="43.40935" lon="0.00236">
        <ele>314.49</ele>
        <time>2021-08-19T13:21:50Z</time>
      </trkpt>
      <trkpt lat="43.40908" lon="0.00225">
        <ele>314.49</ele>
        <time>2021-08-19T13:21:57Z</time>
      </trkpt>
      <trkpt lat="43.40886" lon="0.0021">
        <ele>314.49</ele>
        <time>2021-08-19T13:22:04Z</time>
      </trkpt>
      <trkpt lat="43.40871" lon="0.00197">
        <ele>314.49</ele>
        <time>2021-08-19T13:22:10Z</time>
      </trkpt>
      <trkpt lat="43.40855" lon="0.00186">
        <ele>314.49</ele>
        <time>2021-08-19T13:22:16Z</time>
      </trkpt>
      <trkpt lat="43.40841" lon="0.0018">
        <ele>314.49</ele>
        <time>2021-08-19T13:22:22Z</time>
      </trkpt>
      <trkpt lat="43.40817" lon="0.00168">
        <ele>314.49</ele>
        <time>2021-08-19T13:22:30Z</time>
      </trkpt>
      <trkpt lat="43.40789" lon="0.00148">
        <ele>315.45</ele>
        <time>2021-08-19T13:22:39Z</time>
      </trkpt>
      <trkpt lat="43.40764" lon="0.00124">
        <ele>315.93</ele>
        <time>2021-08-19T13:22:47Z</time>
      </trkpt>
      <trkpt lat="43.4074" lon="0.00098">
        <ele>316.89</ele>
        <time>2021-08-19T13:22:55Z</time>
      </trkpt>
      <trkpt lat="43.40715" lon="0.00074">
        <ele>317.85</ele>
        <time>2021-08-19T13:23:03Z</time>
      </trkpt>
      <trkpt lat="43.40698" lon="0.0006">
        <ele>317.85</ele>
        <time>2021-08-19T13:23:09Z</time>
      </trkpt>
      <trkpt lat="43.40683" lon="0.00044">
        <ele>317.85</ele>
        <time>2021-08-19T13:23:13Z</time>
      </trkpt>
      <trkpt lat="43.40677" lon="0.00035">
        <ele>317.85</ele>
        <time>2021-08-19T13:23:15Z</time>
      </trkpt>
      <trkpt lat="43.4067" lon="0.00027">
        <ele>317.85</ele>
        <time>2021-08-19T13:23:17Z</time>
      </trkpt>
      <trkpt lat="43.40655" lon="0.00012">
        <ele>317.85</ele>
        <time>2021-08-19T13:23:21Z</time>
      </trkpt>
      <trkpt lat="43.40635" lon="-0.00016">
        <ele>317.85</ele>
        <time>2021-08-19T13:23:27Z</time>
      </trkpt>
      <trkpt lat="43.40621" lon="-0.00035">
        <ele>317.85</ele>
        <time>2021-08-19T13:23:31Z</time>
      </trkpt>
      <trkpt lat="43.40618" lon="-0.0004">
        <ele>318.33</ele>
        <time>2021-08-19T13:23:32Z</time>
      </trkpt>
      <trkpt lat="43.40615" lon="-0.00045">
        <ele>318.33</ele>
        <time>2021-08-19T13:23:33Z</time>
      </trkpt>
      <trkpt lat="43.40611" lon="-0.00049">
        <ele>318.33</ele>
        <time>2021-08-19T13:23:34Z</time>
      </trkpt>
      <trkpt lat="43.40607" lon="-0.00054">
        <ele>318.33</ele>
        <time>2021-08-19T13:23:35Z</time>
      </trkpt>
      <trkpt lat="43.40596" lon="-0.00066">
        <ele>318.33</ele>
        <time>2021-08-19T13:23:38Z</time>
      </trkpt>
      <trkpt lat="43.40592" lon="-0.0007">
        <ele>318.33</ele>
        <time>2021-08-19T13:23:39Z</time>
      </trkpt>
      <trkpt lat="43.40589" lon="-0.00075">
        <ele>318.33</ele>
        <time>2021-08-19T13:23:40Z</time>
      </trkpt>
      <trkpt lat="43.40585" lon="-0.0008">
        <ele>318.81</ele>
        <time>2021-08-19T13:23:41Z</time>
      </trkpt>
      <trkpt lat="43.40583" lon="-0.00083">
        <ele>318.81</ele>
        <time>2021-08-19T13:23:42Z</time>
      </trkpt>
      <trkpt lat="43.4057" lon="-0.00098">
        <ele>318.81</ele>
        <time>2021-08-19T13:23:45Z</time>
      </trkpt>
      <trkpt lat="43.40566" lon="-0.001">
        <ele>318.81</ele>
        <time>2021-08-19T13:23:46Z</time>
      </trkpt>
      <trkpt lat="43.40561" lon="-0.00102">
        <ele>318.81</ele>
        <time>2021-08-19T13:23:47Z</time>
      </trkpt>
      <trkpt lat="43.40557" lon="-0.00104">
        <ele>318.81</ele>
        <time>2021-08-19T13:23:48Z</time>
      </trkpt>
      <trkpt lat="43.40552" lon="-0.00105">
        <ele>318.81</ele>
        <time>2021-08-19T13:23:49Z</time>
      </trkpt>
      <trkpt lat="43.40547" lon="-0.00107">
        <ele>318.81</ele>
        <time>2021-08-19T13:23:50Z</time>
      </trkpt>
      <trkpt lat="43.40542" lon="-0.00109">
        <ele>318.81</ele>
        <time>2021-08-19T13:23:51Z</time>
      </trkpt>
      <trkpt lat="43.40538" lon="-0.00112">
        <ele>318.81</ele>
        <time>2021-08-19T13:23:52Z</time>
      </trkpt>
      <trkpt lat="43.40533" lon="-0.00114">
        <ele>318.81</ele>
        <time>2021-08-19T13:23:53Z</time>
      </trkpt>
      <trkpt lat="43.40529" lon="-0.00116">
        <ele>318.81</ele>
        <time>2021-08-19T13:23:54Z</time>
      </trkpt>
      <trkpt lat="43.4052" lon="-0.00121">
        <ele>318.81</ele>
        <time>2021-08-19T13:23:56Z</time>
      </trkpt>
      <trkpt lat="43.40516" lon="-0.00123">
        <ele>318.81</ele>
        <time>2021-08-19T13:23:57Z</time>
      </trkpt>
      <trkpt lat="43.40487" lon="-0.00138">
        <ele>318.81</ele>
        <time>2021-08-19T13:24:04Z</time>
      </trkpt>
      <trkpt lat="43.40459" lon="-0.00147">
        <ele>318.81</ele>
        <time>2021-08-19T13:24:11Z</time>
      </trkpt>
      <trkpt lat="43.40453" lon="-0.00147">
        <ele>318.81</ele>
        <time>2021-08-19T13:24:12Z</time>
      </trkpt>
      <trkpt lat="43.40448" lon="-0.00147">
        <ele>318.81</ele>
        <time>2021-08-19T13:24:13Z</time>
      </trkpt>
      <trkpt lat="43.40431" lon="-0.00148">
        <ele>317.85</ele>
        <time>2021-08-19T13:24:16Z</time>
      </trkpt>
      <trkpt lat="43.40425" lon="-0.00148">
        <ele>317.37</ele>
        <time>2021-08-19T13:24:17Z</time>
      </trkpt>
      <trkpt lat="43.40407" lon="-0.00147">
        <ele>317.37</ele>
        <time>2021-08-19T13:24:20Z</time>
      </trkpt>
      <trkpt lat="43.40391" lon="-0.00149">
        <ele>317.85</ele>
        <time>2021-08-19T13:24:23Z</time>
      </trkpt>
      <trkpt lat="43.40385" lon="-0.00148">
        <ele>317.85</ele>
        <time>2021-08-19T13:24:24Z</time>
      </trkpt>
      <trkpt lat="43.40363" lon="-0.00147">
        <ele>317.85</ele>
        <time>2021-08-19T13:24:28Z</time>
      </trkpt>
      <trkpt lat="43.40348" lon="-0.00147">
        <ele>318.81</ele>
        <time>2021-08-19T13:24:31Z</time>
      </trkpt>
      <trkpt lat="43.40309" lon="-0.00143">
        <ele>320.74</ele>
        <time>2021-08-19T13:24:40Z</time>
      </trkpt>
      <trkpt lat="43.4028" lon="-0.00139">
        <ele>321.7</ele>
        <time>2021-08-19T13:24:48Z</time>
      </trkpt>
      <trkpt lat="43.40256" lon="-0.00135">
        <ele>322.66</ele>
        <time>2021-08-19T13:24:55Z</time>
      </trkpt>
      <trkpt lat="43.40218" lon="-0.0013">
        <ele>323.14</ele>
        <time>2021-08-19T13:25:05Z</time>
      </trkpt>
      <trkpt lat="43.40197" lon="-0.00129">
        <ele>323.14</ele>
        <time>2021-08-19T13:25:10Z</time>
      </trkpt>
      <trkpt lat="43.40193" lon="-0.0013">
        <ele>323.14</ele>
        <time>2021-08-19T13:25:11Z</time>
      </trkpt>
      <trkpt lat="43.40189" lon="-0.00131">
        <ele>323.14</ele>
        <time>2021-08-19T13:25:12Z</time>
      </trkpt>
      <trkpt lat="43.40175" lon="-0.00138">
        <ele>323.14</ele>
        <time>2021-08-19T13:25:15Z</time>
      </trkpt>
      <trkpt lat="43.40165" lon="-0.00146">
        <ele>321.7</ele>
        <time>2021-08-19T13:25:17Z</time>
      </trkpt>
      <trkpt lat="43.40161" lon="-0.00151">
        <ele>320.74</ele>
        <time>2021-08-19T13:25:18Z</time>
      </trkpt>
      <trkpt lat="43.40152" lon="-0.00164">
        <ele>320.26</ele>
        <time>2021-08-19T13:25:20Z</time>
      </trkpt>
      <trkpt lat="43.40148" lon="-0.00171">
        <ele>320.26</ele>
        <time>2021-08-19T13:25:21Z</time>
      </trkpt>
      <trkpt lat="43.40131" lon="-0.00218">
        <ele>318.33</ele>
        <time>2021-08-19T13:25:27Z</time>
      </trkpt>
      <trkpt lat="43.40127" lon="-0.00225">
        <ele>318.33</ele>
        <time>2021-08-19T13:25:28Z</time>
      </trkpt>
      <trkpt lat="43.40124" lon="-0.00232">
        <ele>317.85</ele>
        <time>2021-08-19T13:25:29Z</time>
      </trkpt>
      <trkpt lat="43.40119" lon="-0.00238">
        <ele>317.37</ele>
        <time>2021-08-19T13:25:30Z</time>
      </trkpt>
      <trkpt lat="43.40112" lon="-0.00243">
        <ele>316.89</ele>
        <time>2021-08-19T13:25:31Z</time>
      </trkpt>
      <trkpt lat="43.40105" lon="-0.00248">
        <ele>315.45</ele>
        <time>2021-08-19T13:25:32Z</time>
      </trkpt>
      <trkpt lat="43.40098" lon="-0.00251">
        <ele>315.45</ele>
        <time>2021-08-19T13:25:33Z</time>
      </trkpt>
      <trkpt lat="43.40091" lon="-0.00252">
        <ele>315.45</ele>
        <time>2021-08-19T13:25:34Z</time>
      </trkpt>
      <trkpt lat="43.40085" lon="-0.00252">
        <ele>315.45</ele>
        <time>2021-08-19T13:25:35Z</time>
      </trkpt>
      <trkpt lat="43.40078" lon="-0.00251">
        <ele>315.45</ele>
        <time>2021-08-19T13:25:36Z</time>
      </trkpt>
      <trkpt lat="43.40052" lon="-0.0024">
        <ele>316.41</ele>
        <time>2021-08-19T13:25:41Z</time>
      </trkpt>
      <trkpt lat="43.40033" lon="-0.00228">
        <ele>316.89</ele>
        <time>2021-08-19T13:25:46Z</time>
      </trkpt>
      <trkpt lat="43.40019" lon="-0.00221">
        <ele>316.89</ele>
        <time>2021-08-19T13:25:49Z</time>
      </trkpt>
      <trkpt lat="43.39993" lon="-0.00205">
        <ele>317.37</ele>
        <time>2021-08-19T13:25:55Z</time>
      </trkpt>
      <trkpt lat="43.39958" lon="-0.00184">
        <ele>318.33</ele>
        <time>2021-08-19T13:26:03Z</time>
      </trkpt>
      <trkpt lat="43.39926" lon="-0.00174">
        <ele>319.78</ele>
        <time>2021-08-19T13:26:11Z</time>
      </trkpt>
      <trkpt lat="43.39905" lon="-0.00184">
        <ele>320.26</ele>
        <time>2021-08-19T13:26:17Z</time>
      </trkpt>
      <trkpt lat="43.39892" lon="-0.00195">
        <ele>320.26</ele>
        <time>2021-08-19T13:26:20Z</time>
      </trkpt>
      <trkpt lat="43.39888" lon="-0.00201">
        <ele>320.26</ele>
        <time>2021-08-19T13:26:21Z</time>
      </trkpt>
      <trkpt lat="43.39884" lon="-0.00208">
        <ele>320.26</ele>
        <time>2021-08-19T13:26:22Z</time>
      </trkpt>
      <trkpt lat="43.3988" lon="-0.00214">
        <ele>320.26</ele>
        <time>2021-08-19T13:26:23Z</time>
      </trkpt>
      <trkpt lat="43.39878" lon="-0.0022">
        <ele>320.26</ele>
        <time>2021-08-19T13:26:24Z</time>
      </trkpt>
      <trkpt lat="43.3987" lon="-0.00245">
        <ele>320.26</ele>
        <time>2021-08-19T13:26:28Z</time>
      </trkpt>
      <trkpt lat="43.39852" lon="-0.00296">
        <ele>320.26</ele>
        <time>2021-08-19T13:26:36Z</time>
      </trkpt>
      <trkpt lat="43.39841" lon="-0.00328">
        <ele>320.26</ele>
        <time>2021-08-19T13:26:41Z</time>
      </trkpt>
      <trkpt lat="43.39833" lon="-0.00364">
        <ele>320.26</ele>
        <time>2021-08-19T13:26:46Z</time>
      </trkpt>
      <trkpt lat="43.39832" lon="-0.00372">
        <ele>320.26</ele>
        <time>2021-08-19T13:26:47Z</time>
      </trkpt>
      <trkpt lat="43.3983" lon="-0.00379">
        <ele>320.26</ele>
        <time>2021-08-19T13:26:48Z</time>
      </trkpt>
      <trkpt lat="43.39828" lon="-0.00386">
        <ele>320.26</ele>
        <time>2021-08-19T13:26:49Z</time>
      </trkpt>
      <trkpt lat="43.39825" lon="-0.00392">
        <ele>320.26</ele>
        <time>2021-08-19T13:26:50Z</time>
      </trkpt>
      <trkpt lat="43.39822" lon="-0.00397">
        <ele>320.26</ele>
        <time>2021-08-19T13:26:51Z</time>
      </trkpt>
      <trkpt lat="43.39818" lon="-0.004">
        <ele>320.26</ele>
        <time>2021-08-19T13:26:52Z</time>
      </trkpt>
      <trkpt lat="43.39813" lon="-0.004">
        <ele>320.26</ele>
        <time>2021-08-19T13:26:53Z</time>
      </trkpt>
      <trkpt lat="43.3981" lon="-0.00397">
        <ele>318.33</ele>
        <time>2021-08-19T13:26:54Z</time>
      </trkpt>
      <trkpt lat="43.39806" lon="-0.00393">
        <ele>317.85</ele>
        <time>2021-08-19T13:26:55Z</time>
      </trkpt>
      <trkpt lat="43.39803" lon="-0.00387">
        <ele>317.37</ele>
        <time>2021-08-19T13:26:56Z</time>
      </trkpt>
      <trkpt lat="43.398" lon="-0.00381">
        <ele>315.93</ele>
        <time>2021-08-19T13:26:57Z</time>
      </trkpt>
      <trkpt lat="43.39797" lon="-0.00374">
        <ele>314.97</ele>
        <time>2021-08-19T13:26:58Z</time>
      </trkpt>
      <trkpt lat="43.39787" lon="-0.00352">
        <ele>312.09</ele>
        <time>2021-08-19T13:27:01Z</time>
      </trkpt>
      <trkpt lat="43.39774" lon="-0.00324">
        <ele>309.2</ele>
        <time>2021-08-19T13:27:05Z</time>
      </trkpt>
      <trkpt lat="43.39765" lon="-0.00304">
        <ele>306.32</ele>
        <time>2021-08-19T13:27:08Z</time>
      </trkpt>
      <trkpt lat="43.3976" lon="-0.00296">
        <ele>305.36</ele>
        <time>2021-08-19T13:27:09Z</time>
      </trkpt>
      <trkpt lat="43.39755" lon="-0.00289">
        <ele>304.39</ele>
        <time>2021-08-19T13:27:10Z</time>
      </trkpt>
      <trkpt lat="43.39751" lon="-0.00283">
        <ele>303.43</ele>
        <time>2021-08-19T13:27:11Z</time>
      </trkpt>
      <trkpt lat="43.3974" lon="-0.00271">
        <ele>301.51</ele>
        <time>2021-08-19T13:27:13Z</time>
      </trkpt>
      <trkpt lat="43.39732" lon="-0.00265">
        <ele>300.07</ele>
        <time>2021-08-19T13:27:14Z</time>
      </trkpt>
      <trkpt lat="43.39723" lon="-0.00254">
        <ele>298.63</ele>
        <time>2021-08-19T13:27:16Z</time>
      </trkpt>
      <trkpt lat="43.39716" lon="-0.00246">
        <ele>297.18</ele>
        <time>2021-08-19T13:27:17Z</time>
      </trkpt>
      <trkpt lat="43.39708" lon="-0.00232">
        <ele>295.74</ele>
        <time>2021-08-19T13:27:19Z</time>
      </trkpt>
      <trkpt lat="43.39698" lon="-0.0021">
        <ele>294.3</ele>
        <time>2021-08-19T13:27:23Z</time>
      </trkpt>
      <trkpt lat="43.39688" lon="-0.00188">
        <ele>293.34</ele>
        <time>2021-08-19T13:27:28Z</time>
      </trkpt>
      <trkpt lat="43.39678" lon="-0.00163">
        <ele>289.97</ele>
        <time>2021-08-19T13:27:34Z</time>
      </trkpt>
      <trkpt lat="43.39669" lon="-0.00149">
        <ele>288.53</ele>
        <time>2021-08-19T13:27:37Z</time>
      </trkpt>
      <trkpt lat="43.39665" lon="-0.00143">
        <ele>287.57</ele>
        <time>2021-08-19T13:27:38Z</time>
      </trkpt>
      <trkpt lat="43.39662" lon="-0.00137">
        <ele>287.09</ele>
        <time>2021-08-19T13:27:39Z</time>
      </trkpt>
      <trkpt lat="43.39653" lon="-0.00116">
        <ele>284.21</ele>
        <time>2021-08-19T13:27:42Z</time>
      </trkpt>
      <trkpt lat="43.39641" lon="-0.00083">
        <ele>280.84</ele>
        <time>2021-08-19T13:27:46Z</time>
      </trkpt>
      <trkpt lat="43.39637" lon="-0.00077">
        <ele>279.88</ele>
        <time>2021-08-19T13:27:47Z</time>
      </trkpt>
      <trkpt lat="43.39632" lon="-0.0007">
        <ele>278.92</ele>
        <time>2021-08-19T13:27:48Z</time>
      </trkpt>
      <trkpt lat="43.39626" lon="-0.00063">
        <ele>277.96</ele>
        <time>2021-08-19T13:27:49Z</time>
      </trkpt>
      <trkpt lat="43.39616" lon="-0.00048">
        <ele>277.96</ele>
        <time>2021-08-19T13:27:51Z</time>
      </trkpt>
      <trkpt lat="43.39613" lon="-0.00041">
        <ele>277.96</ele>
        <time>2021-08-19T13:27:52Z</time>
      </trkpt>
      <trkpt lat="43.3961" lon="-0.00033">
        <ele>279.4</ele>
        <time>2021-08-19T13:27:53Z</time>
      </trkpt>
      <trkpt lat="43.39606" lon="-0.0002">
        <ele>280.84</ele>
        <time>2021-08-19T13:27:56Z</time>
      </trkpt>
      <trkpt lat="43.39609" lon="-0.00013">
        <ele>281.8</ele>
        <time>2021-08-19T13:27:59Z</time>
      </trkpt>
      <trkpt lat="43.3961" lon="-0.00011">
        <ele>282.28</ele>
        <time>2021-08-19T13:28:00Z</time>
      </trkpt>
      <trkpt lat="43.3961" lon="-8.0E-5">
        <ele>282.28</ele>
        <time>2021-08-19T13:28:01Z</time>
      </trkpt>
      <trkpt lat="43.3961" lon="-7.0E-5">
        <ele>282.77</ele>
        <time>2021-08-19T13:28:02Z</time>
      </trkpt>
      <trkpt lat="43.39611" lon="-4.0E-5">
        <ele>282.77</ele>
        <time>2021-08-19T13:28:03Z</time>
      </trkpt>
      <trkpt lat="43.39611" lon="-2.0E-5">
        <ele>282.77</ele>
        <time>2021-08-19T13:28:04Z</time>
      </trkpt>
      <trkpt lat="43.39611" lon="0">
        <ele>282.77</ele>
        <time>2021-08-19T13:28:05Z</time>
      </trkpt>
      <trkpt lat="43.39608" lon="0.00018">
        <ele>284.69</ele>
        <time>2021-08-19T13:28:12Z</time>
      </trkpt>
      <trkpt lat="43.39605" lon="0.00039">
        <ele>285.65</ele>
        <time>2021-08-19T13:28:19Z</time>
      </trkpt>
      <trkpt lat="43.39605" lon="0.00049">
        <ele>285.65</ele>
        <time>2021-08-19T13:28:22Z</time>
      </trkpt>
      <trkpt lat="43.39603" lon="0.00061">
        <ele>286.61</ele>
        <time>2021-08-19T13:28:26Z</time>
      </trkpt>
      <trkpt lat="43.39602" lon="0.00065">
        <ele>286.61</ele>
        <time>2021-08-19T13:28:27Z</time>
      </trkpt>
      <trkpt lat="43.39601" lon="0.00068">
        <ele>286.61</ele>
        <time>2021-08-19T13:28:28Z</time>
      </trkpt>
      <trkpt lat="43.396" lon="0.00072">
        <ele>286.61</ele>
        <time>2021-08-19T13:28:29Z</time>
      </trkpt>
      <trkpt lat="43.39599" lon="0.00075">
        <ele>286.61</ele>
        <time>2021-08-19T13:28:30Z</time>
      </trkpt>
      <trkpt lat="43.39589" lon="0.00105">
        <ele>287.09</ele>
        <time>2021-08-19T13:28:38Z</time>
      </trkpt>
      <trkpt lat="43.39577" lon="0.00134">
        <ele>288.05</ele>
        <time>2021-08-19T13:28:45Z</time>
      </trkpt>
      <trkpt lat="43.39568" lon="0.00164">
        <ele>288.53</ele>
        <time>2021-08-19T13:28:52Z</time>
      </trkpt>
      <trkpt lat="43.39565" lon="0.0018">
        <ele>287.09</ele>
        <time>2021-08-19T13:28:55Z</time>
      </trkpt>
      <trkpt lat="43.39565" lon="0.00188">
        <ele>287.09</ele>
        <time>2021-08-19T13:28:56Z</time>
      </trkpt>
      <trkpt lat="43.39565" lon="0.00205">
        <ele>286.13</ele>
        <time>2021-08-19T13:28:59Z</time>
      </trkpt>
      <trkpt lat="43.39565" lon="0.00213">
        <ele>285.65</ele>
        <time>2021-08-19T13:29:00Z</time>
      </trkpt>
      <trkpt lat="43.39566" lon="0.00241">
        <ele>284.69</ele>
        <time>2021-08-19T13:29:05Z</time>
      </trkpt>
      <trkpt lat="43.39566" lon="0.00244">
        <ele>284.69</ele>
        <time>2021-08-19T13:29:10Z</time>
      </trkpt>
      <trkpt lat="43.39568" lon="0.00246">
        <ele>284.69</ele>
        <time>2021-08-19T13:29:38Z</time>
      </trkpt>
      <trkpt lat="43.39565" lon="0.00248">
        <ele>284.69</ele>
        <time>2021-08-19T13:30:06Z</time>
      </trkpt>
      <trkpt lat="43.39566" lon="0.00249">
        <ele>284.69</ele>
        <time>2021-08-19T13:30:21Z</time>
      </trkpt>
      <trkpt lat="43.39566" lon="0.00255">
        <ele>284.69</ele>
        <time>2021-08-19T13:30:33Z</time>
      </trkpt>
      <trkpt lat="43.39564" lon="0.00279">
        <ele>283.73</ele>
        <time>2021-08-19T13:30:39Z</time>
      </trkpt>
      <trkpt lat="43.39562" lon="0.00296">
        <ele>282.28</ele>
        <time>2021-08-19T13:30:42Z</time>
      </trkpt>
      <trkpt lat="43.39555" lon="0.00337">
        <ele>280.36</ele>
        <time>2021-08-19T13:30:48Z</time>
      </trkpt>
      <trkpt lat="43.39553" lon="0.00346">
        <ele>280.36</ele>
        <time>2021-08-19T13:30:49Z</time>
      </trkpt>
      <trkpt lat="43.39552" lon="0.00354">
        <ele>279.4</ele>
        <time>2021-08-19T13:30:50Z</time>
      </trkpt>
      <trkpt lat="43.39545" lon="0.00417">
        <ele>275.56</ele>
        <time>2021-08-19T13:30:57Z</time>
      </trkpt>
      <trkpt lat="43.39547" lon="0.00462">
        <ele>273.63</ele>
        <time>2021-08-19T13:31:01Z</time>
      </trkpt>
      <trkpt lat="43.39554" lon="0.00509">
        <ele>270.27</ele>
        <time>2021-08-19T13:31:05Z</time>
      </trkpt>
      <trkpt lat="43.39556" lon="0.00521">
        <ele>269.31</ele>
        <time>2021-08-19T13:31:06Z</time>
      </trkpt>
      <trkpt lat="43.3956" lon="0.00534">
        <ele>268.83</ele>
        <time>2021-08-19T13:31:07Z</time>
      </trkpt>
      <trkpt lat="43.39569" lon="0.00571">
        <ele>267.38</ele>
        <time>2021-08-19T13:31:10Z</time>
      </trkpt>
      <trkpt lat="43.3958" lon="0.00614">
        <ele>264.02</ele>
        <time>2021-08-19T13:31:14Z</time>
      </trkpt>
      <trkpt lat="43.39581" lon="0.00624">
        <ele>263.54</ele>
        <time>2021-08-19T13:31:15Z</time>
      </trkpt>
      <trkpt lat="43.39582" lon="0.00635">
        <ele>263.06</ele>
        <time>2021-08-19T13:31:16Z</time>
      </trkpt>
      <trkpt lat="43.39582" lon="0.00647">
        <ele>262.1</ele>
        <time>2021-08-19T13:31:17Z</time>
      </trkpt>
      <trkpt lat="43.39583" lon="0.00657">
        <ele>262.1</ele>
        <time>2021-08-19T13:31:18Z</time>
      </trkpt>
      <trkpt lat="43.3959" lon="0.00724">
        <ele>258.25</ele>
        <time>2021-08-19T13:31:24Z</time>
      </trkpt>
      <trkpt lat="43.39596" lon="0.0079">
        <ele>254.89</ele>
        <time>2021-08-19T13:31:29Z</time>
      </trkpt>
      <trkpt lat="43.39599" lon="0.00812">
        <ele>253.93</ele>
        <time>2021-08-19T13:31:31Z</time>
      </trkpt>
      <trkpt lat="43.39599" lon="0.00825">
        <ele>252.96</ele>
        <time>2021-08-19T13:31:32Z</time>
      </trkpt>
      <trkpt lat="43.39598" lon="0.00836">
        <ele>252.48</ele>
        <time>2021-08-19T13:31:33Z</time>
      </trkpt>
      <trkpt lat="43.39596" lon="0.00847">
        <ele>252</ele>
        <time>2021-08-19T13:31:34Z</time>
      </trkpt>
      <trkpt lat="43.39589" lon="0.00893">
        <ele>250.08</ele>
        <time>2021-08-19T13:31:38Z</time>
      </trkpt>
      <trkpt lat="43.39589" lon="0.00929">
        <ele>249.12</ele>
        <time>2021-08-19T13:31:41Z</time>
      </trkpt>
      <trkpt lat="43.3959" lon="0.0094">
        <ele>248.16</ele>
        <time>2021-08-19T13:31:42Z</time>
      </trkpt>
      <trkpt lat="43.396" lon="0.00999">
        <ele>246.72</ele>
        <time>2021-08-19T13:31:47Z</time>
      </trkpt>
      <trkpt lat="43.396" lon="0.01033">
        <ele>245.27</ele>
        <time>2021-08-19T13:31:50Z</time>
      </trkpt>
      <trkpt lat="43.39599" lon="0.01043">
        <ele>244.31</ele>
        <time>2021-08-19T13:31:51Z</time>
      </trkpt>
      <trkpt lat="43.39597" lon="0.01056">
        <ele>243.83</ele>
        <time>2021-08-19T13:31:52Z</time>
      </trkpt>
      <trkpt lat="43.39594" lon="0.01065">
        <ele>243.35</ele>
        <time>2021-08-19T13:31:53Z</time>
      </trkpt>
      <trkpt lat="43.39591" lon="0.01077">
        <ele>242.87</ele>
        <time>2021-08-19T13:31:54Z</time>
      </trkpt>
      <trkpt lat="43.39575" lon="0.01131">
        <ele>240.95</ele>
        <time>2021-08-19T13:31:59Z</time>
      </trkpt>
      <trkpt lat="43.39557" lon="0.01185">
        <ele>237.58</ele>
        <time>2021-08-19T13:32:04Z</time>
      </trkpt>
      <trkpt lat="43.39551" lon="0.01206">
        <ele>236.62</ele>
        <time>2021-08-19T13:32:06Z</time>
      </trkpt>
      <trkpt lat="43.39544" lon="0.01231">
        <ele>235.18</ele>
        <time>2021-08-19T13:32:08Z</time>
      </trkpt>
      <trkpt lat="43.39538" lon="0.01253">
        <ele>234.22</ele>
        <time>2021-08-19T13:32:10Z</time>
      </trkpt>
      <trkpt lat="43.3953" lon="0.01275">
        <ele>233.26</ele>
        <time>2021-08-19T13:32:12Z</time>
      </trkpt>
      <trkpt lat="43.39516" lon="0.01321">
        <ele>232.3</ele>
        <time>2021-08-19T13:32:17Z</time>
      </trkpt>
      <trkpt lat="43.39515" lon="0.01327">
        <ele>231.81</ele>
        <time>2021-08-19T13:32:18Z</time>
      </trkpt>
      <trkpt lat="43.39512" lon="0.01334">
        <ele>231.33</ele>
        <time>2021-08-19T13:32:19Z</time>
      </trkpt>
      <trkpt lat="43.39505" lon="0.01359">
        <ele>229.89</ele>
        <time>2021-08-19T13:32:24Z</time>
      </trkpt>
      <trkpt lat="43.39511" lon="0.01384">
        <ele>228.45</ele>
        <time>2021-08-19T13:32:31Z</time>
      </trkpt>
      <trkpt lat="43.39527" lon="0.01413">
        <ele>227.01</ele>
        <time>2021-08-19T13:32:38Z</time>
      </trkpt>
      <trkpt lat="43.39553" lon="0.01449">
        <ele>224.61</ele>
        <time>2021-08-19T13:32:45Z</time>
      </trkpt>
      <trkpt lat="43.39556" lon="0.01454">
        <ele>224.12</ele>
        <time>2021-08-19T13:32:46Z</time>
      </trkpt>
      <trkpt lat="43.39564" lon="0.01465">
        <ele>223.64</ele>
        <time>2021-08-19T13:32:48Z</time>
      </trkpt>
      <trkpt lat="43.39589" lon="0.01499">
        <ele>222.68</ele>
        <time>2021-08-19T13:32:54Z</time>
      </trkpt>
      <trkpt lat="43.39596" lon="0.01513">
        <ele>222.2</ele>
        <time>2021-08-19T13:32:56Z</time>
      </trkpt>
      <trkpt lat="43.39599" lon="0.01521">
        <ele>221.24</ele>
        <time>2021-08-19T13:32:57Z</time>
      </trkpt>
      <trkpt lat="43.39611" lon="0.01576">
        <ele>219.32</ele>
        <time>2021-08-19T13:33:03Z</time>
      </trkpt>
      <trkpt lat="43.39614" lon="0.01593">
        <ele>219.32</ele>
        <time>2021-08-19T13:33:05Z</time>
      </trkpt>
      <trkpt lat="43.39615" lon="0.01602">
        <ele>219.32</ele>
        <time>2021-08-19T13:33:06Z</time>
      </trkpt>
      <trkpt lat="43.39615" lon="0.0161">
        <ele>219.32</ele>
        <time>2021-08-19T13:33:07Z</time>
      </trkpt>
      <trkpt lat="43.39613" lon="0.01618">
        <ele>219.32</ele>
        <time>2021-08-19T13:33:08Z</time>
      </trkpt>
      <trkpt lat="43.39611" lon="0.01625">
        <ele>219.32</ele>
        <time>2021-08-19T13:33:09Z</time>
      </trkpt>
      <trkpt lat="43.39609" lon="0.01631">
        <ele>219.32</ele>
        <time>2021-08-19T13:33:10Z</time>
      </trkpt>
      <trkpt lat="43.39607" lon="0.01638">
        <ele>219.32</ele>
        <time>2021-08-19T13:33:11Z</time>
      </trkpt>
      <trkpt lat="43.39606" lon="0.01644">
        <ele>219.32</ele>
        <time>2021-08-19T13:33:12Z</time>
      </trkpt>
      <trkpt lat="43.39605" lon="0.01651">
        <ele>219.32</ele>
        <time>2021-08-19T13:33:13Z</time>
      </trkpt>
      <trkpt lat="43.39604" lon="0.01657">
        <ele>219.32</ele>
        <time>2021-08-19T13:33:14Z</time>
      </trkpt>
      <trkpt lat="43.39603" lon="0.01662">
        <ele>218.84</ele>
        <time>2021-08-19T13:33:15Z</time>
      </trkpt>
      <trkpt lat="43.39601" lon="0.01669">
        <ele>218.36</ele>
        <time>2021-08-19T13:33:16Z</time>
      </trkpt>
      <trkpt lat="43.39598" lon="0.01675">
        <ele>218.36</ele>
        <time>2021-08-19T13:33:17Z</time>
      </trkpt>
      <trkpt lat="43.39595" lon="0.01681">
        <ele>218.36</ele>
        <time>2021-08-19T13:33:18Z</time>
      </trkpt>
      <trkpt lat="43.39593" lon="0.01686">
        <ele>218.36</ele>
        <time>2021-08-19T13:33:19Z</time>
      </trkpt>
      <trkpt lat="43.39582" lon="0.01717">
        <ele>218.36</ele>
        <time>2021-08-19T13:33:25Z</time>
      </trkpt>
      <trkpt lat="43.3958" lon="0.01723">
        <ele>217.88</ele>
        <time>2021-08-19T13:33:26Z</time>
      </trkpt>
      <trkpt lat="43.39578" lon="0.0173">
        <ele>217.88</ele>
        <time>2021-08-19T13:33:27Z</time>
      </trkpt>
      <trkpt lat="43.39577" lon="0.01736">
        <ele>217.88</ele>
        <time>2021-08-19T13:33:28Z</time>
      </trkpt>
      <trkpt lat="43.39569" lon="0.01754">
        <ele>219.32</ele>
        <time>2021-08-19T13:33:33Z</time>
      </trkpt>
      <trkpt lat="43.39553" lon="0.01784">
        <ele>219.32</ele>
        <time>2021-08-19T13:33:40Z</time>
      </trkpt>
      <trkpt lat="43.39529" lon="0.01811">
        <ele>219.32</ele>
        <time>2021-08-19T13:33:46Z</time>
      </trkpt>
      <trkpt lat="43.39509" lon="0.01829">
        <ele>219.32</ele>
        <time>2021-08-19T13:33:52Z</time>
      </trkpt>
      <trkpt lat="43.39493" lon="0.01853">
        <ele>219.8</ele>
        <time>2021-08-19T13:33:58Z</time>
      </trkpt>
      <trkpt lat="43.39489" lon="0.01858">
        <ele>219.8</ele>
        <time>2021-08-19T13:33:59Z</time>
      </trkpt>
      <trkpt lat="43.39486" lon="0.01863">
        <ele>219.8</ele>
        <time>2021-08-19T13:34:00Z</time>
      </trkpt>
      <trkpt lat="43.39468" lon="0.01892">
        <ele>219.8</ele>
        <time>2021-08-19T13:34:07Z</time>
      </trkpt>
      <trkpt lat="43.39449" lon="0.01928">
        <ele>219.8</ele>
        <time>2021-08-19T13:34:15Z</time>
      </trkpt>
      <trkpt lat="43.3943" lon="0.01958">
        <ele>220.28</ele>
        <time>2021-08-19T13:34:22Z</time>
      </trkpt>
      <trkpt lat="43.39424" lon="0.01975">
        <ele>220.28</ele>
        <time>2021-08-19T13:34:27Z</time>
      </trkpt>
      <trkpt lat="43.39419" lon="0.01989">
        <ele>220.28</ele>
        <time>2021-08-19T13:34:33Z</time>
      </trkpt>
      <trkpt lat="43.3941" lon="0.02012">
        <ele>220.28</ele>
        <time>2021-08-19T13:34:41Z</time>
      </trkpt>
      <trkpt lat="43.39402" lon="0.02032">
        <ele>220.28</ele>
        <time>2021-08-19T13:34:46Z</time>
      </trkpt>
      <trkpt lat="43.394" lon="0.02034">
        <ele>220.28</ele>
        <time>2021-08-19T13:34:47Z</time>
      </trkpt>
      <trkpt lat="43.39388" lon="0.02038">
        <ele>220.28</ele>
        <time>2021-08-19T13:34:52Z</time>
      </trkpt>
      <trkpt lat="43.39383" lon="0.02041">
        <ele>220.28</ele>
        <time>2021-08-19T13:34:54Z</time>
      </trkpt>
      <trkpt lat="43.3938" lon="0.02041">
        <ele>220.28</ele>
        <time>2021-08-19T13:34:55Z</time>
      </trkpt>
      <trkpt lat="43.39377" lon="0.02041">
        <ele>220.28</ele>
        <time>2021-08-19T13:34:56Z</time>
      </trkpt>
      <trkpt lat="43.39353" lon="0.02042">
        <ele>220.76</ele>
        <time>2021-08-19T13:35:03Z</time>
      </trkpt>
      <trkpt lat="43.39336" lon="0.02051">
        <ele>220.76</ele>
        <time>2021-08-19T13:35:08Z</time>
      </trkpt>
      <trkpt lat="43.39311" lon="0.02056">
        <ele>220.76</ele>
        <time>2021-08-19T13:35:15Z</time>
      </trkpt>
      <trkpt lat="43.39291" lon="0.02067">
        <ele>220.76</ele>
        <time>2021-08-19T13:35:21Z</time>
      </trkpt>
      <trkpt lat="43.39273" lon="0.02079">
        <ele>220.76</ele>
        <time>2021-08-19T13:35:27Z</time>
      </trkpt>
      <trkpt lat="43.39258" lon="0.02105">
        <ele>220.76</ele>
        <time>2021-08-19T13:35:33Z</time>
      </trkpt>
      <trkpt lat="43.39238" lon="0.02118">
        <ele>221.24</ele>
        <time>2021-08-19T13:35:39Z</time>
      </trkpt>
      <trkpt lat="43.39217" lon="0.02109">
        <ele>220.76</ele>
        <time>2021-08-19T13:35:45Z</time>
      </trkpt>
      <trkpt lat="43.39197" lon="0.02094">
        <ele>221.24</ele>
        <time>2021-08-19T13:35:51Z</time>
      </trkpt>
      <trkpt lat="43.39178" lon="0.02079">
        <ele>221.24</ele>
        <time>2021-08-19T13:35:57Z</time>
      </trkpt>
      <trkpt lat="43.39163" lon="0.02064">
        <ele>221.24</ele>
        <time>2021-08-19T13:36:02Z</time>
      </trkpt>
      <trkpt lat="43.39153" lon="0.02054">
        <ele>221.24</ele>
        <time>2021-08-19T13:36:07Z</time>
      </trkpt>
      <trkpt lat="43.39147" lon="0.02053">
        <ele>222.2</ele>
        <time>2021-08-19T13:36:13Z</time>
      </trkpt>
      <trkpt lat="43.39143" lon="0.02054">
        <ele>222.2</ele>
        <time>2021-08-19T13:36:19Z</time>
      </trkpt>
      <trkpt lat="43.3914" lon="0.02056">
        <ele>222.2</ele>
        <time>2021-08-19T13:36:24Z</time>
      </trkpt>
      <trkpt lat="43.39139" lon="0.0206">
        <ele>222.2</ele>
        <time>2021-08-19T13:36:26Z</time>
      </trkpt>
      <trkpt lat="43.3914" lon="0.02064">
        <ele>222.2</ele>
        <time>2021-08-19T13:36:27Z</time>
      </trkpt>
      <trkpt lat="43.39151" lon="0.02095">
        <ele>222.2</ele>
        <time>2021-08-19T13:36:34Z</time>
      </trkpt>
      <trkpt lat="43.39166" lon="0.02144">
        <ele>222.2</ele>
        <time>2021-08-19T13:36:42Z</time>
      </trkpt>
      <trkpt lat="43.39191" lon="0.02235">
        <ele>221.24</ele>
        <time>2021-08-19T13:36:54Z</time>
      </trkpt>
      <trkpt lat="43.39215" lon="0.02325">
        <ele>221.24</ele>
        <time>2021-08-19T13:37:06Z</time>
      </trkpt>
      <trkpt lat="43.39223" lon="0.02359">
        <ele>221.24</ele>
        <time>2021-08-19T13:37:11Z</time>
      </trkpt>
      <trkpt lat="43.39224" lon="0.02365">
        <ele>221.24</ele>
        <time>2021-08-19T13:37:12Z</time>
      </trkpt>
      <trkpt lat="43.39222" lon="0.02371">
        <ele>221.24</ele>
        <time>2021-08-19T13:37:13Z</time>
      </trkpt>
      <trkpt lat="43.39219" lon="0.02374">
        <ele>221.24</ele>
        <time>2021-08-19T13:37:14Z</time>
      </trkpt>
      <trkpt lat="43.39216" lon="0.02375">
        <ele>222.68</ele>
        <time>2021-08-19T13:37:15Z</time>
      </trkpt>
      <trkpt lat="43.39214" lon="0.02375">
        <ele>222.68</ele>
        <time>2021-08-19T13:37:16Z</time>
      </trkpt>
      <trkpt lat="43.39212" lon="0.02376">
        <ele>223.16</ele>
        <time>2021-08-19T13:37:17Z</time>
      </trkpt>
      <trkpt lat="43.39205" lon="0.02373">
        <ele>223.64</ele>
        <time>2021-08-19T13:37:22Z</time>
      </trkpt>
      <trkpt lat="43.39204" lon="0.02372">
        <ele>223.64</ele>
        <time>2021-08-19T13:37:23Z</time>
      </trkpt>
      <trkpt lat="43.39203" lon="0.0237">
        <ele>224.12</ele>
        <time>2021-08-19T13:37:24Z</time>
      </trkpt>
      <trkpt lat="43.39201" lon="0.02369">
        <ele>224.12</ele>
        <time>2021-08-19T13:37:25Z</time>
      </trkpt>
      <trkpt lat="43.392" lon="0.02367">
        <ele>224.12</ele>
        <time>2021-08-19T13:37:26Z</time>
      </trkpt>
      <trkpt lat="43.39198" lon="0.02366">
        <ele>224.12</ele>
        <time>2021-08-19T13:37:27Z</time>
      </trkpt>
      <trkpt lat="43.39186" lon="0.02359">
        <ele>225.57</ele>
        <time>2021-08-19T13:37:34Z</time>
      </trkpt>
      <trkpt lat="43.3917" lon="0.02349">
        <ele>227.01</ele>
        <time>2021-08-19T13:37:41Z</time>
      </trkpt>
      <trkpt lat="43.39153" lon="0.02342">
        <ele>227.97</ele>
        <time>2021-08-19T13:37:49Z</time>
      </trkpt>
      <trkpt lat="43.39133" lon="0.02333">
        <ele>228.45</ele>
        <time>2021-08-19T13:37:57Z</time>
      </trkpt>
      <trkpt lat="43.39108" lon="0.02323">
        <ele>228.93</ele>
        <time>2021-08-19T13:38:05Z</time>
      </trkpt>
      <trkpt lat="43.39082" lon="0.02311">
        <ele>229.41</ele>
        <time>2021-08-19T13:38:13Z</time>
      </trkpt>
      <trkpt lat="43.39068" lon="0.02303">
        <ele>229.41</ele>
        <time>2021-08-19T13:38:18Z</time>
      </trkpt>
      <trkpt lat="43.39066" lon="0.02302">
        <ele>229.41</ele>
        <time>2021-08-19T13:38:19Z</time>
      </trkpt>
      <trkpt lat="43.39064" lon="0.02301">
        <ele>229.41</ele>
        <time>2021-08-19T13:38:20Z</time>
      </trkpt>
      <trkpt lat="43.39062" lon="0.023">
        <ele>229.41</ele>
        <time>2021-08-19T13:38:21Z</time>
      </trkpt>
      <trkpt lat="43.39045" lon="0.02292">
        <ele>229.89</ele>
        <time>2021-08-19T13:38:27Z</time>
      </trkpt>
      <trkpt lat="43.39027" lon="0.02281">
        <ele>230.85</ele>
        <time>2021-08-19T13:38:33Z</time>
      </trkpt>
      <trkpt lat="43.39011" lon="0.0227">
        <ele>231.81</ele>
        <time>2021-08-19T13:38:41Z</time>
      </trkpt>
      <trkpt lat="43.38999" lon="0.02262">
        <ele>232.78</ele>
        <time>2021-08-19T13:38:48Z</time>
      </trkpt>
      <trkpt lat="43.3899" lon="0.02255">
        <ele>234.7</ele>
        <time>2021-08-19T13:38:55Z</time>
      </trkpt>
      <trkpt lat="43.38979" lon="0.02251">
        <ele>236.14</ele>
        <time>2021-08-19T13:39:02Z</time>
      </trkpt>
      <trkpt lat="43.38964" lon="0.02243">
        <ele>239.02</ele>
        <time>2021-08-19T13:39:10Z</time>
      </trkpt>
      <trkpt lat="43.38952" lon="0.02237">
        <ele>239.99</ele>
        <time>2021-08-19T13:39:18Z</time>
      </trkpt>
      <trkpt lat="43.38951" lon="0.02236">
        <ele>240.47</ele>
        <time>2021-08-19T13:39:19Z</time>
      </trkpt>
      <trkpt lat="43.38939" lon="0.0223">
        <ele>241.43</ele>
        <time>2021-08-19T13:39:27Z</time>
      </trkpt>
      <trkpt lat="43.38927" lon="0.02223">
        <ele>242.39</ele>
        <time>2021-08-19T13:39:35Z</time>
      </trkpt>
      <trkpt lat="43.38916" lon="0.02215">
        <ele>243.83</ele>
        <time>2021-08-19T13:39:43Z</time>
      </trkpt>
      <trkpt lat="43.38901" lon="0.02208">
        <ele>245.27</ele>
        <time>2021-08-19T13:39:52Z</time>
      </trkpt>
      <trkpt lat="43.38888" lon="0.02201">
        <ele>246.72</ele>
        <time>2021-08-19T13:40:00Z</time>
      </trkpt>
      <trkpt lat="43.38876" lon="0.02193">
        <ele>248.16</ele>
        <time>2021-08-19T13:40:09Z</time>
      </trkpt>
      <trkpt lat="43.38862" lon="0.02184">
        <ele>249.6</ele>
        <time>2021-08-19T13:40:18Z</time>
      </trkpt>
      <trkpt lat="43.38847" lon="0.02178">
        <ele>250.56</ele>
        <time>2021-08-19T13:40:25Z</time>
      </trkpt>
      <trkpt lat="43.38827" lon="0.02168">
        <ele>251.52</ele>
        <time>2021-08-19T13:40:35Z</time>
      </trkpt>
      <trkpt lat="43.38816" lon="0.02162">
        <ele>252.96</ele>
        <time>2021-08-19T13:40:42Z</time>
      </trkpt>
      <trkpt lat="43.38803" lon="0.02153">
        <ele>253.93</ele>
        <time>2021-08-19T13:40:50Z</time>
      </trkpt>
      <trkpt lat="43.38791" lon="0.02144">
        <ele>255.85</ele>
        <time>2021-08-19T13:40:59Z</time>
      </trkpt>
      <trkpt lat="43.38783" lon="0.02137">
        <ele>257.29</ele>
        <time>2021-08-19T13:41:05Z</time>
      </trkpt>
      <trkpt lat="43.38782" lon="0.02135">
        <ele>257.29</ele>
        <time>2021-08-19T13:41:06Z</time>
      </trkpt>
      <trkpt lat="43.3878" lon="0.02132">
        <ele>257.77</ele>
        <time>2021-08-19T13:41:07Z</time>
      </trkpt>
      <trkpt lat="43.38778" lon="0.02131">
        <ele>257.77</ele>
        <time>2021-08-19T13:41:08Z</time>
      </trkpt>
      <trkpt lat="43.38776" lon="0.02131">
        <ele>257.77</ele>
        <time>2021-08-19T13:41:09Z</time>
      </trkpt>
      <trkpt lat="43.38774" lon="0.0213">
        <ele>257.77</ele>
        <time>2021-08-19T13:41:10Z</time>
      </trkpt>
      <trkpt lat="43.38773" lon="0.02129">
        <ele>258.73</ele>
        <time>2021-08-19T13:41:11Z</time>
      </trkpt>
      <trkpt lat="43.38772" lon="0.02128">
        <ele>258.73</ele>
        <time>2021-08-19T13:41:12Z</time>
      </trkpt>
      <trkpt lat="43.38771" lon="0.02127">
        <ele>258.73</ele>
        <time>2021-08-19T13:41:13Z</time>
      </trkpt>
      <trkpt lat="43.38769" lon="0.02127">
        <ele>259.21</ele>
        <time>2021-08-19T13:41:14Z</time>
      </trkpt>
      <trkpt lat="43.38768" lon="0.02127">
        <ele>259.21</ele>
        <time>2021-08-19T13:41:15Z</time>
      </trkpt>
      <trkpt lat="43.38766" lon="0.02126">
        <ele>259.69</ele>
        <time>2021-08-19T13:41:16Z</time>
      </trkpt>
      <trkpt lat="43.38765" lon="0.02126">
        <ele>259.69</ele>
        <time>2021-08-19T13:41:17Z</time>
      </trkpt>
      <trkpt lat="43.38755" lon="0.02122">
        <ele>260.65</ele>
        <time>2021-08-19T13:41:24Z</time>
      </trkpt>
      <trkpt lat="43.38746" lon="0.02119">
        <ele>261.14</ele>
        <time>2021-08-19T13:41:30Z</time>
      </trkpt>
      <trkpt lat="43.38731" lon="0.02115">
        <ele>263.06</ele>
        <time>2021-08-19T13:41:40Z</time>
      </trkpt>
      <trkpt lat="43.38716" lon="0.0211">
        <ele>264.02</ele>
        <time>2021-08-19T13:41:48Z</time>
      </trkpt>
      <trkpt lat="43.38706" lon="0.02105">
        <ele>265.46</ele>
        <time>2021-08-19T13:41:55Z</time>
      </trkpt>
      <trkpt lat="43.38694" lon="0.02101">
        <ele>266.9</ele>
        <time>2021-08-19T13:42:02Z</time>
      </trkpt>
      <trkpt lat="43.3868" lon="0.02098">
        <ele>268.83</ele>
        <time>2021-08-19T13:42:10Z</time>
      </trkpt>
      <trkpt lat="43.38667" lon="0.02097">
        <ele>270.27</ele>
        <time>2021-08-19T13:42:17Z</time>
      </trkpt>
      <trkpt lat="43.38652" lon="0.02101">
        <ele>271.23</ele>
        <time>2021-08-19T13:42:25Z</time>
      </trkpt>
      <trkpt lat="43.38639" lon="0.02102">
        <ele>272.19</ele>
        <time>2021-08-19T13:42:32Z</time>
      </trkpt>
      <trkpt lat="43.3863" lon="0.02103">
        <ele>272.67</ele>
        <time>2021-08-19T13:42:37Z</time>
      </trkpt>
      <trkpt lat="43.38628" lon="0.02103">
        <ele>272.67</ele>
        <time>2021-08-19T13:42:38Z</time>
      </trkpt>
      <trkpt lat="43.38611" lon="0.02099">
        <ele>273.15</ele>
        <time>2021-08-19T13:42:45Z</time>
      </trkpt>
      <trkpt lat="43.3859" lon="0.02089">
        <ele>273.63</ele>
        <time>2021-08-19T13:42:53Z</time>
      </trkpt>
      <trkpt lat="43.38572" lon="0.02077">
        <ele>274.59</ele>
        <time>2021-08-19T13:43:00Z</time>
      </trkpt>
      <trkpt lat="43.38556" lon="0.02067">
        <ele>275.07</ele>
        <time>2021-08-19T13:43:06Z</time>
      </trkpt>
      <trkpt lat="43.38539" lon="0.02059">
        <ele>277</ele>
        <time>2021-08-19T13:43:13Z</time>
      </trkpt>
      <trkpt lat="43.38524" lon="0.02045">
        <ele>277.48</ele>
        <time>2021-08-19T13:43:21Z</time>
      </trkpt>
      <trkpt lat="43.3852" lon="0.02016">
        <ele>277.48</ele>
        <time>2021-08-19T13:43:28Z</time>
      </trkpt>
      <trkpt lat="43.38517" lon="0.0198">
        <ele>277.96</ele>
        <time>2021-08-19T13:43:36Z</time>
      </trkpt>
      <trkpt lat="43.3851" lon="0.01963">
        <ele>280.36</ele>
        <time>2021-08-19T13:43:44Z</time>
      </trkpt>
      <trkpt lat="43.38497" lon="0.01944">
        <ele>281.8</ele>
        <time>2021-08-19T13:43:53Z</time>
      </trkpt>
      <trkpt lat="43.38475" lon="0.01937">
        <ele>281.32</ele>
        <time>2021-08-19T13:44:00Z</time>
      </trkpt>
      <trkpt lat="43.3844" lon="0.01929">
        <ele>281.32</ele>
        <time>2021-08-19T13:44:08Z</time>
      </trkpt>
      <trkpt lat="43.38414" lon="0.01927">
        <ele>281.8</ele>
        <time>2021-08-19T13:44:15Z</time>
      </trkpt>
      <trkpt lat="43.38389" lon="0.01921">
        <ele>282.28</ele>
        <time>2021-08-19T13:44:21Z</time>
      </trkpt>
      <trkpt lat="43.38373" lon="0.01908">
        <ele>282.77</ele>
        <time>2021-08-19T13:44:26Z</time>
      </trkpt>
      <trkpt lat="43.38357" lon="0.01881">
        <ele>282.77</ele>
        <time>2021-08-19T13:44:32Z</time>
      </trkpt>
      <trkpt lat="43.38345" lon="0.0184">
        <ele>279.4</ele>
        <time>2021-08-19T13:44:38Z</time>
      </trkpt>
      <trkpt lat="43.3834" lon="0.01822">
        <ele>277.96</ele>
        <time>2021-08-19T13:44:40Z</time>
      </trkpt>
      <trkpt lat="43.38337" lon="0.01814">
        <ele>277.96</ele>
        <time>2021-08-19T13:44:41Z</time>
      </trkpt>
      <trkpt lat="43.38314" lon="0.01768">
        <ele>277</ele>
        <time>2021-08-19T13:44:48Z</time>
      </trkpt>
      <trkpt lat="43.38312" lon="0.01761">
        <ele>277</ele>
        <time>2021-08-19T13:44:49Z</time>
      </trkpt>
      <trkpt lat="43.38305" lon="0.01724">
        <ele>276.52</ele>
        <time>2021-08-19T13:44:55Z</time>
      </trkpt>
      <trkpt lat="43.383" lon="0.0171">
        <ele>276.52</ele>
        <time>2021-08-19T13:44:57Z</time>
      </trkpt>
      <trkpt lat="43.38297" lon="0.01704">
        <ele>276.52</ele>
        <time>2021-08-19T13:44:58Z</time>
      </trkpt>
      <trkpt lat="43.38294" lon="0.01699">
        <ele>276.52</ele>
        <time>2021-08-19T13:44:59Z</time>
      </trkpt>
      <trkpt lat="43.3829" lon="0.01693">
        <ele>276.52</ele>
        <time>2021-08-19T13:45:00Z</time>
      </trkpt>
      <trkpt lat="43.38287" lon="0.01689">
        <ele>277.96</ele>
        <time>2021-08-19T13:45:01Z</time>
      </trkpt>
      <trkpt lat="43.38283" lon="0.01683">
        <ele>277.96</ele>
        <time>2021-08-19T13:45:02Z</time>
      </trkpt>
      <trkpt lat="43.38268" lon="0.01666">
        <ele>277.96</ele>
        <time>2021-08-19T13:45:06Z</time>
      </trkpt>
      <trkpt lat="43.38236" lon="0.01638">
        <ele>278.44</ele>
        <time>2021-08-19T13:45:13Z</time>
      </trkpt>
      <trkpt lat="43.38217" lon="0.01622">
        <ele>279.88</ele>
        <time>2021-08-19T13:45:19Z</time>
      </trkpt>
      <trkpt lat="43.38203" lon="0.01615">
        <ele>280.84</ele>
        <time>2021-08-19T13:45:24Z</time>
      </trkpt>
      <trkpt lat="43.38168" lon="0.01598">
        <ele>281.32</ele>
        <time>2021-08-19T13:45:33Z</time>
      </trkpt>
      <trkpt lat="43.38132" lon="0.01575">
        <ele>280.36</ele>
        <time>2021-08-19T13:45:42Z</time>
      </trkpt>
      <trkpt lat="43.38127" lon="0.01572">
        <ele>280.36</ele>
        <time>2021-08-19T13:45:43Z</time>
      </trkpt>
      <trkpt lat="43.38109" lon="0.01561">
        <ele>279.88</ele>
        <time>2021-08-19T13:45:47Z</time>
      </trkpt>
      <trkpt lat="43.38104" lon="0.01559">
        <ele>279.88</ele>
        <time>2021-08-19T13:45:48Z</time>
      </trkpt>
      <trkpt lat="43.381" lon="0.01558">
        <ele>279.88</ele>
        <time>2021-08-19T13:45:49Z</time>
      </trkpt>
      <trkpt lat="43.38096" lon="0.01556">
        <ele>279.88</ele>
        <time>2021-08-19T13:45:50Z</time>
      </trkpt>
      <trkpt lat="43.38092" lon="0.01553">
        <ele>279.88</ele>
        <time>2021-08-19T13:45:51Z</time>
      </trkpt>
      <trkpt lat="43.38088" lon="0.01551">
        <ele>279.88</ele>
        <time>2021-08-19T13:45:52Z</time>
      </trkpt>
      <trkpt lat="43.38084" lon="0.01548">
        <ele>280.84</ele>
        <time>2021-08-19T13:45:53Z</time>
      </trkpt>
      <trkpt lat="43.38081" lon="0.01545">
        <ele>280.84</ele>
        <time>2021-08-19T13:45:54Z</time>
      </trkpt>
      <trkpt lat="43.38062" lon="0.01528">
        <ele>280.84</ele>
        <time>2021-08-19T13:45:59Z</time>
      </trkpt>
      <trkpt lat="43.38043" lon="0.01513">
        <ele>281.8</ele>
        <time>2021-08-19T13:46:04Z</time>
      </trkpt>
      <trkpt lat="43.38012" lon="0.01491">
        <ele>281.8</ele>
        <time>2021-08-19T13:46:12Z</time>
      </trkpt>
      <trkpt lat="43.38007" lon="0.01488">
        <ele>281.8</ele>
        <time>2021-08-19T13:46:13Z</time>
      </trkpt>
      <trkpt lat="43.38002" lon="0.01486">
        <ele>281.8</ele>
        <time>2021-08-19T13:46:14Z</time>
      </trkpt>
      <trkpt lat="43.37991" lon="0.01483">
        <ele>280.36</ele>
        <time>2021-08-19T13:46:16Z</time>
      </trkpt>
      <trkpt lat="43.37976" lon="0.01482">
        <ele>280.36</ele>
        <time>2021-08-19T13:46:19Z</time>
      </trkpt>
      <trkpt lat="43.37957" lon="0.01476">
        <ele>280.36</ele>
        <time>2021-08-19T13:46:24Z</time>
      </trkpt>
      <trkpt lat="43.3792" lon="0.01459">
        <ele>280.36</ele>
        <time>2021-08-19T13:46:31Z</time>
      </trkpt>
      <trkpt lat="43.37898" lon="0.01451">
        <ele>281.8</ele>
        <time>2021-08-19T13:46:36Z</time>
      </trkpt>
      <trkpt lat="43.37873" lon="0.01448">
        <ele>283.25</ele>
        <time>2021-08-19T13:46:43Z</time>
      </trkpt>
      <trkpt lat="43.3786" lon="0.0145">
        <ele>284.69</ele>
        <time>2021-08-19T13:46:51Z</time>
      </trkpt>
      <trkpt lat="43.37844" lon="0.01447">
        <ele>286.13</ele>
        <time>2021-08-19T13:46:59Z</time>
      </trkpt>
      <trkpt lat="43.37827" lon="0.01441">
        <ele>287.57</ele>
        <time>2021-08-19T13:47:07Z</time>
      </trkpt>
      <trkpt lat="43.37811" lon="0.01435">
        <ele>288.53</ele>
        <time>2021-08-19T13:47:14Z</time>
      </trkpt>
      <trkpt lat="43.3779" lon="0.01427">
        <ele>288.53</ele>
        <time>2021-08-19T13:47:22Z</time>
      </trkpt>
      <trkpt lat="43.37763" lon="0.01414">
        <ele>288.53</ele>
        <time>2021-08-19T13:47:29Z</time>
      </trkpt>
      <trkpt lat="43.37739" lon="0.01402">
        <ele>288.53</ele>
        <time>2021-08-19T13:47:35Z</time>
      </trkpt>
      <trkpt lat="43.37716" lon="0.01393">
        <ele>288.53</ele>
        <time>2021-08-19T13:47:41Z</time>
      </trkpt>
      <trkpt lat="43.37711" lon="0.01395">
        <ele>289.01</ele>
        <time>2021-08-19T13:47:43Z</time>
      </trkpt>
      <trkpt lat="43.3771" lon="0.01397">
        <ele>289.01</ele>
        <time>2021-08-19T13:47:44Z</time>
      </trkpt>
      <trkpt lat="43.37703" lon="0.01406">
        <ele>289.97</ele>
        <time>2021-08-19T13:47:50Z</time>
      </trkpt>
      <trkpt lat="43.37693" lon="0.01418">
        <ele>291.9</ele>
        <time>2021-08-19T13:47:58Z</time>
      </trkpt>
      <trkpt lat="43.37683" lon="0.01434">
        <ele>293.34</ele>
        <time>2021-08-19T13:48:06Z</time>
      </trkpt>
      <trkpt lat="43.37676" lon="0.01447">
        <ele>295.26</ele>
        <time>2021-08-19T13:48:14Z</time>
      </trkpt>
      <trkpt lat="43.37675" lon="0.01449">
        <ele>295.74</ele>
        <time>2021-08-19T13:48:15Z</time>
      </trkpt>
      <trkpt lat="43.37675" lon="0.01451">
        <ele>295.74</ele>
        <time>2021-08-19T13:48:16Z</time>
      </trkpt>
      <trkpt lat="43.37667" lon="0.01466">
        <ele>297.67</ele>
        <time>2021-08-19T13:48:24Z</time>
      </trkpt>
      <trkpt lat="43.37661" lon="0.01483">
        <ele>299.59</ele>
        <time>2021-08-19T13:48:33Z</time>
      </trkpt>
      <trkpt lat="43.37657" lon="0.01488">
        <ele>300.55</ele>
        <time>2021-08-19T13:48:40Z</time>
      </trkpt>
      <trkpt lat="43.37656" lon="0.01497">
        <ele>302.47</ele>
        <time>2021-08-19T13:48:49Z</time>
      </trkpt>
      <trkpt lat="43.37655" lon="0.01508">
        <ele>303.43</ele>
        <time>2021-08-19T13:48:57Z</time>
      </trkpt>
      <trkpt lat="43.37652" lon="0.0152">
        <ele>304.88</ele>
        <time>2021-08-19T13:49:06Z</time>
      </trkpt>
      <trkpt lat="43.37651" lon="0.01533">
        <ele>306.8</ele>
        <time>2021-08-19T13:49:14Z</time>
      </trkpt>
      <trkpt lat="43.37648" lon="0.0154">
        <ele>307.28</ele>
        <time>2021-08-19T13:49:21Z</time>
      </trkpt>
      <trkpt lat="43.37648" lon="0.01543">
        <ele>307.28</ele>
        <time>2021-08-19T13:49:24Z</time>
      </trkpt>
      <trkpt lat="43.37647" lon="0.01545">
        <ele>307.28</ele>
        <time>2021-08-19T13:49:25Z</time>
      </trkpt>
      <trkpt lat="43.37646" lon="0.01547">
        <ele>307.76</ele>
        <time>2021-08-19T13:49:26Z</time>
      </trkpt>
      <trkpt lat="43.37646" lon="0.01549">
        <ele>307.76</ele>
        <time>2021-08-19T13:49:27Z</time>
      </trkpt>
      <trkpt lat="43.37641" lon="0.01561">
        <ele>309.2</ele>
        <time>2021-08-19T13:49:34Z</time>
      </trkpt>
      <trkpt lat="43.37632" lon="0.01579">
        <ele>311.12</ele>
        <time>2021-08-19T13:49:44Z</time>
      </trkpt>
      <trkpt lat="43.3763" lon="0.01589">
        <ele>311.6</ele>
        <time>2021-08-19T13:49:49Z</time>
      </trkpt>
      <trkpt lat="43.37629" lon="0.01591">
        <ele>312.09</ele>
        <time>2021-08-19T13:49:50Z</time>
      </trkpt>
      <trkpt lat="43.37629" lon="0.01596">
        <ele>312.09</ele>
        <time>2021-08-19T13:49:52Z</time>
      </trkpt>
      <trkpt lat="43.37621" lon="0.01613">
        <ele>314.01</ele>
        <time>2021-08-19T13:50:01Z</time>
      </trkpt>
      <trkpt lat="43.37612" lon="0.01627">
        <ele>314.49</ele>
        <time>2021-08-19T13:50:08Z</time>
      </trkpt>
      <trkpt lat="43.3761" lon="0.01628">
        <ele>314.49</ele>
        <time>2021-08-19T13:50:09Z</time>
      </trkpt>
      <trkpt lat="43.37609" lon="0.01631">
        <ele>314.49</ele>
        <time>2021-08-19T13:50:10Z</time>
      </trkpt>
      <trkpt lat="43.37598" lon="0.01652">
        <ele>311.12</ele>
        <time>2021-08-19T13:50:15Z</time>
      </trkpt>
      <trkpt lat="43.37584" lon="0.01701">
        <ele>308.72</ele>
        <time>2021-08-19T13:50:22Z</time>
      </trkpt>
      <trkpt lat="43.37583" lon="0.01707">
        <ele>308.24</ele>
        <time>2021-08-19T13:50:23Z</time>
      </trkpt>
      <trkpt lat="43.37582" lon="0.01713">
        <ele>308.24</ele>
        <time>2021-08-19T13:50:24Z</time>
      </trkpt>
      <trkpt lat="43.37582" lon="0.01719">
        <ele>307.28</ele>
        <time>2021-08-19T13:50:25Z</time>
      </trkpt>
      <trkpt lat="43.37583" lon="0.01733">
        <ele>305.36</ele>
        <time>2021-08-19T13:50:27Z</time>
      </trkpt>
      <trkpt lat="43.37585" lon="0.01763">
        <ele>301.99</ele>
        <time>2021-08-19T13:50:31Z</time>
      </trkpt>
      <trkpt lat="43.37583" lon="0.01792">
        <ele>298.63</ele>
        <time>2021-08-19T13:50:35Z</time>
      </trkpt>
      <trkpt lat="43.3758" lon="0.01806">
        <ele>296.7</ele>
        <time>2021-08-19T13:50:37Z</time>
      </trkpt>
      <trkpt lat="43.37576" lon="0.0182">
        <ele>294.78</ele>
        <time>2021-08-19T13:50:39Z</time>
      </trkpt>
      <trkpt lat="43.37571" lon="0.01833">
        <ele>292.38</ele>
        <time>2021-08-19T13:50:41Z</time>
      </trkpt>
      <trkpt lat="43.37569" lon="0.01841">
        <ele>291.9</ele>
        <time>2021-08-19T13:50:42Z</time>
      </trkpt>
      <trkpt lat="43.37566" lon="0.01848">
        <ele>291.42</ele>
        <time>2021-08-19T13:50:43Z</time>
      </trkpt>
      <trkpt lat="43.37564" lon="0.01853">
        <ele>290.46</ele>
        <time>2021-08-19T13:50:44Z</time>
      </trkpt>
      <trkpt lat="43.37562" lon="0.01857">
        <ele>290.46</ele>
        <time>2021-08-19T13:50:45Z</time>
      </trkpt>
      <trkpt lat="43.3756" lon="0.0186">
        <ele>290.46</ele>
        <time>2021-08-19T13:50:46Z</time>
      </trkpt>
      <trkpt lat="43.37559" lon="0.01862">
        <ele>290.46</ele>
        <time>2021-08-19T13:50:47Z</time>
      </trkpt>
      <trkpt lat="43.37558" lon="0.01864">
        <ele>290.46</ele>
        <time>2021-08-19T13:50:48Z</time>
      </trkpt>
      <trkpt lat="43.37557" lon="0.01865">
        <ele>290.46</ele>
        <time>2021-08-19T13:50:49Z</time>
      </trkpt>
      <trkpt lat="43.37556" lon="0.01866">
        <ele>290.46</ele>
        <time>2021-08-19T13:50:50Z</time>
      </trkpt>
      <trkpt lat="43.37554" lon="0.01867">
        <ele>290.46</ele>
        <time>2021-08-19T13:50:51Z</time>
      </trkpt>
      <trkpt lat="43.37553" lon="0.01868">
        <ele>290.46</ele>
        <time>2021-08-19T13:50:52Z</time>
      </trkpt>
      <trkpt lat="43.37551" lon="0.0187">
        <ele>291.9</ele>
        <time>2021-08-19T13:50:54Z</time>
      </trkpt>
      <trkpt lat="43.37538" lon="0.01874">
        <ele>293.34</ele>
        <time>2021-08-19T13:51:00Z</time>
      </trkpt>
      <trkpt lat="43.37524" lon="0.01878">
        <ele>293.34</ele>
        <time>2021-08-19T13:51:06Z</time>
      </trkpt>
      <trkpt lat="43.3752" lon="0.01879">
        <ele>293.34</ele>
        <time>2021-08-19T13:51:08Z</time>
      </trkpt>
      <trkpt lat="43.37506" lon="0.01877">
        <ele>294.3</ele>
        <time>2021-08-19T13:51:15Z</time>
      </trkpt>
      <trkpt lat="43.37489" lon="0.01879">
        <ele>294.3</ele>
        <time>2021-08-19T13:51:21Z</time>
      </trkpt>
      <trkpt lat="43.37476" lon="0.01885">
        <ele>292.38</ele>
        <time>2021-08-19T13:51:24Z</time>
      </trkpt>
      <trkpt lat="43.37472" lon="0.01885">
        <ele>292.38</ele>
        <time>2021-08-19T13:51:25Z</time>
      </trkpt>
      <trkpt lat="43.37466" lon="0.01885">
        <ele>292.38</ele>
        <time>2021-08-19T13:51:26Z</time>
      </trkpt>
      <trkpt lat="43.37461" lon="0.01885">
        <ele>292.38</ele>
        <time>2021-08-19T13:51:27Z</time>
      </trkpt>
      <trkpt lat="43.37457" lon="0.01886">
        <ele>292.38</ele>
        <time>2021-08-19T13:51:28Z</time>
      </trkpt>
      <trkpt lat="43.37454" lon="0.01888">
        <ele>292.38</ele>
        <time>2021-08-19T13:51:29Z</time>
      </trkpt>
      <trkpt lat="43.37451" lon="0.01893">
        <ele>292.38</ele>
        <time>2021-08-19T13:51:30Z</time>
      </trkpt>
      <trkpt lat="43.37443" lon="0.01903">
        <ele>291.42</ele>
        <time>2021-08-19T13:51:32Z</time>
      </trkpt>
      <trkpt lat="43.37438" lon="0.01908">
        <ele>291.42</ele>
        <time>2021-08-19T13:51:33Z</time>
      </trkpt>
      <trkpt lat="43.37434" lon="0.01912">
        <ele>291.42</ele>
        <time>2021-08-19T13:51:34Z</time>
      </trkpt>
      <trkpt lat="43.37413" lon="0.01918">
        <ele>292.86</ele>
        <time>2021-08-19T13:51:39Z</time>
      </trkpt>
      <trkpt lat="43.3741" lon="0.01918">
        <ele>292.86</ele>
        <time>2021-08-19T13:51:40Z</time>
      </trkpt>
      <trkpt lat="43.3739" lon="0.01918">
        <ele>293.82</ele>
        <time>2021-08-19T13:51:46Z</time>
      </trkpt>
      <trkpt lat="43.37374" lon="0.01917">
        <ele>295.26</ele>
        <time>2021-08-19T13:51:51Z</time>
      </trkpt>
      <trkpt lat="43.37348" lon="0.01912">
        <ele>295.74</ele>
        <time>2021-08-19T13:51:59Z</time>
      </trkpt>
      <trkpt lat="43.3732" lon="0.01915">
        <ele>295.74</ele>
        <time>2021-08-19T13:52:06Z</time>
      </trkpt>
      <trkpt lat="43.37316" lon="0.01914">
        <ele>295.74</ele>
        <time>2021-08-19T13:52:07Z</time>
      </trkpt>
      <trkpt lat="43.37279" lon="0.01899">
        <ele>296.7</ele>
        <time>2021-08-19T13:52:17Z</time>
      </trkpt>
      <trkpt lat="43.37265" lon="0.01889">
        <ele>296.7</ele>
        <time>2021-08-19T13:52:21Z</time>
      </trkpt>
      <trkpt lat="43.37262" lon="0.01885">
        <ele>296.7</ele>
        <time>2021-08-19T13:52:22Z</time>
      </trkpt>
      <trkpt lat="43.37241" lon="0.01852">
        <ele>298.15</ele>
        <time>2021-08-19T13:52:30Z</time>
      </trkpt>
      <trkpt lat="43.37218" lon="0.01821">
        <ele>299.11</ele>
        <time>2021-08-19T13:52:39Z</time>
      </trkpt>
      <trkpt lat="43.37184" lon="0.01791">
        <ele>298.15</ele>
        <time>2021-08-19T13:52:48Z</time>
      </trkpt>
      <trkpt lat="43.37148" lon="0.01759">
        <ele>295.74</ele>
        <time>2021-08-19T13:52:55Z</time>
      </trkpt>
      <trkpt lat="43.37101" lon="0.0172">
        <ele>296.22</ele>
        <time>2021-08-19T13:53:04Z</time>
      </trkpt>
      <trkpt lat="43.37065" lon="0.01694">
        <ele>298.15</ele>
        <time>2021-08-19T13:53:12Z</time>
      </trkpt>
      <trkpt lat="43.37028" lon="0.01666">
        <ele>298.15</ele>
        <time>2021-08-19T13:53:21Z</time>
      </trkpt>
      <trkpt lat="43.37019" lon="0.01661">
        <ele>298.15</ele>
        <time>2021-08-19T13:53:23Z</time>
      </trkpt>
      <trkpt lat="43.37013" lon="0.01659">
        <ele>296.7</ele>
        <time>2021-08-19T13:53:24Z</time>
      </trkpt>
      <trkpt lat="43.37007" lon="0.01657">
        <ele>296.22</ele>
        <time>2021-08-19T13:53:25Z</time>
      </trkpt>
      <trkpt lat="43.37001" lon="0.01658">
        <ele>295.26</ele>
        <time>2021-08-19T13:53:26Z</time>
      </trkpt>
      <trkpt lat="43.36994" lon="0.01661">
        <ele>294.3</ele>
        <time>2021-08-19T13:53:27Z</time>
      </trkpt>
      <trkpt lat="43.36987" lon="0.01664">
        <ele>291.9</ele>
        <time>2021-08-19T13:53:28Z</time>
      </trkpt>
      <trkpt lat="43.36959" lon="0.01685">
        <ele>289.49</ele>
        <time>2021-08-19T13:53:32Z</time>
      </trkpt>
      <trkpt lat="43.36954" lon="0.01692">
        <ele>288.53</ele>
        <time>2021-08-19T13:53:33Z</time>
      </trkpt>
      <trkpt lat="43.3695" lon="0.01699">
        <ele>288.53</ele>
        <time>2021-08-19T13:53:34Z</time>
      </trkpt>
      <trkpt lat="43.36936" lon="0.01718">
        <ele>288.05</ele>
        <time>2021-08-19T13:53:39Z</time>
      </trkpt>
      <trkpt lat="43.36934" lon="0.01716">
        <ele>287.57</ele>
        <time>2021-08-19T13:53:40Z</time>
      </trkpt>
      <trkpt lat="43.36933" lon="0.01713">
        <ele>287.57</ele>
        <time>2021-08-19T13:53:41Z</time>
      </trkpt>
      <trkpt lat="43.36932" lon="0.0171">
        <ele>287.57</ele>
        <time>2021-08-19T13:53:42Z</time>
      </trkpt>
      <trkpt lat="43.36932" lon="0.01707">
        <ele>287.57</ele>
        <time>2021-08-19T13:53:43Z</time>
      </trkpt>
      <trkpt lat="43.36932" lon="0.01704">
        <ele>288.05</ele>
        <time>2021-08-19T13:53:44Z</time>
      </trkpt>
      <trkpt lat="43.3693" lon="0.01694">
        <ele>289.01</ele>
        <time>2021-08-19T13:53:47Z</time>
      </trkpt>
      <trkpt lat="43.36928" lon="0.01689">
        <ele>289.49</ele>
        <time>2021-08-19T13:53:49Z</time>
      </trkpt>
      <trkpt lat="43.36926" lon="0.01688">
        <ele>289.49</ele>
        <time>2021-08-19T13:53:50Z</time>
      </trkpt>
      <trkpt lat="43.36924" lon="0.01688">
        <ele>289.49</ele>
        <time>2021-08-19T13:53:51Z</time>
      </trkpt>
      <trkpt lat="43.36921" lon="0.01688">
        <ele>289.49</ele>
        <time>2021-08-19T13:53:52Z</time>
      </trkpt>
      <trkpt lat="43.36919" lon="0.0169">
        <ele>289.49</ele>
        <time>2021-08-19T13:53:53Z</time>
      </trkpt>
      <trkpt lat="43.36916" lon="0.01692">
        <ele>289.49</ele>
        <time>2021-08-19T13:53:54Z</time>
      </trkpt>
      <trkpt lat="43.36913" lon="0.01695">
        <ele>289.49</ele>
        <time>2021-08-19T13:53:55Z</time>
      </trkpt>
      <trkpt lat="43.36911" lon="0.01699">
        <ele>288.53</ele>
        <time>2021-08-19T13:53:56Z</time>
      </trkpt>
      <trkpt lat="43.3691" lon="0.01704">
        <ele>288.05</ele>
        <time>2021-08-19T13:53:57Z</time>
      </trkpt>
      <trkpt lat="43.3691" lon="0.01709">
        <ele>287.09</ele>
        <time>2021-08-19T13:53:58Z</time>
      </trkpt>
      <trkpt lat="43.3691" lon="0.01716">
        <ele>286.61</ele>
        <time>2021-08-19T13:53:59Z</time>
      </trkpt>
      <trkpt lat="43.36911" lon="0.01736">
        <ele>283.73</ele>
        <time>2021-08-19T13:54:02Z</time>
      </trkpt>
      <trkpt lat="43.36912" lon="0.01743">
        <ele>283.25</ele>
        <time>2021-08-19T13:54:03Z</time>
      </trkpt>
      <trkpt lat="43.36914" lon="0.01751">
        <ele>282.28</ele>
        <time>2021-08-19T13:54:04Z</time>
      </trkpt>
      <trkpt lat="43.36921" lon="0.01777">
        <ele>279.4</ele>
        <time>2021-08-19T13:54:08Z</time>
      </trkpt>
      <trkpt lat="43.36921" lon="0.01783">
        <ele>278.44</ele>
        <time>2021-08-19T13:54:09Z</time>
      </trkpt>
      <trkpt lat="43.36921" lon="0.01789">
        <ele>277.48</ele>
        <time>2021-08-19T13:54:10Z</time>
      </trkpt>
      <trkpt lat="43.36921" lon="0.01802">
        <ele>274.59</ele>
        <time>2021-08-19T13:54:12Z</time>
      </trkpt>
      <trkpt lat="43.36917" lon="0.01835">
        <ele>271.23</ele>
        <time>2021-08-19T13:54:16Z</time>
      </trkpt>
      <trkpt lat="43.36913" lon="0.01862">
        <ele>269.79</ele>
        <time>2021-08-19T13:54:19Z</time>
      </trkpt>
      <trkpt lat="43.36911" lon="0.01878">
        <ele>269.31</ele>
        <time>2021-08-19T13:54:21Z</time>
      </trkpt>
      <trkpt lat="43.36909" lon="0.01886">
        <ele>269.31</ele>
        <time>2021-08-19T13:54:22Z</time>
      </trkpt>
      <trkpt lat="43.36906" lon="0.01892">
        <ele>268.83</ele>
        <time>2021-08-19T13:54:23Z</time>
      </trkpt>
      <trkpt lat="43.36901" lon="0.01914">
        <ele>267.38</ele>
        <time>2021-08-19T13:54:26Z</time>
      </trkpt>
      <trkpt lat="43.369" lon="0.01922">
        <ele>266.9</ele>
        <time>2021-08-19T13:54:27Z</time>
      </trkpt>
      <trkpt lat="43.36901" lon="0.0193">
        <ele>266.9</ele>
        <time>2021-08-19T13:54:28Z</time>
      </trkpt>
      <trkpt lat="43.36902" lon="0.0196">
        <ele>265.94</ele>
        <time>2021-08-19T13:54:33Z</time>
      </trkpt>
      <trkpt lat="43.36903" lon="0.0197">
        <ele>265.46</ele>
        <time>2021-08-19T13:54:38Z</time>
      </trkpt>
      <trkpt lat="43.36902" lon="0.01972">
        <ele>265.94</ele>
        <time>2021-08-19T13:54:45Z</time>
      </trkpt>
      <trkpt lat="43.36902" lon="0.01975">
        <ele>265.46</ele>
        <time>2021-08-19T13:54:52Z</time>
      </trkpt>
      <trkpt lat="43.36903" lon="0.01986">
        <ele>264.98</ele>
        <time>2021-08-19T13:55:00Z</time>
      </trkpt>
      <trkpt lat="43.36908" lon="0.02009">
        <ele>264.02</ele>
        <time>2021-08-19T13:55:06Z</time>
      </trkpt>
      <trkpt lat="43.36917" lon="0.02038">
        <ele>263.06</ele>
        <time>2021-08-19T13:55:12Z</time>
      </trkpt>
      <trkpt lat="43.36916" lon="0.02056">
        <ele>263.06</ele>
        <time>2021-08-19T13:55:16Z</time>
      </trkpt>
      <trkpt lat="43.36915" lon="0.02059">
        <ele>263.06</ele>
        <time>2021-08-19T13:55:17Z</time>
      </trkpt>
      <trkpt lat="43.36914" lon="0.02062">
        <ele>263.06</ele>
        <time>2021-08-19T13:55:18Z</time>
      </trkpt>
      <trkpt lat="43.36913" lon="0.02066">
        <ele>263.06</ele>
        <time>2021-08-19T13:55:19Z</time>
      </trkpt>
      <trkpt lat="43.36913" lon="0.02069">
        <ele>263.06</ele>
        <time>2021-08-19T13:55:20Z</time>
      </trkpt>
      <trkpt lat="43.36912" lon="0.02075">
        <ele>264.5</ele>
        <time>2021-08-19T13:55:22Z</time>
      </trkpt>
      <trkpt lat="43.36913" lon="0.02102">
        <ele>264.98</ele>
        <time>2021-08-19T13:55:29Z</time>
      </trkpt>
      <trkpt lat="43.36917" lon="0.02133">
        <ele>265.94</ele>
        <time>2021-08-19T13:55:36Z</time>
      </trkpt>
      <trkpt lat="43.36925" lon="0.0216">
        <ele>266.42</ele>
        <time>2021-08-19T13:55:43Z</time>
      </trkpt>
      <trkpt lat="43.36931" lon="0.02177">
        <ele>266.9</ele>
        <time>2021-08-19T13:55:49Z</time>
      </trkpt>
      <trkpt lat="43.36938" lon="0.02198">
        <ele>267.38</ele>
        <time>2021-08-19T13:55:56Z</time>
      </trkpt>
      <trkpt lat="43.36948" lon="0.02221">
        <ele>268.35</ele>
        <time>2021-08-19T13:56:03Z</time>
      </trkpt>
      <trkpt lat="43.3696" lon="0.02255">
        <ele>269.31</ele>
        <time>2021-08-19T13:56:13Z</time>
      </trkpt>
      <trkpt lat="43.36971" lon="0.02275">
        <ele>269.31</ele>
        <time>2021-08-19T13:56:19Z</time>
      </trkpt>
      <trkpt lat="43.36979" lon="0.02303">
        <ele>269.79</ele>
        <time>2021-08-19T13:56:26Z</time>
      </trkpt>
      <trkpt lat="43.36978" lon="0.02334">
        <ele>270.75</ele>
        <time>2021-08-19T13:56:34Z</time>
      </trkpt>
      <trkpt lat="43.36975" lon="0.02353">
        <ele>271.71</ele>
        <time>2021-08-19T13:56:42Z</time>
      </trkpt>
      <trkpt lat="43.36974" lon="0.02355">
        <ele>271.71</ele>
        <time>2021-08-19T13:56:43Z</time>
      </trkpt>
      <trkpt lat="43.36974" lon="0.02358">
        <ele>271.71</ele>
        <time>2021-08-19T13:56:44Z</time>
      </trkpt>
      <trkpt lat="43.36973" lon="0.02359">
        <ele>271.71</ele>
        <time>2021-08-19T13:56:45Z</time>
      </trkpt>
      <trkpt lat="43.36967" lon="0.02373">
        <ele>273.15</ele>
        <time>2021-08-19T13:56:52Z</time>
      </trkpt>
      <trkpt lat="43.36963" lon="0.02389">
        <ele>274.59</ele>
        <time>2021-08-19T13:57:00Z</time>
      </trkpt>
      <trkpt lat="43.3696" lon="0.02399">
        <ele>275.56</ele>
        <time>2021-08-19T13:57:06Z</time>
      </trkpt>
      <trkpt lat="43.3696" lon="0.02417">
        <ele>277.48</ele>
        <time>2021-08-19T13:57:16Z</time>
      </trkpt>
      <trkpt lat="43.36964" lon="0.02431">
        <ele>278.44</ele>
        <time>2021-08-19T13:57:23Z</time>
      </trkpt>
      <trkpt lat="43.36966" lon="0.02447">
        <ele>278.92</ele>
        <time>2021-08-19T13:57:29Z</time>
      </trkpt>
      <trkpt lat="43.36966" lon="0.0245">
        <ele>279.88</ele>
        <time>2021-08-19T13:57:30Z</time>
      </trkpt>
      <trkpt lat="43.36967" lon="0.02453">
        <ele>279.88</ele>
        <time>2021-08-19T13:57:31Z</time>
      </trkpt>
      <trkpt lat="43.36967" lon="0.02455">
        <ele>279.88</ele>
        <time>2021-08-19T13:57:32Z</time>
      </trkpt>
      <trkpt lat="43.36968" lon="0.02458">
        <ele>279.88</ele>
        <time>2021-08-19T13:57:33Z</time>
      </trkpt>
      <trkpt lat="43.36968" lon="0.0246">
        <ele>279.88</ele>
        <time>2021-08-19T13:57:34Z</time>
      </trkpt>
      <trkpt lat="43.36972" lon="0.0248">
        <ele>280.84</ele>
        <time>2021-08-19T13:57:41Z</time>
      </trkpt>
      <trkpt lat="43.3698" lon="0.02502">
        <ele>281.32</ele>
        <time>2021-08-19T13:57:49Z</time>
      </trkpt>
      <trkpt lat="43.36992" lon="0.02524">
        <ele>282.28</ele>
        <time>2021-08-19T13:57:56Z</time>
      </trkpt>
      <trkpt lat="43.3701" lon="0.02547">
        <ele>283.25</ele>
        <time>2021-08-19T13:58:04Z</time>
      </trkpt>
      <trkpt lat="43.37021" lon="0.02565">
        <ele>283.73</ele>
        <time>2021-08-19T13:58:11Z</time>
      </trkpt>
      <trkpt lat="43.37029" lon="0.02585">
        <ele>284.21</ele>
        <time>2021-08-19T13:58:17Z</time>
      </trkpt>
      <trkpt lat="43.37038" lon="0.02609">
        <ele>284.21</ele>
        <time>2021-08-19T13:58:23Z</time>
      </trkpt>
      <trkpt lat="43.37053" lon="0.02644">
        <ele>285.65</ele>
        <time>2021-08-19T13:58:31Z</time>
      </trkpt>
      <trkpt lat="43.37069" lon="0.0268">
        <ele>287.09</ele>
        <time>2021-08-19T13:58:39Z</time>
      </trkpt>
      <trkpt lat="43.37082" lon="0.02713">
        <ele>288.05</ele>
        <time>2021-08-19T13:58:47Z</time>
      </trkpt>
      <trkpt lat="43.37096" lon="0.02736">
        <ele>289.49</ele>
        <time>2021-08-19T13:58:54Z</time>
      </trkpt>
      <trkpt lat="43.37124" lon="0.02756">
        <ele>289.97</ele>
        <time>2021-08-19T13:59:03Z</time>
      </trkpt>
      <trkpt lat="43.37142" lon="0.02769">
        <ele>290.94</ele>
        <time>2021-08-19T13:59:10Z</time>
      </trkpt>
      <trkpt lat="43.37144" lon="0.02772">
        <ele>290.94</ele>
        <time>2021-08-19T13:59:11Z</time>
      </trkpt>
      <trkpt lat="43.37144" lon="0.02777">
        <ele>290.94</ele>
        <time>2021-08-19T13:59:12Z</time>
      </trkpt>
      <trkpt lat="43.37145" lon="0.02782">
        <ele>290.46</ele>
        <time>2021-08-19T13:59:13Z</time>
      </trkpt>
      <trkpt lat="43.37145" lon="0.02786">
        <ele>290.46</ele>
        <time>2021-08-19T13:59:14Z</time>
      </trkpt>
      <trkpt lat="43.37146" lon="0.02791">
        <ele>290.94</ele>
        <time>2021-08-19T13:59:15Z</time>
      </trkpt>
      <trkpt lat="43.37147" lon="0.02802">
        <ele>289.49</ele>
        <time>2021-08-19T13:59:17Z</time>
      </trkpt>
      <trkpt lat="43.37148" lon="0.02809">
        <ele>289.01</ele>
        <time>2021-08-19T13:59:18Z</time>
      </trkpt>
      <trkpt lat="43.37148" lon="0.02815">
        <ele>289.01</ele>
        <time>2021-08-19T13:59:19Z</time>
      </trkpt>
      <trkpt lat="43.37148" lon="0.02819">
        <ele>289.01</ele>
        <time>2021-08-19T13:59:20Z</time>
      </trkpt>
      <trkpt lat="43.37149" lon="0.02821">
        <ele>288.53</ele>
        <time>2021-08-19T13:59:21Z</time>
      </trkpt>
      <trkpt lat="43.37149" lon="0.02822">
        <ele>288.53</ele>
        <time>2021-08-19T13:59:22Z</time>
      </trkpt>
      <trkpt lat="43.3715" lon="0.0282">
        <ele>288.53</ele>
        <time>2021-08-19T13:59:24Z</time>
      </trkpt>
      <trkpt lat="43.3715" lon="0.02818">
        <ele>288.53</ele>
        <time>2021-08-19T13:59:25Z</time>
      </trkpt>
      <trkpt lat="43.3715" lon="0.02815">
        <ele>288.05</ele>
        <time>2021-08-19T13:59:26Z</time>
      </trkpt>
      <trkpt lat="43.37149" lon="0.02812">
        <ele>288.05</ele>
        <time>2021-08-19T13:59:27Z</time>
      </trkpt>
      <trkpt lat="43.37149" lon="0.02808">
        <ele>288.05</ele>
        <time>2021-08-19T13:59:28Z</time>
      </trkpt>
      <trkpt lat="43.37148" lon="0.02804">
        <ele>288.05</ele>
        <time>2021-08-19T13:59:29Z</time>
      </trkpt>
      <trkpt lat="43.37147" lon="0.02789">
        <ele>289.49</ele>
        <time>2021-08-19T13:59:32Z</time>
      </trkpt>
      <trkpt lat="43.37152" lon="0.02772">
        <ele>290.46</ele>
        <time>2021-08-19T13:59:36Z</time>
      </trkpt>
      <trkpt lat="43.37154" lon="0.02771">
        <ele>291.42</ele>
        <time>2021-08-19T13:59:37Z</time>
      </trkpt>
      <trkpt lat="43.37157" lon="0.02771">
        <ele>291.42</ele>
        <time>2021-08-19T13:59:38Z</time>
      </trkpt>
      <trkpt lat="43.37174" lon="0.02775">
        <ele>291.9</ele>
        <time>2021-08-19T13:59:44Z</time>
      </trkpt>
      <trkpt lat="43.37207" lon="0.02781">
        <ele>291.9</ele>
        <time>2021-08-19T13:59:52Z</time>
      </trkpt>
      <trkpt lat="43.37243" lon="0.02777">
        <ele>291.9</ele>
        <time>2021-08-19T13:59:59Z</time>
      </trkpt>
      <trkpt lat="43.37248" lon="0.02778">
        <ele>291.9</ele>
        <time>2021-08-19T14:00:00Z</time>
      </trkpt>
      <trkpt lat="43.37252" lon="0.02782">
        <ele>291.9</ele>
        <time>2021-08-19T14:00:01Z</time>
      </trkpt>
      <trkpt lat="43.37254" lon="0.02786">
        <ele>291.9</ele>
        <time>2021-08-19T14:00:02Z</time>
      </trkpt>
      <trkpt lat="43.37254" lon="0.02791">
        <ele>292.38</ele>
        <time>2021-08-19T14:00:03Z</time>
      </trkpt>
      <trkpt lat="43.37254" lon="0.02795">
        <ele>292.86</ele>
        <time>2021-08-19T14:00:04Z</time>
      </trkpt>
      <trkpt lat="43.37254" lon="0.028">
        <ele>292.86</ele>
        <time>2021-08-19T14:00:05Z</time>
      </trkpt>
      <trkpt lat="43.37254" lon="0.02803">
        <ele>293.34</ele>
        <time>2021-08-19T14:00:06Z</time>
      </trkpt>
      <trkpt lat="43.37245" lon="0.02825">
        <ele>294.78</ele>
        <time>2021-08-19T14:00:12Z</time>
      </trkpt>
      <trkpt lat="43.37241" lon="0.02855">
        <ele>295.74</ele>
        <time>2021-08-19T14:00:19Z</time>
      </trkpt>
      <trkpt lat="43.37254" lon="0.02873">
        <ele>297.67</ele>
        <time>2021-08-19T14:00:25Z</time>
      </trkpt>
      <trkpt lat="43.37264" lon="0.02899">
        <ele>297.67</ele>
        <time>2021-08-19T14:00:32Z</time>
      </trkpt>
      <trkpt lat="43.37276" lon="0.02913">
        <ele>296.7</ele>
        <time>2021-08-19T14:00:36Z</time>
      </trkpt>
      <trkpt lat="43.37278" lon="0.02919">
        <ele>296.7</ele>
        <time>2021-08-19T14:00:37Z</time>
      </trkpt>
      <trkpt lat="43.3728" lon="0.02926">
        <ele>296.22</ele>
        <time>2021-08-19T14:00:38Z</time>
      </trkpt>
      <trkpt lat="43.3728" lon="0.02954">
        <ele>294.78</ele>
        <time>2021-08-19T14:00:43Z</time>
      </trkpt>
      <trkpt lat="43.37277" lon="0.02956">
        <ele>294.78</ele>
        <time>2021-08-19T14:00:44Z</time>
      </trkpt>
      <trkpt lat="43.37274" lon="0.02958">
        <ele>294.3</ele>
        <time>2021-08-19T14:00:45Z</time>
      </trkpt>
      <trkpt lat="43.37264" lon="0.0296">
        <ele>291.9</ele>
        <time>2021-08-19T14:00:47Z</time>
      </trkpt>
      <trkpt lat="43.37253" lon="0.0296">
        <ele>289.97</ele>
        <time>2021-08-19T14:00:49Z</time>
      </trkpt>
      <trkpt lat="43.37248" lon="0.02961">
        <ele>289.01</ele>
        <time>2021-08-19T14:00:50Z</time>
      </trkpt>
      <trkpt lat="43.37242" lon="0.02963">
        <ele>288.05</ele>
        <time>2021-08-19T14:00:51Z</time>
      </trkpt>
      <trkpt lat="43.37226" lon="0.02971">
        <ele>284.21</ele>
        <time>2021-08-19T14:00:54Z</time>
      </trkpt>
      <trkpt lat="43.37207" lon="0.02982">
        <ele>281.32</ele>
        <time>2021-08-19T14:00:58Z</time>
      </trkpt>
      <trkpt lat="43.37202" lon="0.02983">
        <ele>281.32</ele>
        <time>2021-08-19T14:00:59Z</time>
      </trkpt>
      <trkpt lat="43.37197" lon="0.02984">
        <ele>280.84</ele>
        <time>2021-08-19T14:01:00Z</time>
      </trkpt>
      <trkpt lat="43.37181" lon="0.02983">
        <ele>280.84</ele>
        <time>2021-08-19T14:01:03Z</time>
      </trkpt>
      <trkpt lat="43.37177" lon="0.02979">
        <ele>280.84</ele>
        <time>2021-08-19T14:01:04Z</time>
      </trkpt>
      <trkpt lat="43.37173" lon="0.02976">
        <ele>280.84</ele>
        <time>2021-08-19T14:01:05Z</time>
      </trkpt>
      <trkpt lat="43.37171" lon="0.02971">
        <ele>280.84</ele>
        <time>2021-08-19T14:01:06Z</time>
      </trkpt>
      <trkpt lat="43.3717" lon="0.02965">
        <ele>280.84</ele>
        <time>2021-08-19T14:01:07Z</time>
      </trkpt>
      <trkpt lat="43.37169" lon="0.0296">
        <ele>280.84</ele>
        <time>2021-08-19T14:01:08Z</time>
      </trkpt>
      <trkpt lat="43.37165" lon="0.02949">
        <ele>280.84</ele>
        <time>2021-08-19T14:01:12Z</time>
      </trkpt>
      <trkpt lat="43.37165" lon="0.0295">
        <ele>280.84</ele>
        <time>2021-08-19T14:01:13Z</time>
      </trkpt>
      <trkpt lat="43.37166" lon="0.02952">
        <ele>280.84</ele>
        <time>2021-08-19T14:01:14Z</time>
      </trkpt>
      <trkpt lat="43.37167" lon="0.02954">
        <ele>280.84</ele>
        <time>2021-08-19T14:01:15Z</time>
      </trkpt>
      <trkpt lat="43.37168" lon="0.02957">
        <ele>280.84</ele>
        <time>2021-08-19T14:01:16Z</time>
      </trkpt>
      <trkpt lat="43.37169" lon="0.0296">
        <ele>280.84</ele>
        <time>2021-08-19T14:01:17Z</time>
      </trkpt>
      <trkpt lat="43.37171" lon="0.02964">
        <ele>280.84</ele>
        <time>2021-08-19T14:01:18Z</time>
      </trkpt>
      <trkpt lat="43.37184" lon="0.02979">
        <ele>280.84</ele>
        <time>2021-08-19T14:01:23Z</time>
      </trkpt>
      <trkpt lat="43.37193" lon="0.02982">
        <ele>280.84</ele>
        <time>2021-08-19T14:01:26Z</time>
      </trkpt>
      <trkpt lat="43.37195" lon="0.02984">
        <ele>280.84</ele>
        <time>2021-08-19T14:01:27Z</time>
      </trkpt>
      <trkpt lat="43.37194" lon="0.02987">
        <ele>280.84</ele>
        <time>2021-08-19T14:01:28Z</time>
      </trkpt>
      <trkpt lat="43.37192" lon="0.02988">
        <ele>280.36</ele>
        <time>2021-08-19T14:01:29Z</time>
      </trkpt>
      <trkpt lat="43.3719" lon="0.02989">
        <ele>279.4</ele>
        <time>2021-08-19T14:01:30Z</time>
      </trkpt>
      <trkpt lat="43.37187" lon="0.02992">
        <ele>278.44</ele>
        <time>2021-08-19T14:01:31Z</time>
      </trkpt>
      <trkpt lat="43.37183" lon="0.02994">
        <ele>277.48</ele>
        <time>2021-08-19T14:01:32Z</time>
      </trkpt>
      <trkpt lat="43.37171" lon="0.02999">
        <ele>274.59</ele>
        <time>2021-08-19T14:01:35Z</time>
      </trkpt>
      <trkpt lat="43.37166" lon="0.02999">
        <ele>273.63</ele>
        <time>2021-08-19T14:01:36Z</time>
      </trkpt>
      <trkpt lat="43.37148" lon="0.02998">
        <ele>269.79</ele>
        <time>2021-08-19T14:01:39Z</time>
      </trkpt>
      <trkpt lat="43.37124" lon="0.02997">
        <ele>266.42</ele>
        <time>2021-08-19T14:01:43Z</time>
      </trkpt>
      <trkpt lat="43.37116" lon="0.02997">
        <ele>264.98</ele>
        <time>2021-08-19T14:01:45Z</time>
      </trkpt>
      <trkpt lat="43.37111" lon="0.02998">
        <ele>264.02</ele>
        <time>2021-08-19T14:01:46Z</time>
      </trkpt>
      <trkpt lat="43.37108" lon="0.02999">
        <ele>264.5</ele>
        <time>2021-08-19T14:01:47Z</time>
      </trkpt>
      <trkpt lat="43.37106" lon="0.03002">
        <ele>263.54</ele>
        <time>2021-08-19T14:01:48Z</time>
      </trkpt>
      <trkpt lat="43.37105" lon="0.03007">
        <ele>262.58</ele>
        <time>2021-08-19T14:01:49Z</time>
      </trkpt>
      <trkpt lat="43.37106" lon="0.03012">
        <ele>261.62</ele>
        <time>2021-08-19T14:01:50Z</time>
      </trkpt>
      <trkpt lat="43.37106" lon="0.03019">
        <ele>260.65</ele>
        <time>2021-08-19T14:01:51Z</time>
      </trkpt>
      <trkpt lat="43.37106" lon="0.03045">
        <ele>256.81</ele>
        <time>2021-08-19T14:01:54Z</time>
      </trkpt>
      <trkpt lat="43.37104" lon="0.03071">
        <ele>253.93</ele>
        <time>2021-08-19T14:01:57Z</time>
      </trkpt>
      <trkpt lat="43.37101" lon="0.03076">
        <ele>252.96</ele>
        <time>2021-08-19T14:01:58Z</time>
      </trkpt>
      <trkpt lat="43.37097" lon="0.03079">
        <ele>252.48</ele>
        <time>2021-08-19T14:01:59Z</time>
      </trkpt>
      <trkpt lat="43.37093" lon="0.03079">
        <ele>252.48</ele>
        <time>2021-08-19T14:02:00Z</time>
      </trkpt>
      <trkpt lat="43.37088" lon="0.03079">
        <ele>252</ele>
        <time>2021-08-19T14:02:01Z</time>
      </trkpt>
      <trkpt lat="43.37047" lon="0.03075">
        <ele>249.6</ele>
        <time>2021-08-19T14:02:08Z</time>
      </trkpt>
      <trkpt lat="43.37039" lon="0.03075">
        <ele>250.08</ele>
        <time>2021-08-19T14:02:09Z</time>
      </trkpt>
      <trkpt lat="43.37033" lon="0.03076">
        <ele>250.08</ele>
        <time>2021-08-19T14:02:10Z</time>
      </trkpt>
      <trkpt lat="43.37026" lon="0.03078">
        <ele>250.08</ele>
        <time>2021-08-19T14:02:11Z</time>
      </trkpt>
      <trkpt lat="43.3702" lon="0.0308">
        <ele>249.6</ele>
        <time>2021-08-19T14:02:12Z</time>
      </trkpt>
      <trkpt lat="43.37015" lon="0.03083">
        <ele>249.6</ele>
        <time>2021-08-19T14:02:13Z</time>
      </trkpt>
      <trkpt lat="43.37008" lon="0.03088">
        <ele>249.6</ele>
        <time>2021-08-19T14:02:14Z</time>
      </trkpt>
      <trkpt lat="43.37003" lon="0.03093">
        <ele>249.6</ele>
        <time>2021-08-19T14:02:15Z</time>
      </trkpt>
      <trkpt lat="43.36997" lon="0.03099">
        <ele>249.12</ele>
        <time>2021-08-19T14:02:16Z</time>
      </trkpt>
      <trkpt lat="43.36989" lon="0.03111">
        <ele>248.16</ele>
        <time>2021-08-19T14:02:18Z</time>
      </trkpt>
      <trkpt lat="43.36972" lon="0.0314">
        <ele>247.2</ele>
        <time>2021-08-19T14:02:22Z</time>
      </trkpt>
      <trkpt lat="43.36967" lon="0.03146">
        <ele>247.2</ele>
        <time>2021-08-19T14:02:23Z</time>
      </trkpt>
      <trkpt lat="43.3696" lon="0.03151">
        <ele>247.2</ele>
        <time>2021-08-19T14:02:24Z</time>
      </trkpt>
      <trkpt lat="43.36954" lon="0.03153">
        <ele>246.72</ele>
        <time>2021-08-19T14:02:25Z</time>
      </trkpt>
      <trkpt lat="43.36948" lon="0.03155">
        <ele>246.72</ele>
        <time>2021-08-19T14:02:26Z</time>
      </trkpt>
      <trkpt lat="43.36883" lon="0.03183">
        <ele>243.35</ele>
        <time>2021-08-19T14:02:35Z</time>
      </trkpt>
      <trkpt lat="43.36836" lon="0.03193">
        <ele>242.39</ele>
        <time>2021-08-19T14:02:41Z</time>
      </trkpt>
      <trkpt lat="43.36785" lon="0.03186">
        <ele>241.91</ele>
        <time>2021-08-19T14:02:48Z</time>
      </trkpt>
      <trkpt lat="43.36767" lon="0.03183">
        <ele>241.91</ele>
        <time>2021-08-19T14:02:51Z</time>
      </trkpt>
      <trkpt lat="43.36761" lon="0.03184">
        <ele>241.91</ele>
        <time>2021-08-19T14:02:52Z</time>
      </trkpt>
      <trkpt lat="43.36757" lon="0.03189">
        <ele>241.91</ele>
        <time>2021-08-19T14:02:53Z</time>
      </trkpt>
      <trkpt lat="43.36754" lon="0.03195">
        <ele>241.91</ele>
        <time>2021-08-19T14:02:54Z</time>
      </trkpt>
      <trkpt lat="43.36751" lon="0.03201">
        <ele>241.91</ele>
        <time>2021-08-19T14:02:55Z</time>
      </trkpt>
      <trkpt lat="43.36749" lon="0.03208">
        <ele>241.91</ele>
        <time>2021-08-19T14:02:56Z</time>
      </trkpt>
      <trkpt lat="43.36745" lon="0.03221">
        <ele>241.91</ele>
        <time>2021-08-19T14:02:58Z</time>
      </trkpt>
      <trkpt lat="43.36741" lon="0.03227">
        <ele>241.43</ele>
        <time>2021-08-19T14:02:59Z</time>
      </trkpt>
      <trkpt lat="43.36735" lon="0.03232">
        <ele>241.43</ele>
        <time>2021-08-19T14:03:00Z</time>
      </trkpt>
      <trkpt lat="43.3673" lon="0.03233">
        <ele>241.43</ele>
        <time>2021-08-19T14:03:01Z</time>
      </trkpt>
      <trkpt lat="43.36724" lon="0.03234">
        <ele>241.43</ele>
        <time>2021-08-19T14:03:02Z</time>
      </trkpt>
      <trkpt lat="43.36719" lon="0.03233">
        <ele>241.43</ele>
        <time>2021-08-19T14:03:03Z</time>
      </trkpt>
      <trkpt lat="43.36674" lon="0.03229">
        <ele>241.43</ele>
        <time>2021-08-19T14:03:12Z</time>
      </trkpt>
      <trkpt lat="43.36623" lon="0.03226">
        <ele>241.43</ele>
        <time>2021-08-19T14:03:22Z</time>
      </trkpt>
      <trkpt lat="43.3657" lon="0.03224">
        <ele>240.95</ele>
        <time>2021-08-19T14:03:32Z</time>
      </trkpt>
      <trkpt lat="43.36517" lon="0.03229">
        <ele>240.95</ele>
        <time>2021-08-19T14:03:42Z</time>
      </trkpt>
      <trkpt lat="43.36473" lon="0.0323">
        <ele>242.39</ele>
        <time>2021-08-19T14:03:51Z</time>
      </trkpt>
      <trkpt lat="43.36465" lon="0.03232">
        <ele>242.87</ele>
        <time>2021-08-19T14:03:53Z</time>
      </trkpt>
      <trkpt lat="43.36463" lon="0.03235">
        <ele>242.87</ele>
        <time>2021-08-19T14:03:54Z</time>
      </trkpt>
      <trkpt lat="43.36461" lon="0.0324">
        <ele>242.87</ele>
        <time>2021-08-19T14:03:55Z</time>
      </trkpt>
      <trkpt lat="43.3646" lon="0.03245">
        <ele>242.87</ele>
        <time>2021-08-19T14:03:56Z</time>
      </trkpt>
      <trkpt lat="43.36459" lon="0.0325">
        <ele>242.87</ele>
        <time>2021-08-19T14:03:57Z</time>
      </trkpt>
      <trkpt lat="43.36458" lon="0.03256">
        <ele>242.87</ele>
        <time>2021-08-19T14:03:58Z</time>
      </trkpt>
      <trkpt lat="43.36456" lon="0.03262">
        <ele>242.87</ele>
        <time>2021-08-19T14:03:59Z</time>
      </trkpt>
      <trkpt lat="43.36453" lon="0.03266">
        <ele>242.87</ele>
        <time>2021-08-19T14:04:00Z</time>
      </trkpt>
      <trkpt lat="43.3645" lon="0.03271">
        <ele>242.87</ele>
        <time>2021-08-19T14:04:01Z</time>
      </trkpt>
      <trkpt lat="43.36446" lon="0.03275">
        <ele>242.87</ele>
        <time>2021-08-19T14:04:02Z</time>
      </trkpt>
      <trkpt lat="43.36415" lon="0.03309">
        <ele>242.87</ele>
        <time>2021-08-19T14:04:10Z</time>
      </trkpt>
      <trkpt lat="43.36374" lon="0.03357">
        <ele>242.87</ele>
        <time>2021-08-19T14:04:20Z</time>
      </trkpt>
      <trkpt lat="43.36354" lon="0.03385">
        <ele>242.87</ele>
        <time>2021-08-19T14:04:25Z</time>
      </trkpt>
      <trkpt lat="43.36342" lon="0.03404">
        <ele>242.87</ele>
        <time>2021-08-19T14:04:28Z</time>
      </trkpt>
      <trkpt lat="43.36337" lon="0.03409">
        <ele>242.87</ele>
        <time>2021-08-19T14:04:29Z</time>
      </trkpt>
      <trkpt lat="43.36332" lon="0.03413">
        <ele>242.87</ele>
        <time>2021-08-19T14:04:30Z</time>
      </trkpt>
      <trkpt lat="43.36327" lon="0.03416">
        <ele>242.87</ele>
        <time>2021-08-19T14:04:31Z</time>
      </trkpt>
      <trkpt lat="43.36321" lon="0.03419">
        <ele>242.87</ele>
        <time>2021-08-19T14:04:32Z</time>
      </trkpt>
      <trkpt lat="43.36277" lon="0.03439">
        <ele>242.87</ele>
        <time>2021-08-19T14:04:40Z</time>
      </trkpt>
      <trkpt lat="43.3625" lon="0.03452">
        <ele>242.87</ele>
        <time>2021-08-19T14:04:45Z</time>
      </trkpt>
      <trkpt lat="43.3624" lon="0.03457">
        <ele>242.87</ele>
        <time>2021-08-19T14:04:47Z</time>
      </trkpt>
      <trkpt lat="43.36228" lon="0.03463">
        <ele>242.87</ele>
        <time>2021-08-19T14:04:49Z</time>
      </trkpt>
      <trkpt lat="43.36184" lon="0.03486">
        <ele>242.87</ele>
        <time>2021-08-19T14:04:57Z</time>
      </trkpt>
      <trkpt lat="43.36179" lon="0.03488">
        <ele>242.87</ele>
        <time>2021-08-19T14:04:58Z</time>
      </trkpt>
      <trkpt lat="43.36174" lon="0.0349">
        <ele>242.87</ele>
        <time>2021-08-19T14:04:59Z</time>
      </trkpt>
      <trkpt lat="43.36131" lon="0.03495">
        <ele>243.83</ele>
        <time>2021-08-19T14:05:08Z</time>
      </trkpt>
      <trkpt lat="43.36092" lon="0.03498">
        <ele>244.79</ele>
        <time>2021-08-19T14:05:17Z</time>
      </trkpt>
      <trkpt lat="43.36066" lon="0.03499">
        <ele>245.27</ele>
        <time>2021-08-19T14:05:24Z</time>
      </trkpt>
      <trkpt lat="43.36041" lon="0.03499">
        <ele>245.75</ele>
        <time>2021-08-19T14:05:32Z</time>
      </trkpt>
      <trkpt lat="43.36034" lon="0.03497">
        <ele>245.75</ele>
        <time>2021-08-19T14:05:37Z</time>
      </trkpt>
      <trkpt lat="43.36035" lon="0.03497">
        <ele>245.75</ele>
        <time>2021-08-19T14:05:50Z</time>
      </trkpt>
      <trkpt lat="43.36034" lon="0.03497">
        <ele>245.75</ele>
        <time>2021-08-19T14:05:57Z</time>
      </trkpt>
      <trkpt lat="43.36034" lon="0.03499">
        <ele>245.75</ele>
        <time>2021-08-19T14:06:02Z</time>
      </trkpt>
      <trkpt lat="43.36035" lon="0.03499">
        <ele>245.75</ele>
        <time>2021-08-19T14:06:18Z</time>
      </trkpt>
      <trkpt lat="43.36035" lon="0.03498">
        <ele>245.27</ele>
        <time>2021-08-19T14:06:33Z</time>
      </trkpt>
      <trkpt lat="43.36034" lon="0.03498">
        <ele>245.75</ele>
        <time>2021-08-19T14:06:47Z</time>
      </trkpt>
      <trkpt lat="43.36035" lon="0.03498">
        <ele>245.75</ele>
        <time>2021-08-19T14:06:59Z</time>
      </trkpt>
      <trkpt lat="43.36035" lon="0.03499">
        <ele>245.75</ele>
        <time>2021-08-19T14:07:12Z</time>
      </trkpt>
      <trkpt lat="43.36035" lon="0.03499">
        <ele>245.75</ele>
        <time>2021-08-19T14:07:22Z</time>
      </trkpt>
      <trkpt lat="43.36035" lon="0.03498">
        <ele>245.75</ele>
        <time>2021-08-19T14:07:38Z</time>
      </trkpt>
      <trkpt lat="43.36036" lon="0.03497">
        <ele>245.27</ele>
        <time>2021-08-19T14:07:57Z</time>
      </trkpt>
      <trkpt lat="43.36036" lon="0.03498">
        <ele>245.27</ele>
        <time>2021-08-19T14:08:14Z</time>
      </trkpt>
      <trkpt lat="43.36035" lon="0.03498">
        <ele>245.27</ele>
        <time>2021-08-19T14:08:32Z</time>
      </trkpt>
      <trkpt lat="43.36036" lon="0.03497">
        <ele>245.27</ele>
        <time>2021-08-19T14:08:49Z</time>
      </trkpt>
      <trkpt lat="43.36036" lon="0.03497">
        <ele>244.79</ele>
        <time>2021-08-19T14:09:09Z</time>
      </trkpt>
      <trkpt lat="43.36035" lon="0.03496">
        <ele>244.79</ele>
        <time>2021-08-19T14:09:24Z</time>
      </trkpt>
      <trkpt lat="43.36035" lon="0.03495">
        <ele>244.79</ele>
        <time>2021-08-19T14:09:44Z</time>
      </trkpt>
      <trkpt lat="43.36035" lon="0.03496">
        <ele>245.27</ele>
        <time>2021-08-19T14:10:03Z</time>
      </trkpt>
      <trkpt lat="43.36035" lon="0.03496">
        <ele>244.79</ele>
        <time>2021-08-19T14:10:26Z</time>
      </trkpt>
      <trkpt lat="43.36035" lon="0.03496">
        <ele>244.79</ele>
        <time>2021-08-19T14:10:49Z</time>
      </trkpt>
      <trkpt lat="43.36035" lon="0.03495">
        <ele>244.79</ele>
        <time>2021-08-19T14:10:58Z</time>
      </trkpt>
      <trkpt lat="43.36033" lon="0.03496">
        <ele>244.79</ele>
        <time>2021-08-19T14:11:13Z</time>
      </trkpt>
      <trkpt lat="43.36034" lon="0.03498">
        <ele>244.79</ele>
        <time>2021-08-19T14:11:27Z</time>
      </trkpt>
      <trkpt lat="43.36033" lon="0.03498">
        <ele>244.79</ele>
        <time>2021-08-19T14:11:48Z</time>
      </trkpt>
      <trkpt lat="43.36034" lon="0.03498">
        <ele>244.79</ele>
        <time>2021-08-19T14:12:00Z</time>
      </trkpt>
      <trkpt lat="43.3603" lon="0.03498">
        <ele>244.31</ele>
        <time>2021-08-19T14:12:07Z</time>
      </trkpt>
      <trkpt lat="43.36014" lon="0.03499">
        <ele>244.31</ele>
        <time>2021-08-19T14:12:13Z</time>
      </trkpt>
      <trkpt lat="43.35992" lon="0.03502">
        <ele>244.31</ele>
        <time>2021-08-19T14:12:19Z</time>
      </trkpt>
      <trkpt lat="43.35975" lon="0.03506">
        <ele>244.31</ele>
        <time>2021-08-19T14:12:23Z</time>
      </trkpt>
      <trkpt lat="43.35971" lon="0.03507">
        <ele>244.31</ele>
        <time>2021-08-19T14:12:24Z</time>
      </trkpt>
      <trkpt lat="43.35953" lon="0.03511">
        <ele>242.87</ele>
        <time>2021-08-19T14:12:28Z</time>
      </trkpt>
      <trkpt lat="43.35907" lon="0.03521">
        <ele>241.91</ele>
        <time>2021-08-19T14:12:37Z</time>
      </trkpt>
      <trkpt lat="43.35887" lon="0.03526">
        <ele>241.43</ele>
        <time>2021-08-19T14:12:41Z</time>
      </trkpt>
      <trkpt lat="43.35852" lon="0.03534">
        <ele>241.43</ele>
        <time>2021-08-19T14:12:49Z</time>
      </trkpt>
      <trkpt lat="43.35834" lon="0.03532">
        <ele>241.43</ele>
        <time>2021-08-19T14:12:54Z</time>
      </trkpt>
      <trkpt lat="43.35814" lon="0.03525">
        <ele>242.87</ele>
        <time>2021-08-19T14:13:00Z</time>
      </trkpt>
      <trkpt lat="43.35797" lon="0.03523">
        <ele>243.83</ele>
        <time>2021-08-19T14:13:06Z</time>
      </trkpt>
      <trkpt lat="43.35779" lon="0.03517">
        <ele>245.27</ele>
        <time>2021-08-19T14:13:14Z</time>
      </trkpt>
      <trkpt lat="43.35766" lon="0.03517">
        <ele>246.23</ele>
        <time>2021-08-19T14:13:21Z</time>
      </trkpt>
      <trkpt lat="43.35755" lon="0.03519">
        <ele>247.68</ele>
        <time>2021-08-19T14:13:28Z</time>
      </trkpt>
      <trkpt lat="43.35751" lon="0.0352">
        <ele>248.16</ele>
        <time>2021-08-19T14:13:30Z</time>
      </trkpt>
      <trkpt lat="43.35749" lon="0.0352">
        <ele>248.16</ele>
        <time>2021-08-19T14:13:31Z</time>
      </trkpt>
      <trkpt lat="43.35748" lon="0.0352">
        <ele>248.16</ele>
        <time>2021-08-19T14:13:32Z</time>
      </trkpt>
      <trkpt lat="43.35746" lon="0.03521">
        <ele>248.64</ele>
        <time>2021-08-19T14:13:33Z</time>
      </trkpt>
      <trkpt lat="43.35737" lon="0.03524">
        <ele>249.6</ele>
        <time>2021-08-19T14:13:40Z</time>
      </trkpt>
      <trkpt lat="43.35728" lon="0.03529">
        <ele>250.56</ele>
        <time>2021-08-19T14:13:47Z</time>
      </trkpt>
      <trkpt lat="43.35717" lon="0.03533">
        <ele>251.52</ele>
        <time>2021-08-19T14:13:55Z</time>
      </trkpt>
      <trkpt lat="43.35712" lon="0.03538">
        <ele>252.48</ele>
        <time>2021-08-19T14:13:59Z</time>
      </trkpt>
      <trkpt lat="43.35702" lon="0.03545">
        <ele>253.93</ele>
        <time>2021-08-19T14:14:08Z</time>
      </trkpt>
      <trkpt lat="43.35693" lon="0.03552">
        <ele>255.37</ele>
        <time>2021-08-19T14:14:17Z</time>
      </trkpt>
      <trkpt lat="43.35687" lon="0.03556">
        <ele>256.33</ele>
        <time>2021-08-19T14:14:23Z</time>
      </trkpt>
      <trkpt lat="43.3568" lon="0.03558">
        <ele>257.77</ele>
        <time>2021-08-19T14:14:28Z</time>
      </trkpt>
      <trkpt lat="43.35671" lon="0.03559">
        <ele>258.73</ele>
        <time>2021-08-19T14:14:36Z</time>
      </trkpt>
      <trkpt lat="43.35661" lon="0.03561">
        <ele>260.17</ele>
        <time>2021-08-19T14:14:44Z</time>
      </trkpt>
      <trkpt lat="43.35652" lon="0.03562">
        <ele>261.14</ele>
        <time>2021-08-19T14:14:51Z</time>
      </trkpt>
      <trkpt lat="43.35641" lon="0.03565">
        <ele>263.06</ele>
        <time>2021-08-19T14:15:01Z</time>
      </trkpt>
      <trkpt lat="43.35634" lon="0.03566">
        <ele>264.5</ele>
        <time>2021-08-19T14:15:07Z</time>
      </trkpt>
      <trkpt lat="43.35622" lon="0.03567">
        <ele>266.42</ele>
        <time>2021-08-19T14:15:17Z</time>
      </trkpt>
      <trkpt lat="43.35612" lon="0.03567">
        <ele>267.38</ele>
        <time>2021-08-19T14:15:25Z</time>
      </trkpt>
      <trkpt lat="43.35611" lon="0.03567">
        <ele>267.38</ele>
        <time>2021-08-19T14:15:26Z</time>
      </trkpt>
      <trkpt lat="43.35601" lon="0.03565">
        <ele>268.83</ele>
        <time>2021-08-19T14:15:35Z</time>
      </trkpt>
      <trkpt lat="43.35595" lon="0.03563">
        <ele>269.79</ele>
        <time>2021-08-19T14:15:43Z</time>
      </trkpt>
      <trkpt lat="43.3559" lon="0.03562">
        <ele>270.75</ele>
        <time>2021-08-19T14:15:51Z</time>
      </trkpt>
      <trkpt lat="43.35581" lon="0.03561">
        <ele>271.71</ele>
        <time>2021-08-19T14:15:58Z</time>
      </trkpt>
      <trkpt lat="43.35572" lon="0.03559">
        <ele>272.67</ele>
        <time>2021-08-19T14:16:07Z</time>
      </trkpt>
      <trkpt lat="43.35564" lon="0.03556">
        <ele>275.07</ele>
        <time>2021-08-19T14:16:17Z</time>
      </trkpt>
      <trkpt lat="43.35557" lon="0.03555">
        <ele>276.04</ele>
        <time>2021-08-19T14:16:25Z</time>
      </trkpt>
      <trkpt lat="43.35551" lon="0.03553">
        <ele>277</ele>
        <time>2021-08-19T14:16:32Z</time>
      </trkpt>
      <trkpt lat="43.35545" lon="0.03552">
        <ele>277.48</ele>
        <time>2021-08-19T14:16:39Z</time>
      </trkpt>
      <trkpt lat="43.35537" lon="0.03549">
        <ele>278.92</ele>
        <time>2021-08-19T14:16:47Z</time>
      </trkpt>
      <trkpt lat="43.35535" lon="0.03548">
        <ele>278.92</ele>
        <time>2021-08-19T14:16:49Z</time>
      </trkpt>
      <trkpt lat="43.35533" lon="0.03548">
        <ele>278.92</ele>
        <time>2021-08-19T14:16:50Z</time>
      </trkpt>
      <trkpt lat="43.35523" lon="0.03544">
        <ele>280.84</ele>
        <time>2021-08-19T14:16:59Z</time>
      </trkpt>
      <trkpt lat="43.35515" lon="0.03542">
        <ele>281.8</ele>
        <time>2021-08-19T14:17:05Z</time>
      </trkpt>
      <trkpt lat="43.35499" lon="0.0354">
        <ele>283.73</ele>
        <time>2021-08-19T14:17:15Z</time>
      </trkpt>
      <trkpt lat="43.35487" lon="0.03538">
        <ele>283.73</ele>
        <time>2021-08-19T14:17:22Z</time>
      </trkpt>
      <trkpt lat="43.35469" lon="0.03537">
        <ele>284.21</ele>
        <time>2021-08-19T14:17:30Z</time>
      </trkpt>
      <trkpt lat="43.35456" lon="0.03535">
        <ele>285.17</ele>
        <time>2021-08-19T14:17:36Z</time>
      </trkpt>
      <trkpt lat="43.3544" lon="0.03536">
        <ele>286.13</ele>
        <time>2021-08-19T14:17:43Z</time>
      </trkpt>
      <trkpt lat="43.3542" lon="0.03536">
        <ele>287.09</ele>
        <time>2021-08-19T14:17:50Z</time>
      </trkpt>
      <trkpt lat="43.35402" lon="0.03534">
        <ele>287.09</ele>
        <time>2021-08-19T14:17:57Z</time>
      </trkpt>
      <trkpt lat="43.3538" lon="0.03533">
        <ele>288.53</ele>
        <time>2021-08-19T14:18:04Z</time>
      </trkpt>
      <trkpt lat="43.35358" lon="0.03531">
        <ele>289.97</ele>
        <time>2021-08-19T14:18:11Z</time>
      </trkpt>
      <trkpt lat="43.35337" lon="0.03526">
        <ele>290.94</ele>
        <time>2021-08-19T14:18:19Z</time>
      </trkpt>
      <trkpt lat="43.35319" lon="0.0352">
        <ele>292.38</ele>
        <time>2021-08-19T14:18:27Z</time>
      </trkpt>
      <trkpt lat="43.35305" lon="0.0351">
        <ele>293.82</ele>
        <time>2021-08-19T14:18:34Z</time>
      </trkpt>
      <trkpt lat="43.35285" lon="0.03496">
        <ele>295.26</ele>
        <time>2021-08-19T14:18:44Z</time>
      </trkpt>
      <trkpt lat="43.35273" lon="0.03491">
        <ele>296.22</ele>
        <time>2021-08-19T14:18:52Z</time>
      </trkpt>
      <trkpt lat="43.35262" lon="0.03486">
        <ele>298.15</ele>
        <time>2021-08-19T14:19:00Z</time>
      </trkpt>
      <trkpt lat="43.35251" lon="0.03479">
        <ele>300.55</ele>
        <time>2021-08-19T14:19:08Z</time>
      </trkpt>
      <trkpt lat="43.3524" lon="0.03473">
        <ele>301.03</ele>
        <time>2021-08-19T14:19:15Z</time>
      </trkpt>
      <trkpt lat="43.35222" lon="0.03464">
        <ele>301.51</ele>
        <time>2021-08-19T14:19:23Z</time>
      </trkpt>
      <trkpt lat="43.35204" lon="0.03454">
        <ele>302.47</ele>
        <time>2021-08-19T14:19:30Z</time>
      </trkpt>
      <trkpt lat="43.3518" lon="0.03443">
        <ele>302.95</ele>
        <time>2021-08-19T14:19:38Z</time>
      </trkpt>
      <trkpt lat="43.35162" lon="0.03441">
        <ele>302.95</ele>
        <time>2021-08-19T14:19:42Z</time>
      </trkpt>
      <trkpt lat="43.35132" lon="0.03441">
        <ele>302.95</ele>
        <time>2021-08-19T14:19:49Z</time>
      </trkpt>
      <trkpt lat="43.35105" lon="0.03435">
        <ele>302.95</ele>
        <time>2021-08-19T14:19:56Z</time>
      </trkpt>
      <trkpt lat="43.35073" lon="0.03418">
        <ele>302.95</ele>
        <time>2021-08-19T14:20:04Z</time>
      </trkpt>
      <trkpt lat="43.35042" lon="0.03398">
        <ele>304.39</ele>
        <time>2021-08-19T14:20:12Z</time>
      </trkpt>
      <trkpt lat="43.35015" lon="0.03378">
        <ele>304.88</ele>
        <time>2021-08-19T14:20:19Z</time>
      </trkpt>
      <trkpt lat="43.3499" lon="0.03353">
        <ele>305.84</ele>
        <time>2021-08-19T14:20:26Z</time>
      </trkpt>
      <trkpt lat="43.3497" lon="0.03327">
        <ele>307.28</ele>
        <time>2021-08-19T14:20:34Z</time>
      </trkpt>
      <trkpt lat="43.34955" lon="0.03307">
        <ele>309.2</ele>
        <time>2021-08-19T14:20:41Z</time>
      </trkpt>
      <trkpt lat="43.34938" lon="0.03282">
        <ele>309.68</ele>
        <time>2021-08-19T14:20:48Z</time>
      </trkpt>
      <trkpt lat="43.34917" lon="0.0325">
        <ele>310.16</ele>
        <time>2021-08-19T14:20:56Z</time>
      </trkpt>
      <trkpt lat="43.34894" lon="0.03218">
        <ele>311.6</ele>
        <time>2021-08-19T14:21:03Z</time>
      </trkpt>
      <trkpt lat="43.34875" lon="0.03196">
        <ele>313.05</ele>
        <time>2021-08-19T14:21:10Z</time>
      </trkpt>
      <trkpt lat="43.34855" lon="0.03177">
        <ele>314.01</ele>
        <time>2021-08-19T14:21:18Z</time>
      </trkpt>
      <trkpt lat="43.3483" lon="0.03162">
        <ele>314.49</ele>
        <time>2021-08-19T14:21:25Z</time>
      </trkpt>
      <trkpt lat="43.34826" lon="0.0316">
        <ele>314.49</ele>
        <time>2021-08-19T14:21:26Z</time>
      </trkpt>
      <trkpt lat="43.34796" lon="0.03144">
        <ele>314.49</ele>
        <time>2021-08-19T14:21:33Z</time>
      </trkpt>
      <trkpt lat="43.3478" lon="0.03137">
        <ele>314.49</ele>
        <time>2021-08-19T14:21:38Z</time>
      </trkpt>
      <trkpt lat="43.34753" lon="0.03125">
        <ele>314.97</ele>
        <time>2021-08-19T14:21:45Z</time>
      </trkpt>
      <trkpt lat="43.34718" lon="0.03109">
        <ele>316.41</ele>
        <time>2021-08-19T14:21:54Z</time>
      </trkpt>
      <trkpt lat="43.34702" lon="0.031">
        <ele>317.37</ele>
        <time>2021-08-19T14:22:01Z</time>
      </trkpt>
      <trkpt lat="43.34695" lon="0.03092">
        <ele>318.81</ele>
        <time>2021-08-19T14:22:07Z</time>
      </trkpt>
      <trkpt lat="43.34687" lon="0.0308">
        <ele>320.26</ele>
        <time>2021-08-19T14:22:14Z</time>
      </trkpt>
      <trkpt lat="43.34676" lon="0.03067">
        <ele>322.18</ele>
        <time>2021-08-19T14:22:23Z</time>
      </trkpt>
      <trkpt lat="43.34675" lon="0.03065">
        <ele>322.18</ele>
        <time>2021-08-19T14:22:24Z</time>
      </trkpt>
      <trkpt lat="43.34674" lon="0.03064">
        <ele>322.18</ele>
        <time>2021-08-19T14:22:25Z</time>
      </trkpt>
      <trkpt lat="43.34672" lon="0.03062">
        <ele>323.14</ele>
        <time>2021-08-19T14:22:26Z</time>
      </trkpt>
      <trkpt lat="43.34671" lon="0.03061">
        <ele>323.14</ele>
        <time>2021-08-19T14:22:27Z</time>
      </trkpt>
      <trkpt lat="43.3467" lon="0.03059">
        <ele>323.14</ele>
        <time>2021-08-19T14:22:28Z</time>
      </trkpt>
      <trkpt lat="43.34668" lon="0.03058">
        <ele>323.14</ele>
        <time>2021-08-19T14:22:29Z</time>
      </trkpt>
      <trkpt lat="43.34661" lon="0.03046">
        <ele>324.58</ele>
        <time>2021-08-19T14:22:37Z</time>
      </trkpt>
      <trkpt lat="43.34651" lon="0.03031">
        <ele>326.02</ele>
        <time>2021-08-19T14:22:46Z</time>
      </trkpt>
      <trkpt lat="43.34644" lon="0.0302">
        <ele>326.99</ele>
        <time>2021-08-19T14:22:53Z</time>
      </trkpt>
      <trkpt lat="43.34633" lon="0.03007">
        <ele>328.43</ele>
        <time>2021-08-19T14:23:02Z</time>
      </trkpt>
      <trkpt lat="43.34617" lon="0.02994">
        <ele>328.91</ele>
        <time>2021-08-19T14:23:10Z</time>
      </trkpt>
      <trkpt lat="43.34602" lon="0.0299">
        <ele>329.39</ele>
        <time>2021-08-19T14:23:16Z</time>
      </trkpt>
      <trkpt lat="43.34578" lon="0.02981">
        <ele>329.39</ele>
        <time>2021-08-19T14:23:23Z</time>
      </trkpt>
      <trkpt lat="43.3457" lon="0.02975">
        <ele>328.43</ele>
        <time>2021-08-19T14:23:25Z</time>
      </trkpt>
      <trkpt lat="43.34566" lon="0.02971">
        <ele>328.43</ele>
        <time>2021-08-19T14:23:26Z</time>
      </trkpt>
      <trkpt lat="43.34561" lon="0.02968">
        <ele>327.95</ele>
        <time>2021-08-19T14:23:27Z</time>
      </trkpt>
      <trkpt lat="43.34557" lon="0.02965">
        <ele>327.95</ele>
        <time>2021-08-19T14:23:28Z</time>
      </trkpt>
      <trkpt lat="43.34553" lon="0.02963">
        <ele>327.95</ele>
        <time>2021-08-19T14:23:29Z</time>
      </trkpt>
      <trkpt lat="43.3455" lon="0.02963">
        <ele>327.95</ele>
        <time>2021-08-19T14:23:30Z</time>
      </trkpt>
      <trkpt lat="43.34547" lon="0.02962">
        <ele>327.95</ele>
        <time>2021-08-19T14:23:31Z</time>
      </trkpt>
      <trkpt lat="43.3453" lon="0.02951">
        <ele>327.95</ele>
        <time>2021-08-19T14:23:37Z</time>
      </trkpt>
      <trkpt lat="43.34519" lon="0.02941">
        <ele>329.39</ele>
        <time>2021-08-19T14:23:41Z</time>
      </trkpt>
      <trkpt lat="43.34505" lon="0.02931">
        <ele>330.35</ele>
        <time>2021-08-19T14:23:47Z</time>
      </trkpt>
      <trkpt lat="43.34495" lon="0.02922">
        <ele>331.31</ele>
        <time>2021-08-19T14:23:53Z</time>
      </trkpt>
      <trkpt lat="43.34482" lon="0.0291">
        <ele>332.27</ele>
        <time>2021-08-19T14:24:00Z</time>
      </trkpt>
      <trkpt lat="43.34468" lon="0.02901">
        <ele>332.75</ele>
        <time>2021-08-19T14:24:07Z</time>
      </trkpt>
      <trkpt lat="43.34455" lon="0.02904">
        <ele>333.71</ele>
        <time>2021-08-19T14:24:13Z</time>
      </trkpt>
      <trkpt lat="43.34447" lon="0.02909">
        <ele>333.71</ele>
        <time>2021-08-19T14:24:16Z</time>
      </trkpt>
      <trkpt lat="43.34428" lon="0.02905">
        <ele>334.2</ele>
        <time>2021-08-19T14:24:22Z</time>
      </trkpt>
      <trkpt lat="43.3442" lon="0.02901">
        <ele>335.16</ele>
        <time>2021-08-19T14:24:26Z</time>
      </trkpt>
      <trkpt lat="43.34418" lon="0.02899">
        <ele>335.16</ele>
        <time>2021-08-19T14:24:27Z</time>
      </trkpt>
      <trkpt lat="43.34416" lon="0.02898">
        <ele>335.16</ele>
        <time>2021-08-19T14:24:28Z</time>
      </trkpt>
      <trkpt lat="43.34414" lon="0.02897">
        <ele>335.64</ele>
        <time>2021-08-19T14:24:29Z</time>
      </trkpt>
      <trkpt lat="43.34413" lon="0.02896">
        <ele>335.64</ele>
        <time>2021-08-19T14:24:30Z</time>
      </trkpt>
      <trkpt lat="43.34394" lon="0.02886">
        <ele>336.6</ele>
        <time>2021-08-19T14:24:38Z</time>
      </trkpt>
      <trkpt lat="43.34382" lon="0.02879">
        <ele>337.56</ele>
        <time>2021-08-19T14:24:44Z</time>
      </trkpt>
      <trkpt lat="43.34367" lon="0.02872">
        <ele>338.52</ele>
        <time>2021-08-19T14:24:50Z</time>
      </trkpt>
      <trkpt lat="43.34349" lon="0.02858">
        <ele>339</ele>
        <time>2021-08-19T14:24:57Z</time>
      </trkpt>
      <trkpt lat="43.34327" lon="0.02843">
        <ele>339.96</ele>
        <time>2021-08-19T14:25:05Z</time>
      </trkpt>
      <trkpt lat="43.34303" lon="0.02828">
        <ele>341.41</ele>
        <time>2021-08-19T14:25:13Z</time>
      </trkpt>
      <trkpt lat="43.34284" lon="0.02812">
        <ele>342.37</ele>
        <time>2021-08-19T14:25:20Z</time>
      </trkpt>
      <trkpt lat="43.3426" lon="0.0279">
        <ele>342.85</ele>
        <time>2021-08-19T14:25:28Z</time>
      </trkpt>
      <trkpt lat="43.34234" lon="0.02761">
        <ele>342.85</ele>
        <time>2021-08-19T14:25:37Z</time>
      </trkpt>
      <trkpt lat="43.34219" lon="0.02742">
        <ele>343.33</ele>
        <time>2021-08-19T14:25:42Z</time>
      </trkpt>
      <trkpt lat="43.34212" lon="0.02735">
        <ele>343.81</ele>
        <time>2021-08-19T14:25:44Z</time>
      </trkpt>
      <trkpt lat="43.34204" lon="0.02728">
        <ele>343.81</ele>
        <time>2021-08-19T14:25:46Z</time>
      </trkpt>
      <trkpt lat="43.34201" lon="0.02726">
        <ele>343.81</ele>
        <time>2021-08-19T14:25:47Z</time>
      </trkpt>
      <trkpt lat="43.34197" lon="0.02723">
        <ele>343.81</ele>
        <time>2021-08-19T14:25:48Z</time>
      </trkpt>
      <trkpt lat="43.34194" lon="0.0272">
        <ele>343.81</ele>
        <time>2021-08-19T14:25:49Z</time>
      </trkpt>
      <trkpt lat="43.3419" lon="0.02718">
        <ele>343.81</ele>
        <time>2021-08-19T14:25:50Z</time>
      </trkpt>
      <trkpt lat="43.34158" lon="0.02695">
        <ele>344.29</ele>
        <time>2021-08-19T14:25:58Z</time>
      </trkpt>
      <trkpt lat="43.34135" lon="0.02677">
        <ele>344.77</ele>
        <time>2021-08-19T14:26:05Z</time>
      </trkpt>
      <trkpt lat="43.34124" lon="0.02659">
        <ele>344.77</ele>
        <time>2021-08-19T14:26:09Z</time>
      </trkpt>
      <trkpt lat="43.34121" lon="0.02655">
        <ele>344.77</ele>
        <time>2021-08-19T14:26:10Z</time>
      </trkpt>
      <trkpt lat="43.34118" lon="0.02651">
        <ele>344.77</ele>
        <time>2021-08-19T14:26:11Z</time>
      </trkpt>
      <trkpt lat="43.34113" lon="0.02647">
        <ele>344.77</ele>
        <time>2021-08-19T14:26:12Z</time>
      </trkpt>
      <trkpt lat="43.34109" lon="0.02643">
        <ele>344.77</ele>
        <time>2021-08-19T14:26:13Z</time>
      </trkpt>
      <trkpt lat="43.34105" lon="0.0264">
        <ele>344.77</ele>
        <time>2021-08-19T14:26:14Z</time>
      </trkpt>
      <trkpt lat="43.34083" lon="0.02624">
        <ele>345.25</ele>
        <time>2021-08-19T14:26:19Z</time>
      </trkpt>
      <trkpt lat="43.34079" lon="0.0262">
        <ele>345.25</ele>
        <time>2021-08-19T14:26:20Z</time>
      </trkpt>
      <trkpt lat="43.34071" lon="0.02613">
        <ele>345.25</ele>
        <time>2021-08-19T14:26:22Z</time>
      </trkpt>
      <trkpt lat="43.34067" lon="0.02609">
        <ele>345.25</ele>
        <time>2021-08-19T14:26:23Z</time>
      </trkpt>
      <trkpt lat="43.34056" lon="0.02596">
        <ele>345.25</ele>
        <time>2021-08-19T14:26:26Z</time>
      </trkpt>
      <trkpt lat="43.34041" lon="0.0257">
        <ele>345.25</ele>
        <time>2021-08-19T14:26:31Z</time>
      </trkpt>
      <trkpt lat="43.34035" lon="0.02559">
        <ele>345.25</ele>
        <time>2021-08-19T14:26:33Z</time>
      </trkpt>
      <trkpt lat="43.34028" lon="0.02549">
        <ele>345.73</ele>
        <time>2021-08-19T14:26:35Z</time>
      </trkpt>
      <trkpt lat="43.34021" lon="0.02538">
        <ele>345.73</ele>
        <time>2021-08-19T14:26:37Z</time>
      </trkpt>
      <trkpt lat="43.34017" lon="0.02534">
        <ele>345.73</ele>
        <time>2021-08-19T14:26:38Z</time>
      </trkpt>
      <trkpt lat="43.34009" lon="0.02527">
        <ele>346.21</ele>
        <time>2021-08-19T14:26:40Z</time>
      </trkpt>
      <trkpt lat="43.33982" lon="0.02507">
        <ele>346.69</ele>
        <time>2021-08-19T14:26:47Z</time>
      </trkpt>
      <trkpt lat="43.33951" lon="0.0248">
        <ele>347.65</ele>
        <time>2021-08-19T14:26:55Z</time>
      </trkpt>
      <trkpt lat="43.33926" lon="0.0246">
        <ele>347.65</ele>
        <time>2021-08-19T14:27:01Z</time>
      </trkpt>
      <trkpt lat="43.33896" lon="0.02436">
        <ele>348.13</ele>
        <time>2021-08-19T14:27:08Z</time>
      </trkpt>
      <trkpt lat="43.3387" lon="0.02413">
        <ele>348.62</ele>
        <time>2021-08-19T14:27:14Z</time>
      </trkpt>
      <trkpt lat="43.33866" lon="0.02409">
        <ele>349.1</ele>
        <time>2021-08-19T14:27:15Z</time>
      </trkpt>
      <trkpt lat="43.33858" lon="0.02399">
        <ele>349.1</ele>
        <time>2021-08-19T14:27:17Z</time>
      </trkpt>
      <trkpt lat="43.33855" lon="0.02394">
        <ele>349.1</ele>
        <time>2021-08-19T14:27:18Z</time>
      </trkpt>
      <trkpt lat="43.33827" lon="0.02349">
        <ele>349.1</ele>
        <time>2021-08-19T14:27:26Z</time>
      </trkpt>
      <trkpt lat="43.33821" lon="0.02338">
        <ele>349.1</ele>
        <time>2021-08-19T14:27:28Z</time>
      </trkpt>
      <trkpt lat="43.33798" lon="0.02301">
        <ele>348.62</ele>
        <time>2021-08-19T14:27:34Z</time>
      </trkpt>
      <trkpt lat="43.33786" lon="0.02279">
        <ele>347.65</ele>
        <time>2021-08-19T14:27:37Z</time>
      </trkpt>
      <trkpt lat="43.33762" lon="0.02233">
        <ele>347.17</ele>
        <time>2021-08-19T14:27:43Z</time>
      </trkpt>
      <trkpt lat="43.33738" lon="0.02191">
        <ele>347.65</ele>
        <time>2021-08-19T14:27:50Z</time>
      </trkpt>
      <trkpt lat="43.33731" lon="0.02179">
        <ele>347.65</ele>
        <time>2021-08-19T14:27:52Z</time>
      </trkpt>
      <trkpt lat="43.33727" lon="0.02173">
        <ele>347.65</ele>
        <time>2021-08-19T14:27:53Z</time>
      </trkpt>
      <trkpt lat="43.33723" lon="0.02168">
        <ele>347.17</ele>
        <time>2021-08-19T14:27:54Z</time>
      </trkpt>
      <trkpt lat="43.33719" lon="0.02162">
        <ele>347.17</ele>
        <time>2021-08-19T14:27:55Z</time>
      </trkpt>
      <trkpt lat="43.33715" lon="0.02158">
        <ele>347.17</ele>
        <time>2021-08-19T14:27:56Z</time>
      </trkpt>
      <trkpt lat="43.33698" lon="0.02139">
        <ele>348.62</ele>
        <time>2021-08-19T14:28:00Z</time>
      </trkpt>
      <trkpt lat="43.3368" lon="0.02118">
        <ele>349.58</ele>
        <time>2021-08-19T14:28:05Z</time>
      </trkpt>
      <trkpt lat="43.33676" lon="0.02114">
        <ele>349.58</ele>
        <time>2021-08-19T14:28:06Z</time>
      </trkpt>
      <trkpt lat="43.33673" lon="0.0211">
        <ele>350.06</ele>
        <time>2021-08-19T14:28:07Z</time>
      </trkpt>
      <trkpt lat="43.33656" lon="0.02092">
        <ele>351.02</ele>
        <time>2021-08-19T14:28:13Z</time>
      </trkpt>
      <trkpt lat="43.33628" lon="0.02062">
        <ele>351.5</ele>
        <time>2021-08-19T14:28:21Z</time>
      </trkpt>
      <trkpt lat="43.33603" lon="0.02037">
        <ele>351.5</ele>
        <time>2021-08-19T14:28:27Z</time>
      </trkpt>
      <trkpt lat="43.33568" lon="0.01999">
        <ele>351.02</ele>
        <time>2021-08-19T14:28:35Z</time>
      </trkpt>
      <trkpt lat="43.33524" lon="0.01951">
        <ele>349.1</ele>
        <time>2021-08-19T14:28:44Z</time>
      </trkpt>
      <trkpt lat="43.33482" lon="0.01905">
        <ele>349.1</ele>
        <time>2021-08-19T14:28:53Z</time>
      </trkpt>
      <trkpt lat="43.33453" lon="0.01877">
        <ele>349.1</ele>
        <time>2021-08-19T14:29:00Z</time>
      </trkpt>
      <trkpt lat="43.33417" lon="0.01837">
        <ele>349.1</ele>
        <time>2021-08-19T14:29:08Z</time>
      </trkpt>
      <trkpt lat="43.33413" lon="0.01832">
        <ele>349.1</ele>
        <time>2021-08-19T14:29:09Z</time>
      </trkpt>
      <trkpt lat="43.33373" lon="0.01789">
        <ele>347.65</ele>
        <time>2021-08-19T14:29:17Z</time>
      </trkpt>
      <trkpt lat="43.33324" lon="0.01734">
        <ele>346.21</ele>
        <time>2021-08-19T14:29:26Z</time>
      </trkpt>
      <trkpt lat="43.33269" lon="0.01676">
        <ele>345.73</ele>
        <time>2021-08-19T14:29:36Z</time>
      </trkpt>
      <trkpt lat="43.33237" lon="0.01642">
        <ele>345.73</ele>
        <time>2021-08-19T14:29:43Z</time>
      </trkpt>
      <trkpt lat="43.33212" lon="0.01619">
        <ele>345.25</ele>
        <time>2021-08-19T14:29:50Z</time>
      </trkpt>
      <trkpt lat="43.3321" lon="0.01616">
        <ele>345.25</ele>
        <time>2021-08-19T14:29:52Z</time>
      </trkpt>
      <trkpt lat="43.33208" lon="0.01616">
        <ele>345.25</ele>
        <time>2021-08-19T14:29:53Z</time>
      </trkpt>
      <trkpt lat="43.33207" lon="0.01618">
        <ele>345.25</ele>
        <time>2021-08-19T14:29:55Z</time>
      </trkpt>
      <trkpt lat="43.33207" lon="0.0162">
        <ele>345.25</ele>
        <time>2021-08-19T14:29:56Z</time>
      </trkpt>
      <trkpt lat="43.33208" lon="0.01622">
        <ele>345.25</ele>
        <time>2021-08-19T14:29:57Z</time>
      </trkpt>
      <trkpt lat="43.33208" lon="0.01625">
        <ele>344.77</ele>
        <time>2021-08-19T14:29:58Z</time>
      </trkpt>
      <trkpt lat="43.33208" lon="0.01628">
        <ele>344.77</ele>
        <time>2021-08-19T14:29:59Z</time>
      </trkpt>
      <trkpt lat="43.33208" lon="0.01635">
        <ele>344.77</ele>
        <time>2021-08-19T14:30:01Z</time>
      </trkpt>
      <trkpt lat="43.33205" lon="0.01641">
        <ele>344.29</ele>
        <time>2021-08-19T14:30:03Z</time>
      </trkpt>
      <trkpt lat="43.33203" lon="0.01643">
        <ele>344.29</ele>
        <time>2021-08-19T14:30:04Z</time>
      </trkpt>
      <trkpt lat="43.332" lon="0.01642">
        <ele>343.81</ele>
        <time>2021-08-19T14:30:05Z</time>
      </trkpt>
      <trkpt lat="43.33198" lon="0.01641">
        <ele>343.81</ele>
        <time>2021-08-19T14:30:06Z</time>
      </trkpt>
      <trkpt lat="43.33197" lon="0.01639">
        <ele>343.81</ele>
        <time>2021-08-19T14:30:07Z</time>
      </trkpt>
      <trkpt lat="43.33196" lon="0.01637">
        <ele>343.81</ele>
        <time>2021-08-19T14:30:08Z</time>
      </trkpt>
      <trkpt lat="43.33195" lon="0.01633">
        <ele>345.25</ele>
        <time>2021-08-19T14:30:11Z</time>
      </trkpt>
      <trkpt lat="43.33194" lon="0.01631">
        <ele>345.25</ele>
        <time>2021-08-19T14:30:12Z</time>
      </trkpt>
      <trkpt lat="43.33194" lon="0.0163">
        <ele>345.25</ele>
        <time>2021-08-19T14:30:13Z</time>
      </trkpt>
      <trkpt lat="43.33193" lon="0.01627">
        <ele>345.25</ele>
        <time>2021-08-19T14:30:14Z</time>
      </trkpt>
      <trkpt lat="43.33192" lon="0.01625">
        <ele>345.73</ele>
        <time>2021-08-19T14:30:15Z</time>
      </trkpt>
      <trkpt lat="43.33191" lon="0.01623">
        <ele>345.73</ele>
        <time>2021-08-19T14:30:16Z</time>
      </trkpt>
      <trkpt lat="43.3319" lon="0.01621">
        <ele>345.73</ele>
        <time>2021-08-19T14:30:17Z</time>
      </trkpt>
      <trkpt lat="43.33189" lon="0.01619">
        <ele>346.21</ele>
        <time>2021-08-19T14:30:18Z</time>
      </trkpt>
      <trkpt lat="43.33187" lon="0.01617">
        <ele>346.21</ele>
        <time>2021-08-19T14:30:19Z</time>
      </trkpt>
      <trkpt lat="43.33185" lon="0.01615">
        <ele>346.21</ele>
        <time>2021-08-19T14:30:20Z</time>
      </trkpt>
      <trkpt lat="43.33183" lon="0.01612">
        <ele>346.21</ele>
        <time>2021-08-19T14:30:21Z</time>
      </trkpt>
      <trkpt lat="43.33181" lon="0.0161">
        <ele>346.21</ele>
        <time>2021-08-19T14:30:22Z</time>
      </trkpt>
      <trkpt lat="43.33166" lon="0.01597">
        <ele>347.17</ele>
        <time>2021-08-19T14:30:29Z</time>
      </trkpt>
      <trkpt lat="43.33148" lon="0.01581">
        <ele>347.65</ele>
        <time>2021-08-19T14:30:37Z</time>
      </trkpt>
      <trkpt lat="43.33141" lon="0.01577">
        <ele>348.13</ele>
        <time>2021-08-19T14:30:40Z</time>
      </trkpt>
      <trkpt lat="43.33134" lon="0.01573">
        <ele>348.13</ele>
        <time>2021-08-19T14:30:43Z</time>
      </trkpt>
      <trkpt lat="43.33131" lon="0.0157">
        <ele>348.62</ele>
        <time>2021-08-19T14:30:44Z</time>
      </trkpt>
      <trkpt lat="43.33128" lon="0.01567">
        <ele>348.62</ele>
        <time>2021-08-19T14:30:45Z</time>
      </trkpt>
      <trkpt lat="43.33124" lon="0.01563">
        <ele>348.62</ele>
        <time>2021-08-19T14:30:46Z</time>
      </trkpt>
      <trkpt lat="43.33122" lon="0.01561">
        <ele>348.62</ele>
        <time>2021-08-19T14:30:47Z</time>
      </trkpt>
      <trkpt lat="43.33102" lon="0.01537">
        <ele>349.58</ele>
        <time>2021-08-19T14:30:54Z</time>
      </trkpt>
      <trkpt lat="43.3308" lon="0.01506">
        <ele>349.58</ele>
        <time>2021-08-19T14:31:03Z</time>
      </trkpt>
      <trkpt lat="43.33054" lon="0.01486">
        <ele>350.06</ele>
        <time>2021-08-19T14:31:11Z</time>
      </trkpt>
      <trkpt lat="43.33035" lon="0.01463">
        <ele>350.54</ele>
        <time>2021-08-19T14:31:18Z</time>
      </trkpt>
      <trkpt lat="43.33012" lon="0.01449">
        <ele>351.02</ele>
        <time>2021-08-19T14:31:24Z</time>
      </trkpt>
      <trkpt lat="43.33009" lon="0.01446">
        <ele>351.02</ele>
        <time>2021-08-19T14:31:25Z</time>
      </trkpt>
      <trkpt lat="43.33006" lon="0.01443">
        <ele>351.02</ele>
        <time>2021-08-19T14:31:26Z</time>
      </trkpt>
      <trkpt lat="43.32975" lon="0.01424">
        <ele>351.02</ele>
        <time>2021-08-19T14:31:34Z</time>
      </trkpt>
      <trkpt lat="43.32954" lon="0.01408">
        <ele>351.02</ele>
        <time>2021-08-19T14:31:39Z</time>
      </trkpt>
      <trkpt lat="43.32938" lon="0.01399">
        <ele>351.02</ele>
        <time>2021-08-19T14:31:43Z</time>
      </trkpt>
      <trkpt lat="43.32907" lon="0.01375">
        <ele>349.58</ele>
        <time>2021-08-19T14:31:50Z</time>
      </trkpt>
      <trkpt lat="43.32885" lon="0.0136">
        <ele>347.17</ele>
        <time>2021-08-19T14:31:54Z</time>
      </trkpt>
      <trkpt lat="43.32878" lon="0.01357">
        <ele>347.17</ele>
        <time>2021-08-19T14:31:55Z</time>
      </trkpt>
      <trkpt lat="43.32836" lon="0.01324">
        <ele>347.17</ele>
        <time>2021-08-19T14:32:02Z</time>
      </trkpt>
      <trkpt lat="43.32797" lon="0.01297">
        <ele>347.17</ele>
        <time>2021-08-19T14:32:09Z</time>
      </trkpt>
      <trkpt lat="43.32759" lon="0.01264">
        <ele>349.1</ele>
        <time>2021-08-19T14:32:17Z</time>
      </trkpt>
      <trkpt lat="43.32731" lon="0.01232">
        <ele>350.54</ele>
        <time>2021-08-19T14:32:25Z</time>
      </trkpt>
      <trkpt lat="43.32693" lon="0.01187">
        <ele>350.54</ele>
        <time>2021-08-19T14:32:35Z</time>
      </trkpt>
      <trkpt lat="43.32672" lon="0.01163">
        <ele>349.1</ele>
        <time>2021-08-19T14:32:40Z</time>
      </trkpt>
      <trkpt lat="43.32632" lon="0.01119">
        <ele>348.62</ele>
        <time>2021-08-19T14:32:49Z</time>
      </trkpt>
      <trkpt lat="43.32582" lon="0.01067">
        <ele>346.21</ele>
        <time>2021-08-19T14:32:59Z</time>
      </trkpt>
      <trkpt lat="43.32542" lon="0.01023">
        <ele>342.85</ele>
        <time>2021-08-19T14:33:06Z</time>
      </trkpt>
      <trkpt lat="43.32517" lon="0.00994">
        <ele>342.37</ele>
        <time>2021-08-19T14:33:11Z</time>
      </trkpt>
      <trkpt lat="43.32514" lon="0.00988">
        <ele>342.37</ele>
        <time>2021-08-19T14:33:12Z</time>
      </trkpt>
      <trkpt lat="43.32512" lon="0.00982">
        <ele>342.85</ele>
        <time>2021-08-19T14:33:13Z</time>
      </trkpt>
      <trkpt lat="43.32511" lon="0.00975">
        <ele>342.37</ele>
        <time>2021-08-19T14:33:14Z</time>
      </trkpt>
      <trkpt lat="43.32512" lon="0.0097">
        <ele>342.85</ele>
        <time>2021-08-19T14:33:15Z</time>
      </trkpt>
      <trkpt lat="43.32516" lon="0.00928">
        <ele>342.85</ele>
        <time>2021-08-19T14:33:22Z</time>
      </trkpt>
      <trkpt lat="43.32516" lon="0.00922">
        <ele>342.85</ele>
        <time>2021-08-19T14:33:23Z</time>
      </trkpt>
      <trkpt lat="43.32515" lon="0.00916">
        <ele>342.85</ele>
        <time>2021-08-19T14:33:24Z</time>
      </trkpt>
      <trkpt lat="43.32514" lon="0.00909">
        <ele>344.29</ele>
        <time>2021-08-19T14:33:25Z</time>
      </trkpt>
      <trkpt lat="43.32512" lon="0.00903">
        <ele>344.29</ele>
        <time>2021-08-19T14:33:26Z</time>
      </trkpt>
      <trkpt lat="43.3251" lon="0.00897">
        <ele>343.81</ele>
        <time>2021-08-19T14:33:27Z</time>
      </trkpt>
      <trkpt lat="43.3249" lon="0.0086">
        <ele>345.73</ele>
        <time>2021-08-19T14:33:35Z</time>
      </trkpt>
      <trkpt lat="43.3248" lon="0.00843">
        <ele>345.73</ele>
        <time>2021-08-19T14:33:39Z</time>
      </trkpt>
      <trkpt lat="43.32477" lon="0.00838">
        <ele>345.73</ele>
        <time>2021-08-19T14:33:40Z</time>
      </trkpt>
      <trkpt lat="43.32454" lon="0.008">
        <ele>346.21</ele>
        <time>2021-08-19T14:33:48Z</time>
      </trkpt>
      <trkpt lat="43.32442" lon="0.00779">
        <ele>346.21</ele>
        <time>2021-08-19T14:33:52Z</time>
      </trkpt>
      <trkpt lat="43.32438" lon="0.00774">
        <ele>346.21</ele>
        <time>2021-08-19T14:33:53Z</time>
      </trkpt>
      <trkpt lat="43.32406" lon="0.00715">
        <ele>347.17</ele>
        <time>2021-08-19T14:34:04Z</time>
      </trkpt>
      <trkpt lat="43.32395" lon="0.00695">
        <ele>347.65</ele>
        <time>2021-08-19T14:34:08Z</time>
      </trkpt>
      <trkpt lat="43.32393" lon="0.0069">
        <ele>347.65</ele>
        <time>2021-08-19T14:34:09Z</time>
      </trkpt>
      <trkpt lat="43.32378" lon="0.00665">
        <ele>348.13</ele>
        <time>2021-08-19T14:34:14Z</time>
      </trkpt>
      <trkpt lat="43.32374" lon="0.00662">
        <ele>348.13</ele>
        <time>2021-08-19T14:34:15Z</time>
      </trkpt>
      <trkpt lat="43.32369" lon="0.0066">
        <ele>348.13</ele>
        <time>2021-08-19T14:34:16Z</time>
      </trkpt>
      <trkpt lat="43.32365" lon="0.0066">
        <ele>348.62</ele>
        <time>2021-08-19T14:34:17Z</time>
      </trkpt>
      <trkpt lat="43.32362" lon="0.0066">
        <ele>348.62</ele>
        <time>2021-08-19T14:34:18Z</time>
      </trkpt>
      <trkpt lat="43.32359" lon="0.0066">
        <ele>348.62</ele>
        <time>2021-08-19T14:34:19Z</time>
      </trkpt>
      <trkpt lat="43.32356" lon="0.0066">
        <ele>349.1</ele>
        <time>2021-08-19T14:34:20Z</time>
      </trkpt>
      <trkpt lat="43.32337" lon="0.00649">
        <ele>350.06</ele>
        <time>2021-08-19T14:34:28Z</time>
      </trkpt>
      <trkpt lat="43.32308" lon="0.0063">
        <ele>351.5</ele>
        <time>2021-08-19T14:34:39Z</time>
      </trkpt>
      <trkpt lat="43.32279" lon="0.00613">
        <ele>352.46</ele>
        <time>2021-08-19T14:34:49Z</time>
      </trkpt>
      <trkpt lat="43.3226" lon="0.00601">
        <ele>353.9</ele>
        <time>2021-08-19T14:34:56Z</time>
      </trkpt>
      <trkpt lat="43.32229" lon="0.00584">
        <ele>354.86</ele>
        <time>2021-08-19T14:35:06Z</time>
      </trkpt>
      <trkpt lat="43.32201" lon="0.00579">
        <ele>355.34</ele>
        <time>2021-08-19T14:35:14Z</time>
      </trkpt>
      <trkpt lat="43.32178" lon="0.00577">
        <ele>355.34</ele>
        <time>2021-08-19T14:35:20Z</time>
      </trkpt>
      <trkpt lat="43.3217" lon="0.00576">
        <ele>355.34</ele>
        <time>2021-08-19T14:35:22Z</time>
      </trkpt>
      <trkpt lat="43.32156" lon="0.00576">
        <ele>355.34</ele>
        <time>2021-08-19T14:35:25Z</time>
      </trkpt>
      <trkpt lat="43.3214" lon="0.00576">
        <ele>355.34</ele>
        <time>2021-08-19T14:35:29Z</time>
      </trkpt>
      <trkpt lat="43.32135" lon="0.00575">
        <ele>355.34</ele>
        <time>2021-08-19T14:35:30Z</time>
      </trkpt>
      <trkpt lat="43.32097" lon="0.00574">
        <ele>355.83</ele>
        <time>2021-08-19T14:35:38Z</time>
      </trkpt>
      <trkpt lat="43.32058" lon="0.00573">
        <ele>356.31</ele>
        <time>2021-08-19T14:35:46Z</time>
      </trkpt>
      <trkpt lat="43.32024" lon="0.00573">
        <ele>356.31</ele>
        <time>2021-08-19T14:35:52Z</time>
      </trkpt>
      <trkpt lat="43.31979" lon="0.0057">
        <ele>357.27</ele>
        <time>2021-08-19T14:36:00Z</time>
      </trkpt>
      <trkpt lat="43.31975" lon="0.00569">
        <ele>357.27</ele>
        <time>2021-08-19T14:36:01Z</time>
      </trkpt>
      <trkpt lat="43.31971" lon="0.00569">
        <ele>357.27</ele>
        <time>2021-08-19T14:36:02Z</time>
      </trkpt>
      <trkpt lat="43.31941" lon="0.00563">
        <ele>357.27</ele>
        <time>2021-08-19T14:36:09Z</time>
      </trkpt>
      <trkpt lat="43.31936" lon="0.0056">
        <ele>357.27</ele>
        <time>2021-08-19T14:36:10Z</time>
      </trkpt>
      <trkpt lat="43.31905" lon="0.00542">
        <ele>357.75</ele>
        <time>2021-08-19T14:36:17Z</time>
      </trkpt>
      <trkpt lat="43.31897" lon="0.00537">
        <ele>357.75</ele>
        <time>2021-08-19T14:36:19Z</time>
      </trkpt>
      <trkpt lat="43.31892" lon="0.00535">
        <ele>357.75</ele>
        <time>2021-08-19T14:36:20Z</time>
      </trkpt>
      <trkpt lat="43.31877" lon="0.00527">
        <ele>357.75</ele>
        <time>2021-08-19T14:36:23Z</time>
      </trkpt>
      <trkpt lat="43.31852" lon="0.0051">
        <ele>358.23</ele>
        <time>2021-08-19T14:36:29Z</time>
      </trkpt>
      <trkpt lat="43.31848" lon="0.00507">
        <ele>358.23</ele>
        <time>2021-08-19T14:36:30Z</time>
      </trkpt>
      <trkpt lat="43.31817" lon="0.00475">
        <ele>358.23</ele>
        <time>2021-08-19T14:36:38Z</time>
      </trkpt>
      <trkpt lat="43.31813" lon="0.00472">
        <ele>358.23</ele>
        <time>2021-08-19T14:36:39Z</time>
      </trkpt>
      <trkpt lat="43.31809" lon="0.00467">
        <ele>358.23</ele>
        <time>2021-08-19T14:36:40Z</time>
      </trkpt>
      <trkpt lat="43.3177" lon="0.00431">
        <ele>358.71</ele>
        <time>2021-08-19T14:36:48Z</time>
      </trkpt>
      <trkpt lat="43.31766" lon="0.00427">
        <ele>358.71</ele>
        <time>2021-08-19T14:36:49Z</time>
      </trkpt>
      <trkpt lat="43.3173" lon="0.00389">
        <ele>358.71</ele>
        <time>2021-08-19T14:36:57Z</time>
      </trkpt>
      <trkpt lat="43.31694" lon="0.00354">
        <ele>358.71</ele>
        <time>2021-08-19T14:37:04Z</time>
      </trkpt>
      <trkpt lat="43.31676" lon="0.00331">
        <ele>359.19</ele>
        <time>2021-08-19T14:37:08Z</time>
      </trkpt>
      <trkpt lat="43.31669" lon="0.00318">
        <ele>359.19</ele>
        <time>2021-08-19T14:37:10Z</time>
      </trkpt>
      <trkpt lat="43.31665" lon="0.00311">
        <ele>359.19</ele>
        <time>2021-08-19T14:37:11Z</time>
      </trkpt>
      <trkpt lat="43.31662" lon="0.00302">
        <ele>359.19</ele>
        <time>2021-08-19T14:37:12Z</time>
      </trkpt>
      <trkpt lat="43.31659" lon="0.00295">
        <ele>359.19</ele>
        <time>2021-08-19T14:37:13Z</time>
      </trkpt>
      <trkpt lat="43.31656" lon="0.00289">
        <ele>359.19</ele>
        <time>2021-08-19T14:37:14Z</time>
      </trkpt>
      <trkpt lat="43.31644" lon="0.00262">
        <ele>359.19</ele>
        <time>2021-08-19T14:37:18Z</time>
      </trkpt>
      <trkpt lat="43.31607" lon="0.00195">
        <ele>359.19</ele>
        <time>2021-08-19T14:37:28Z</time>
      </trkpt>
      <trkpt lat="43.31578" lon="0.00149">
        <ele>359.19</ele>
        <time>2021-08-19T14:37:36Z</time>
      </trkpt>
      <trkpt lat="43.3157" lon="0.00132">
        <ele>359.19</ele>
        <time>2021-08-19T14:37:39Z</time>
      </trkpt>
      <trkpt lat="43.31568" lon="0.00127">
        <ele>359.19</ele>
        <time>2021-08-19T14:37:40Z</time>
      </trkpt>
      <trkpt lat="43.31556" lon="0.00076">
        <ele>359.19</ele>
        <time>2021-08-19T14:37:48Z</time>
      </trkpt>
      <trkpt lat="43.31553" lon="0.00063">
        <ele>359.19</ele>
        <time>2021-08-19T14:37:50Z</time>
      </trkpt>
      <trkpt lat="43.31552" lon="0.00056">
        <ele>359.19</ele>
        <time>2021-08-19T14:37:51Z</time>
      </trkpt>
      <trkpt lat="43.31543" lon="0.0002">
        <ele>359.19</ele>
        <time>2021-08-19T14:37:58Z</time>
      </trkpt>
      <trkpt lat="43.3154" lon="0.00021">
        <ele>359.19</ele>
        <time>2021-08-19T14:37:59Z</time>
      </trkpt>
      <trkpt lat="43.31538" lon="0.00022">
        <ele>359.19</ele>
        <time>2021-08-19T14:38:00Z</time>
      </trkpt>
      <trkpt lat="43.31537" lon="0.00025">
        <ele>359.19</ele>
        <time>2021-08-19T14:38:01Z</time>
      </trkpt>
      <trkpt lat="43.31536" lon="0.00029">
        <ele>359.19</ele>
        <time>2021-08-19T14:38:02Z</time>
      </trkpt>
      <trkpt lat="43.31537" lon="0.00035">
        <ele>359.19</ele>
        <time>2021-08-19T14:38:03Z</time>
      </trkpt>
      <trkpt lat="43.31538" lon="0.00039">
        <ele>359.19</ele>
        <time>2021-08-19T14:38:04Z</time>
      </trkpt>
      <trkpt lat="43.31539" lon="0.00043">
        <ele>359.19</ele>
        <time>2021-08-19T14:38:05Z</time>
      </trkpt>
      <trkpt lat="43.3154" lon="0.00048">
        <ele>359.19</ele>
        <time>2021-08-19T14:38:06Z</time>
      </trkpt>
      <trkpt lat="43.31539" lon="0.00052">
        <ele>359.19</ele>
        <time>2021-08-19T14:38:07Z</time>
      </trkpt>
      <trkpt lat="43.31538" lon="0.00056">
        <ele>359.19</ele>
        <time>2021-08-19T14:38:08Z</time>
      </trkpt>
      <trkpt lat="43.31537" lon="0.00059">
        <ele>359.19</ele>
        <time>2021-08-19T14:38:09Z</time>
      </trkpt>
      <trkpt lat="43.3153" lon="0.00081">
        <ele>357.75</ele>
        <time>2021-08-19T14:38:14Z</time>
      </trkpt>
      <trkpt lat="43.31528" lon="0.00085">
        <ele>357.27</ele>
        <time>2021-08-19T14:38:15Z</time>
      </trkpt>
      <trkpt lat="43.31525" lon="0.00088">
        <ele>356.79</ele>
        <time>2021-08-19T14:38:16Z</time>
      </trkpt>
      <trkpt lat="43.31522" lon="0.0009">
        <ele>356.79</ele>
        <time>2021-08-19T14:38:17Z</time>
      </trkpt>
      <trkpt lat="43.31519" lon="0.00091">
        <ele>355.83</ele>
        <time>2021-08-19T14:38:18Z</time>
      </trkpt>
      <trkpt lat="43.31515" lon="0.0009">
        <ele>355.34</ele>
        <time>2021-08-19T14:38:19Z</time>
      </trkpt>
      <trkpt lat="43.31511" lon="0.00091">
        <ele>354.86</ele>
        <time>2021-08-19T14:38:20Z</time>
      </trkpt>
      <trkpt lat="43.31507" lon="0.00096">
        <ele>354.38</ele>
        <time>2021-08-19T14:38:21Z</time>
      </trkpt>
      <trkpt lat="43.31504" lon="0.00102">
        <ele>353.42</ele>
        <time>2021-08-19T14:38:22Z</time>
      </trkpt>
      <trkpt lat="43.31501" lon="0.00107">
        <ele>352.46</ele>
        <time>2021-08-19T14:38:23Z</time>
      </trkpt>
      <trkpt lat="43.31494" lon="0.0013">
        <ele>350.54</ele>
        <time>2021-08-19T14:38:26Z</time>
      </trkpt>
      <trkpt lat="43.31493" lon="0.00136">
        <ele>351.02</ele>
        <time>2021-08-19T14:38:27Z</time>
      </trkpt>
      <trkpt lat="43.3149" lon="0.0014">
        <ele>350.06</ele>
        <time>2021-08-19T14:38:28Z</time>
      </trkpt>
      <trkpt lat="43.31488" lon="0.00144">
        <ele>349.1</ele>
        <time>2021-08-19T14:38:29Z</time>
      </trkpt>
      <trkpt lat="43.31486" lon="0.00149">
        <ele>348.13</ele>
        <time>2021-08-19T14:38:30Z</time>
      </trkpt>
      <trkpt lat="43.31485" lon="0.00155">
        <ele>347.17</ele>
        <time>2021-08-19T14:38:31Z</time>
      </trkpt>
      <trkpt lat="43.31484" lon="0.00162">
        <ele>346.69</ele>
        <time>2021-08-19T14:38:32Z</time>
      </trkpt>
      <trkpt lat="43.31483" lon="0.0017">
        <ele>345.73</ele>
        <time>2021-08-19T14:38:33Z</time>
      </trkpt>
      <trkpt lat="43.31482" lon="0.00178">
        <ele>345.25</ele>
        <time>2021-08-19T14:38:34Z</time>
      </trkpt>
      <trkpt lat="43.3148" lon="0.00187">
        <ele>344.29</ele>
        <time>2021-08-19T14:38:35Z</time>
      </trkpt>
      <trkpt lat="43.31478" lon="0.00195">
        <ele>343.33</ele>
        <time>2021-08-19T14:38:36Z</time>
      </trkpt>
      <trkpt lat="43.31474" lon="0.00202">
        <ele>343.81</ele>
        <time>2021-08-19T14:38:37Z</time>
      </trkpt>
      <trkpt lat="43.31471" lon="0.00208">
        <ele>342.37</ele>
        <time>2021-08-19T14:38:38Z</time>
      </trkpt>
      <trkpt lat="43.31461" lon="0.0023">
        <ele>339.96</ele>
        <time>2021-08-19T14:38:41Z</time>
      </trkpt>
      <trkpt lat="43.31457" lon="0.00236">
        <ele>339</ele>
        <time>2021-08-19T14:38:42Z</time>
      </trkpt>
      <trkpt lat="43.31454" lon="0.00243">
        <ele>338.04</ele>
        <time>2021-08-19T14:38:43Z</time>
      </trkpt>
      <trkpt lat="43.31447" lon="0.00255">
        <ele>337.08</ele>
        <time>2021-08-19T14:38:44Z</time>
      </trkpt>
      <trkpt lat="43.31444" lon="0.00264">
        <ele>336.12</ele>
        <time>2021-08-19T14:38:45Z</time>
      </trkpt>
      <trkpt lat="43.31441" lon="0.00274">
        <ele>336.12</ele>
        <time>2021-08-19T14:38:46Z</time>
      </trkpt>
      <trkpt lat="43.3144" lon="0.00282">
        <ele>335.16</ele>
        <time>2021-08-19T14:38:47Z</time>
      </trkpt>
      <trkpt lat="43.31436" lon="0.00305">
        <ele>332.27</ele>
        <time>2021-08-19T14:38:50Z</time>
      </trkpt>
      <trkpt lat="43.31433" lon="0.00315">
        <ele>330.83</ele>
        <time>2021-08-19T14:38:51Z</time>
      </trkpt>
      <trkpt lat="43.31426" lon="0.0033">
        <ele>329.39</ele>
        <time>2021-08-19T14:38:53Z</time>
      </trkpt>
      <trkpt lat="43.3141" lon="0.0035">
        <ele>326.02</ele>
        <time>2021-08-19T14:38:57Z</time>
      </trkpt>
      <trkpt lat="43.31406" lon="0.0035">
        <ele>325.54</ele>
        <time>2021-08-19T14:38:58Z</time>
      </trkpt>
      <trkpt lat="43.31401" lon="0.0035">
        <ele>324.58</ele>
        <time>2021-08-19T14:38:59Z</time>
      </trkpt>
      <trkpt lat="43.31398" lon="0.00351">
        <ele>323.62</ele>
        <time>2021-08-19T14:39:00Z</time>
      </trkpt>
      <trkpt lat="43.31395" lon="0.00353">
        <ele>323.14</ele>
        <time>2021-08-19T14:39:01Z</time>
      </trkpt>
      <trkpt lat="43.31392" lon="0.00356">
        <ele>322.66</ele>
        <time>2021-08-19T14:39:02Z</time>
      </trkpt>
      <trkpt lat="43.31385" lon="0.00362">
        <ele>320.74</ele>
        <time>2021-08-19T14:39:04Z</time>
      </trkpt>
      <trkpt lat="43.31382" lon="0.00366">
        <ele>319.78</ele>
        <time>2021-08-19T14:39:05Z</time>
      </trkpt>
      <trkpt lat="43.3138" lon="0.00371">
        <ele>319.3</ele>
        <time>2021-08-19T14:39:06Z</time>
      </trkpt>
      <trkpt lat="43.31379" lon="0.00376">
        <ele>318.81</ele>
        <time>2021-08-19T14:39:07Z</time>
      </trkpt>
      <trkpt lat="43.31379" lon="0.00382">
        <ele>318.33</ele>
        <time>2021-08-19T14:39:08Z</time>
      </trkpt>
      <trkpt lat="43.31377" lon="0.00399">
        <ele>315.93</ele>
        <time>2021-08-19T14:39:11Z</time>
      </trkpt>
      <trkpt lat="43.31376" lon="0.00405">
        <ele>315.93</ele>
        <time>2021-08-19T14:39:12Z</time>
      </trkpt>
      <trkpt lat="43.31376" lon="0.00409">
        <ele>314.97</ele>
        <time>2021-08-19T14:39:13Z</time>
      </trkpt>
      <trkpt lat="43.31376" lon="0.00414">
        <ele>314.49</ele>
        <time>2021-08-19T14:39:14Z</time>
      </trkpt>
      <trkpt lat="43.31376" lon="0.00419">
        <ele>314.49</ele>
        <time>2021-08-19T14:39:15Z</time>
      </trkpt>
      <trkpt lat="43.31376" lon="0.00423">
        <ele>313.53</ele>
        <time>2021-08-19T14:39:16Z</time>
      </trkpt>
      <trkpt lat="43.31376" lon="0.00427">
        <ele>313.53</ele>
        <time>2021-08-19T14:39:17Z</time>
      </trkpt>
      <trkpt lat="43.31374" lon="0.00431">
        <ele>313.05</ele>
        <time>2021-08-19T14:39:18Z</time>
      </trkpt>
      <trkpt lat="43.31372" lon="0.00434">
        <ele>312.57</ele>
        <time>2021-08-19T14:39:19Z</time>
      </trkpt>
      <trkpt lat="43.31369" lon="0.00436">
        <ele>312.09</ele>
        <time>2021-08-19T14:39:20Z</time>
      </trkpt>
      <trkpt lat="43.31367" lon="0.00439">
        <ele>312.09</ele>
        <time>2021-08-19T14:39:21Z</time>
      </trkpt>
      <trkpt lat="43.31364" lon="0.00442">
        <ele>311.12</ele>
        <time>2021-08-19T14:39:22Z</time>
      </trkpt>
      <trkpt lat="43.31363" lon="0.00447">
        <ele>311.12</ele>
        <time>2021-08-19T14:39:23Z</time>
      </trkpt>
      <trkpt lat="43.31362" lon="0.00452">
        <ele>310.64</ele>
        <time>2021-08-19T14:39:24Z</time>
      </trkpt>
      <trkpt lat="43.31362" lon="0.00458">
        <ele>310.64</ele>
        <time>2021-08-19T14:39:25Z</time>
      </trkpt>
      <trkpt lat="43.31361" lon="0.00474">
        <ele>308.72</ele>
        <time>2021-08-19T14:39:29Z</time>
      </trkpt>
      <trkpt lat="43.31359" lon="0.0049">
        <ele>306.32</ele>
        <time>2021-08-19T14:39:35Z</time>
      </trkpt>
      <trkpt lat="43.31358" lon="0.00511">
        <ele>303.43</ele>
        <time>2021-08-19T14:39:42Z</time>
      </trkpt>
      <trkpt lat="43.31351" lon="0.00531">
        <ele>300.55</ele>
        <time>2021-08-19T14:39:48Z</time>
      </trkpt>
      <trkpt lat="43.31344" lon="0.00546">
        <ele>298.63</ele>
        <time>2021-08-19T14:39:54Z</time>
      </trkpt>
      <trkpt lat="43.31335" lon="0.00563">
        <ele>297.18</ele>
        <time>2021-08-19T14:39:59Z</time>
      </trkpt>
      <trkpt lat="43.31323" lon="0.00586">
        <ele>295.26</ele>
        <time>2021-08-19T14:40:06Z</time>
      </trkpt>
      <trkpt lat="43.3132" lon="0.00591">
        <ele>295.26</ele>
        <time>2021-08-19T14:40:07Z</time>
      </trkpt>
      <trkpt lat="43.31307" lon="0.00625">
        <ele>292.86</ele>
        <time>2021-08-19T14:40:12Z</time>
      </trkpt>
      <trkpt lat="43.31292" lon="0.0066">
        <ele>289.97</ele>
        <time>2021-08-19T14:40:17Z</time>
      </trkpt>
      <trkpt lat="43.31289" lon="0.00665">
        <ele>289.97</ele>
        <time>2021-08-19T14:40:18Z</time>
      </trkpt>
      <trkpt lat="43.31286" lon="0.00668">
        <ele>289.97</ele>
        <time>2021-08-19T14:40:19Z</time>
      </trkpt>
      <trkpt lat="43.31284" lon="0.00668">
        <ele>289.97</ele>
        <time>2021-08-19T14:40:20Z</time>
      </trkpt>
      <trkpt lat="43.31282" lon="0.00667">
        <ele>289.97</ele>
        <time>2021-08-19T14:40:21Z</time>
      </trkpt>
      <trkpt lat="43.31282" lon="0.00666">
        <ele>289.97</ele>
        <time>2021-08-19T14:40:27Z</time>
      </trkpt>
      <trkpt lat="43.31284" lon="0.00665">
        <ele>289.97</ele>
        <time>2021-08-19T14:40:35Z</time>
      </trkpt>
      <trkpt lat="43.31285" lon="0.00665">
        <ele>289.49</ele>
        <time>2021-08-19T14:40:39Z</time>
      </trkpt>
      <trkpt lat="43.31283" lon="0.00668">
        <ele>289.49</ele>
        <time>2021-08-19T14:40:46Z</time>
      </trkpt>
      <trkpt lat="43.31282" lon="0.00671">
        <ele>289.49</ele>
        <time>2021-08-19T14:41:01Z</time>
      </trkpt>
      <trkpt lat="43.3128" lon="0.00668">
        <ele>289.49</ele>
        <time>2021-08-19T14:41:16Z</time>
      </trkpt>
      <trkpt lat="43.31268" lon="0.00656">
        <ele>289.49</ele>
        <time>2021-08-19T14:41:22Z</time>
      </trkpt>
      <trkpt lat="43.31248" lon="0.00631">
        <ele>289.01</ele>
        <time>2021-08-19T14:41:29Z</time>
      </trkpt>
      <trkpt lat="43.31221" lon="0.006">
        <ele>289.01</ele>
        <time>2021-08-19T14:41:38Z</time>
      </trkpt>
      <trkpt lat="43.31198" lon="0.00568">
        <ele>289.01</ele>
        <time>2021-08-19T14:41:47Z</time>
      </trkpt>
      <trkpt lat="43.31195" lon="0.00562">
        <ele>289.01</ele>
        <time>2021-08-19T14:41:50Z</time>
      </trkpt>
      <trkpt lat="43.31193" lon="0.00562">
        <ele>289.01</ele>
        <time>2021-08-19T14:41:56Z</time>
      </trkpt>
      <trkpt lat="43.31194" lon="0.00562">
        <ele>289.01</ele>
        <time>2021-08-19T14:42:14Z</time>
      </trkpt>
      <trkpt lat="43.31194" lon="0.00562">
        <ele>289.01</ele>
        <time>2021-08-19T14:42:29Z</time>
      </trkpt>
      <trkpt lat="43.31194" lon="0.00561">
        <ele>289.01</ele>
        <time>2021-08-19T14:42:40Z</time>
      </trkpt>
      <trkpt lat="43.31194" lon="0.00558">
        <ele>289.01</ele>
        <time>2021-08-19T14:42:47Z</time>
      </trkpt>
      <trkpt lat="43.31195" lon="0.00557">
        <ele>289.01</ele>
        <time>2021-08-19T14:42:57Z</time>
      </trkpt>
      <trkpt lat="43.31192" lon="0.00555">
        <ele>289.01</ele>
        <time>2021-08-19T14:43:19Z</time>
      </trkpt>
      <trkpt lat="43.31194" lon="0.00554">
        <ele>289.01</ele>
        <time>2021-08-19T14:43:47Z</time>
      </trkpt>
      <trkpt lat="43.31195" lon="0.00554">
        <ele>289.01</ele>
        <time>2021-08-19T14:44:09Z</time>
      </trkpt>
      <trkpt lat="43.31196" lon="0.00555">
        <ele>288.53</ele>
        <time>2021-08-19T14:44:30Z</time>
      </trkpt>
      <trkpt lat="43.31195" lon="0.00555">
        <ele>288.53</ele>
        <time>2021-08-19T14:44:54Z</time>
      </trkpt>
      <trkpt lat="43.31193" lon="0.00554">
        <ele>288.53</ele>
        <time>2021-08-19T14:45:16Z</time>
      </trkpt>
      <trkpt lat="43.31194" lon="0.00554">
        <ele>288.53</ele>
        <time>2021-08-19T14:45:41Z</time>
      </trkpt>
      <trkpt lat="43.31196" lon="0.00555">
        <ele>288.53</ele>
        <time>2021-08-19T14:46:08Z</time>
      </trkpt>
      <trkpt lat="43.31196" lon="0.00555">
        <ele>288.53</ele>
        <time>2021-08-19T14:46:16Z</time>
      </trkpt>
      <trkpt lat="43.31195" lon="0.00554">
        <ele>288.05</ele>
        <time>2021-08-19T14:46:40Z</time>
      </trkpt>
      <trkpt lat="43.31196" lon="0.00554">
        <ele>288.05</ele>
        <time>2021-08-19T14:47:03Z</time>
      </trkpt>
      <trkpt lat="43.31197" lon="0.00555">
        <ele>288.05</ele>
        <time>2021-08-19T14:47:25Z</time>
      </trkpt>
      <trkpt lat="43.31196" lon="0.00555">
        <ele>288.05</ele>
        <time>2021-08-19T14:47:48Z</time>
      </trkpt>
      <trkpt lat="43.31196" lon="0.00556">
        <ele>288.05</ele>
        <time>2021-08-19T14:48:08Z</time>
      </trkpt>
      <trkpt lat="43.31195" lon="0.00554">
        <ele>287.57</ele>
        <time>2021-08-19T14:48:32Z</time>
      </trkpt>
      <trkpt lat="43.31193" lon="0.00555">
        <ele>287.57</ele>
        <time>2021-08-19T14:48:54Z</time>
      </trkpt>
      <trkpt lat="43.31195" lon="0.00556">
        <ele>287.57</ele>
        <time>2021-08-19T14:49:15Z</time>
      </trkpt>
      <trkpt lat="43.31198" lon="0.00557">
        <ele>287.57</ele>
        <time>2021-08-19T14:49:41Z</time>
      </trkpt>
      <trkpt lat="43.31197" lon="0.00555">
        <ele>287.57</ele>
        <time>2021-08-19T14:50:08Z</time>
      </trkpt>
      <trkpt lat="43.31197" lon="0.00555">
        <ele>288.53</ele>
        <time>2021-08-19T14:50:32Z</time>
      </trkpt>
      <trkpt lat="43.31197" lon="0.00555">
        <ele>288.53</ele>
        <time>2021-08-19T14:50:37Z</time>
      </trkpt>
      <trkpt lat="43.31197" lon="0.00555">
        <ele>288.53</ele>
        <time>2021-08-19T14:50:44Z</time>
      </trkpt>
      <trkpt lat="43.31196" lon="0.00554">
        <ele>288.53</ele>
        <time>2021-08-19T14:51:04Z</time>
      </trkpt>
      <trkpt lat="43.31197" lon="0.00554">
        <ele>288.53</ele>
        <time>2021-08-19T14:51:34Z</time>
      </trkpt>
      <trkpt lat="43.31196" lon="0.00555">
        <ele>288.05</ele>
        <time>2021-08-19T14:52:01Z</time>
      </trkpt>
      <trkpt lat="43.31197" lon="0.00556">
        <ele>288.05</ele>
        <time>2021-08-19T14:52:24Z</time>
      </trkpt>
      <trkpt lat="43.31197" lon="0.00555">
        <ele>288.05</ele>
        <time>2021-08-19T14:52:47Z</time>
      </trkpt>
      <trkpt lat="43.31198" lon="0.00555">
        <ele>288.05</ele>
        <time>2021-08-19T14:53:08Z</time>
      </trkpt>
      <trkpt lat="43.31196" lon="0.00554">
        <ele>287.57</ele>
        <time>2021-08-19T14:53:35Z</time>
      </trkpt>
      <trkpt lat="43.31195" lon="0.00554">
        <ele>288.05</ele>
        <time>2021-08-19T14:54:01Z</time>
      </trkpt>
      <trkpt lat="43.31194" lon="0.00553">
        <ele>288.05</ele>
        <time>2021-08-19T14:54:28Z</time>
      </trkpt>
      <trkpt lat="43.31196" lon="0.00556">
        <ele>288.05</ele>
        <time>2021-08-19T14:54:53Z</time>
      </trkpt>
      <trkpt lat="43.31198" lon="0.00557">
        <ele>288.05</ele>
        <time>2021-08-19T14:55:16Z</time>
      </trkpt>
      <trkpt lat="43.31199" lon="0.00557">
        <ele>288.05</ele>
        <time>2021-08-19T14:55:34Z</time>
      </trkpt>
      <trkpt lat="43.31198" lon="0.00556">
        <ele>288.05</ele>
        <time>2021-08-19T14:55:41Z</time>
      </trkpt>
      <trkpt lat="43.31196" lon="0.00556">
        <ele>288.05</ele>
        <time>2021-08-19T14:56:04Z</time>
      </trkpt>
      <trkpt lat="43.31196" lon="0.00555">
        <ele>288.05</ele>
        <time>2021-08-19T14:56:34Z</time>
      </trkpt>
      <trkpt lat="43.31195" lon="0.00557">
        <ele>288.05</ele>
        <time>2021-08-19T14:57:07Z</time>
      </trkpt>
      <trkpt lat="43.31194" lon="0.00555">
        <ele>288.05</ele>
        <time>2021-08-19T14:57:30Z</time>
      </trkpt>
      <trkpt lat="43.31194" lon="0.00554">
        <ele>288.05</ele>
        <time>2021-08-19T14:57:55Z</time>
      </trkpt>
      <trkpt lat="43.31196" lon="0.00556">
        <ele>289.01</ele>
        <time>2021-08-19T14:58:16Z</time>
      </trkpt>
      <trkpt lat="43.31194" lon="0.00559">
        <ele>289.01</ele>
        <time>2021-08-19T14:58:32Z</time>
      </trkpt>
      <trkpt lat="43.31195" lon="0.00558">
        <ele>289.01</ele>
        <time>2021-08-19T14:58:51Z</time>
      </trkpt>
      <trkpt lat="43.31196" lon="0.00555">
        <ele>289.01</ele>
        <time>2021-08-19T14:59:11Z</time>
      </trkpt>
      <trkpt lat="43.31196" lon="0.00559">
        <ele>289.01</ele>
        <time>2021-08-19T14:59:35Z</time>
      </trkpt>
      <trkpt lat="43.31194" lon="0.00557">
        <ele>289.01</ele>
        <time>2021-08-19T14:59:53Z</time>
      </trkpt>
      <trkpt lat="43.31195" lon="0.00556">
        <ele>289.01</ele>
        <time>2021-08-19T15:00:09Z</time>
      </trkpt>
      <trkpt lat="43.31196" lon="0.00556">
        <ele>289.01</ele>
        <time>2021-08-19T15:00:23Z</time>
      </trkpt>
      <trkpt lat="43.31197" lon="0.0056">
        <ele>289.01</ele>
        <time>2021-08-19T15:00:37Z</time>
      </trkpt>
      <trkpt lat="43.31197" lon="0.00558">
        <ele>289.49</ele>
        <time>2021-08-19T15:00:49Z</time>
      </trkpt>
      <trkpt lat="43.31196" lon="0.00557">
        <ele>289.49</ele>
        <time>2021-08-19T15:01:08Z</time>
      </trkpt>
      <trkpt lat="43.31194" lon="0.00558">
        <ele>289.49</ele>
        <time>2021-08-19T15:01:11Z</time>
      </trkpt>
      <trkpt lat="43.31194" lon="0.00557">
        <ele>289.49</ele>
        <time>2021-08-19T15:01:17Z</time>
      </trkpt>
      <trkpt lat="43.31196" lon="0.00557">
        <ele>289.01</ele>
        <time>2021-08-19T15:01:26Z</time>
      </trkpt>
      <trkpt lat="43.31201" lon="0.00555">
        <ele>289.01</ele>
        <time>2021-08-19T15:01:52Z</time>
      </trkpt>
      <trkpt lat="43.31201" lon="0.00554">
        <ele>289.01</ele>
        <time>2021-08-19T15:02:15Z</time>
      </trkpt>
      <trkpt lat="43.312" lon="0.00554">
        <ele>289.01</ele>
        <time>2021-08-19T15:02:35Z</time>
      </trkpt>
      <trkpt lat="43.31196" lon="0.00555">
        <ele>289.01</ele>
        <time>2021-08-19T15:02:59Z</time>
      </trkpt>
      <trkpt lat="43.31198" lon="0.00556">
        <ele>289.01</ele>
        <time>2021-08-19T15:03:16Z</time>
      </trkpt>
      <trkpt lat="43.31199" lon="0.00555">
        <ele>289.01</ele>
        <time>2021-08-19T15:03:29Z</time>
      </trkpt>
      <trkpt lat="43.31199" lon="0.00558">
        <ele>289.01</ele>
        <time>2021-08-19T15:03:42Z</time>
      </trkpt>
      <trkpt lat="43.31197" lon="0.00559">
        <ele>289.01</ele>
        <time>2021-08-19T15:03:50Z</time>
      </trkpt>
      <trkpt lat="43.31198" lon="0.00559">
        <ele>289.01</ele>
        <time>2021-08-19T15:04:09Z</time>
      </trkpt>
      <trkpt lat="43.312" lon="0.00558">
        <ele>288.53</ele>
        <time>2021-08-19T15:04:28Z</time>
      </trkpt>
      <trkpt lat="43.31198" lon="0.00559">
        <ele>288.53</ele>
        <time>2021-08-19T15:04:48Z</time>
      </trkpt>
      <trkpt lat="43.31198" lon="0.00558">
        <ele>288.53</ele>
        <time>2021-08-19T15:05:05Z</time>
      </trkpt>
      <trkpt lat="43.31196" lon="0.00558">
        <ele>288.53</ele>
        <time>2021-08-19T15:05:12Z</time>
      </trkpt>
      <trkpt lat="43.31195" lon="0.00556">
        <ele>288.53</ele>
        <time>2021-08-19T15:05:14Z</time>
      </trkpt>
      <trkpt lat="43.31195" lon="0.00557">
        <ele>288.53</ele>
        <time>2021-08-19T15:05:19Z</time>
      </trkpt>
      <trkpt lat="43.31193" lon="0.00557">
        <ele>288.53</ele>
        <time>2021-08-19T15:05:35Z</time>
      </trkpt>
      <trkpt lat="43.31194" lon="0.00558">
        <ele>288.53</ele>
        <time>2021-08-19T15:05:44Z</time>
      </trkpt>
      <trkpt lat="43.31193" lon="0.00561">
        <ele>288.53</ele>
        <time>2021-08-19T15:06:01Z</time>
      </trkpt>
      <trkpt lat="43.31191" lon="0.00561">
        <ele>288.53</ele>
        <time>2021-08-19T15:06:14Z</time>
      </trkpt>
      <trkpt lat="43.3119" lon="0.00562">
        <ele>288.53</ele>
        <time>2021-08-19T15:06:15Z</time>
      </trkpt>
      <trkpt lat="43.3119" lon="0.00563">
        <ele>288.53</ele>
        <time>2021-08-19T15:06:16Z</time>
      </trkpt>
      <trkpt lat="43.3119" lon="0.00559">
        <ele>288.53</ele>
        <time>2021-08-19T15:06:23Z</time>
      </trkpt>
      <trkpt lat="43.31192" lon="0.0056">
        <ele>288.53</ele>
        <time>2021-08-19T15:06:40Z</time>
      </trkpt>
      <trkpt lat="43.31192" lon="0.0056">
        <ele>288.53</ele>
        <time>2021-08-19T15:06:54Z</time>
      </trkpt>
      <trkpt lat="43.31193" lon="0.00557">
        <ele>288.05</ele>
        <time>2021-08-19T15:07:07Z</time>
      </trkpt>
      <trkpt lat="43.31195" lon="0.00556">
        <ele>288.05</ele>
        <time>2021-08-19T15:07:22Z</time>
      </trkpt>
      <trkpt lat="43.31194" lon="0.00556">
        <ele>288.05</ele>
        <time>2021-08-19T15:07:32Z</time>
      </trkpt>
      <trkpt lat="43.31194" lon="0.00557">
        <ele>288.05</ele>
        <time>2021-08-19T15:07:48Z</time>
      </trkpt>
      <trkpt lat="43.31193" lon="0.00556">
        <ele>288.05</ele>
        <time>2021-08-19T15:07:50Z</time>
      </trkpt>
      <trkpt lat="43.31192" lon="0.00555">
        <ele>288.05</ele>
        <time>2021-08-19T15:07:51Z</time>
      </trkpt>
      <trkpt lat="43.31191" lon="0.00554">
        <ele>288.05</ele>
        <time>2021-08-19T15:07:52Z</time>
      </trkpt>
      <trkpt lat="43.31189" lon="0.00553">
        <ele>288.05</ele>
        <time>2021-08-19T15:07:53Z</time>
      </trkpt>
      <trkpt lat="43.31187" lon="0.00551">
        <ele>288.05</ele>
        <time>2021-08-19T15:07:54Z</time>
      </trkpt>
      <trkpt lat="43.31185" lon="0.00549">
        <ele>288.05</ele>
        <time>2021-08-19T15:07:55Z</time>
      </trkpt>
      <trkpt lat="43.31182" lon="0.00546">
        <ele>287.09</ele>
        <time>2021-08-19T15:07:56Z</time>
      </trkpt>
      <trkpt lat="43.31169" lon="0.00534">
        <ele>287.09</ele>
        <time>2021-08-19T15:08:01Z</time>
      </trkpt>
      <trkpt lat="43.31144" lon="0.00514">
        <ele>287.09</ele>
        <time>2021-08-19T15:08:10Z</time>
      </trkpt>
      <trkpt lat="43.31119" lon="0.00491">
        <ele>287.09</ele>
        <time>2021-08-19T15:08:20Z</time>
      </trkpt>
      <trkpt lat="43.31107" lon="0.0047">
        <ele>288.05</ele>
        <time>2021-08-19T15:08:27Z</time>
      </trkpt>
      <trkpt lat="43.311" lon="0.00457">
        <ele>289.01</ele>
        <time>2021-08-19T15:08:34Z</time>
      </trkpt>
      <trkpt lat="43.31099" lon="0.00451">
        <ele>289.97</ele>
        <time>2021-08-19T15:08:37Z</time>
      </trkpt>
      <trkpt lat="43.31099" lon="0.00449">
        <ele>289.97</ele>
        <time>2021-08-19T15:08:38Z</time>
      </trkpt>
      <trkpt lat="43.31099" lon="0.00446">
        <ele>289.97</ele>
        <time>2021-08-19T15:08:41Z</time>
      </trkpt>
      <trkpt lat="43.31097" lon="0.00447">
        <ele>289.97</ele>
        <time>2021-08-19T15:08:42Z</time>
      </trkpt>
      <trkpt lat="43.31096" lon="0.00448">
        <ele>289.97</ele>
        <time>2021-08-19T15:08:43Z</time>
      </trkpt>
      <trkpt lat="43.31094" lon="0.00449">
        <ele>289.97</ele>
        <time>2021-08-19T15:08:44Z</time>
      </trkpt>
      <trkpt lat="43.31092" lon="0.00449">
        <ele>289.97</ele>
        <time>2021-08-19T15:08:45Z</time>
      </trkpt>
      <trkpt lat="43.31089" lon="0.00449">
        <ele>289.97</ele>
        <time>2021-08-19T15:08:46Z</time>
      </trkpt>
      <trkpt lat="43.31086" lon="0.00448">
        <ele>289.97</ele>
        <time>2021-08-19T15:08:47Z</time>
      </trkpt>
      <trkpt lat="43.31083" lon="0.00447">
        <ele>289.97</ele>
        <time>2021-08-19T15:08:48Z</time>
      </trkpt>
      <trkpt lat="43.31072" lon="0.0044">
        <ele>289.01</ele>
        <time>2021-08-19T15:08:51Z</time>
      </trkpt>
      <trkpt lat="43.31059" lon="0.00432">
        <ele>288.05</ele>
        <time>2021-08-19T15:08:54Z</time>
      </trkpt>
      <trkpt lat="43.31055" lon="0.0043">
        <ele>288.05</ele>
        <time>2021-08-19T15:08:55Z</time>
      </trkpt>
      <trkpt lat="43.31052" lon="0.00428">
        <ele>287.57</ele>
        <time>2021-08-19T15:08:56Z</time>
      </trkpt>
      <trkpt lat="43.31021" lon="0.00413">
        <ele>286.61</ele>
        <time>2021-08-19T15:09:02Z</time>
      </trkpt>
      <trkpt lat="43.30984" lon="0.0039">
        <ele>286.61</ele>
        <time>2021-08-19T15:09:09Z</time>
      </trkpt>
      <trkpt lat="43.30952" lon="0.00363">
        <ele>286.13</ele>
        <time>2021-08-19T15:09:16Z</time>
      </trkpt>
      <trkpt lat="43.30939" lon="0.00349">
        <ele>286.13</ele>
        <time>2021-08-19T15:09:19Z</time>
      </trkpt>
      <trkpt lat="43.30901" lon="0.00302">
        <ele>286.13</ele>
        <time>2021-08-19T15:09:30Z</time>
      </trkpt>
      <trkpt lat="43.30868" lon="0.00269">
        <ele>286.13</ele>
        <time>2021-08-19T15:09:39Z</time>
      </trkpt>
      <trkpt lat="43.30861" lon="0.00261">
        <ele>287.57</ele>
        <time>2021-08-19T15:09:41Z</time>
      </trkpt>
      <trkpt lat="43.30859" lon="0.00257">
        <ele>287.57</ele>
        <time>2021-08-19T15:09:42Z</time>
      </trkpt>
      <trkpt lat="43.30825" lon="0.00202">
        <ele>288.05</ele>
        <time>2021-08-19T15:09:54Z</time>
      </trkpt>
      <trkpt lat="43.30817" lon="0.00188">
        <ele>288.05</ele>
        <time>2021-08-19T15:09:57Z</time>
      </trkpt>
      <trkpt lat="43.30814" lon="0.00183">
        <ele>288.05</ele>
        <time>2021-08-19T15:09:58Z</time>
      </trkpt>
      <trkpt lat="43.30784" lon="0.00149">
        <ele>288.05</ele>
        <time>2021-08-19T15:10:07Z</time>
      </trkpt>
      <trkpt lat="43.30756" lon="0.00129">
        <ele>289.49</ele>
        <time>2021-08-19T15:10:15Z</time>
      </trkpt>
      <trkpt lat="43.30726" lon="0.00109">
        <ele>289.97</ele>
        <time>2021-08-19T15:10:24Z</time>
      </trkpt>
      <trkpt lat="43.30702" lon="0.00093">
        <ele>289.97</ele>
        <time>2021-08-19T15:10:31Z</time>
      </trkpt>
      <trkpt lat="43.30676" lon="0.00077">
        <ele>290.94</ele>
        <time>2021-08-19T15:10:39Z</time>
      </trkpt>
      <trkpt lat="43.3064" lon="0.00051">
        <ele>291.42</ele>
        <time>2021-08-19T15:10:50Z</time>
      </trkpt>
      <trkpt lat="43.30615" lon="0.00031">
        <ele>291.9</ele>
        <time>2021-08-19T15:10:58Z</time>
      </trkpt>
      <trkpt lat="43.30583" lon="0">
        <ele>293.34</ele>
        <time>2021-08-19T15:11:10Z</time>
      </trkpt>
      <trkpt lat="43.30567" lon="-0.00024">
        <ele>294.3</ele>
        <time>2021-08-19T15:11:17Z</time>
      </trkpt>
      <trkpt lat="43.3056" lon="-0.00035">
        <ele>295.74</ele>
        <time>2021-08-19T15:11:23Z</time>
      </trkpt>
      <trkpt lat="43.3055" lon="-0.00044">
        <ele>296.7</ele>
        <time>2021-08-19T15:11:31Z</time>
      </trkpt>
      <trkpt lat="43.30538" lon="-0.00051">
        <ele>297.18</ele>
        <time>2021-08-19T15:11:38Z</time>
      </trkpt>
      <trkpt lat="43.30524" lon="-0.00064">
        <ele>298.15</ele>
        <time>2021-08-19T15:11:47Z</time>
      </trkpt>
      <trkpt lat="43.30521" lon="-0.00078">
        <ele>299.59</ele>
        <time>2021-08-19T15:11:54Z</time>
      </trkpt>
      <trkpt lat="43.30524" lon="-0.00094">
        <ele>301.03</ele>
        <time>2021-08-19T15:12:03Z</time>
      </trkpt>
      <trkpt lat="43.30529" lon="-0.00112">
        <ele>303.43</ele>
        <time>2021-08-19T15:12:15Z</time>
      </trkpt>
      <trkpt lat="43.30531" lon="-0.00127">
        <ele>305.36</ele>
        <time>2021-08-19T15:12:23Z</time>
      </trkpt>
      <trkpt lat="43.3053" lon="-0.00135">
        <ele>306.32</ele>
        <time>2021-08-19T15:12:28Z</time>
      </trkpt>
      <trkpt lat="43.30529" lon="-0.00138">
        <ele>306.32</ele>
        <time>2021-08-19T15:12:30Z</time>
      </trkpt>
      <trkpt lat="43.30526" lon="-0.00143">
        <ele>306.32</ele>
        <time>2021-08-19T15:12:33Z</time>
      </trkpt>
      <trkpt lat="43.30524" lon="-0.00143">
        <ele>306.32</ele>
        <time>2021-08-19T15:12:34Z</time>
      </trkpt>
      <trkpt lat="43.30522" lon="-0.00143">
        <ele>306.32</ele>
        <time>2021-08-19T15:12:35Z</time>
      </trkpt>
      <trkpt lat="43.30515" lon="-0.00141">
        <ele>305.36</ele>
        <time>2021-08-19T15:12:37Z</time>
      </trkpt>
      <trkpt lat="43.30507" lon="-0.0014">
        <ele>303.91</ele>
        <time>2021-08-19T15:12:39Z</time>
      </trkpt>
      <trkpt lat="43.30502" lon="-0.0014">
        <ele>303.43</ele>
        <time>2021-08-19T15:12:40Z</time>
      </trkpt>
      <trkpt lat="43.30498" lon="-0.0014">
        <ele>302.95</ele>
        <time>2021-08-19T15:12:41Z</time>
      </trkpt>
      <trkpt lat="43.30492" lon="-0.00143">
        <ele>302.95</ele>
        <time>2021-08-19T15:12:42Z</time>
      </trkpt>
      <trkpt lat="43.30488" lon="-0.00145">
        <ele>302.47</ele>
        <time>2021-08-19T15:12:43Z</time>
      </trkpt>
      <trkpt lat="43.30484" lon="-0.00149">
        <ele>302.47</ele>
        <time>2021-08-19T15:12:44Z</time>
      </trkpt>
      <trkpt lat="43.30481" lon="-0.00151">
        <ele>302.47</ele>
        <time>2021-08-19T15:12:45Z</time>
      </trkpt>
      <trkpt lat="43.30478" lon="-0.00151">
        <ele>302.47</ele>
        <time>2021-08-19T15:12:46Z</time>
      </trkpt>
      <trkpt lat="43.30475" lon="-0.00149">
        <ele>302.47</ele>
        <time>2021-08-19T15:12:47Z</time>
      </trkpt>
      <trkpt lat="43.30473" lon="-0.00146">
        <ele>301.51</ele>
        <time>2021-08-19T15:12:48Z</time>
      </trkpt>
      <trkpt lat="43.3047" lon="-0.0014">
        <ele>301.51</ele>
        <time>2021-08-19T15:12:49Z</time>
      </trkpt>
      <trkpt lat="43.30468" lon="-0.00135">
        <ele>300.55</ele>
        <time>2021-08-19T15:12:50Z</time>
      </trkpt>
      <trkpt lat="43.30462" lon="-0.00121">
        <ele>300.07</ele>
        <time>2021-08-19T15:12:52Z</time>
      </trkpt>
      <trkpt lat="43.30448" lon="-0.00088">
        <ele>296.7</ele>
        <time>2021-08-19T15:12:56Z</time>
      </trkpt>
      <trkpt lat="43.30425" lon="-0.00037">
        <ele>293.82</ele>
        <time>2021-08-19T15:13:01Z</time>
      </trkpt>
      <trkpt lat="43.3039" lon="0.00043">
        <ele>290.94</ele>
        <time>2021-08-19T15:13:09Z</time>
      </trkpt>
      <trkpt lat="43.30356" lon="0.00123">
        <ele>289.97</ele>
        <time>2021-08-19T15:13:18Z</time>
      </trkpt>
      <trkpt lat="43.30329" lon="0.0019">
        <ele>288.53</ele>
        <time>2021-08-19T15:13:26Z</time>
      </trkpt>
      <trkpt lat="43.30325" lon="0.00203">
        <ele>288.53</ele>
        <time>2021-08-19T15:13:28Z</time>
      </trkpt>
      <trkpt lat="43.30323" lon="0.00207">
        <ele>288.53</ele>
        <time>2021-08-19T15:13:29Z</time>
      </trkpt>
      <trkpt lat="43.3032" lon="0.00209">
        <ele>288.53</ele>
        <time>2021-08-19T15:13:30Z</time>
      </trkpt>
      <trkpt lat="43.30317" lon="0.00209">
        <ele>288.05</ele>
        <time>2021-08-19T15:13:31Z</time>
      </trkpt>
      <trkpt lat="43.30314" lon="0.00207">
        <ele>288.05</ele>
        <time>2021-08-19T15:13:32Z</time>
      </trkpt>
      <trkpt lat="43.30311" lon="0.00205">
        <ele>288.05</ele>
        <time>2021-08-19T15:13:33Z</time>
      </trkpt>
      <trkpt lat="43.3031" lon="0.00203">
        <ele>288.05</ele>
        <time>2021-08-19T15:13:34Z</time>
      </trkpt>
      <trkpt lat="43.30306" lon="0.00194">
        <ele>289.01</ele>
        <time>2021-08-19T15:13:40Z</time>
      </trkpt>
      <trkpt lat="43.30306" lon="0.00191">
        <ele>289.01</ele>
        <time>2021-08-19T15:13:42Z</time>
      </trkpt>
      <trkpt lat="43.30309" lon="0.00197">
        <ele>289.01</ele>
        <time>2021-08-19T15:13:48Z</time>
      </trkpt>
      <trkpt lat="43.30307" lon="0.00195">
        <ele>289.01</ele>
        <time>2021-08-19T15:13:52Z</time>
      </trkpt>
      <trkpt lat="43.30305" lon="0.00188">
        <ele>289.01</ele>
        <time>2021-08-19T15:13:58Z</time>
      </trkpt>
      <trkpt lat="43.30308" lon="0.00191">
        <ele>289.01</ele>
        <time>2021-08-19T15:14:02Z</time>
      </trkpt>
      <trkpt lat="43.30309" lon="0.00205">
        <ele>289.01</ele>
        <time>2021-08-19T15:14:07Z</time>
      </trkpt>
      <trkpt lat="43.30307" lon="0.00207">
        <ele>289.01</ele>
        <time>2021-08-19T15:14:08Z</time>
      </trkpt>
      <trkpt lat="43.30305" lon="0.00209">
        <ele>288.05</ele>
        <time>2021-08-19T15:14:09Z</time>
      </trkpt>
      <trkpt lat="43.30303" lon="0.0021">
        <ele>288.05</ele>
        <time>2021-08-19T15:14:10Z</time>
      </trkpt>
      <trkpt lat="43.30301" lon="0.0021">
        <ele>288.05</ele>
        <time>2021-08-19T15:14:11Z</time>
      </trkpt>
      <trkpt lat="43.30279" lon="0.00213">
        <ele>288.05</ele>
        <time>2021-08-19T15:14:18Z</time>
      </trkpt>
      <trkpt lat="43.30266" lon="0.00224">
        <ele>288.05</ele>
        <time>2021-08-19T15:14:24Z</time>
      </trkpt>
      <trkpt lat="43.30256" lon="0.00242">
        <ele>287.57</ele>
        <time>2021-08-19T15:14:28Z</time>
      </trkpt>
      <trkpt lat="43.30254" lon="0.00247">
        <ele>287.57</ele>
        <time>2021-08-19T15:14:29Z</time>
      </trkpt>
      <trkpt lat="43.30253" lon="0.00253">
        <ele>287.57</ele>
        <time>2021-08-19T15:14:30Z</time>
      </trkpt>
      <trkpt lat="43.30252" lon="0.00258">
        <ele>287.57</ele>
        <time>2021-08-19T15:14:31Z</time>
      </trkpt>
      <trkpt lat="43.30252" lon="0.00263">
        <ele>287.57</ele>
        <time>2021-08-19T15:14:32Z</time>
      </trkpt>
      <trkpt lat="43.30252" lon="0.00268">
        <ele>287.57</ele>
        <time>2021-08-19T15:14:33Z</time>
      </trkpt>
      <trkpt lat="43.30252" lon="0.00274">
        <ele>287.09</ele>
        <time>2021-08-19T15:14:34Z</time>
      </trkpt>
      <trkpt lat="43.3025" lon="0.00279">
        <ele>287.09</ele>
        <time>2021-08-19T15:14:35Z</time>
      </trkpt>
      <trkpt lat="43.30249" lon="0.00284">
        <ele>287.09</ele>
        <time>2021-08-19T15:14:36Z</time>
      </trkpt>
      <trkpt lat="43.30247" lon="0.0029">
        <ele>287.09</ele>
        <time>2021-08-19T15:14:37Z</time>
      </trkpt>
      <trkpt lat="43.30238" lon="0.00327">
        <ele>286.61</ele>
        <time>2021-08-19T15:14:44Z</time>
      </trkpt>
      <trkpt lat="43.30235" lon="0.0034">
        <ele>286.61</ele>
        <time>2021-08-19T15:14:46Z</time>
      </trkpt>
      <trkpt lat="43.30225" lon="0.00378">
        <ele>285.65</ele>
        <time>2021-08-19T15:14:52Z</time>
      </trkpt>
      <trkpt lat="43.30222" lon="0.00396">
        <ele>285.65</ele>
        <time>2021-08-19T15:14:57Z</time>
      </trkpt>
      <trkpt lat="43.30222" lon="0.00403">
        <ele>285.65</ele>
        <time>2021-08-19T15:14:59Z</time>
      </trkpt>
      <trkpt lat="43.3022" lon="0.00405">
        <ele>285.65</ele>
        <time>2021-08-19T15:15:00Z</time>
      </trkpt>
      <trkpt lat="43.30218" lon="0.00406">
        <ele>285.65</ele>
        <time>2021-08-19T15:15:01Z</time>
      </trkpt>
      <trkpt lat="43.30197" lon="0.00404">
        <ele>286.13</ele>
        <time>2021-08-19T15:15:07Z</time>
      </trkpt>
      <trkpt lat="43.30175" lon="0.00401">
        <ele>286.13</ele>
        <time>2021-08-19T15:15:13Z</time>
      </trkpt>
      <trkpt lat="43.30155" lon="0.00401">
        <ele>286.13</ele>
        <time>2021-08-19T15:15:19Z</time>
      </trkpt>
      <trkpt lat="43.30134" lon="0.004">
        <ele>287.09</ele>
        <time>2021-08-19T15:15:25Z</time>
      </trkpt>
      <trkpt lat="43.30111" lon="0.0039">
        <ele>287.57</ele>
        <time>2021-08-19T15:15:32Z</time>
      </trkpt>
      <trkpt lat="43.30088" lon="0.00374">
        <ele>287.57</ele>
        <time>2021-08-19T15:15:39Z</time>
      </trkpt>
      <trkpt lat="43.30061" lon="0.00354">
        <ele>288.05</ele>
        <time>2021-08-19T15:15:48Z</time>
      </trkpt>
      <trkpt lat="43.30044" lon="0.00343">
        <ele>288.53</ele>
        <time>2021-08-19T15:15:54Z</time>
      </trkpt>
      <trkpt lat="43.30038" lon="0.00342">
        <ele>289.01</ele>
        <time>2021-08-19T15:15:56Z</time>
      </trkpt>
      <trkpt lat="43.30037" lon="0.00343">
        <ele>289.01</ele>
        <time>2021-08-19T15:15:57Z</time>
      </trkpt>
      <trkpt lat="43.30036" lon="0.00345">
        <ele>289.01</ele>
        <time>2021-08-19T15:15:58Z</time>
      </trkpt>
      <trkpt lat="43.30035" lon="0.00348">
        <ele>289.01</ele>
        <time>2021-08-19T15:15:59Z</time>
      </trkpt>
      <trkpt lat="43.30034" lon="0.0035">
        <ele>289.01</ele>
        <time>2021-08-19T15:16:00Z</time>
      </trkpt>
      <trkpt lat="43.30033" lon="0.00354">
        <ele>289.01</ele>
        <time>2021-08-19T15:16:01Z</time>
      </trkpt>
      <trkpt lat="43.30032" lon="0.00357">
        <ele>289.01</ele>
        <time>2021-08-19T15:16:02Z</time>
      </trkpt>
      <trkpt lat="43.30031" lon="0.0036">
        <ele>289.01</ele>
        <time>2021-08-19T15:16:03Z</time>
      </trkpt>
      <trkpt lat="43.30029" lon="0.00379">
        <ele>287.57</ele>
        <time>2021-08-19T15:16:08Z</time>
      </trkpt>
      <trkpt lat="43.30029" lon="0.00382">
        <ele>287.57</ele>
        <time>2021-08-19T15:16:09Z</time>
      </trkpt>
      <trkpt lat="43.3003" lon="0.00385">
        <ele>287.57</ele>
        <time>2021-08-19T15:16:15Z</time>
      </trkpt>
      <trkpt lat="43.30029" lon="0.0039">
        <ele>287.57</ele>
        <time>2021-08-19T15:16:24Z</time>
      </trkpt>
      <trkpt lat="43.30028" lon="0.00393">
        <ele>287.57</ele>
        <time>2021-08-19T15:16:34Z</time>
      </trkpt>
      <trkpt lat="43.30026" lon="0.00396">
        <ele>288.05</ele>
        <time>2021-08-19T15:16:44Z</time>
      </trkpt>
      <trkpt lat="43.30024" lon="0.00397">
        <ele>288.05</ele>
        <time>2021-08-19T15:16:50Z</time>
      </trkpt>
      <trkpt lat="43.30023" lon="0.00398">
        <ele>288.05</ele>
        <time>2021-08-19T15:16:51Z</time>
      </trkpt>
      <trkpt lat="43.30022" lon="0.004">
        <ele>288.05</ele>
        <time>2021-08-19T15:16:52Z</time>
      </trkpt>
      <trkpt lat="43.30021" lon="0.00403">
        <ele>288.05</ele>
        <time>2021-08-19T15:16:53Z</time>
      </trkpt>
      <trkpt lat="43.30021" lon="0.00405">
        <ele>288.05</ele>
        <time>2021-08-19T15:16:54Z</time>
      </trkpt>
      <trkpt lat="43.3002" lon="0.00408">
        <ele>288.05</ele>
        <time>2021-08-19T15:16:55Z</time>
      </trkpt>
      <trkpt lat="43.30011" lon="0.00432">
        <ele>288.05</ele>
        <time>2021-08-19T15:17:01Z</time>
      </trkpt>
      <trkpt lat="43.29997" lon="0.00458">
        <ele>288.05</ele>
        <time>2021-08-19T15:17:07Z</time>
      </trkpt>
      <trkpt lat="43.29992" lon="0.00471">
        <ele>289.49</ele>
        <time>2021-08-19T15:17:10Z</time>
      </trkpt>
      <trkpt lat="43.29984" lon="0.00506">
        <ele>289.97</ele>
        <time>2021-08-19T15:17:18Z</time>
      </trkpt>
      <trkpt lat="43.29977" lon="0.00545">
        <ele>291.42</ele>
        <time>2021-08-19T15:17:28Z</time>
      </trkpt>
      <trkpt lat="43.29974" lon="0.00562">
        <ele>291.9</ele>
        <time>2021-08-19T15:17:35Z</time>
      </trkpt>
      <trkpt lat="43.29969" lon="0.00578">
        <ele>293.34</ele>
        <time>2021-08-19T15:17:43Z</time>
      </trkpt>
      <trkpt lat="43.29963" lon="0.0059">
        <ele>294.78</ele>
        <time>2021-08-19T15:17:51Z</time>
      </trkpt>
      <trkpt lat="43.2996" lon="0.00592">
        <ele>295.26</ele>
        <time>2021-08-19T15:17:53Z</time>
      </trkpt>
      <trkpt lat="43.29956" lon="0.00595">
        <ele>295.74</ele>
        <time>2021-08-19T15:17:58Z</time>
      </trkpt>
      <trkpt lat="43.29954" lon="0.00596">
        <ele>296.22</ele>
        <time>2021-08-19T15:17:59Z</time>
      </trkpt>
      <trkpt lat="43.29953" lon="0.00596">
        <ele>296.22</ele>
        <time>2021-08-19T15:18:00Z</time>
      </trkpt>
      <trkpt lat="43.29951" lon="0.00597">
        <ele>296.22</ele>
        <time>2021-08-19T15:18:01Z</time>
      </trkpt>
      <trkpt lat="43.2995" lon="0.00597">
        <ele>296.7</ele>
        <time>2021-08-19T15:18:02Z</time>
      </trkpt>
      <trkpt lat="43.29948" lon="0.00598">
        <ele>296.7</ele>
        <time>2021-08-19T15:18:03Z</time>
      </trkpt>
      <trkpt lat="43.29942" lon="0.00601">
        <ele>298.63</ele>
        <time>2021-08-19T15:18:09Z</time>
      </trkpt>
      <trkpt lat="43.29937" lon="0.00602">
        <ele>299.11</ele>
        <time>2021-08-19T15:18:13Z</time>
      </trkpt>
      <trkpt lat="43.29927" lon="0.00601">
        <ele>301.03</ele>
        <time>2021-08-19T15:18:21Z</time>
      </trkpt>
      <trkpt lat="43.29924" lon="0.00602">
        <ele>301.51</ele>
        <time>2021-08-19T15:18:27Z</time>
      </trkpt>
      <trkpt lat="43.29917" lon="0.00603">
        <ele>302.47</ele>
        <time>2021-08-19T15:18:34Z</time>
      </trkpt>
      <trkpt lat="43.29912" lon="0.00603">
        <ele>303.91</ele>
        <time>2021-08-19T15:18:42Z</time>
      </trkpt>
      <trkpt lat="43.29905" lon="0.00604">
        <ele>304.88</ele>
        <time>2021-08-19T15:18:50Z</time>
      </trkpt>
      <trkpt lat="43.29896" lon="0.00606">
        <ele>306.32</ele>
        <time>2021-08-19T15:18:59Z</time>
      </trkpt>
      <trkpt lat="43.29889" lon="0.00607">
        <ele>307.28</ele>
        <time>2021-08-19T15:19:08Z</time>
      </trkpt>
      <trkpt lat="43.29881" lon="0.00605">
        <ele>308.72</ele>
        <time>2021-08-19T15:19:15Z</time>
      </trkpt>
      <trkpt lat="43.29873" lon="0.00607">
        <ele>310.16</ele>
        <time>2021-08-19T15:19:23Z</time>
      </trkpt>
      <trkpt lat="43.29865" lon="0.00606">
        <ele>311.12</ele>
        <time>2021-08-19T15:19:33Z</time>
      </trkpt>
      <trkpt lat="43.29859" lon="0.00604">
        <ele>312.09</ele>
        <time>2021-08-19T15:19:40Z</time>
      </trkpt>
      <trkpt lat="43.29845" lon="0.00598">
        <ele>313.05</ele>
        <time>2021-08-19T15:19:48Z</time>
      </trkpt>
      <trkpt lat="43.29842" lon="0.006">
        <ele>313.53</ele>
        <time>2021-08-19T15:19:57Z</time>
      </trkpt>
      <trkpt lat="43.29842" lon="0.00596">
        <ele>313.53</ele>
        <time>2021-08-19T15:20:05Z</time>
      </trkpt>
      <trkpt lat="43.29843" lon="0.00596">
        <ele>313.53</ele>
        <time>2021-08-19T15:20:06Z</time>
      </trkpt>
      <trkpt lat="43.29844" lon="0.00596">
        <ele>313.53</ele>
        <time>2021-08-19T15:20:07Z</time>
      </trkpt>
      <trkpt lat="43.29845" lon="0.00595">
        <ele>312.09</ele>
        <time>2021-08-19T15:20:08Z</time>
      </trkpt>
      <trkpt lat="43.29846" lon="0.00594">
        <ele>312.09</ele>
        <time>2021-08-19T15:20:09Z</time>
      </trkpt>
      <trkpt lat="43.29846" lon="0.00591">
        <ele>311.12</ele>
        <time>2021-08-19T15:20:10Z</time>
      </trkpt>
      <trkpt lat="43.29845" lon="0.00589">
        <ele>311.12</ele>
        <time>2021-08-19T15:20:11Z</time>
      </trkpt>
      <trkpt lat="43.29844" lon="0.00587">
        <ele>310.64</ele>
        <time>2021-08-19T15:20:12Z</time>
      </trkpt>
      <trkpt lat="43.29828" lon="0.00573">
        <ele>309.2</ele>
        <time>2021-08-19T15:20:19Z</time>
      </trkpt>
      <trkpt lat="43.29814" lon="0.00568">
        <ele>306.8</ele>
        <time>2021-08-19T15:20:23Z</time>
      </trkpt>
      <trkpt lat="43.29783" lon="0.00561">
        <ele>303.43</ele>
        <time>2021-08-19T15:20:28Z</time>
      </trkpt>
      <trkpt lat="43.29753" lon="0.00556">
        <ele>300.07</ele>
        <time>2021-08-19T15:20:32Z</time>
      </trkpt>
      <trkpt lat="43.29744" lon="0.00555">
        <ele>300.07</ele>
        <time>2021-08-19T15:20:33Z</time>
      </trkpt>
      <trkpt lat="43.29723" lon="0.00554">
        <ele>299.59</ele>
        <time>2021-08-19T15:20:36Z</time>
      </trkpt>
      <trkpt lat="43.29717" lon="0.00555">
        <ele>299.59</ele>
        <time>2021-08-19T15:20:37Z</time>
      </trkpt>
      <trkpt lat="43.29713" lon="0.00557">
        <ele>301.03</ele>
        <time>2021-08-19T15:20:38Z</time>
      </trkpt>
      <trkpt lat="43.29711" lon="0.00559">
        <ele>301.51</ele>
        <time>2021-08-19T15:20:39Z</time>
      </trkpt>
      <trkpt lat="43.2971" lon="0.00561">
        <ele>301.99</ele>
        <time>2021-08-19T15:20:40Z</time>
      </trkpt>
      <trkpt lat="43.29709" lon="0.00562">
        <ele>301.99</ele>
        <time>2021-08-19T15:20:41Z</time>
      </trkpt>
      <trkpt lat="43.29708" lon="0.00563">
        <ele>301.99</ele>
        <time>2021-08-19T15:20:42Z</time>
      </trkpt>
      <trkpt lat="43.29707" lon="0.00564">
        <ele>302.95</ele>
        <time>2021-08-19T15:20:43Z</time>
      </trkpt>
      <trkpt lat="43.29706" lon="0.00566">
        <ele>302.95</ele>
        <time>2021-08-19T15:20:44Z</time>
      </trkpt>
      <trkpt lat="43.29704" lon="0.00568">
        <ele>303.91</ele>
        <time>2021-08-19T15:20:49Z</time>
      </trkpt>
      <trkpt lat="43.29701" lon="0.00575">
        <ele>305.36</ele>
        <time>2021-08-19T15:20:58Z</time>
      </trkpt>
      <trkpt lat="43.29701" lon="0.0058">
        <ele>306.8</ele>
        <time>2021-08-19T15:21:07Z</time>
      </trkpt>
      <trkpt lat="43.297" lon="0.00586">
        <ele>307.76</ele>
        <time>2021-08-19T15:21:12Z</time>
      </trkpt>
      <trkpt lat="43.29699" lon="0.00593">
        <ele>308.72</ele>
        <time>2021-08-19T15:21:18Z</time>
      </trkpt>
      <trkpt lat="43.29695" lon="0.00599">
        <ele>309.2</ele>
        <time>2021-08-19T15:21:25Z</time>
      </trkpt>
      <trkpt lat="43.29691" lon="0.006">
        <ele>309.68</ele>
        <time>2021-08-19T15:21:31Z</time>
      </trkpt>
      <trkpt lat="43.29681" lon="0.00604">
        <ele>309.68</ele>
        <time>2021-08-19T15:21:37Z</time>
      </trkpt>
      <trkpt lat="43.29666" lon="0.006">
        <ele>311.12</ele>
        <time>2021-08-19T15:21:45Z</time>
      </trkpt>
      <trkpt lat="43.29654" lon="0.00596">
        <ele>311.12</ele>
        <time>2021-08-19T15:21:52Z</time>
      </trkpt>
      <trkpt lat="43.29637" lon="0.00593">
        <ele>311.6</ele>
        <time>2021-08-19T15:21:58Z</time>
      </trkpt>
      <trkpt lat="43.29619" lon="0.00587">
        <ele>310.16</ele>
        <time>2021-08-19T15:22:04Z</time>
      </trkpt>
      <trkpt lat="43.29598" lon="0.00574">
        <ele>309.68</ele>
        <time>2021-08-19T15:22:09Z</time>
      </trkpt>
      <trkpt lat="43.29573" lon="0.00564">
        <ele>309.2</ele>
        <time>2021-08-19T15:22:15Z</time>
      </trkpt>
      <trkpt lat="43.2955" lon="0.00557">
        <ele>308.24</ele>
        <time>2021-08-19T15:22:20Z</time>
      </trkpt>
      <trkpt lat="43.29545" lon="0.00554">
        <ele>308.24</ele>
        <time>2021-08-19T15:22:21Z</time>
      </trkpt>
      <trkpt lat="43.2954" lon="0.00552">
        <ele>310.16</ele>
        <time>2021-08-19T15:22:24Z</time>
      </trkpt>
      <trkpt lat="43.29526" lon="0.00551">
        <ele>312.09</ele>
        <time>2021-08-19T15:22:30Z</time>
      </trkpt>
      <trkpt lat="43.29524" lon="0.00551">
        <ele>312.09</ele>
        <time>2021-08-19T15:22:31Z</time>
      </trkpt>
      <trkpt lat="43.29522" lon="0.00553">
        <ele>312.09</ele>
        <time>2021-08-19T15:22:32Z</time>
      </trkpt>
      <trkpt lat="43.29517" lon="0.00556">
        <ele>313.53</ele>
        <time>2021-08-19T15:22:37Z</time>
      </trkpt>
      <trkpt lat="43.29515" lon="0.00556">
        <ele>313.53</ele>
        <time>2021-08-19T15:22:38Z</time>
      </trkpt>
      <trkpt lat="43.29503" lon="0.00555">
        <ele>314.97</ele>
        <time>2021-08-19T15:22:45Z</time>
      </trkpt>
      <trkpt lat="43.29488" lon="0.00553">
        <ele>315.93</ele>
        <time>2021-08-19T15:22:52Z</time>
      </trkpt>
      <trkpt lat="43.29469" lon="0.00553">
        <ele>313.53</ele>
        <time>2021-08-19T15:23:00Z</time>
      </trkpt>
      <trkpt lat="43.29459" lon="0.00553">
        <ele>313.05</ele>
        <time>2021-08-19T15:23:02Z</time>
      </trkpt>
      <trkpt lat="43.29449" lon="0.00555">
        <ele>313.05</ele>
        <time>2021-08-19T15:23:04Z</time>
      </trkpt>
      <trkpt lat="43.29445" lon="0.00557">
        <ele>314.49</ele>
        <time>2021-08-19T15:23:05Z</time>
      </trkpt>
      <trkpt lat="43.29443" lon="0.00559">
        <ele>314.97</ele>
        <time>2021-08-19T15:23:06Z</time>
      </trkpt>
      <trkpt lat="43.2944" lon="0.00559">
        <ele>314.97</ele>
        <time>2021-08-19T15:23:07Z</time>
      </trkpt>
      <trkpt lat="43.29438" lon="0.0056">
        <ele>315.45</ele>
        <time>2021-08-19T15:23:08Z</time>
      </trkpt>
      <trkpt lat="43.29436" lon="0.0056">
        <ele>315.45</ele>
        <time>2021-08-19T15:23:09Z</time>
      </trkpt>
      <trkpt lat="43.29433" lon="0.00561">
        <ele>315.93</ele>
        <time>2021-08-19T15:23:10Z</time>
      </trkpt>
      <trkpt lat="43.29431" lon="0.00562">
        <ele>315.93</ele>
        <time>2021-08-19T15:23:11Z</time>
      </trkpt>
      <trkpt lat="43.29429" lon="0.00563">
        <ele>315.93</ele>
        <time>2021-08-19T15:23:12Z</time>
      </trkpt>
      <trkpt lat="43.29427" lon="0.00563">
        <ele>316.41</ele>
        <time>2021-08-19T15:23:13Z</time>
      </trkpt>
      <trkpt lat="43.29426" lon="0.00564">
        <ele>316.41</ele>
        <time>2021-08-19T15:23:14Z</time>
      </trkpt>
      <trkpt lat="43.29424" lon="0.00565">
        <ele>316.41</ele>
        <time>2021-08-19T15:23:15Z</time>
      </trkpt>
      <trkpt lat="43.29417" lon="0.00572">
        <ele>317.37</ele>
        <time>2021-08-19T15:23:20Z</time>
      </trkpt>
      <trkpt lat="43.29406" lon="0.00582">
        <ele>319.78</ele>
        <time>2021-08-19T15:23:30Z</time>
      </trkpt>
      <trkpt lat="43.29398" lon="0.00587">
        <ele>320.74</ele>
        <time>2021-08-19T15:23:38Z</time>
      </trkpt>
      <trkpt lat="43.29388" lon="0.00594">
        <ele>322.18</ele>
        <time>2021-08-19T15:23:46Z</time>
      </trkpt>
      <trkpt lat="43.2938" lon="0.00598">
        <ele>323.62</ele>
        <time>2021-08-19T15:23:53Z</time>
      </trkpt>
      <trkpt lat="43.29372" lon="0.00603">
        <ele>324.58</ele>
        <time>2021-08-19T15:23:59Z</time>
      </trkpt>
      <trkpt lat="43.29363" lon="0.0061">
        <ele>326.5</ele>
        <time>2021-08-19T15:24:07Z</time>
      </trkpt>
      <trkpt lat="43.29354" lon="0.00616">
        <ele>327.47</ele>
        <time>2021-08-19T15:24:14Z</time>
      </trkpt>
      <trkpt lat="43.29347" lon="0.00622">
        <ele>328.91</ele>
        <time>2021-08-19T15:24:20Z</time>
      </trkpt>
      <trkpt lat="43.29336" lon="0.00635">
        <ele>329.87</ele>
        <time>2021-08-19T15:24:28Z</time>
      </trkpt>
      <trkpt lat="43.2933" lon="0.00645">
        <ele>331.31</ele>
        <time>2021-08-19T15:24:35Z</time>
      </trkpt>
      <trkpt lat="43.29326" lon="0.00654">
        <ele>332.27</ele>
        <time>2021-08-19T15:24:41Z</time>
      </trkpt>
      <trkpt lat="43.29324" lon="0.00658">
        <ele>332.75</ele>
        <time>2021-08-19T15:24:43Z</time>
      </trkpt>
      <trkpt lat="43.29321" lon="0.00663">
        <ele>333.23</ele>
        <time>2021-08-19T15:24:46Z</time>
      </trkpt>
      <trkpt lat="43.29319" lon="0.00668">
        <ele>333.71</ele>
        <time>2021-08-19T15:24:48Z</time>
      </trkpt>
      <trkpt lat="43.29317" lon="0.00672">
        <ele>333.71</ele>
        <time>2021-08-19T15:24:50Z</time>
      </trkpt>
      <trkpt lat="43.29314" lon="0.00682">
        <ele>335.16</ele>
        <time>2021-08-19T15:24:56Z</time>
      </trkpt>
      <trkpt lat="43.2931" lon="0.00694">
        <ele>337.56</ele>
        <time>2021-08-19T15:25:03Z</time>
      </trkpt>
      <trkpt lat="43.29308" lon="0.00703">
        <ele>338.04</ele>
        <time>2021-08-19T15:25:10Z</time>
      </trkpt>
      <trkpt lat="43.29306" lon="0.00715">
        <ele>341.41</ele>
        <time>2021-08-19T15:25:18Z</time>
      </trkpt>
      <trkpt lat="43.29304" lon="0.00733">
        <ele>339.96</ele>
        <time>2021-08-19T15:25:28Z</time>
      </trkpt>
      <trkpt lat="43.29304" lon="0.00735">
        <ele>341.41</ele>
        <time>2021-08-19T15:25:30Z</time>
      </trkpt>
      <trkpt lat="43.29304" lon="0.00748">
        <ele>342.85</ele>
        <time>2021-08-19T15:25:40Z</time>
      </trkpt>
      <trkpt lat="43.29304" lon="0.00756">
        <ele>343.33</ele>
        <time>2021-08-19T15:25:47Z</time>
      </trkpt>
      <trkpt lat="43.29302" lon="0.00767">
        <ele>344.77</ele>
        <time>2021-08-19T15:25:55Z</time>
      </trkpt>
      <trkpt lat="43.29301" lon="0.00777">
        <ele>345.73</ele>
        <time>2021-08-19T15:26:03Z</time>
      </trkpt>
      <trkpt lat="43.29298" lon="0.00789">
        <ele>347.65</ele>
        <time>2021-08-19T15:26:12Z</time>
      </trkpt>
      <trkpt lat="43.29298" lon="0.00799">
        <ele>351.02</ele>
        <time>2021-08-19T15:26:21Z</time>
      </trkpt>
      <trkpt lat="43.29295" lon="0.00812">
        <ele>349.1</ele>
        <time>2021-08-19T15:26:32Z</time>
      </trkpt>
      <trkpt lat="43.29295" lon="0.00817">
        <ele>350.54</ele>
        <time>2021-08-19T15:26:35Z</time>
      </trkpt>
      <trkpt lat="43.29295" lon="0.00829">
        <ele>351.5</ele>
        <time>2021-08-19T15:26:42Z</time>
      </trkpt>
      <trkpt lat="43.29295" lon="0.00841">
        <ele>352.46</ele>
        <time>2021-08-19T15:26:51Z</time>
      </trkpt>
      <trkpt lat="43.29296" lon="0.00855">
        <ele>354.38</ele>
        <time>2021-08-19T15:27:01Z</time>
      </trkpt>
      <trkpt lat="43.29296" lon="0.00864">
        <ele>354.86</ele>
        <time>2021-08-19T15:27:08Z</time>
      </trkpt>
      <trkpt lat="43.29296" lon="0.00875">
        <ele>356.31</ele>
        <time>2021-08-19T15:27:17Z</time>
      </trkpt>
      <trkpt lat="43.29295" lon="0.00882">
        <ele>357.27</ele>
        <time>2021-08-19T15:27:25Z</time>
      </trkpt>
      <trkpt lat="43.29291" lon="0.00892">
        <ele>358.71</ele>
        <time>2021-08-19T15:27:34Z</time>
      </trkpt>
      <trkpt lat="43.2929" lon="0.00901">
        <ele>359.19</ele>
        <time>2021-08-19T15:27:41Z</time>
      </trkpt>
      <trkpt lat="43.29287" lon="0.00911">
        <ele>359.67</ele>
        <time>2021-08-19T15:27:48Z</time>
      </trkpt>
      <trkpt lat="43.29283" lon="0.00921">
        <ele>359.67</ele>
        <time>2021-08-19T15:27:56Z</time>
      </trkpt>
      <trkpt lat="43.29278" lon="0.00941">
        <ele>360.63</ele>
        <time>2021-08-19T15:28:03Z</time>
      </trkpt>
      <trkpt lat="43.29275" lon="0.00957">
        <ele>361.59</ele>
        <time>2021-08-19T15:28:08Z</time>
      </trkpt>
      <trkpt lat="43.29275" lon="0.00961">
        <ele>361.59</ele>
        <time>2021-08-19T15:28:09Z</time>
      </trkpt>
      <trkpt lat="43.2927" lon="0.00991">
        <ele>362.07</ele>
        <time>2021-08-19T15:28:17Z</time>
      </trkpt>
      <trkpt lat="43.29262" lon="0.01011">
        <ele>362.07</ele>
        <time>2021-08-19T15:28:23Z</time>
      </trkpt>
      <trkpt lat="43.29256" lon="0.01017">
        <ele>362.07</ele>
        <time>2021-08-19T15:28:25Z</time>
      </trkpt>
      <trkpt lat="43.29254" lon="0.01018">
        <ele>362.07</ele>
        <time>2021-08-19T15:28:26Z</time>
      </trkpt>
      <trkpt lat="43.29251" lon="0.01019">
        <ele>362.07</ele>
        <time>2021-08-19T15:28:27Z</time>
      </trkpt>
      <trkpt lat="43.29229" lon="0.01023">
        <ele>363.52</ele>
        <time>2021-08-19T15:28:36Z</time>
      </trkpt>
      <trkpt lat="43.29213" lon="0.01023">
        <ele>364.48</ele>
        <time>2021-08-19T15:28:44Z</time>
      </trkpt>
      <trkpt lat="43.29199" lon="0.0102">
        <ele>365.92</ele>
        <time>2021-08-19T15:28:51Z</time>
      </trkpt>
      <trkpt lat="43.29184" lon="0.01018">
        <ele>366.88</ele>
        <time>2021-08-19T15:28:58Z</time>
      </trkpt>
      <trkpt lat="43.29164" lon="0.01013">
        <ele>367.84</ele>
        <time>2021-08-19T15:29:06Z</time>
      </trkpt>
      <trkpt lat="43.29144" lon="0.01001">
        <ele>367.84</ele>
        <time>2021-08-19T15:29:13Z</time>
      </trkpt>
      <trkpt lat="43.29134" lon="0.00994">
        <ele>367.84</ele>
        <time>2021-08-19T15:29:16Z</time>
      </trkpt>
      <trkpt lat="43.2913" lon="0.00992">
        <ele>367.84</ele>
        <time>2021-08-19T15:29:17Z</time>
      </trkpt>
      <trkpt lat="43.2911" lon="0.00973">
        <ele>367.84</ele>
        <time>2021-08-19T15:29:24Z</time>
      </trkpt>
      <trkpt lat="43.2909" lon="0.00958">
        <ele>370.24</ele>
        <time>2021-08-19T15:29:34Z</time>
      </trkpt>
      <trkpt lat="43.29077" lon="0.00946">
        <ele>371.21</ele>
        <time>2021-08-19T15:29:43Z</time>
      </trkpt>
      <trkpt lat="43.29064" lon="0.00933">
        <ele>372.65</ele>
        <time>2021-08-19T15:29:50Z</time>
      </trkpt>
      <trkpt lat="43.29046" lon="0.00918">
        <ele>373.61</ele>
        <time>2021-08-19T15:29:58Z</time>
      </trkpt>
      <trkpt lat="43.29028" lon="0.00903">
        <ele>374.57</ele>
        <time>2021-08-19T15:30:06Z</time>
      </trkpt>
      <trkpt lat="43.29009" lon="0.00886">
        <ele>376.01</ele>
        <time>2021-08-19T15:30:15Z</time>
      </trkpt>
      <trkpt lat="43.28994" lon="0.00874">
        <ele>376.97</ele>
        <time>2021-08-19T15:30:23Z</time>
      </trkpt>
      <trkpt lat="43.2898" lon="0.00861">
        <ele>376.97</ele>
        <time>2021-08-19T15:30:29Z</time>
      </trkpt>
      <trkpt lat="43.28973" lon="0.00852">
        <ele>375.53</ele>
        <time>2021-08-19T15:30:32Z</time>
      </trkpt>
      <trkpt lat="43.28961" lon="0.00843">
        <ele>375.05</ele>
        <time>2021-08-19T15:30:35Z</time>
      </trkpt>
      <trkpt lat="43.28953" lon="0.00837">
        <ele>374.57</ele>
        <time>2021-08-19T15:30:37Z</time>
      </trkpt>
      <trkpt lat="43.28903" lon="0.00808">
        <ele>372.17</ele>
        <time>2021-08-19T15:30:44Z</time>
      </trkpt>
      <trkpt lat="43.28855" lon="0.00788">
        <ele>371.21</ele>
        <time>2021-08-19T15:30:51Z</time>
      </trkpt>
      <trkpt lat="43.28849" lon="0.00787">
        <ele>371.21</ele>
        <time>2021-08-19T15:30:52Z</time>
      </trkpt>
      <trkpt lat="43.28842" lon="0.00785">
        <ele>370.73</ele>
        <time>2021-08-19T15:30:53Z</time>
      </trkpt>
      <trkpt lat="43.28835" lon="0.00784">
        <ele>370.73</ele>
        <time>2021-08-19T15:30:54Z</time>
      </trkpt>
      <trkpt lat="43.28829" lon="0.00781">
        <ele>370.24</ele>
        <time>2021-08-19T15:30:55Z</time>
      </trkpt>
      <trkpt lat="43.28823" lon="0.00779">
        <ele>370.24</ele>
        <time>2021-08-19T15:30:56Z</time>
      </trkpt>
      <trkpt lat="43.28776" lon="0.00761">
        <ele>370.24</ele>
        <time>2021-08-19T15:31:05Z</time>
      </trkpt>
      <trkpt lat="43.28761" lon="0.00755">
        <ele>371.69</ele>
        <time>2021-08-19T15:31:09Z</time>
      </trkpt>
      <trkpt lat="43.28735" lon="0.00747">
        <ele>372.17</ele>
        <time>2021-08-19T15:31:16Z</time>
      </trkpt>
      <trkpt lat="43.28704" lon="0.00737">
        <ele>373.61</ele>
        <time>2021-08-19T15:31:24Z</time>
      </trkpt>
      <trkpt lat="43.28678" lon="0.00728">
        <ele>374.09</ele>
        <time>2021-08-19T15:31:31Z</time>
      </trkpt>
      <trkpt lat="43.28653" lon="0.00718">
        <ele>375.05</ele>
        <time>2021-08-19T15:31:38Z</time>
      </trkpt>
      <trkpt lat="43.28626" lon="0.00709">
        <ele>375.53</ele>
        <time>2021-08-19T15:31:45Z</time>
      </trkpt>
      <trkpt lat="43.28595" lon="0.00697">
        <ele>375.53</ele>
        <time>2021-08-19T15:31:53Z</time>
      </trkpt>
      <trkpt lat="43.28573" lon="0.00692">
        <ele>375.53</ele>
        <time>2021-08-19T15:32:00Z</time>
      </trkpt>
      <trkpt lat="43.28569" lon="0.00692">
        <ele>375.53</ele>
        <time>2021-08-19T15:32:06Z</time>
      </trkpt>
      <trkpt lat="43.28563" lon="0.00693">
        <ele>375.53</ele>
        <time>2021-08-19T15:32:26Z</time>
      </trkpt>
      <trkpt lat="43.28561" lon="0.00693">
        <ele>375.53</ele>
        <time>2021-08-19T15:32:27Z</time>
      </trkpt>
      <trkpt lat="43.28559" lon="0.00692">
        <ele>375.53</ele>
        <time>2021-08-19T15:32:28Z</time>
      </trkpt>
      <trkpt lat="43.28542" lon="0.00689">
        <ele>375.53</ele>
        <time>2021-08-19T15:32:33Z</time>
      </trkpt>
      <trkpt lat="43.28537" lon="0.00688">
        <ele>375.53</ele>
        <time>2021-08-19T15:32:34Z</time>
      </trkpt>
      <trkpt lat="43.28532" lon="0.00688">
        <ele>375.53</ele>
        <time>2021-08-19T15:32:35Z</time>
      </trkpt>
      <trkpt lat="43.28528" lon="0.00689">
        <ele>375.53</ele>
        <time>2021-08-19T15:32:36Z</time>
      </trkpt>
      <trkpt lat="43.28524" lon="0.0069">
        <ele>374.09</ele>
        <time>2021-08-19T15:32:37Z</time>
      </trkpt>
      <trkpt lat="43.2852" lon="0.00692">
        <ele>374.09</ele>
        <time>2021-08-19T15:32:38Z</time>
      </trkpt>
      <trkpt lat="43.28516" lon="0.00695">
        <ele>374.09</ele>
        <time>2021-08-19T15:32:39Z</time>
      </trkpt>
      <trkpt lat="43.28485" lon="0.00717">
        <ele>373.61</ele>
        <time>2021-08-19T15:32:47Z</time>
      </trkpt>
      <trkpt lat="43.28457" lon="0.00717">
        <ele>375.05</ele>
        <time>2021-08-19T15:32:54Z</time>
      </trkpt>
      <trkpt lat="43.28432" lon="0.00707">
        <ele>376.97</ele>
        <time>2021-08-19T15:33:01Z</time>
      </trkpt>
      <trkpt lat="43.28408" lon="0.00688">
        <ele>377.94</ele>
        <time>2021-08-19T15:33:10Z</time>
      </trkpt>
      <trkpt lat="43.28392" lon="0.00673">
        <ele>378.9</ele>
        <time>2021-08-19T15:33:16Z</time>
      </trkpt>
      <trkpt lat="43.28362" lon="0.00648">
        <ele>379.86</ele>
        <time>2021-08-19T15:33:27Z</time>
      </trkpt>
      <trkpt lat="43.2834" lon="0.00625">
        <ele>380.34</ele>
        <time>2021-08-19T15:33:35Z</time>
      </trkpt>
      <trkpt lat="43.28317" lon="0.00605">
        <ele>380.82</ele>
        <time>2021-08-19T15:33:42Z</time>
      </trkpt>
      <trkpt lat="43.28292" lon="0.00584">
        <ele>380.82</ele>
        <time>2021-08-19T15:33:49Z</time>
      </trkpt>
      <trkpt lat="43.28288" lon="0.00581">
        <ele>380.82</ele>
        <time>2021-08-19T15:33:50Z</time>
      </trkpt>
      <trkpt lat="43.28285" lon="0.00579">
        <ele>380.82</ele>
        <time>2021-08-19T15:33:51Z</time>
      </trkpt>
      <trkpt lat="43.28282" lon="0.00577">
        <ele>380.82</ele>
        <time>2021-08-19T15:33:52Z</time>
      </trkpt>
      <trkpt lat="43.28278" lon="0.00576">
        <ele>380.82</ele>
        <time>2021-08-19T15:33:53Z</time>
      </trkpt>
      <trkpt lat="43.28275" lon="0.00574">
        <ele>380.82</ele>
        <time>2021-08-19T15:33:54Z</time>
      </trkpt>
      <trkpt lat="43.2827" lon="0.00572">
        <ele>380.82</ele>
        <time>2021-08-19T15:33:55Z</time>
      </trkpt>
      <trkpt lat="43.28267" lon="0.00571">
        <ele>380.82</ele>
        <time>2021-08-19T15:33:56Z</time>
      </trkpt>
      <trkpt lat="43.28245" lon="0.00565">
        <ele>380.82</ele>
        <time>2021-08-19T15:34:02Z</time>
      </trkpt>
      <trkpt lat="43.28218" lon="0.00554">
        <ele>377.94</ele>
        <time>2021-08-19T15:34:08Z</time>
      </trkpt>
      <trkpt lat="43.28208" lon="0.00547">
        <ele>376.97</ele>
        <time>2021-08-19T15:34:10Z</time>
      </trkpt>
      <trkpt lat="43.28178" lon="0.00516">
        <ele>376.97</ele>
        <time>2021-08-19T15:34:16Z</time>
      </trkpt>
      <trkpt lat="43.28169" lon="0.00506">
        <ele>376.97</ele>
        <time>2021-08-19T15:34:18Z</time>
      </trkpt>
      <trkpt lat="43.28166" lon="0.00501">
        <ele>376.97</ele>
        <time>2021-08-19T15:34:19Z</time>
      </trkpt>
      <trkpt lat="43.28163" lon="0.00497">
        <ele>376.97</ele>
        <time>2021-08-19T15:34:20Z</time>
      </trkpt>
      <trkpt lat="43.28162" lon="0.00492">
        <ele>376.97</ele>
        <time>2021-08-19T15:34:21Z</time>
      </trkpt>
      <trkpt lat="43.28163" lon="0.00487">
        <ele>376.97</ele>
        <time>2021-08-19T15:34:22Z</time>
      </trkpt>
      <trkpt lat="43.28164" lon="0.00483">
        <ele>376.97</ele>
        <time>2021-08-19T15:34:23Z</time>
      </trkpt>
      <trkpt lat="43.28165" lon="0.00481">
        <ele>376.97</ele>
        <time>2021-08-19T15:34:24Z</time>
      </trkpt>
      <trkpt lat="43.28166" lon="0.00477">
        <ele>376.97</ele>
        <time>2021-08-19T15:34:25Z</time>
      </trkpt>
      <trkpt lat="43.28167" lon="0.00474">
        <ele>376.97</ele>
        <time>2021-08-19T15:34:26Z</time>
      </trkpt>
      <trkpt lat="43.28167" lon="0.0047">
        <ele>376.97</ele>
        <time>2021-08-19T15:34:27Z</time>
      </trkpt>
      <trkpt lat="43.28169" lon="0.00466">
        <ele>376.97</ele>
        <time>2021-08-19T15:34:28Z</time>
      </trkpt>
      <trkpt lat="43.28171" lon="0.00462">
        <ele>376.97</ele>
        <time>2021-08-19T15:34:29Z</time>
      </trkpt>
      <trkpt lat="43.28177" lon="0.00436">
        <ele>376.49</ele>
        <time>2021-08-19T15:34:34Z</time>
      </trkpt>
      <trkpt lat="43.28174" lon="0.00431">
        <ele>375.53</ele>
        <time>2021-08-19T15:34:35Z</time>
      </trkpt>
      <trkpt lat="43.28171" lon="0.0043">
        <ele>375.05</ele>
        <time>2021-08-19T15:34:36Z</time>
      </trkpt>
      <trkpt lat="43.28168" lon="0.00429">
        <ele>375.05</ele>
        <time>2021-08-19T15:34:37Z</time>
      </trkpt>
      <trkpt lat="43.28165" lon="0.0043">
        <ele>375.05</ele>
        <time>2021-08-19T15:34:38Z</time>
      </trkpt>
      <trkpt lat="43.28162" lon="0.00431">
        <ele>375.05</ele>
        <time>2021-08-19T15:34:39Z</time>
      </trkpt>
      <trkpt lat="43.28159" lon="0.00432">
        <ele>375.05</ele>
        <time>2021-08-19T15:34:40Z</time>
      </trkpt>
      <trkpt lat="43.28157" lon="0.00434">
        <ele>375.05</ele>
        <time>2021-08-19T15:34:41Z</time>
      </trkpt>
      <trkpt lat="43.28153" lon="0.00436">
        <ele>376.49</ele>
        <time>2021-08-19T15:34:43Z</time>
      </trkpt>
      <trkpt lat="43.28131" lon="0.0045">
        <ele>378.42</ele>
        <time>2021-08-19T15:34:51Z</time>
      </trkpt>
      <trkpt lat="43.28101" lon="0.00464">
        <ele>379.38</ele>
        <time>2021-08-19T15:35:01Z</time>
      </trkpt>
      <trkpt lat="43.28065" lon="0.00476">
        <ele>380.82</ele>
        <time>2021-08-19T15:35:12Z</time>
      </trkpt>
      <trkpt lat="43.2804" lon="0.00488">
        <ele>381.78</ele>
        <time>2021-08-19T15:35:20Z</time>
      </trkpt>
      <trkpt lat="43.28017" lon="0.00507">
        <ele>382.26</ele>
        <time>2021-08-19T15:35:28Z</time>
      </trkpt>
      <trkpt lat="43.27999" lon="0.00528">
        <ele>382.74</ele>
        <time>2021-08-19T15:35:35Z</time>
      </trkpt>
      <trkpt lat="43.27984" lon="0.00542">
        <ele>384.18</ele>
        <time>2021-08-19T15:35:41Z</time>
      </trkpt>
      <trkpt lat="43.27969" lon="0.0054">
        <ele>384.66</ele>
        <time>2021-08-19T15:35:46Z</time>
      </trkpt>
      <trkpt lat="43.2794" lon="0.00528">
        <ele>384.66</ele>
        <time>2021-08-19T15:35:53Z</time>
      </trkpt>
      <trkpt lat="43.27911" lon="0.00516">
        <ele>384.66</ele>
        <time>2021-08-19T15:35:59Z</time>
      </trkpt>
      <trkpt lat="43.27897" lon="0.0051">
        <ele>384.66</ele>
        <time>2021-08-19T15:36:02Z</time>
      </trkpt>
      <trkpt lat="43.2788" lon="0.00502">
        <ele>384.66</ele>
        <time>2021-08-19T15:36:06Z</time>
      </trkpt>
      <trkpt lat="43.27876" lon="0.005">
        <ele>384.66</ele>
        <time>2021-08-19T15:36:07Z</time>
      </trkpt>
      <trkpt lat="43.27857" lon="0.00493">
        <ele>384.66</ele>
        <time>2021-08-19T15:36:12Z</time>
      </trkpt>
      <trkpt lat="43.27818" lon="0.00478">
        <ele>384.66</ele>
        <time>2021-08-19T15:36:20Z</time>
      </trkpt>
      <trkpt lat="43.27778" lon="0.00461">
        <ele>384.66</ele>
        <time>2021-08-19T15:36:29Z</time>
      </trkpt>
      <trkpt lat="43.27754" lon="0.00452">
        <ele>384.66</ele>
        <time>2021-08-19T15:36:34Z</time>
      </trkpt>
      <trkpt lat="43.27745" lon="0.00451">
        <ele>384.66</ele>
        <time>2021-08-19T15:36:36Z</time>
      </trkpt>
      <trkpt lat="43.27741" lon="0.00448">
        <ele>384.66</ele>
        <time>2021-08-19T15:36:37Z</time>
      </trkpt>
      <trkpt lat="43.27737" lon="0.00446">
        <ele>384.66</ele>
        <time>2021-08-19T15:36:38Z</time>
      </trkpt>
      <trkpt lat="43.27732" lon="0.00443">
        <ele>384.66</ele>
        <time>2021-08-19T15:36:39Z</time>
      </trkpt>
      <trkpt lat="43.27728" lon="0.0044">
        <ele>384.66</ele>
        <time>2021-08-19T15:36:40Z</time>
      </trkpt>
      <trkpt lat="43.27723" lon="0.00438">
        <ele>384.66</ele>
        <time>2021-08-19T15:36:41Z</time>
      </trkpt>
      <trkpt lat="43.27694" lon="0.00427">
        <ele>384.66</ele>
        <time>2021-08-19T15:36:48Z</time>
      </trkpt>
      <trkpt lat="43.27671" lon="0.0042">
        <ele>384.66</ele>
        <time>2021-08-19T15:36:54Z</time>
      </trkpt>
      <trkpt lat="43.27644" lon="0.00408">
        <ele>384.66</ele>
        <time>2021-08-19T15:37:00Z</time>
      </trkpt>
      <trkpt lat="43.27639" lon="0.00406">
        <ele>384.66</ele>
        <time>2021-08-19T15:37:01Z</time>
      </trkpt>
      <trkpt lat="43.27606" lon="0.00393">
        <ele>384.66</ele>
        <time>2021-08-19T15:37:08Z</time>
      </trkpt>
      <trkpt lat="43.27566" lon="0.00376">
        <ele>384.66</ele>
        <time>2021-08-19T15:37:16Z</time>
      </trkpt>
      <trkpt lat="43.27558" lon="0.00371">
        <ele>384.66</ele>
        <time>2021-08-19T15:37:18Z</time>
      </trkpt>
      <trkpt lat="43.27521" lon="0.00356">
        <ele>384.66</ele>
        <time>2021-08-19T15:37:26Z</time>
      </trkpt>
      <trkpt lat="43.27479" lon="0.00339">
        <ele>384.66</ele>
        <time>2021-08-19T15:37:35Z</time>
      </trkpt>
      <trkpt lat="43.27431" lon="0.00318">
        <ele>384.66</ele>
        <time>2021-08-19T15:37:45Z</time>
      </trkpt>
      <trkpt lat="43.27378" lon="0.00295">
        <ele>384.66</ele>
        <time>2021-08-19T15:37:56Z</time>
      </trkpt>
      <trkpt lat="43.2734" lon="0.0028">
        <ele>384.66</ele>
        <time>2021-08-19T15:38:04Z</time>
      </trkpt>
      <trkpt lat="43.27303" lon="0.00263">
        <ele>385.15</ele>
        <time>2021-08-19T15:38:12Z</time>
      </trkpt>
      <trkpt lat="43.27264" lon="0.00248">
        <ele>385.15</ele>
        <time>2021-08-19T15:38:20Z</time>
      </trkpt>
      <trkpt lat="43.2726" lon="0.00246">
        <ele>385.15</ele>
        <time>2021-08-19T15:38:21Z</time>
      </trkpt>
      <trkpt lat="43.27255" lon="0.00244">
        <ele>385.15</ele>
        <time>2021-08-19T15:38:22Z</time>
      </trkpt>
      <trkpt lat="43.2725" lon="0.00242">
        <ele>385.15</ele>
        <time>2021-08-19T15:38:23Z</time>
      </trkpt>
      <trkpt lat="43.27245" lon="0.0024">
        <ele>385.15</ele>
        <time>2021-08-19T15:38:24Z</time>
      </trkpt>
      <trkpt lat="43.2724" lon="0.00238">
        <ele>385.15</ele>
        <time>2021-08-19T15:38:25Z</time>
      </trkpt>
      <trkpt lat="43.27196" lon="0.00219">
        <ele>385.15</ele>
        <time>2021-08-19T15:38:34Z</time>
      </trkpt>
      <trkpt lat="43.2717" lon="0.00208">
        <ele>385.15</ele>
        <time>2021-08-19T15:38:40Z</time>
      </trkpt>
      <trkpt lat="43.27165" lon="0.00206">
        <ele>385.15</ele>
        <time>2021-08-19T15:38:41Z</time>
      </trkpt>
      <trkpt lat="43.27123" lon="0.00188">
        <ele>385.15</ele>
        <time>2021-08-19T15:38:50Z</time>
      </trkpt>
      <trkpt lat="43.27096" lon="0.00175">
        <ele>385.63</ele>
        <time>2021-08-19T15:38:56Z</time>
      </trkpt>
      <trkpt lat="43.27084" lon="0.00169">
        <ele>385.63</ele>
        <time>2021-08-19T15:38:59Z</time>
      </trkpt>
      <trkpt lat="43.27081" lon="0.00165">
        <ele>385.63</ele>
        <time>2021-08-19T15:39:00Z</time>
      </trkpt>
      <trkpt lat="43.27079" lon="0.00161">
        <ele>385.63</ele>
        <time>2021-08-19T15:39:01Z</time>
      </trkpt>
      <trkpt lat="43.2708" lon="0.00156">
        <ele>385.63</ele>
        <time>2021-08-19T15:39:02Z</time>
      </trkpt>
      <trkpt lat="43.27081" lon="0.00152">
        <ele>385.63</ele>
        <time>2021-08-19T15:39:03Z</time>
      </trkpt>
      <trkpt lat="43.27082" lon="0.00148">
        <ele>385.63</ele>
        <time>2021-08-19T15:39:04Z</time>
      </trkpt>
      <trkpt lat="43.27084" lon="0.00143">
        <ele>385.63</ele>
        <time>2021-08-19T15:39:05Z</time>
      </trkpt>
      <trkpt lat="43.27089" lon="0.00128">
        <ele>384.18</ele>
        <time>2021-08-19T15:39:08Z</time>
      </trkpt>
      <trkpt lat="43.27103" lon="0.00098">
        <ele>381.3</ele>
        <time>2021-08-19T15:39:15Z</time>
      </trkpt>
      <trkpt lat="43.27104" lon="0.00086">
        <ele>380.34</ele>
        <time>2021-08-19T15:39:17Z</time>
      </trkpt>
      <trkpt lat="43.27103" lon="0.0008">
        <ele>379.86</ele>
        <time>2021-08-19T15:39:18Z</time>
      </trkpt>
      <trkpt lat="43.271" lon="0.00073">
        <ele>379.86</ele>
        <time>2021-08-19T15:39:19Z</time>
      </trkpt>
      <trkpt lat="43.27088" lon="0.00049">
        <ele>378.9</ele>
        <time>2021-08-19T15:39:23Z</time>
      </trkpt>
      <trkpt lat="43.27084" lon="0.00043">
        <ele>378.9</ele>
        <time>2021-08-19T15:39:24Z</time>
      </trkpt>
      <trkpt lat="43.2707" lon="0.0002">
        <ele>378.42</ele>
        <time>2021-08-19T15:39:28Z</time>
      </trkpt>
      <trkpt lat="43.27067" lon="0.00015">
        <ele>378.42</ele>
        <time>2021-08-19T15:39:29Z</time>
      </trkpt>
      <trkpt lat="43.27063" lon="0.0001">
        <ele>378.42</ele>
        <time>2021-08-19T15:39:30Z</time>
      </trkpt>
      <trkpt lat="43.27056" lon="0">
        <ele>378.42</ele>
        <time>2021-08-19T15:39:32Z</time>
      </trkpt>
      <trkpt lat="43.27023" lon="-0.00032">
        <ele>378.42</ele>
        <time>2021-08-19T15:39:40Z</time>
      </trkpt>
      <trkpt lat="43.27018" lon="-0.00035">
        <ele>378.42</ele>
        <time>2021-08-19T15:39:41Z</time>
      </trkpt>
      <trkpt lat="43.26996" lon="-0.00048">
        <ele>378.42</ele>
        <time>2021-08-19T15:39:45Z</time>
      </trkpt>
      <trkpt lat="43.2699" lon="-0.00052">
        <ele>378.42</ele>
        <time>2021-08-19T15:39:46Z</time>
      </trkpt>
      <trkpt lat="43.26965" lon="-0.00066">
        <ele>377.94</ele>
        <time>2021-08-19T15:39:50Z</time>
      </trkpt>
      <trkpt lat="43.26952" lon="-0.00072">
        <ele>377.45</ele>
        <time>2021-08-19T15:39:52Z</time>
      </trkpt>
      <trkpt lat="43.26904" lon="-0.00094">
        <ele>375.53</ele>
        <time>2021-08-19T15:39:59Z</time>
      </trkpt>
      <trkpt lat="43.26865" lon="-0.00114">
        <ele>373.61</ele>
        <time>2021-08-19T15:40:05Z</time>
      </trkpt>
      <trkpt lat="43.26838" lon="-0.00132">
        <ele>371.21</ele>
        <time>2021-08-19T15:40:09Z</time>
      </trkpt>
      <trkpt lat="43.26832" lon="-0.00139">
        <ele>370.24</ele>
        <time>2021-08-19T15:40:10Z</time>
      </trkpt>
      <trkpt lat="43.26811" lon="-0.00159">
        <ele>367.36</ele>
        <time>2021-08-19T15:40:13Z</time>
      </trkpt>
      <trkpt lat="43.26802" lon="-0.00165">
        <ele>367.36</ele>
        <time>2021-08-19T15:40:14Z</time>
      </trkpt>
      <trkpt lat="43.26758" lon="-0.00198">
        <ele>366.4</ele>
        <time>2021-08-19T15:40:20Z</time>
      </trkpt>
      <trkpt lat="43.26716" lon="-0.00239">
        <ele>365.92</ele>
        <time>2021-08-19T15:40:27Z</time>
      </trkpt>
      <trkpt lat="43.26692" lon="-0.00268">
        <ele>367.36</ele>
        <time>2021-08-19T15:40:33Z</time>
      </trkpt>
      <trkpt lat="43.26673" lon="-0.00289">
        <ele>368.32</ele>
        <time>2021-08-19T15:40:40Z</time>
      </trkpt>
      <trkpt lat="43.2666" lon="-0.00306">
        <ele>369.76</ele>
        <time>2021-08-19T15:40:47Z</time>
      </trkpt>
      <trkpt lat="43.2665" lon="-0.00318">
        <ele>370.73</ele>
        <time>2021-08-19T15:40:53Z</time>
      </trkpt>
      <trkpt lat="43.26649" lon="-0.0032">
        <ele>371.69</ele>
        <time>2021-08-19T15:40:54Z</time>
      </trkpt>
      <trkpt lat="43.26647" lon="-0.00323">
        <ele>371.69</ele>
        <time>2021-08-19T15:40:55Z</time>
      </trkpt>
      <trkpt lat="43.26645" lon="-0.00326">
        <ele>371.69</ele>
        <time>2021-08-19T15:40:56Z</time>
      </trkpt>
      <trkpt lat="43.26643" lon="-0.00328">
        <ele>372.17</ele>
        <time>2021-08-19T15:40:57Z</time>
      </trkpt>
      <trkpt lat="43.26642" lon="-0.00331">
        <ele>372.17</ele>
        <time>2021-08-19T15:40:58Z</time>
      </trkpt>
      <trkpt lat="43.2664" lon="-0.00333">
        <ele>372.17</ele>
        <time>2021-08-19T15:40:59Z</time>
      </trkpt>
      <trkpt lat="43.26626" lon="-0.00358">
        <ele>372.17</ele>
        <time>2021-08-19T15:41:06Z</time>
      </trkpt>
      <trkpt lat="43.26623" lon="-0.00362">
        <ele>372.17</ele>
        <time>2021-08-19T15:41:07Z</time>
      </trkpt>
      <trkpt lat="43.2662" lon="-0.00367">
        <ele>372.17</ele>
        <time>2021-08-19T15:41:08Z</time>
      </trkpt>
      <trkpt lat="43.26614" lon="-0.00375">
        <ele>372.17</ele>
        <time>2021-08-19T15:41:10Z</time>
      </trkpt>
      <trkpt lat="43.26601" lon="-0.00407">
        <ele>372.17</ele>
        <time>2021-08-19T15:41:17Z</time>
      </trkpt>
      <trkpt lat="43.26588" lon="-0.00439">
        <ele>373.13</ele>
        <time>2021-08-19T15:41:24Z</time>
      </trkpt>
      <trkpt lat="43.2657" lon="-0.00475">
        <ele>374.09</ele>
        <time>2021-08-19T15:41:32Z</time>
      </trkpt>
      <trkpt lat="43.26555" lon="-0.005">
        <ele>375.05</ele>
        <time>2021-08-19T15:41:38Z</time>
      </trkpt>
      <trkpt lat="43.26535" lon="-0.0053">
        <ele>376.01</ele>
        <time>2021-08-19T15:41:46Z</time>
      </trkpt>
      <trkpt lat="43.26522" lon="-0.00549">
        <ele>376.97</ele>
        <time>2021-08-19T15:41:52Z</time>
      </trkpt>
      <trkpt lat="43.2651" lon="-0.00567">
        <ele>378.42</ele>
        <time>2021-08-19T15:41:58Z</time>
      </trkpt>
      <trkpt lat="43.26497" lon="-0.00592">
        <ele>379.86</ele>
        <time>2021-08-19T15:42:06Z</time>
      </trkpt>
      <trkpt lat="43.26474" lon="-0.00625">
        <ele>380.82</ele>
        <time>2021-08-19T15:42:15Z</time>
      </trkpt>
      <trkpt lat="43.26462" lon="-0.00643">
        <ele>381.78</ele>
        <time>2021-08-19T15:42:20Z</time>
      </trkpt>
      <trkpt lat="43.26438" lon="-0.00671">
        <ele>382.74</ele>
        <time>2021-08-19T15:42:28Z</time>
      </trkpt>
      <trkpt lat="43.26416" lon="-0.00698">
        <ele>383.22</ele>
        <time>2021-08-19T15:42:36Z</time>
      </trkpt>
      <trkpt lat="43.264" lon="-0.0072">
        <ele>384.18</ele>
        <time>2021-08-19T15:42:43Z</time>
      </trkpt>
      <trkpt lat="43.26385" lon="-0.00743">
        <ele>385.15</ele>
        <time>2021-08-19T15:42:50Z</time>
      </trkpt>
      <trkpt lat="43.26367" lon="-0.00766">
        <ele>386.11</ele>
        <time>2021-08-19T15:42:57Z</time>
      </trkpt>
      <trkpt lat="43.26356" lon="-0.00782">
        <ele>386.59</ele>
        <time>2021-08-19T15:43:02Z</time>
      </trkpt>
      <trkpt lat="43.2634" lon="-0.00808">
        <ele>388.03</ele>
        <time>2021-08-19T15:43:09Z</time>
      </trkpt>
      <trkpt lat="43.2632" lon="-0.00834">
        <ele>388.51</ele>
        <time>2021-08-19T15:43:16Z</time>
      </trkpt>
      <trkpt lat="43.26309" lon="-0.00852">
        <ele>388.51</ele>
        <time>2021-08-19T15:43:20Z</time>
      </trkpt>
      <trkpt lat="43.26306" lon="-0.00857">
        <ele>388.51</ele>
        <time>2021-08-19T15:43:21Z</time>
      </trkpt>
      <trkpt lat="43.2629" lon="-0.00891">
        <ele>388.51</ele>
        <time>2021-08-19T15:43:28Z</time>
      </trkpt>
      <trkpt lat="43.26275" lon="-0.00913">
        <ele>388.51</ele>
        <time>2021-08-19T15:43:32Z</time>
      </trkpt>
      <trkpt lat="43.26272" lon="-0.00918">
        <ele>388.51</ele>
        <time>2021-08-19T15:43:33Z</time>
      </trkpt>
      <trkpt lat="43.26258" lon="-0.00947">
        <ele>388.51</ele>
        <time>2021-08-19T15:43:39Z</time>
      </trkpt>
      <trkpt lat="43.26246" lon="-0.00972">
        <ele>388.51</ele>
        <time>2021-08-19T15:43:44Z</time>
      </trkpt>
      <trkpt lat="43.26243" lon="-0.00978">
        <ele>388.51</ele>
        <time>2021-08-19T15:43:45Z</time>
      </trkpt>
      <trkpt lat="43.26239" lon="-0.00983">
        <ele>388.51</ele>
        <time>2021-08-19T15:43:46Z</time>
      </trkpt>
      <trkpt lat="43.26235" lon="-0.0099">
        <ele>388.51</ele>
        <time>2021-08-19T15:43:47Z</time>
      </trkpt>
      <trkpt lat="43.26232" lon="-0.00995">
        <ele>388.51</ele>
        <time>2021-08-19T15:43:48Z</time>
      </trkpt>
      <trkpt lat="43.2622" lon="-0.01024">
        <ele>389.95</ele>
        <time>2021-08-19T15:43:54Z</time>
      </trkpt>
      <trkpt lat="43.26208" lon="-0.01061">
        <ele>390.43</ele>
        <time>2021-08-19T15:44:03Z</time>
      </trkpt>
      <trkpt lat="43.26187" lon="-0.01104">
        <ele>391.39</ele>
        <time>2021-08-19T15:44:11Z</time>
      </trkpt>
      <trkpt lat="43.26168" lon="-0.01138">
        <ele>391.87</ele>
        <time>2021-08-19T15:44:18Z</time>
      </trkpt>
      <trkpt lat="43.26151" lon="-0.01164">
        <ele>393.32</ele>
        <time>2021-08-19T15:44:24Z</time>
      </trkpt>
      <trkpt lat="43.26142" lon="-0.01192">
        <ele>393.8</ele>
        <time>2021-08-19T15:44:30Z</time>
      </trkpt>
      <trkpt lat="43.26133" lon="-0.01225">
        <ele>394.76</ele>
        <time>2021-08-19T15:44:37Z</time>
      </trkpt>
      <trkpt lat="43.26124" lon="-0.01258">
        <ele>395.24</ele>
        <time>2021-08-19T15:44:44Z</time>
      </trkpt>
      <trkpt lat="43.26117" lon="-0.01282">
        <ele>395.72</ele>
        <time>2021-08-19T15:44:49Z</time>
      </trkpt>
      <trkpt lat="43.26109" lon="-0.01309">
        <ele>396.2</ele>
        <time>2021-08-19T15:44:55Z</time>
      </trkpt>
      <trkpt lat="43.26097" lon="-0.01341">
        <ele>397.16</ele>
        <time>2021-08-19T15:45:02Z</time>
      </trkpt>
      <trkpt lat="43.26092" lon="-0.01367">
        <ele>397.16</ele>
        <time>2021-08-19T15:45:07Z</time>
      </trkpt>
      <trkpt lat="43.26083" lon="-0.01403">
        <ele>397.16</ele>
        <time>2021-08-19T15:45:14Z</time>
      </trkpt>
      <trkpt lat="43.26071" lon="-0.01438">
        <ele>397.16</ele>
        <time>2021-08-19T15:45:20Z</time>
      </trkpt>
      <trkpt lat="43.2606" lon="-0.01471">
        <ele>397.16</ele>
        <time>2021-08-19T15:45:25Z</time>
      </trkpt>
      <trkpt lat="43.26043" lon="-0.01507">
        <ele>397.16</ele>
        <time>2021-08-19T15:45:31Z</time>
      </trkpt>
      <trkpt lat="43.2604" lon="-0.01514">
        <ele>397.16</ele>
        <time>2021-08-19T15:45:32Z</time>
      </trkpt>
      <trkpt lat="43.26014" lon="-0.01558">
        <ele>396.2</ele>
        <time>2021-08-19T15:45:38Z</time>
      </trkpt>
      <trkpt lat="43.25977" lon="-0.01622">
        <ele>395.24</ele>
        <time>2021-08-19T15:45:46Z</time>
      </trkpt>
      <trkpt lat="43.25945" lon="-0.0167">
        <ele>394.28</ele>
        <time>2021-08-19T15:45:53Z</time>
      </trkpt>
      <trkpt lat="43.25911" lon="-0.01713">
        <ele>393.8</ele>
        <time>2021-08-19T15:46:00Z</time>
      </trkpt>
      <trkpt lat="43.25886" lon="-0.0174">
        <ele>393.8</ele>
        <time>2021-08-19T15:46:05Z</time>
      </trkpt>
      <trkpt lat="43.25858" lon="-0.0177">
        <ele>393.8</ele>
        <time>2021-08-19T15:46:11Z</time>
      </trkpt>
      <trkpt lat="43.25825" lon="-0.01808">
        <ele>393.32</ele>
        <time>2021-08-19T15:46:19Z</time>
      </trkpt>
      <trkpt lat="43.25792" lon="-0.01843">
        <ele>393.8</ele>
        <time>2021-08-19T15:46:27Z</time>
      </trkpt>
      <trkpt lat="43.25762" lon="-0.01877">
        <ele>393.8</ele>
        <time>2021-08-19T15:46:34Z</time>
      </trkpt>
      <trkpt lat="43.25733" lon="-0.01908">
        <ele>393.8</ele>
        <time>2021-08-19T15:46:41Z</time>
      </trkpt>
      <trkpt lat="43.25729" lon="-0.01911">
        <ele>393.8</ele>
        <time>2021-08-19T15:46:42Z</time>
      </trkpt>
      <trkpt lat="43.25724" lon="-0.01915">
        <ele>394.76</ele>
        <time>2021-08-19T15:46:43Z</time>
      </trkpt>
      <trkpt lat="43.2572" lon="-0.01918">
        <ele>394.76</ele>
        <time>2021-08-19T15:46:44Z</time>
      </trkpt>
      <trkpt lat="43.2569" lon="-0.01943">
        <ele>395.72</ele>
        <time>2021-08-19T15:46:52Z</time>
      </trkpt>
      <trkpt lat="43.25686" lon="-0.01946">
        <ele>395.72</ele>
        <time>2021-08-19T15:46:53Z</time>
      </trkpt>
      <trkpt lat="43.25654" lon="-0.01966">
        <ele>396.68</ele>
        <time>2021-08-19T15:47:02Z</time>
      </trkpt>
      <trkpt lat="43.25624" lon="-0.01984">
        <ele>396.68</ele>
        <time>2021-08-19T15:47:10Z</time>
      </trkpt>
      <trkpt lat="43.2562" lon="-0.01986">
        <ele>397.16</ele>
        <time>2021-08-19T15:47:11Z</time>
      </trkpt>
      <trkpt lat="43.25617" lon="-0.01988">
        <ele>397.16</ele>
        <time>2021-08-19T15:47:12Z</time>
      </trkpt>
      <trkpt lat="43.25613" lon="-0.01991">
        <ele>397.16</ele>
        <time>2021-08-19T15:47:13Z</time>
      </trkpt>
      <trkpt lat="43.25609" lon="-0.01993">
        <ele>397.16</ele>
        <time>2021-08-19T15:47:14Z</time>
      </trkpt>
      <trkpt lat="43.25604" lon="-0.01996">
        <ele>397.16</ele>
        <time>2021-08-19T15:47:15Z</time>
      </trkpt>
      <trkpt lat="43.25575" lon="-0.0202">
        <ele>397.64</ele>
        <time>2021-08-19T15:47:22Z</time>
      </trkpt>
      <trkpt lat="43.25543" lon="-0.02042">
        <ele>398.6</ele>
        <time>2021-08-19T15:47:30Z</time>
      </trkpt>
      <trkpt lat="43.25517" lon="-0.02063">
        <ele>399.08</ele>
        <time>2021-08-19T15:47:37Z</time>
      </trkpt>
      <trkpt lat="43.25489" lon="-0.02085">
        <ele>400.05</ele>
        <time>2021-08-19T15:47:44Z</time>
      </trkpt>
      <trkpt lat="43.25466" lon="-0.02106">
        <ele>400.05</ele>
        <time>2021-08-19T15:47:51Z</time>
      </trkpt>
      <trkpt lat="43.25456" lon="-0.02119">
        <ele>400.05</ele>
        <time>2021-08-19T15:47:54Z</time>
      </trkpt>
      <trkpt lat="43.25428" lon="-0.02151">
        <ele>401.01</ele>
        <time>2021-08-19T15:48:02Z</time>
      </trkpt>
      <trkpt lat="43.25423" lon="-0.02158">
        <ele>401.01</ele>
        <time>2021-08-19T15:48:04Z</time>
      </trkpt>
      <trkpt lat="43.254" lon="-0.02182">
        <ele>401.97</ele>
        <time>2021-08-19T15:48:11Z</time>
      </trkpt>
      <trkpt lat="43.25374" lon="-0.02209">
        <ele>401.97</ele>
        <time>2021-08-19T15:48:18Z</time>
      </trkpt>
      <trkpt lat="43.2537" lon="-0.02212">
        <ele>401.97</ele>
        <time>2021-08-19T15:48:19Z</time>
      </trkpt>
      <trkpt lat="43.25366" lon="-0.02216">
        <ele>401.97</ele>
        <time>2021-08-19T15:48:20Z</time>
      </trkpt>
      <trkpt lat="43.25363" lon="-0.02219">
        <ele>401.97</ele>
        <time>2021-08-19T15:48:21Z</time>
      </trkpt>
      <trkpt lat="43.25345" lon="-0.02234">
        <ele>401.97</ele>
        <time>2021-08-19T15:48:26Z</time>
      </trkpt>
      <trkpt lat="43.25332" lon="-0.02246">
        <ele>401.97</ele>
        <time>2021-08-19T15:48:29Z</time>
      </trkpt>
      <trkpt lat="43.25327" lon="-0.0225">
        <ele>401.97</ele>
        <time>2021-08-19T15:48:30Z</time>
      </trkpt>
      <trkpt lat="43.25323" lon="-0.02252">
        <ele>401.97</ele>
        <time>2021-08-19T15:48:31Z</time>
      </trkpt>
      <trkpt lat="43.25318" lon="-0.02254">
        <ele>401.97</ele>
        <time>2021-08-19T15:48:32Z</time>
      </trkpt>
      <trkpt lat="43.25313" lon="-0.02256">
        <ele>401.97</ele>
        <time>2021-08-19T15:48:33Z</time>
      </trkpt>
      <trkpt lat="43.25308" lon="-0.02259">
        <ele>401.97</ele>
        <time>2021-08-19T15:48:34Z</time>
      </trkpt>
      <trkpt lat="43.25303" lon="-0.02261">
        <ele>401.97</ele>
        <time>2021-08-19T15:48:35Z</time>
      </trkpt>
      <trkpt lat="43.25298" lon="-0.02262">
        <ele>401.97</ele>
        <time>2021-08-19T15:48:36Z</time>
      </trkpt>
      <trkpt lat="43.25293" lon="-0.02264">
        <ele>401.97</ele>
        <time>2021-08-19T15:48:37Z</time>
      </trkpt>
      <trkpt lat="43.25288" lon="-0.02266">
        <ele>401.97</ele>
        <time>2021-08-19T15:48:38Z</time>
      </trkpt>
      <trkpt lat="43.25284" lon="-0.02268">
        <ele>401.97</ele>
        <time>2021-08-19T15:48:39Z</time>
      </trkpt>
      <trkpt lat="43.25264" lon="-0.02277">
        <ele>402.45</ele>
        <time>2021-08-19T15:48:43Z</time>
      </trkpt>
      <trkpt lat="43.25231" lon="-0.0229">
        <ele>403.41</ele>
        <time>2021-08-19T15:48:50Z</time>
      </trkpt>
      <trkpt lat="43.25206" lon="-0.02301">
        <ele>404.37</ele>
        <time>2021-08-19T15:48:56Z</time>
      </trkpt>
      <trkpt lat="43.25183" lon="-0.02315">
        <ele>405.33</ele>
        <time>2021-08-19T15:49:02Z</time>
      </trkpt>
      <trkpt lat="43.25157" lon="-0.0233">
        <ele>405.33</ele>
        <time>2021-08-19T15:49:09Z</time>
      </trkpt>
      <trkpt lat="43.25132" lon="-0.02347">
        <ele>405.81</ele>
        <time>2021-08-19T15:49:16Z</time>
      </trkpt>
      <trkpt lat="43.25107" lon="-0.02371">
        <ele>405.81</ele>
        <time>2021-08-19T15:49:23Z</time>
      </trkpt>
      <trkpt lat="43.25085" lon="-0.02392">
        <ele>407.26</ele>
        <time>2021-08-19T15:49:29Z</time>
      </trkpt>
      <trkpt lat="43.25066" lon="-0.02412">
        <ele>407.74</ele>
        <time>2021-08-19T15:49:35Z</time>
      </trkpt>
      <trkpt lat="43.25052" lon="-0.02429">
        <ele>408.22</ele>
        <time>2021-08-19T15:49:39Z</time>
      </trkpt>
      <trkpt lat="43.25028" lon="-0.02456">
        <ele>409.18</ele>
        <time>2021-08-19T15:49:46Z</time>
      </trkpt>
      <trkpt lat="43.25009" lon="-0.02483">
        <ele>409.18</ele>
        <time>2021-08-19T15:49:53Z</time>
      </trkpt>
      <trkpt lat="43.24993" lon="-0.02504">
        <ele>409.18</ele>
        <time>2021-08-19T15:49:58Z</time>
      </trkpt>
      <trkpt lat="43.24989" lon="-0.02508">
        <ele>409.18</ele>
        <time>2021-08-19T15:49:59Z</time>
      </trkpt>
      <trkpt lat="43.24947" lon="-0.02532">
        <ele>410.14</ele>
        <time>2021-08-19T15:50:09Z</time>
      </trkpt>
      <trkpt lat="43.24912" lon="-0.02547">
        <ele>410.14</ele>
        <time>2021-08-19T15:50:17Z</time>
      </trkpt>
      <trkpt lat="43.24873" lon="-0.02561">
        <ele>411.1</ele>
        <time>2021-08-19T15:50:24Z</time>
      </trkpt>
      <trkpt lat="43.24869" lon="-0.02562">
        <ele>411.1</ele>
        <time>2021-08-19T15:50:25Z</time>
      </trkpt>
      <trkpt lat="43.24851" lon="-0.02567">
        <ele>411.1</ele>
        <time>2021-08-19T15:50:28Z</time>
      </trkpt>
      <trkpt lat="43.24847" lon="-0.02567">
        <ele>411.1</ele>
        <time>2021-08-19T15:50:29Z</time>
      </trkpt>
      <trkpt lat="43.24843" lon="-0.02567">
        <ele>411.1</ele>
        <time>2021-08-19T15:50:30Z</time>
      </trkpt>
      <trkpt lat="43.24791" lon="-0.02562">
        <ele>411.1</ele>
        <time>2021-08-19T15:50:41Z</time>
      </trkpt>
      <trkpt lat="43.24762" lon="-0.02559">
        <ele>411.1</ele>
        <time>2021-08-19T15:50:48Z</time>
      </trkpt>
      <trkpt lat="43.24748" lon="-0.02556">
        <ele>411.1</ele>
        <time>2021-08-19T15:50:52Z</time>
      </trkpt>
      <trkpt lat="43.24701" lon="-0.02544">
        <ele>411.1</ele>
        <time>2021-08-19T15:51:02Z</time>
      </trkpt>
      <trkpt lat="43.2466" lon="-0.02537">
        <ele>409.66</ele>
        <time>2021-08-19T15:51:10Z</time>
      </trkpt>
      <trkpt lat="43.24629" lon="-0.0253">
        <ele>408.22</ele>
        <time>2021-08-19T15:51:16Z</time>
      </trkpt>
      <trkpt lat="43.24623" lon="-0.02528">
        <ele>408.22</ele>
        <time>2021-08-19T15:51:17Z</time>
      </trkpt>
      <trkpt lat="43.24587" lon="-0.02507">
        <ele>408.22</ele>
        <time>2021-08-19T15:51:24Z</time>
      </trkpt>
      <trkpt lat="43.24574" lon="-0.02494">
        <ele>408.22</ele>
        <time>2021-08-19T15:51:27Z</time>
      </trkpt>
      <trkpt lat="43.24551" lon="-0.02452">
        <ele>408.22</ele>
        <time>2021-08-19T15:51:34Z</time>
      </trkpt>
      <trkpt lat="43.24545" lon="-0.02442">
        <ele>409.66</ele>
        <time>2021-08-19T15:51:36Z</time>
      </trkpt>
      <trkpt lat="43.24542" lon="-0.02438">
        <ele>409.66</ele>
        <time>2021-08-19T15:51:37Z</time>
      </trkpt>
      <trkpt lat="43.24539" lon="-0.02433">
        <ele>409.66</ele>
        <time>2021-08-19T15:51:38Z</time>
      </trkpt>
      <trkpt lat="43.24535" lon="-0.0243">
        <ele>410.14</ele>
        <time>2021-08-19T15:51:39Z</time>
      </trkpt>
      <trkpt lat="43.24532" lon="-0.02429">
        <ele>410.14</ele>
        <time>2021-08-19T15:51:40Z</time>
      </trkpt>
      <trkpt lat="43.24528" lon="-0.02429">
        <ele>410.14</ele>
        <time>2021-08-19T15:51:41Z</time>
      </trkpt>
      <trkpt lat="43.24524" lon="-0.0243">
        <ele>410.14</ele>
        <time>2021-08-19T15:51:42Z</time>
      </trkpt>
      <trkpt lat="43.24522" lon="-0.02431">
        <ele>410.14</ele>
        <time>2021-08-19T15:51:43Z</time>
      </trkpt>
      <trkpt lat="43.24519" lon="-0.02432">
        <ele>410.62</ele>
        <time>2021-08-19T15:51:44Z</time>
      </trkpt>
      <trkpt lat="43.2452" lon="-0.0243">
        <ele>410.62</ele>
        <time>2021-08-19T15:51:46Z</time>
      </trkpt>
      <trkpt lat="43.24521" lon="-0.02429">
        <ele>410.62</ele>
        <time>2021-08-19T15:51:47Z</time>
      </trkpt>
      <trkpt lat="43.24523" lon="-0.02429">
        <ele>410.62</ele>
        <time>2021-08-19T15:51:48Z</time>
      </trkpt>
      <trkpt lat="43.24533" lon="-0.02426">
        <ele>410.62</ele>
        <time>2021-08-19T15:51:52Z</time>
      </trkpt>
      <trkpt lat="43.24534" lon="-0.02423">
        <ele>410.62</ele>
        <time>2021-08-19T15:51:53Z</time>
      </trkpt>
      <trkpt lat="43.24534" lon="-0.02419">
        <ele>410.62</ele>
        <time>2021-08-19T15:51:54Z</time>
      </trkpt>
      <trkpt lat="43.24533" lon="-0.02417">
        <ele>410.62</ele>
        <time>2021-08-19T15:51:55Z</time>
      </trkpt>
      <trkpt lat="43.24532" lon="-0.02416">
        <ele>410.62</ele>
        <time>2021-08-19T15:51:56Z</time>
      </trkpt>
      <trkpt lat="43.24531" lon="-0.02414">
        <ele>410.62</ele>
        <time>2021-08-19T15:51:57Z</time>
      </trkpt>
      <trkpt lat="43.2453" lon="-0.02412">
        <ele>410.62</ele>
        <time>2021-08-19T15:51:58Z</time>
      </trkpt>
      <trkpt lat="43.24523" lon="-0.02394">
        <ele>410.62</ele>
        <time>2021-08-19T15:52:04Z</time>
      </trkpt>
      <trkpt lat="43.24505" lon="-0.02363">
        <ele>410.62</ele>
        <time>2021-08-19T15:52:10Z</time>
      </trkpt>
      <trkpt lat="43.24491" lon="-0.02329">
        <ele>411.58</ele>
        <time>2021-08-19T15:52:17Z</time>
      </trkpt>
      <trkpt lat="43.24479" lon="-0.02298">
        <ele>411.58</ele>
        <time>2021-08-19T15:52:24Z</time>
      </trkpt>
      <trkpt lat="43.24467" lon="-0.02265">
        <ele>411.58</ele>
        <time>2021-08-19T15:52:32Z</time>
      </trkpt>
      <trkpt lat="43.24456" lon="-0.02231">
        <ele>409.66</ele>
        <time>2021-08-19T15:52:39Z</time>
      </trkpt>
      <trkpt lat="43.24454" lon="-0.02225">
        <ele>409.66</ele>
        <time>2021-08-19T15:52:40Z</time>
      </trkpt>
      <trkpt lat="43.2444" lon="-0.02198">
        <ele>407.74</ele>
        <time>2021-08-19T15:52:44Z</time>
      </trkpt>
      <trkpt lat="43.24408" lon="-0.02157">
        <ele>405.81</ele>
        <time>2021-08-19T15:52:51Z</time>
      </trkpt>
      <trkpt lat="43.24402" lon="-0.02152">
        <ele>405.81</ele>
        <time>2021-08-19T15:52:52Z</time>
      </trkpt>
      <trkpt lat="43.24397" lon="-0.02149">
        <ele>405.33</ele>
        <time>2021-08-19T15:52:53Z</time>
      </trkpt>
      <trkpt lat="43.24351" lon="-0.02131">
        <ele>401.97</ele>
        <time>2021-08-19T15:53:00Z</time>
      </trkpt>
      <trkpt lat="43.2434" lon="-0.02127">
        <ele>401.97</ele>
        <time>2021-08-19T15:53:03Z</time>
      </trkpt>
      <trkpt lat="43.2434" lon="-0.02121">
        <ele>401.97</ele>
        <time>2021-08-19T15:53:05Z</time>
      </trkpt>
      <trkpt lat="43.24343" lon="-0.02118">
        <ele>401.01</ele>
        <time>2021-08-19T15:53:06Z</time>
      </trkpt>
      <trkpt lat="43.24347" lon="-0.02118">
        <ele>400.53</ele>
        <time>2021-08-19T15:53:07Z</time>
      </trkpt>
      <trkpt lat="43.2435" lon="-0.02117">
        <ele>400.53</ele>
        <time>2021-08-19T15:53:08Z</time>
      </trkpt>
      <trkpt lat="43.24377" lon="-0.02112">
        <ele>397.64</ele>
        <time>2021-08-19T15:53:14Z</time>
      </trkpt>
      <trkpt lat="43.24382" lon="-0.02111">
        <ele>397.16</ele>
        <time>2021-08-19T15:53:15Z</time>
      </trkpt>
      <trkpt lat="43.24386" lon="-0.02112">
        <ele>396.2</ele>
        <time>2021-08-19T15:53:16Z</time>
      </trkpt>
      <trkpt lat="43.24391" lon="-0.02112">
        <ele>396.2</ele>
        <time>2021-08-19T15:53:17Z</time>
      </trkpt>
      <trkpt lat="43.24412" lon="-0.02111">
        <ele>393.8</ele>
        <time>2021-08-19T15:53:22Z</time>
      </trkpt>
      <trkpt lat="43.24417" lon="-0.02109">
        <ele>393.32</ele>
        <time>2021-08-19T15:53:23Z</time>
      </trkpt>
      <trkpt lat="43.24421" lon="-0.02107">
        <ele>392.36</ele>
        <time>2021-08-19T15:53:24Z</time>
      </trkpt>
      <trkpt lat="43.24426" lon="-0.02104">
        <ele>391.39</ele>
        <time>2021-08-19T15:53:25Z</time>
      </trkpt>
      <trkpt lat="43.2443" lon="-0.021">
        <ele>391.39</ele>
        <time>2021-08-19T15:53:26Z</time>
      </trkpt>
      <trkpt lat="43.24434" lon="-0.02096">
        <ele>390.43</ele>
        <time>2021-08-19T15:53:27Z</time>
      </trkpt>
      <trkpt lat="43.24437" lon="-0.02091">
        <ele>389.95</ele>
        <time>2021-08-19T15:53:28Z</time>
      </trkpt>
      <trkpt lat="43.2444" lon="-0.02086">
        <ele>388.99</ele>
        <time>2021-08-19T15:53:29Z</time>
      </trkpt>
      <trkpt lat="43.24443" lon="-0.02081">
        <ele>388.51</ele>
        <time>2021-08-19T15:53:30Z</time>
      </trkpt>
      <trkpt lat="43.24455" lon="-0.02058">
        <ele>385.15</ele>
        <time>2021-08-19T15:53:34Z</time>
      </trkpt>
      <trkpt lat="43.24467" lon="-0.02031">
        <ele>382.26</ele>
        <time>2021-08-19T15:53:38Z</time>
      </trkpt>
      <trkpt lat="43.24473" lon="-0.0201">
        <ele>379.86</ele>
        <time>2021-08-19T15:53:41Z</time>
      </trkpt>
      <trkpt lat="43.24475" lon="-0.01989">
        <ele>378.42</ele>
        <time>2021-08-19T15:53:45Z</time>
      </trkpt>
      <trkpt lat="43.24474" lon="-0.01985">
        <ele>376.97</ele>
        <time>2021-08-19T15:53:46Z</time>
      </trkpt>
      <trkpt lat="43.24472" lon="-0.01982">
        <ele>376.97</ele>
        <time>2021-08-19T15:53:47Z</time>
      </trkpt>
      <trkpt lat="43.2447" lon="-0.0198">
        <ele>376.01</ele>
        <time>2021-08-19T15:53:48Z</time>
      </trkpt>
      <trkpt lat="43.24468" lon="-0.01977">
        <ele>376.01</ele>
        <time>2021-08-19T15:53:49Z</time>
      </trkpt>
      <trkpt lat="43.24466" lon="-0.01976">
        <ele>375.53</ele>
        <time>2021-08-19T15:53:50Z</time>
      </trkpt>
      <trkpt lat="43.24463" lon="-0.01975">
        <ele>374.57</ele>
        <time>2021-08-19T15:53:51Z</time>
      </trkpt>
      <trkpt lat="43.24456" lon="-0.01974">
        <ele>373.61</ele>
        <time>2021-08-19T15:53:53Z</time>
      </trkpt>
      <trkpt lat="43.24451" lon="-0.01975">
        <ele>373.13</ele>
        <time>2021-08-19T15:53:54Z</time>
      </trkpt>
      <trkpt lat="43.24446" lon="-0.01975">
        <ele>373.13</ele>
        <time>2021-08-19T15:53:55Z</time>
      </trkpt>
      <trkpt lat="43.24442" lon="-0.01977">
        <ele>372.17</ele>
        <time>2021-08-19T15:53:56Z</time>
      </trkpt>
      <trkpt lat="43.24438" lon="-0.01978">
        <ele>372.17</ele>
        <time>2021-08-19T15:53:57Z</time>
      </trkpt>
      <trkpt lat="43.2442" lon="-0.01983">
        <ele>370.24</ele>
        <time>2021-08-19T15:54:01Z</time>
      </trkpt>
      <trkpt lat="43.24415" lon="-0.01982">
        <ele>369.28</ele>
        <time>2021-08-19T15:54:02Z</time>
      </trkpt>
      <trkpt lat="43.24411" lon="-0.01981">
        <ele>368.8</ele>
        <time>2021-08-19T15:54:03Z</time>
      </trkpt>
      <trkpt lat="43.24386" lon="-0.01971">
        <ele>365.44</ele>
        <time>2021-08-19T15:54:08Z</time>
      </trkpt>
      <trkpt lat="43.24363" lon="-0.01957">
        <ele>361.59</ele>
        <time>2021-08-19T15:54:12Z</time>
      </trkpt>
      <trkpt lat="43.24359" lon="-0.01952">
        <ele>361.11</ele>
        <time>2021-08-19T15:54:13Z</time>
      </trkpt>
      <trkpt lat="43.24347" lon="-0.01939">
        <ele>358.71</ele>
        <time>2021-08-19T15:54:16Z</time>
      </trkpt>
      <trkpt lat="43.24344" lon="-0.01933">
        <ele>358.23</ele>
        <time>2021-08-19T15:54:17Z</time>
      </trkpt>
      <trkpt lat="43.24342" lon="-0.01926">
        <ele>357.27</ele>
        <time>2021-08-19T15:54:18Z</time>
      </trkpt>
      <trkpt lat="43.2434" lon="-0.01918">
        <ele>355.83</ele>
        <time>2021-08-19T15:54:19Z</time>
      </trkpt>
      <trkpt lat="43.24339" lon="-0.0191">
        <ele>355.34</ele>
        <time>2021-08-19T15:54:20Z</time>
      </trkpt>
      <trkpt lat="43.24339" lon="-0.01902">
        <ele>354.86</ele>
        <time>2021-08-19T15:54:21Z</time>
      </trkpt>
      <trkpt lat="43.24339" lon="-0.01895">
        <ele>354.38</ele>
        <time>2021-08-19T15:54:22Z</time>
      </trkpt>
      <trkpt lat="43.2434" lon="-0.01888">
        <ele>354.38</ele>
        <time>2021-08-19T15:54:23Z</time>
      </trkpt>
      <trkpt lat="43.2434" lon="-0.01881">
        <ele>353.42</ele>
        <time>2021-08-19T15:54:24Z</time>
      </trkpt>
      <trkpt lat="43.24342" lon="-0.01874">
        <ele>352.46</ele>
        <time>2021-08-19T15:54:25Z</time>
      </trkpt>
      <trkpt lat="43.24349" lon="-0.01848">
        <ele>351.02</ele>
        <time>2021-08-19T15:54:29Z</time>
      </trkpt>
      <trkpt lat="43.2435" lon="-0.01842">
        <ele>350.06</ele>
        <time>2021-08-19T15:54:30Z</time>
      </trkpt>
      <trkpt lat="43.24363" lon="-0.01805">
        <ele>347.17</ele>
        <time>2021-08-19T15:54:36Z</time>
      </trkpt>
      <trkpt lat="43.24374" lon="-0.01781">
        <ele>345.25</ele>
        <time>2021-08-19T15:54:41Z</time>
      </trkpt>
      <trkpt lat="43.24385" lon="-0.01762">
        <ele>343.33</ele>
        <time>2021-08-19T15:54:47Z</time>
      </trkpt>
      <trkpt lat="43.24392" lon="-0.01749">
        <ele>341.89</ele>
        <time>2021-08-19T15:54:52Z</time>
      </trkpt>
      <trkpt lat="43.24393" lon="-0.01746">
        <ele>341.41</ele>
        <time>2021-08-19T15:54:53Z</time>
      </trkpt>
      <trkpt lat="43.24394" lon="-0.01743">
        <ele>341.41</ele>
        <time>2021-08-19T15:54:54Z</time>
      </trkpt>
      <trkpt lat="43.24395" lon="-0.01739">
        <ele>340.44</ele>
        <time>2021-08-19T15:54:55Z</time>
      </trkpt>
      <trkpt lat="43.24396" lon="-0.01734">
        <ele>339.96</ele>
        <time>2021-08-19T15:54:56Z</time>
      </trkpt>
      <trkpt lat="43.24398" lon="-0.01729">
        <ele>339.48</ele>
        <time>2021-08-19T15:54:57Z</time>
      </trkpt>
      <trkpt lat="43.244" lon="-0.01723">
        <ele>339</ele>
        <time>2021-08-19T15:54:58Z</time>
      </trkpt>
      <trkpt lat="43.24401" lon="-0.01717">
        <ele>338.52</ele>
        <time>2021-08-19T15:54:59Z</time>
      </trkpt>
      <trkpt lat="43.24403" lon="-0.01706">
        <ele>337.56</ele>
        <time>2021-08-19T15:55:01Z</time>
      </trkpt>
      <trkpt lat="43.24402" lon="-0.01703">
        <ele>337.56</ele>
        <time>2021-08-19T15:55:02Z</time>
      </trkpt>
      <trkpt lat="43.24399" lon="-0.01701">
        <ele>337.56</ele>
        <time>2021-08-19T15:55:03Z</time>
      </trkpt>
      <trkpt lat="43.24397" lon="-0.01701">
        <ele>337.56</ele>
        <time>2021-08-19T15:55:04Z</time>
      </trkpt>
      <trkpt lat="43.24396" lon="-0.01702">
        <ele>337.56</ele>
        <time>2021-08-19T15:55:05Z</time>
      </trkpt>
      <trkpt lat="43.24395" lon="-0.01702">
        <ele>337.56</ele>
        <time>2021-08-19T15:55:10Z</time>
      </trkpt>
      <trkpt lat="43.24391" lon="-0.01705">
        <ele>337.56</ele>
        <time>2021-08-19T15:55:21Z</time>
      </trkpt>
      <trkpt lat="43.24384" lon="-0.01719">
        <ele>337.56</ele>
        <time>2021-08-19T15:55:27Z</time>
      </trkpt>
      <trkpt lat="43.24378" lon="-0.01732">
        <ele>339</ele>
        <time>2021-08-19T15:55:32Z</time>
      </trkpt>
      <trkpt lat="43.24375" lon="-0.01737">
        <ele>339.48</ele>
        <time>2021-08-19T15:55:35Z</time>
      </trkpt>
      <trkpt lat="43.24372" lon="-0.01737">
        <ele>339.48</ele>
        <time>2021-08-19T15:55:36Z</time>
      </trkpt>
      <trkpt lat="43.24369" lon="-0.01736">
        <ele>339.48</ele>
        <time>2021-08-19T15:55:37Z</time>
      </trkpt>
      <trkpt lat="43.24367" lon="-0.01734">
        <ele>339.48</ele>
        <time>2021-08-19T15:55:38Z</time>
      </trkpt>
      <trkpt lat="43.24363" lon="-0.01731">
        <ele>339.48</ele>
        <time>2021-08-19T15:55:39Z</time>
      </trkpt>
      <trkpt lat="43.24359" lon="-0.0173">
        <ele>338.04</ele>
        <time>2021-08-19T15:55:40Z</time>
      </trkpt>
      <trkpt lat="43.24355" lon="-0.01728">
        <ele>338.04</ele>
        <time>2021-08-19T15:55:41Z</time>
      </trkpt>
      <trkpt lat="43.24339" lon="-0.01723">
        <ele>335.64</ele>
        <time>2021-08-19T15:55:44Z</time>
      </trkpt>
      <trkpt lat="43.24301" lon="-0.01713">
        <ele>333.71</ele>
        <time>2021-08-19T15:55:50Z</time>
      </trkpt>
      <trkpt lat="43.24296" lon="-0.0171">
        <ele>333.23</ele>
        <time>2021-08-19T15:55:51Z</time>
      </trkpt>
      <trkpt lat="43.2429" lon="-0.01706">
        <ele>333.23</ele>
        <time>2021-08-19T15:55:52Z</time>
      </trkpt>
      <trkpt lat="43.24283" lon="-0.01697">
        <ele>332.75</ele>
        <time>2021-08-19T15:55:54Z</time>
      </trkpt>
      <trkpt lat="43.24255" lon="-0.01644">
        <ele>329.87</ele>
        <time>2021-08-19T15:56:02Z</time>
      </trkpt>
      <trkpt lat="43.24235" lon="-0.01604">
        <ele>329.39</ele>
        <time>2021-08-19T15:56:09Z</time>
      </trkpt>
      <trkpt lat="43.24232" lon="-0.01599">
        <ele>328.91</ele>
        <time>2021-08-19T15:56:10Z</time>
      </trkpt>
      <trkpt lat="43.24225" lon="-0.01578">
        <ele>328.43</ele>
        <time>2021-08-19T15:56:14Z</time>
      </trkpt>
      <trkpt lat="43.24218" lon="-0.01545">
        <ele>327.95</ele>
        <time>2021-08-19T15:56:20Z</time>
      </trkpt>
      <trkpt lat="43.24216" lon="-0.0154">
        <ele>327.95</ele>
        <time>2021-08-19T15:56:21Z</time>
      </trkpt>
      <trkpt lat="43.24215" lon="-0.01535">
        <ele>327.47</ele>
        <time>2021-08-19T15:56:22Z</time>
      </trkpt>
      <trkpt lat="43.24213" lon="-0.0153">
        <ele>327.47</ele>
        <time>2021-08-19T15:56:23Z</time>
      </trkpt>
      <trkpt lat="43.24211" lon="-0.01525">
        <ele>327.47</ele>
        <time>2021-08-19T15:56:24Z</time>
      </trkpt>
      <trkpt lat="43.24202" lon="-0.01506">
        <ele>327.47</ele>
        <time>2021-08-19T15:56:29Z</time>
      </trkpt>
      <trkpt lat="43.24188" lon="-0.01478">
        <ele>327.47</ele>
        <time>2021-08-19T15:56:37Z</time>
      </trkpt>
      <trkpt lat="43.2417" lon="-0.01454">
        <ele>327.47</ele>
        <time>2021-08-19T15:56:44Z</time>
      </trkpt>
      <trkpt lat="43.2416" lon="-0.01447">
        <ele>327.47</ele>
        <time>2021-08-19T15:56:47Z</time>
      </trkpt>
      <trkpt lat="43.24156" lon="-0.01445">
        <ele>326.99</ele>
        <time>2021-08-19T15:56:48Z</time>
      </trkpt>
      <trkpt lat="43.24149" lon="-0.01442">
        <ele>326.99</ele>
        <time>2021-08-19T15:56:50Z</time>
      </trkpt>
      <trkpt lat="43.24148" lon="-0.01439">
        <ele>326.99</ele>
        <time>2021-08-19T15:56:51Z</time>
      </trkpt>
      <trkpt lat="43.24145" lon="-0.01436">
        <ele>326.99</ele>
        <time>2021-08-19T15:56:52Z</time>
      </trkpt>
      <trkpt lat="43.24142" lon="-0.01434">
        <ele>326.99</ele>
        <time>2021-08-19T15:56:53Z</time>
      </trkpt>
      <trkpt lat="43.24139" lon="-0.01434">
        <ele>326.99</ele>
        <time>2021-08-19T15:56:54Z</time>
      </trkpt>
      <trkpt lat="43.24136" lon="-0.01435">
        <ele>326.99</ele>
        <time>2021-08-19T15:56:55Z</time>
      </trkpt>
      <trkpt lat="43.24132" lon="-0.01437">
        <ele>326.99</ele>
        <time>2021-08-19T15:56:56Z</time>
      </trkpt>
      <trkpt lat="43.24106" lon="-0.01449">
        <ele>326.99</ele>
        <time>2021-08-19T15:57:03Z</time>
      </trkpt>
      <trkpt lat="43.24102" lon="-0.01451">
        <ele>326.99</ele>
        <time>2021-08-19T15:57:04Z</time>
      </trkpt>
      <trkpt lat="43.24074" lon="-0.01466">
        <ele>326.99</ele>
        <time>2021-08-19T15:57:12Z</time>
      </trkpt>
      <trkpt lat="43.24055" lon="-0.01467">
        <ele>327.95</ele>
        <time>2021-08-19T15:57:18Z</time>
      </trkpt>
      <trkpt lat="43.24036" lon="-0.01446">
        <ele>328.43</ele>
        <time>2021-08-19T15:57:25Z</time>
      </trkpt>
      <trkpt lat="43.24017" lon="-0.0144">
        <ele>328.43</ele>
        <time>2021-08-19T15:57:30Z</time>
      </trkpt>
      <trkpt lat="43.23995" lon="-0.01444">
        <ele>328.43</ele>
        <time>2021-08-19T15:57:36Z</time>
      </trkpt>
      <trkpt lat="43.23983" lon="-0.01445">
        <ele>328.43</ele>
        <time>2021-08-19T15:57:40Z</time>
      </trkpt>
      <trkpt lat="43.2398" lon="-0.01443">
        <ele>328.43</ele>
        <time>2021-08-19T15:57:41Z</time>
      </trkpt>
      <trkpt lat="43.23964" lon="-0.01421">
        <ele>328.43</ele>
        <time>2021-08-19T15:57:47Z</time>
      </trkpt>
      <trkpt lat="43.23941" lon="-0.01381">
        <ele>328.43</ele>
        <time>2021-08-19T15:57:55Z</time>
      </trkpt>
      <trkpt lat="43.23938" lon="-0.01376">
        <ele>328.43</ele>
        <time>2021-08-19T15:57:56Z</time>
      </trkpt>
      <trkpt lat="43.23929" lon="-0.01359">
        <ele>328.43</ele>
        <time>2021-08-19T15:57:59Z</time>
      </trkpt>
      <trkpt lat="43.23926" lon="-0.01353">
        <ele>328.43</ele>
        <time>2021-08-19T15:58:00Z</time>
      </trkpt>
      <trkpt lat="43.23905" lon="-0.01314">
        <ele>328.43</ele>
        <time>2021-08-19T15:58:07Z</time>
      </trkpt>
      <trkpt lat="43.23882" lon="-0.01269">
        <ele>327.47</ele>
        <time>2021-08-19T15:58:15Z</time>
      </trkpt>
      <trkpt lat="43.23856" lon="-0.01213">
        <ele>327.47</ele>
        <time>2021-08-19T15:58:24Z</time>
      </trkpt>
      <trkpt lat="43.2383" lon="-0.01155">
        <ele>327.47</ele>
        <time>2021-08-19T15:58:33Z</time>
      </trkpt>
      <trkpt lat="43.23822" lon="-0.01136">
        <ele>327.47</ele>
        <time>2021-08-19T15:58:36Z</time>
      </trkpt>
      <trkpt lat="43.23818" lon="-0.01124">
        <ele>327.47</ele>
        <time>2021-08-19T15:58:38Z</time>
      </trkpt>
      <trkpt lat="43.23818" lon="-0.01117">
        <ele>327.47</ele>
        <time>2021-08-19T15:58:39Z</time>
      </trkpt>
      <trkpt lat="43.2382" lon="-0.0106">
        <ele>327.47</ele>
        <time>2021-08-19T15:58:47Z</time>
      </trkpt>
      <trkpt lat="43.2383" lon="-0.00974">
        <ele>326.99</ele>
        <time>2021-08-19T15:58:58Z</time>
      </trkpt>
      <trkpt lat="43.2383" lon="-0.00908">
        <ele>326.99</ele>
        <time>2021-08-19T15:59:06Z</time>
      </trkpt>
      <trkpt lat="43.23827" lon="-0.00837">
        <ele>326.99</ele>
        <time>2021-08-19T15:59:15Z</time>
      </trkpt>
      <trkpt lat="43.2382" lon="-0.00784">
        <ele>326.99</ele>
        <time>2021-08-19T15:59:22Z</time>
      </trkpt>
      <trkpt lat="43.23798" lon="-0.00737">
        <ele>326.99</ele>
        <time>2021-08-19T15:59:29Z</time>
      </trkpt>
      <trkpt lat="43.23793" lon="-0.00731">
        <ele>326.99</ele>
        <time>2021-08-19T15:59:30Z</time>
      </trkpt>
      <trkpt lat="43.23753" lon="-0.0069">
        <ele>326.99</ele>
        <time>2021-08-19T15:59:39Z</time>
      </trkpt>
      <trkpt lat="43.23716" lon="-0.00654">
        <ele>326.99</ele>
        <time>2021-08-19T15:59:47Z</time>
      </trkpt>
      <trkpt lat="43.2368" lon="-0.00619">
        <ele>327.95</ele>
        <time>2021-08-19T15:59:55Z</time>
      </trkpt>
      <trkpt lat="43.23661" lon="-0.00604">
        <ele>327.95</ele>
        <time>2021-08-19T15:59:59Z</time>
      </trkpt>
      <trkpt lat="43.23609" lon="-0.0057">
        <ele>327.95</ele>
        <time>2021-08-19T16:00:10Z</time>
      </trkpt>
      <trkpt lat="43.23599" lon="-0.00562">
        <ele>327.95</ele>
        <time>2021-08-19T16:00:12Z</time>
      </trkpt>
      <trkpt lat="43.23594" lon="-0.00558">
        <ele>327.95</ele>
        <time>2021-08-19T16:00:13Z</time>
      </trkpt>
      <trkpt lat="43.23585" lon="-0.0055">
        <ele>327.95</ele>
        <time>2021-08-19T16:00:15Z</time>
      </trkpt>
      <trkpt lat="43.23581" lon="-0.00546">
        <ele>327.95</ele>
        <time>2021-08-19T16:00:16Z</time>
      </trkpt>
      <trkpt lat="43.23577" lon="-0.0054">
        <ele>328.43</ele>
        <time>2021-08-19T16:00:17Z</time>
      </trkpt>
      <trkpt lat="43.23573" lon="-0.00534">
        <ele>328.43</ele>
        <time>2021-08-19T16:00:18Z</time>
      </trkpt>
      <trkpt lat="43.23571" lon="-0.00528">
        <ele>328.43</ele>
        <time>2021-08-19T16:00:19Z</time>
      </trkpt>
      <trkpt lat="43.23568" lon="-0.00521">
        <ele>328.43</ele>
        <time>2021-08-19T16:00:20Z</time>
      </trkpt>
      <trkpt lat="43.23564" lon="-0.00508">
        <ele>328.43</ele>
        <time>2021-08-19T16:00:22Z</time>
      </trkpt>
      <trkpt lat="43.23555" lon="-0.00471">
        <ele>328.43</ele>
        <time>2021-08-19T16:00:27Z</time>
      </trkpt>
      <trkpt lat="43.23553" lon="-0.00464">
        <ele>328.43</ele>
        <time>2021-08-19T16:00:28Z</time>
      </trkpt>
      <trkpt lat="43.2355" lon="-0.00459">
        <ele>328.43</ele>
        <time>2021-08-19T16:00:29Z</time>
      </trkpt>
      <trkpt lat="43.23545" lon="-0.00454">
        <ele>328.43</ele>
        <time>2021-08-19T16:00:30Z</time>
      </trkpt>
      <trkpt lat="43.23541" lon="-0.00451">
        <ele>328.43</ele>
        <time>2021-08-19T16:00:31Z</time>
      </trkpt>
      <trkpt lat="43.23536" lon="-0.00447">
        <ele>328.43</ele>
        <time>2021-08-19T16:00:32Z</time>
      </trkpt>
      <trkpt lat="43.23531" lon="-0.00444">
        <ele>328.43</ele>
        <time>2021-08-19T16:00:33Z</time>
      </trkpt>
      <trkpt lat="43.23516" lon="-0.00434">
        <ele>328.43</ele>
        <time>2021-08-19T16:00:36Z</time>
      </trkpt>
      <trkpt lat="43.23499" lon="-0.00417">
        <ele>328.91</ele>
        <time>2021-08-19T16:00:40Z</time>
      </trkpt>
      <trkpt lat="43.23496" lon="-0.00411">
        <ele>328.91</ele>
        <time>2021-08-19T16:00:41Z</time>
      </trkpt>
      <trkpt lat="43.23493" lon="-0.00405">
        <ele>328.91</ele>
        <time>2021-08-19T16:00:42Z</time>
      </trkpt>
      <trkpt lat="43.23492" lon="-0.00398">
        <ele>328.91</ele>
        <time>2021-08-19T16:00:43Z</time>
      </trkpt>
      <trkpt lat="43.2349" lon="-0.00391">
        <ele>328.91</ele>
        <time>2021-08-19T16:00:44Z</time>
      </trkpt>
      <trkpt lat="43.23488" lon="-0.00384">
        <ele>328.91</ele>
        <time>2021-08-19T16:00:45Z</time>
      </trkpt>
      <trkpt lat="43.23474" lon="-0.00324">
        <ele>328.91</ele>
        <time>2021-08-19T16:00:54Z</time>
      </trkpt>
      <trkpt lat="43.23472" lon="-0.00319">
        <ele>328.91</ele>
        <time>2021-08-19T16:00:55Z</time>
      </trkpt>
      <trkpt lat="43.2347" lon="-0.00314">
        <ele>328.91</ele>
        <time>2021-08-19T16:00:56Z</time>
      </trkpt>
      <trkpt lat="43.23467" lon="-0.00309">
        <ele>328.91</ele>
        <time>2021-08-19T16:00:57Z</time>
      </trkpt>
      <trkpt lat="43.23466" lon="-0.00303">
        <ele>328.91</ele>
        <time>2021-08-19T16:00:58Z</time>
      </trkpt>
      <trkpt lat="43.23464" lon="-0.00297">
        <ele>328.91</ele>
        <time>2021-08-19T16:00:59Z</time>
      </trkpt>
      <trkpt lat="43.23463" lon="-0.0029">
        <ele>328.91</ele>
        <time>2021-08-19T16:01:00Z</time>
      </trkpt>
      <trkpt lat="43.23462" lon="-0.00283">
        <ele>328.91</ele>
        <time>2021-08-19T16:01:01Z</time>
      </trkpt>
      <trkpt lat="43.23449" lon="-0.00214">
        <ele>328.91</ele>
        <time>2021-08-19T16:01:10Z</time>
      </trkpt>
      <trkpt lat="43.2344" lon="-0.00128">
        <ele>328.91</ele>
        <time>2021-08-19T16:01:21Z</time>
      </trkpt>
      <trkpt lat="43.2344" lon="-0.00113">
        <ele>328.91</ele>
        <time>2021-08-19T16:01:23Z</time>
      </trkpt>
      <trkpt lat="43.2344" lon="-0.00092">
        <ele>328.91</ele>
        <time>2021-08-19T16:01:26Z</time>
      </trkpt>
      <trkpt lat="43.23439" lon="-0.00086">
        <ele>328.91</ele>
        <time>2021-08-19T16:01:27Z</time>
      </trkpt>
      <trkpt lat="43.23437" lon="-0.0008">
        <ele>328.91</ele>
        <time>2021-08-19T16:01:28Z</time>
      </trkpt>
      <trkpt lat="43.23435" lon="-0.00073">
        <ele>328.91</ele>
        <time>2021-08-19T16:01:29Z</time>
      </trkpt>
      <trkpt lat="43.23431" lon="-0.00068">
        <ele>328.91</ele>
        <time>2021-08-19T16:01:30Z</time>
      </trkpt>
      <trkpt lat="43.23427" lon="-0.00064">
        <ele>328.91</ele>
        <time>2021-08-19T16:01:31Z</time>
      </trkpt>
      <trkpt lat="43.23423" lon="-0.0006">
        <ele>328.91</ele>
        <time>2021-08-19T16:01:32Z</time>
      </trkpt>
      <trkpt lat="43.23418" lon="-0.00056">
        <ele>328.91</ele>
        <time>2021-08-19T16:01:33Z</time>
      </trkpt>
      <trkpt lat="43.23413" lon="-0.00054">
        <ele>328.91</ele>
        <time>2021-08-19T16:01:34Z</time>
      </trkpt>
      <trkpt lat="43.23407" lon="-0.00052">
        <ele>328.91</ele>
        <time>2021-08-19T16:01:35Z</time>
      </trkpt>
      <trkpt lat="43.23402" lon="-0.00049">
        <ele>328.91</ele>
        <time>2021-08-19T16:01:36Z</time>
      </trkpt>
      <trkpt lat="43.23398" lon="-0.00043">
        <ele>328.43</ele>
        <time>2021-08-19T16:01:37Z</time>
      </trkpt>
      <trkpt lat="43.23395" lon="-0.00037">
        <ele>328.43</ele>
        <time>2021-08-19T16:01:38Z</time>
      </trkpt>
      <trkpt lat="43.23393" lon="-0.00031">
        <ele>328.43</ele>
        <time>2021-08-19T16:01:39Z</time>
      </trkpt>
      <trkpt lat="43.23392" lon="-0.00023">
        <ele>328.43</ele>
        <time>2021-08-19T16:01:40Z</time>
      </trkpt>
      <trkpt lat="43.23391" lon="-0.00016">
        <ele>328.43</ele>
        <time>2021-08-19T16:01:41Z</time>
      </trkpt>
      <trkpt lat="43.2338" lon="0.0005">
        <ele>328.43</ele>
        <time>2021-08-19T16:01:50Z</time>
      </trkpt>
      <trkpt lat="43.23368" lon="0.001">
        <ele>328.43</ele>
        <time>2021-08-19T16:01:58Z</time>
      </trkpt>
      <trkpt lat="43.23362" lon="0.00116">
        <ele>328.43</ele>
        <time>2021-08-19T16:02:03Z</time>
      </trkpt>
      <trkpt lat="43.2336" lon="0.00116">
        <ele>328.43</ele>
        <time>2021-08-19T16:02:04Z</time>
      </trkpt>
      <trkpt lat="43.23359" lon="0.00116">
        <ele>328.43</ele>
        <time>2021-08-19T16:02:05Z</time>
      </trkpt>
      <trkpt lat="43.23358" lon="0.00116">
        <ele>328.43</ele>
        <time>2021-08-19T16:02:06Z</time>
      </trkpt>
      <trkpt lat="43.23357" lon="0.00115">
        <ele>328.43</ele>
        <time>2021-08-19T16:02:07Z</time>
      </trkpt>
      <trkpt lat="43.23355" lon="0.00114">
        <ele>328.43</ele>
        <time>2021-08-19T16:02:08Z</time>
      </trkpt>
      <trkpt lat="43.23353" lon="0.00112">
        <ele>328.43</ele>
        <time>2021-08-19T16:02:09Z</time>
      </trkpt>
      <trkpt lat="43.23352" lon="0.00111">
        <ele>328.43</ele>
        <time>2021-08-19T16:02:10Z</time>
      </trkpt>
      <trkpt lat="43.23351" lon="0.0011">
        <ele>328.43</ele>
        <time>2021-08-19T16:02:11Z</time>
      </trkpt>
      <trkpt lat="43.2335" lon="0.00109">
        <ele>328.91</ele>
        <time>2021-08-19T16:02:12Z</time>
      </trkpt>
      <trkpt lat="43.23348" lon="0.00108">
        <ele>328.91</ele>
        <time>2021-08-19T16:02:13Z</time>
      </trkpt>
      <trkpt lat="43.23347" lon="0.00108">
        <ele>328.91</ele>
        <time>2021-08-19T16:02:14Z</time>
      </trkpt>
      <trkpt lat="43.23342" lon="0.00108">
        <ele>328.91</ele>
        <time>2021-08-19T16:02:18Z</time>
      </trkpt>
      <trkpt lat="43.23342" lon="0.00109">
        <ele>328.91</ele>
        <time>2021-08-19T16:02:19Z</time>
      </trkpt>
      <trkpt lat="43.23341" lon="0.0011">
        <ele>328.91</ele>
        <time>2021-08-19T16:02:20Z</time>
      </trkpt>
      <trkpt lat="43.23341" lon="0.00113">
        <ele>328.91</ele>
        <time>2021-08-19T16:02:21Z</time>
      </trkpt>
      <trkpt lat="43.23342" lon="0.00115">
        <ele>328.91</ele>
        <time>2021-08-19T16:02:22Z</time>
      </trkpt>
      <trkpt lat="43.23343" lon="0.00117">
        <ele>328.91</ele>
        <time>2021-08-19T16:02:23Z</time>
      </trkpt>
      <trkpt lat="43.23344" lon="0.00118">
        <ele>328.91</ele>
        <time>2021-08-19T16:02:24Z</time>
      </trkpt>
      <trkpt lat="43.23346" lon="0.00119">
        <ele>328.91</ele>
        <time>2021-08-19T16:02:25Z</time>
      </trkpt>
      <trkpt lat="43.23347" lon="0.0012">
        <ele>328.91</ele>
        <time>2021-08-19T16:02:26Z</time>
      </trkpt>
      <trkpt lat="43.23358" lon="0.00123">
        <ele>328.91</ele>
        <time>2021-08-19T16:02:31Z</time>
      </trkpt>
      <trkpt lat="43.23358" lon="0.00121">
        <ele>328.91</ele>
        <time>2021-08-19T16:02:32Z</time>
      </trkpt>
      <trkpt lat="43.23359" lon="0.00119">
        <ele>328.91</ele>
        <time>2021-08-19T16:02:33Z</time>
      </trkpt>
      <trkpt lat="43.23361" lon="0.00117">
        <ele>328.91</ele>
        <time>2021-08-19T16:02:34Z</time>
      </trkpt>
      <trkpt lat="43.23363" lon="0.00115">
        <ele>328.91</ele>
        <time>2021-08-19T16:02:35Z</time>
      </trkpt>
      <trkpt lat="43.23364" lon="0.00113">
        <ele>328.91</ele>
        <time>2021-08-19T16:02:36Z</time>
      </trkpt>
      <trkpt lat="43.23365" lon="0.00111">
        <ele>328.91</ele>
        <time>2021-08-19T16:02:37Z</time>
      </trkpt>
      <trkpt lat="43.23365" lon="0.00108">
        <ele>328.91</ele>
        <time>2021-08-19T16:02:38Z</time>
      </trkpt>
      <trkpt lat="43.23364" lon="0.00105">
        <ele>328.91</ele>
        <time>2021-08-19T16:02:39Z</time>
      </trkpt>
      <trkpt lat="43.23363" lon="0.00104">
        <ele>328.91</ele>
        <time>2021-08-19T16:02:40Z</time>
      </trkpt>
      <trkpt lat="43.23362" lon="0.00102">
        <ele>328.91</ele>
        <time>2021-08-19T16:02:41Z</time>
      </trkpt>
      <trkpt lat="43.2336" lon="0.00101">
        <ele>328.91</ele>
        <time>2021-08-19T16:02:49Z</time>
      </trkpt>
      <trkpt lat="43.23363" lon="0.00098">
        <ele>328.91</ele>
        <time>2021-08-19T16:03:06Z</time>
      </trkpt>
      <trkpt lat="43.23367" lon="0.00095">
        <ele>328.91</ele>
        <time>2021-08-19T16:03:27Z</time>
      </trkpt>
      <trkpt lat="43.23374" lon="0.00094">
        <ele>328.43</ele>
        <time>2021-08-19T16:03:48Z</time>
      </trkpt>
      <trkpt lat="43.23375" lon="0.00093">
        <ele>328.43</ele>
        <time>2021-08-19T16:04:02Z</time>
      </trkpt>
      <trkpt lat="43.23377" lon="0.00092">
        <ele>328.43</ele>
        <time>2021-08-19T16:04:18Z</time>
      </trkpt>
      <trkpt lat="43.23382" lon="0.00092">
        <ele>328.43</ele>
        <time>2021-08-19T16:04:36Z</time>
      </trkpt>
      <trkpt lat="43.23383" lon="0.00091">
        <ele>328.91</ele>
        <time>2021-08-19T16:04:55Z</time>
      </trkpt>
      <trkpt lat="43.23383" lon="0.00091">
        <ele>328.91</ele>
        <time>2021-08-19T16:05:10Z</time>
      </trkpt>
      <trkpt lat="43.23382" lon="0.00089">
        <ele>328.91</ele>
        <time>2021-08-19T16:05:24Z</time>
      </trkpt>
      <trkpt lat="43.2338" lon="0.00089">
        <ele>328.91</ele>
        <time>2021-08-19T16:05:43Z</time>
      </trkpt>
      <trkpt lat="43.2338" lon="0.0009">
        <ele>328.91</ele>
        <time>2021-08-19T16:05:57Z</time>
      </trkpt>
      <trkpt lat="43.2338" lon="0.0009">
        <ele>328.91</ele>
        <time>2021-08-19T16:06:13Z</time>
      </trkpt>
      <trkpt lat="43.23377" lon="0.00093">
        <ele>328.91</ele>
        <time>2021-08-19T16:06:27Z</time>
      </trkpt>
      <trkpt lat="43.23375" lon="0.00093">
        <ele>328.91</ele>
        <time>2021-08-19T16:06:37Z</time>
      </trkpt>
      <trkpt lat="43.23375" lon="0.00102">
        <ele>328.91</ele>
        <time>2021-08-19T16:06:45Z</time>
      </trkpt>
      <trkpt lat="43.23375" lon="0.00103">
        <ele>328.91</ele>
        <time>2021-08-19T16:06:46Z</time>
      </trkpt>
      <trkpt lat="43.23371" lon="0.0011">
        <ele>328.91</ele>
        <time>2021-08-19T16:06:54Z</time>
      </trkpt>
      <trkpt lat="43.2337" lon="0.00111">
        <ele>328.91</ele>
        <time>2021-08-19T16:07:10Z</time>
      </trkpt>
      <trkpt lat="43.23369" lon="0.00112">
        <ele>328.91</ele>
        <time>2021-08-19T16:07:22Z</time>
      </trkpt>
      <trkpt lat="43.2337" lon="0.00113">
        <ele>328.91</ele>
        <time>2021-08-19T16:07:33Z</time>
      </trkpt>
      <trkpt lat="43.23368" lon="0.00115">
        <ele>328.91</ele>
        <time>2021-08-19T16:07:36Z</time>
      </trkpt>
      <trkpt lat="43.23366" lon="0.00118">
        <ele>328.91</ele>
        <time>2021-08-19T16:07:38Z</time>
      </trkpt>
      <trkpt lat="43.23364" lon="0.00119">
        <ele>328.91</ele>
        <time>2021-08-19T16:07:39Z</time>
      </trkpt>
      <trkpt lat="43.23362" lon="0.00121">
        <ele>328.91</ele>
        <time>2021-08-19T16:07:40Z</time>
      </trkpt>
      <trkpt lat="43.2336" lon="0.00123">
        <ele>328.91</ele>
        <time>2021-08-19T16:07:41Z</time>
      </trkpt>
      <trkpt lat="43.23358" lon="0.00126">
        <ele>328.91</ele>
        <time>2021-08-19T16:07:42Z</time>
      </trkpt>
      <trkpt lat="43.23356" lon="0.00127">
        <ele>328.91</ele>
        <time>2021-08-19T16:07:43Z</time>
      </trkpt>
      <trkpt lat="43.23353" lon="0.00128">
        <ele>328.91</ele>
        <time>2021-08-19T16:07:44Z</time>
      </trkpt>
      <trkpt lat="43.2335" lon="0.00127">
        <ele>328.91</ele>
        <time>2021-08-19T16:07:45Z</time>
      </trkpt>
      <trkpt lat="43.23347" lon="0.00126">
        <ele>328.91</ele>
        <time>2021-08-19T16:07:46Z</time>
      </trkpt>
      <trkpt lat="43.23344" lon="0.00124">
        <ele>328.91</ele>
        <time>2021-08-19T16:07:47Z</time>
      </trkpt>
      <trkpt lat="43.23309" lon="0.00107">
        <ele>328.91</ele>
        <time>2021-08-19T16:07:57Z</time>
      </trkpt>
      <trkpt lat="43.23288" lon="0.001">
        <ele>329.39</ele>
        <time>2021-08-19T16:08:02Z</time>
      </trkpt>
      <trkpt lat="43.23285" lon="0.00098">
        <ele>329.39</ele>
        <time>2021-08-19T16:08:03Z</time>
      </trkpt>
      <trkpt lat="43.23281" lon="0.00096">
        <ele>328.91</ele>
        <time>2021-08-19T16:08:04Z</time>
      </trkpt>
      <trkpt lat="43.23252" lon="0.00076">
        <ele>328.91</ele>
        <time>2021-08-19T16:08:12Z</time>
      </trkpt>
      <trkpt lat="43.23234" lon="0.00069">
        <ele>328.91</ele>
        <time>2021-08-19T16:08:16Z</time>
      </trkpt>
      <trkpt lat="43.23198" lon="0.00064">
        <ele>328.91</ele>
        <time>2021-08-19T16:08:24Z</time>
      </trkpt>
      <trkpt lat="43.23179" lon="0.0006">
        <ele>328.91</ele>
        <time>2021-08-19T16:08:28Z</time>
      </trkpt>
      <trkpt lat="43.23139" lon="0.00037">
        <ele>329.39</ele>
        <time>2021-08-19T16:08:36Z</time>
      </trkpt>
      <trkpt lat="43.23103" lon="0.00016">
        <ele>329.39</ele>
        <time>2021-08-19T16:08:43Z</time>
      </trkpt>
      <trkpt lat="43.23098" lon="0.00014">
        <ele>329.39</ele>
        <time>2021-08-19T16:08:44Z</time>
      </trkpt>
      <trkpt lat="43.23054" lon="4.0E-5">
        <ele>329.87</ele>
        <time>2021-08-19T16:08:52Z</time>
      </trkpt>
      <trkpt lat="43.23001" lon="-0.00013">
        <ele>330.35</ele>
        <time>2021-08-19T16:09:02Z</time>
      </trkpt>
      <trkpt lat="43.22963" lon="-0.00015">
        <ele>330.35</ele>
        <time>2021-08-19T16:09:09Z</time>
      </trkpt>
      <trkpt lat="43.22913" lon="-0.00017">
        <ele>330.83</ele>
        <time>2021-08-19T16:09:18Z</time>
      </trkpt>
      <trkpt lat="43.22902" lon="-0.00018">
        <ele>330.83</ele>
        <time>2021-08-19T16:09:20Z</time>
      </trkpt>
      <trkpt lat="43.22864" lon="-0.00028">
        <ele>331.31</ele>
        <time>2021-08-19T16:09:27Z</time>
      </trkpt>
      <trkpt lat="43.22827" lon="-0.00038">
        <ele>331.31</ele>
        <time>2021-08-19T16:09:34Z</time>
      </trkpt>
      <trkpt lat="43.22805" lon="-0.0004">
        <ele>331.31</ele>
        <time>2021-08-19T16:09:38Z</time>
      </trkpt>
      <trkpt lat="43.228" lon="-0.0004">
        <ele>331.79</ele>
        <time>2021-08-19T16:09:39Z</time>
      </trkpt>
      <trkpt lat="43.22795" lon="-0.0004">
        <ele>331.79</ele>
        <time>2021-08-19T16:09:40Z</time>
      </trkpt>
      <trkpt lat="43.2279" lon="-0.00041">
        <ele>332.27</ele>
        <time>2021-08-19T16:09:41Z</time>
      </trkpt>
      <trkpt lat="43.22785" lon="-0.00044">
        <ele>332.27</ele>
        <time>2021-08-19T16:09:42Z</time>
      </trkpt>
      <trkpt lat="43.2278" lon="-0.00046">
        <ele>332.27</ele>
        <time>2021-08-19T16:09:43Z</time>
      </trkpt>
      <trkpt lat="43.22775" lon="-0.00049">
        <ele>332.27</ele>
        <time>2021-08-19T16:09:44Z</time>
      </trkpt>
      <trkpt lat="43.22771" lon="-0.00051">
        <ele>332.27</ele>
        <time>2021-08-19T16:09:45Z</time>
      </trkpt>
      <trkpt lat="43.22766" lon="-0.00053">
        <ele>332.27</ele>
        <time>2021-08-19T16:09:46Z</time>
      </trkpt>
      <trkpt lat="43.22761" lon="-0.00055">
        <ele>332.75</ele>
        <time>2021-08-19T16:09:47Z</time>
      </trkpt>
      <trkpt lat="43.22756" lon="-0.00056">
        <ele>332.75</ele>
        <time>2021-08-19T16:09:48Z</time>
      </trkpt>
      <trkpt lat="43.22711" lon="-0.00075">
        <ele>332.75</ele>
        <time>2021-08-19T16:09:57Z</time>
      </trkpt>
      <trkpt lat="43.22691" lon="-0.00086">
        <ele>333.71</ele>
        <time>2021-08-19T16:10:01Z</time>
      </trkpt>
      <trkpt lat="43.22686" lon="-0.00087">
        <ele>333.71</ele>
        <time>2021-08-19T16:10:02Z</time>
      </trkpt>
      <trkpt lat="43.22659" lon="-0.00095">
        <ele>333.71</ele>
        <time>2021-08-19T16:10:07Z</time>
      </trkpt>
      <trkpt lat="43.2261" lon="-0.0012">
        <ele>334.2</ele>
        <time>2021-08-19T16:10:17Z</time>
      </trkpt>
      <trkpt lat="43.22573" lon="-0.00146">
        <ele>334.68</ele>
        <time>2021-08-19T16:10:25Z</time>
      </trkpt>
      <trkpt lat="43.22536" lon="-0.00169">
        <ele>335.16</ele>
        <time>2021-08-19T16:10:33Z</time>
      </trkpt>
      <trkpt lat="43.22499" lon="-0.00188">
        <ele>335.64</ele>
        <time>2021-08-19T16:10:41Z</time>
      </trkpt>
      <trkpt lat="43.22492" lon="-0.00191">
        <ele>336.12</ele>
        <time>2021-08-19T16:10:42Z</time>
      </trkpt>
      <trkpt lat="43.22461" lon="-0.00204">
        <ele>336.12</ele>
        <time>2021-08-19T16:10:48Z</time>
      </trkpt>
      <trkpt lat="43.22421" lon="-0.00219">
        <ele>336.6</ele>
        <time>2021-08-19T16:10:56Z</time>
      </trkpt>
      <trkpt lat="43.22374" lon="-0.0024">
        <ele>337.08</ele>
        <time>2021-08-19T16:11:06Z</time>
      </trkpt>
      <trkpt lat="43.22341" lon="-0.00258">
        <ele>337.56</ele>
        <time>2021-08-19T16:11:13Z</time>
      </trkpt>
      <trkpt lat="43.22301" lon="-0.00285">
        <ele>338.04</ele>
        <time>2021-08-19T16:11:22Z</time>
      </trkpt>
      <trkpt lat="43.22261" lon="-0.00313">
        <ele>339.48</ele>
        <time>2021-08-19T16:11:32Z</time>
      </trkpt>
      <trkpt lat="43.22221" lon="-0.00341">
        <ele>341.41</ele>
        <time>2021-08-19T16:11:43Z</time>
      </trkpt>
      <trkpt lat="43.222" lon="-0.00358">
        <ele>342.37</ele>
        <time>2021-08-19T16:11:50Z</time>
      </trkpt>
      <trkpt lat="43.22172" lon="-0.00379">
        <ele>343.33</ele>
        <time>2021-08-19T16:11:58Z</time>
      </trkpt>
      <trkpt lat="43.22133" lon="-0.00407">
        <ele>343.33</ele>
        <time>2021-08-19T16:12:07Z</time>
      </trkpt>
      <trkpt lat="43.22095" lon="-0.00431">
        <ele>341.89</ele>
        <time>2021-08-19T16:12:14Z</time>
      </trkpt>
      <trkpt lat="43.2204" lon="-0.00458">
        <ele>339.96</ele>
        <time>2021-08-19T16:12:22Z</time>
      </trkpt>
      <trkpt lat="43.21982" lon="-0.00487">
        <ele>339.96</ele>
        <time>2021-08-19T16:12:31Z</time>
      </trkpt>
      <trkpt lat="43.21905" lon="-0.00517">
        <ele>340.92</ele>
        <time>2021-08-19T16:12:43Z</time>
      </trkpt>
      <trkpt lat="43.21835" lon="-0.00542">
        <ele>341.41</ele>
        <time>2021-08-19T16:12:54Z</time>
      </trkpt>
      <trkpt lat="43.2179" lon="-0.00558">
        <ele>341.89</ele>
        <time>2021-08-19T16:13:01Z</time>
      </trkpt>
      <trkpt lat="43.2173" lon="-0.00596">
        <ele>341.89</ele>
        <time>2021-08-19T16:13:11Z</time>
      </trkpt>
      <trkpt lat="43.21676" lon="-0.00629">
        <ele>342.37</ele>
        <time>2021-08-19T16:13:20Z</time>
      </trkpt>
      <trkpt lat="43.21627" lon="-0.00652">
        <ele>342.37</ele>
        <time>2021-08-19T16:13:28Z</time>
      </trkpt>
      <trkpt lat="43.21572" lon="-0.00673">
        <ele>342.85</ele>
        <time>2021-08-19T16:13:37Z</time>
      </trkpt>
      <trkpt lat="43.21512" lon="-0.00699">
        <ele>343.33</ele>
        <time>2021-08-19T16:13:47Z</time>
      </trkpt>
      <trkpt lat="43.21446" lon="-0.00724">
        <ele>343.33</ele>
        <time>2021-08-19T16:13:58Z</time>
      </trkpt>
      <trkpt lat="43.21393" lon="-0.00735">
        <ele>343.81</ele>
        <time>2021-08-19T16:14:07Z</time>
      </trkpt>
      <trkpt lat="43.21351" lon="-0.00738">
        <ele>343.81</ele>
        <time>2021-08-19T16:14:14Z</time>
      </trkpt>
      <trkpt lat="43.21305" lon="-0.00738">
        <ele>344.29</ele>
        <time>2021-08-19T16:14:22Z</time>
      </trkpt>
      <trkpt lat="43.213" lon="-0.00738">
        <ele>344.29</ele>
        <time>2021-08-19T16:14:23Z</time>
      </trkpt>
      <trkpt lat="43.2127" lon="-0.0073">
        <ele>344.29</ele>
        <time>2021-08-19T16:14:29Z</time>
      </trkpt>
      <trkpt lat="43.21265" lon="-0.00727">
        <ele>344.29</ele>
        <time>2021-08-19T16:14:30Z</time>
      </trkpt>
      <trkpt lat="43.2124" lon="-0.00712">
        <ele>344.77</ele>
        <time>2021-08-19T16:14:35Z</time>
      </trkpt>
      <trkpt lat="43.21213" lon="-0.00704">
        <ele>344.77</ele>
        <time>2021-08-19T16:14:40Z</time>
      </trkpt>
      <trkpt lat="43.21167" lon="-0.00701">
        <ele>345.25</ele>
        <time>2021-08-19T16:14:49Z</time>
      </trkpt>
      <trkpt lat="43.21161" lon="-0.00702">
        <ele>345.25</ele>
        <time>2021-08-19T16:14:50Z</time>
      </trkpt>
      <trkpt lat="43.21157" lon="-0.00703">
        <ele>345.25</ele>
        <time>2021-08-19T16:14:51Z</time>
      </trkpt>
      <trkpt lat="43.21151" lon="-0.00703">
        <ele>345.25</ele>
        <time>2021-08-19T16:14:52Z</time>
      </trkpt>
      <trkpt lat="43.21146" lon="-0.00702">
        <ele>345.25</ele>
        <time>2021-08-19T16:14:53Z</time>
      </trkpt>
      <trkpt lat="43.21141" lon="-0.00701">
        <ele>345.25</ele>
        <time>2021-08-19T16:14:54Z</time>
      </trkpt>
      <trkpt lat="43.21137" lon="-0.007">
        <ele>345.25</ele>
        <time>2021-08-19T16:14:55Z</time>
      </trkpt>
      <trkpt lat="43.21091" lon="-0.00694">
        <ele>345.73</ele>
        <time>2021-08-19T16:15:04Z</time>
      </trkpt>
      <trkpt lat="43.21065" lon="-0.0069">
        <ele>346.21</ele>
        <time>2021-08-19T16:15:09Z</time>
      </trkpt>
      <trkpt lat="43.2106" lon="-0.00688">
        <ele>346.21</ele>
        <time>2021-08-19T16:15:10Z</time>
      </trkpt>
      <trkpt lat="43.21034" lon="-0.00681">
        <ele>346.69</ele>
        <time>2021-08-19T16:15:15Z</time>
      </trkpt>
      <trkpt lat="43.21029" lon="-0.00679">
        <ele>346.69</ele>
        <time>2021-08-19T16:15:16Z</time>
      </trkpt>
      <trkpt lat="43.21013" lon="-0.00677">
        <ele>346.69</ele>
        <time>2021-08-19T16:15:19Z</time>
      </trkpt>
      <trkpt lat="43.21009" lon="-0.00678">
        <ele>346.69</ele>
        <time>2021-08-19T16:15:20Z</time>
      </trkpt>
      <trkpt lat="43.20998" lon="-0.0068">
        <ele>346.69</ele>
        <time>2021-08-19T16:15:22Z</time>
      </trkpt>
      <trkpt lat="43.20988" lon="-0.00685">
        <ele>346.69</ele>
        <time>2021-08-19T16:15:24Z</time>
      </trkpt>
      <trkpt lat="43.20983" lon="-0.00688">
        <ele>346.69</ele>
        <time>2021-08-19T16:15:25Z</time>
      </trkpt>
      <trkpt lat="43.20973" lon="-0.00696">
        <ele>346.69</ele>
        <time>2021-08-19T16:15:27Z</time>
      </trkpt>
      <trkpt lat="43.20969" lon="-0.00699">
        <ele>346.69</ele>
        <time>2021-08-19T16:15:28Z</time>
      </trkpt>
      <trkpt lat="43.20933" lon="-0.00734">
        <ele>346.69</ele>
        <time>2021-08-19T16:15:36Z</time>
      </trkpt>
      <trkpt lat="43.20899" lon="-0.00753">
        <ele>347.65</ele>
        <time>2021-08-19T16:15:43Z</time>
      </trkpt>
      <trkpt lat="43.20895" lon="-0.00757">
        <ele>347.65</ele>
        <time>2021-08-19T16:15:44Z</time>
      </trkpt>
      <trkpt lat="43.20891" lon="-0.0076">
        <ele>347.65</ele>
        <time>2021-08-19T16:15:45Z</time>
      </trkpt>
      <trkpt lat="43.20871" lon="-0.0077">
        <ele>348.13</ele>
        <time>2021-08-19T16:15:49Z</time>
      </trkpt>
      <trkpt lat="43.20861" lon="-0.00774">
        <ele>348.13</ele>
        <time>2021-08-19T16:15:51Z</time>
      </trkpt>
      <trkpt lat="43.20856" lon="-0.00777">
        <ele>348.13</ele>
        <time>2021-08-19T16:15:52Z</time>
      </trkpt>
      <trkpt lat="43.2085" lon="-0.00779">
        <ele>348.13</ele>
        <time>2021-08-19T16:15:53Z</time>
      </trkpt>
      <trkpt lat="43.20802" lon="-0.00787">
        <ele>348.13</ele>
        <time>2021-08-19T16:16:02Z</time>
      </trkpt>
      <trkpt lat="43.20791" lon="-0.0079">
        <ele>348.13</ele>
        <time>2021-08-19T16:16:04Z</time>
      </trkpt>
      <trkpt lat="43.2078" lon="-0.00795">
        <ele>348.62</ele>
        <time>2021-08-19T16:16:06Z</time>
      </trkpt>
      <trkpt lat="43.20775" lon="-0.00799">
        <ele>348.62</ele>
        <time>2021-08-19T16:16:07Z</time>
      </trkpt>
      <trkpt lat="43.20769" lon="-0.00802">
        <ele>348.62</ele>
        <time>2021-08-19T16:16:08Z</time>
      </trkpt>
      <trkpt lat="43.20764" lon="-0.00806">
        <ele>348.62</ele>
        <time>2021-08-19T16:16:09Z</time>
      </trkpt>
      <trkpt lat="43.20759" lon="-0.0081">
        <ele>348.62</ele>
        <time>2021-08-19T16:16:10Z</time>
      </trkpt>
      <trkpt lat="43.20749" lon="-0.0082">
        <ele>348.62</ele>
        <time>2021-08-19T16:16:12Z</time>
      </trkpt>
      <trkpt lat="43.20747" lon="-0.00827">
        <ele>348.62</ele>
        <time>2021-08-19T16:16:13Z</time>
      </trkpt>
      <trkpt lat="43.20744" lon="-0.00833">
        <ele>348.62</ele>
        <time>2021-08-19T16:16:14Z</time>
      </trkpt>
      <trkpt lat="43.20742" lon="-0.00841">
        <ele>348.62</ele>
        <time>2021-08-19T16:16:15Z</time>
      </trkpt>
      <trkpt lat="43.20739" lon="-0.00846">
        <ele>349.1</ele>
        <time>2021-08-19T16:16:16Z</time>
      </trkpt>
      <trkpt lat="43.20736" lon="-0.00853">
        <ele>349.1</ele>
        <time>2021-08-19T16:16:17Z</time>
      </trkpt>
      <trkpt lat="43.20734" lon="-0.0086">
        <ele>349.1</ele>
        <time>2021-08-19T16:16:18Z</time>
      </trkpt>
      <trkpt lat="43.20732" lon="-0.00867">
        <ele>349.1</ele>
        <time>2021-08-19T16:16:19Z</time>
      </trkpt>
      <trkpt lat="43.20728" lon="-0.00873">
        <ele>349.1</ele>
        <time>2021-08-19T16:16:20Z</time>
      </trkpt>
      <trkpt lat="43.20724" lon="-0.00878">
        <ele>349.1</ele>
        <time>2021-08-19T16:16:21Z</time>
      </trkpt>
      <trkpt lat="43.2072" lon="-0.00883">
        <ele>349.1</ele>
        <time>2021-08-19T16:16:22Z</time>
      </trkpt>
      <trkpt lat="43.20715" lon="-0.00884">
        <ele>349.1</ele>
        <time>2021-08-19T16:16:23Z</time>
      </trkpt>
      <trkpt lat="43.2071" lon="-0.00885">
        <ele>349.1</ele>
        <time>2021-08-19T16:16:24Z</time>
      </trkpt>
      <trkpt lat="43.20704" lon="-0.00885">
        <ele>349.1</ele>
        <time>2021-08-19T16:16:25Z</time>
      </trkpt>
      <trkpt lat="43.20699" lon="-0.00885">
        <ele>349.1</ele>
        <time>2021-08-19T16:16:26Z</time>
      </trkpt>
      <trkpt lat="43.20642" lon="-0.00881">
        <ele>349.58</ele>
        <time>2021-08-19T16:16:36Z</time>
      </trkpt>
      <trkpt lat="43.20604" lon="-0.00875">
        <ele>350.54</ele>
        <time>2021-08-19T16:16:43Z</time>
      </trkpt>
      <trkpt lat="43.20559" lon="-0.0087">
        <ele>351.02</ele>
        <time>2021-08-19T16:16:52Z</time>
      </trkpt>
      <trkpt lat="43.20536" lon="-0.0087">
        <ele>351.02</ele>
        <time>2021-08-19T16:16:56Z</time>
      </trkpt>
      <trkpt lat="43.20531" lon="-0.00871">
        <ele>351.02</ele>
        <time>2021-08-19T16:16:57Z</time>
      </trkpt>
      <trkpt lat="43.2049" lon="-0.00891">
        <ele>351.98</ele>
        <time>2021-08-19T16:17:05Z</time>
      </trkpt>
      <trkpt lat="43.20482" lon="-0.00898">
        <ele>351.98</ele>
        <time>2021-08-19T16:17:07Z</time>
      </trkpt>
      <trkpt lat="43.20478" lon="-0.00903">
        <ele>351.98</ele>
        <time>2021-08-19T16:17:08Z</time>
      </trkpt>
      <trkpt lat="43.20476" lon="-0.00909">
        <ele>351.98</ele>
        <time>2021-08-19T16:17:09Z</time>
      </trkpt>
      <trkpt lat="43.20473" lon="-0.00914">
        <ele>351.98</ele>
        <time>2021-08-19T16:17:10Z</time>
      </trkpt>
      <trkpt lat="43.2047" lon="-0.00919">
        <ele>352.46</ele>
        <time>2021-08-19T16:17:11Z</time>
      </trkpt>
      <trkpt lat="43.20444" lon="-0.00962">
        <ele>352.46</ele>
        <time>2021-08-19T16:17:19Z</time>
      </trkpt>
      <trkpt lat="43.20436" lon="-0.00978">
        <ele>352.46</ele>
        <time>2021-08-19T16:17:22Z</time>
      </trkpt>
      <trkpt lat="43.20409" lon="-0.01023">
        <ele>352.46</ele>
        <time>2021-08-19T16:17:31Z</time>
      </trkpt>
      <trkpt lat="43.20376" lon="-0.01071">
        <ele>352.46</ele>
        <time>2021-08-19T16:17:40Z</time>
      </trkpt>
      <trkpt lat="43.20349" lon="-0.01106">
        <ele>353.42</ele>
        <time>2021-08-19T16:17:47Z</time>
      </trkpt>
      <trkpt lat="43.20346" lon="-0.0111">
        <ele>353.42</ele>
        <time>2021-08-19T16:17:48Z</time>
      </trkpt>
      <trkpt lat="43.20338" lon="-0.0112">
        <ele>353.42</ele>
        <time>2021-08-19T16:17:50Z</time>
      </trkpt>
      <trkpt lat="43.20303" lon="-0.01161">
        <ele>353.42</ele>
        <time>2021-08-19T16:17:59Z</time>
      </trkpt>
      <trkpt lat="43.20256" lon="-0.01216">
        <ele>354.38</ele>
        <time>2021-08-19T16:18:11Z</time>
      </trkpt>
      <trkpt lat="43.20218" lon="-0.0126">
        <ele>354.38</ele>
        <time>2021-08-19T16:18:21Z</time>
      </trkpt>
      <trkpt lat="43.20206" lon="-0.01274">
        <ele>354.38</ele>
        <time>2021-08-19T16:18:24Z</time>
      </trkpt>
      <trkpt lat="43.20201" lon="-0.01278">
        <ele>354.38</ele>
        <time>2021-08-19T16:18:25Z</time>
      </trkpt>
      <trkpt lat="43.20178" lon="-0.01306">
        <ele>354.38</ele>
        <time>2021-08-19T16:18:31Z</time>
      </trkpt>
      <trkpt lat="43.20174" lon="-0.01311">
        <ele>354.38</ele>
        <time>2021-08-19T16:18:32Z</time>
      </trkpt>
      <trkpt lat="43.20128" lon="-0.01365">
        <ele>354.38</ele>
        <time>2021-08-19T16:18:43Z</time>
      </trkpt>
      <trkpt lat="43.20082" lon="-0.0142">
        <ele>354.86</ele>
        <time>2021-08-19T16:18:54Z</time>
      </trkpt>
      <trkpt lat="43.20031" lon="-0.01467">
        <ele>355.34</ele>
        <time>2021-08-19T16:19:05Z</time>
      </trkpt>
      <trkpt lat="43.19994" lon="-0.01499">
        <ele>355.83</ele>
        <time>2021-08-19T16:19:13Z</time>
      </trkpt>
      <trkpt lat="43.1995" lon="-0.01535">
        <ele>355.83</ele>
        <time>2021-08-19T16:19:22Z</time>
      </trkpt>
      <trkpt lat="43.19902" lon="-0.01573">
        <ele>356.31</ele>
        <time>2021-08-19T16:19:32Z</time>
      </trkpt>
      <trkpt lat="43.1987" lon="-0.01601">
        <ele>356.79</ele>
        <time>2021-08-19T16:19:39Z</time>
      </trkpt>
      <trkpt lat="43.19852" lon="-0.01614">
        <ele>356.79</ele>
        <time>2021-08-19T16:19:43Z</time>
      </trkpt>
      <trkpt lat="43.19844" lon="-0.0162">
        <ele>357.27</ele>
        <time>2021-08-19T16:19:45Z</time>
      </trkpt>
      <trkpt lat="43.1982" lon="-0.01638">
        <ele>357.27</ele>
        <time>2021-08-19T16:19:51Z</time>
      </trkpt>
      <trkpt lat="43.19785" lon="-0.01666">
        <ele>357.75</ele>
        <time>2021-08-19T16:20:00Z</time>
      </trkpt>
      <trkpt lat="43.19774" lon="-0.01673">
        <ele>357.75</ele>
        <time>2021-08-19T16:20:03Z</time>
      </trkpt>
      <trkpt lat="43.19771" lon="-0.01677">
        <ele>357.75</ele>
        <time>2021-08-19T16:20:04Z</time>
      </trkpt>
      <trkpt lat="43.19768" lon="-0.0168">
        <ele>357.75</ele>
        <time>2021-08-19T16:20:05Z</time>
      </trkpt>
      <trkpt lat="43.1973" lon="-0.0171">
        <ele>357.75</ele>
        <time>2021-08-19T16:20:14Z</time>
      </trkpt>
      <trkpt lat="43.19686" lon="-0.01745">
        <ele>357.75</ele>
        <time>2021-08-19T16:20:23Z</time>
      </trkpt>
      <trkpt lat="43.19666" lon="-0.01761">
        <ele>358.23</ele>
        <time>2021-08-19T16:20:27Z</time>
      </trkpt>
      <trkpt lat="43.1966" lon="-0.01765">
        <ele>358.23</ele>
        <time>2021-08-19T16:20:28Z</time>
      </trkpt>
      <trkpt lat="43.19604" lon="-0.01811">
        <ele>358.71</ele>
        <time>2021-08-19T16:20:38Z</time>
      </trkpt>
      <trkpt lat="43.19565" lon="-0.01835">
        <ele>359.19</ele>
        <time>2021-08-19T16:20:44Z</time>
      </trkpt>
      <trkpt lat="43.19546" lon="-0.01843">
        <ele>359.19</ele>
        <time>2021-08-19T16:20:47Z</time>
      </trkpt>
      <trkpt lat="43.19539" lon="-0.01845">
        <ele>359.19</ele>
        <time>2021-08-19T16:20:48Z</time>
      </trkpt>
      <trkpt lat="43.19532" lon="-0.01847">
        <ele>360.15</ele>
        <time>2021-08-19T16:20:49Z</time>
      </trkpt>
      <trkpt lat="43.19466" lon="-0.0188">
        <ele>360.15</ele>
        <time>2021-08-19T16:21:00Z</time>
      </trkpt>
      <trkpt lat="43.19399" lon="-0.01913">
        <ele>360.63</ele>
        <time>2021-08-19T16:21:11Z</time>
      </trkpt>
      <trkpt lat="43.1935" lon="-0.01932">
        <ele>360.63</ele>
        <time>2021-08-19T16:21:19Z</time>
      </trkpt>
      <trkpt lat="43.19331" lon="-0.01939">
        <ele>360.63</ele>
        <time>2021-08-19T16:21:22Z</time>
      </trkpt>
      <trkpt lat="43.19272" lon="-0.01962">
        <ele>361.59</ele>
        <time>2021-08-19T16:21:32Z</time>
      </trkpt>
      <trkpt lat="43.1922" lon="-0.01979">
        <ele>362.07</ele>
        <time>2021-08-19T16:21:41Z</time>
      </trkpt>
      <trkpt lat="43.19204" lon="-0.01986">
        <ele>362.07</ele>
        <time>2021-08-19T16:21:44Z</time>
      </trkpt>
      <trkpt lat="43.19156" lon="-0.02004">
        <ele>363.04</ele>
        <time>2021-08-19T16:21:53Z</time>
      </trkpt>
      <trkpt lat="43.19135" lon="-0.02012">
        <ele>363.04</ele>
        <time>2021-08-19T16:21:57Z</time>
      </trkpt>
      <trkpt lat="43.19117" lon="-0.02021">
        <ele>364.48</ele>
        <time>2021-08-19T16:22:02Z</time>
      </trkpt>
      <trkpt lat="43.19109" lon="-0.0204">
        <ele>364.48</ele>
        <time>2021-08-19T16:22:06Z</time>
      </trkpt>
      <trkpt lat="43.19108" lon="-0.02045">
        <ele>364.48</ele>
        <time>2021-08-19T16:22:07Z</time>
      </trkpt>
      <trkpt lat="43.19108" lon="-0.02051">
        <ele>364.48</ele>
        <time>2021-08-19T16:22:08Z</time>
      </trkpt>
      <trkpt lat="43.19093" lon="-0.02119">
        <ele>364.96</ele>
        <time>2021-08-19T16:22:18Z</time>
      </trkpt>
      <trkpt lat="43.19072" lon="-0.02174">
        <ele>364.96</ele>
        <time>2021-08-19T16:22:26Z</time>
      </trkpt>
      <trkpt lat="43.19041" lon="-0.02218">
        <ele>363.52</ele>
        <time>2021-08-19T16:22:33Z</time>
      </trkpt>
      <trkpt lat="43.19003" lon="-0.02245">
        <ele>363.52</ele>
        <time>2021-08-19T16:22:40Z</time>
      </trkpt>
      <trkpt lat="43.1893" lon="-0.0228">
        <ele>363.52</ele>
        <time>2021-08-19T16:22:53Z</time>
      </trkpt>
      <trkpt lat="43.18883" lon="-0.02303">
        <ele>365.44</ele>
        <time>2021-08-19T16:23:02Z</time>
      </trkpt>
      <trkpt lat="43.18867" lon="-0.02312">
        <ele>365.44</ele>
        <time>2021-08-19T16:23:05Z</time>
      </trkpt>
      <trkpt lat="43.18863" lon="-0.02314">
        <ele>365.44</ele>
        <time>2021-08-19T16:23:06Z</time>
      </trkpt>
      <trkpt lat="43.18851" lon="-0.02317">
        <ele>365.44</ele>
        <time>2021-08-19T16:23:08Z</time>
      </trkpt>
      <trkpt lat="43.18798" lon="-0.02341">
        <ele>365.44</ele>
        <time>2021-08-19T16:23:18Z</time>
      </trkpt>
      <trkpt lat="43.18747" lon="-0.02368">
        <ele>365.92</ele>
        <time>2021-08-19T16:23:28Z</time>
      </trkpt>
      <trkpt lat="43.18732" lon="-0.02379">
        <ele>366.4</ele>
        <time>2021-08-19T16:23:31Z</time>
      </trkpt>
      <trkpt lat="43.18692" lon="-0.02419">
        <ele>366.88</ele>
        <time>2021-08-19T16:23:40Z</time>
      </trkpt>
      <trkpt lat="43.18678" lon="-0.02432">
        <ele>366.88</ele>
        <time>2021-08-19T16:23:43Z</time>
      </trkpt>
      <trkpt lat="43.1864" lon="-0.02467">
        <ele>367.36</ele>
        <time>2021-08-19T16:23:51Z</time>
      </trkpt>
      <trkpt lat="43.18602" lon="-0.02507">
        <ele>367.36</ele>
        <time>2021-08-19T16:23:59Z</time>
      </trkpt>
      <trkpt lat="43.18583" lon="-0.02526">
        <ele>367.36</ele>
        <time>2021-08-19T16:24:03Z</time>
      </trkpt>
      <trkpt lat="43.18569" lon="-0.02541">
        <ele>367.84</ele>
        <time>2021-08-19T16:24:06Z</time>
      </trkpt>
      <trkpt lat="43.18559" lon="-0.02549">
        <ele>367.84</ele>
        <time>2021-08-19T16:24:08Z</time>
      </trkpt>
      <trkpt lat="43.18532" lon="-0.02577">
        <ele>368.8</ele>
        <time>2021-08-19T16:24:15Z</time>
      </trkpt>
      <trkpt lat="43.18518" lon="-0.02586">
        <ele>368.8</ele>
        <time>2021-08-19T16:24:20Z</time>
      </trkpt>
      <trkpt lat="43.18515" lon="-0.02586">
        <ele>368.8</ele>
        <time>2021-08-19T16:24:21Z</time>
      </trkpt>
      <trkpt lat="43.18506" lon="-0.02588">
        <ele>368.8</ele>
        <time>2021-08-19T16:24:23Z</time>
      </trkpt>
      <trkpt lat="43.18488" lon="-0.02587">
        <ele>369.28</ele>
        <time>2021-08-19T16:24:27Z</time>
      </trkpt>
      <trkpt lat="43.18483" lon="-0.02586">
        <ele>369.28</ele>
        <time>2021-08-19T16:24:28Z</time>
      </trkpt>
      <trkpt lat="43.18436" lon="-0.0258">
        <ele>369.28</ele>
        <time>2021-08-19T16:24:38Z</time>
      </trkpt>
      <trkpt lat="43.18432" lon="-0.02577">
        <ele>369.28</ele>
        <time>2021-08-19T16:24:39Z</time>
      </trkpt>
      <trkpt lat="43.18429" lon="-0.02572">
        <ele>369.28</ele>
        <time>2021-08-19T16:24:40Z</time>
      </trkpt>
      <trkpt lat="43.18427" lon="-0.02566">
        <ele>369.76</ele>
        <time>2021-08-19T16:24:41Z</time>
      </trkpt>
      <trkpt lat="43.18426" lon="-0.02561">
        <ele>369.76</ele>
        <time>2021-08-19T16:24:42Z</time>
      </trkpt>
      <trkpt lat="43.18419" lon="-0.02507">
        <ele>369.76</ele>
        <time>2021-08-19T16:24:50Z</time>
      </trkpt>
      <trkpt lat="43.18417" lon="-0.02493">
        <ele>369.76</ele>
        <time>2021-08-19T16:24:52Z</time>
      </trkpt>
      <trkpt lat="43.18415" lon="-0.02487">
        <ele>369.76</ele>
        <time>2021-08-19T16:24:53Z</time>
      </trkpt>
      <trkpt lat="43.18414" lon="-0.0248">
        <ele>369.76</ele>
        <time>2021-08-19T16:24:54Z</time>
      </trkpt>
      <trkpt lat="43.18414" lon="-0.02473">
        <ele>369.76</ele>
        <time>2021-08-19T16:24:55Z</time>
      </trkpt>
      <trkpt lat="43.18413" lon="-0.02465">
        <ele>369.76</ele>
        <time>2021-08-19T16:24:56Z</time>
      </trkpt>
      <trkpt lat="43.18413" lon="-0.02458">
        <ele>370.24</ele>
        <time>2021-08-19T16:24:57Z</time>
      </trkpt>
      <trkpt lat="43.18407" lon="-0.02393">
        <ele>370.24</ele>
        <time>2021-08-19T16:25:06Z</time>
      </trkpt>
      <trkpt lat="43.18406" lon="-0.02379">
        <ele>370.24</ele>
        <time>2021-08-19T16:25:08Z</time>
      </trkpt>
      <trkpt lat="43.18408" lon="-0.02308">
        <ele>370.24</ele>
        <time>2021-08-19T16:25:17Z</time>
      </trkpt>
      <trkpt lat="43.18407" lon="-0.02232">
        <ele>370.24</ele>
        <time>2021-08-19T16:25:27Z</time>
      </trkpt>
      <trkpt lat="43.18405" lon="-0.02224">
        <ele>370.24</ele>
        <time>2021-08-19T16:25:28Z</time>
      </trkpt>
      <trkpt lat="43.18403" lon="-0.02219">
        <ele>370.73</ele>
        <time>2021-08-19T16:25:29Z</time>
      </trkpt>
      <trkpt lat="43.18399" lon="-0.02213">
        <ele>370.73</ele>
        <time>2021-08-19T16:25:30Z</time>
      </trkpt>
      <trkpt lat="43.18395" lon="-0.0221">
        <ele>370.73</ele>
        <time>2021-08-19T16:25:31Z</time>
      </trkpt>
      <trkpt lat="43.18389" lon="-0.02208">
        <ele>370.73</ele>
        <time>2021-08-19T16:25:32Z</time>
      </trkpt>
      <trkpt lat="43.18385" lon="-0.02207">
        <ele>370.73</ele>
        <time>2021-08-19T16:25:33Z</time>
      </trkpt>
      <trkpt lat="43.1838" lon="-0.02208">
        <ele>371.21</ele>
        <time>2021-08-19T16:25:34Z</time>
      </trkpt>
      <trkpt lat="43.18375" lon="-0.02209">
        <ele>371.21</ele>
        <time>2021-08-19T16:25:35Z</time>
      </trkpt>
      <trkpt lat="43.1837" lon="-0.02209">
        <ele>371.21</ele>
        <time>2021-08-19T16:25:36Z</time>
      </trkpt>
      <trkpt lat="43.18361" lon="-0.02211">
        <ele>371.69</ele>
        <time>2021-08-19T16:25:38Z</time>
      </trkpt>
      <trkpt lat="43.18357" lon="-0.02211">
        <ele>371.69</ele>
        <time>2021-08-19T16:25:39Z</time>
      </trkpt>
      <trkpt lat="43.18331" lon="-0.02215">
        <ele>372.65</ele>
        <time>2021-08-19T16:25:46Z</time>
      </trkpt>
      <trkpt lat="43.18304" lon="-0.02218">
        <ele>373.13</ele>
        <time>2021-08-19T16:25:54Z</time>
      </trkpt>
      <trkpt lat="43.18291" lon="-0.0222">
        <ele>373.13</ele>
        <time>2021-08-19T16:25:57Z</time>
      </trkpt>
      <trkpt lat="43.18277" lon="-0.02221">
        <ele>373.13</ele>
        <time>2021-08-19T16:26:00Z</time>
      </trkpt>
      <trkpt lat="43.18238" lon="-0.02232">
        <ele>373.61</ele>
        <time>2021-08-19T16:26:08Z</time>
      </trkpt>
      <trkpt lat="43.182" lon="-0.02253">
        <ele>373.13</ele>
        <time>2021-08-19T16:26:17Z</time>
      </trkpt>
      <trkpt lat="43.1819" lon="-0.02259">
        <ele>373.13</ele>
        <time>2021-08-19T16:26:19Z</time>
      </trkpt>
      <trkpt lat="43.1816" lon="-0.02275">
        <ele>373.13</ele>
        <time>2021-08-19T16:26:26Z</time>
      </trkpt>
      <trkpt lat="43.1815" lon="-0.02276">
        <ele>374.09</ele>
        <time>2021-08-19T16:26:30Z</time>
      </trkpt>
      <trkpt lat="43.18149" lon="-0.02274">
        <ele>374.09</ele>
        <time>2021-08-19T16:26:31Z</time>
      </trkpt>
      <trkpt lat="43.18148" lon="-0.02272">
        <ele>374.09</ele>
        <time>2021-08-19T16:26:32Z</time>
      </trkpt>
      <trkpt lat="43.18147" lon="-0.0227">
        <ele>374.09</ele>
        <time>2021-08-19T16:26:33Z</time>
      </trkpt>
      <trkpt lat="43.18146" lon="-0.02267">
        <ele>374.57</ele>
        <time>2021-08-19T16:26:34Z</time>
      </trkpt>
      <trkpt lat="43.18145" lon="-0.02264">
        <ele>374.57</ele>
        <time>2021-08-19T16:26:35Z</time>
      </trkpt>
      <trkpt lat="43.18144" lon="-0.0226">
        <ele>374.57</ele>
        <time>2021-08-19T16:26:36Z</time>
      </trkpt>
      <trkpt lat="43.18143" lon="-0.02251">
        <ele>374.57</ele>
        <time>2021-08-19T16:26:38Z</time>
      </trkpt>
      <trkpt lat="43.1814" lon="-0.02249">
        <ele>374.09</ele>
        <time>2021-08-19T16:26:39Z</time>
      </trkpt>
      <trkpt lat="43.18138" lon="-0.02249">
        <ele>374.57</ele>
        <time>2021-08-19T16:26:40Z</time>
      </trkpt>
      <trkpt lat="43.18135" lon="-0.0225">
        <ele>374.57</ele>
        <time>2021-08-19T16:26:41Z</time>
      </trkpt>
      <trkpt lat="43.18133" lon="-0.02252">
        <ele>374.57</ele>
        <time>2021-08-19T16:26:42Z</time>
      </trkpt>
      <trkpt lat="43.18112" lon="-0.02265">
        <ele>374.09</ele>
        <time>2021-08-19T16:26:49Z</time>
      </trkpt>
      <trkpt lat="43.18074" lon="-0.02279">
        <ele>375.05</ele>
        <time>2021-08-19T16:26:59Z</time>
      </trkpt>
      <trkpt lat="43.18052" lon="-0.02284">
        <ele>375.53</ele>
        <time>2021-08-19T16:27:05Z</time>
      </trkpt>
      <trkpt lat="43.18018" lon="-0.02293">
        <ele>375.05</ele>
        <time>2021-08-19T16:27:14Z</time>
      </trkpt>
      <trkpt lat="43.1801" lon="-0.02294">
        <ele>375.05</ele>
        <time>2021-08-19T16:27:16Z</time>
      </trkpt>
      <trkpt lat="43.18006" lon="-0.02295">
        <ele>375.05</ele>
        <time>2021-08-19T16:27:17Z</time>
      </trkpt>
      <trkpt lat="43.17997" lon="-0.02297">
        <ele>375.05</ele>
        <time>2021-08-19T16:27:19Z</time>
      </trkpt>
      <trkpt lat="43.17948" lon="-0.02303">
        <ele>375.05</ele>
        <time>2021-08-19T16:27:30Z</time>
      </trkpt>
      <trkpt lat="43.17903" lon="-0.02301">
        <ele>376.01</ele>
        <time>2021-08-19T16:27:40Z</time>
      </trkpt>
      <trkpt lat="43.17867" lon="-0.02297">
        <ele>376.01</ele>
        <time>2021-08-19T16:27:48Z</time>
      </trkpt>
      <trkpt lat="43.1783" lon="-0.0229">
        <ele>376.97</ele>
        <time>2021-08-19T16:27:57Z</time>
      </trkpt>
      <trkpt lat="43.17798" lon="-0.02285">
        <ele>377.45</ele>
        <time>2021-08-19T16:28:05Z</time>
      </trkpt>
      <trkpt lat="43.17794" lon="-0.02284">
        <ele>377.45</ele>
        <time>2021-08-19T16:28:06Z</time>
      </trkpt>
      <trkpt lat="43.17773" lon="-0.02279">
        <ele>377.94</ele>
        <time>2021-08-19T16:28:11Z</time>
      </trkpt>
      <trkpt lat="43.17765" lon="-0.02276">
        <ele>377.94</ele>
        <time>2021-08-19T16:28:13Z</time>
      </trkpt>
      <trkpt lat="43.1772" lon="-0.02267">
        <ele>377.94</ele>
        <time>2021-08-19T16:28:23Z</time>
      </trkpt>
      <trkpt lat="43.17679" lon="-0.02257">
        <ele>378.42</ele>
        <time>2021-08-19T16:28:33Z</time>
      </trkpt>
      <trkpt lat="43.17631" lon="-0.02246">
        <ele>379.86</ele>
        <time>2021-08-19T16:28:45Z</time>
      </trkpt>
      <trkpt lat="43.17589" lon="-0.02238">
        <ele>380.34</ele>
        <time>2021-08-19T16:28:55Z</time>
      </trkpt>
      <trkpt lat="43.1754" lon="-0.02227">
        <ele>381.3</ele>
        <time>2021-08-19T16:29:07Z</time>
      </trkpt>
      <trkpt lat="43.175" lon="-0.0222">
        <ele>381.3</ele>
        <time>2021-08-19T16:29:16Z</time>
      </trkpt>
      <trkpt lat="43.17453" lon="-0.0221">
        <ele>382.26</ele>
        <time>2021-08-19T16:29:27Z</time>
      </trkpt>
      <trkpt lat="43.17412" lon="-0.02201">
        <ele>383.22</ele>
        <time>2021-08-19T16:29:37Z</time>
      </trkpt>
      <trkpt lat="43.17383" lon="-0.02195">
        <ele>383.22</ele>
        <time>2021-08-19T16:29:45Z</time>
      </trkpt>
      <trkpt lat="43.17339" lon="-0.02186">
        <ele>383.7</ele>
        <time>2021-08-19T16:29:56Z</time>
      </trkpt>
      <trkpt lat="43.17285" lon="-0.02175">
        <ele>384.18</ele>
        <time>2021-08-19T16:30:09Z</time>
      </trkpt>
      <trkpt lat="43.17261" lon="-0.0217">
        <ele>384.18</ele>
        <time>2021-08-19T16:30:16Z</time>
      </trkpt>
      <trkpt lat="43.17223" lon="-0.02162">
        <ele>384.66</ele>
        <time>2021-08-19T16:30:25Z</time>
      </trkpt>
      <trkpt lat="43.17179" lon="-0.02153">
        <ele>385.15</ele>
        <time>2021-08-19T16:30:35Z</time>
      </trkpt>
      <trkpt lat="43.17148" lon="-0.02146">
        <ele>385.15</ele>
        <time>2021-08-19T16:30:43Z</time>
      </trkpt>
      <trkpt lat="43.17137" lon="-0.02149">
        <ele>386.11</ele>
        <time>2021-08-19T16:30:47Z</time>
      </trkpt>
      <trkpt lat="43.17137" lon="-0.02152">
        <ele>386.11</ele>
        <time>2021-08-19T16:30:48Z</time>
      </trkpt>
      <trkpt lat="43.17135" lon="-0.02182">
        <ele>386.11</ele>
        <time>2021-08-19T16:30:54Z</time>
      </trkpt>
      <trkpt lat="43.17134" lon="-0.02187">
        <ele>386.11</ele>
        <time>2021-08-19T16:30:55Z</time>
      </trkpt>
      <trkpt lat="43.17131" lon="-0.0219">
        <ele>385.15</ele>
        <time>2021-08-19T16:30:56Z</time>
      </trkpt>
      <trkpt lat="43.17128" lon="-0.02192">
        <ele>385.15</ele>
        <time>2021-08-19T16:30:57Z</time>
      </trkpt>
      <trkpt lat="43.17124" lon="-0.02192">
        <ele>385.15</ele>
        <time>2021-08-19T16:30:58Z</time>
      </trkpt>
      <trkpt lat="43.1712" lon="-0.02191">
        <ele>385.15</ele>
        <time>2021-08-19T16:30:59Z</time>
      </trkpt>
      <trkpt lat="43.17116" lon="-0.02189">
        <ele>385.15</ele>
        <time>2021-08-19T16:31:00Z</time>
      </trkpt>
      <trkpt lat="43.17112" lon="-0.02187">
        <ele>385.15</ele>
        <time>2021-08-19T16:31:01Z</time>
      </trkpt>
      <trkpt lat="43.17074" lon="-0.02166">
        <ele>385.15</ele>
        <time>2021-08-19T16:31:10Z</time>
      </trkpt>
      <trkpt lat="43.1705" lon="-0.02157">
        <ele>385.15</ele>
        <time>2021-08-19T16:31:15Z</time>
      </trkpt>
      <trkpt lat="43.17006" lon="-0.02145">
        <ele>386.11</ele>
        <time>2021-08-19T16:31:24Z</time>
      </trkpt>
      <trkpt lat="43.16971" lon="-0.02138">
        <ele>386.11</ele>
        <time>2021-08-19T16:31:31Z</time>
      </trkpt>
      <trkpt lat="43.16966" lon="-0.02137">
        <ele>386.11</ele>
        <time>2021-08-19T16:31:32Z</time>
      </trkpt>
      <trkpt lat="43.1691" lon="-0.02126">
        <ele>387.07</ele>
        <time>2021-08-19T16:31:43Z</time>
      </trkpt>
      <trkpt lat="43.16874" lon="-0.02119">
        <ele>387.07</ele>
        <time>2021-08-19T16:31:50Z</time>
      </trkpt>
      <trkpt lat="43.1682" lon="-0.02122">
        <ele>387.55</ele>
        <time>2021-08-19T16:32:00Z</time>
      </trkpt>
      <trkpt lat="43.16797" lon="-0.02125">
        <ele>387.55</ele>
        <time>2021-08-19T16:32:04Z</time>
      </trkpt>
      <trkpt lat="43.16753" lon="-0.02126">
        <ele>388.03</ele>
        <time>2021-08-19T16:32:12Z</time>
      </trkpt>
      <trkpt lat="43.16706" lon="-0.02126">
        <ele>388.99</ele>
        <time>2021-08-19T16:32:21Z</time>
      </trkpt>
      <trkpt lat="43.16659" lon="-0.02127">
        <ele>389.47</ele>
        <time>2021-08-19T16:32:30Z</time>
      </trkpt>
      <trkpt lat="43.16596" lon="-0.02133">
        <ele>389.95</ele>
        <time>2021-08-19T16:32:42Z</time>
      </trkpt>
      <trkpt lat="43.16559" lon="-0.02143">
        <ele>389.95</ele>
        <time>2021-08-19T16:32:49Z</time>
      </trkpt>
      <trkpt lat="43.16554" lon="-0.02147">
        <ele>389.95</ele>
        <time>2021-08-19T16:32:50Z</time>
      </trkpt>
      <trkpt lat="43.1655" lon="-0.02151">
        <ele>389.95</ele>
        <time>2021-08-19T16:32:51Z</time>
      </trkpt>
      <trkpt lat="43.16546" lon="-0.02155">
        <ele>390.43</ele>
        <time>2021-08-19T16:32:52Z</time>
      </trkpt>
      <trkpt lat="43.16543" lon="-0.0216">
        <ele>390.43</ele>
        <time>2021-08-19T16:32:53Z</time>
      </trkpt>
      <trkpt lat="43.16539" lon="-0.02165">
        <ele>390.43</ele>
        <time>2021-08-19T16:32:54Z</time>
      </trkpt>
      <trkpt lat="43.16536" lon="-0.0217">
        <ele>390.43</ele>
        <time>2021-08-19T16:32:55Z</time>
      </trkpt>
      <trkpt lat="43.16529" lon="-0.0218">
        <ele>390.91</ele>
        <time>2021-08-19T16:32:57Z</time>
      </trkpt>
      <trkpt lat="43.16524" lon="-0.02184">
        <ele>390.91</ele>
        <time>2021-08-19T16:32:58Z</time>
      </trkpt>
      <trkpt lat="43.1652" lon="-0.02187">
        <ele>390.91</ele>
        <time>2021-08-19T16:32:59Z</time>
      </trkpt>
      <trkpt lat="43.16516" lon="-0.0219">
        <ele>390.91</ele>
        <time>2021-08-19T16:33:00Z</time>
      </trkpt>
      <trkpt lat="43.16511" lon="-0.02192">
        <ele>390.91</ele>
        <time>2021-08-19T16:33:01Z</time>
      </trkpt>
      <trkpt lat="43.16505" lon="-0.02193">
        <ele>390.91</ele>
        <time>2021-08-19T16:33:02Z</time>
      </trkpt>
      <trkpt lat="43.16458" lon="-0.022">
        <ele>391.39</ele>
        <time>2021-08-19T16:33:11Z</time>
      </trkpt>
      <trkpt lat="43.16406" lon="-0.02203">
        <ele>392.36</ele>
        <time>2021-08-19T16:33:21Z</time>
      </trkpt>
      <trkpt lat="43.16347" lon="-0.0221">
        <ele>393.8</ele>
        <time>2021-08-19T16:33:33Z</time>
      </trkpt>
      <trkpt lat="43.16315" lon="-0.02221">
        <ele>393.8</ele>
        <time>2021-08-19T16:33:40Z</time>
      </trkpt>
      <trkpt lat="43.1631" lon="-0.02222">
        <ele>393.8</ele>
        <time>2021-08-19T16:33:41Z</time>
      </trkpt>
      <trkpt lat="43.16305" lon="-0.02223">
        <ele>394.76</ele>
        <time>2021-08-19T16:33:42Z</time>
      </trkpt>
      <trkpt lat="43.163" lon="-0.02222">
        <ele>394.76</ele>
        <time>2021-08-19T16:33:43Z</time>
      </trkpt>
      <trkpt lat="43.16295" lon="-0.02223">
        <ele>394.76</ele>
        <time>2021-08-19T16:33:44Z</time>
      </trkpt>
      <trkpt lat="43.1629" lon="-0.02224">
        <ele>394.76</ele>
        <time>2021-08-19T16:33:45Z</time>
      </trkpt>
      <trkpt lat="43.16286" lon="-0.02224">
        <ele>394.76</ele>
        <time>2021-08-19T16:33:46Z</time>
      </trkpt>
      <trkpt lat="43.1628" lon="-0.02224">
        <ele>394.76</ele>
        <time>2021-08-19T16:33:47Z</time>
      </trkpt>
      <trkpt lat="43.16266" lon="-0.02224">
        <ele>395.24</ele>
        <time>2021-08-19T16:33:50Z</time>
      </trkpt>
      <trkpt lat="43.16216" lon="-0.02221">
        <ele>395.72</ele>
        <time>2021-08-19T16:34:01Z</time>
      </trkpt>
      <trkpt lat="43.16174" lon="-0.02218">
        <ele>396.68</ele>
        <time>2021-08-19T16:34:10Z</time>
      </trkpt>
      <trkpt lat="43.16136" lon="-0.02216">
        <ele>398.12</ele>
        <time>2021-08-19T16:34:19Z</time>
      </trkpt>
      <trkpt lat="43.16107" lon="-0.02212">
        <ele>399.08</ele>
        <time>2021-08-19T16:34:26Z</time>
      </trkpt>
      <trkpt lat="43.16057" lon="-0.02203">
        <ele>400.05</ele>
        <time>2021-08-19T16:34:37Z</time>
      </trkpt>
      <trkpt lat="43.16012" lon="-0.02192">
        <ele>401.01</ele>
        <time>2021-08-19T16:34:47Z</time>
      </trkpt>
      <trkpt lat="43.15973" lon="-0.02183">
        <ele>401.49</ele>
        <time>2021-08-19T16:34:56Z</time>
      </trkpt>
      <trkpt lat="43.15931" lon="-0.0217">
        <ele>402.93</ele>
        <time>2021-08-19T16:35:06Z</time>
      </trkpt>
      <trkpt lat="43.15887" lon="-0.02157">
        <ele>403.41</ele>
        <time>2021-08-19T16:35:16Z</time>
      </trkpt>
      <trkpt lat="43.15865" lon="-0.02152">
        <ele>403.89</ele>
        <time>2021-08-19T16:35:22Z</time>
      </trkpt>
      <trkpt lat="43.1584" lon="-0.02147">
        <ele>404.37</ele>
        <time>2021-08-19T16:35:28Z</time>
      </trkpt>
      <trkpt lat="43.15827" lon="-0.02142">
        <ele>404.37</ele>
        <time>2021-08-19T16:35:31Z</time>
      </trkpt>
      <trkpt lat="43.15818" lon="-0.0214">
        <ele>404.37</ele>
        <time>2021-08-19T16:35:33Z</time>
      </trkpt>
      <trkpt lat="43.15772" lon="-0.02124">
        <ele>402.93</ele>
        <time>2021-08-19T16:35:43Z</time>
      </trkpt>
      <trkpt lat="43.1573" lon="-0.0211">
        <ele>401.97</ele>
        <time>2021-08-19T16:35:52Z</time>
      </trkpt>
      <trkpt lat="43.15697" lon="-0.0209">
        <ele>401.01</ele>
        <time>2021-08-19T16:35:59Z</time>
      </trkpt>
      <trkpt lat="43.15692" lon="-0.02086">
        <ele>401.01</ele>
        <time>2021-08-19T16:36:00Z</time>
      </trkpt>
      <trkpt lat="43.15688" lon="-0.0208">
        <ele>400.53</ele>
        <time>2021-08-19T16:36:01Z</time>
      </trkpt>
      <trkpt lat="43.15681" lon="-0.0207">
        <ele>400.53</ele>
        <time>2021-08-19T16:36:03Z</time>
      </trkpt>
      <trkpt lat="43.15667" lon="-0.02047">
        <ele>400.53</ele>
        <time>2021-08-19T16:36:07Z</time>
      </trkpt>
      <trkpt lat="43.15663" lon="-0.02043">
        <ele>400.53</ele>
        <time>2021-08-19T16:36:08Z</time>
      </trkpt>
      <trkpt lat="43.15658" lon="-0.02042">
        <ele>400.53</ele>
        <time>2021-08-19T16:36:09Z</time>
      </trkpt>
      <trkpt lat="43.15653" lon="-0.02045">
        <ele>400.53</ele>
        <time>2021-08-19T16:36:10Z</time>
      </trkpt>
      <trkpt lat="43.1565" lon="-0.02048">
        <ele>400.53</ele>
        <time>2021-08-19T16:36:11Z</time>
      </trkpt>
      <trkpt lat="43.15647" lon="-0.02052">
        <ele>400.53</ele>
        <time>2021-08-19T16:36:12Z</time>
      </trkpt>
      <trkpt lat="43.15643" lon="-0.02056">
        <ele>400.53</ele>
        <time>2021-08-19T16:36:13Z</time>
      </trkpt>
      <trkpt lat="43.15639" lon="-0.02061">
        <ele>400.53</ele>
        <time>2021-08-19T16:36:14Z</time>
      </trkpt>
      <trkpt lat="43.15635" lon="-0.02065">
        <ele>400.53</ele>
        <time>2021-08-19T16:36:15Z</time>
      </trkpt>
      <trkpt lat="43.15609" lon="-0.02098">
        <ele>401.97</ele>
        <time>2021-08-19T16:36:22Z</time>
      </trkpt>
      <trkpt lat="43.15576" lon="-0.02141">
        <ele>402.45</ele>
        <time>2021-08-19T16:36:31Z</time>
      </trkpt>
      <trkpt lat="43.15536" lon="-0.02194">
        <ele>402.93</ele>
        <time>2021-08-19T16:36:42Z</time>
      </trkpt>
      <trkpt lat="43.15525" lon="-0.02208">
        <ele>402.93</ele>
        <time>2021-08-19T16:36:45Z</time>
      </trkpt>
      <trkpt lat="43.15518" lon="-0.02215">
        <ele>402.93</ele>
        <time>2021-08-19T16:36:47Z</time>
      </trkpt>
      <trkpt lat="43.15491" lon="-0.02253">
        <ele>402.93</ele>
        <time>2021-08-19T16:36:55Z</time>
      </trkpt>
      <trkpt lat="43.15488" lon="-0.02258">
        <ele>402.93</ele>
        <time>2021-08-19T16:36:56Z</time>
      </trkpt>
      <trkpt lat="43.15446" lon="-0.02311">
        <ele>403.41</ele>
        <time>2021-08-19T16:37:07Z</time>
      </trkpt>
      <trkpt lat="43.15408" lon="-0.02361">
        <ele>404.37</ele>
        <time>2021-08-19T16:37:17Z</time>
      </trkpt>
      <trkpt lat="43.15377" lon="-0.02403">
        <ele>404.85</ele>
        <time>2021-08-19T16:37:26Z</time>
      </trkpt>
      <trkpt lat="43.15374" lon="-0.02408">
        <ele>405.33</ele>
        <time>2021-08-19T16:37:27Z</time>
      </trkpt>
      <trkpt lat="43.15371" lon="-0.02412">
        <ele>405.33</ele>
        <time>2021-08-19T16:37:28Z</time>
      </trkpt>
      <trkpt lat="43.15359" lon="-0.02428">
        <ele>405.33</ele>
        <time>2021-08-19T16:37:32Z</time>
      </trkpt>
      <trkpt lat="43.15355" lon="-0.02432">
        <ele>405.33</ele>
        <time>2021-08-19T16:37:33Z</time>
      </trkpt>
      <trkpt lat="43.15352" lon="-0.02437">
        <ele>405.81</ele>
        <time>2021-08-19T16:37:34Z</time>
      </trkpt>
      <trkpt lat="43.15349" lon="-0.02442">
        <ele>405.81</ele>
        <time>2021-08-19T16:37:35Z</time>
      </trkpt>
      <trkpt lat="43.15345" lon="-0.02446">
        <ele>405.81</ele>
        <time>2021-08-19T16:37:36Z</time>
      </trkpt>
      <trkpt lat="43.15318" lon="-0.02484">
        <ele>405.81</ele>
        <time>2021-08-19T16:37:44Z</time>
      </trkpt>
      <trkpt lat="43.15296" lon="-0.02515">
        <ele>406.29</ele>
        <time>2021-08-19T16:37:50Z</time>
      </trkpt>
      <trkpt lat="43.15262" lon="-0.02559">
        <ele>406.77</ele>
        <time>2021-08-19T16:37:59Z</time>
      </trkpt>
      <trkpt lat="43.15239" lon="-0.02592">
        <ele>407.26</ele>
        <time>2021-08-19T16:38:07Z</time>
      </trkpt>
      <trkpt lat="43.15233" lon="-0.02603">
        <ele>407.26</ele>
        <time>2021-08-19T16:38:09Z</time>
      </trkpt>
      <trkpt lat="43.15211" lon="-0.02632">
        <ele>407.26</ele>
        <time>2021-08-19T16:38:16Z</time>
      </trkpt>
      <trkpt lat="43.15201" lon="-0.02644">
        <ele>407.26</ele>
        <time>2021-08-19T16:38:19Z</time>
      </trkpt>
      <trkpt lat="43.15197" lon="-0.02649">
        <ele>407.26</ele>
        <time>2021-08-19T16:38:20Z</time>
      </trkpt>
      <trkpt lat="43.15187" lon="-0.02661">
        <ele>407.26</ele>
        <time>2021-08-19T16:38:23Z</time>
      </trkpt>
      <trkpt lat="43.15157" lon="-0.02703">
        <ele>408.22</ele>
        <time>2021-08-19T16:38:33Z</time>
      </trkpt>
      <trkpt lat="43.15134" lon="-0.0273">
        <ele>408.7</ele>
        <time>2021-08-19T16:38:40Z</time>
      </trkpt>
      <trkpt lat="43.1513" lon="-0.02734">
        <ele>409.18</ele>
        <time>2021-08-19T16:38:41Z</time>
      </trkpt>
      <trkpt lat="43.15122" lon="-0.02741">
        <ele>409.18</ele>
        <time>2021-08-19T16:38:43Z</time>
      </trkpt>
      <trkpt lat="43.15114" lon="-0.02746">
        <ele>409.18</ele>
        <time>2021-08-19T16:38:45Z</time>
      </trkpt>
      <trkpt lat="43.1511" lon="-0.0275">
        <ele>409.18</ele>
        <time>2021-08-19T16:38:46Z</time>
      </trkpt>
      <trkpt lat="43.15097" lon="-0.02761">
        <ele>409.18</ele>
        <time>2021-08-19T16:38:49Z</time>
      </trkpt>
      <trkpt lat="43.15088" lon="-0.02767">
        <ele>409.18</ele>
        <time>2021-08-19T16:38:51Z</time>
      </trkpt>
      <trkpt lat="43.15058" lon="-0.0279">
        <ele>409.18</ele>
        <time>2021-08-19T16:38:58Z</time>
      </trkpt>
      <trkpt lat="43.15055" lon="-0.02792">
        <ele>409.18</ele>
        <time>2021-08-19T16:38:59Z</time>
      </trkpt>
      <trkpt lat="43.1505" lon="-0.02793">
        <ele>407.74</ele>
        <time>2021-08-19T16:39:00Z</time>
      </trkpt>
      <trkpt lat="43.15046" lon="-0.02794">
        <ele>407.74</ele>
        <time>2021-08-19T16:39:01Z</time>
      </trkpt>
      <trkpt lat="43.15041" lon="-0.02797">
        <ele>407.74</ele>
        <time>2021-08-19T16:39:02Z</time>
      </trkpt>
      <trkpt lat="43.15037" lon="-0.028">
        <ele>407.74</ele>
        <time>2021-08-19T16:39:03Z</time>
      </trkpt>
      <trkpt lat="43.15033" lon="-0.02803">
        <ele>407.74</ele>
        <time>2021-08-19T16:39:04Z</time>
      </trkpt>
      <trkpt lat="43.15006" lon="-0.02819">
        <ele>407.74</ele>
        <time>2021-08-19T16:39:11Z</time>
      </trkpt>
      <trkpt lat="43.14968" lon="-0.02839">
        <ele>405.81</ele>
        <time>2021-08-19T16:39:19Z</time>
      </trkpt>
      <trkpt lat="43.14918" lon="-0.02861">
        <ele>404.85</ele>
        <time>2021-08-19T16:39:28Z</time>
      </trkpt>
      <trkpt lat="43.14903" lon="-0.02867">
        <ele>404.85</ele>
        <time>2021-08-19T16:39:31Z</time>
      </trkpt>
      <trkpt lat="43.14886" lon="-0.02876">
        <ele>404.85</ele>
        <time>2021-08-19T16:39:35Z</time>
      </trkpt>
      <trkpt lat="43.14877" lon="-0.02882">
        <ele>404.85</ele>
        <time>2021-08-19T16:39:37Z</time>
      </trkpt>
      <trkpt lat="43.14832" lon="-0.029">
        <ele>404.85</ele>
        <time>2021-08-19T16:39:46Z</time>
      </trkpt>
      <trkpt lat="43.14794" lon="-0.02919">
        <ele>406.77</ele>
        <time>2021-08-19T16:39:55Z</time>
      </trkpt>
      <trkpt lat="43.14768" lon="-0.0293">
        <ele>408.22</ele>
        <time>2021-08-19T16:40:03Z</time>
      </trkpt>
      <trkpt lat="43.14752" lon="-0.02939">
        <ele>409.18</ele>
        <time>2021-08-19T16:40:09Z</time>
      </trkpt>
      <trkpt lat="43.14728" lon="-0.02949">
        <ele>409.18</ele>
        <time>2021-08-19T16:40:17Z</time>
      </trkpt>
      <trkpt lat="43.14702" lon="-0.02961">
        <ele>409.66</ele>
        <time>2021-08-19T16:40:25Z</time>
      </trkpt>
      <trkpt lat="43.14684" lon="-0.02969">
        <ele>409.66</ele>
        <time>2021-08-19T16:40:30Z</time>
      </trkpt>
      <trkpt lat="43.1468" lon="-0.0297">
        <ele>409.66</ele>
        <time>2021-08-19T16:40:31Z</time>
      </trkpt>
      <trkpt lat="43.14677" lon="-0.02972">
        <ele>410.14</ele>
        <time>2021-08-19T16:40:32Z</time>
      </trkpt>
      <trkpt lat="43.14665" lon="-0.02977">
        <ele>410.14</ele>
        <time>2021-08-19T16:40:35Z</time>
      </trkpt>
      <trkpt lat="43.14661" lon="-0.02978">
        <ele>410.14</ele>
        <time>2021-08-19T16:40:36Z</time>
      </trkpt>
      <trkpt lat="43.14655" lon="-0.02979">
        <ele>410.14</ele>
        <time>2021-08-19T16:40:37Z</time>
      </trkpt>
      <trkpt lat="43.14644" lon="-0.02986">
        <ele>410.14</ele>
        <time>2021-08-19T16:40:40Z</time>
      </trkpt>
      <trkpt lat="43.14629" lon="-0.02992">
        <ele>410.14</ele>
        <time>2021-08-19T16:40:44Z</time>
      </trkpt>
      <trkpt lat="43.14592" lon="-0.03008">
        <ele>411.58</ele>
        <time>2021-08-19T16:40:54Z</time>
      </trkpt>
      <trkpt lat="43.14562" lon="-0.03022">
        <ele>413.02</ele>
        <time>2021-08-19T16:41:03Z</time>
      </trkpt>
      <trkpt lat="43.14538" lon="-0.03033">
        <ele>414.47</ele>
        <time>2021-08-19T16:41:11Z</time>
      </trkpt>
      <trkpt lat="43.14515" lon="-0.03044">
        <ele>415.43</ele>
        <time>2021-08-19T16:41:19Z</time>
      </trkpt>
      <trkpt lat="43.14489" lon="-0.03058">
        <ele>413.98</ele>
        <time>2021-08-19T16:41:25Z</time>
      </trkpt>
      <trkpt lat="43.14436" lon="-0.03086">
        <ele>411.58</ele>
        <time>2021-08-19T16:41:34Z</time>
      </trkpt>
      <trkpt lat="43.14387" lon="-0.03109">
        <ele>411.1</ele>
        <time>2021-08-19T16:41:43Z</time>
      </trkpt>
      <trkpt lat="43.14353" lon="-0.03126">
        <ele>411.1</ele>
        <time>2021-08-19T16:41:50Z</time>
      </trkpt>
      <trkpt lat="43.1431" lon="-0.03147">
        <ele>411.1</ele>
        <time>2021-08-19T16:41:58Z</time>
      </trkpt>
      <trkpt lat="43.14269" lon="-0.03165">
        <ele>411.1</ele>
        <time>2021-08-19T16:42:06Z</time>
      </trkpt>
      <trkpt lat="43.14239" lon="-0.03177">
        <ele>411.1</ele>
        <time>2021-08-19T16:42:13Z</time>
      </trkpt>
      <trkpt lat="43.14205" lon="-0.03196">
        <ele>413.02</ele>
        <time>2021-08-19T16:42:22Z</time>
      </trkpt>
      <trkpt lat="43.1418" lon="-0.03207">
        <ele>413.02</ele>
        <time>2021-08-19T16:42:29Z</time>
      </trkpt>
      <trkpt lat="43.14131" lon="-0.0323">
        <ele>413.02</ele>
        <time>2021-08-19T16:42:41Z</time>
      </trkpt>
      <trkpt lat="43.141" lon="-0.03241">
        <ele>414.47</ele>
        <time>2021-08-19T16:42:49Z</time>
      </trkpt>
      <trkpt lat="43.14059" lon="-0.0325">
        <ele>414.47</ele>
        <time>2021-08-19T16:42:58Z</time>
      </trkpt>
      <trkpt lat="43.1402" lon="-0.03259">
        <ele>414.47</ele>
        <time>2021-08-19T16:43:07Z</time>
      </trkpt>
      <trkpt lat="43.13988" lon="-0.03259">
        <ele>415.43</ele>
        <time>2021-08-19T16:43:14Z</time>
      </trkpt>
      <trkpt lat="43.13984" lon="-0.03258">
        <ele>415.43</ele>
        <time>2021-08-19T16:43:15Z</time>
      </trkpt>
      <trkpt lat="43.13943" lon="-0.03254">
        <ele>415.91</ele>
        <time>2021-08-19T16:43:24Z</time>
      </trkpt>
      <trkpt lat="43.1393" lon="-0.03252">
        <ele>416.39</ele>
        <time>2021-08-19T16:43:27Z</time>
      </trkpt>
      <trkpt lat="43.13926" lon="-0.03252">
        <ele>416.39</ele>
        <time>2021-08-19T16:43:28Z</time>
      </trkpt>
      <trkpt lat="43.13901" lon="-0.03245">
        <ele>417.35</ele>
        <time>2021-08-19T16:43:34Z</time>
      </trkpt>
      <trkpt lat="43.13899" lon="-0.03241">
        <ele>417.35</ele>
        <time>2021-08-19T16:43:35Z</time>
      </trkpt>
      <trkpt lat="43.13897" lon="-0.03236">
        <ele>417.35</ele>
        <time>2021-08-19T16:43:36Z</time>
      </trkpt>
      <trkpt lat="43.13898" lon="-0.03231">
        <ele>417.35</ele>
        <time>2021-08-19T16:43:37Z</time>
      </trkpt>
      <trkpt lat="43.13898" lon="-0.03225">
        <ele>417.83</ele>
        <time>2021-08-19T16:43:38Z</time>
      </trkpt>
      <trkpt lat="43.13899" lon="-0.0322">
        <ele>417.83</ele>
        <time>2021-08-19T16:43:39Z</time>
      </trkpt>
      <trkpt lat="43.13902" lon="-0.03204">
        <ele>417.35</ele>
        <time>2021-08-19T16:43:42Z</time>
      </trkpt>
      <trkpt lat="43.13902" lon="-0.03198">
        <ele>417.35</ele>
        <time>2021-08-19T16:43:43Z</time>
      </trkpt>
      <trkpt lat="43.13902" lon="-0.03193">
        <ele>417.35</ele>
        <time>2021-08-19T16:43:44Z</time>
      </trkpt>
      <trkpt lat="43.13901" lon="-0.03188">
        <ele>417.35</ele>
        <time>2021-08-19T16:43:45Z</time>
      </trkpt>
      <trkpt lat="43.13898" lon="-0.03184">
        <ele>417.35</ele>
        <time>2021-08-19T16:43:46Z</time>
      </trkpt>
      <trkpt lat="43.13895" lon="-0.03181">
        <ele>417.35</ele>
        <time>2021-08-19T16:43:47Z</time>
      </trkpt>
      <trkpt lat="43.13892" lon="-0.03179">
        <ele>417.35</ele>
        <time>2021-08-19T16:43:48Z</time>
      </trkpt>
      <trkpt lat="43.13862" lon="-0.03155">
        <ele>417.35</ele>
        <time>2021-08-19T16:43:56Z</time>
      </trkpt>
      <trkpt lat="43.13824" lon="-0.03127">
        <ele>417.83</ele>
        <time>2021-08-19T16:44:05Z</time>
      </trkpt>
      <trkpt lat="43.13791" lon="-0.0311">
        <ele>418.79</ele>
        <time>2021-08-19T16:44:13Z</time>
      </trkpt>
      <trkpt lat="43.13786" lon="-0.03108">
        <ele>418.79</ele>
        <time>2021-08-19T16:44:14Z</time>
      </trkpt>
      <trkpt lat="43.13782" lon="-0.03108">
        <ele>419.27</ele>
        <time>2021-08-19T16:44:15Z</time>
      </trkpt>
      <trkpt lat="43.13748" lon="-0.03111">
        <ele>420.71</ele>
        <time>2021-08-19T16:44:24Z</time>
      </trkpt>
      <trkpt lat="43.13715" lon="-0.03111">
        <ele>421.19</ele>
        <time>2021-08-19T16:44:33Z</time>
      </trkpt>
      <trkpt lat="43.13689" lon="-0.03126">
        <ele>422.64</ele>
        <time>2021-08-19T16:44:41Z</time>
      </trkpt>
      <trkpt lat="43.13666" lon="-0.03133">
        <ele>423.6</ele>
        <time>2021-08-19T16:44:49Z</time>
      </trkpt>
      <trkpt lat="43.13647" lon="-0.0313">
        <ele>424.56</ele>
        <time>2021-08-19T16:44:57Z</time>
      </trkpt>
      <trkpt lat="43.13625" lon="-0.03125">
        <ele>426</ele>
        <time>2021-08-19T16:45:05Z</time>
      </trkpt>
      <trkpt lat="43.13592" lon="-0.03116">
        <ele>427.44</ele>
        <time>2021-08-19T16:45:17Z</time>
      </trkpt>
      <trkpt lat="43.13562" lon="-0.03109">
        <ele>427.44</ele>
        <time>2021-08-19T16:45:26Z</time>
      </trkpt>
      <trkpt lat="43.13539" lon="-0.03104">
        <ele>428.89</ele>
        <time>2021-08-19T16:45:33Z</time>
      </trkpt>
      <trkpt lat="43.13525" lon="-0.03099">
        <ele>429.85</ele>
        <time>2021-08-19T16:45:39Z</time>
      </trkpt>
      <trkpt lat="43.13498" lon="-0.0309">
        <ele>430.81</ele>
        <time>2021-08-19T16:45:48Z</time>
      </trkpt>
      <trkpt lat="43.13477" lon="-0.03083">
        <ele>432.73</ele>
        <time>2021-08-19T16:45:57Z</time>
      </trkpt>
      <trkpt lat="43.13461" lon="-0.03076">
        <ele>434.65</ele>
        <time>2021-08-19T16:46:06Z</time>
      </trkpt>
      <trkpt lat="43.13458" lon="-0.03076">
        <ele>435.61</ele>
        <time>2021-08-19T16:46:11Z</time>
      </trkpt>
      <trkpt lat="43.13456" lon="-0.03077">
        <ele>435.61</ele>
        <time>2021-08-19T16:46:14Z</time>
      </trkpt>
      <trkpt lat="43.13454" lon="-0.03079">
        <ele>435.61</ele>
        <time>2021-08-19T16:46:15Z</time>
      </trkpt>
      <trkpt lat="43.13454" lon="-0.03081">
        <ele>435.61</ele>
        <time>2021-08-19T16:46:16Z</time>
      </trkpt>
      <trkpt lat="43.13453" lon="-0.03084">
        <ele>435.61</ele>
        <time>2021-08-19T16:46:17Z</time>
      </trkpt>
      <trkpt lat="43.13453" lon="-0.03087">
        <ele>435.61</ele>
        <time>2021-08-19T16:46:18Z</time>
      </trkpt>
      <trkpt lat="43.13452" lon="-0.03105">
        <ele>436.1</ele>
        <time>2021-08-19T16:46:23Z</time>
      </trkpt>
      <trkpt lat="43.13451" lon="-0.03108">
        <ele>436.1</ele>
        <time>2021-08-19T16:46:24Z</time>
      </trkpt>
      <trkpt lat="43.13447" lon="-0.03111">
        <ele>436.1</ele>
        <time>2021-08-19T16:46:25Z</time>
      </trkpt>
      <trkpt lat="43.13444" lon="-0.03111">
        <ele>436.1</ele>
        <time>2021-08-19T16:46:26Z</time>
      </trkpt>
      <trkpt lat="43.1344" lon="-0.03111">
        <ele>436.1</ele>
        <time>2021-08-19T16:46:27Z</time>
      </trkpt>
      <trkpt lat="43.13412" lon="-0.03106">
        <ele>436.1</ele>
        <time>2021-08-19T16:46:35Z</time>
      </trkpt>
      <trkpt lat="43.13374" lon="-0.03098">
        <ele>437.06</ele>
        <time>2021-08-19T16:46:45Z</time>
      </trkpt>
      <trkpt lat="43.13349" lon="-0.0309">
        <ele>438.02</ele>
        <time>2021-08-19T16:46:54Z</time>
      </trkpt>
      <trkpt lat="43.13319" lon="-0.03082">
        <ele>436.58</ele>
        <time>2021-08-19T16:47:02Z</time>
      </trkpt>
      <trkpt lat="43.13315" lon="-0.0308">
        <ele>436.58</ele>
        <time>2021-08-19T16:47:03Z</time>
      </trkpt>
      <trkpt lat="43.13276" lon="-0.03068">
        <ele>435.61</ele>
        <time>2021-08-19T16:47:11Z</time>
      </trkpt>
      <trkpt lat="43.13272" lon="-0.03066">
        <ele>435.61</ele>
        <time>2021-08-19T16:47:12Z</time>
      </trkpt>
      <trkpt lat="43.13267" lon="-0.03065">
        <ele>435.61</ele>
        <time>2021-08-19T16:47:13Z</time>
      </trkpt>
      <trkpt lat="43.13246" lon="-0.0306">
        <ele>435.13</ele>
        <time>2021-08-19T16:47:17Z</time>
      </trkpt>
      <trkpt lat="43.13241" lon="-0.03058">
        <ele>435.13</ele>
        <time>2021-08-19T16:47:18Z</time>
      </trkpt>
      <trkpt lat="43.13236" lon="-0.03057">
        <ele>435.13</ele>
        <time>2021-08-19T16:47:19Z</time>
      </trkpt>
      <trkpt lat="43.13169" lon="-0.03042">
        <ele>435.13</ele>
        <time>2021-08-19T16:47:31Z</time>
      </trkpt>
      <trkpt lat="43.13149" lon="-0.03037">
        <ele>435.13</ele>
        <time>2021-08-19T16:47:35Z</time>
      </trkpt>
      <trkpt lat="43.13093" lon="-0.03025">
        <ele>437.06</ele>
        <time>2021-08-19T16:47:47Z</time>
      </trkpt>
      <trkpt lat="43.13065" lon="-0.03018">
        <ele>438.5</ele>
        <time>2021-08-19T16:47:55Z</time>
      </trkpt>
      <trkpt lat="43.13035" lon="-0.03012">
        <ele>440.42</ele>
        <time>2021-08-19T16:48:04Z</time>
      </trkpt>
      <trkpt lat="43.13006" lon="-0.03007">
        <ele>441.86</ele>
        <time>2021-08-19T16:48:13Z</time>
      </trkpt>
      <trkpt lat="43.12972" lon="-0.03001">
        <ele>443.31</ele>
        <time>2021-08-19T16:48:23Z</time>
      </trkpt>
      <trkpt lat="43.12947" lon="-0.03">
        <ele>443.31</ele>
        <time>2021-08-19T16:48:29Z</time>
      </trkpt>
      <trkpt lat="43.12942" lon="-0.03">
        <ele>442.34</ele>
        <time>2021-08-19T16:48:30Z</time>
      </trkpt>
      <trkpt lat="43.12936" lon="-0.03">
        <ele>442.34</ele>
        <time>2021-08-19T16:48:31Z</time>
      </trkpt>
      <trkpt lat="43.12887" lon="-0.03004">
        <ele>441.38</ele>
        <time>2021-08-19T16:48:41Z</time>
      </trkpt>
      <trkpt lat="43.12848" lon="-0.03011">
        <ele>440.42</ele>
        <time>2021-08-19T16:48:49Z</time>
      </trkpt>
      <trkpt lat="43.12814" lon="-0.03021">
        <ele>439.46</ele>
        <time>2021-08-19T16:48:55Z</time>
      </trkpt>
      <trkpt lat="43.12774" lon="-0.03042">
        <ele>438.98</ele>
        <time>2021-08-19T16:49:03Z</time>
      </trkpt>
      <trkpt lat="43.12728" lon="-0.03071">
        <ele>437.54</ele>
        <time>2021-08-19T16:49:12Z</time>
      </trkpt>
      <trkpt lat="43.12718" lon="-0.03077">
        <ele>437.54</ele>
        <time>2021-08-19T16:49:14Z</time>
      </trkpt>
      <trkpt lat="43.12712" lon="-0.03079">
        <ele>436.58</ele>
        <time>2021-08-19T16:49:15Z</time>
      </trkpt>
      <trkpt lat="43.12706" lon="-0.03081">
        <ele>436.58</ele>
        <time>2021-08-19T16:49:16Z</time>
      </trkpt>
      <trkpt lat="43.12673" lon="-0.03102">
        <ele>434.65</ele>
        <time>2021-08-19T16:49:22Z</time>
      </trkpt>
      <trkpt lat="43.12667" lon="-0.03106">
        <ele>434.65</ele>
        <time>2021-08-19T16:49:23Z</time>
      </trkpt>
      <trkpt lat="43.12662" lon="-0.0311">
        <ele>434.65</ele>
        <time>2021-08-19T16:49:24Z</time>
      </trkpt>
      <trkpt lat="43.12646" lon="-0.03121">
        <ele>434.65</ele>
        <time>2021-08-19T16:49:27Z</time>
      </trkpt>
      <trkpt lat="43.12621" lon="-0.03139">
        <ele>434.65</ele>
        <time>2021-08-19T16:49:32Z</time>
      </trkpt>
      <trkpt lat="43.12617" lon="-0.03141">
        <ele>434.65</ele>
        <time>2021-08-19T16:49:33Z</time>
      </trkpt>
      <trkpt lat="43.12612" lon="-0.03145">
        <ele>434.65</ele>
        <time>2021-08-19T16:49:34Z</time>
      </trkpt>
      <trkpt lat="43.12607" lon="-0.03148">
        <ele>434.65</ele>
        <time>2021-08-19T16:49:35Z</time>
      </trkpt>
      <trkpt lat="43.12603" lon="-0.03151">
        <ele>434.65</ele>
        <time>2021-08-19T16:49:36Z</time>
      </trkpt>
      <trkpt lat="43.1259" lon="-0.0316">
        <ele>434.65</ele>
        <time>2021-08-19T16:49:39Z</time>
      </trkpt>
      <trkpt lat="43.12558" lon="-0.03176">
        <ele>434.65</ele>
        <time>2021-08-19T16:49:46Z</time>
      </trkpt>
      <trkpt lat="43.1254" lon="-0.03188">
        <ele>436.1</ele>
        <time>2021-08-19T16:49:51Z</time>
      </trkpt>
      <trkpt lat="43.12538" lon="-0.03191">
        <ele>436.58</ele>
        <time>2021-08-19T16:49:52Z</time>
      </trkpt>
      <trkpt lat="43.12534" lon="-0.03216">
        <ele>435.13</ele>
        <time>2021-08-19T16:49:57Z</time>
      </trkpt>
      <trkpt lat="43.12531" lon="-0.03223">
        <ele>435.13</ele>
        <time>2021-08-19T16:49:58Z</time>
      </trkpt>
      <trkpt lat="43.1253" lon="-0.03229">
        <ele>434.65</ele>
        <time>2021-08-19T16:49:59Z</time>
      </trkpt>
      <trkpt lat="43.12522" lon="-0.03292">
        <ele>432.73</ele>
        <time>2021-08-19T16:50:07Z</time>
      </trkpt>
      <trkpt lat="43.12527" lon="-0.03341">
        <ele>432.73</ele>
        <time>2021-08-19T16:50:13Z</time>
      </trkpt>
      <trkpt lat="43.12528" lon="-0.03349">
        <ele>432.73</ele>
        <time>2021-08-19T16:50:14Z</time>
      </trkpt>
      <trkpt lat="43.12528" lon="-0.03357">
        <ele>432.73</ele>
        <time>2021-08-19T16:50:15Z</time>
      </trkpt>
      <trkpt lat="43.12525" lon="-0.03381">
        <ele>432.73</ele>
        <time>2021-08-19T16:50:18Z</time>
      </trkpt>
      <trkpt lat="43.12514" lon="-0.03433">
        <ele>432.73</ele>
        <time>2021-08-19T16:50:25Z</time>
      </trkpt>
      <trkpt lat="43.12504" lon="-0.0346">
        <ele>432.73</ele>
        <time>2021-08-19T16:50:29Z</time>
      </trkpt>
      <trkpt lat="43.12502" lon="-0.03467">
        <ele>432.73</ele>
        <time>2021-08-19T16:50:30Z</time>
      </trkpt>
      <trkpt lat="43.12498" lon="-0.03481">
        <ele>432.73</ele>
        <time>2021-08-19T16:50:32Z</time>
      </trkpt>
      <trkpt lat="43.12497" lon="-0.03488">
        <ele>432.73</ele>
        <time>2021-08-19T16:50:33Z</time>
      </trkpt>
      <trkpt lat="43.12497" lon="-0.03495">
        <ele>434.17</ele>
        <time>2021-08-19T16:50:34Z</time>
      </trkpt>
      <trkpt lat="43.12491" lon="-0.03542">
        <ele>434.65</ele>
        <time>2021-08-19T16:50:41Z</time>
      </trkpt>
      <trkpt lat="43.12489" lon="-0.03548">
        <ele>434.65</ele>
        <time>2021-08-19T16:50:42Z</time>
      </trkpt>
      <trkpt lat="43.12473" lon="-0.03588">
        <ele>436.58</ele>
        <time>2021-08-19T16:50:50Z</time>
      </trkpt>
      <trkpt lat="43.12461" lon="-0.03616">
        <ele>437.54</ele>
        <time>2021-08-19T16:50:59Z</time>
      </trkpt>
      <trkpt lat="43.1245" lon="-0.03641">
        <ele>438.98</ele>
        <time>2021-08-19T16:51:08Z</time>
      </trkpt>
      <trkpt lat="43.12437" lon="-0.03653">
        <ele>440.42</ele>
        <time>2021-08-19T16:51:15Z</time>
      </trkpt>
      <trkpt lat="43.12412" lon="-0.03646">
        <ele>440.9</ele>
        <time>2021-08-19T16:51:23Z</time>
      </trkpt>
      <trkpt lat="43.12375" lon="-0.03628">
        <ele>441.38</ele>
        <time>2021-08-19T16:51:33Z</time>
      </trkpt>
      <trkpt lat="43.12366" lon="-0.03626">
        <ele>441.38</ele>
        <time>2021-08-19T16:51:35Z</time>
      </trkpt>
      <trkpt lat="43.12356" lon="-0.03626">
        <ele>439.94</ele>
        <time>2021-08-19T16:51:37Z</time>
      </trkpt>
      <trkpt lat="43.12351" lon="-0.03627">
        <ele>439.94</ele>
        <time>2021-08-19T16:51:38Z</time>
      </trkpt>
      <trkpt lat="43.12329" lon="-0.03633">
        <ele>439.46</ele>
        <time>2021-08-19T16:51:42Z</time>
      </trkpt>
      <trkpt lat="43.12293" lon="-0.03646">
        <ele>438.5</ele>
        <time>2021-08-19T16:51:49Z</time>
      </trkpt>
      <trkpt lat="43.12276" lon="-0.03649">
        <ele>438.02</ele>
        <time>2021-08-19T16:51:52Z</time>
      </trkpt>
      <trkpt lat="43.12262" lon="-0.03654">
        <ele>438.02</ele>
        <time>2021-08-19T16:51:55Z</time>
      </trkpt>
      <trkpt lat="43.12257" lon="-0.03655">
        <ele>437.54</ele>
        <time>2021-08-19T16:51:56Z</time>
      </trkpt>
      <trkpt lat="43.12246" lon="-0.03657">
        <ele>437.06</ele>
        <time>2021-08-19T16:51:58Z</time>
      </trkpt>
      <trkpt lat="43.12185" lon="-0.03663">
        <ele>436.1</ele>
        <time>2021-08-19T16:52:09Z</time>
      </trkpt>
      <trkpt lat="43.12155" lon="-0.03663">
        <ele>435.61</ele>
        <time>2021-08-19T16:52:14Z</time>
      </trkpt>
      <trkpt lat="43.12149" lon="-0.03665">
        <ele>435.13</ele>
        <time>2021-08-19T16:52:15Z</time>
      </trkpt>
      <trkpt lat="43.12099" lon="-0.03683">
        <ele>435.13</ele>
        <time>2021-08-19T16:52:23Z</time>
      </trkpt>
      <trkpt lat="43.12059" lon="-0.037">
        <ele>435.13</ele>
        <time>2021-08-19T16:52:30Z</time>
      </trkpt>
      <trkpt lat="43.12039" lon="-0.0371">
        <ele>436.58</ele>
        <time>2021-08-19T16:52:34Z</time>
      </trkpt>
      <trkpt lat="43.12029" lon="-0.03714">
        <ele>436.58</ele>
        <time>2021-08-19T16:52:36Z</time>
      </trkpt>
      <trkpt lat="43.12008" lon="-0.03717">
        <ele>436.58</ele>
        <time>2021-08-19T16:52:40Z</time>
      </trkpt>
      <trkpt lat="43.11977" lon="-0.03712">
        <ele>436.58</ele>
        <time>2021-08-19T16:52:46Z</time>
      </trkpt>
      <trkpt lat="43.11972" lon="-0.03712">
        <ele>437.54</ele>
        <time>2021-08-19T16:52:47Z</time>
      </trkpt>
      <trkpt lat="43.11948" lon="-0.03721">
        <ele>439.46</ele>
        <time>2021-08-19T16:52:54Z</time>
      </trkpt>
      <trkpt lat="43.11922" lon="-0.03729">
        <ele>439.46</ele>
        <time>2021-08-19T16:53:02Z</time>
      </trkpt>
      <trkpt lat="43.11899" lon="-0.03732">
        <ele>439.46</ele>
        <time>2021-08-19T16:53:07Z</time>
      </trkpt>
      <trkpt lat="43.11882" lon="-0.03726">
        <ele>439.94</ele>
        <time>2021-08-19T16:53:12Z</time>
      </trkpt>
      <trkpt lat="43.11881" lon="-0.03722">
        <ele>439.94</ele>
        <time>2021-08-19T16:53:13Z</time>
      </trkpt>
      <trkpt lat="43.11877" lon="-0.03709">
        <ele>438.02</ele>
        <time>2021-08-19T16:53:15Z</time>
      </trkpt>
      <trkpt lat="43.11874" lon="-0.03703">
        <ele>438.02</ele>
        <time>2021-08-19T16:53:16Z</time>
      </trkpt>
      <trkpt lat="43.1187" lon="-0.03699">
        <ele>437.54</ele>
        <time>2021-08-19T16:53:17Z</time>
      </trkpt>
      <trkpt lat="43.11864" lon="-0.03697">
        <ele>437.54</ele>
        <time>2021-08-19T16:53:18Z</time>
      </trkpt>
      <trkpt lat="43.11859" lon="-0.03696">
        <ele>436.58</ele>
        <time>2021-08-19T16:53:19Z</time>
      </trkpt>
      <trkpt lat="43.11853" lon="-0.03696">
        <ele>436.58</ele>
        <time>2021-08-19T16:53:20Z</time>
      </trkpt>
      <trkpt lat="43.11848" lon="-0.03696">
        <ele>436.58</ele>
        <time>2021-08-19T16:53:21Z</time>
      </trkpt>
      <trkpt lat="43.11833" lon="-0.03694">
        <ele>436.58</ele>
        <time>2021-08-19T16:53:24Z</time>
      </trkpt>
      <trkpt lat="43.11824" lon="-0.0369">
        <ele>436.58</ele>
        <time>2021-08-19T16:53:26Z</time>
      </trkpt>
      <trkpt lat="43.1182" lon="-0.03686">
        <ele>436.58</ele>
        <time>2021-08-19T16:53:27Z</time>
      </trkpt>
      <trkpt lat="43.11798" lon="-0.03662">
        <ele>436.58</ele>
        <time>2021-08-19T16:53:33Z</time>
      </trkpt>
      <trkpt lat="43.11777" lon="-0.0362">
        <ele>438.5</ele>
        <time>2021-08-19T16:53:42Z</time>
      </trkpt>
      <trkpt lat="43.11775" lon="-0.03617">
        <ele>438.98</ele>
        <time>2021-08-19T16:53:43Z</time>
      </trkpt>
      <trkpt lat="43.11775" lon="-0.03614">
        <ele>438.98</ele>
        <time>2021-08-19T16:53:44Z</time>
      </trkpt>
      <trkpt lat="43.11776" lon="-0.0361">
        <ele>438.98</ele>
        <time>2021-08-19T16:53:45Z</time>
      </trkpt>
      <trkpt lat="43.11777" lon="-0.03605">
        <ele>438.98</ele>
        <time>2021-08-19T16:53:46Z</time>
      </trkpt>
      <trkpt lat="43.11778" lon="-0.036">
        <ele>437.54</ele>
        <time>2021-08-19T16:53:47Z</time>
      </trkpt>
      <trkpt lat="43.11779" lon="-0.03594">
        <ele>437.54</ele>
        <time>2021-08-19T16:53:48Z</time>
      </trkpt>
      <trkpt lat="43.11778" lon="-0.03588">
        <ele>436.58</ele>
        <time>2021-08-19T16:53:49Z</time>
      </trkpt>
      <trkpt lat="43.11778" lon="-0.03574">
        <ele>435.61</ele>
        <time>2021-08-19T16:53:51Z</time>
      </trkpt>
      <trkpt lat="43.11779" lon="-0.03567">
        <ele>435.13</ele>
        <time>2021-08-19T16:53:52Z</time>
      </trkpt>
      <trkpt lat="43.11782" lon="-0.03561">
        <ele>434.65</ele>
        <time>2021-08-19T16:53:53Z</time>
      </trkpt>
      <trkpt lat="43.11786" lon="-0.03556">
        <ele>434.17</ele>
        <time>2021-08-19T16:53:54Z</time>
      </trkpt>
      <trkpt lat="43.11788" lon="-0.0355">
        <ele>433.69</ele>
        <time>2021-08-19T16:53:55Z</time>
      </trkpt>
      <trkpt lat="43.1179" lon="-0.03542">
        <ele>433.69</ele>
        <time>2021-08-19T16:53:56Z</time>
      </trkpt>
      <trkpt lat="43.1179" lon="-0.03533">
        <ele>432.25</ele>
        <time>2021-08-19T16:53:57Z</time>
      </trkpt>
      <trkpt lat="43.1179" lon="-0.03525">
        <ele>431.29</ele>
        <time>2021-08-19T16:53:58Z</time>
      </trkpt>
      <trkpt lat="43.11788" lon="-0.03516">
        <ele>430.81</ele>
        <time>2021-08-19T16:53:59Z</time>
      </trkpt>
      <trkpt lat="43.11786" lon="-0.03506">
        <ele>429.37</ele>
        <time>2021-08-19T16:54:00Z</time>
      </trkpt>
      <trkpt lat="43.11782" lon="-0.03495">
        <ele>428.89</ele>
        <time>2021-08-19T16:54:01Z</time>
      </trkpt>
      <trkpt lat="43.11778" lon="-0.03485">
        <ele>428.89</ele>
        <time>2021-08-19T16:54:02Z</time>
      </trkpt>
      <trkpt lat="43.11773" lon="-0.03476">
        <ele>427.92</ele>
        <time>2021-08-19T16:54:03Z</time>
      </trkpt>
      <trkpt lat="43.1176" lon="-0.03452">
        <ele>427.44</ele>
        <time>2021-08-19T16:54:06Z</time>
      </trkpt>
      <trkpt lat="43.11757" lon="-0.03445">
        <ele>427.44</ele>
        <time>2021-08-19T16:54:07Z</time>
      </trkpt>
      <trkpt lat="43.11755" lon="-0.03437">
        <ele>427.44</ele>
        <time>2021-08-19T16:54:08Z</time>
      </trkpt>
      <trkpt lat="43.11754" lon="-0.0343">
        <ele>427.44</ele>
        <time>2021-08-19T16:54:09Z</time>
      </trkpt>
      <trkpt lat="43.11752" lon="-0.03424">
        <ele>427.44</ele>
        <time>2021-08-19T16:54:10Z</time>
      </trkpt>
      <trkpt lat="43.11743" lon="-0.03394">
        <ele>427.44</ele>
        <time>2021-08-19T16:54:15Z</time>
      </trkpt>
      <trkpt lat="43.11732" lon="-0.03337">
        <ele>427.92</ele>
        <time>2021-08-19T16:54:24Z</time>
      </trkpt>
      <trkpt lat="43.11723" lon="-0.03281">
        <ele>425.04</ele>
        <time>2021-08-19T16:54:31Z</time>
      </trkpt>
      <trkpt lat="43.1172" lon="-0.03272">
        <ele>424.56</ele>
        <time>2021-08-19T16:54:32Z</time>
      </trkpt>
      <trkpt lat="43.11718" lon="-0.03265">
        <ele>424.56</ele>
        <time>2021-08-19T16:54:33Z</time>
      </trkpt>
      <trkpt lat="43.11714" lon="-0.03258">
        <ele>424.56</ele>
        <time>2021-08-19T16:54:34Z</time>
      </trkpt>
      <trkpt lat="43.11711" lon="-0.03251">
        <ele>423.6</ele>
        <time>2021-08-19T16:54:35Z</time>
      </trkpt>
      <trkpt lat="43.11701" lon="-0.03229">
        <ele>423.6</ele>
        <time>2021-08-19T16:54:40Z</time>
      </trkpt>
      <trkpt lat="43.11699" lon="-0.03227">
        <ele>423.6</ele>
        <time>2021-08-19T16:54:42Z</time>
      </trkpt>
      <trkpt lat="43.11697" lon="-0.03227">
        <ele>423.6</ele>
        <time>2021-08-19T16:54:43Z</time>
      </trkpt>
      <trkpt lat="43.11694" lon="-0.03228">
        <ele>424.08</ele>
        <time>2021-08-19T16:54:44Z</time>
      </trkpt>
      <trkpt lat="43.11691" lon="-0.0323">
        <ele>423.6</ele>
        <time>2021-08-19T16:54:45Z</time>
      </trkpt>
      <trkpt lat="43.11687" lon="-0.03233">
        <ele>423.6</ele>
        <time>2021-08-19T16:54:46Z</time>
      </trkpt>
      <trkpt lat="43.11683" lon="-0.03236">
        <ele>423.6</ele>
        <time>2021-08-19T16:54:47Z</time>
      </trkpt>
      <trkpt lat="43.11651" lon="-0.03261">
        <ele>422.16</ele>
        <time>2021-08-19T16:54:53Z</time>
      </trkpt>
      <trkpt lat="43.11597" lon="-0.03304">
        <ele>418.79</ele>
        <time>2021-08-19T16:55:01Z</time>
      </trkpt>
      <trkpt lat="43.11519" lon="-0.03366">
        <ele>418.31</ele>
        <time>2021-08-19T16:55:12Z</time>
      </trkpt>
      <trkpt lat="43.11455" lon="-0.03417">
        <ele>418.31</ele>
        <time>2021-08-19T16:55:22Z</time>
      </trkpt>
      <trkpt lat="43.11425" lon="-0.03441">
        <ele>418.31</ele>
        <time>2021-08-19T16:55:27Z</time>
      </trkpt>
      <trkpt lat="43.11419" lon="-0.03447">
        <ele>418.31</ele>
        <time>2021-08-19T16:55:28Z</time>
      </trkpt>
      <trkpt lat="43.11413" lon="-0.03451">
        <ele>418.31</ele>
        <time>2021-08-19T16:55:29Z</time>
      </trkpt>
      <trkpt lat="43.11391" lon="-0.03466">
        <ele>419.75</ele>
        <time>2021-08-19T16:55:33Z</time>
      </trkpt>
      <trkpt lat="43.11381" lon="-0.03473">
        <ele>419.75</ele>
        <time>2021-08-19T16:55:35Z</time>
      </trkpt>
      <trkpt lat="43.11332" lon="-0.0351">
        <ele>420.23</ele>
        <time>2021-08-19T16:55:44Z</time>
      </trkpt>
      <trkpt lat="43.11301" lon="-0.03535">
        <ele>421.68</ele>
        <time>2021-08-19T16:55:51Z</time>
      </trkpt>
      <trkpt lat="43.11299" lon="-0.0354">
        <ele>421.68</ele>
        <time>2021-08-19T16:55:52Z</time>
      </trkpt>
      <trkpt lat="43.11299" lon="-0.03544">
        <ele>421.68</ele>
        <time>2021-08-19T16:55:53Z</time>
      </trkpt>
      <trkpt lat="43.113" lon="-0.03547">
        <ele>421.68</ele>
        <time>2021-08-19T16:55:54Z</time>
      </trkpt>
      <trkpt lat="43.11301" lon="-0.0355">
        <ele>422.64</ele>
        <time>2021-08-19T16:55:55Z</time>
      </trkpt>
      <trkpt lat="43.11303" lon="-0.03552">
        <ele>422.64</ele>
        <time>2021-08-19T16:55:56Z</time>
      </trkpt>
      <trkpt lat="43.11307" lon="-0.03554">
        <ele>422.64</ele>
        <time>2021-08-19T16:55:57Z</time>
      </trkpt>
      <trkpt lat="43.1131" lon="-0.03556">
        <ele>422.64</ele>
        <time>2021-08-19T16:55:58Z</time>
      </trkpt>
      <trkpt lat="43.11319" lon="-0.03564">
        <ele>423.12</ele>
        <time>2021-08-19T16:56:01Z</time>
      </trkpt>
      <trkpt lat="43.11319" lon="-0.03567">
        <ele>423.12</ele>
        <time>2021-08-19T16:56:02Z</time>
      </trkpt>
      <trkpt lat="43.11318" lon="-0.03569">
        <ele>423.6</ele>
        <time>2021-08-19T16:56:03Z</time>
      </trkpt>
      <trkpt lat="43.11316" lon="-0.0357">
        <ele>423.6</ele>
        <time>2021-08-19T16:56:04Z</time>
      </trkpt>
      <trkpt lat="43.11314" lon="-0.03571">
        <ele>423.6</ele>
        <time>2021-08-19T16:56:05Z</time>
      </trkpt>
      <trkpt lat="43.11312" lon="-0.03571">
        <ele>423.6</ele>
        <time>2021-08-19T16:56:06Z</time>
      </trkpt>
      <trkpt lat="43.1131" lon="-0.03571">
        <ele>423.6</ele>
        <time>2021-08-19T16:56:07Z</time>
      </trkpt>
      <trkpt lat="43.11307" lon="-0.03569">
        <ele>423.6</ele>
        <time>2021-08-19T16:56:08Z</time>
      </trkpt>
      <trkpt lat="43.11305" lon="-0.03567">
        <ele>423.6</ele>
        <time>2021-08-19T16:56:09Z</time>
      </trkpt>
      <trkpt lat="43.11303" lon="-0.03564">
        <ele>423.6</ele>
        <time>2021-08-19T16:56:10Z</time>
      </trkpt>
      <trkpt lat="43.11299" lon="-0.03558">
        <ele>423.6</ele>
        <time>2021-08-19T16:56:15Z</time>
      </trkpt>
      <trkpt lat="43.11299" lon="-0.03556">
        <ele>423.6</ele>
        <time>2021-08-19T16:56:24Z</time>
      </trkpt>
      <trkpt lat="43.11301" lon="-0.03554">
        <ele>424.08</ele>
        <time>2021-08-19T16:56:46Z</time>
      </trkpt>
      <trkpt lat="43.113" lon="-0.03552">
        <ele>424.08</ele>
        <time>2021-08-19T16:57:03Z</time>
      </trkpt>
      <trkpt lat="43.11298" lon="-0.03551">
        <ele>424.08</ele>
        <time>2021-08-19T16:57:23Z</time>
      </trkpt>
      <trkpt lat="43.11296" lon="-0.03551">
        <ele>424.08</ele>
        <time>2021-08-19T16:57:44Z</time>
      </trkpt>
      <trkpt lat="43.11298" lon="-0.03553">
        <ele>424.08</ele>
        <time>2021-08-19T16:58:02Z</time>
      </trkpt>
      <trkpt lat="43.11299" lon="-0.03553">
        <ele>424.08</ele>
        <time>2021-08-19T16:58:23Z</time>
      </trkpt>
      <trkpt lat="43.113" lon="-0.03557">
        <ele>424.08</ele>
        <time>2021-08-19T16:58:40Z</time>
      </trkpt>
      <trkpt lat="43.11298" lon="-0.03556">
        <ele>424.08</ele>
        <time>2021-08-19T16:58:57Z</time>
      </trkpt>
      <trkpt lat="43.11297" lon="-0.03556">
        <ele>424.08</ele>
        <time>2021-08-19T16:59:18Z</time>
      </trkpt>
      <trkpt lat="43.11299" lon="-0.03556">
        <ele>424.08</ele>
        <time>2021-08-19T16:59:32Z</time>
      </trkpt>
      <trkpt lat="43.11296" lon="-0.03555">
        <ele>424.08</ele>
        <time>2021-08-19T16:59:56Z</time>
      </trkpt>
      <trkpt lat="43.11296" lon="-0.03556">
        <ele>424.08</ele>
        <time>2021-08-19T17:00:15Z</time>
      </trkpt>
      <trkpt lat="43.11296" lon="-0.03557">
        <ele>424.08</ele>
        <time>2021-08-19T17:00:27Z</time>
      </trkpt>
      <trkpt lat="43.11294" lon="-0.03553">
        <ele>424.08</ele>
        <time>2021-08-19T17:00:35Z</time>
      </trkpt>
      <trkpt lat="43.11297" lon="-0.03553">
        <ele>424.08</ele>
        <time>2021-08-19T17:00:52Z</time>
      </trkpt>
      <trkpt lat="43.11298" lon="-0.03555">
        <ele>424.08</ele>
        <time>2021-08-19T17:01:12Z</time>
      </trkpt>
      <trkpt lat="43.11297" lon="-0.03553">
        <ele>423.6</ele>
        <time>2021-08-19T17:01:30Z</time>
      </trkpt>
      <trkpt lat="43.11298" lon="-0.03557">
        <ele>423.6</ele>
        <time>2021-08-19T17:01:51Z</time>
      </trkpt>
      <trkpt lat="43.11298" lon="-0.03558">
        <ele>423.6</ele>
        <time>2021-08-19T17:02:12Z</time>
      </trkpt>
      <trkpt lat="43.11297" lon="-0.03555">
        <ele>423.6</ele>
        <time>2021-08-19T17:02:40Z</time>
      </trkpt>
      <trkpt lat="43.11298" lon="-0.03556">
        <ele>423.6</ele>
        <time>2021-08-19T17:02:58Z</time>
      </trkpt>
      <trkpt lat="43.11301" lon="-0.03558">
        <ele>423.6</ele>
        <time>2021-08-19T17:03:15Z</time>
      </trkpt>
      <trkpt lat="43.11299" lon="-0.03558">
        <ele>423.6</ele>
        <time>2021-08-19T17:03:32Z</time>
      </trkpt>
      <trkpt lat="43.11298" lon="-0.03557">
        <ele>423.6</ele>
        <time>2021-08-19T17:03:47Z</time>
      </trkpt>
      <trkpt lat="43.11297" lon="-0.03558">
        <ele>423.6</ele>
        <time>2021-08-19T17:04:04Z</time>
      </trkpt>
      <trkpt lat="43.11296" lon="-0.03557">
        <ele>423.6</ele>
        <time>2021-08-19T17:04:23Z</time>
      </trkpt>
      <trkpt lat="43.11296" lon="-0.03557">
        <ele>423.6</ele>
        <time>2021-08-19T17:04:35Z</time>
      </trkpt>
      <trkpt lat="43.11298" lon="-0.03557">
        <ele>423.6</ele>
        <time>2021-08-19T17:04:57Z</time>
      </trkpt>
      <trkpt lat="43.11297" lon="-0.03556">
        <ele>423.6</ele>
        <time>2021-08-19T17:05:12Z</time>
      </trkpt>
      <trkpt lat="43.11297" lon="-0.03554">
        <ele>424.08</ele>
        <time>2021-08-19T17:05:29Z</time>
      </trkpt>
      <trkpt lat="43.11297" lon="-0.03555">
        <ele>424.08</ele>
        <time>2021-08-19T17:05:34Z</time>
      </trkpt>
      <trkpt lat="43.11297" lon="-0.03555">
        <ele>424.08</ele>
        <time>2021-08-19T17:05:39Z</time>
      </trkpt>
      <trkpt lat="43.11296" lon="-0.03554">
        <ele>425.04</ele>
        <time>2021-08-19T17:39:28Z</time>
      </trkpt>
      <trkpt lat="43.11296" lon="-0.03554">
        <ele>425.04</ele>
        <time>2021-08-19T17:39:29Z</time>
      </trkpt>
      <trkpt lat="43.11298" lon="-0.03559">
        <ele>426</ele>
        <time>2021-08-19T17:39:47Z</time>
      </trkpt>
      <trkpt lat="43.113" lon="-0.03562">
        <ele>426</ele>
        <time>2021-08-19T17:40:05Z</time>
      </trkpt>
      <trkpt lat="43.11295" lon="-0.03558">
        <ele>426</ele>
        <time>2021-08-19T17:40:26Z</time>
      </trkpt>
      <trkpt lat="43.11294" lon="-0.03559">
        <ele>426</ele>
        <time>2021-08-19T17:40:32Z</time>
      </trkpt>
      <trkpt lat="43.11295" lon="-0.03559">
        <ele>426</ele>
        <time>2021-08-19T17:40:34Z</time>
      </trkpt>
      <trkpt lat="43.11297" lon="-0.03559">
        <ele>426</ele>
        <time>2021-08-19T17:40:35Z</time>
      </trkpt>
      <trkpt lat="43.11312" lon="-0.03568">
        <ele>426</ele>
        <time>2021-08-19T17:40:43Z</time>
      </trkpt>
      <trkpt lat="43.11316" lon="-0.0357">
        <ele>426</ele>
        <time>2021-08-19T17:40:45Z</time>
      </trkpt>
      <trkpt lat="43.11318" lon="-0.03567">
        <ele>426</ele>
        <time>2021-08-19T17:40:46Z</time>
      </trkpt>
      <trkpt lat="43.11317" lon="-0.03563">
        <ele>426</ele>
        <time>2021-08-19T17:40:47Z</time>
      </trkpt>
      <trkpt lat="43.11315" lon="-0.03561">
        <ele>426</ele>
        <time>2021-08-19T17:40:48Z</time>
      </trkpt>
      <trkpt lat="43.11293" lon="-0.03549">
        <ele>424.56</ele>
        <time>2021-08-19T17:40:55Z</time>
      </trkpt>
      <trkpt lat="43.11284" lon="-0.03547">
        <ele>424.56</ele>
        <time>2021-08-19T17:40:59Z</time>
      </trkpt>
      <trkpt lat="43.11281" lon="-0.03549">
        <ele>424.56</ele>
        <time>2021-08-19T17:41:00Z</time>
      </trkpt>
      <trkpt lat="43.11279" lon="-0.0355">
        <ele>424.56</ele>
        <time>2021-08-19T17:41:01Z</time>
      </trkpt>
      <trkpt lat="43.11258" lon="-0.03566">
        <ele>424.56</ele>
        <time>2021-08-19T17:41:09Z</time>
      </trkpt>
      <trkpt lat="43.11248" lon="-0.03574">
        <ele>424.56</ele>
        <time>2021-08-19T17:41:13Z</time>
      </trkpt>
      <trkpt lat="43.11244" lon="-0.03576">
        <ele>424.56</ele>
        <time>2021-08-19T17:41:14Z</time>
      </trkpt>
      <trkpt lat="43.11224" lon="-0.03591">
        <ele>424.56</ele>
        <time>2021-08-19T17:41:19Z</time>
      </trkpt>
      <trkpt lat="43.11188" lon="-0.0362">
        <ele>424.08</ele>
        <time>2021-08-19T17:41:27Z</time>
      </trkpt>
      <trkpt lat="43.11146" lon="-0.03652">
        <ele>423.6</ele>
        <time>2021-08-19T17:41:35Z</time>
      </trkpt>
      <trkpt lat="43.11095" lon="-0.03693">
        <ele>423.6</ele>
        <time>2021-08-19T17:41:45Z</time>
      </trkpt>
      <trkpt lat="43.11046" lon="-0.03731">
        <ele>423.6</ele>
        <time>2021-08-19T17:41:54Z</time>
      </trkpt>
      <trkpt lat="43.10991" lon="-0.03773">
        <ele>423.6</ele>
        <time>2021-08-19T17:42:04Z</time>
      </trkpt>
      <trkpt lat="43.10936" lon="-0.03819">
        <ele>423.12</ele>
        <time>2021-08-19T17:42:14Z</time>
      </trkpt>
      <trkpt lat="43.10875" lon="-0.03867">
        <ele>423.12</ele>
        <time>2021-08-19T17:42:25Z</time>
      </trkpt>
      <trkpt lat="43.10811" lon="-0.0392">
        <ele>422.16</ele>
        <time>2021-08-19T17:42:36Z</time>
      </trkpt>
      <trkpt lat="43.10801" lon="-0.03929">
        <ele>423.6</ele>
        <time>2021-08-19T17:42:38Z</time>
      </trkpt>
      <trkpt lat="43.10761" lon="-0.03958">
        <ele>424.56</ele>
        <time>2021-08-19T17:42:46Z</time>
      </trkpt>
      <trkpt lat="43.1074" lon="-0.03968">
        <ele>424.56</ele>
        <time>2021-08-19T17:42:50Z</time>
      </trkpt>
      <trkpt lat="43.10735" lon="-0.03972">
        <ele>424.56</ele>
        <time>2021-08-19T17:42:51Z</time>
      </trkpt>
      <trkpt lat="43.1073" lon="-0.03976">
        <ele>424.56</ele>
        <time>2021-08-19T17:42:52Z</time>
      </trkpt>
      <trkpt lat="43.10727" lon="-0.03981">
        <ele>424.56</ele>
        <time>2021-08-19T17:42:53Z</time>
      </trkpt>
      <trkpt lat="43.10722" lon="-0.03987">
        <ele>425.04</ele>
        <time>2021-08-19T17:42:54Z</time>
      </trkpt>
      <trkpt lat="43.10718" lon="-0.03992">
        <ele>425.04</ele>
        <time>2021-08-19T17:42:55Z</time>
      </trkpt>
      <trkpt lat="43.10713" lon="-0.03995">
        <ele>425.04</ele>
        <time>2021-08-19T17:42:56Z</time>
      </trkpt>
      <trkpt lat="43.10707" lon="-0.03999">
        <ele>425.04</ele>
        <time>2021-08-19T17:42:57Z</time>
      </trkpt>
      <trkpt lat="43.10671" lon="-0.04028">
        <ele>425.52</ele>
        <time>2021-08-19T17:43:04Z</time>
      </trkpt>
      <trkpt lat="43.10628" lon="-0.04058">
        <ele>425.04</ele>
        <time>2021-08-19T17:43:12Z</time>
      </trkpt>
      <trkpt lat="43.1061" lon="-0.04072">
        <ele>423.6</ele>
        <time>2021-08-19T17:43:15Z</time>
      </trkpt>
      <trkpt lat="43.10563" lon="-0.04109">
        <ele>420.71</ele>
        <time>2021-08-19T17:43:22Z</time>
      </trkpt>
      <trkpt lat="43.10498" lon="-0.04159">
        <ele>419.27</ele>
        <time>2021-08-19T17:43:31Z</time>
      </trkpt>
      <trkpt lat="43.10422" lon="-0.04218">
        <ele>418.31</ele>
        <time>2021-08-19T17:43:42Z</time>
      </trkpt>
      <trkpt lat="43.10352" lon="-0.04272">
        <ele>417.35</ele>
        <time>2021-08-19T17:43:52Z</time>
      </trkpt>
      <trkpt lat="43.10297" lon="-0.04315">
        <ele>416.39</ele>
        <time>2021-08-19T17:44:00Z</time>
      </trkpt>
      <trkpt lat="43.1023" lon="-0.04368">
        <ele>416.39</ele>
        <time>2021-08-19T17:44:10Z</time>
      </trkpt>
      <trkpt lat="43.10179" lon="-0.04406">
        <ele>415.91</ele>
        <time>2021-08-19T17:44:18Z</time>
      </trkpt>
      <trkpt lat="43.10131" lon="-0.04441">
        <ele>415.91</ele>
        <time>2021-08-19T17:44:26Z</time>
      </trkpt>
      <trkpt lat="43.10086" lon="-0.04473">
        <ele>414.95</ele>
        <time>2021-08-19T17:44:33Z</time>
      </trkpt>
      <trkpt lat="43.10043" lon="-0.04504">
        <ele>411.1</ele>
        <time>2021-08-19T17:44:39Z</time>
      </trkpt>
      <trkpt lat="43.10005" lon="-0.04517">
        <ele>409.66</ele>
        <time>2021-08-19T17:44:44Z</time>
      </trkpt>
      <trkpt lat="43.09957" lon="-0.04532">
        <ele>406.77</ele>
        <time>2021-08-19T17:44:51Z</time>
      </trkpt>
      <trkpt lat="43.09953" lon="-0.04536">
        <ele>406.77</ele>
        <time>2021-08-19T17:44:52Z</time>
      </trkpt>
      <trkpt lat="43.09949" lon="-0.04542">
        <ele>406.77</ele>
        <time>2021-08-19T17:44:53Z</time>
      </trkpt>
      <trkpt lat="43.09946" lon="-0.04549">
        <ele>406.29</ele>
        <time>2021-08-19T17:44:54Z</time>
      </trkpt>
      <trkpt lat="43.09945" lon="-0.04556">
        <ele>405.81</ele>
        <time>2021-08-19T17:44:55Z</time>
      </trkpt>
      <trkpt lat="43.09945" lon="-0.04564">
        <ele>405.81</ele>
        <time>2021-08-19T17:44:56Z</time>
      </trkpt>
      <trkpt lat="43.09944" lon="-0.04572">
        <ele>405.33</ele>
        <time>2021-08-19T17:44:57Z</time>
      </trkpt>
      <trkpt lat="43.09944" lon="-0.04604">
        <ele>404.37</ele>
        <time>2021-08-19T17:45:01Z</time>
      </trkpt>
      <trkpt lat="43.09942" lon="-0.04612">
        <ele>404.37</ele>
        <time>2021-08-19T17:45:02Z</time>
      </trkpt>
      <trkpt lat="43.09939" lon="-0.04619">
        <ele>403.41</ele>
        <time>2021-08-19T17:45:03Z</time>
      </trkpt>
      <trkpt lat="43.09935" lon="-0.04623">
        <ele>403.89</ele>
        <time>2021-08-19T17:45:04Z</time>
      </trkpt>
      <trkpt lat="43.09929" lon="-0.04627">
        <ele>403.41</ele>
        <time>2021-08-19T17:45:05Z</time>
      </trkpt>
      <trkpt lat="43.09925" lon="-0.04629">
        <ele>403.89</ele>
        <time>2021-08-19T17:45:06Z</time>
      </trkpt>
      <trkpt lat="43.0992" lon="-0.04632">
        <ele>404.85</ele>
        <time>2021-08-19T17:45:07Z</time>
      </trkpt>
      <trkpt lat="43.099" lon="-0.04641">
        <ele>405.33</ele>
        <time>2021-08-19T17:45:11Z</time>
      </trkpt>
      <trkpt lat="43.09897" lon="-0.04647">
        <ele>405.33</ele>
        <time>2021-08-19T17:45:12Z</time>
      </trkpt>
      <trkpt lat="43.09894" lon="-0.04652">
        <ele>405.81</ele>
        <time>2021-08-19T17:45:13Z</time>
      </trkpt>
      <trkpt lat="43.09879" lon="-0.0467">
        <ele>407.26</ele>
        <time>2021-08-19T17:45:17Z</time>
      </trkpt>
      <trkpt lat="43.09855" lon="-0.04691">
        <ele>408.22</ele>
        <time>2021-08-19T17:45:24Z</time>
      </trkpt>
      <trkpt lat="43.09851" lon="-0.04694">
        <ele>408.22</ele>
        <time>2021-08-19T17:45:25Z</time>
      </trkpt>
      <trkpt lat="43.09848" lon="-0.04699">
        <ele>408.22</ele>
        <time>2021-08-19T17:45:26Z</time>
      </trkpt>
      <trkpt lat="43.09846" lon="-0.04704">
        <ele>408.22</ele>
        <time>2021-08-19T17:45:27Z</time>
      </trkpt>
      <trkpt lat="43.09845" lon="-0.0471">
        <ele>408.22</ele>
        <time>2021-08-19T17:45:28Z</time>
      </trkpt>
      <trkpt lat="43.09844" lon="-0.04717">
        <ele>408.22</ele>
        <time>2021-08-19T17:45:29Z</time>
      </trkpt>
      <trkpt lat="43.09845" lon="-0.04724">
        <ele>408.22</ele>
        <time>2021-08-19T17:45:30Z</time>
      </trkpt>
      <trkpt lat="43.09846" lon="-0.0473">
        <ele>408.22</ele>
        <time>2021-08-19T17:45:31Z</time>
      </trkpt>
      <trkpt lat="43.09848" lon="-0.04739">
        <ele>408.22</ele>
        <time>2021-08-19T17:45:32Z</time>
      </trkpt>
      <trkpt lat="43.09862" lon="-0.04799">
        <ele>408.22</ele>
        <time>2021-08-19T17:45:41Z</time>
      </trkpt>
      <trkpt lat="43.09873" lon="-0.04842">
        <ele>408.22</ele>
        <time>2021-08-19T17:45:48Z</time>
      </trkpt>
      <trkpt lat="43.0989" lon="-0.04908">
        <ele>408.22</ele>
        <time>2021-08-19T17:45:58Z</time>
      </trkpt>
      <trkpt lat="43.09904" lon="-0.04964">
        <ele>408.7</ele>
        <time>2021-08-19T17:46:06Z</time>
      </trkpt>
      <trkpt lat="43.09919" lon="-0.05022">
        <ele>409.18</ele>
        <time>2021-08-19T17:46:14Z</time>
      </trkpt>
      <trkpt lat="43.09931" lon="-0.05068">
        <ele>409.18</ele>
        <time>2021-08-19T17:46:21Z</time>
      </trkpt>
      <trkpt lat="43.0994" lon="-0.051">
        <ele>409.18</ele>
        <time>2021-08-19T17:46:25Z</time>
      </trkpt>
      <trkpt lat="43.0996" lon="-0.05161">
        <ele>408.7</ele>
        <time>2021-08-19T17:46:33Z</time>
      </trkpt>
      <trkpt lat="43.09971" lon="-0.05201">
        <ele>409.18</ele>
        <time>2021-08-19T17:46:39Z</time>
      </trkpt>
      <trkpt lat="43.09973" lon="-0.05208">
        <ele>409.18</ele>
        <time>2021-08-19T17:46:40Z</time>
      </trkpt>
      <trkpt lat="43.09973" lon="-0.05215">
        <ele>409.18</ele>
        <time>2021-08-19T17:46:41Z</time>
      </trkpt>
      <trkpt lat="43.09976" lon="-0.05245">
        <ele>408.22</ele>
        <time>2021-08-19T17:46:45Z</time>
      </trkpt>
      <trkpt lat="43.09976" lon="-0.05261">
        <ele>407.74</ele>
        <time>2021-08-19T17:46:47Z</time>
      </trkpt>
      <trkpt lat="43.09975" lon="-0.05269">
        <ele>407.74</ele>
        <time>2021-08-19T17:46:48Z</time>
      </trkpt>
      <trkpt lat="43.09961" lon="-0.05348">
        <ele>405.33</ele>
        <time>2021-08-19T17:46:57Z</time>
      </trkpt>
      <trkpt lat="43.09957" lon="-0.05404">
        <ele>405.33</ele>
        <time>2021-08-19T17:47:04Z</time>
      </trkpt>
      <trkpt lat="43.09962" lon="-0.05471">
        <ele>402.45</ele>
        <time>2021-08-19T17:47:12Z</time>
      </trkpt>
      <trkpt lat="43.09966" lon="-0.0551">
        <ele>399.08</ele>
        <time>2021-08-19T17:47:16Z</time>
      </trkpt>
      <trkpt lat="43.09968" lon="-0.05532">
        <ele>398.12</ele>
        <time>2021-08-19T17:47:18Z</time>
      </trkpt>
      <trkpt lat="43.0997" lon="-0.0556">
        <ele>396.2</ele>
        <time>2021-08-19T17:47:21Z</time>
      </trkpt>
      <trkpt lat="43.09973" lon="-0.05583">
        <ele>395.72</ele>
        <time>2021-08-19T17:47:25Z</time>
      </trkpt>
      <trkpt lat="43.09973" lon="-0.05582">
        <ele>395.72</ele>
        <time>2021-08-19T17:47:31Z</time>
      </trkpt>
      <trkpt lat="43.09973" lon="-0.05588">
        <ele>395.24</ele>
        <time>2021-08-19T17:47:46Z</time>
      </trkpt>
      <trkpt lat="43.09975" lon="-0.05618">
        <ele>394.76</ele>
        <time>2021-08-19T17:47:53Z</time>
      </trkpt>
      <trkpt lat="43.0998" lon="-0.05656">
        <ele>393.8</ele>
        <time>2021-08-19T17:48:00Z</time>
      </trkpt>
      <trkpt lat="43.09984" lon="-0.05704">
        <ele>392.36</ele>
        <time>2021-08-19T17:48:07Z</time>
      </trkpt>
      <trkpt lat="43.0999" lon="-0.05764">
        <ele>391.39</ele>
        <time>2021-08-19T17:48:14Z</time>
      </trkpt>
      <trkpt lat="43.09997" lon="-0.05843">
        <ele>390.43</ele>
        <time>2021-08-19T17:48:23Z</time>
      </trkpt>
      <trkpt lat="43.10004" lon="-0.05921">
        <ele>389.95</ele>
        <time>2021-08-19T17:48:32Z</time>
      </trkpt>
      <trkpt lat="43.1001" lon="-0.06">
        <ele>388.51</ele>
        <time>2021-08-19T17:48:41Z</time>
      </trkpt>
      <trkpt lat="43.10017" lon="-0.0608">
        <ele>385.63</ele>
        <time>2021-08-19T17:48:49Z</time>
      </trkpt>
      <trkpt lat="43.10023" lon="-0.06149">
        <ele>382.74</ele>
        <time>2021-08-19T17:48:55Z</time>
      </trkpt>
      <trkpt lat="43.10032" lon="-0.06246">
        <ele>378.9</ele>
        <time>2021-08-19T17:49:03Z</time>
      </trkpt>
      <trkpt lat="43.10033" lon="-0.06258">
        <ele>378.9</ele>
        <time>2021-08-19T17:49:04Z</time>
      </trkpt>
      <trkpt lat="43.10039" lon="-0.06322">
        <ele>376.49</ele>
        <time>2021-08-19T17:49:09Z</time>
      </trkpt>
      <trkpt lat="43.10048" lon="-0.06422">
        <ele>375.53</ele>
        <time>2021-08-19T17:49:17Z</time>
      </trkpt>
      <trkpt lat="43.10055" lon="-0.06499">
        <ele>375.53</ele>
        <time>2021-08-19T17:49:24Z</time>
      </trkpt>
      <trkpt lat="43.1006" lon="-0.06535">
        <ele>376.49</ele>
        <time>2021-08-19T17:49:28Z</time>
      </trkpt>
      <trkpt lat="43.10066" lon="-0.06598">
        <ele>377.45</ele>
        <time>2021-08-19T17:49:36Z</time>
      </trkpt>
      <trkpt lat="43.10066" lon="-0.06605">
        <ele>377.45</ele>
        <time>2021-08-19T17:49:37Z</time>
      </trkpt>
      <trkpt lat="43.10064" lon="-0.06611">
        <ele>377.45</ele>
        <time>2021-08-19T17:49:38Z</time>
      </trkpt>
      <trkpt lat="43.10061" lon="-0.06616">
        <ele>377.45</ele>
        <time>2021-08-19T17:49:39Z</time>
      </trkpt>
      <trkpt lat="43.10056" lon="-0.0662">
        <ele>377.45</ele>
        <time>2021-08-19T17:49:40Z</time>
      </trkpt>
      <trkpt lat="43.10052" lon="-0.06623">
        <ele>377.45</ele>
        <time>2021-08-19T17:49:41Z</time>
      </trkpt>
      <trkpt lat="43.10048" lon="-0.06627">
        <ele>377.45</ele>
        <time>2021-08-19T17:49:42Z</time>
      </trkpt>
      <trkpt lat="43.10043" lon="-0.0663">
        <ele>377.45</ele>
        <time>2021-08-19T17:49:43Z</time>
      </trkpt>
      <trkpt lat="43.10038" lon="-0.06633">
        <ele>377.45</ele>
        <time>2021-08-19T17:49:44Z</time>
      </trkpt>
      <trkpt lat="43.10033" lon="-0.06636">
        <ele>377.45</ele>
        <time>2021-08-19T17:49:45Z</time>
      </trkpt>
      <trkpt lat="43.09984" lon="-0.06661">
        <ele>377.45</ele>
        <time>2021-08-19T17:49:54Z</time>
      </trkpt>
      <trkpt lat="43.09953" lon="-0.06692">
        <ele>376.01</ele>
        <time>2021-08-19T17:50:00Z</time>
      </trkpt>
      <trkpt lat="43.09948" lon="-0.06699">
        <ele>376.01</ele>
        <time>2021-08-19T17:50:01Z</time>
      </trkpt>
      <trkpt lat="43.09944" lon="-0.06706">
        <ele>376.01</ele>
        <time>2021-08-19T17:50:02Z</time>
      </trkpt>
      <trkpt lat="43.09924" lon="-0.06767">
        <ele>375.53</ele>
        <time>2021-08-19T17:50:09Z</time>
      </trkpt>
      <trkpt lat="43.09903" lon="-0.0684">
        <ele>375.53</ele>
        <time>2021-08-19T17:50:18Z</time>
      </trkpt>
      <trkpt lat="43.09899" lon="-0.06853">
        <ele>376.49</ele>
        <time>2021-08-19T17:50:20Z</time>
      </trkpt>
      <trkpt lat="43.09888" lon="-0.06893">
        <ele>378.42</ele>
        <time>2021-08-19T17:50:28Z</time>
      </trkpt>
      <trkpt lat="43.09876" lon="-0.06923">
        <ele>379.86</ele>
        <time>2021-08-19T17:50:37Z</time>
      </trkpt>
      <trkpt lat="43.09863" lon="-0.06946">
        <ele>380.82</ele>
        <time>2021-08-19T17:50:45Z</time>
      </trkpt>
      <trkpt lat="43.09846" lon="-0.06965">
        <ele>382.26</ele>
        <time>2021-08-19T17:50:53Z</time>
      </trkpt>
      <trkpt lat="43.09821" lon="-0.06974">
        <ele>383.7</ele>
        <time>2021-08-19T17:51:02Z</time>
      </trkpt>
      <trkpt lat="43.09795" lon="-0.06983">
        <ele>385.15</ele>
        <time>2021-08-19T17:51:12Z</time>
      </trkpt>
      <trkpt lat="43.09779" lon="-0.07006">
        <ele>383.7</ele>
        <time>2021-08-19T17:51:19Z</time>
      </trkpt>
      <trkpt lat="43.09776" lon="-0.0701">
        <ele>383.7</ele>
        <time>2021-08-19T17:51:20Z</time>
      </trkpt>
      <trkpt lat="43.09774" lon="-0.07015">
        <ele>383.22</ele>
        <time>2021-08-19T17:51:21Z</time>
      </trkpt>
      <trkpt lat="43.0975" lon="-0.07055">
        <ele>382.26</ele>
        <time>2021-08-19T17:51:29Z</time>
      </trkpt>
      <trkpt lat="43.09741" lon="-0.07071">
        <ele>381.3</ele>
        <time>2021-08-19T17:51:32Z</time>
      </trkpt>
      <trkpt lat="43.09729" lon="-0.07111">
        <ele>377.94</ele>
        <time>2021-08-19T17:51:37Z</time>
      </trkpt>
      <trkpt lat="43.09727" lon="-0.07121">
        <ele>377.94</ele>
        <time>2021-08-19T17:51:38Z</time>
      </trkpt>
      <trkpt lat="43.09726" lon="-0.0714">
        <ele>378.42</ele>
        <time>2021-08-19T17:51:40Z</time>
      </trkpt>
      <trkpt lat="43.09727" lon="-0.07188">
        <ele>377.94</ele>
        <time>2021-08-19T17:51:46Z</time>
      </trkpt>
      <trkpt lat="43.09726" lon="-0.07197">
        <ele>376.97</ele>
        <time>2021-08-19T17:51:47Z</time>
      </trkpt>
      <trkpt lat="43.09725" lon="-0.07206">
        <ele>376.49</ele>
        <time>2021-08-19T17:51:48Z</time>
      </trkpt>
      <trkpt lat="43.09707" lon="-0.07292">
        <ele>374.57</ele>
        <time>2021-08-19T17:51:57Z</time>
      </trkpt>
      <trkpt lat="43.09701" lon="-0.07348">
        <ele>374.09</ele>
        <time>2021-08-19T17:52:03Z</time>
      </trkpt>
      <trkpt lat="43.09704" lon="-0.0743">
        <ele>373.13</ele>
        <time>2021-08-19T17:52:12Z</time>
      </trkpt>
      <trkpt lat="43.09712" lon="-0.07492">
        <ele>373.13</ele>
        <time>2021-08-19T17:52:20Z</time>
      </trkpt>
      <trkpt lat="43.09717" lon="-0.07519">
        <ele>373.13</ele>
        <time>2021-08-19T17:52:24Z</time>
      </trkpt>
      <trkpt lat="43.09731" lon="-0.07565">
        <ele>373.13</ele>
        <time>2021-08-19T17:52:31Z</time>
      </trkpt>
      <trkpt lat="43.09733" lon="-0.07578">
        <ele>373.13</ele>
        <time>2021-08-19T17:52:33Z</time>
      </trkpt>
      <trkpt lat="43.09737" lon="-0.07614">
        <ele>373.13</ele>
        <time>2021-08-19T17:52:39Z</time>
      </trkpt>
      <trkpt lat="43.09751" lon="-0.07665">
        <ele>370.73</ele>
        <time>2021-08-19T17:52:46Z</time>
      </trkpt>
      <trkpt lat="43.09755" lon="-0.07685">
        <ele>370.73</ele>
        <time>2021-08-19T17:52:49Z</time>
      </trkpt>
      <trkpt lat="43.09765" lon="-0.07727">
        <ele>372.17</ele>
        <time>2021-08-19T17:52:57Z</time>
      </trkpt>
      <trkpt lat="43.09766" lon="-0.07757">
        <ele>373.13</ele>
        <time>2021-08-19T17:53:04Z</time>
      </trkpt>
      <trkpt lat="43.09765" lon="-0.07764">
        <ele>373.61</ele>
        <time>2021-08-19T17:53:07Z</time>
      </trkpt>
      <trkpt lat="43.09766" lon="-0.07767">
        <ele>373.61</ele>
        <time>2021-08-19T17:53:08Z</time>
      </trkpt>
      <trkpt lat="43.09767" lon="-0.07769">
        <ele>374.09</ele>
        <time>2021-08-19T17:53:09Z</time>
      </trkpt>
      <trkpt lat="43.09768" lon="-0.07772">
        <ele>374.09</ele>
        <time>2021-08-19T17:53:10Z</time>
      </trkpt>
      <trkpt lat="43.09769" lon="-0.07774">
        <ele>374.09</ele>
        <time>2021-08-19T17:53:11Z</time>
      </trkpt>
      <trkpt lat="43.0977" lon="-0.07776">
        <ele>374.09</ele>
        <time>2021-08-19T17:53:12Z</time>
      </trkpt>
      <trkpt lat="43.09776" lon="-0.07789">
        <ele>372.65</ele>
        <time>2021-08-19T17:53:19Z</time>
      </trkpt>
      <trkpt lat="43.09783" lon="-0.07809">
        <ele>370.73</ele>
        <time>2021-08-19T17:53:24Z</time>
      </trkpt>
      <trkpt lat="43.09787" lon="-0.07838">
        <ele>370.24</ele>
        <time>2021-08-19T17:53:29Z</time>
      </trkpt>
      <trkpt lat="43.09791" lon="-0.07866">
        <ele>370.24</ele>
        <time>2021-08-19T17:53:34Z</time>
      </trkpt>
      <trkpt lat="43.09793" lon="-0.07874">
        <ele>371.69</ele>
        <time>2021-08-19T17:53:36Z</time>
      </trkpt>
      <trkpt lat="43.09797" lon="-0.07899">
        <ele>372.17</ele>
        <time>2021-08-19T17:53:42Z</time>
      </trkpt>
      <trkpt lat="43.09803" lon="-0.0793">
        <ele>373.13</ele>
        <time>2021-08-19T17:53:49Z</time>
      </trkpt>
      <trkpt lat="43.09812" lon="-0.07963">
        <ele>373.13</ele>
        <time>2021-08-19T17:53:56Z</time>
      </trkpt>
      <trkpt lat="43.09818" lon="-0.07986">
        <ele>373.61</ele>
        <time>2021-08-19T17:54:02Z</time>
      </trkpt>
      <trkpt lat="43.0982" lon="-0.08007">
        <ele>374.57</ele>
        <time>2021-08-19T17:54:08Z</time>
      </trkpt>
      <trkpt lat="43.09821" lon="-0.08011">
        <ele>374.57</ele>
        <time>2021-08-19T17:54:09Z</time>
      </trkpt>
      <trkpt lat="43.09822" lon="-0.08014">
        <ele>374.57</ele>
        <time>2021-08-19T17:54:10Z</time>
      </trkpt>
      <trkpt lat="43.09822" lon="-0.08017">
        <ele>374.57</ele>
        <time>2021-08-19T17:54:11Z</time>
      </trkpt>
      <trkpt lat="43.09823" lon="-0.0802">
        <ele>374.57</ele>
        <time>2021-08-19T17:54:12Z</time>
      </trkpt>
      <trkpt lat="43.09824" lon="-0.08023">
        <ele>374.57</ele>
        <time>2021-08-19T17:54:13Z</time>
      </trkpt>
      <trkpt lat="43.09825" lon="-0.08026">
        <ele>374.57</ele>
        <time>2021-08-19T17:54:14Z</time>
      </trkpt>
      <trkpt lat="43.09834" lon="-0.08046">
        <ele>375.05</ele>
        <time>2021-08-19T17:54:21Z</time>
      </trkpt>
      <trkpt lat="43.09844" lon="-0.08068">
        <ele>373.61</ele>
        <time>2021-08-19T17:54:26Z</time>
      </trkpt>
      <trkpt lat="43.09856" lon="-0.08092">
        <ele>373.61</ele>
        <time>2021-08-19T17:54:32Z</time>
      </trkpt>
      <trkpt lat="43.09873" lon="-0.08118">
        <ele>373.61</ele>
        <time>2021-08-19T17:54:38Z</time>
      </trkpt>
      <trkpt lat="43.09885" lon="-0.08134">
        <ele>373.13</ele>
        <time>2021-08-19T17:54:42Z</time>
      </trkpt>
      <trkpt lat="43.09903" lon="-0.08163">
        <ele>371.21</ele>
        <time>2021-08-19T17:54:48Z</time>
      </trkpt>
      <trkpt lat="43.09912" lon="-0.08175">
        <ele>370.73</ele>
        <time>2021-08-19T17:54:50Z</time>
      </trkpt>
      <trkpt lat="43.09916" lon="-0.08183">
        <ele>370.24</ele>
        <time>2021-08-19T17:54:51Z</time>
      </trkpt>
      <trkpt lat="43.09919" lon="-0.08191">
        <ele>370.24</ele>
        <time>2021-08-19T17:54:52Z</time>
      </trkpt>
      <trkpt lat="43.0992" lon="-0.08198">
        <ele>370.24</ele>
        <time>2021-08-19T17:54:53Z</time>
      </trkpt>
      <trkpt lat="43.09922" lon="-0.08204">
        <ele>370.24</ele>
        <time>2021-08-19T17:54:54Z</time>
      </trkpt>
      <trkpt lat="43.09923" lon="-0.08209">
        <ele>370.24</ele>
        <time>2021-08-19T17:54:55Z</time>
      </trkpt>
      <trkpt lat="43.09924" lon="-0.08212">
        <ele>371.69</ele>
        <time>2021-08-19T17:54:56Z</time>
      </trkpt>
      <trkpt lat="43.09925" lon="-0.08214">
        <ele>371.69</ele>
        <time>2021-08-19T17:54:57Z</time>
      </trkpt>
      <trkpt lat="43.09929" lon="-0.08221">
        <ele>372.65</ele>
        <time>2021-08-19T17:55:04Z</time>
      </trkpt>
      <trkpt lat="43.0993" lon="-0.08228">
        <ele>373.13</ele>
        <time>2021-08-19T17:55:11Z</time>
      </trkpt>
      <trkpt lat="43.09936" lon="-0.0824">
        <ele>374.09</ele>
        <time>2021-08-19T17:55:17Z</time>
      </trkpt>
      <trkpt lat="43.09937" lon="-0.08242">
        <ele>374.09</ele>
        <time>2021-08-19T17:55:18Z</time>
      </trkpt>
      <trkpt lat="43.09946" lon="-0.08264">
        <ele>375.05</ele>
        <time>2021-08-19T17:55:25Z</time>
      </trkpt>
      <trkpt lat="43.09947" lon="-0.08267">
        <ele>375.05</ele>
        <time>2021-08-19T17:55:26Z</time>
      </trkpt>
      <trkpt lat="43.09948" lon="-0.08271">
        <ele>375.05</ele>
        <time>2021-08-19T17:55:27Z</time>
      </trkpt>
      <trkpt lat="43.09954" lon="-0.083">
        <ele>375.05</ele>
        <time>2021-08-19T17:55:33Z</time>
      </trkpt>
      <trkpt lat="43.09957" lon="-0.0831">
        <ele>375.05</ele>
        <time>2021-08-19T17:55:35Z</time>
      </trkpt>
      <trkpt lat="43.09964" lon="-0.0835">
        <ele>375.05</ele>
        <time>2021-08-19T17:55:42Z</time>
      </trkpt>
      <trkpt lat="43.09972" lon="-0.08377">
        <ele>372.17</ele>
        <time>2021-08-19T17:55:47Z</time>
      </trkpt>
      <trkpt lat="43.09973" lon="-0.08385">
        <ele>371.21</ele>
        <time>2021-08-19T17:55:48Z</time>
      </trkpt>
      <trkpt lat="43.0998" lon="-0.08423">
        <ele>369.28</ele>
        <time>2021-08-19T17:55:52Z</time>
      </trkpt>
      <trkpt lat="43.09986" lon="-0.08453">
        <ele>368.32</ele>
        <time>2021-08-19T17:55:55Z</time>
      </trkpt>
      <trkpt lat="43.09986" lon="-0.08464">
        <ele>367.84</ele>
        <time>2021-08-19T17:55:56Z</time>
      </trkpt>
      <trkpt lat="43.09985" lon="-0.08504">
        <ele>367.84</ele>
        <time>2021-08-19T17:56:00Z</time>
      </trkpt>
      <trkpt lat="43.09985" lon="-0.08537">
        <ele>367.84</ele>
        <time>2021-08-19T17:56:04Z</time>
      </trkpt>
      <trkpt lat="43.09995" lon="-0.08582">
        <ele>367.84</ele>
        <time>2021-08-19T17:56:10Z</time>
      </trkpt>
      <trkpt lat="43.09996" lon="-0.08601">
        <ele>367.84</ele>
        <time>2021-08-19T17:56:13Z</time>
      </trkpt>
      <trkpt lat="43.0999" lon="-0.08627">
        <ele>367.84</ele>
        <time>2021-08-19T17:56:17Z</time>
      </trkpt>
      <trkpt lat="43.09989" lon="-0.0864">
        <ele>367.84</ele>
        <time>2021-08-19T17:56:19Z</time>
      </trkpt>
      <trkpt lat="43.09987" lon="-0.08689">
        <ele>367.36</ele>
        <time>2021-08-19T17:56:26Z</time>
      </trkpt>
      <trkpt lat="43.09986" lon="-0.08709">
        <ele>367.36</ele>
        <time>2021-08-19T17:56:29Z</time>
      </trkpt>
      <trkpt lat="43.09983" lon="-0.08729">
        <ele>367.36</ele>
        <time>2021-08-19T17:56:32Z</time>
      </trkpt>
      <trkpt lat="43.09983" lon="-0.08764">
        <ele>367.36</ele>
        <time>2021-08-19T17:56:38Z</time>
      </trkpt>
      <trkpt lat="43.09983" lon="-0.08806">
        <ele>367.36</ele>
        <time>2021-08-19T17:56:45Z</time>
      </trkpt>
      <trkpt lat="43.09982" lon="-0.0882">
        <ele>367.36</ele>
        <time>2021-08-19T17:56:47Z</time>
      </trkpt>
      <trkpt lat="43.09982" lon="-0.08827">
        <ele>366.88</ele>
        <time>2021-08-19T17:56:48Z</time>
      </trkpt>
      <trkpt lat="43.0998" lon="-0.08834">
        <ele>366.88</ele>
        <time>2021-08-19T17:56:49Z</time>
      </trkpt>
      <trkpt lat="43.09978" lon="-0.08841">
        <ele>366.88</ele>
        <time>2021-08-19T17:56:50Z</time>
      </trkpt>
      <trkpt lat="43.09978" lon="-0.08849">
        <ele>365.92</ele>
        <time>2021-08-19T17:56:51Z</time>
      </trkpt>
      <trkpt lat="43.09977" lon="-0.08857">
        <ele>365.92</ele>
        <time>2021-08-19T17:56:52Z</time>
      </trkpt>
      <trkpt lat="43.09976" lon="-0.08866">
        <ele>365.92</ele>
        <time>2021-08-19T17:56:53Z</time>
      </trkpt>
      <trkpt lat="43.09974" lon="-0.0888">
        <ele>365.92</ele>
        <time>2021-08-19T17:56:55Z</time>
      </trkpt>
      <trkpt lat="43.09972" lon="-0.08887">
        <ele>365.92</ele>
        <time>2021-08-19T17:56:56Z</time>
      </trkpt>
      <trkpt lat="43.0997" lon="-0.08893">
        <ele>365.92</ele>
        <time>2021-08-19T17:56:57Z</time>
      </trkpt>
      <trkpt lat="43.09968" lon="-0.08899">
        <ele>365.92</ele>
        <time>2021-08-19T17:56:58Z</time>
      </trkpt>
      <trkpt lat="43.09963" lon="-0.0893">
        <ele>367.36</ele>
        <time>2021-08-19T17:57:03Z</time>
      </trkpt>
      <trkpt lat="43.09962" lon="-0.0896">
        <ele>367.84</ele>
        <time>2021-08-19T17:57:09Z</time>
      </trkpt>
      <trkpt lat="43.09961" lon="-0.08998">
        <ele>368.32</ele>
        <time>2021-08-19T17:57:16Z</time>
      </trkpt>
      <trkpt lat="43.09962" lon="-0.09018">
        <ele>368.32</ele>
        <time>2021-08-19T17:57:21Z</time>
      </trkpt>
      <trkpt lat="43.09962" lon="-0.09059">
        <ele>368.32</ele>
        <time>2021-08-19T17:57:29Z</time>
      </trkpt>
      <trkpt lat="43.09963" lon="-0.09098">
        <ele>366.88</ele>
        <time>2021-08-19T17:57:36Z</time>
      </trkpt>
      <trkpt lat="43.09954" lon="-0.0913">
        <ele>366.88</ele>
        <time>2021-08-19T17:57:42Z</time>
      </trkpt>
      <trkpt lat="43.09942" lon="-0.09168">
        <ele>366.88</ele>
        <time>2021-08-19T17:57:49Z</time>
      </trkpt>
      <trkpt lat="43.09939" lon="-0.0918">
        <ele>366.88</ele>
        <time>2021-08-19T17:57:51Z</time>
      </trkpt>
      <trkpt lat="43.09932" lon="-0.09223">
        <ele>366.88</ele>
        <time>2021-08-19T17:57:59Z</time>
      </trkpt>
      <trkpt lat="43.09931" lon="-0.09229">
        <ele>366.88</ele>
        <time>2021-08-19T17:58:00Z</time>
      </trkpt>
      <trkpt lat="43.09922" lon="-0.0928">
        <ele>365.92</ele>
        <time>2021-08-19T17:58:08Z</time>
      </trkpt>
      <trkpt lat="43.09919" lon="-0.09315">
        <ele>365.92</ele>
        <time>2021-08-19T17:58:14Z</time>
      </trkpt>
      <trkpt lat="43.0992" lon="-0.0932">
        <ele>365.92</ele>
        <time>2021-08-19T17:58:15Z</time>
      </trkpt>
      <trkpt lat="43.09921" lon="-0.09351">
        <ele>365.92</ele>
        <time>2021-08-19T17:58:21Z</time>
      </trkpt>
      <trkpt lat="43.09918" lon="-0.09377">
        <ele>365.92</ele>
        <time>2021-08-19T17:58:25Z</time>
      </trkpt>
      <trkpt lat="43.0991" lon="-0.09413">
        <ele>367.84</ele>
        <time>2021-08-19T17:58:32Z</time>
      </trkpt>
      <trkpt lat="43.09907" lon="-0.09435">
        <ele>368.8</ele>
        <time>2021-08-19T17:58:39Z</time>
      </trkpt>
      <trkpt lat="43.09907" lon="-0.0945">
        <ele>370.24</ele>
        <time>2021-08-19T17:58:46Z</time>
      </trkpt>
      <trkpt lat="43.09908" lon="-0.09455">
        <ele>370.24</ele>
        <time>2021-08-19T17:58:48Z</time>
      </trkpt>
      <trkpt lat="43.09908" lon="-0.09458">
        <ele>370.24</ele>
        <time>2021-08-19T17:58:49Z</time>
      </trkpt>
      <trkpt lat="43.09908" lon="-0.09461">
        <ele>370.24</ele>
        <time>2021-08-19T17:58:50Z</time>
      </trkpt>
      <trkpt lat="43.09908" lon="-0.09464">
        <ele>370.24</ele>
        <time>2021-08-19T17:58:51Z</time>
      </trkpt>
      <trkpt lat="43.09907" lon="-0.09466">
        <ele>370.24</ele>
        <time>2021-08-19T17:58:52Z</time>
      </trkpt>
      <trkpt lat="43.09905" lon="-0.09482">
        <ele>372.17</ele>
        <time>2021-08-19T17:58:59Z</time>
      </trkpt>
      <trkpt lat="43.09902" lon="-0.09494">
        <ele>372.65</ele>
        <time>2021-08-19T17:59:04Z</time>
      </trkpt>
      <trkpt lat="43.09902" lon="-0.09496">
        <ele>372.65</ele>
        <time>2021-08-19T17:59:05Z</time>
      </trkpt>
      <trkpt lat="43.09903" lon="-0.09499">
        <ele>372.65</ele>
        <time>2021-08-19T17:59:06Z</time>
      </trkpt>
      <trkpt lat="43.09903" lon="-0.09501">
        <ele>372.65</ele>
        <time>2021-08-19T17:59:07Z</time>
      </trkpt>
      <trkpt lat="43.09903" lon="-0.09503">
        <ele>373.13</ele>
        <time>2021-08-19T17:59:08Z</time>
      </trkpt>
      <trkpt lat="43.09902" lon="-0.09521">
        <ele>373.61</ele>
        <time>2021-08-19T17:59:15Z</time>
      </trkpt>
      <trkpt lat="43.09902" lon="-0.09544">
        <ele>374.57</ele>
        <time>2021-08-19T17:59:23Z</time>
      </trkpt>
      <trkpt lat="43.09906" lon="-0.09569">
        <ele>374.57</ele>
        <time>2021-08-19T17:59:30Z</time>
      </trkpt>
      <trkpt lat="43.09908" lon="-0.09593">
        <ele>374.57</ele>
        <time>2021-08-19T17:59:36Z</time>
      </trkpt>
      <trkpt lat="43.09914" lon="-0.09616">
        <ele>374.57</ele>
        <time>2021-08-19T17:59:42Z</time>
      </trkpt>
      <trkpt lat="43.09916" lon="-0.09629">
        <ele>374.57</ele>
        <time>2021-08-19T17:59:45Z</time>
      </trkpt>
      <trkpt lat="43.09916" lon="-0.09633">
        <ele>374.57</ele>
        <time>2021-08-19T17:59:46Z</time>
      </trkpt>
      <trkpt lat="43.09916" lon="-0.09638">
        <ele>374.57</ele>
        <time>2021-08-19T17:59:47Z</time>
      </trkpt>
      <trkpt lat="43.09917" lon="-0.09642">
        <ele>374.57</ele>
        <time>2021-08-19T17:59:48Z</time>
      </trkpt>
      <trkpt lat="43.09918" lon="-0.09647">
        <ele>374.57</ele>
        <time>2021-08-19T17:59:49Z</time>
      </trkpt>
      <trkpt lat="43.09919" lon="-0.09651">
        <ele>374.57</ele>
        <time>2021-08-19T17:59:50Z</time>
      </trkpt>
      <trkpt lat="43.09923" lon="-0.09682">
        <ele>374.57</ele>
        <time>2021-08-19T17:59:57Z</time>
      </trkpt>
      <trkpt lat="43.09933" lon="-0.09725">
        <ele>374.57</ele>
        <time>2021-08-19T18:00:06Z</time>
      </trkpt>
      <trkpt lat="43.09941" lon="-0.09748">
        <ele>373.13</ele>
        <time>2021-08-19T18:00:12Z</time>
      </trkpt>
      <trkpt lat="43.09947" lon="-0.0977">
        <ele>373.13</ele>
        <time>2021-08-19T18:00:18Z</time>
      </trkpt>
      <trkpt lat="43.09956" lon="-0.09788">
        <ele>372.65</ele>
        <time>2021-08-19T18:00:23Z</time>
      </trkpt>
      <trkpt lat="43.09972" lon="-0.0982">
        <ele>370.73</ele>
        <time>2021-08-19T18:00:29Z</time>
      </trkpt>
      <trkpt lat="43.09989" lon="-0.09858">
        <ele>369.76</ele>
        <time>2021-08-19T18:00:35Z</time>
      </trkpt>
      <trkpt lat="43.09992" lon="-0.09864">
        <ele>369.76</ele>
        <time>2021-08-19T18:00:36Z</time>
      </trkpt>
      <trkpt lat="43.09996" lon="-0.09871">
        <ele>369.28</ele>
        <time>2021-08-19T18:00:37Z</time>
      </trkpt>
      <trkpt lat="43.10016" lon="-0.09916">
        <ele>368.32</ele>
        <time>2021-08-19T18:00:44Z</time>
      </trkpt>
      <trkpt lat="43.10028" lon="-0.09944">
        <ele>367.84</ele>
        <time>2021-08-19T18:00:49Z</time>
      </trkpt>
      <trkpt lat="43.10031" lon="-0.09949">
        <ele>367.84</ele>
        <time>2021-08-19T18:00:50Z</time>
      </trkpt>
      <trkpt lat="43.10033" lon="-0.09954">
        <ele>367.84</ele>
        <time>2021-08-19T18:00:51Z</time>
      </trkpt>
      <trkpt lat="43.10035" lon="-0.09958">
        <ele>367.84</ele>
        <time>2021-08-19T18:00:52Z</time>
      </trkpt>
      <trkpt lat="43.10036" lon="-0.09961">
        <ele>367.84</ele>
        <time>2021-08-19T18:00:53Z</time>
      </trkpt>
      <trkpt lat="43.10038" lon="-0.09965">
        <ele>367.84</ele>
        <time>2021-08-19T18:00:54Z</time>
      </trkpt>
      <trkpt lat="43.10039" lon="-0.09967">
        <ele>367.84</ele>
        <time>2021-08-19T18:00:55Z</time>
      </trkpt>
      <trkpt lat="43.10047" lon="-0.09992">
        <ele>367.36</ele>
        <time>2021-08-19T18:01:00Z</time>
      </trkpt>
      <trkpt lat="43.10057" lon="-0.10036">
        <ele>367.36</ele>
        <time>2021-08-19T18:01:08Z</time>
      </trkpt>
      <trkpt lat="43.10066" lon="-0.10066">
        <ele>367.36</ele>
        <time>2021-08-19T18:01:13Z</time>
      </trkpt>
      <trkpt lat="43.10069" lon="-0.10078">
        <ele>367.36</ele>
        <time>2021-08-19T18:01:15Z</time>
      </trkpt>
      <trkpt lat="43.10075" lon="-0.10096">
        <ele>367.36</ele>
        <time>2021-08-19T18:01:18Z</time>
      </trkpt>
      <trkpt lat="43.10084" lon="-0.10138">
        <ele>367.36</ele>
        <time>2021-08-19T18:01:25Z</time>
      </trkpt>
      <trkpt lat="43.10089" lon="-0.10158">
        <ele>366.88</ele>
        <time>2021-08-19T18:01:28Z</time>
      </trkpt>
      <trkpt lat="43.10091" lon="-0.10164">
        <ele>366.88</ele>
        <time>2021-08-19T18:01:29Z</time>
      </trkpt>
      <trkpt lat="43.10093" lon="-0.10169">
        <ele>366.88</ele>
        <time>2021-08-19T18:01:30Z</time>
      </trkpt>
      <trkpt lat="43.10094" lon="-0.10176">
        <ele>366.88</ele>
        <time>2021-08-19T18:01:31Z</time>
      </trkpt>
      <trkpt lat="43.10096" lon="-0.10182">
        <ele>366.88</ele>
        <time>2021-08-19T18:01:32Z</time>
      </trkpt>
      <trkpt lat="43.10097" lon="-0.10188">
        <ele>366.88</ele>
        <time>2021-08-19T18:01:33Z</time>
      </trkpt>
      <trkpt lat="43.10098" lon="-0.10194">
        <ele>366.88</ele>
        <time>2021-08-19T18:01:34Z</time>
      </trkpt>
      <trkpt lat="43.1011" lon="-0.10245">
        <ele>366.4</ele>
        <time>2021-08-19T18:01:42Z</time>
      </trkpt>
      <trkpt lat="43.10118" lon="-0.1029">
        <ele>366.4</ele>
        <time>2021-08-19T18:01:49Z</time>
      </trkpt>
      <trkpt lat="43.1012" lon="-0.1031">
        <ele>367.84</ele>
        <time>2021-08-19T18:01:53Z</time>
      </trkpt>
      <trkpt lat="43.1012" lon="-0.10318">
        <ele>368.32</ele>
        <time>2021-08-19T18:01:56Z</time>
      </trkpt>
      <trkpt lat="43.10121" lon="-0.10321">
        <ele>368.8</ele>
        <time>2021-08-19T18:01:58Z</time>
      </trkpt>
      <trkpt lat="43.1012" lon="-0.10323">
        <ele>369.28</ele>
        <time>2021-08-19T18:01:59Z</time>
      </trkpt>
      <trkpt lat="43.10123" lon="-0.10338">
        <ele>370.24</ele>
        <time>2021-08-19T18:02:07Z</time>
      </trkpt>
      <trkpt lat="43.10124" lon="-0.10343">
        <ele>370.24</ele>
        <time>2021-08-19T18:02:16Z</time>
      </trkpt>
      <trkpt lat="43.10125" lon="-0.1035">
        <ele>371.69</ele>
        <time>2021-08-19T18:02:24Z</time>
      </trkpt>
      <trkpt lat="43.10127" lon="-0.10361">
        <ele>373.13</ele>
        <time>2021-08-19T18:02:34Z</time>
      </trkpt>
      <trkpt lat="43.10129" lon="-0.10368">
        <ele>374.09</ele>
        <time>2021-08-19T18:02:42Z</time>
      </trkpt>
      <trkpt lat="43.10128" lon="-0.10374">
        <ele>375.53</ele>
        <time>2021-08-19T18:02:49Z</time>
      </trkpt>
      <trkpt lat="43.10129" lon="-0.10383">
        <ele>376.97</ele>
        <time>2021-08-19T18:02:58Z</time>
      </trkpt>
      <trkpt lat="43.10132" lon="-0.10395">
        <ele>378.42</ele>
        <time>2021-08-19T18:03:09Z</time>
      </trkpt>
      <trkpt lat="43.10135" lon="-0.10402">
        <ele>379.86</ele>
        <time>2021-08-19T18:03:18Z</time>
      </trkpt>
      <trkpt lat="43.10137" lon="-0.10408">
        <ele>381.3</ele>
        <time>2021-08-19T18:03:26Z</time>
      </trkpt>
      <trkpt lat="43.10136" lon="-0.10414">
        <ele>382.74</ele>
        <time>2021-08-19T18:03:34Z</time>
      </trkpt>
      <trkpt lat="43.10135" lon="-0.1042">
        <ele>384.18</ele>
        <time>2021-08-19T18:03:42Z</time>
      </trkpt>
      <trkpt lat="43.10133" lon="-0.10428">
        <ele>385.15</ele>
        <time>2021-08-19T18:03:48Z</time>
      </trkpt>
      <trkpt lat="43.10131" lon="-0.1044">
        <ele>386.11</ele>
        <time>2021-08-19T18:03:55Z</time>
      </trkpt>
      <trkpt lat="43.10132" lon="-0.10447">
        <ele>386.59</ele>
        <time>2021-08-19T18:04:02Z</time>
      </trkpt>
      <trkpt lat="43.10133" lon="-0.1045">
        <ele>386.59</ele>
        <time>2021-08-19T18:04:04Z</time>
      </trkpt>
      <trkpt lat="43.10133" lon="-0.10452">
        <ele>386.59</ele>
        <time>2021-08-19T18:04:05Z</time>
      </trkpt>
      <trkpt lat="43.10134" lon="-0.10454">
        <ele>386.59</ele>
        <time>2021-08-19T18:04:06Z</time>
      </trkpt>
      <trkpt lat="43.10134" lon="-0.10456">
        <ele>386.59</ele>
        <time>2021-08-19T18:04:07Z</time>
      </trkpt>
      <trkpt lat="43.10134" lon="-0.10458">
        <ele>386.59</ele>
        <time>2021-08-19T18:04:08Z</time>
      </trkpt>
      <trkpt lat="43.10135" lon="-0.10461">
        <ele>386.59</ele>
        <time>2021-08-19T18:04:09Z</time>
      </trkpt>
      <trkpt lat="43.10136" lon="-0.10463">
        <ele>386.59</ele>
        <time>2021-08-19T18:04:10Z</time>
      </trkpt>
      <trkpt lat="43.10138" lon="-0.10465">
        <ele>386.59</ele>
        <time>2021-08-19T18:04:11Z</time>
      </trkpt>
      <trkpt lat="43.10138" lon="-0.10467">
        <ele>386.59</ele>
        <time>2021-08-19T18:04:12Z</time>
      </trkpt>
      <trkpt lat="43.10139" lon="-0.10468">
        <ele>386.59</ele>
        <time>2021-08-19T18:04:13Z</time>
      </trkpt>
      <trkpt lat="43.10143" lon="-0.10495">
        <ele>386.59</ele>
        <time>2021-08-19T18:04:19Z</time>
      </trkpt>
      <trkpt lat="43.10146" lon="-0.1053">
        <ele>386.59</ele>
        <time>2021-08-19T18:04:26Z</time>
      </trkpt>
      <trkpt lat="43.10145" lon="-0.10533">
        <ele>386.59</ele>
        <time>2021-08-19T18:04:27Z</time>
      </trkpt>
      <trkpt lat="43.10145" lon="-0.10536">
        <ele>386.59</ele>
        <time>2021-08-19T18:04:28Z</time>
      </trkpt>
      <trkpt lat="43.10146" lon="-0.10568">
        <ele>386.59</ele>
        <time>2021-08-19T18:04:34Z</time>
      </trkpt>
      <trkpt lat="43.10151" lon="-0.10609">
        <ele>385.15</ele>
        <time>2021-08-19T18:04:40Z</time>
      </trkpt>
      <trkpt lat="43.10157" lon="-0.10632">
        <ele>384.66</ele>
        <time>2021-08-19T18:04:44Z</time>
      </trkpt>
      <trkpt lat="43.10165" lon="-0.10678">
        <ele>384.18</ele>
        <time>2021-08-19T18:04:51Z</time>
      </trkpt>
      <trkpt lat="43.10177" lon="-0.10732">
        <ele>382.74</ele>
        <time>2021-08-19T18:04:58Z</time>
      </trkpt>
      <trkpt lat="43.10179" lon="-0.10739">
        <ele>382.74</ele>
        <time>2021-08-19T18:04:59Z</time>
      </trkpt>
      <trkpt lat="43.10181" lon="-0.10747">
        <ele>382.74</ele>
        <time>2021-08-19T18:05:00Z</time>
      </trkpt>
      <trkpt lat="43.10183" lon="-0.10755">
        <ele>382.26</ele>
        <time>2021-08-19T18:05:01Z</time>
      </trkpt>
      <trkpt lat="43.10197" lon="-0.10809">
        <ele>381.3</ele>
        <time>2021-08-19T18:05:08Z</time>
      </trkpt>
      <trkpt lat="43.10198" lon="-0.10817">
        <ele>380.82</ele>
        <time>2021-08-19T18:05:09Z</time>
      </trkpt>
      <trkpt lat="43.102" lon="-0.10825">
        <ele>380.82</ele>
        <time>2021-08-19T18:05:10Z</time>
      </trkpt>
      <trkpt lat="43.10209" lon="-0.10883">
        <ele>379.86</ele>
        <time>2021-08-19T18:05:17Z</time>
      </trkpt>
      <trkpt lat="43.10216" lon="-0.10956">
        <ele>377.94</ele>
        <time>2021-08-19T18:05:25Z</time>
      </trkpt>
      <trkpt lat="43.10229" lon="-0.11019">
        <ele>376.01</ele>
        <time>2021-08-19T18:05:32Z</time>
      </trkpt>
      <trkpt lat="43.10238" lon="-0.11058">
        <ele>374.57</ele>
        <time>2021-08-19T18:05:36Z</time>
      </trkpt>
      <trkpt lat="43.10256" lon="-0.11138">
        <ele>371.69</ele>
        <time>2021-08-19T18:05:44Z</time>
      </trkpt>
      <trkpt lat="43.10261" lon="-0.11167">
        <ele>371.21</ele>
        <time>2021-08-19T18:05:47Z</time>
      </trkpt>
      <trkpt lat="43.10261" lon="-0.11177">
        <ele>370.73</ele>
        <time>2021-08-19T18:05:48Z</time>
      </trkpt>
      <trkpt lat="43.10256" lon="-0.11261">
        <ele>369.76</ele>
        <time>2021-08-19T18:05:56Z</time>
      </trkpt>
      <trkpt lat="43.10256" lon="-0.11285">
        <ele>369.76</ele>
        <time>2021-08-19T18:05:59Z</time>
      </trkpt>
      <trkpt lat="43.10256" lon="-0.11294">
        <ele>369.76</ele>
        <time>2021-08-19T18:06:00Z</time>
      </trkpt>
      <trkpt lat="43.10256" lon="-0.11304">
        <ele>369.28</ele>
        <time>2021-08-19T18:06:01Z</time>
      </trkpt>
      <trkpt lat="43.10262" lon="-0.11356">
        <ele>367.36</ele>
        <time>2021-08-19T18:06:07Z</time>
      </trkpt>
      <trkpt lat="43.10264" lon="-0.11385">
        <ele>366.4</ele>
        <time>2021-08-19T18:06:10Z</time>
      </trkpt>
      <trkpt lat="43.10261" lon="-0.11467">
        <ele>365.44</ele>
        <time>2021-08-19T18:06:18Z</time>
      </trkpt>
      <trkpt lat="43.10252" lon="-0.11526">
        <ele>364.96</ele>
        <time>2021-08-19T18:06:25Z</time>
      </trkpt>
      <trkpt lat="43.10252" lon="-0.11534">
        <ele>364.96</ele>
        <time>2021-08-19T18:06:26Z</time>
      </trkpt>
      <trkpt lat="43.10251" lon="-0.11541">
        <ele>364.96</ele>
        <time>2021-08-19T18:06:27Z</time>
      </trkpt>
      <trkpt lat="43.1025" lon="-0.11549">
        <ele>364.96</ele>
        <time>2021-08-19T18:06:28Z</time>
      </trkpt>
      <trkpt lat="43.10249" lon="-0.11556">
        <ele>364.96</ele>
        <time>2021-08-19T18:06:29Z</time>
      </trkpt>
      <trkpt lat="43.10243" lon="-0.11584">
        <ele>364.48</ele>
        <time>2021-08-19T18:06:33Z</time>
      </trkpt>
      <trkpt lat="43.10239" lon="-0.1161">
        <ele>364.48</ele>
        <time>2021-08-19T18:06:37Z</time>
      </trkpt>
      <trkpt lat="43.10227" lon="-0.11678">
        <ele>363.52</ele>
        <time>2021-08-19T18:06:46Z</time>
      </trkpt>
      <trkpt lat="43.10218" lon="-0.11735">
        <ele>363.04</ele>
        <time>2021-08-19T18:06:53Z</time>
      </trkpt>
      <trkpt lat="43.10217" lon="-0.11743">
        <ele>363.04</ele>
        <time>2021-08-19T18:06:54Z</time>
      </trkpt>
      <trkpt lat="43.10213" lon="-0.11797">
        <ele>362.55</ele>
        <time>2021-08-19T18:07:01Z</time>
      </trkpt>
      <trkpt lat="43.10206" lon="-0.1188">
        <ele>360.63</ele>
        <time>2021-08-19T18:07:10Z</time>
      </trkpt>
      <trkpt lat="43.10204" lon="-0.11888">
        <ele>360.63</ele>
        <time>2021-08-19T18:07:11Z</time>
      </trkpt>
      <trkpt lat="43.102" lon="-0.11905">
        <ele>360.63</ele>
        <time>2021-08-19T18:07:13Z</time>
      </trkpt>
      <trkpt lat="43.10191" lon="-0.11937">
        <ele>360.63</ele>
        <time>2021-08-19T18:07:17Z</time>
      </trkpt>
      <trkpt lat="43.1019" lon="-0.11945">
        <ele>360.63</ele>
        <time>2021-08-19T18:07:18Z</time>
      </trkpt>
      <trkpt lat="43.10187" lon="-0.11952">
        <ele>360.63</ele>
        <time>2021-08-19T18:07:19Z</time>
      </trkpt>
      <trkpt lat="43.10183" lon="-0.11965">
        <ele>360.63</ele>
        <time>2021-08-19T18:07:21Z</time>
      </trkpt>
      <trkpt lat="43.1018" lon="-0.11978">
        <ele>360.63</ele>
        <time>2021-08-19T18:07:23Z</time>
      </trkpt>
      <trkpt lat="43.10177" lon="-0.11983">
        <ele>360.63</ele>
        <time>2021-08-19T18:07:24Z</time>
      </trkpt>
      <trkpt lat="43.10175" lon="-0.11988">
        <ele>360.63</ele>
        <time>2021-08-19T18:07:25Z</time>
      </trkpt>
      <trkpt lat="43.10172" lon="-0.11994">
        <ele>360.63</ele>
        <time>2021-08-19T18:07:26Z</time>
      </trkpt>
      <trkpt lat="43.10169" lon="-0.11999">
        <ele>360.63</ele>
        <time>2021-08-19T18:07:27Z</time>
      </trkpt>
      <trkpt lat="43.10166" lon="-0.12004">
        <ele>360.63</ele>
        <time>2021-08-19T18:07:28Z</time>
      </trkpt>
      <trkpt lat="43.10139" lon="-0.12048">
        <ele>360.15</ele>
        <time>2021-08-19T18:07:36Z</time>
      </trkpt>
      <trkpt lat="43.10136" lon="-0.12054">
        <ele>359.67</ele>
        <time>2021-08-19T18:07:37Z</time>
      </trkpt>
      <trkpt lat="43.10133" lon="-0.1206">
        <ele>359.67</ele>
        <time>2021-08-19T18:07:38Z</time>
      </trkpt>
      <trkpt lat="43.10131" lon="-0.12068">
        <ele>359.67</ele>
        <time>2021-08-19T18:07:39Z</time>
      </trkpt>
      <trkpt lat="43.10128" lon="-0.12075">
        <ele>359.67</ele>
        <time>2021-08-19T18:07:40Z</time>
      </trkpt>
      <trkpt lat="43.10126" lon="-0.12083">
        <ele>359.67</ele>
        <time>2021-08-19T18:07:41Z</time>
      </trkpt>
      <trkpt lat="43.1012" lon="-0.12106">
        <ele>359.67</ele>
        <time>2021-08-19T18:07:44Z</time>
      </trkpt>
      <trkpt lat="43.10119" lon="-0.12111">
        <ele>359.67</ele>
        <time>2021-08-19T18:07:45Z</time>
      </trkpt>
      <trkpt lat="43.10111" lon="-0.1215">
        <ele>361.59</ele>
        <time>2021-08-19T18:07:52Z</time>
      </trkpt>
      <trkpt lat="43.1011" lon="-0.12165">
        <ele>363.04</ele>
        <time>2021-08-19T18:07:57Z</time>
      </trkpt>
      <trkpt lat="43.1011" lon="-0.12181">
        <ele>364.48</ele>
        <time>2021-08-19T18:08:05Z</time>
      </trkpt>
      <trkpt lat="43.10105" lon="-0.12204">
        <ele>365.92</ele>
        <time>2021-08-19T18:08:13Z</time>
      </trkpt>
      <trkpt lat="43.10101" lon="-0.12214">
        <ele>366.88</ele>
        <time>2021-08-19T18:08:17Z</time>
      </trkpt>
      <trkpt lat="43.101" lon="-0.12217">
        <ele>366.88</ele>
        <time>2021-08-19T18:08:18Z</time>
      </trkpt>
      <trkpt lat="43.10098" lon="-0.12221">
        <ele>366.88</ele>
        <time>2021-08-19T18:08:19Z</time>
      </trkpt>
      <trkpt lat="43.10097" lon="-0.12225">
        <ele>366.88</ele>
        <time>2021-08-19T18:08:20Z</time>
      </trkpt>
      <trkpt lat="43.10097" lon="-0.12229">
        <ele>366.88</ele>
        <time>2021-08-19T18:08:21Z</time>
      </trkpt>
      <trkpt lat="43.10097" lon="-0.12232">
        <ele>367.84</ele>
        <time>2021-08-19T18:08:22Z</time>
      </trkpt>
      <trkpt lat="43.10097" lon="-0.12236">
        <ele>367.84</ele>
        <time>2021-08-19T18:08:23Z</time>
      </trkpt>
      <trkpt lat="43.10097" lon="-0.12239">
        <ele>367.84</ele>
        <time>2021-08-19T18:08:24Z</time>
      </trkpt>
      <trkpt lat="43.10095" lon="-0.12261">
        <ele>369.28</ele>
        <time>2021-08-19T18:08:31Z</time>
      </trkpt>
      <trkpt lat="43.1009" lon="-0.12284">
        <ele>370.24</ele>
        <time>2021-08-19T18:08:38Z</time>
      </trkpt>
      <trkpt lat="43.1008" lon="-0.12314">
        <ele>370.24</ele>
        <time>2021-08-19T18:08:46Z</time>
      </trkpt>
      <trkpt lat="43.10066" lon="-0.1234">
        <ele>370.24</ele>
        <time>2021-08-19T18:08:52Z</time>
      </trkpt>
      <trkpt lat="43.10061" lon="-0.1235">
        <ele>370.24</ele>
        <time>2021-08-19T18:08:54Z</time>
      </trkpt>
      <trkpt lat="43.10058" lon="-0.12355">
        <ele>370.24</ele>
        <time>2021-08-19T18:08:55Z</time>
      </trkpt>
      <trkpt lat="43.10049" lon="-0.12371">
        <ele>370.24</ele>
        <time>2021-08-19T18:08:58Z</time>
      </trkpt>
      <trkpt lat="43.10047" lon="-0.12376">
        <ele>370.24</ele>
        <time>2021-08-19T18:08:59Z</time>
      </trkpt>
      <trkpt lat="43.10044" lon="-0.12382">
        <ele>370.24</ele>
        <time>2021-08-19T18:09:00Z</time>
      </trkpt>
      <trkpt lat="43.10041" lon="-0.12387">
        <ele>370.24</ele>
        <time>2021-08-19T18:09:01Z</time>
      </trkpt>
      <trkpt lat="43.10038" lon="-0.12392">
        <ele>370.24</ele>
        <time>2021-08-19T18:09:02Z</time>
      </trkpt>
      <trkpt lat="43.10035" lon="-0.12397">
        <ele>370.24</ele>
        <time>2021-08-19T18:09:03Z</time>
      </trkpt>
      <trkpt lat="43.10033" lon="-0.12401">
        <ele>370.24</ele>
        <time>2021-08-19T18:09:04Z</time>
      </trkpt>
      <trkpt lat="43.10029" lon="-0.12408">
        <ele>370.24</ele>
        <time>2021-08-19T18:09:05Z</time>
      </trkpt>
      <trkpt lat="43.10025" lon="-0.12413">
        <ele>370.24</ele>
        <time>2021-08-19T18:09:06Z</time>
      </trkpt>
      <trkpt lat="43.10022" lon="-0.12419">
        <ele>369.28</ele>
        <time>2021-08-19T18:09:07Z</time>
      </trkpt>
      <trkpt lat="43.10003" lon="-0.12451">
        <ele>369.28</ele>
        <time>2021-08-19T18:09:12Z</time>
      </trkpt>
      <trkpt lat="43.09986" lon="-0.12473">
        <ele>368.8</ele>
        <time>2021-08-19T18:09:16Z</time>
      </trkpt>
      <trkpt lat="43.09977" lon="-0.12482">
        <ele>368.8</ele>
        <time>2021-08-19T18:09:18Z</time>
      </trkpt>
      <trkpt lat="43.09964" lon="-0.12494">
        <ele>368.8</ele>
        <time>2021-08-19T18:09:21Z</time>
      </trkpt>
      <trkpt lat="43.0996" lon="-0.12498">
        <ele>368.8</ele>
        <time>2021-08-19T18:09:22Z</time>
      </trkpt>
      <trkpt lat="43.09956" lon="-0.12501">
        <ele>368.8</ele>
        <time>2021-08-19T18:09:23Z</time>
      </trkpt>
      <trkpt lat="43.09942" lon="-0.12511">
        <ele>368.8</ele>
        <time>2021-08-19T18:09:26Z</time>
      </trkpt>
      <trkpt lat="43.09904" lon="-0.12542">
        <ele>367.84</ele>
        <time>2021-08-19T18:09:34Z</time>
      </trkpt>
      <trkpt lat="43.09873" lon="-0.12568">
        <ele>367.84</ele>
        <time>2021-08-19T18:09:41Z</time>
      </trkpt>
      <trkpt lat="43.09869" lon="-0.12572">
        <ele>367.84</ele>
        <time>2021-08-19T18:09:42Z</time>
      </trkpt>
      <trkpt lat="43.09851" lon="-0.12586">
        <ele>367.84</ele>
        <time>2021-08-19T18:09:46Z</time>
      </trkpt>
      <trkpt lat="43.09846" lon="-0.12588">
        <ele>367.84</ele>
        <time>2021-08-19T18:09:47Z</time>
      </trkpt>
      <trkpt lat="43.09841" lon="-0.1259">
        <ele>367.84</ele>
        <time>2021-08-19T18:09:48Z</time>
      </trkpt>
      <trkpt lat="43.09836" lon="-0.12592">
        <ele>367.84</ele>
        <time>2021-08-19T18:09:49Z</time>
      </trkpt>
      <trkpt lat="43.09831" lon="-0.12594">
        <ele>367.84</ele>
        <time>2021-08-19T18:09:50Z</time>
      </trkpt>
      <trkpt lat="43.09827" lon="-0.12596">
        <ele>367.84</ele>
        <time>2021-08-19T18:09:51Z</time>
      </trkpt>
      <trkpt lat="43.09823" lon="-0.126">
        <ele>368.8</ele>
        <time>2021-08-19T18:09:52Z</time>
      </trkpt>
      <trkpt lat="43.0982" lon="-0.12603">
        <ele>368.8</ele>
        <time>2021-08-19T18:09:53Z</time>
      </trkpt>
      <trkpt lat="43.09813" lon="-0.12617">
        <ele>369.28</ele>
        <time>2021-08-19T18:09:57Z</time>
      </trkpt>
      <trkpt lat="43.09806" lon="-0.12639">
        <ele>371.21</ele>
        <time>2021-08-19T18:10:03Z</time>
      </trkpt>
      <trkpt lat="43.09803" lon="-0.12665">
        <ele>373.13</ele>
        <time>2021-08-19T18:10:10Z</time>
      </trkpt>
      <trkpt lat="43.09795" lon="-0.12699">
        <ele>370.24</ele>
        <time>2021-08-19T18:10:15Z</time>
      </trkpt>
      <trkpt lat="43.09793" lon="-0.12708">
        <ele>368.8</ele>
        <time>2021-08-19T18:10:16Z</time>
      </trkpt>
      <trkpt lat="43.09793" lon="-0.12718">
        <ele>368.8</ele>
        <time>2021-08-19T18:10:17Z</time>
      </trkpt>
      <trkpt lat="43.09792" lon="-0.12737">
        <ele>368.32</ele>
        <time>2021-08-19T18:10:19Z</time>
      </trkpt>
      <trkpt lat="43.09794" lon="-0.12746">
        <ele>368.32</ele>
        <time>2021-08-19T18:10:20Z</time>
      </trkpt>
      <trkpt lat="43.09798" lon="-0.1277">
        <ele>367.84</ele>
        <time>2021-08-19T18:10:23Z</time>
      </trkpt>
      <trkpt lat="43.09798" lon="-0.12777">
        <ele>367.84</ele>
        <time>2021-08-19T18:10:24Z</time>
      </trkpt>
      <trkpt lat="43.09797" lon="-0.12784">
        <ele>367.84</ele>
        <time>2021-08-19T18:10:25Z</time>
      </trkpt>
      <trkpt lat="43.09795" lon="-0.1279">
        <ele>367.84</ele>
        <time>2021-08-19T18:10:26Z</time>
      </trkpt>
      <trkpt lat="43.09792" lon="-0.12796">
        <ele>367.84</ele>
        <time>2021-08-19T18:10:27Z</time>
      </trkpt>
      <trkpt lat="43.09789" lon="-0.128">
        <ele>367.84</ele>
        <time>2021-08-19T18:10:28Z</time>
      </trkpt>
      <trkpt lat="43.09785" lon="-0.12805">
        <ele>369.28</ele>
        <time>2021-08-19T18:10:29Z</time>
      </trkpt>
      <trkpt lat="43.09782" lon="-0.12808">
        <ele>369.28</ele>
        <time>2021-08-19T18:10:30Z</time>
      </trkpt>
      <trkpt lat="43.09778" lon="-0.12812">
        <ele>369.76</ele>
        <time>2021-08-19T18:10:31Z</time>
      </trkpt>
      <trkpt lat="43.09776" lon="-0.12815">
        <ele>370.24</ele>
        <time>2021-08-19T18:10:32Z</time>
      </trkpt>
      <trkpt lat="43.09774" lon="-0.12819">
        <ele>370.24</ele>
        <time>2021-08-19T18:10:33Z</time>
      </trkpt>
      <trkpt lat="43.09774" lon="-0.12823">
        <ele>370.73</ele>
        <time>2021-08-19T18:10:34Z</time>
      </trkpt>
      <trkpt lat="43.09775" lon="-0.12827">
        <ele>370.73</ele>
        <time>2021-08-19T18:10:35Z</time>
      </trkpt>
      <trkpt lat="43.09777" lon="-0.1283">
        <ele>370.73</ele>
        <time>2021-08-19T18:10:36Z</time>
      </trkpt>
      <trkpt lat="43.09791" lon="-0.12866">
        <ele>372.17</ele>
        <time>2021-08-19T18:10:45Z</time>
      </trkpt>
      <trkpt lat="43.09792" lon="-0.12894">
        <ele>373.61</ele>
        <time>2021-08-19T18:10:53Z</time>
      </trkpt>
      <trkpt lat="43.09791" lon="-0.12898">
        <ele>374.09</ele>
        <time>2021-08-19T18:10:54Z</time>
      </trkpt>
      <trkpt lat="43.09791" lon="-0.12905">
        <ele>374.09</ele>
        <time>2021-08-19T18:10:55Z</time>
      </trkpt>
      <trkpt lat="43.09791" lon="-0.1291">
        <ele>374.09</ele>
        <time>2021-08-19T18:10:56Z</time>
      </trkpt>
      <trkpt lat="43.09789" lon="-0.12931">
        <ele>375.05</ele>
        <time>2021-08-19T18:11:01Z</time>
      </trkpt>
      <trkpt lat="43.09789" lon="-0.12935">
        <ele>375.05</ele>
        <time>2021-08-19T18:11:02Z</time>
      </trkpt>
      <trkpt lat="43.09789" lon="-0.12938">
        <ele>375.05</ele>
        <time>2021-08-19T18:11:03Z</time>
      </trkpt>
      <trkpt lat="43.09789" lon="-0.1294">
        <ele>375.05</ele>
        <time>2021-08-19T18:11:04Z</time>
      </trkpt>
      <trkpt lat="43.0979" lon="-0.12943">
        <ele>375.05</ele>
        <time>2021-08-19T18:11:05Z</time>
      </trkpt>
      <trkpt lat="43.0979" lon="-0.12945">
        <ele>375.53</ele>
        <time>2021-08-19T18:11:06Z</time>
      </trkpt>
      <trkpt lat="43.09791" lon="-0.12945">
        <ele>375.53</ele>
        <time>2021-08-19T18:11:11Z</time>
      </trkpt>
      <trkpt lat="43.09792" lon="-0.12941">
        <ele>375.53</ele>
        <time>2021-08-19T18:11:24Z</time>
      </trkpt>
      <trkpt lat="43.09793" lon="-0.12943">
        <ele>375.53</ele>
        <time>2021-08-19T18:11:37Z</time>
      </trkpt>
      <trkpt lat="43.09793" lon="-0.12945">
        <ele>375.53</ele>
        <time>2021-08-19T18:11:49Z</time>
      </trkpt>
      <trkpt lat="43.09794" lon="-0.12943">
        <ele>375.53</ele>
        <time>2021-08-19T18:12:09Z</time>
      </trkpt>
      <trkpt lat="43.09793" lon="-0.12942">
        <ele>375.05</ele>
        <time>2021-08-19T18:12:21Z</time>
      </trkpt>
      <trkpt lat="43.09795" lon="-0.12942">
        <ele>375.05</ele>
        <time>2021-08-19T18:12:39Z</time>
      </trkpt>
      <trkpt lat="43.09794" lon="-0.12942">
        <ele>375.05</ele>
        <time>2021-08-19T18:12:54Z</time>
      </trkpt>
      <trkpt lat="43.09793" lon="-0.12945">
        <ele>375.05</ele>
        <time>2021-08-19T18:13:12Z</time>
      </trkpt>
      <trkpt lat="43.09791" lon="-0.12946">
        <ele>375.05</ele>
        <time>2021-08-19T18:13:31Z</time>
      </trkpt>
      <trkpt lat="43.09792" lon="-0.12946">
        <ele>375.05</ele>
        <time>2021-08-19T18:13:45Z</time>
      </trkpt>
      <trkpt lat="43.09793" lon="-0.12946">
        <ele>375.05</ele>
        <time>2021-08-19T18:14:01Z</time>
      </trkpt>
      <trkpt lat="43.09794" lon="-0.12945">
        <ele>375.05</ele>
        <time>2021-08-19T18:14:15Z</time>
      </trkpt>
      <trkpt lat="43.09794" lon="-0.12944">
        <ele>375.05</ele>
        <time>2021-08-19T18:14:29Z</time>
      </trkpt>
      <trkpt lat="43.09793" lon="-0.12946">
        <ele>375.05</ele>
        <time>2021-08-19T18:14:31Z</time>
      </trkpt>
      <trkpt lat="43.09792" lon="-0.12962">
        <ele>375.05</ele>
        <time>2021-08-19T18:14:37Z</time>
      </trkpt>
      <trkpt lat="43.09794" lon="-0.13005">
        <ele>375.05</ele>
        <time>2021-08-19T18:14:45Z</time>
      </trkpt>
      <trkpt lat="43.09801" lon="-0.1303">
        <ele>375.05</ele>
        <time>2021-08-19T18:14:49Z</time>
      </trkpt>
      <trkpt lat="43.09821" lon="-0.13082">
        <ele>372.65</ele>
        <time>2021-08-19T18:14:57Z</time>
      </trkpt>
      <trkpt lat="43.09829" lon="-0.13108">
        <ele>372.17</ele>
        <time>2021-08-19T18:15:02Z</time>
      </trkpt>
      <trkpt lat="43.09829" lon="-0.13108">
        <ele>372.17</ele>
        <time>2021-08-19T18:15:21Z</time>
      </trkpt>
      <trkpt lat="43.09829" lon="-0.13104">
        <ele>372.17</ele>
        <time>2021-08-19T18:15:40Z</time>
      </trkpt>
      <trkpt lat="43.0983" lon="-0.13105">
        <ele>372.17</ele>
        <time>2021-08-19T18:15:56Z</time>
      </trkpt>
      <trkpt lat="43.0983" lon="-0.13106">
        <ele>372.17</ele>
        <time>2021-08-19T18:15:59Z</time>
      </trkpt>
      <trkpt lat="43.09831" lon="-0.13106">
        <ele>372.17</ele>
        <time>2021-08-19T18:16:00Z</time>
      </trkpt>
      <trkpt lat="43.0983" lon="-0.13107">
        <ele>372.17</ele>
        <time>2021-08-19T18:16:06Z</time>
      </trkpt>
      <trkpt lat="43.09829" lon="-0.13105">
        <ele>372.17</ele>
        <time>2021-08-19T18:16:25Z</time>
      </trkpt>
      <trkpt lat="43.0983" lon="-0.13106">
        <ele>372.17</ele>
        <time>2021-08-19T18:16:28Z</time>
      </trkpt>
      <trkpt lat="43.09831" lon="-0.13108">
        <ele>372.17</ele>
        <time>2021-08-19T18:16:29Z</time>
      </trkpt>
      <trkpt lat="43.09832" lon="-0.1311">
        <ele>372.17</ele>
        <time>2021-08-19T18:16:30Z</time>
      </trkpt>
      <trkpt lat="43.09846" lon="-0.13131">
        <ele>370.24</ele>
        <time>2021-08-19T18:16:36Z</time>
      </trkpt>
      <trkpt lat="43.09849" lon="-0.13137">
        <ele>370.24</ele>
        <time>2021-08-19T18:16:37Z</time>
      </trkpt>
      <trkpt lat="43.09851" lon="-0.13144">
        <ele>369.28</ele>
        <time>2021-08-19T18:16:38Z</time>
      </trkpt>
      <trkpt lat="43.09859" lon="-0.13164">
        <ele>368.32</ele>
        <time>2021-08-19T18:16:41Z</time>
      </trkpt>
      <trkpt lat="43.09862" lon="-0.1317">
        <ele>368.32</ele>
        <time>2021-08-19T18:16:42Z</time>
      </trkpt>
      <trkpt lat="43.09866" lon="-0.13176">
        <ele>367.36</ele>
        <time>2021-08-19T18:16:43Z</time>
      </trkpt>
      <trkpt lat="43.09869" lon="-0.13182">
        <ele>366.88</ele>
        <time>2021-08-19T18:16:44Z</time>
      </trkpt>
      <trkpt lat="43.09874" lon="-0.13189">
        <ele>365.92</ele>
        <time>2021-08-19T18:16:45Z</time>
      </trkpt>
      <trkpt lat="43.09878" lon="-0.13195">
        <ele>365.44</ele>
        <time>2021-08-19T18:16:46Z</time>
      </trkpt>
      <trkpt lat="43.09915" lon="-0.13242">
        <ele>362.07</ele>
        <time>2021-08-19T18:16:53Z</time>
      </trkpt>
      <trkpt lat="43.09919" lon="-0.1325">
        <ele>362.07</ele>
        <time>2021-08-19T18:16:54Z</time>
      </trkpt>
      <trkpt lat="43.09948" lon="-0.13305">
        <ele>360.63</ele>
        <time>2021-08-19T18:17:01Z</time>
      </trkpt>
      <trkpt lat="43.09961" lon="-0.13348">
        <ele>362.55</ele>
        <time>2021-08-19T18:17:07Z</time>
      </trkpt>
      <trkpt lat="43.09971" lon="-0.13391">
        <ele>364</ele>
        <time>2021-08-19T18:17:14Z</time>
      </trkpt>
      <trkpt lat="43.09983" lon="-0.13423">
        <ele>364.48</ele>
        <time>2021-08-19T18:17:20Z</time>
      </trkpt>
      <trkpt lat="43.09992" lon="-0.13443">
        <ele>364.48</ele>
        <time>2021-08-19T18:17:24Z</time>
      </trkpt>
      <trkpt lat="43.10006" lon="-0.13489">
        <ele>364.48</ele>
        <time>2021-08-19T18:17:32Z</time>
      </trkpt>
      <trkpt lat="43.10007" lon="-0.13495">
        <ele>364.48</ele>
        <time>2021-08-19T18:17:33Z</time>
      </trkpt>
      <trkpt lat="43.10006" lon="-0.13539">
        <ele>365.44</ele>
        <time>2021-08-19T18:17:40Z</time>
      </trkpt>
      <trkpt lat="43.09991" lon="-0.13585">
        <ele>366.88</ele>
        <time>2021-08-19T18:17:49Z</time>
      </trkpt>
      <trkpt lat="43.09973" lon="-0.13655">
        <ele>366.4</ele>
        <time>2021-08-19T18:18:00Z</time>
      </trkpt>
      <trkpt lat="43.0996" lon="-0.13718">
        <ele>365.44</ele>
        <time>2021-08-19T18:18:09Z</time>
      </trkpt>
      <trkpt lat="43.09952" lon="-0.1378">
        <ele>364.48</ele>
        <time>2021-08-19T18:18:17Z</time>
      </trkpt>
      <trkpt lat="43.09947" lon="-0.13816">
        <ele>364.48</ele>
        <time>2021-08-19T18:18:22Z</time>
      </trkpt>
      <trkpt lat="43.09947" lon="-0.13822">
        <ele>364.48</ele>
        <time>2021-08-19T18:18:23Z</time>
      </trkpt>
      <trkpt lat="43.09949" lon="-0.13828">
        <ele>364.48</ele>
        <time>2021-08-19T18:18:24Z</time>
      </trkpt>
      <trkpt lat="43.09952" lon="-0.13832">
        <ele>364.48</ele>
        <time>2021-08-19T18:18:25Z</time>
      </trkpt>
      <trkpt lat="43.09956" lon="-0.13835">
        <ele>364.48</ele>
        <time>2021-08-19T18:18:26Z</time>
      </trkpt>
      <trkpt lat="43.0996" lon="-0.13837">
        <ele>364.48</ele>
        <time>2021-08-19T18:18:27Z</time>
      </trkpt>
      <trkpt lat="43.09965" lon="-0.13838">
        <ele>364.48</ele>
        <time>2021-08-19T18:18:28Z</time>
      </trkpt>
      <trkpt lat="43.09975" lon="-0.1384">
        <ele>364.48</ele>
        <time>2021-08-19T18:18:30Z</time>
      </trkpt>
      <trkpt lat="43.0998" lon="-0.1384">
        <ele>364.48</ele>
        <time>2021-08-19T18:18:31Z</time>
      </trkpt>
      <trkpt lat="43.09999" lon="-0.1384">
        <ele>364.48</ele>
        <time>2021-08-19T18:18:35Z</time>
      </trkpt>
      <trkpt lat="43.10004" lon="-0.13842">
        <ele>364.48</ele>
        <time>2021-08-19T18:18:36Z</time>
      </trkpt>
      <trkpt lat="43.10008" lon="-0.13843">
        <ele>364.48</ele>
        <time>2021-08-19T18:18:37Z</time>
      </trkpt>
      <trkpt lat="43.10017" lon="-0.13849">
        <ele>365.92</ele>
        <time>2021-08-19T18:18:39Z</time>
      </trkpt>
      <trkpt lat="43.1002" lon="-0.13853">
        <ele>365.92</ele>
        <time>2021-08-19T18:18:40Z</time>
      </trkpt>
      <trkpt lat="43.10023" lon="-0.13858">
        <ele>365.92</ele>
        <time>2021-08-19T18:18:41Z</time>
      </trkpt>
      <trkpt lat="43.10025" lon="-0.13864">
        <ele>365.92</ele>
        <time>2021-08-19T18:18:42Z</time>
      </trkpt>
      <trkpt lat="43.10026" lon="-0.13871">
        <ele>365.92</ele>
        <time>2021-08-19T18:18:43Z</time>
      </trkpt>
      <trkpt lat="43.10025" lon="-0.13878">
        <ele>365.92</ele>
        <time>2021-08-19T18:18:44Z</time>
      </trkpt>
      <trkpt lat="43.10024" lon="-0.13885">
        <ele>365.92</ele>
        <time>2021-08-19T18:18:45Z</time>
      </trkpt>
      <trkpt lat="43.10021" lon="-0.13938">
        <ele>365.44</ele>
        <time>2021-08-19T18:18:52Z</time>
      </trkpt>
      <trkpt lat="43.1002" lon="-0.13946">
        <ele>365.44</ele>
        <time>2021-08-19T18:18:53Z</time>
      </trkpt>
      <trkpt lat="43.1002" lon="-0.13983">
        <ele>364.48</ele>
        <time>2021-08-19T18:18:58Z</time>
      </trkpt>
      <trkpt lat="43.10024" lon="-0.14017">
        <ele>363.04</ele>
        <time>2021-08-19T18:19:02Z</time>
      </trkpt>
      <trkpt lat="43.10028" lon="-0.14056">
        <ele>362.55</ele>
        <time>2021-08-19T18:19:07Z</time>
      </trkpt>
      <trkpt lat="43.10031" lon="-0.14063">
        <ele>362.55</ele>
        <time>2021-08-19T18:19:08Z</time>
      </trkpt>
      <trkpt lat="43.10033" lon="-0.14068">
        <ele>362.55</ele>
        <time>2021-08-19T18:19:09Z</time>
      </trkpt>
      <trkpt lat="43.10038" lon="-0.14072">
        <ele>362.55</ele>
        <time>2021-08-19T18:19:10Z</time>
      </trkpt>
      <trkpt lat="43.10041" lon="-0.14075">
        <ele>362.55</ele>
        <time>2021-08-19T18:19:11Z</time>
      </trkpt>
      <trkpt lat="43.10048" lon="-0.14082">
        <ele>362.55</ele>
        <time>2021-08-19T18:19:13Z</time>
      </trkpt>
      <trkpt lat="43.10051" lon="-0.14086">
        <ele>362.55</ele>
        <time>2021-08-19T18:19:14Z</time>
      </trkpt>
      <trkpt lat="43.10053" lon="-0.14091">
        <ele>362.55</ele>
        <time>2021-08-19T18:19:15Z</time>
      </trkpt>
      <trkpt lat="43.10054" lon="-0.14098">
        <ele>362.55</ele>
        <time>2021-08-19T18:19:16Z</time>
      </trkpt>
      <trkpt lat="43.10055" lon="-0.14104">
        <ele>362.55</ele>
        <time>2021-08-19T18:19:17Z</time>
      </trkpt>
      <trkpt lat="43.10056" lon="-0.14112">
        <ele>362.55</ele>
        <time>2021-08-19T18:19:18Z</time>
      </trkpt>
      <trkpt lat="43.10056" lon="-0.14119">
        <ele>362.55</ele>
        <time>2021-08-19T18:19:19Z</time>
      </trkpt>
      <trkpt lat="43.10056" lon="-0.14171">
        <ele>362.55</ele>
        <time>2021-08-19T18:19:27Z</time>
      </trkpt>
      <trkpt lat="43.10061" lon="-0.14179">
        <ele>362.55</ele>
        <time>2021-08-19T18:19:29Z</time>
      </trkpt>
      <trkpt lat="43.10065" lon="-0.14182">
        <ele>362.55</ele>
        <time>2021-08-19T18:19:30Z</time>
      </trkpt>
      <trkpt lat="43.10069" lon="-0.14185">
        <ele>362.55</ele>
        <time>2021-08-19T18:19:31Z</time>
      </trkpt>
      <trkpt lat="43.10075" lon="-0.14188">
        <ele>362.07</ele>
        <time>2021-08-19T18:19:32Z</time>
      </trkpt>
      <trkpt lat="43.1008" lon="-0.14189">
        <ele>362.07</ele>
        <time>2021-08-19T18:19:33Z</time>
      </trkpt>
      <trkpt lat="43.10087" lon="-0.1419">
        <ele>362.07</ele>
        <time>2021-08-19T18:19:34Z</time>
      </trkpt>
      <trkpt lat="43.10092" lon="-0.1419">
        <ele>362.07</ele>
        <time>2021-08-19T18:19:35Z</time>
      </trkpt>
      <trkpt lat="43.10128" lon="-0.14193">
        <ele>361.11</ele>
        <time>2021-08-19T18:19:41Z</time>
      </trkpt>
      <trkpt lat="43.10133" lon="-0.14194">
        <ele>360.63</ele>
        <time>2021-08-19T18:19:42Z</time>
      </trkpt>
      <trkpt lat="43.10139" lon="-0.14196">
        <ele>360.15</ele>
        <time>2021-08-19T18:19:43Z</time>
      </trkpt>
      <trkpt lat="43.10145" lon="-0.142">
        <ele>359.67</ele>
        <time>2021-08-19T18:19:44Z</time>
      </trkpt>
      <trkpt lat="43.10176" lon="-0.14226">
        <ele>355.83</ele>
        <time>2021-08-19T18:19:49Z</time>
      </trkpt>
      <trkpt lat="43.10195" lon="-0.14249">
        <ele>352.46</ele>
        <time>2021-08-19T18:19:52Z</time>
      </trkpt>
      <trkpt lat="43.10215" lon="-0.14276">
        <ele>350.54</ele>
        <time>2021-08-19T18:19:55Z</time>
      </trkpt>
      <trkpt lat="43.10228" lon="-0.14294">
        <ele>349.1</ele>
        <time>2021-08-19T18:19:57Z</time>
      </trkpt>
      <trkpt lat="43.10235" lon="-0.14301">
        <ele>349.1</ele>
        <time>2021-08-19T18:19:58Z</time>
      </trkpt>
      <trkpt lat="43.10246" lon="-0.14313">
        <ele>351.02</ele>
        <time>2021-08-19T18:20:00Z</time>
      </trkpt>
      <trkpt lat="43.10251" lon="-0.14318">
        <ele>351.02</ele>
        <time>2021-08-19T18:20:01Z</time>
      </trkpt>
      <trkpt lat="43.10269" lon="-0.1434">
        <ele>351.5</ele>
        <time>2021-08-19T18:20:06Z</time>
      </trkpt>
      <trkpt lat="43.10271" lon="-0.14345">
        <ele>351.02</ele>
        <time>2021-08-19T18:20:07Z</time>
      </trkpt>
      <trkpt lat="43.10274" lon="-0.14351">
        <ele>349.58</ele>
        <time>2021-08-19T18:20:08Z</time>
      </trkpt>
      <trkpt lat="43.10277" lon="-0.14358">
        <ele>349.1</ele>
        <time>2021-08-19T18:20:09Z</time>
      </trkpt>
      <trkpt lat="43.10298" lon="-0.14402">
        <ele>348.62</ele>
        <time>2021-08-19T18:20:15Z</time>
      </trkpt>
      <trkpt lat="43.103" lon="-0.14409">
        <ele>348.62</ele>
        <time>2021-08-19T18:20:16Z</time>
      </trkpt>
      <trkpt lat="43.10304" lon="-0.14427">
        <ele>350.54</ele>
        <time>2021-08-19T18:20:20Z</time>
      </trkpt>
      <trkpt lat="43.10301" lon="-0.14436">
        <ele>351.98</ele>
        <time>2021-08-19T18:20:26Z</time>
      </trkpt>
      <trkpt lat="43.10298" lon="-0.14439">
        <ele>352.94</ele>
        <time>2021-08-19T18:20:33Z</time>
      </trkpt>
      <trkpt lat="43.10298" lon="-0.14442">
        <ele>352.94</ele>
        <time>2021-08-19T18:20:53Z</time>
      </trkpt>
      <trkpt lat="43.10295" lon="-0.14446">
        <ele>353.9</ele>
        <time>2021-08-19T18:20:59Z</time>
      </trkpt>
      <trkpt lat="43.10292" lon="-0.14451">
        <ele>355.34</ele>
        <time>2021-08-19T18:21:08Z</time>
      </trkpt>
      <trkpt lat="43.10289" lon="-0.14458">
        <ele>356.79</ele>
        <time>2021-08-19T18:21:18Z</time>
      </trkpt>
      <trkpt lat="43.10286" lon="-0.14468">
        <ele>359.19</ele>
        <time>2021-08-19T18:21:29Z</time>
      </trkpt>
      <trkpt lat="43.10285" lon="-0.14474">
        <ele>360.63</ele>
        <time>2021-08-19T18:21:39Z</time>
      </trkpt>
      <trkpt lat="43.10285" lon="-0.1448">
        <ele>361.59</ele>
        <time>2021-08-19T18:21:46Z</time>
      </trkpt>
      <trkpt lat="43.10285" lon="-0.14486">
        <ele>363.04</ele>
        <time>2021-08-19T18:21:54Z</time>
      </trkpt>
      <trkpt lat="43.10287" lon="-0.1449">
        <ele>363.52</ele>
        <time>2021-08-19T18:22:02Z</time>
      </trkpt>
      <trkpt lat="43.10288" lon="-0.14489">
        <ele>363.52</ele>
        <time>2021-08-19T18:22:03Z</time>
      </trkpt>
      <trkpt lat="43.10289" lon="-0.14488">
        <ele>363.52</ele>
        <time>2021-08-19T18:22:04Z</time>
      </trkpt>
      <trkpt lat="43.10291" lon="-0.14488">
        <ele>363.52</ele>
        <time>2021-08-19T18:22:05Z</time>
      </trkpt>
      <trkpt lat="43.10292" lon="-0.14489">
        <ele>363.52</ele>
        <time>2021-08-19T18:22:06Z</time>
      </trkpt>
      <trkpt lat="43.10294" lon="-0.14491">
        <ele>363.52</ele>
        <time>2021-08-19T18:22:07Z</time>
      </trkpt>
      <trkpt lat="43.10301" lon="-0.14502">
        <ele>364</ele>
        <time>2021-08-19T18:22:13Z</time>
      </trkpt>
      <trkpt lat="43.10302" lon="-0.14506">
        <ele>364.96</ele>
        <time>2021-08-19T18:22:20Z</time>
      </trkpt>
      <trkpt lat="43.10303" lon="-0.14508">
        <ele>364.96</ele>
        <time>2021-08-19T18:22:39Z</time>
      </trkpt>
      <trkpt lat="43.10304" lon="-0.14519">
        <ele>366.4</ele>
        <time>2021-08-19T18:22:49Z</time>
      </trkpt>
      <trkpt lat="43.10305" lon="-0.14533">
        <ele>368.32</ele>
        <time>2021-08-19T18:23:00Z</time>
      </trkpt>
      <trkpt lat="43.10307" lon="-0.14547">
        <ele>369.76</ele>
        <time>2021-08-19T18:23:10Z</time>
      </trkpt>
      <trkpt lat="43.10308" lon="-0.14551">
        <ele>370.24</ele>
        <time>2021-08-19T18:23:12Z</time>
      </trkpt>
      <trkpt lat="43.10309" lon="-0.14556">
        <ele>370.73</ele>
        <time>2021-08-19T18:23:19Z</time>
      </trkpt>
      <trkpt lat="43.10309" lon="-0.1456">
        <ele>371.21</ele>
        <time>2021-08-19T18:23:25Z</time>
      </trkpt>
      <trkpt lat="43.10311" lon="-0.14574">
        <ele>372.65</ele>
        <time>2021-08-19T18:23:35Z</time>
      </trkpt>
      <trkpt lat="43.10315" lon="-0.14589">
        <ele>374.09</ele>
        <time>2021-08-19T18:23:46Z</time>
      </trkpt>
      <trkpt lat="43.10315" lon="-0.1459">
        <ele>374.09</ele>
        <time>2021-08-19T18:23:55Z</time>
      </trkpt>
      <trkpt lat="43.10316" lon="-0.14591">
        <ele>374.09</ele>
        <time>2021-08-19T18:24:22Z</time>
      </trkpt>
      <trkpt lat="43.10316" lon="-0.14592">
        <ele>374.09</ele>
        <time>2021-08-19T18:24:43Z</time>
      </trkpt>
      <trkpt lat="43.10316" lon="-0.1459">
        <ele>374.09</ele>
        <time>2021-08-19T18:25:17Z</time>
      </trkpt>
      <trkpt lat="43.10314" lon="-0.14591">
        <ele>374.09</ele>
        <time>2021-08-19T18:25:34Z</time>
      </trkpt>
      <trkpt lat="43.10315" lon="-0.14596">
        <ele>374.09</ele>
        <time>2021-08-19T18:25:42Z</time>
      </trkpt>
      <trkpt lat="43.10318" lon="-0.14608">
        <ele>376.01</ele>
        <time>2021-08-19T18:25:52Z</time>
      </trkpt>
      <trkpt lat="43.10319" lon="-0.14619">
        <ele>376.97</ele>
        <time>2021-08-19T18:25:59Z</time>
      </trkpt>
      <trkpt lat="43.10317" lon="-0.14622">
        <ele>377.45</ele>
        <time>2021-08-19T18:26:06Z</time>
      </trkpt>
      <trkpt lat="43.1032" lon="-0.14634">
        <ele>378.9</ele>
        <time>2021-08-19T18:26:16Z</time>
      </trkpt>
      <trkpt lat="43.10322" lon="-0.1465">
        <ele>381.3</ele>
        <time>2021-08-19T18:26:26Z</time>
      </trkpt>
      <trkpt lat="43.10324" lon="-0.14659">
        <ele>381.78</ele>
        <time>2021-08-19T18:26:35Z</time>
      </trkpt>
      <trkpt lat="43.10325" lon="-0.14662">
        <ele>382.26</ele>
        <time>2021-08-19T18:26:38Z</time>
      </trkpt>
      <trkpt lat="43.10325" lon="-0.14664">
        <ele>382.26</ele>
        <time>2021-08-19T18:26:39Z</time>
      </trkpt>
      <trkpt lat="43.10325" lon="-0.14665">
        <ele>382.26</ele>
        <time>2021-08-19T18:26:40Z</time>
      </trkpt>
      <trkpt lat="43.10325" lon="-0.14667">
        <ele>382.26</ele>
        <time>2021-08-19T18:26:41Z</time>
      </trkpt>
      <trkpt lat="43.10325" lon="-0.14669">
        <ele>382.26</ele>
        <time>2021-08-19T18:26:42Z</time>
      </trkpt>
      <trkpt lat="43.10326" lon="-0.14671">
        <ele>382.74</ele>
        <time>2021-08-19T18:26:43Z</time>
      </trkpt>
      <trkpt lat="43.10326" lon="-0.14673">
        <ele>382.74</ele>
        <time>2021-08-19T18:26:44Z</time>
      </trkpt>
      <trkpt lat="43.10327" lon="-0.14686">
        <ele>384.66</ele>
        <time>2021-08-19T18:26:50Z</time>
      </trkpt>
      <trkpt lat="43.10327" lon="-0.14706">
        <ele>387.07</ele>
        <time>2021-08-19T18:26:58Z</time>
      </trkpt>
      <trkpt lat="43.10327" lon="-0.14722">
        <ele>388.51</ele>
        <time>2021-08-19T18:27:05Z</time>
      </trkpt>
      <trkpt lat="43.10326" lon="-0.14742">
        <ele>389.47</ele>
        <time>2021-08-19T18:27:13Z</time>
      </trkpt>
      <trkpt lat="43.10328" lon="-0.14758">
        <ele>390.91</ele>
        <time>2021-08-19T18:27:21Z</time>
      </trkpt>
      <trkpt lat="43.10328" lon="-0.14777">
        <ele>392.84</ele>
        <time>2021-08-19T18:27:32Z</time>
      </trkpt>
      <trkpt lat="43.10328" lon="-0.14782">
        <ele>393.32</ele>
        <time>2021-08-19T18:27:35Z</time>
      </trkpt>
      <trkpt lat="43.10327" lon="-0.14784">
        <ele>393.32</ele>
        <time>2021-08-19T18:27:36Z</time>
      </trkpt>
      <trkpt lat="43.10327" lon="-0.14786">
        <ele>393.8</ele>
        <time>2021-08-19T18:27:37Z</time>
      </trkpt>
      <trkpt lat="43.10327" lon="-0.14787">
        <ele>393.8</ele>
        <time>2021-08-19T18:27:38Z</time>
      </trkpt>
      <trkpt lat="43.10326" lon="-0.14789">
        <ele>393.8</ele>
        <time>2021-08-19T18:27:39Z</time>
      </trkpt>
      <trkpt lat="43.10325" lon="-0.14791">
        <ele>394.28</ele>
        <time>2021-08-19T18:27:40Z</time>
      </trkpt>
      <trkpt lat="43.10325" lon="-0.14793">
        <ele>394.28</ele>
        <time>2021-08-19T18:27:41Z</time>
      </trkpt>
      <trkpt lat="43.10321" lon="-0.14807">
        <ele>396.2</ele>
        <time>2021-08-19T18:27:50Z</time>
      </trkpt>
      <trkpt lat="43.10321" lon="-0.14809">
        <ele>396.2</ele>
        <time>2021-08-19T18:27:51Z</time>
      </trkpt>
      <trkpt lat="43.10317" lon="-0.14823">
        <ele>398.12</ele>
        <time>2021-08-19T18:27:59Z</time>
      </trkpt>
      <trkpt lat="43.10316" lon="-0.14825">
        <ele>399.08</ele>
        <time>2021-08-19T18:28:00Z</time>
      </trkpt>
      <trkpt lat="43.10316" lon="-0.14827">
        <ele>399.08</ele>
        <time>2021-08-19T18:28:01Z</time>
      </trkpt>
      <trkpt lat="43.10315" lon="-0.14828">
        <ele>399.57</ele>
        <time>2021-08-19T18:28:02Z</time>
      </trkpt>
      <trkpt lat="43.10315" lon="-0.14846">
        <ele>401.97</ele>
        <time>2021-08-19T18:28:11Z</time>
      </trkpt>
      <trkpt lat="43.10318" lon="-0.14865">
        <ele>402.45</ele>
        <time>2021-08-19T18:28:18Z</time>
      </trkpt>
      <trkpt lat="43.10323" lon="-0.14902">
        <ele>401.97</ele>
        <time>2021-08-19T18:28:26Z</time>
      </trkpt>
      <trkpt lat="43.10326" lon="-0.14925">
        <ele>401.01</ele>
        <time>2021-08-19T18:28:30Z</time>
      </trkpt>
      <trkpt lat="43.10331" lon="-0.14969">
        <ele>399.08</ele>
        <time>2021-08-19T18:28:37Z</time>
      </trkpt>
      <trkpt lat="43.10329" lon="-0.14992">
        <ele>398.12</ele>
        <time>2021-08-19T18:28:40Z</time>
      </trkpt>
      <trkpt lat="43.10327" lon="-0.14999">
        <ele>398.12</ele>
        <time>2021-08-19T18:28:41Z</time>
      </trkpt>
      <trkpt lat="43.10325" lon="-0.15006">
        <ele>398.12</ele>
        <time>2021-08-19T18:28:42Z</time>
      </trkpt>
      <trkpt lat="43.10323" lon="-0.15012">
        <ele>398.12</ele>
        <time>2021-08-19T18:28:43Z</time>
      </trkpt>
      <trkpt lat="43.1032" lon="-0.15017">
        <ele>398.12</ele>
        <time>2021-08-19T18:28:44Z</time>
      </trkpt>
      <trkpt lat="43.10317" lon="-0.1502">
        <ele>398.12</ele>
        <time>2021-08-19T18:28:45Z</time>
      </trkpt>
      <trkpt lat="43.10314" lon="-0.15022">
        <ele>399.57</ele>
        <time>2021-08-19T18:28:46Z</time>
      </trkpt>
      <trkpt lat="43.10313" lon="-0.15024">
        <ele>400.53</ele>
        <time>2021-08-19T18:28:47Z</time>
      </trkpt>
      <trkpt lat="43.10311" lon="-0.15025">
        <ele>400.53</ele>
        <time>2021-08-19T18:28:48Z</time>
      </trkpt>
      <trkpt lat="43.1031" lon="-0.15026">
        <ele>400.53</ele>
        <time>2021-08-19T18:28:49Z</time>
      </trkpt>
      <trkpt lat="43.10309" lon="-0.15026">
        <ele>401.01</ele>
        <time>2021-08-19T18:28:50Z</time>
      </trkpt>
      <trkpt lat="43.103" lon="-0.1503">
        <ele>402.45</ele>
        <time>2021-08-19T18:28:58Z</time>
      </trkpt>
      <trkpt lat="43.10297" lon="-0.15031">
        <ele>402.93</ele>
        <time>2021-08-19T18:29:00Z</time>
      </trkpt>
      <trkpt lat="43.10296" lon="-0.15031">
        <ele>403.89</ele>
        <time>2021-08-19T18:29:01Z</time>
      </trkpt>
      <trkpt lat="43.10295" lon="-0.15032">
        <ele>403.89</ele>
        <time>2021-08-19T18:29:02Z</time>
      </trkpt>
      <trkpt lat="43.10293" lon="-0.15032">
        <ele>404.37</ele>
        <time>2021-08-19T18:29:03Z</time>
      </trkpt>
      <trkpt lat="43.10292" lon="-0.15033">
        <ele>404.37</ele>
        <time>2021-08-19T18:29:04Z</time>
      </trkpt>
      <trkpt lat="43.10291" lon="-0.15033">
        <ele>404.37</ele>
        <time>2021-08-19T18:29:05Z</time>
      </trkpt>
      <trkpt lat="43.10289" lon="-0.15034">
        <ele>404.85</ele>
        <time>2021-08-19T18:29:06Z</time>
      </trkpt>
      <trkpt lat="43.10288" lon="-0.15035">
        <ele>405.33</ele>
        <time>2021-08-19T18:29:07Z</time>
      </trkpt>
      <trkpt lat="43.10287" lon="-0.15036">
        <ele>405.33</ele>
        <time>2021-08-19T18:29:08Z</time>
      </trkpt>
      <trkpt lat="43.10276" lon="-0.15046">
        <ele>406.77</ele>
        <time>2021-08-19T18:29:16Z</time>
      </trkpt>
      <trkpt lat="43.10267" lon="-0.15057">
        <ele>408.22</ele>
        <time>2021-08-19T18:29:24Z</time>
      </trkpt>
      <trkpt lat="43.10257" lon="-0.1507">
        <ele>409.66</ele>
        <time>2021-08-19T18:29:33Z</time>
      </trkpt>
      <trkpt lat="43.10247" lon="-0.15089">
        <ele>411.58</ele>
        <time>2021-08-19T18:29:44Z</time>
      </trkpt>
      <trkpt lat="43.10239" lon="-0.15104">
        <ele>413.5</ele>
        <time>2021-08-19T18:29:54Z</time>
      </trkpt>
      <trkpt lat="43.10231" lon="-0.15121">
        <ele>414.95</ele>
        <time>2021-08-19T18:30:03Z</time>
      </trkpt>
      <trkpt lat="43.10224" lon="-0.15146">
        <ele>415.91</ele>
        <time>2021-08-19T18:30:11Z</time>
      </trkpt>
      <trkpt lat="43.10214" lon="-0.1518">
        <ele>417.35</ele>
        <time>2021-08-19T18:30:21Z</time>
      </trkpt>
      <trkpt lat="43.10205" lon="-0.1521">
        <ele>418.79</ele>
        <time>2021-08-19T18:30:30Z</time>
      </trkpt>
      <trkpt lat="43.10204" lon="-0.15231">
        <ele>420.23</ele>
        <time>2021-08-19T18:30:37Z</time>
      </trkpt>
      <trkpt lat="43.10204" lon="-0.1525">
        <ele>422.16</ele>
        <time>2021-08-19T18:30:44Z</time>
      </trkpt>
      <trkpt lat="43.10204" lon="-0.15253">
        <ele>422.64</ele>
        <time>2021-08-19T18:30:45Z</time>
      </trkpt>
      <trkpt lat="43.10204" lon="-0.15255">
        <ele>422.64</ele>
        <time>2021-08-19T18:30:46Z</time>
      </trkpt>
      <trkpt lat="43.10204" lon="-0.15258">
        <ele>423.12</ele>
        <time>2021-08-19T18:30:47Z</time>
      </trkpt>
      <trkpt lat="43.10204" lon="-0.1528">
        <ele>424.56</ele>
        <time>2021-08-19T18:30:55Z</time>
      </trkpt>
      <trkpt lat="43.10211" lon="-0.15304">
        <ele>426.48</ele>
        <time>2021-08-19T18:31:05Z</time>
      </trkpt>
      <trkpt lat="43.10216" lon="-0.15313">
        <ele>427.92</ele>
        <time>2021-08-19T18:31:10Z</time>
      </trkpt>
      <trkpt lat="43.10217" lon="-0.15314">
        <ele>427.92</ele>
        <time>2021-08-19T18:31:11Z</time>
      </trkpt>
      <trkpt lat="43.10219" lon="-0.15315">
        <ele>428.4</ele>
        <time>2021-08-19T18:31:12Z</time>
      </trkpt>
      <trkpt lat="43.10222" lon="-0.15317">
        <ele>428.89</ele>
        <time>2021-08-19T18:31:15Z</time>
      </trkpt>
      <trkpt lat="43.10223" lon="-0.15317">
        <ele>429.37</ele>
        <time>2021-08-19T18:31:16Z</time>
      </trkpt>
      <trkpt lat="43.10224" lon="-0.15315">
        <ele>428.89</ele>
        <time>2021-08-19T18:31:17Z</time>
      </trkpt>
      <trkpt lat="43.10224" lon="-0.15314">
        <ele>428.89</ele>
        <time>2021-08-19T18:31:18Z</time>
      </trkpt>
      <trkpt lat="43.10222" lon="-0.15313">
        <ele>428.89</ele>
        <time>2021-08-19T18:31:19Z</time>
      </trkpt>
      <trkpt lat="43.1022" lon="-0.15313">
        <ele>429.37</ele>
        <time>2021-08-19T18:31:20Z</time>
      </trkpt>
      <trkpt lat="43.10218" lon="-0.15313">
        <ele>429.37</ele>
        <time>2021-08-19T18:31:21Z</time>
      </trkpt>
      <trkpt lat="43.10216" lon="-0.15313">
        <ele>428.89</ele>
        <time>2021-08-19T18:31:22Z</time>
      </trkpt>
      <trkpt lat="43.10214" lon="-0.15311">
        <ele>427.44</ele>
        <time>2021-08-19T18:31:23Z</time>
      </trkpt>
      <trkpt lat="43.10212" lon="-0.15308">
        <ele>427.44</ele>
        <time>2021-08-19T18:31:24Z</time>
      </trkpt>
      <trkpt lat="43.1021" lon="-0.15304">
        <ele>426.96</ele>
        <time>2021-08-19T18:31:25Z</time>
      </trkpt>
      <trkpt lat="43.10203" lon="-0.15272">
        <ele>424.08</ele>
        <time>2021-08-19T18:31:32Z</time>
      </trkpt>
      <trkpt lat="43.10204" lon="-0.15242">
        <ele>422.16</ele>
        <time>2021-08-19T18:31:38Z</time>
      </trkpt>
      <trkpt lat="43.10204" lon="-0.15238">
        <ele>421.19</ele>
        <time>2021-08-19T18:31:39Z</time>
      </trkpt>
      <trkpt lat="43.10203" lon="-0.15237">
        <ele>420.71</ele>
        <time>2021-08-19T18:31:40Z</time>
      </trkpt>
      <trkpt lat="43.10201" lon="-0.15243">
        <ele>420.71</ele>
        <time>2021-08-19T18:31:44Z</time>
      </trkpt>
      <trkpt lat="43.102" lon="-0.1525">
        <ele>420.23</ele>
        <time>2021-08-19T18:31:47Z</time>
      </trkpt>
      <trkpt lat="43.102" lon="-0.15254">
        <ele>420.23</ele>
        <time>2021-08-19T18:31:48Z</time>
      </trkpt>
      <trkpt lat="43.10199" lon="-0.15257">
        <ele>420.23</ele>
        <time>2021-08-19T18:31:49Z</time>
      </trkpt>
      <trkpt lat="43.10198" lon="-0.15261">
        <ele>420.23</ele>
        <time>2021-08-19T18:31:50Z</time>
      </trkpt>
      <trkpt lat="43.10189" lon="-0.15285">
        <ele>420.23</ele>
        <time>2021-08-19T18:31:56Z</time>
      </trkpt>
      <trkpt lat="43.10182" lon="-0.15311">
        <ele>418.31</ele>
        <time>2021-08-19T18:32:02Z</time>
      </trkpt>
      <trkpt lat="43.10178" lon="-0.15338">
        <ele>416.39</ele>
        <time>2021-08-19T18:32:07Z</time>
      </trkpt>
      <trkpt lat="43.10175" lon="-0.1537">
        <ele>413.02</ele>
        <time>2021-08-19T18:32:13Z</time>
      </trkpt>
      <trkpt lat="43.10173" lon="-0.15382">
        <ele>411.58</ele>
        <time>2021-08-19T18:32:16Z</time>
      </trkpt>
      <trkpt lat="43.10165" lon="-0.15403">
        <ele>408.22</ele>
        <time>2021-08-19T18:32:22Z</time>
      </trkpt>
      <trkpt lat="43.10164" lon="-0.15408">
        <ele>407.26</ele>
        <time>2021-08-19T18:32:23Z</time>
      </trkpt>
      <trkpt lat="43.10162" lon="-0.15413">
        <ele>406.29</ele>
        <time>2021-08-19T18:32:24Z</time>
      </trkpt>
      <trkpt lat="43.10161" lon="-0.15419">
        <ele>405.33</ele>
        <time>2021-08-19T18:32:25Z</time>
      </trkpt>
      <trkpt lat="43.10159" lon="-0.15425">
        <ele>404.37</ele>
        <time>2021-08-19T18:32:26Z</time>
      </trkpt>
      <trkpt lat="43.10158" lon="-0.15431">
        <ele>403.41</ele>
        <time>2021-08-19T18:32:27Z</time>
      </trkpt>
      <trkpt lat="43.10156" lon="-0.15437">
        <ele>402.45</ele>
        <time>2021-08-19T18:32:28Z</time>
      </trkpt>
      <trkpt lat="43.10155" lon="-0.15444">
        <ele>401.49</ele>
        <time>2021-08-19T18:32:29Z</time>
      </trkpt>
      <trkpt lat="43.10152" lon="-0.15471">
        <ele>398.12</ele>
        <time>2021-08-19T18:32:33Z</time>
      </trkpt>
      <trkpt lat="43.10151" lon="-0.15498">
        <ele>396.2</ele>
        <time>2021-08-19T18:32:36Z</time>
      </trkpt>
      <trkpt lat="43.10151" lon="-0.15506">
        <ele>395.72</ele>
        <time>2021-08-19T18:32:37Z</time>
      </trkpt>
      <trkpt lat="43.10152" lon="-0.15513">
        <ele>395.72</ele>
        <time>2021-08-19T18:32:38Z</time>
      </trkpt>
      <trkpt lat="43.10153" lon="-0.15537">
        <ele>394.76</ele>
        <time>2021-08-19T18:32:43Z</time>
      </trkpt>
      <trkpt lat="43.10157" lon="-0.15563">
        <ele>393.32</ele>
        <time>2021-08-19T18:32:49Z</time>
      </trkpt>
      <trkpt lat="43.10164" lon="-0.15595">
        <ele>392.84</ele>
        <time>2021-08-19T18:32:56Z</time>
      </trkpt>
      <trkpt lat="43.10167" lon="-0.15614">
        <ele>392.36</ele>
        <time>2021-08-19T18:33:02Z</time>
      </trkpt>
      <trkpt lat="43.1017" lon="-0.15638">
        <ele>388.99</ele>
        <time>2021-08-19T18:33:08Z</time>
      </trkpt>
      <trkpt lat="43.10172" lon="-0.15662">
        <ele>386.11</ele>
        <time>2021-08-19T18:33:13Z</time>
      </trkpt>
      <trkpt lat="43.10173" lon="-0.15673">
        <ele>384.18</ele>
        <time>2021-08-19T18:33:15Z</time>
      </trkpt>
      <trkpt lat="43.10173" lon="-0.15696">
        <ele>380.82</ele>
        <time>2021-08-19T18:33:19Z</time>
      </trkpt>
      <trkpt lat="43.10177" lon="-0.15723">
        <ele>377.45</ele>
        <time>2021-08-19T18:33:24Z</time>
      </trkpt>
      <trkpt lat="43.10182" lon="-0.15742">
        <ele>374.09</ele>
        <time>2021-08-19T18:33:27Z</time>
      </trkpt>
      <trkpt lat="43.10187" lon="-0.15759">
        <ele>372.17</ele>
        <time>2021-08-19T18:33:29Z</time>
      </trkpt>
      <trkpt lat="43.10202" lon="-0.15788">
        <ele>368.8</ele>
        <time>2021-08-19T18:33:33Z</time>
      </trkpt>
      <trkpt lat="43.10206" lon="-0.15795">
        <ele>368.8</ele>
        <time>2021-08-19T18:33:34Z</time>
      </trkpt>
      <trkpt lat="43.1021" lon="-0.15801">
        <ele>367.84</ele>
        <time>2021-08-19T18:33:35Z</time>
      </trkpt>
      <trkpt lat="43.10214" lon="-0.15807">
        <ele>367.84</ele>
        <time>2021-08-19T18:33:36Z</time>
      </trkpt>
      <trkpt lat="43.10219" lon="-0.15812">
        <ele>367.84</ele>
        <time>2021-08-19T18:33:37Z</time>
      </trkpt>
      <trkpt lat="43.10223" lon="-0.15815">
        <ele>367.36</ele>
        <time>2021-08-19T18:33:38Z</time>
      </trkpt>
      <trkpt lat="43.10227" lon="-0.15816">
        <ele>367.36</ele>
        <time>2021-08-19T18:33:39Z</time>
      </trkpt>
      <trkpt lat="43.10231" lon="-0.15816">
        <ele>366.88</ele>
        <time>2021-08-19T18:33:40Z</time>
      </trkpt>
      <trkpt lat="43.10235" lon="-0.15817">
        <ele>366.4</ele>
        <time>2021-08-19T18:33:41Z</time>
      </trkpt>
      <trkpt lat="43.10239" lon="-0.15819">
        <ele>365.44</ele>
        <time>2021-08-19T18:33:42Z</time>
      </trkpt>
      <trkpt lat="43.10243" lon="-0.15821">
        <ele>364.48</ele>
        <time>2021-08-19T18:33:43Z</time>
      </trkpt>
      <trkpt lat="43.10256" lon="-0.15828">
        <ele>363.52</ele>
        <time>2021-08-19T18:33:46Z</time>
      </trkpt>
      <trkpt lat="43.10261" lon="-0.15829">
        <ele>363.52</ele>
        <time>2021-08-19T18:33:47Z</time>
      </trkpt>
      <trkpt lat="43.10265" lon="-0.15828">
        <ele>363.04</ele>
        <time>2021-08-19T18:33:48Z</time>
      </trkpt>
      <trkpt lat="43.10269" lon="-0.15826">
        <ele>363.52</ele>
        <time>2021-08-19T18:33:49Z</time>
      </trkpt>
      <trkpt lat="43.10273" lon="-0.15825">
        <ele>363.52</ele>
        <time>2021-08-19T18:33:50Z</time>
      </trkpt>
      <trkpt lat="43.10298" lon="-0.15813">
        <ele>363.52</ele>
        <time>2021-08-19T18:33:57Z</time>
      </trkpt>
      <trkpt lat="43.10313" lon="-0.15807">
        <ele>364.48</ele>
        <time>2021-08-19T18:34:02Z</time>
      </trkpt>
      <trkpt lat="43.10333" lon="-0.15796">
        <ele>365.44</ele>
        <time>2021-08-19T18:34:10Z</time>
      </trkpt>
      <trkpt lat="43.10355" lon="-0.15791">
        <ele>365.92</ele>
        <time>2021-08-19T18:34:17Z</time>
      </trkpt>
      <trkpt lat="43.1036" lon="-0.15791">
        <ele>365.92</ele>
        <time>2021-08-19T18:34:18Z</time>
      </trkpt>
      <trkpt lat="43.10365" lon="-0.1579">
        <ele>365.92</ele>
        <time>2021-08-19T18:34:19Z</time>
      </trkpt>
      <trkpt lat="43.10369" lon="-0.1579">
        <ele>365.92</ele>
        <time>2021-08-19T18:34:20Z</time>
      </trkpt>
      <trkpt lat="43.10374" lon="-0.1579">
        <ele>365.92</ele>
        <time>2021-08-19T18:34:21Z</time>
      </trkpt>
      <trkpt lat="43.10379" lon="-0.15789">
        <ele>365.92</ele>
        <time>2021-08-19T18:34:22Z</time>
      </trkpt>
      <trkpt lat="43.1039" lon="-0.15788">
        <ele>364.48</ele>
        <time>2021-08-19T18:34:24Z</time>
      </trkpt>
      <trkpt lat="43.10434" lon="-0.15778">
        <ele>362.07</ele>
        <time>2021-08-19T18:34:32Z</time>
      </trkpt>
      <trkpt lat="43.10453" lon="-0.15773">
        <ele>361.59</ele>
        <time>2021-08-19T18:34:36Z</time>
      </trkpt>
      <trkpt lat="43.10469" lon="-0.15781">
        <ele>361.11</ele>
        <time>2021-08-19T18:34:41Z</time>
      </trkpt>
      <trkpt lat="43.10469" lon="-0.15786">
        <ele>360.63</ele>
        <time>2021-08-19T18:34:42Z</time>
      </trkpt>
      <trkpt lat="43.10466" lon="-0.15826">
        <ele>359.67</ele>
        <time>2021-08-19T18:34:49Z</time>
      </trkpt>
      <trkpt lat="43.10461" lon="-0.1585">
        <ele>359.19</ele>
        <time>2021-08-19T18:34:53Z</time>
      </trkpt>
      <trkpt lat="43.10459" lon="-0.15857">
        <ele>358.23</ele>
        <time>2021-08-19T18:34:54Z</time>
      </trkpt>
      <trkpt lat="43.10452" lon="-0.15887">
        <ele>356.79</ele>
        <time>2021-08-19T18:35:00Z</time>
      </trkpt>
      <trkpt lat="43.10449" lon="-0.15893">
        <ele>356.79</ele>
        <time>2021-08-19T18:35:01Z</time>
      </trkpt>
      <trkpt lat="43.10446" lon="-0.15898">
        <ele>356.79</ele>
        <time>2021-08-19T18:35:02Z</time>
      </trkpt>
      <trkpt lat="43.10441" lon="-0.15904">
        <ele>356.79</ele>
        <time>2021-08-19T18:35:04Z</time>
      </trkpt>
      <trkpt lat="43.10437" lon="-0.15907">
        <ele>356.79</ele>
        <time>2021-08-19T18:35:05Z</time>
      </trkpt>
      <trkpt lat="43.10433" lon="-0.15908">
        <ele>356.79</ele>
        <time>2021-08-19T18:35:06Z</time>
      </trkpt>
      <trkpt lat="43.1043" lon="-0.15909">
        <ele>356.79</ele>
        <time>2021-08-19T18:35:07Z</time>
      </trkpt>
      <trkpt lat="43.10426" lon="-0.15909">
        <ele>356.79</ele>
        <time>2021-08-19T18:35:08Z</time>
      </trkpt>
      <trkpt lat="43.10413" lon="-0.15912">
        <ele>358.71</ele>
        <time>2021-08-19T18:35:14Z</time>
      </trkpt>
      <trkpt lat="43.10391" lon="-0.15917">
        <ele>360.15</ele>
        <time>2021-08-19T18:35:22Z</time>
      </trkpt>
      <trkpt lat="43.10368" lon="-0.1592">
        <ele>360.63</ele>
        <time>2021-08-19T18:35:30Z</time>
      </trkpt>
      <trkpt lat="43.10341" lon="-0.1592">
        <ele>360.63</ele>
        <time>2021-08-19T18:35:39Z</time>
      </trkpt>
      <trkpt lat="43.10319" lon="-0.15919">
        <ele>360.63</ele>
        <time>2021-08-19T18:35:45Z</time>
      </trkpt>
      <trkpt lat="43.10312" lon="-0.15922">
        <ele>360.63</ele>
        <time>2021-08-19T18:35:47Z</time>
      </trkpt>
      <trkpt lat="43.10298" lon="-0.15919">
        <ele>360.63</ele>
        <time>2021-08-19T18:35:50Z</time>
      </trkpt>
      <trkpt lat="43.10293" lon="-0.15916">
        <ele>360.63</ele>
        <time>2021-08-19T18:35:51Z</time>
      </trkpt>
      <trkpt lat="43.10288" lon="-0.15914">
        <ele>360.63</ele>
        <time>2021-08-19T18:35:52Z</time>
      </trkpt>
      <trkpt lat="43.10284" lon="-0.15911">
        <ele>359.67</ele>
        <time>2021-08-19T18:35:53Z</time>
      </trkpt>
      <trkpt lat="43.1028" lon="-0.15907">
        <ele>359.67</ele>
        <time>2021-08-19T18:35:54Z</time>
      </trkpt>
      <trkpt lat="43.10276" lon="-0.15904">
        <ele>359.67</ele>
        <time>2021-08-19T18:35:55Z</time>
      </trkpt>
      <trkpt lat="43.10251" lon="-0.15882">
        <ele>359.19</ele>
        <time>2021-08-19T18:36:01Z</time>
      </trkpt>
      <trkpt lat="43.10227" lon="-0.15857">
        <ele>359.67</ele>
        <time>2021-08-19T18:36:08Z</time>
      </trkpt>
      <trkpt lat="43.10198" lon="-0.1582">
        <ele>359.67</ele>
        <time>2021-08-19T18:36:16Z</time>
      </trkpt>
      <trkpt lat="43.1017" lon="-0.15781">
        <ele>359.19</ele>
        <time>2021-08-19T18:36:25Z</time>
      </trkpt>
      <trkpt lat="43.10163" lon="-0.15777">
        <ele>359.19</ele>
        <time>2021-08-19T18:36:27Z</time>
      </trkpt>
      <trkpt lat="43.1016" lon="-0.15781">
        <ele>358.71</ele>
        <time>2021-08-19T18:36:28Z</time>
      </trkpt>
      <trkpt lat="43.1016" lon="-0.15787">
        <ele>358.23</ele>
        <time>2021-08-19T18:36:29Z</time>
      </trkpt>
      <trkpt lat="43.1016" lon="-0.15791">
        <ele>358.23</ele>
        <time>2021-08-19T18:36:30Z</time>
      </trkpt>
      <trkpt lat="43.1016" lon="-0.15797">
        <ele>357.75</ele>
        <time>2021-08-19T18:36:31Z</time>
      </trkpt>
      <trkpt lat="43.10161" lon="-0.15804">
        <ele>357.75</ele>
        <time>2021-08-19T18:36:32Z</time>
      </trkpt>
      <trkpt lat="43.10161" lon="-0.15811">
        <ele>356.79</ele>
        <time>2021-08-19T18:36:33Z</time>
      </trkpt>
      <trkpt lat="43.1016" lon="-0.1582">
        <ele>356.31</ele>
        <time>2021-08-19T18:36:34Z</time>
      </trkpt>
      <trkpt lat="43.10157" lon="-0.15849">
        <ele>353.42</ele>
        <time>2021-08-19T18:36:37Z</time>
      </trkpt>
      <trkpt lat="43.10158" lon="-0.15867">
        <ele>352.46</ele>
        <time>2021-08-19T18:36:39Z</time>
      </trkpt>
      <trkpt lat="43.1016" lon="-0.15879">
        <ele>351.02</ele>
        <time>2021-08-19T18:36:40Z</time>
      </trkpt>
      <trkpt lat="43.10163" lon="-0.15887">
        <ele>350.54</ele>
        <time>2021-08-19T18:36:41Z</time>
      </trkpt>
      <trkpt lat="43.10167" lon="-0.15896">
        <ele>350.54</ele>
        <time>2021-08-19T18:36:42Z</time>
      </trkpt>
      <trkpt lat="43.10171" lon="-0.15904">
        <ele>350.06</ele>
        <time>2021-08-19T18:36:43Z</time>
      </trkpt>
      <trkpt lat="43.10197" lon="-0.15947">
        <ele>350.06</ele>
        <time>2021-08-19T18:36:49Z</time>
      </trkpt>
      <trkpt lat="43.10208" lon="-0.15962">
        <ele>352.94</ele>
        <time>2021-08-19T18:36:53Z</time>
      </trkpt>
      <trkpt lat="43.10219" lon="-0.15986">
        <ele>352.94</ele>
        <time>2021-08-19T18:36:59Z</time>
      </trkpt>
      <trkpt lat="43.1022" lon="-0.15989">
        <ele>352.94</ele>
        <time>2021-08-19T18:37:00Z</time>
      </trkpt>
      <trkpt lat="43.10239" lon="-0.16025">
        <ele>350.06</ele>
        <time>2021-08-19T18:37:06Z</time>
      </trkpt>
      <trkpt lat="43.10258" lon="-0.16064">
        <ele>347.65</ele>
        <time>2021-08-19T18:37:11Z</time>
      </trkpt>
      <trkpt lat="43.10262" lon="-0.16073">
        <ele>346.69</ele>
        <time>2021-08-19T18:37:12Z</time>
      </trkpt>
      <trkpt lat="43.10264" lon="-0.16083">
        <ele>346.69</ele>
        <time>2021-08-19T18:37:13Z</time>
      </trkpt>
      <trkpt lat="43.10266" lon="-0.16095">
        <ele>346.69</ele>
        <time>2021-08-19T18:37:14Z</time>
      </trkpt>
      <trkpt lat="43.10267" lon="-0.16105">
        <ele>345.73</ele>
        <time>2021-08-19T18:37:15Z</time>
      </trkpt>
      <trkpt lat="43.10267" lon="-0.16116">
        <ele>345.25</ele>
        <time>2021-08-19T18:37:16Z</time>
      </trkpt>
      <trkpt lat="43.10266" lon="-0.16126">
        <ele>345.25</ele>
        <time>2021-08-19T18:37:17Z</time>
      </trkpt>
      <trkpt lat="43.10264" lon="-0.16136">
        <ele>344.77</ele>
        <time>2021-08-19T18:37:18Z</time>
      </trkpt>
      <trkpt lat="43.10255" lon="-0.16188">
        <ele>342.37</ele>
        <time>2021-08-19T18:37:24Z</time>
      </trkpt>
      <trkpt lat="43.10252" lon="-0.16198">
        <ele>341.89</ele>
        <time>2021-08-19T18:37:25Z</time>
      </trkpt>
      <trkpt lat="43.10248" lon="-0.16204">
        <ele>341.41</ele>
        <time>2021-08-19T18:37:26Z</time>
      </trkpt>
      <trkpt lat="43.10243" lon="-0.1621">
        <ele>340.92</ele>
        <time>2021-08-19T18:37:27Z</time>
      </trkpt>
      <trkpt lat="43.10238" lon="-0.16215">
        <ele>340.92</ele>
        <time>2021-08-19T18:37:28Z</time>
      </trkpt>
      <trkpt lat="43.10233" lon="-0.16219">
        <ele>340.44</ele>
        <time>2021-08-19T18:37:29Z</time>
      </trkpt>
      <trkpt lat="43.10228" lon="-0.16226">
        <ele>339.96</ele>
        <time>2021-08-19T18:37:30Z</time>
      </trkpt>
      <trkpt lat="43.10224" lon="-0.16234">
        <ele>339.48</ele>
        <time>2021-08-19T18:37:31Z</time>
      </trkpt>
      <trkpt lat="43.10221" lon="-0.1624">
        <ele>338.52</ele>
        <time>2021-08-19T18:37:32Z</time>
      </trkpt>
      <trkpt lat="43.10218" lon="-0.16249">
        <ele>338.04</ele>
        <time>2021-08-19T18:37:33Z</time>
      </trkpt>
      <trkpt lat="43.10217" lon="-0.16259">
        <ele>337.08</ele>
        <time>2021-08-19T18:37:34Z</time>
      </trkpt>
      <trkpt lat="43.10217" lon="-0.16269">
        <ele>336.6</ele>
        <time>2021-08-19T18:37:35Z</time>
      </trkpt>
      <trkpt lat="43.10218" lon="-0.16279">
        <ele>336.6</ele>
        <time>2021-08-19T18:37:36Z</time>
      </trkpt>
      <trkpt lat="43.10222" lon="-0.1629">
        <ele>335.64</ele>
        <time>2021-08-19T18:37:37Z</time>
      </trkpt>
      <trkpt lat="43.10225" lon="-0.16299">
        <ele>335.64</ele>
        <time>2021-08-19T18:37:38Z</time>
      </trkpt>
      <trkpt lat="43.10242" lon="-0.16346">
        <ele>335.16</ele>
        <time>2021-08-19T18:37:43Z</time>
      </trkpt>
      <trkpt lat="43.10246" lon="-0.16364">
        <ele>335.16</ele>
        <time>2021-08-19T18:37:45Z</time>
      </trkpt>
      <trkpt lat="43.10247" lon="-0.16373">
        <ele>335.16</ele>
        <time>2021-08-19T18:37:46Z</time>
      </trkpt>
      <trkpt lat="43.10248" lon="-0.16381">
        <ele>335.16</ele>
        <time>2021-08-19T18:37:47Z</time>
      </trkpt>
      <trkpt lat="43.10247" lon="-0.1639">
        <ele>335.16</ele>
        <time>2021-08-19T18:37:48Z</time>
      </trkpt>
      <trkpt lat="43.10247" lon="-0.16398">
        <ele>335.16</ele>
        <time>2021-08-19T18:37:49Z</time>
      </trkpt>
      <trkpt lat="43.10247" lon="-0.16406">
        <ele>335.16</ele>
        <time>2021-08-19T18:37:50Z</time>
      </trkpt>
      <trkpt lat="43.10244" lon="-0.16468">
        <ele>336.6</ele>
        <time>2021-08-19T18:37:58Z</time>
      </trkpt>
      <trkpt lat="43.10241" lon="-0.16507">
        <ele>338.52</ele>
        <time>2021-08-19T18:38:05Z</time>
      </trkpt>
      <trkpt lat="43.10242" lon="-0.1655">
        <ele>339.48</ele>
        <time>2021-08-19T18:38:14Z</time>
      </trkpt>
      <trkpt lat="43.10238" lon="-0.16593">
        <ele>340.44</ele>
        <time>2021-08-19T18:38:23Z</time>
      </trkpt>
      <trkpt lat="43.10236" lon="-0.1661">
        <ele>340.44</ele>
        <time>2021-08-19T18:38:27Z</time>
      </trkpt>
      <trkpt lat="43.10234" lon="-0.16613">
        <ele>340.44</ele>
        <time>2021-08-19T18:38:28Z</time>
      </trkpt>
      <trkpt lat="43.10231" lon="-0.16614">
        <ele>340.44</ele>
        <time>2021-08-19T18:38:29Z</time>
      </trkpt>
      <trkpt lat="43.10228" lon="-0.16614">
        <ele>340.44</ele>
        <time>2021-08-19T18:38:30Z</time>
      </trkpt>
      <trkpt lat="43.10224" lon="-0.16613">
        <ele>340.44</ele>
        <time>2021-08-19T18:38:31Z</time>
      </trkpt>
      <trkpt lat="43.1022" lon="-0.16612">
        <ele>340.44</ele>
        <time>2021-08-19T18:38:32Z</time>
      </trkpt>
      <trkpt lat="43.10182" lon="-0.16599">
        <ele>339</ele>
        <time>2021-08-19T18:38:41Z</time>
      </trkpt>
      <trkpt lat="43.10164" lon="-0.16593">
        <ele>337.08</ele>
        <time>2021-08-19T18:38:44Z</time>
      </trkpt>
      <trkpt lat="43.10138" lon="-0.16587">
        <ele>338.04</ele>
        <time>2021-08-19T18:38:49Z</time>
      </trkpt>
      <trkpt lat="43.10121" lon="-0.16585">
        <ele>339.96</ele>
        <time>2021-08-19T18:38:54Z</time>
      </trkpt>
      <trkpt lat="43.10102" lon="-0.16602">
        <ele>341.41</ele>
        <time>2021-08-19T18:39:01Z</time>
      </trkpt>
      <trkpt lat="43.10088" lon="-0.16633">
        <ele>341.89</ele>
        <time>2021-08-19T18:39:08Z</time>
      </trkpt>
      <trkpt lat="43.10085" lon="-0.16644">
        <ele>341.89</ele>
        <time>2021-08-19T18:39:10Z</time>
      </trkpt>
      <trkpt lat="43.10073" lon="-0.16696">
        <ele>340.92</ele>
        <time>2021-08-19T18:39:18Z</time>
      </trkpt>
      <trkpt lat="43.10052" lon="-0.16771">
        <ele>339.48</ele>
        <time>2021-08-19T18:39:28Z</time>
      </trkpt>
      <trkpt lat="43.10024" lon="-0.16857">
        <ele>339</ele>
        <time>2021-08-19T18:39:39Z</time>
      </trkpt>
      <trkpt lat="43.09988" lon="-0.16923">
        <ele>336.6</ele>
        <time>2021-08-19T18:39:48Z</time>
      </trkpt>
      <trkpt lat="43.09959" lon="-0.16985">
        <ele>336.12</ele>
        <time>2021-08-19T18:39:56Z</time>
      </trkpt>
      <trkpt lat="43.09946" lon="-0.17044">
        <ele>335.16</ele>
        <time>2021-08-19T18:40:03Z</time>
      </trkpt>
      <trkpt lat="43.09936" lon="-0.17133">
        <ele>334.68</ele>
        <time>2021-08-19T18:40:13Z</time>
      </trkpt>
      <trkpt lat="43.09923" lon="-0.17242">
        <ele>333.23</ele>
        <time>2021-08-19T18:40:25Z</time>
      </trkpt>
      <trkpt lat="43.09911" lon="-0.17304">
        <ele>332.27</ele>
        <time>2021-08-19T18:40:32Z</time>
      </trkpt>
      <trkpt lat="43.0991" lon="-0.17333">
        <ele>331.31</ele>
        <time>2021-08-19T18:40:35Z</time>
      </trkpt>
      <trkpt lat="43.09911" lon="-0.17342">
        <ele>331.31</ele>
        <time>2021-08-19T18:40:36Z</time>
      </trkpt>
      <trkpt lat="43.09925" lon="-0.17425">
        <ele>330.35</ele>
        <time>2021-08-19T18:40:45Z</time>
      </trkpt>
      <trkpt lat="43.09928" lon="-0.17433">
        <ele>330.35</ele>
        <time>2021-08-19T18:40:46Z</time>
      </trkpt>
      <trkpt lat="43.09931" lon="-0.17441">
        <ele>330.35</ele>
        <time>2021-08-19T18:40:47Z</time>
      </trkpt>
      <trkpt lat="43.09935" lon="-0.17448">
        <ele>330.35</ele>
        <time>2021-08-19T18:40:48Z</time>
      </trkpt>
      <trkpt lat="43.09939" lon="-0.17455">
        <ele>330.35</ele>
        <time>2021-08-19T18:40:49Z</time>
      </trkpt>
      <trkpt lat="43.09966" lon="-0.17488">
        <ele>331.79</ele>
        <time>2021-08-19T18:40:55Z</time>
      </trkpt>
      <trkpt lat="43.10001" lon="-0.17517">
        <ele>332.27</ele>
        <time>2021-08-19T18:41:03Z</time>
      </trkpt>
      <trkpt lat="43.10013" lon="-0.17528">
        <ele>332.75</ele>
        <time>2021-08-19T18:41:06Z</time>
      </trkpt>
      <trkpt lat="43.10032" lon="-0.17554">
        <ele>334.68</ele>
        <time>2021-08-19T18:41:13Z</time>
      </trkpt>
      <trkpt lat="43.10034" lon="-0.17556">
        <ele>334.68</ele>
        <time>2021-08-19T18:41:14Z</time>
      </trkpt>
      <trkpt lat="43.10035" lon="-0.17557">
        <ele>334.68</ele>
        <time>2021-08-19T18:41:15Z</time>
      </trkpt>
      <trkpt lat="43.10036" lon="-0.1756">
        <ele>334.68</ele>
        <time>2021-08-19T18:41:16Z</time>
      </trkpt>
      <trkpt lat="43.10035" lon="-0.17583">
        <ele>335.64</ele>
        <time>2021-08-19T18:41:23Z</time>
      </trkpt>
      <trkpt lat="43.1003" lon="-0.17624">
        <ele>337.08</ele>
        <time>2021-08-19T18:41:34Z</time>
      </trkpt>
      <trkpt lat="43.10022" lon="-0.17661">
        <ele>337.56</ele>
        <time>2021-08-19T18:41:43Z</time>
      </trkpt>
      <trkpt lat="43.10022" lon="-0.17695">
        <ele>338.04</ele>
        <time>2021-08-19T18:41:50Z</time>
      </trkpt>
      <trkpt lat="43.10032" lon="-0.17726">
        <ele>338.52</ele>
        <time>2021-08-19T18:41:56Z</time>
      </trkpt>
      <trkpt lat="43.10054" lon="-0.17785">
        <ele>339</ele>
        <time>2021-08-19T18:42:07Z</time>
      </trkpt>
      <trkpt lat="43.10055" lon="-0.1779">
        <ele>339</ele>
        <time>2021-08-19T18:42:08Z</time>
      </trkpt>
      <trkpt lat="43.10056" lon="-0.17796">
        <ele>339</ele>
        <time>2021-08-19T18:42:09Z</time>
      </trkpt>
      <trkpt lat="43.10062" lon="-0.17844">
        <ele>340.44</ele>
        <time>2021-08-19T18:42:18Z</time>
      </trkpt>
      <trkpt lat="43.10069" lon="-0.17883">
        <ele>340.92</ele>
        <time>2021-08-19T18:42:25Z</time>
      </trkpt>
      <trkpt lat="43.10083" lon="-0.17923">
        <ele>341.41</ele>
        <time>2021-08-19T18:42:33Z</time>
      </trkpt>
      <trkpt lat="43.10101" lon="-0.17965">
        <ele>341.41</ele>
        <time>2021-08-19T18:42:41Z</time>
      </trkpt>
      <trkpt lat="43.1012" lon="-0.18007">
        <ele>338.04</ele>
        <time>2021-08-19T18:42:47Z</time>
      </trkpt>
      <trkpt lat="43.10142" lon="-0.18043">
        <ele>333.71</ele>
        <time>2021-08-19T18:42:51Z</time>
      </trkpt>
      <trkpt lat="43.1019" lon="-0.18106">
        <ele>330.83</ele>
        <time>2021-08-19T18:42:58Z</time>
      </trkpt>
      <trkpt lat="43.10224" lon="-0.18159">
        <ele>329.87</ele>
        <time>2021-08-19T18:43:04Z</time>
      </trkpt>
      <trkpt lat="43.10232" lon="-0.18179">
        <ele>329.39</ele>
        <time>2021-08-19T18:43:06Z</time>
      </trkpt>
      <trkpt lat="43.10235" lon="-0.1819">
        <ele>329.39</ele>
        <time>2021-08-19T18:43:07Z</time>
      </trkpt>
      <trkpt lat="43.10238" lon="-0.18201">
        <ele>328.91</ele>
        <time>2021-08-19T18:43:08Z</time>
      </trkpt>
      <trkpt lat="43.10242" lon="-0.18269">
        <ele>327.47</ele>
        <time>2021-08-19T18:43:14Z</time>
      </trkpt>
      <trkpt lat="43.10242" lon="-0.18292">
        <ele>326.99</ele>
        <time>2021-08-19T18:43:16Z</time>
      </trkpt>
      <trkpt lat="43.1024" lon="-0.18381">
        <ele>325.54</ele>
        <time>2021-08-19T18:43:24Z</time>
      </trkpt>
      <trkpt lat="43.10238" lon="-0.1842">
        <ele>325.54</ele>
        <time>2021-08-19T18:43:28Z</time>
      </trkpt>
      <trkpt lat="43.10237" lon="-0.18437">
        <ele>326.99</ele>
        <time>2021-08-19T18:43:30Z</time>
      </trkpt>
      <trkpt lat="43.10234" lon="-0.18489">
        <ele>327.95</ele>
        <time>2021-08-19T18:43:37Z</time>
      </trkpt>
      <trkpt lat="43.10234" lon="-0.185">
        <ele>327.95</ele>
        <time>2021-08-19T18:43:40Z</time>
      </trkpt>
      <trkpt lat="43.10234" lon="-0.18499">
        <ele>328.43</ele>
        <time>2021-08-19T18:43:47Z</time>
      </trkpt>
      <trkpt lat="43.10238" lon="-0.18498">
        <ele>327.95</ele>
        <time>2021-08-19T18:43:59Z</time>
      </trkpt>
      <trkpt lat="43.10236" lon="-0.18496">
        <ele>327.95</ele>
        <time>2021-08-19T18:44:16Z</time>
      </trkpt>
      <trkpt lat="43.10236" lon="-0.18498">
        <ele>327.95</ele>
        <time>2021-08-19T18:44:31Z</time>
      </trkpt>
      <trkpt lat="43.10236" lon="-0.18498">
        <ele>327.95</ele>
        <time>2021-08-19T18:44:44Z</time>
      </trkpt>
      <trkpt lat="43.10235" lon="-0.18497">
        <ele>327.95</ele>
        <time>2021-08-19T18:44:56Z</time>
      </trkpt>
      <trkpt lat="43.10233" lon="-0.18504">
        <ele>327.95</ele>
        <time>2021-08-19T18:45:08Z</time>
      </trkpt>
      <trkpt lat="43.1023" lon="-0.18525">
        <ele>327.95</ele>
        <time>2021-08-19T18:45:13Z</time>
      </trkpt>
      <trkpt lat="43.10222" lon="-0.18575">
        <ele>326.5</ele>
        <time>2021-08-19T18:45:21Z</time>
      </trkpt>
      <trkpt lat="43.1023" lon="-0.18636">
        <ele>326.02</ele>
        <time>2021-08-19T18:45:29Z</time>
      </trkpt>
      <trkpt lat="43.10253" lon="-0.18712">
        <ele>324.58</ele>
        <time>2021-08-19T18:45:39Z</time>
      </trkpt>
      <trkpt lat="43.10277" lon="-0.18774">
        <ele>324.58</ele>
        <time>2021-08-19T18:45:48Z</time>
      </trkpt>
      <trkpt lat="43.10304" lon="-0.18819">
        <ele>324.58</ele>
        <time>2021-08-19T18:45:56Z</time>
      </trkpt>
      <trkpt lat="43.1031" lon="-0.18829">
        <ele>324.58</ele>
        <time>2021-08-19T18:45:58Z</time>
      </trkpt>
      <trkpt lat="43.10329" lon="-0.18862">
        <ele>324.1</ele>
        <time>2021-08-19T18:46:05Z</time>
      </trkpt>
      <trkpt lat="43.10339" lon="-0.18879">
        <ele>323.62</ele>
        <time>2021-08-19T18:46:08Z</time>
      </trkpt>
      <trkpt lat="43.10347" lon="-0.1889">
        <ele>323.62</ele>
        <time>2021-08-19T18:46:10Z</time>
      </trkpt>
      <trkpt lat="43.10387" lon="-0.18931">
        <ele>322.66</ele>
        <time>2021-08-19T18:46:18Z</time>
      </trkpt>
      <trkpt lat="43.10413" lon="-0.18963">
        <ele>322.66</ele>
        <time>2021-08-19T18:46:24Z</time>
      </trkpt>
      <trkpt lat="43.10418" lon="-0.18975">
        <ele>322.66</ele>
        <time>2021-08-19T18:46:26Z</time>
      </trkpt>
      <trkpt lat="43.10419" lon="-0.18981">
        <ele>322.66</ele>
        <time>2021-08-19T18:46:27Z</time>
      </trkpt>
      <trkpt lat="43.10422" lon="-0.18993">
        <ele>324.1</ele>
        <time>2021-08-19T18:46:29Z</time>
      </trkpt>
      <trkpt lat="43.10441" lon="-0.19046">
        <ele>324.1</ele>
        <time>2021-08-19T18:46:37Z</time>
      </trkpt>
      <trkpt lat="43.10465" lon="-0.19091">
        <ele>322.18</ele>
        <time>2021-08-19T18:46:44Z</time>
      </trkpt>
      <trkpt lat="43.10474" lon="-0.19112">
        <ele>322.18</ele>
        <time>2021-08-19T18:46:47Z</time>
      </trkpt>
      <trkpt lat="43.10476" lon="-0.19119">
        <ele>322.18</ele>
        <time>2021-08-19T18:46:48Z</time>
      </trkpt>
      <trkpt lat="43.10477" lon="-0.19126">
        <ele>322.18</ele>
        <time>2021-08-19T18:46:49Z</time>
      </trkpt>
      <trkpt lat="43.1048" lon="-0.19144">
        <ele>324.1</ele>
        <time>2021-08-19T18:46:52Z</time>
      </trkpt>
      <trkpt lat="43.10489" lon="-0.19176">
        <ele>325.06</ele>
        <time>2021-08-19T18:46:59Z</time>
      </trkpt>
      <trkpt lat="43.10495" lon="-0.19184">
        <ele>325.06</ele>
        <time>2021-08-19T18:47:01Z</time>
      </trkpt>
      <trkpt lat="43.10498" lon="-0.19188">
        <ele>325.06</ele>
        <time>2021-08-19T18:47:02Z</time>
      </trkpt>
      <trkpt lat="43.10502" lon="-0.19192">
        <ele>325.06</ele>
        <time>2021-08-19T18:47:03Z</time>
      </trkpt>
      <trkpt lat="43.10506" lon="-0.19194">
        <ele>325.06</ele>
        <time>2021-08-19T18:47:04Z</time>
      </trkpt>
      <trkpt lat="43.10511" lon="-0.19197">
        <ele>325.06</ele>
        <time>2021-08-19T18:47:05Z</time>
      </trkpt>
      <trkpt lat="43.10515" lon="-0.19199">
        <ele>325.06</ele>
        <time>2021-08-19T18:47:06Z</time>
      </trkpt>
      <trkpt lat="43.10525" lon="-0.19202">
        <ele>325.06</ele>
        <time>2021-08-19T18:47:08Z</time>
      </trkpt>
      <trkpt lat="43.10547" lon="-0.19209">
        <ele>323.62</ele>
        <time>2021-08-19T18:47:12Z</time>
      </trkpt>
      <trkpt lat="43.10586" lon="-0.19218">
        <ele>323.14</ele>
        <time>2021-08-19T18:47:19Z</time>
      </trkpt>
      <trkpt lat="43.10625" lon="-0.19225">
        <ele>322.18</ele>
        <time>2021-08-19T18:47:26Z</time>
      </trkpt>
      <trkpt lat="43.10638" lon="-0.19224">
        <ele>322.66</ele>
        <time>2021-08-19T18:47:28Z</time>
      </trkpt>
      <trkpt lat="43.10701" lon="-0.19224">
        <ele>322.18</ele>
        <time>2021-08-19T18:47:38Z</time>
      </trkpt>
      <trkpt lat="43.10755" lon="-0.19227">
        <ele>321.7</ele>
        <time>2021-08-19T18:47:47Z</time>
      </trkpt>
      <trkpt lat="43.10805" lon="-0.19229">
        <ele>321.7</ele>
        <time>2021-08-19T18:47:56Z</time>
      </trkpt>
      <trkpt lat="43.1081" lon="-0.1923">
        <ele>321.7</ele>
        <time>2021-08-19T18:47:57Z</time>
      </trkpt>
      <trkpt lat="43.10815" lon="-0.19233">
        <ele>321.7</ele>
        <time>2021-08-19T18:47:58Z</time>
      </trkpt>
      <trkpt lat="43.1082" lon="-0.19237">
        <ele>323.14</ele>
        <time>2021-08-19T18:47:59Z</time>
      </trkpt>
      <trkpt lat="43.10824" lon="-0.19241">
        <ele>323.62</ele>
        <time>2021-08-19T18:48:00Z</time>
      </trkpt>
      <trkpt lat="43.10828" lon="-0.19247">
        <ele>323.62</ele>
        <time>2021-08-19T18:48:01Z</time>
      </trkpt>
      <trkpt lat="43.10831" lon="-0.19252">
        <ele>323.62</ele>
        <time>2021-08-19T18:48:02Z</time>
      </trkpt>
      <trkpt lat="43.10843" lon="-0.19269">
        <ele>324.1</ele>
        <time>2021-08-19T18:48:05Z</time>
      </trkpt>
      <trkpt lat="43.10847" lon="-0.19272">
        <ele>325.06</ele>
        <time>2021-08-19T18:48:06Z</time>
      </trkpt>
      <trkpt lat="43.10851" lon="-0.19275">
        <ele>325.06</ele>
        <time>2021-08-19T18:48:07Z</time>
      </trkpt>
      <trkpt lat="43.10856" lon="-0.19277">
        <ele>324.58</ele>
        <time>2021-08-19T18:48:08Z</time>
      </trkpt>
      <trkpt lat="43.1086" lon="-0.19278">
        <ele>325.06</ele>
        <time>2021-08-19T18:48:09Z</time>
      </trkpt>
      <trkpt lat="43.10864" lon="-0.1928">
        <ele>325.54</ele>
        <time>2021-08-19T18:48:10Z</time>
      </trkpt>
      <trkpt lat="43.10904" lon="-0.19291">
        <ele>326.02</ele>
        <time>2021-08-19T18:48:19Z</time>
      </trkpt>
      <trkpt lat="43.10952" lon="-0.19303">
        <ele>326.5</ele>
        <time>2021-08-19T18:48:29Z</time>
      </trkpt>
      <trkpt lat="43.11006" lon="-0.19317">
        <ele>326.5</ele>
        <time>2021-08-19T18:48:39Z</time>
      </trkpt>
      <trkpt lat="43.11071" lon="-0.19331">
        <ele>325.06</ele>
        <time>2021-08-19T18:48:50Z</time>
      </trkpt>
      <trkpt lat="43.1115" lon="-0.19341">
        <ele>324.58</ele>
        <time>2021-08-19T18:49:02Z</time>
      </trkpt>
      <trkpt lat="43.11211" lon="-0.19355">
        <ele>323.62</ele>
        <time>2021-08-19T18:49:11Z</time>
      </trkpt>
      <trkpt lat="43.11217" lon="-0.19358">
        <ele>323.62</ele>
        <time>2021-08-19T18:49:12Z</time>
      </trkpt>
      <trkpt lat="43.11223" lon="-0.19362">
        <ele>323.62</ele>
        <time>2021-08-19T18:49:13Z</time>
      </trkpt>
      <trkpt lat="43.11263" lon="-0.19398">
        <ele>322.66</ele>
        <time>2021-08-19T18:49:20Z</time>
      </trkpt>
      <trkpt lat="43.11312" lon="-0.19444">
        <ele>322.18</ele>
        <time>2021-08-19T18:49:29Z</time>
      </trkpt>
      <trkpt lat="43.11365" lon="-0.19473">
        <ele>321.7</ele>
        <time>2021-08-19T18:49:38Z</time>
      </trkpt>
      <trkpt lat="43.11422" lon="-0.19493">
        <ele>319.3</ele>
        <time>2021-08-19T18:49:46Z</time>
      </trkpt>
      <trkpt lat="43.11492" lon="-0.19517">
        <ele>319.3</ele>
        <time>2021-08-19T18:49:56Z</time>
      </trkpt>
      <trkpt lat="43.11538" lon="-0.19532">
        <ele>319.3</ele>
        <time>2021-08-19T18:50:04Z</time>
      </trkpt>
      <trkpt lat="43.11592" lon="-0.19554">
        <ele>318.81</ele>
        <time>2021-08-19T18:50:13Z</time>
      </trkpt>
      <trkpt lat="43.11598" lon="-0.19558">
        <ele>318.81</ele>
        <time>2021-08-19T18:50:14Z</time>
      </trkpt>
      <trkpt lat="43.11641" lon="-0.19603">
        <ele>318.81</ele>
        <time>2021-08-19T18:50:22Z</time>
      </trkpt>
      <trkpt lat="43.11675" lon="-0.19657">
        <ele>318.81</ele>
        <time>2021-08-19T18:50:31Z</time>
      </trkpt>
      <trkpt lat="43.11715" lon="-0.19719">
        <ele>318.33</ele>
        <time>2021-08-19T18:50:41Z</time>
      </trkpt>
      <trkpt lat="43.11759" lon="-0.19784">
        <ele>318.33</ele>
        <time>2021-08-19T18:50:51Z</time>
      </trkpt>
      <trkpt lat="43.11801" lon="-0.19838">
        <ele>317.85</ele>
        <time>2021-08-19T18:51:00Z</time>
      </trkpt>
      <trkpt lat="43.11823" lon="-0.19879">
        <ele>317.37</ele>
        <time>2021-08-19T18:51:06Z</time>
      </trkpt>
      <trkpt lat="43.11828" lon="-0.19894">
        <ele>316.89</ele>
        <time>2021-08-19T18:51:08Z</time>
      </trkpt>
      <trkpt lat="43.11829" lon="-0.19903">
        <ele>315.93</ele>
        <time>2021-08-19T18:51:09Z</time>
      </trkpt>
      <trkpt lat="43.11832" lon="-0.19911">
        <ele>315.93</ele>
        <time>2021-08-19T18:51:10Z</time>
      </trkpt>
      <trkpt lat="43.11846" lon="-0.1996">
        <ele>315.45</ele>
        <time>2021-08-19T18:51:16Z</time>
      </trkpt>
      <trkpt lat="43.11853" lon="-0.20012">
        <ele>312.09</ele>
        <time>2021-08-19T18:51:21Z</time>
      </trkpt>
      <trkpt lat="43.11863" lon="-0.20053">
        <ele>311.6</ele>
        <time>2021-08-19T18:51:25Z</time>
      </trkpt>
      <trkpt lat="43.11866" lon="-0.20062">
        <ele>311.6</ele>
        <time>2021-08-19T18:51:26Z</time>
      </trkpt>
      <trkpt lat="43.11878" lon="-0.20093">
        <ele>309.68</ele>
        <time>2021-08-19T18:51:29Z</time>
      </trkpt>
      <trkpt lat="43.11897" lon="-0.20173">
        <ele>309.68</ele>
        <time>2021-08-19T18:51:37Z</time>
      </trkpt>
      <trkpt lat="43.11903" lon="-0.20198">
        <ele>311.6</ele>
        <time>2021-08-19T18:51:40Z</time>
      </trkpt>
      <trkpt lat="43.11905" lon="-0.20205">
        <ele>311.6</ele>
        <time>2021-08-19T18:51:41Z</time>
      </trkpt>
      <trkpt lat="43.11908" lon="-0.20212">
        <ele>312.09</ele>
        <time>2021-08-19T18:51:42Z</time>
      </trkpt>
      <trkpt lat="43.11925" lon="-0.20254">
        <ele>313.05</ele>
        <time>2021-08-19T18:51:49Z</time>
      </trkpt>
      <trkpt lat="43.11945" lon="-0.20292">
        <ele>313.05</ele>
        <time>2021-08-19T18:51:55Z</time>
      </trkpt>
      <trkpt lat="43.1195" lon="-0.20297">
        <ele>312.09</ele>
        <time>2021-08-19T18:51:56Z</time>
      </trkpt>
      <trkpt lat="43.11955" lon="-0.20302">
        <ele>312.09</ele>
        <time>2021-08-19T18:51:57Z</time>
      </trkpt>
      <trkpt lat="43.1196" lon="-0.20307">
        <ele>312.09</ele>
        <time>2021-08-19T18:51:58Z</time>
      </trkpt>
      <trkpt lat="43.11965" lon="-0.2031">
        <ele>312.09</ele>
        <time>2021-08-19T18:51:59Z</time>
      </trkpt>
      <trkpt lat="43.1197" lon="-0.20313">
        <ele>312.09</ele>
        <time>2021-08-19T18:52:00Z</time>
      </trkpt>
      <trkpt lat="43.11979" lon="-0.20319">
        <ele>312.09</ele>
        <time>2021-08-19T18:52:02Z</time>
      </trkpt>
      <trkpt lat="43.11983" lon="-0.20322">
        <ele>312.09</ele>
        <time>2021-08-19T18:52:03Z</time>
      </trkpt>
      <trkpt lat="43.12012" lon="-0.20356">
        <ele>313.05</ele>
        <time>2021-08-19T18:52:10Z</time>
      </trkpt>
      <trkpt lat="43.1202" lon="-0.20366">
        <ele>313.05</ele>
        <time>2021-08-19T18:52:12Z</time>
      </trkpt>
      <trkpt lat="43.12024" lon="-0.20371">
        <ele>313.05</ele>
        <time>2021-08-19T18:52:13Z</time>
      </trkpt>
      <trkpt lat="43.12054" lon="-0.20407">
        <ele>313.53</ele>
        <time>2021-08-19T18:52:20Z</time>
      </trkpt>
      <trkpt lat="43.12065" lon="-0.20425">
        <ele>314.49</ele>
        <time>2021-08-19T18:52:24Z</time>
      </trkpt>
      <trkpt lat="43.12069" lon="-0.20429">
        <ele>314.49</ele>
        <time>2021-08-19T18:52:25Z</time>
      </trkpt>
      <trkpt lat="43.12071" lon="-0.20432">
        <ele>314.49</ele>
        <time>2021-08-19T18:52:26Z</time>
      </trkpt>
      <trkpt lat="43.12074" lon="-0.20435">
        <ele>314.49</ele>
        <time>2021-08-19T18:52:27Z</time>
      </trkpt>
      <trkpt lat="43.12077" lon="-0.20438">
        <ele>314.49</ele>
        <time>2021-08-19T18:52:28Z</time>
      </trkpt>
      <trkpt lat="43.12081" lon="-0.20441">
        <ele>314.49</ele>
        <time>2021-08-19T18:52:29Z</time>
      </trkpt>
      <trkpt lat="43.12085" lon="-0.20445">
        <ele>314.49</ele>
        <time>2021-08-19T18:52:30Z</time>
      </trkpt>
      <trkpt lat="43.12088" lon="-0.20448">
        <ele>314.49</ele>
        <time>2021-08-19T18:52:31Z</time>
      </trkpt>
      <trkpt lat="43.12122" lon="-0.20481">
        <ele>314.01</ele>
        <time>2021-08-19T18:52:39Z</time>
      </trkpt>
      <trkpt lat="43.12146" lon="-0.2051">
        <ele>314.01</ele>
        <time>2021-08-19T18:52:45Z</time>
      </trkpt>
      <trkpt lat="43.1217" lon="-0.20537">
        <ele>314.01</ele>
        <time>2021-08-19T18:52:51Z</time>
      </trkpt>
      <trkpt lat="43.12196" lon="-0.20574">
        <ele>314.49</ele>
        <time>2021-08-19T18:52:59Z</time>
      </trkpt>
      <trkpt lat="43.12226" lon="-0.20614">
        <ele>311.6</ele>
        <time>2021-08-19T18:53:06Z</time>
      </trkpt>
      <trkpt lat="43.12259" lon="-0.20655">
        <ele>310.64</ele>
        <time>2021-08-19T18:53:13Z</time>
      </trkpt>
      <trkpt lat="43.12267" lon="-0.20663">
        <ele>310.64</ele>
        <time>2021-08-19T18:53:15Z</time>
      </trkpt>
      <trkpt lat="43.12276" lon="-0.20674">
        <ele>312.09</ele>
        <time>2021-08-19T18:53:18Z</time>
      </trkpt>
      <trkpt lat="43.12291" lon="-0.20691">
        <ele>312.57</ele>
        <time>2021-08-19T18:53:24Z</time>
      </trkpt>
      <trkpt lat="43.12306" lon="-0.20707">
        <ele>311.12</ele>
        <time>2021-08-19T18:53:29Z</time>
      </trkpt>
      <trkpt lat="43.12312" lon="-0.20711">
        <ele>310.16</ele>
        <time>2021-08-19T18:53:30Z</time>
      </trkpt>
      <trkpt lat="43.12318" lon="-0.20714">
        <ele>309.68</ele>
        <time>2021-08-19T18:53:31Z</time>
      </trkpt>
      <trkpt lat="43.12337" lon="-0.2072">
        <ele>308.24</ele>
        <time>2021-08-19T18:53:34Z</time>
      </trkpt>
      <trkpt lat="43.12384" lon="-0.20724">
        <ele>308.24</ele>
        <time>2021-08-19T18:53:42Z</time>
      </trkpt>
      <trkpt lat="43.12397" lon="-0.20726">
        <ele>308.24</ele>
        <time>2021-08-19T18:53:45Z</time>
      </trkpt>
      <trkpt lat="43.12405" lon="-0.2073">
        <ele>309.2</ele>
        <time>2021-08-19T18:53:47Z</time>
      </trkpt>
      <trkpt lat="43.12417" lon="-0.20737">
        <ele>309.2</ele>
        <time>2021-08-19T18:53:50Z</time>
      </trkpt>
      <trkpt lat="43.12441" lon="-0.20745">
        <ele>309.2</ele>
        <time>2021-08-19T18:53:56Z</time>
      </trkpt>
      <trkpt lat="43.12445" lon="-0.20745">
        <ele>309.2</ele>
        <time>2021-08-19T18:53:57Z</time>
      </trkpt>
      <trkpt lat="43.12471" lon="-0.20749">
        <ele>310.16</ele>
        <time>2021-08-19T18:54:05Z</time>
      </trkpt>
      <trkpt lat="43.1249" lon="-0.20749">
        <ele>310.16</ele>
        <time>2021-08-19T18:54:14Z</time>
      </trkpt>
      <trkpt lat="43.12496" lon="-0.20751">
        <ele>310.64</ele>
        <time>2021-08-19T18:54:17Z</time>
      </trkpt>
      <trkpt lat="43.12497" lon="-0.20753">
        <ele>310.64</ele>
        <time>2021-08-19T18:54:18Z</time>
      </trkpt>
      <trkpt lat="43.12496" lon="-0.20755">
        <ele>310.64</ele>
        <time>2021-08-19T18:54:19Z</time>
      </trkpt>
      <trkpt lat="43.12494" lon="-0.20755">
        <ele>311.12</ele>
        <time>2021-08-19T18:54:22Z</time>
      </trkpt>
      <trkpt lat="43.12492" lon="-0.20754">
        <ele>311.6</ele>
        <time>2021-08-19T18:54:29Z</time>
      </trkpt>
      <trkpt lat="43.12492" lon="-0.20752">
        <ele>311.6</ele>
        <time>2021-08-19T18:54:44Z</time>
      </trkpt>
      <trkpt lat="43.12491" lon="-0.20748">
        <ele>311.6</ele>
        <time>2021-08-19T18:55:00Z</time>
      </trkpt>
      <trkpt lat="43.12491" lon="-0.20742">
        <ele>311.6</ele>
        <time>2021-08-19T18:55:17Z</time>
      </trkpt>
      <trkpt lat="43.12494" lon="-0.20744">
        <ele>311.6</ele>
        <time>2021-08-19T18:55:25Z</time>
      </trkpt>
      <trkpt lat="43.12495" lon="-0.20745">
        <ele>311.6</ele>
        <time>2021-08-19T18:55:26Z</time>
      </trkpt>
      <trkpt lat="43.12497" lon="-0.20748">
        <ele>311.6</ele>
        <time>2021-08-19T18:55:27Z</time>
      </trkpt>
      <trkpt lat="43.12499" lon="-0.20749">
        <ele>311.6</ele>
        <time>2021-08-19T18:55:28Z</time>
      </trkpt>
      <trkpt lat="43.12501" lon="-0.20748">
        <ele>311.6</ele>
        <time>2021-08-19T18:55:29Z</time>
      </trkpt>
      <trkpt lat="43.12504" lon="-0.20745">
        <ele>311.6</ele>
        <time>2021-08-19T18:55:30Z</time>
      </trkpt>
      <trkpt lat="43.12506" lon="-0.20744">
        <ele>311.6</ele>
        <time>2021-08-19T18:55:31Z</time>
      </trkpt>
      <trkpt lat="43.12509" lon="-0.20743">
        <ele>311.6</ele>
        <time>2021-08-19T18:55:32Z</time>
      </trkpt>
      <trkpt lat="43.12525" lon="-0.20734">
        <ele>311.6</ele>
        <time>2021-08-19T18:55:39Z</time>
      </trkpt>
      <trkpt lat="43.12527" lon="-0.20735">
        <ele>311.6</ele>
        <time>2021-08-19T18:55:40Z</time>
      </trkpt>
      <trkpt lat="43.12528" lon="-0.20736">
        <ele>311.6</ele>
        <time>2021-08-19T18:55:41Z</time>
      </trkpt>
      <trkpt lat="43.12526" lon="-0.20741">
        <ele>311.6</ele>
        <time>2021-08-19T18:55:44Z</time>
      </trkpt>
      <trkpt lat="43.12523" lon="-0.20742">
        <ele>311.6</ele>
        <time>2021-08-19T18:55:45Z</time>
      </trkpt>
      <trkpt lat="43.1252" lon="-0.20742">
        <ele>311.6</ele>
        <time>2021-08-19T18:55:46Z</time>
      </trkpt>
      <trkpt lat="43.12516" lon="-0.20742">
        <ele>310.16</ele>
        <time>2021-08-19T18:55:47Z</time>
      </trkpt>
      <trkpt lat="43.12513" lon="-0.20743">
        <ele>310.16</ele>
        <time>2021-08-19T18:55:48Z</time>
      </trkpt>
      <trkpt lat="43.12497" lon="-0.20744">
        <ele>310.16</ele>
        <time>2021-08-19T18:55:53Z</time>
      </trkpt>
      <trkpt lat="43.12492" lon="-0.20742">
        <ele>310.16</ele>
        <time>2021-08-19T18:55:55Z</time>
      </trkpt>
      <trkpt lat="43.12491" lon="-0.2074">
        <ele>310.16</ele>
        <time>2021-08-19T18:55:56Z</time>
      </trkpt>
      <trkpt lat="43.12491" lon="-0.20738">
        <ele>310.16</ele>
        <time>2021-08-19T18:55:57Z</time>
      </trkpt>
      <trkpt lat="43.12492" lon="-0.20736">
        <ele>310.16</ele>
        <time>2021-08-19T18:55:58Z</time>
      </trkpt>
      <trkpt lat="43.12494" lon="-0.20733">
        <ele>310.16</ele>
        <time>2021-08-19T18:56:04Z</time>
      </trkpt>
      <trkpt lat="43.12497" lon="-0.20733">
        <ele>309.2</ele>
        <time>2021-08-19T18:56:09Z</time>
      </trkpt>
      <trkpt lat="43.125" lon="-0.2073">
        <ele>307.76</ele>
        <time>2021-08-19T18:56:16Z</time>
      </trkpt>
      <trkpt lat="43.125" lon="-0.20729">
        <ele>307.76</ele>
        <time>2021-08-19T18:56:20Z</time>
      </trkpt>
      <trkpt lat="43.12501" lon="-0.20728">
        <ele>307.76</ele>
        <time>2021-08-19T18:56:21Z</time>
      </trkpt>
      <trkpt lat="43.12503" lon="-0.20728">
        <ele>307.28</ele>
        <time>2021-08-19T18:56:22Z</time>
      </trkpt>
      <trkpt lat="43.12505" lon="-0.20727">
        <ele>307.28</ele>
        <time>2021-08-19T18:56:23Z</time>
      </trkpt>
      <trkpt lat="43.12508" lon="-0.20727">
        <ele>307.28</ele>
        <time>2021-08-19T18:56:24Z</time>
      </trkpt>
      <trkpt lat="43.12511" lon="-0.20726">
        <ele>307.28</ele>
        <time>2021-08-19T18:56:25Z</time>
      </trkpt>
      <trkpt lat="43.12514" lon="-0.20724">
        <ele>307.28</ele>
        <time>2021-08-19T18:56:26Z</time>
      </trkpt>
      <trkpt lat="43.12517" lon="-0.20723">
        <ele>307.28</ele>
        <time>2021-08-19T18:56:27Z</time>
      </trkpt>
      <trkpt lat="43.12534" lon="-0.20717">
        <ele>306.32</ele>
        <time>2021-08-19T18:56:32Z</time>
      </trkpt>
      <trkpt lat="43.12538" lon="-0.20717">
        <ele>305.84</ele>
        <time>2021-08-19T18:56:33Z</time>
      </trkpt>
      <trkpt lat="43.12543" lon="-0.20717">
        <ele>305.84</ele>
        <time>2021-08-19T18:56:34Z</time>
      </trkpt>
      <trkpt lat="43.12547" lon="-0.20716">
        <ele>305.84</ele>
        <time>2021-08-19T18:56:35Z</time>
      </trkpt>
      <trkpt lat="43.12551" lon="-0.20716">
        <ele>305.84</ele>
        <time>2021-08-19T18:56:36Z</time>
      </trkpt>
      <trkpt lat="43.12554" lon="-0.20716">
        <ele>305.84</ele>
        <time>2021-08-19T18:56:37Z</time>
      </trkpt>
      <trkpt lat="43.12581" lon="-0.20716">
        <ele>305.84</ele>
        <time>2021-08-19T18:56:44Z</time>
      </trkpt>
      <trkpt lat="43.12605" lon="-0.20717">
        <ele>305.84</ele>
        <time>2021-08-19T18:56:50Z</time>
      </trkpt>
      <trkpt lat="43.12632" lon="-0.20717">
        <ele>305.84</ele>
        <time>2021-08-19T18:56:57Z</time>
      </trkpt>
      <trkpt lat="43.12643" lon="-0.20718">
        <ele>306.8</ele>
        <time>2021-08-19T18:57:01Z</time>
      </trkpt>
      <trkpt lat="43.12666" lon="-0.20717">
        <ele>306.8</ele>
        <time>2021-08-19T18:57:09Z</time>
      </trkpt>
      <trkpt lat="43.12674" lon="-0.20716">
        <ele>306.8</ele>
        <time>2021-08-19T18:57:14Z</time>
      </trkpt>
      <trkpt lat="43.12676" lon="-0.20716">
        <ele>306.8</ele>
        <time>2021-08-19T18:57:20Z</time>
      </trkpt>
      <trkpt lat="43.12675" lon="-0.20719">
        <ele>306.8</ele>
        <time>2021-08-19T18:57:39Z</time>
      </trkpt>
      <trkpt lat="43.12674" lon="-0.20725">
        <ele>306.8</ele>
        <time>2021-08-19T18:57:58Z</time>
      </trkpt>
      <trkpt lat="43.12673" lon="-0.20725">
        <ele>306.8</ele>
        <time>2021-08-19T18:57:59Z</time>
      </trkpt>
      <trkpt lat="43.12673" lon="-0.20722">
        <ele>306.8</ele>
        <time>2021-08-19T18:58:04Z</time>
      </trkpt>
      <trkpt lat="43.12663" lon="-0.20721">
        <ele>306.8</ele>
        <time>2021-08-19T18:58:10Z</time>
      </trkpt>
      <trkpt lat="43.12645" lon="-0.20722">
        <ele>306.8</ele>
        <time>2021-08-19T18:58:17Z</time>
      </trkpt>
      <trkpt lat="43.12641" lon="-0.20724">
        <ele>306.8</ele>
        <time>2021-08-19T18:58:20Z</time>
      </trkpt>
      <trkpt lat="43.12639" lon="-0.20723">
        <ele>306.8</ele>
        <time>2021-08-19T18:58:21Z</time>
      </trkpt>
      <trkpt lat="43.12638" lon="-0.20721">
        <ele>306.8</ele>
        <time>2021-08-19T18:58:22Z</time>
      </trkpt>
      <trkpt lat="43.12635" lon="-0.20717">
        <ele>306.8</ele>
        <time>2021-08-19T18:58:24Z</time>
      </trkpt>
      <trkpt lat="43.12633" lon="-0.20715">
        <ele>306.8</ele>
        <time>2021-08-19T18:58:25Z</time>
      </trkpt>
      <trkpt lat="43.12634" lon="-0.20705">
        <ele>305.84</ele>
        <time>2021-08-19T18:58:28Z</time>
      </trkpt>
      <trkpt lat="43.12636" lon="-0.20701">
        <ele>305.84</ele>
        <time>2021-08-19T18:58:29Z</time>
      </trkpt>
      <trkpt lat="43.12639" lon="-0.20699">
        <ele>305.84</ele>
        <time>2021-08-19T18:58:30Z</time>
      </trkpt>
      <trkpt lat="43.12642" lon="-0.20697">
        <ele>305.36</ele>
        <time>2021-08-19T18:58:31Z</time>
      </trkpt>
      <trkpt lat="43.12646" lon="-0.20695">
        <ele>305.36</ele>
        <time>2021-08-19T18:58:32Z</time>
      </trkpt>
      <trkpt lat="43.12649" lon="-0.20694">
        <ele>305.36</ele>
        <time>2021-08-19T18:58:33Z</time>
      </trkpt>
      <trkpt lat="43.12652" lon="-0.20692">
        <ele>305.36</ele>
        <time>2021-08-19T18:58:34Z</time>
      </trkpt>
      <trkpt lat="43.12653" lon="-0.20693">
        <ele>305.36</ele>
        <time>2021-08-19T18:58:38Z</time>
      </trkpt>
      <trkpt lat="43.12654" lon="-0.20696">
        <ele>305.36</ele>
        <time>2021-08-19T18:58:50Z</time>
      </trkpt>
      <trkpt lat="43.12652" lon="-0.20696">
        <ele>305.36</ele>
        <time>2021-08-19T18:59:08Z</time>
      </trkpt>
      <trkpt lat="43.12652" lon="-0.20694">
        <ele>304.88</ele>
        <time>2021-08-19T18:59:21Z</time>
      </trkpt>
      <trkpt lat="43.12654" lon="-0.20691">
        <ele>304.88</ele>
        <time>2021-08-19T18:59:36Z</time>
      </trkpt>
      <trkpt lat="43.12653" lon="-0.20691">
        <ele>304.88</ele>
        <time>2021-08-19T18:59:52Z</time>
      </trkpt>
      <trkpt lat="43.12655" lon="-0.20695">
        <ele>304.88</ele>
        <time>2021-08-19T19:00:10Z</time>
      </trkpt>
      <trkpt lat="43.12653" lon="-0.20694">
        <ele>304.88</ele>
        <time>2021-08-19T19:00:27Z</time>
      </trkpt>
      <trkpt lat="43.12652" lon="-0.20693">
        <ele>304.39</ele>
        <time>2021-08-19T19:00:45Z</time>
      </trkpt>
      <trkpt lat="43.12653" lon="-0.20694">
        <ele>304.39</ele>
        <time>2021-08-19T19:00:58Z</time>
      </trkpt>
      <trkpt lat="43.12655" lon="-0.20693">
        <ele>304.39</ele>
        <time>2021-08-19T19:01:12Z</time>
      </trkpt>
      <trkpt lat="43.12654" lon="-0.20695">
        <ele>304.39</ele>
        <time>2021-08-19T19:01:33Z</time>
      </trkpt>
      <trkpt lat="43.12657" lon="-0.2069">
        <ele>304.39</ele>
        <time>2021-08-19T19:01:41Z</time>
      </trkpt>
      <trkpt lat="43.1267" lon="-0.20679">
        <ele>303.91</ele>
        <time>2021-08-19T19:01:47Z</time>
      </trkpt>
      <trkpt lat="43.12692" lon="-0.20667">
        <ele>303.43</ele>
        <time>2021-08-19T19:01:54Z</time>
      </trkpt>
      <trkpt lat="43.12704" lon="-0.20659">
        <ele>303.43</ele>
        <time>2021-08-19T19:01:58Z</time>
      </trkpt>
      <trkpt lat="43.12721" lon="-0.20649">
        <ele>303.43</ele>
        <time>2021-08-19T19:02:03Z</time>
      </trkpt>
      <trkpt lat="43.12743" lon="-0.2064">
        <ele>303.43</ele>
        <time>2021-08-19T19:02:10Z</time>
      </trkpt>
      <trkpt lat="43.12763" lon="-0.20628">
        <ele>303.43</ele>
        <time>2021-08-19T19:02:16Z</time>
      </trkpt>
      <trkpt lat="43.12774" lon="-0.20622">
        <ele>303.43</ele>
        <time>2021-08-19T19:02:19Z</time>
      </trkpt>
      <trkpt lat="43.12786" lon="-0.20617">
        <ele>303.43</ele>
        <time>2021-08-19T19:02:22Z</time>
      </trkpt>
      <trkpt lat="43.1282" lon="-0.20599">
        <ele>303.43</ele>
        <time>2021-08-19T19:02:31Z</time>
      </trkpt>
      <trkpt lat="43.12839" lon="-0.20588">
        <ele>302.95</ele>
        <time>2021-08-19T19:02:36Z</time>
      </trkpt>
      <trkpt lat="43.12865" lon="-0.2057">
        <ele>302.95</ele>
        <time>2021-08-19T19:02:43Z</time>
      </trkpt>
      <trkpt lat="43.12891" lon="-0.20555">
        <ele>302.95</ele>
        <time>2021-08-19T19:02:50Z</time>
      </trkpt>
      <trkpt lat="43.12906" lon="-0.20548">
        <ele>302.95</ele>
        <time>2021-08-19T19:02:55Z</time>
      </trkpt>
      <trkpt lat="43.12927" lon="-0.20542">
        <ele>302.47</ele>
        <time>2021-08-19T19:03:01Z</time>
      </trkpt>
      <trkpt lat="43.12956" lon="-0.20537">
        <ele>302.47</ele>
        <time>2021-08-19T19:03:08Z</time>
      </trkpt>
      <trkpt lat="43.12979" lon="-0.20536">
        <ele>301.99</ele>
        <time>2021-08-19T19:03:13Z</time>
      </trkpt>
      <trkpt lat="43.13014" lon="-0.20555">
        <ele>301.99</ele>
        <time>2021-08-19T19:03:22Z</time>
      </trkpt>
      <trkpt lat="43.13037" lon="-0.20569">
        <ele>301.51</ele>
        <time>2021-08-19T19:03:27Z</time>
      </trkpt>
      <trkpt lat="43.13058" lon="-0.20596">
        <ele>301.51</ele>
        <time>2021-08-19T19:03:34Z</time>
      </trkpt>
      <trkpt lat="43.13075" lon="-0.20623">
        <ele>301.51</ele>
        <time>2021-08-19T19:03:41Z</time>
      </trkpt>
      <trkpt lat="43.13088" lon="-0.20637">
        <ele>301.51</ele>
        <time>2021-08-19T19:03:45Z</time>
      </trkpt>
      <trkpt lat="43.13095" lon="-0.20643">
        <ele>301.51</ele>
        <time>2021-08-19T19:03:47Z</time>
      </trkpt>
      <trkpt lat="43.13105" lon="-0.20653">
        <ele>301.51</ele>
        <time>2021-08-19T19:03:50Z</time>
      </trkpt>
      <trkpt lat="43.13108" lon="-0.20656">
        <ele>301.51</ele>
        <time>2021-08-19T19:03:51Z</time>
      </trkpt>
      <trkpt lat="43.1311" lon="-0.2066">
        <ele>301.51</ele>
        <time>2021-08-19T19:03:52Z</time>
      </trkpt>
      <trkpt lat="43.13113" lon="-0.20664">
        <ele>301.51</ele>
        <time>2021-08-19T19:03:53Z</time>
      </trkpt>
      <trkpt lat="43.13127" lon="-0.20684">
        <ele>301.51</ele>
        <time>2021-08-19T19:03:59Z</time>
      </trkpt>
      <trkpt lat="43.13137" lon="-0.20705">
        <ele>301.51</ele>
        <time>2021-08-19T19:04:05Z</time>
      </trkpt>
      <trkpt lat="43.13156" lon="-0.20742">
        <ele>301.03</ele>
        <time>2021-08-19T19:04:13Z</time>
      </trkpt>
      <trkpt lat="43.13167" lon="-0.20767">
        <ele>300.55</ele>
        <time>2021-08-19T19:04:19Z</time>
      </trkpt>
      <trkpt lat="43.13181" lon="-0.20798">
        <ele>300.55</ele>
        <time>2021-08-19T19:04:26Z</time>
      </trkpt>
      <trkpt lat="43.13197" lon="-0.20839">
        <ele>300.55</ele>
        <time>2021-08-19T19:04:34Z</time>
      </trkpt>
      <trkpt lat="43.13198" lon="-0.20848">
        <ele>300.55</ele>
        <time>2021-08-19T19:04:36Z</time>
      </trkpt>
      <trkpt lat="43.13189" lon="-0.20869">
        <ele>300.55</ele>
        <time>2021-08-19T19:04:41Z</time>
      </trkpt>
      <trkpt lat="43.13165" lon="-0.20896">
        <ele>300.55</ele>
        <time>2021-08-19T19:04:49Z</time>
      </trkpt>
      <trkpt lat="43.13144" lon="-0.20929">
        <ele>301.99</ele>
        <time>2021-08-19T19:04:59Z</time>
      </trkpt>
      <trkpt lat="43.13142" lon="-0.20935">
        <ele>304.39</ele>
        <time>2021-08-19T19:05:09Z</time>
      </trkpt>
      <trkpt lat="43.13139" lon="-0.20943">
        <ele>305.84</ele>
        <time>2021-08-19T19:05:19Z</time>
      </trkpt>
      <trkpt lat="43.13134" lon="-0.20948">
        <ele>307.76</ele>
        <time>2021-08-19T19:05:30Z</time>
      </trkpt>
      <trkpt lat="43.13128" lon="-0.20954">
        <ele>309.2</ele>
        <time>2021-08-19T19:05:39Z</time>
      </trkpt>
      <trkpt lat="43.13122" lon="-0.20961">
        <ele>309.68</ele>
        <time>2021-08-19T19:05:44Z</time>
      </trkpt>
      <trkpt lat="43.1312" lon="-0.20963">
        <ele>309.68</ele>
        <time>2021-08-19T19:05:48Z</time>
      </trkpt>
      <trkpt lat="43.13119" lon="-0.20964">
        <ele>309.68</ele>
        <time>2021-08-19T19:05:49Z</time>
      </trkpt>
      <trkpt lat="43.13118" lon="-0.20965">
        <ele>309.68</ele>
        <time>2021-08-19T19:05:50Z</time>
      </trkpt>
      <trkpt lat="43.13117" lon="-0.20967">
        <ele>309.68</ele>
        <time>2021-08-19T19:05:51Z</time>
      </trkpt>
      <trkpt lat="43.13117" lon="-0.20969">
        <ele>309.68</ele>
        <time>2021-08-19T19:05:52Z</time>
      </trkpt>
      <trkpt lat="43.13117" lon="-0.20971">
        <ele>309.68</ele>
        <time>2021-08-19T19:05:53Z</time>
      </trkpt>
      <trkpt lat="43.13126" lon="-0.20983">
        <ele>309.2</ele>
        <time>2021-08-19T19:05:57Z</time>
      </trkpt>
      <trkpt lat="43.13145" lon="-0.21018">
        <ele>309.2</ele>
        <time>2021-08-19T19:06:06Z</time>
      </trkpt>
      <trkpt lat="43.13162" lon="-0.21059">
        <ele>309.2</ele>
        <time>2021-08-19T19:06:15Z</time>
      </trkpt>
      <trkpt lat="43.13161" lon="-0.21065">
        <ele>309.2</ele>
        <time>2021-08-19T19:06:16Z</time>
      </trkpt>
      <trkpt lat="43.13158" lon="-0.21068">
        <ele>309.68</ele>
        <time>2021-08-19T19:06:17Z</time>
      </trkpt>
      <trkpt lat="43.13156" lon="-0.21071">
        <ele>309.2</ele>
        <time>2021-08-19T19:06:18Z</time>
      </trkpt>
      <trkpt lat="43.13153" lon="-0.21074">
        <ele>308.24</ele>
        <time>2021-08-19T19:06:19Z</time>
      </trkpt>
      <trkpt lat="43.1315" lon="-0.21077">
        <ele>308.24</ele>
        <time>2021-08-19T19:06:20Z</time>
      </trkpt>
      <trkpt lat="43.13147" lon="-0.21077">
        <ele>308.24</ele>
        <time>2021-08-19T19:06:21Z</time>
      </trkpt>
      <trkpt lat="43.13143" lon="-0.21077">
        <ele>308.24</ele>
        <time>2021-08-19T19:06:22Z</time>
      </trkpt>
      <trkpt lat="43.1314" lon="-0.21076">
        <ele>308.24</ele>
        <time>2021-08-19T19:06:23Z</time>
      </trkpt>
      <trkpt lat="43.13139" lon="-0.21074">
        <ele>308.24</ele>
        <time>2021-08-19T19:06:24Z</time>
      </trkpt>
      <trkpt lat="43.1314" lon="-0.21073">
        <ele>308.24</ele>
        <time>2021-08-19T19:06:25Z</time>
      </trkpt>
      <trkpt lat="43.13142" lon="-0.21074">
        <ele>308.24</ele>
        <time>2021-08-19T19:06:26Z</time>
      </trkpt>
      <trkpt lat="43.13144" lon="-0.21076">
        <ele>308.24</ele>
        <time>2021-08-19T19:06:27Z</time>
      </trkpt>
      <trkpt lat="43.13146" lon="-0.2108">
        <ele>308.24</ele>
        <time>2021-08-19T19:06:28Z</time>
      </trkpt>
      <trkpt lat="43.13146" lon="-0.21084">
        <ele>308.24</ele>
        <time>2021-08-19T19:06:29Z</time>
      </trkpt>
      <trkpt lat="43.13146" lon="-0.21088">
        <ele>308.24</ele>
        <time>2021-08-19T19:06:30Z</time>
      </trkpt>
      <trkpt lat="43.13145" lon="-0.21092">
        <ele>308.24</ele>
        <time>2021-08-19T19:06:31Z</time>
      </trkpt>
      <trkpt lat="43.13144" lon="-0.21096">
        <ele>308.24</ele>
        <time>2021-08-19T19:06:32Z</time>
      </trkpt>
      <trkpt lat="43.13144" lon="-0.211">
        <ele>308.24</ele>
        <time>2021-08-19T19:06:33Z</time>
      </trkpt>
      <trkpt lat="43.13133" lon="-0.2113">
        <ele>308.24</ele>
        <time>2021-08-19T19:06:39Z</time>
      </trkpt>
      <trkpt lat="43.13124" lon="-0.21157">
        <ele>307.76</ele>
        <time>2021-08-19T19:06:44Z</time>
      </trkpt>
      <trkpt lat="43.13107" lon="-0.21197">
        <ele>307.76</ele>
        <time>2021-08-19T19:06:53Z</time>
      </trkpt>
      <trkpt lat="43.13103" lon="-0.21198">
        <ele>307.76</ele>
        <time>2021-08-19T19:06:54Z</time>
      </trkpt>
      <trkpt lat="43.13099" lon="-0.21196">
        <ele>307.76</ele>
        <time>2021-08-19T19:06:55Z</time>
      </trkpt>
      <trkpt lat="43.13096" lon="-0.21194">
        <ele>307.76</ele>
        <time>2021-08-19T19:06:56Z</time>
      </trkpt>
      <trkpt lat="43.13093" lon="-0.21191">
        <ele>307.76</ele>
        <time>2021-08-19T19:06:57Z</time>
      </trkpt>
      <trkpt lat="43.1309" lon="-0.21187">
        <ele>307.76</ele>
        <time>2021-08-19T19:06:58Z</time>
      </trkpt>
      <trkpt lat="43.13087" lon="-0.21183">
        <ele>307.76</ele>
        <time>2021-08-19T19:06:59Z</time>
      </trkpt>
      <trkpt lat="43.13059" lon="-0.21149">
        <ele>308.72</ele>
        <time>2021-08-19T19:07:09Z</time>
      </trkpt>
      <trkpt lat="43.1304" lon="-0.21128">
        <ele>310.64</ele>
        <time>2021-08-19T19:07:18Z</time>
      </trkpt>
      <trkpt lat="43.13032" lon="-0.21121">
        <ele>311.12</ele>
        <time>2021-08-19T19:07:22Z</time>
      </trkpt>
      <trkpt lat="43.13029" lon="-0.21121">
        <ele>311.12</ele>
        <time>2021-08-19T19:07:23Z</time>
      </trkpt>
      <trkpt lat="43.13026" lon="-0.21122">
        <ele>311.12</ele>
        <time>2021-08-19T19:07:24Z</time>
      </trkpt>
      <trkpt lat="43.13024" lon="-0.21123">
        <ele>311.6</ele>
        <time>2021-08-19T19:07:25Z</time>
      </trkpt>
      <trkpt lat="43.13023" lon="-0.21125">
        <ele>311.6</ele>
        <time>2021-08-19T19:07:26Z</time>
      </trkpt>
      <trkpt lat="43.13021" lon="-0.21128">
        <ele>311.6</ele>
        <time>2021-08-19T19:07:27Z</time>
      </trkpt>
      <trkpt lat="43.13019" lon="-0.2113">
        <ele>311.6</ele>
        <time>2021-08-19T19:07:28Z</time>
      </trkpt>
      <trkpt lat="43.13007" lon="-0.21152">
        <ele>312.09</ele>
        <time>2021-08-19T19:07:35Z</time>
      </trkpt>
      <trkpt lat="43.12982" lon="-0.21186">
        <ele>312.09</ele>
        <time>2021-08-19T19:07:45Z</time>
      </trkpt>
      <trkpt lat="43.12969" lon="-0.21214">
        <ele>313.05</ele>
        <time>2021-08-19T19:07:53Z</time>
      </trkpt>
      <trkpt lat="43.12958" lon="-0.21241">
        <ele>314.97</ele>
        <time>2021-08-19T19:08:00Z</time>
      </trkpt>
      <trkpt lat="43.12948" lon="-0.21277">
        <ele>315.93</ele>
        <time>2021-08-19T19:08:09Z</time>
      </trkpt>
      <trkpt lat="43.12946" lon="-0.21316">
        <ele>316.41</ele>
        <time>2021-08-19T19:08:17Z</time>
      </trkpt>
      <trkpt lat="43.12947" lon="-0.21356">
        <ele>314.97</ele>
        <time>2021-08-19T19:08:24Z</time>
      </trkpt>
      <trkpt lat="43.12946" lon="-0.21418">
        <ele>313.53</ele>
        <time>2021-08-19T19:08:32Z</time>
      </trkpt>
      <trkpt lat="43.12941" lon="-0.21477">
        <ele>312.57</ele>
        <time>2021-08-19T19:08:39Z</time>
      </trkpt>
      <trkpt lat="43.1294" lon="-0.21484">
        <ele>312.57</ele>
        <time>2021-08-19T19:08:40Z</time>
      </trkpt>
      <trkpt lat="43.12938" lon="-0.2149">
        <ele>314.01</ele>
        <time>2021-08-19T19:08:41Z</time>
      </trkpt>
      <trkpt lat="43.12936" lon="-0.21495">
        <ele>314.01</ele>
        <time>2021-08-19T19:08:42Z</time>
      </trkpt>
      <trkpt lat="43.12934" lon="-0.215">
        <ele>314.49</ele>
        <time>2021-08-19T19:08:43Z</time>
      </trkpt>
      <trkpt lat="43.12932" lon="-0.21504">
        <ele>314.49</ele>
        <time>2021-08-19T19:08:44Z</time>
      </trkpt>
      <trkpt lat="43.1293" lon="-0.21508">
        <ele>315.45</ele>
        <time>2021-08-19T19:08:45Z</time>
      </trkpt>
      <trkpt lat="43.12928" lon="-0.2151">
        <ele>315.45</ele>
        <time>2021-08-19T19:08:46Z</time>
      </trkpt>
      <trkpt lat="43.12919" lon="-0.2152">
        <ele>316.89</ele>
        <time>2021-08-19T19:08:53Z</time>
      </trkpt>
      <trkpt lat="43.12907" lon="-0.21531">
        <ele>318.81</ele>
        <time>2021-08-19T19:09:02Z</time>
      </trkpt>
      <trkpt lat="43.12899" lon="-0.21542">
        <ele>320.26</ele>
        <time>2021-08-19T19:09:09Z</time>
      </trkpt>
      <trkpt lat="43.12891" lon="-0.21554">
        <ele>321.7</ele>
        <time>2021-08-19T19:09:17Z</time>
      </trkpt>
      <trkpt lat="43.12886" lon="-0.21568">
        <ele>322.66</ele>
        <time>2021-08-19T19:09:24Z</time>
      </trkpt>
      <trkpt lat="43.1288" lon="-0.21588">
        <ele>325.06</ele>
        <time>2021-08-19T19:09:34Z</time>
      </trkpt>
      <trkpt lat="43.12875" lon="-0.21604">
        <ele>326.5</ele>
        <time>2021-08-19T19:09:42Z</time>
      </trkpt>
      <trkpt lat="43.12871" lon="-0.21617">
        <ele>327.47</ele>
        <time>2021-08-19T19:09:49Z</time>
      </trkpt>
      <trkpt lat="43.12867" lon="-0.21625">
        <ele>328.43</ele>
        <time>2021-08-19T19:09:54Z</time>
      </trkpt>
      <trkpt lat="43.12866" lon="-0.21627">
        <ele>328.91</ele>
        <time>2021-08-19T19:09:55Z</time>
      </trkpt>
      <trkpt lat="43.12866" lon="-0.21629">
        <ele>328.91</ele>
        <time>2021-08-19T19:09:56Z</time>
      </trkpt>
      <trkpt lat="43.12865" lon="-0.2163">
        <ele>328.91</ele>
        <time>2021-08-19T19:09:57Z</time>
      </trkpt>
      <trkpt lat="43.12864" lon="-0.21632">
        <ele>328.91</ele>
        <time>2021-08-19T19:09:58Z</time>
      </trkpt>
      <trkpt lat="43.12863" lon="-0.21633">
        <ele>329.39</ele>
        <time>2021-08-19T19:09:59Z</time>
      </trkpt>
      <trkpt lat="43.12858" lon="-0.21645">
        <ele>330.83</ele>
        <time>2021-08-19T19:10:08Z</time>
      </trkpt>
      <trkpt lat="43.12856" lon="-0.21657">
        <ele>332.75</ele>
        <time>2021-08-19T19:10:16Z</time>
      </trkpt>
      <trkpt lat="43.12855" lon="-0.2166">
        <ele>332.75</ele>
        <time>2021-08-19T19:10:18Z</time>
      </trkpt>
      <trkpt lat="43.12855" lon="-0.21661">
        <ele>332.75</ele>
        <time>2021-08-19T19:10:19Z</time>
      </trkpt>
      <trkpt lat="43.12855" lon="-0.21663">
        <ele>332.75</ele>
        <time>2021-08-19T19:10:20Z</time>
      </trkpt>
      <trkpt lat="43.12855" lon="-0.21665">
        <ele>333.23</ele>
        <time>2021-08-19T19:10:21Z</time>
      </trkpt>
      <trkpt lat="43.12854" lon="-0.21666">
        <ele>333.23</ele>
        <time>2021-08-19T19:10:22Z</time>
      </trkpt>
      <trkpt lat="43.12854" lon="-0.21689">
        <ele>334.68</ele>
        <time>2021-08-19T19:10:31Z</time>
      </trkpt>
      <trkpt lat="43.12852" lon="-0.21709">
        <ele>335.64</ele>
        <time>2021-08-19T19:10:39Z</time>
      </trkpt>
      <trkpt lat="43.12852" lon="-0.21714">
        <ele>335.64</ele>
        <time>2021-08-19T19:10:41Z</time>
      </trkpt>
      <trkpt lat="43.12852" lon="-0.21718">
        <ele>335.64</ele>
        <time>2021-08-19T19:10:42Z</time>
      </trkpt>
      <trkpt lat="43.12851" lon="-0.21722">
        <ele>336.12</ele>
        <time>2021-08-19T19:10:43Z</time>
      </trkpt>
      <trkpt lat="43.12847" lon="-0.21746">
        <ele>337.08</ele>
        <time>2021-08-19T19:10:51Z</time>
      </trkpt>
      <trkpt lat="43.12843" lon="-0.21763">
        <ele>337.56</ele>
        <time>2021-08-19T19:10:58Z</time>
      </trkpt>
      <trkpt lat="43.1284" lon="-0.21786">
        <ele>339</ele>
        <time>2021-08-19T19:11:06Z</time>
      </trkpt>
      <trkpt lat="43.1284" lon="-0.21814">
        <ele>340.44</ele>
        <time>2021-08-19T19:11:15Z</time>
      </trkpt>
      <trkpt lat="43.12841" lon="-0.21833">
        <ele>342.37</ele>
        <time>2021-08-19T19:11:23Z</time>
      </trkpt>
      <trkpt lat="43.12841" lon="-0.21835">
        <ele>342.85</ele>
        <time>2021-08-19T19:11:24Z</time>
      </trkpt>
      <trkpt lat="43.12846" lon="-0.21852">
        <ele>344.29</ele>
        <time>2021-08-19T19:11:33Z</time>
      </trkpt>
      <trkpt lat="43.12848" lon="-0.21866">
        <ele>345.73</ele>
        <time>2021-08-19T19:11:41Z</time>
      </trkpt>
      <trkpt lat="43.12844" lon="-0.21884">
        <ele>347.65</ele>
        <time>2021-08-19T19:11:51Z</time>
      </trkpt>
      <trkpt lat="43.12835" lon="-0.21898">
        <ele>349.58</ele>
        <time>2021-08-19T19:12:01Z</time>
      </trkpt>
      <trkpt lat="43.12826" lon="-0.21901">
        <ele>350.54</ele>
        <time>2021-08-19T19:12:08Z</time>
      </trkpt>
      <trkpt lat="43.12815" lon="-0.21904">
        <ele>351.98</ele>
        <time>2021-08-19T19:12:17Z</time>
      </trkpt>
      <trkpt lat="43.12802" lon="-0.21906">
        <ele>353.42</ele>
        <time>2021-08-19T19:12:27Z</time>
      </trkpt>
      <trkpt lat="43.12788" lon="-0.21907">
        <ele>354.38</ele>
        <time>2021-08-19T19:12:37Z</time>
      </trkpt>
      <trkpt lat="43.12777" lon="-0.21913">
        <ele>355.83</ele>
        <time>2021-08-19T19:12:45Z</time>
      </trkpt>
      <trkpt lat="43.12763" lon="-0.21919">
        <ele>357.27</ele>
        <time>2021-08-19T19:12:55Z</time>
      </trkpt>
      <trkpt lat="43.1275" lon="-0.2193">
        <ele>359.19</ele>
        <time>2021-08-19T19:13:04Z</time>
      </trkpt>
      <trkpt lat="43.12736" lon="-0.21936">
        <ele>360.63</ele>
        <time>2021-08-19T19:13:12Z</time>
      </trkpt>
      <trkpt lat="43.12725" lon="-0.21943">
        <ele>362.07</ele>
        <time>2021-08-19T19:13:19Z</time>
      </trkpt>
      <trkpt lat="43.12709" lon="-0.21957">
        <ele>362.55</ele>
        <time>2021-08-19T19:13:28Z</time>
      </trkpt>
      <trkpt lat="43.12694" lon="-0.2198">
        <ele>363.52</ele>
        <time>2021-08-19T19:13:37Z</time>
      </trkpt>
      <trkpt lat="43.12682" lon="-0.22007">
        <ele>364.48</ele>
        <time>2021-08-19T19:13:46Z</time>
      </trkpt>
      <trkpt lat="43.12668" lon="-0.22033">
        <ele>365.44</ele>
        <time>2021-08-19T19:13:55Z</time>
      </trkpt>
      <trkpt lat="43.12652" lon="-0.22063">
        <ele>366.4</ele>
        <time>2021-08-19T19:14:04Z</time>
      </trkpt>
      <trkpt lat="43.12637" lon="-0.22095">
        <ele>366.88</ele>
        <time>2021-08-19T19:14:13Z</time>
      </trkpt>
      <trkpt lat="43.12619" lon="-0.22133">
        <ele>366.88</ele>
        <time>2021-08-19T19:14:23Z</time>
      </trkpt>
      <trkpt lat="43.12603" lon="-0.22168">
        <ele>366.88</ele>
        <time>2021-08-19T19:14:31Z</time>
      </trkpt>
      <trkpt lat="43.12592" lon="-0.22193">
        <ele>365.44</ele>
        <time>2021-08-19T19:14:36Z</time>
      </trkpt>
      <trkpt lat="43.12577" lon="-0.22224">
        <ele>365.44</ele>
        <time>2021-08-19T19:14:42Z</time>
      </trkpt>
      <trkpt lat="43.12575" lon="-0.22229">
        <ele>365.44</ele>
        <time>2021-08-19T19:14:43Z</time>
      </trkpt>
      <trkpt lat="43.12575" lon="-0.22234">
        <ele>365.44</ele>
        <time>2021-08-19T19:14:44Z</time>
      </trkpt>
      <trkpt lat="43.12573" lon="-0.2225">
        <ele>367.36</ele>
        <time>2021-08-19T19:14:48Z</time>
      </trkpt>
      <trkpt lat="43.12574" lon="-0.22274">
        <ele>369.28</ele>
        <time>2021-08-19T19:14:56Z</time>
      </trkpt>
      <trkpt lat="43.12574" lon="-0.22297">
        <ele>370.24</ele>
        <time>2021-08-19T19:15:03Z</time>
      </trkpt>
      <trkpt lat="43.12578" lon="-0.22326">
        <ele>370.24</ele>
        <time>2021-08-19T19:15:09Z</time>
      </trkpt>
      <trkpt lat="43.12591" lon="-0.22339">
        <ele>370.24</ele>
        <time>2021-08-19T19:15:14Z</time>
      </trkpt>
      <trkpt lat="43.12611" lon="-0.22344">
        <ele>371.69</ele>
        <time>2021-08-19T19:15:21Z</time>
      </trkpt>
      <trkpt lat="43.12632" lon="-0.22349">
        <ele>372.65</ele>
        <time>2021-08-19T19:15:28Z</time>
      </trkpt>
      <trkpt lat="43.12641" lon="-0.22351">
        <ele>371.21</ele>
        <time>2021-08-19T19:15:30Z</time>
      </trkpt>
      <trkpt lat="43.12646" lon="-0.22353">
        <ele>371.21</ele>
        <time>2021-08-19T19:15:31Z</time>
      </trkpt>
      <trkpt lat="43.12663" lon="-0.22367">
        <ele>370.73</ele>
        <time>2021-08-19T19:15:35Z</time>
      </trkpt>
      <trkpt lat="43.12666" lon="-0.22372">
        <ele>370.73</ele>
        <time>2021-08-19T19:15:36Z</time>
      </trkpt>
      <trkpt lat="43.1267" lon="-0.22378">
        <ele>370.24</ele>
        <time>2021-08-19T19:15:37Z</time>
      </trkpt>
      <trkpt lat="43.12673" lon="-0.22384">
        <ele>370.24</ele>
        <time>2021-08-19T19:15:38Z</time>
      </trkpt>
      <trkpt lat="43.12676" lon="-0.2239">
        <ele>369.28</ele>
        <time>2021-08-19T19:15:39Z</time>
      </trkpt>
      <trkpt lat="43.12694" lon="-0.22437">
        <ele>367.36</ele>
        <time>2021-08-19T19:15:45Z</time>
      </trkpt>
      <trkpt lat="43.12721" lon="-0.22516">
        <ele>364</ele>
        <time>2021-08-19T19:15:54Z</time>
      </trkpt>
      <trkpt lat="43.12747" lon="-0.22585">
        <ele>361.11</ele>
        <time>2021-08-19T19:16:01Z</time>
      </trkpt>
      <trkpt lat="43.12766" lon="-0.2264">
        <ele>360.15</ele>
        <time>2021-08-19T19:16:07Z</time>
      </trkpt>
      <trkpt lat="43.12777" lon="-0.2268">
        <ele>356.79</ele>
        <time>2021-08-19T19:16:12Z</time>
      </trkpt>
      <trkpt lat="43.12784" lon="-0.22707">
        <ele>355.83</ele>
        <time>2021-08-19T19:16:15Z</time>
      </trkpt>
      <trkpt lat="43.12793" lon="-0.22745">
        <ele>353.9</ele>
        <time>2021-08-19T19:16:19Z</time>
      </trkpt>
      <trkpt lat="43.12794" lon="-0.22755">
        <ele>353.9</ele>
        <time>2021-08-19T19:16:20Z</time>
      </trkpt>
      <trkpt lat="43.12793" lon="-0.22764">
        <ele>353.42</ele>
        <time>2021-08-19T19:16:21Z</time>
      </trkpt>
      <trkpt lat="43.12791" lon="-0.22772">
        <ele>353.42</ele>
        <time>2021-08-19T19:16:22Z</time>
      </trkpt>
      <trkpt lat="43.12789" lon="-0.2278">
        <ele>353.42</ele>
        <time>2021-08-19T19:16:23Z</time>
      </trkpt>
      <trkpt lat="43.12786" lon="-0.22787">
        <ele>353.42</ele>
        <time>2021-08-19T19:16:24Z</time>
      </trkpt>
      <trkpt lat="43.12773" lon="-0.22848">
        <ele>352.46</ele>
        <time>2021-08-19T19:16:32Z</time>
      </trkpt>
      <trkpt lat="43.12756" lon="-0.22929">
        <ele>351.5</ele>
        <time>2021-08-19T19:16:42Z</time>
      </trkpt>
      <trkpt lat="43.12752" lon="-0.22971">
        <ele>352.94</ele>
        <time>2021-08-19T19:16:49Z</time>
      </trkpt>
      <trkpt lat="43.1275" lon="-0.22992">
        <ele>354.86</ele>
        <time>2021-08-19T19:16:55Z</time>
      </trkpt>
      <trkpt lat="43.12753" lon="-0.23013">
        <ele>356.31</ele>
        <time>2021-08-19T19:17:02Z</time>
      </trkpt>
      <trkpt lat="43.12761" lon="-0.23028">
        <ele>356.79</ele>
        <time>2021-08-19T19:17:08Z</time>
      </trkpt>
      <trkpt lat="43.12762" lon="-0.23062">
        <ele>353.42</ele>
        <time>2021-08-19T19:17:15Z</time>
      </trkpt>
      <trkpt lat="43.12758" lon="-0.23093">
        <ele>350.06</ele>
        <time>2021-08-19T19:17:20Z</time>
      </trkpt>
      <trkpt lat="43.12755" lon="-0.23124">
        <ele>346.69</ele>
        <time>2021-08-19T19:17:24Z</time>
      </trkpt>
      <trkpt lat="43.12756" lon="-0.23168">
        <ele>343.81</ele>
        <time>2021-08-19T19:17:30Z</time>
      </trkpt>
      <trkpt lat="43.12751" lon="-0.23213">
        <ele>340.44</ele>
        <time>2021-08-19T19:17:35Z</time>
      </trkpt>
      <trkpt lat="43.12743" lon="-0.23253">
        <ele>339</ele>
        <time>2021-08-19T19:17:40Z</time>
      </trkpt>
      <trkpt lat="43.12736" lon="-0.23276">
        <ele>338.04</ele>
        <time>2021-08-19T19:17:43Z</time>
      </trkpt>
      <trkpt lat="43.1272" lon="-0.23305">
        <ele>336.6</ele>
        <time>2021-08-19T19:17:47Z</time>
      </trkpt>
      <trkpt lat="43.12716" lon="-0.23311">
        <ele>336.6</ele>
        <time>2021-08-19T19:17:48Z</time>
      </trkpt>
      <trkpt lat="43.1271" lon="-0.23316">
        <ele>336.12</ele>
        <time>2021-08-19T19:17:49Z</time>
      </trkpt>
      <trkpt lat="43.12704" lon="-0.2332">
        <ele>336.12</ele>
        <time>2021-08-19T19:17:50Z</time>
      </trkpt>
      <trkpt lat="43.12699" lon="-0.23324">
        <ele>336.12</ele>
        <time>2021-08-19T19:17:51Z</time>
      </trkpt>
      <trkpt lat="43.12693" lon="-0.23327">
        <ele>336.12</ele>
        <time>2021-08-19T19:17:52Z</time>
      </trkpt>
      <trkpt lat="43.12682" lon="-0.23335">
        <ele>335.64</ele>
        <time>2021-08-19T19:17:54Z</time>
      </trkpt>
      <trkpt lat="43.12677" lon="-0.23339">
        <ele>335.64</ele>
        <time>2021-08-19T19:17:55Z</time>
      </trkpt>
      <trkpt lat="43.12667" lon="-0.23347">
        <ele>335.64</ele>
        <time>2021-08-19T19:17:57Z</time>
      </trkpt>
      <trkpt lat="43.12652" lon="-0.23362">
        <ele>335.16</ele>
        <time>2021-08-19T19:18:00Z</time>
      </trkpt>
      <trkpt lat="43.12648" lon="-0.23364">
        <ele>334.2</ele>
        <time>2021-08-19T19:18:01Z</time>
      </trkpt>
      <trkpt lat="43.12643" lon="-0.23366">
        <ele>334.2</ele>
        <time>2021-08-19T19:18:02Z</time>
      </trkpt>
      <trkpt lat="43.1264" lon="-0.23366">
        <ele>333.71</ele>
        <time>2021-08-19T19:18:03Z</time>
      </trkpt>
      <trkpt lat="43.12635" lon="-0.23365">
        <ele>333.23</ele>
        <time>2021-08-19T19:18:04Z</time>
      </trkpt>
      <trkpt lat="43.12631" lon="-0.23363">
        <ele>332.27</ele>
        <time>2021-08-19T19:18:05Z</time>
      </trkpt>
      <trkpt lat="43.12625" lon="-0.2336">
        <ele>331.31</ele>
        <time>2021-08-19T19:18:06Z</time>
      </trkpt>
      <trkpt lat="43.12608" lon="-0.23352">
        <ele>329.39</ele>
        <time>2021-08-19T19:18:09Z</time>
      </trkpt>
      <trkpt lat="43.12578" lon="-0.23342">
        <ele>327.95</ele>
        <time>2021-08-19T19:18:14Z</time>
      </trkpt>
      <trkpt lat="43.12572" lon="-0.23341">
        <ele>327.47</ele>
        <time>2021-08-19T19:18:15Z</time>
      </trkpt>
      <trkpt lat="43.12566" lon="-0.2334">
        <ele>327.47</ele>
        <time>2021-08-19T19:18:16Z</time>
      </trkpt>
      <trkpt lat="43.1256" lon="-0.23341">
        <ele>327.47</ele>
        <time>2021-08-19T19:18:17Z</time>
      </trkpt>
      <trkpt lat="43.12555" lon="-0.23344">
        <ele>327.47</ele>
        <time>2021-08-19T19:18:18Z</time>
      </trkpt>
      <trkpt lat="43.1255" lon="-0.23347">
        <ele>327.47</ele>
        <time>2021-08-19T19:18:19Z</time>
      </trkpt>
      <trkpt lat="43.12546" lon="-0.23351">
        <ele>327.47</ele>
        <time>2021-08-19T19:18:20Z</time>
      </trkpt>
      <trkpt lat="43.12542" lon="-0.23355">
        <ele>327.47</ele>
        <time>2021-08-19T19:18:21Z</time>
      </trkpt>
      <trkpt lat="43.1253" lon="-0.23372">
        <ele>327.47</ele>
        <time>2021-08-19T19:18:25Z</time>
      </trkpt>
      <trkpt lat="43.12529" lon="-0.23377">
        <ele>327.47</ele>
        <time>2021-08-19T19:18:26Z</time>
      </trkpt>
      <trkpt lat="43.12529" lon="-0.23382">
        <ele>327.47</ele>
        <time>2021-08-19T19:18:27Z</time>
      </trkpt>
      <trkpt lat="43.1253" lon="-0.23387">
        <ele>327.47</ele>
        <time>2021-08-19T19:18:28Z</time>
      </trkpt>
      <trkpt lat="43.12531" lon="-0.23392">
        <ele>327.47</ele>
        <time>2021-08-19T19:18:29Z</time>
      </trkpt>
      <trkpt lat="43.12533" lon="-0.23396">
        <ele>327.47</ele>
        <time>2021-08-19T19:18:30Z</time>
      </trkpt>
      <trkpt lat="43.12541" lon="-0.23419">
        <ele>328.91</ele>
        <time>2021-08-19T19:18:36Z</time>
      </trkpt>
      <trkpt lat="43.12548" lon="-0.2344">
        <ele>330.35</ele>
        <time>2021-08-19T19:18:43Z</time>
      </trkpt>
      <trkpt lat="43.12548" lon="-0.23442">
        <ele>330.83</ele>
        <time>2021-08-19T19:18:44Z</time>
      </trkpt>
      <trkpt lat="43.12548" lon="-0.23444">
        <ele>330.83</ele>
        <time>2021-08-19T19:18:45Z</time>
      </trkpt>
      <trkpt lat="43.12545" lon="-0.23457">
        <ele>332.27</ele>
        <time>2021-08-19T19:18:53Z</time>
      </trkpt>
      <trkpt lat="43.12543" lon="-0.23468">
        <ele>333.71</ele>
        <time>2021-08-19T19:19:00Z</time>
      </trkpt>
      <trkpt lat="43.12543" lon="-0.2347">
        <ele>334.2</ele>
        <time>2021-08-19T19:19:01Z</time>
      </trkpt>
      <trkpt lat="43.12542" lon="-0.23475">
        <ele>334.68</ele>
        <time>2021-08-19T19:19:07Z</time>
      </trkpt>
      <trkpt lat="43.12542" lon="-0.23479">
        <ele>335.64</ele>
        <time>2021-08-19T19:19:14Z</time>
      </trkpt>
      <trkpt lat="43.1254" lon="-0.23486">
        <ele>335.64</ele>
        <time>2021-08-19T19:19:22Z</time>
      </trkpt>
      <trkpt lat="43.12537" lon="-0.23502">
        <ele>338.52</ele>
        <time>2021-08-19T19:19:34Z</time>
      </trkpt>
      <trkpt lat="43.12533" lon="-0.23518">
        <ele>340.44</ele>
        <time>2021-08-19T19:19:46Z</time>
      </trkpt>
      <trkpt lat="43.12529" lon="-0.23532">
        <ele>342.37</ele>
        <time>2021-08-19T19:19:56Z</time>
      </trkpt>
      <trkpt lat="43.12526" lon="-0.23546">
        <ele>344.29</ele>
        <time>2021-08-19T19:20:06Z</time>
      </trkpt>
      <trkpt lat="43.12523" lon="-0.23559">
        <ele>345.25</ele>
        <time>2021-08-19T19:20:15Z</time>
      </trkpt>
      <trkpt lat="43.12522" lon="-0.23563">
        <ele>345.73</ele>
        <time>2021-08-19T19:20:18Z</time>
      </trkpt>
      <trkpt lat="43.12521" lon="-0.23565">
        <ele>345.73</ele>
        <time>2021-08-19T19:20:19Z</time>
      </trkpt>
      <trkpt lat="43.12521" lon="-0.23566">
        <ele>346.21</ele>
        <time>2021-08-19T19:20:20Z</time>
      </trkpt>
      <trkpt lat="43.1252" lon="-0.23568">
        <ele>346.21</ele>
        <time>2021-08-19T19:20:21Z</time>
      </trkpt>
      <trkpt lat="43.1252" lon="-0.23569">
        <ele>346.69</ele>
        <time>2021-08-19T19:20:22Z</time>
      </trkpt>
      <trkpt lat="43.12517" lon="-0.23584">
        <ele>348.13</ele>
        <time>2021-08-19T19:20:32Z</time>
      </trkpt>
      <trkpt lat="43.12516" lon="-0.23585">
        <ele>348.13</ele>
        <time>2021-08-19T19:20:33Z</time>
      </trkpt>
      <trkpt lat="43.12516" lon="-0.23587">
        <ele>348.62</ele>
        <time>2021-08-19T19:20:34Z</time>
      </trkpt>
      <trkpt lat="43.12516" lon="-0.23589">
        <ele>348.62</ele>
        <time>2021-08-19T19:20:35Z</time>
      </trkpt>
      <trkpt lat="43.12516" lon="-0.23594">
        <ele>349.1</ele>
        <time>2021-08-19T19:20:38Z</time>
      </trkpt>
      <trkpt lat="43.12515" lon="-0.23595">
        <ele>349.1</ele>
        <time>2021-08-19T19:20:39Z</time>
      </trkpt>
      <trkpt lat="43.12513" lon="-0.23613">
        <ele>351.02</ele>
        <time>2021-08-19T19:20:51Z</time>
      </trkpt>
      <trkpt lat="43.1251" lon="-0.23631">
        <ele>353.42</ele>
        <time>2021-08-19T19:21:04Z</time>
      </trkpt>
      <trkpt lat="43.1251" lon="-0.23646">
        <ele>354.86</ele>
        <time>2021-08-19T19:21:14Z</time>
      </trkpt>
      <trkpt lat="43.1251" lon="-0.23662">
        <ele>357.27</ele>
        <time>2021-08-19T19:21:24Z</time>
      </trkpt>
      <trkpt lat="43.12511" lon="-0.23665">
        <ele>357.27</ele>
        <time>2021-08-19T19:21:30Z</time>
      </trkpt>
      <trkpt lat="43.12512" lon="-0.23678">
        <ele>358.23</ele>
        <time>2021-08-19T19:21:37Z</time>
      </trkpt>
      <trkpt lat="43.12514" lon="-0.23695">
        <ele>359.19</ele>
        <time>2021-08-19T19:21:46Z</time>
      </trkpt>
      <trkpt lat="43.12515" lon="-0.2372">
        <ele>360.63</ele>
        <time>2021-08-19T19:21:56Z</time>
      </trkpt>
      <trkpt lat="43.12517" lon="-0.23732">
        <ele>361.11</ele>
        <time>2021-08-19T19:22:01Z</time>
      </trkpt>
      <trkpt lat="43.12518" lon="-0.23735">
        <ele>361.11</ele>
        <time>2021-08-19T19:22:02Z</time>
      </trkpt>
      <trkpt lat="43.12518" lon="-0.23738">
        <ele>361.59</ele>
        <time>2021-08-19T19:22:03Z</time>
      </trkpt>
      <trkpt lat="43.12519" lon="-0.2374">
        <ele>361.59</ele>
        <time>2021-08-19T19:22:04Z</time>
      </trkpt>
      <trkpt lat="43.12519" lon="-0.23743">
        <ele>361.59</ele>
        <time>2021-08-19T19:22:05Z</time>
      </trkpt>
      <trkpt lat="43.12521" lon="-0.23764">
        <ele>362.55</ele>
        <time>2021-08-19T19:22:13Z</time>
      </trkpt>
      <trkpt lat="43.12522" lon="-0.23784">
        <ele>363.04</ele>
        <time>2021-08-19T19:22:20Z</time>
      </trkpt>
      <trkpt lat="43.12525" lon="-0.2381">
        <ele>364</ele>
        <time>2021-08-19T19:22:29Z</time>
      </trkpt>
      <trkpt lat="43.12527" lon="-0.23841">
        <ele>364.48</ele>
        <time>2021-08-19T19:22:39Z</time>
      </trkpt>
      <trkpt lat="43.12531" lon="-0.23869">
        <ele>364.96</ele>
        <time>2021-08-19T19:22:47Z</time>
      </trkpt>
      <trkpt lat="43.12537" lon="-0.23919">
        <ele>364.96</ele>
        <time>2021-08-19T19:22:57Z</time>
      </trkpt>
      <trkpt lat="43.12544" lon="-0.2397">
        <ele>366.88</ele>
        <time>2021-08-19T19:23:08Z</time>
      </trkpt>
      <trkpt lat="43.12549" lon="-0.24005">
        <ele>368.32</ele>
        <time>2021-08-19T19:23:16Z</time>
      </trkpt>
      <trkpt lat="43.12555" lon="-0.24048">
        <ele>369.28</ele>
        <time>2021-08-19T19:23:26Z</time>
      </trkpt>
      <trkpt lat="43.12558" lon="-0.24088">
        <ele>370.73</ele>
        <time>2021-08-19T19:23:36Z</time>
      </trkpt>
      <trkpt lat="43.1255" lon="-0.24116">
        <ele>369.28</ele>
        <time>2021-08-19T19:23:43Z</time>
      </trkpt>
      <trkpt lat="43.12537" lon="-0.24153">
        <ele>365.92</ele>
        <time>2021-08-19T19:23:49Z</time>
      </trkpt>
      <trkpt lat="43.12527" lon="-0.24189">
        <ele>362.55</ele>
        <time>2021-08-19T19:23:54Z</time>
      </trkpt>
      <trkpt lat="43.12521" lon="-0.24206">
        <ele>362.07</ele>
        <time>2021-08-19T19:23:56Z</time>
      </trkpt>
      <trkpt lat="43.1249" lon="-0.24268">
        <ele>360.63</ele>
        <time>2021-08-19T19:24:04Z</time>
      </trkpt>
      <trkpt lat="43.12476" lon="-0.2429">
        <ele>361.11</ele>
        <time>2021-08-19T19:24:08Z</time>
      </trkpt>
      <trkpt lat="43.12473" lon="-0.24295">
        <ele>362.55</ele>
        <time>2021-08-19T19:24:09Z</time>
      </trkpt>
      <trkpt lat="43.12457" lon="-0.2433">
        <ele>360.15</ele>
        <time>2021-08-19T19:24:16Z</time>
      </trkpt>
      <trkpt lat="43.12447" lon="-0.24354">
        <ele>356.79</ele>
        <time>2021-08-19T19:24:19Z</time>
      </trkpt>
      <trkpt lat="43.1242" lon="-0.2441">
        <ele>354.86</ele>
        <time>2021-08-19T19:24:26Z</time>
      </trkpt>
      <trkpt lat="43.12399" lon="-0.24443">
        <ele>351.02</ele>
        <time>2021-08-19T19:24:31Z</time>
      </trkpt>
      <trkpt lat="43.12394" lon="-0.24449">
        <ele>350.54</ele>
        <time>2021-08-19T19:24:32Z</time>
      </trkpt>
      <trkpt lat="43.12388" lon="-0.24455">
        <ele>350.06</ele>
        <time>2021-08-19T19:24:33Z</time>
      </trkpt>
      <trkpt lat="43.12382" lon="-0.24459">
        <ele>349.58</ele>
        <time>2021-08-19T19:24:34Z</time>
      </trkpt>
      <trkpt lat="43.12376" lon="-0.24463">
        <ele>349.1</ele>
        <time>2021-08-19T19:24:35Z</time>
      </trkpt>
      <trkpt lat="43.1237" lon="-0.24466">
        <ele>349.1</ele>
        <time>2021-08-19T19:24:36Z</time>
      </trkpt>
      <trkpt lat="43.12365" lon="-0.2447">
        <ele>348.62</ele>
        <time>2021-08-19T19:24:37Z</time>
      </trkpt>
      <trkpt lat="43.1236" lon="-0.24474">
        <ele>348.62</ele>
        <time>2021-08-19T19:24:38Z</time>
      </trkpt>
      <trkpt lat="43.12353" lon="-0.24483">
        <ele>348.62</ele>
        <time>2021-08-19T19:24:40Z</time>
      </trkpt>
      <trkpt lat="43.12351" lon="-0.24488">
        <ele>348.62</ele>
        <time>2021-08-19T19:24:41Z</time>
      </trkpt>
      <trkpt lat="43.12345" lon="-0.245">
        <ele>348.13</ele>
        <time>2021-08-19T19:24:43Z</time>
      </trkpt>
      <trkpt lat="43.12327" lon="-0.24527">
        <ele>344.77</ele>
        <time>2021-08-19T19:24:48Z</time>
      </trkpt>
      <trkpt lat="43.12305" lon="-0.24555">
        <ele>341.89</ele>
        <time>2021-08-19T19:24:53Z</time>
      </trkpt>
      <trkpt lat="43.12297" lon="-0.24568">
        <ele>340.44</ele>
        <time>2021-08-19T19:24:55Z</time>
      </trkpt>
      <trkpt lat="43.12294" lon="-0.24575">
        <ele>340.44</ele>
        <time>2021-08-19T19:24:56Z</time>
      </trkpt>
      <trkpt lat="43.12292" lon="-0.24581">
        <ele>339.48</ele>
        <time>2021-08-19T19:24:57Z</time>
      </trkpt>
      <trkpt lat="43.12284" lon="-0.24601">
        <ele>339</ele>
        <time>2021-08-19T19:25:00Z</time>
      </trkpt>
      <trkpt lat="43.12282" lon="-0.24607">
        <ele>339</ele>
        <time>2021-08-19T19:25:01Z</time>
      </trkpt>
      <trkpt lat="43.12279" lon="-0.24614">
        <ele>338.04</ele>
        <time>2021-08-19T19:25:02Z</time>
      </trkpt>
      <trkpt lat="43.12276" lon="-0.2462">
        <ele>337.08</ele>
        <time>2021-08-19T19:25:03Z</time>
      </trkpt>
      <trkpt lat="43.12272" lon="-0.24626">
        <ele>336.6</ele>
        <time>2021-08-19T19:25:04Z</time>
      </trkpt>
      <trkpt lat="43.12268" lon="-0.24632">
        <ele>336.12</ele>
        <time>2021-08-19T19:25:05Z</time>
      </trkpt>
      <trkpt lat="43.12254" lon="-0.24651">
        <ele>335.16</ele>
        <time>2021-08-19T19:25:08Z</time>
      </trkpt>
      <trkpt lat="43.12233" lon="-0.24676">
        <ele>333.23</ele>
        <time>2021-08-19T19:25:13Z</time>
      </trkpt>
      <trkpt lat="43.12228" lon="-0.24679">
        <ele>333.23</ele>
        <time>2021-08-19T19:25:14Z</time>
      </trkpt>
      <trkpt lat="43.12213" lon="-0.24692">
        <ele>332.27</ele>
        <time>2021-08-19T19:25:17Z</time>
      </trkpt>
      <trkpt lat="43.12177" lon="-0.24722">
        <ele>330.83</ele>
        <time>2021-08-19T19:25:25Z</time>
      </trkpt>
      <trkpt lat="43.12156" lon="-0.24731">
        <ele>329.39</ele>
        <time>2021-08-19T19:25:31Z</time>
      </trkpt>
      <trkpt lat="43.12153" lon="-0.24732">
        <ele>328.43</ele>
        <time>2021-08-19T19:25:34Z</time>
      </trkpt>
      <trkpt lat="43.12153" lon="-0.24734">
        <ele>328.43</ele>
        <time>2021-08-19T19:25:35Z</time>
      </trkpt>
      <trkpt lat="43.12154" lon="-0.24734">
        <ele>328.43</ele>
        <time>2021-08-19T19:25:36Z</time>
      </trkpt>
      <trkpt lat="43.12155" lon="-0.24734">
        <ele>328.43</ele>
        <time>2021-08-19T19:25:37Z</time>
      </trkpt>
      <trkpt lat="43.12157" lon="-0.24734">
        <ele>328.43</ele>
        <time>2021-08-19T19:25:38Z</time>
      </trkpt>
      <trkpt lat="43.12176" lon="-0.24728">
        <ele>326.99</ele>
        <time>2021-08-19T19:25:44Z</time>
      </trkpt>
      <trkpt lat="43.12197" lon="-0.24716">
        <ele>325.54</ele>
        <time>2021-08-19T19:25:50Z</time>
      </trkpt>
      <trkpt lat="43.12208" lon="-0.24707">
        <ele>324.58</ele>
        <time>2021-08-19T19:25:53Z</time>
      </trkpt>
      <trkpt lat="43.12213" lon="-0.24704">
        <ele>324.58</ele>
        <time>2021-08-19T19:25:54Z</time>
      </trkpt>
      <trkpt lat="43.12216" lon="-0.24701">
        <ele>324.58</ele>
        <time>2021-08-19T19:25:55Z</time>
      </trkpt>
      <trkpt lat="43.12238" lon="-0.24687">
        <ele>324.1</ele>
        <time>2021-08-19T19:26:01Z</time>
      </trkpt>
      <trkpt lat="43.12264" lon="-0.24667">
        <ele>324.58</ele>
        <time>2021-08-19T19:26:08Z</time>
      </trkpt>
      <trkpt lat="43.12292" lon="-0.2465">
        <ele>322.66</ele>
        <time>2021-08-19T19:26:15Z</time>
      </trkpt>
      <trkpt lat="43.12324" lon="-0.24639">
        <ele>321.22</ele>
        <time>2021-08-19T19:26:21Z</time>
      </trkpt>
      <trkpt lat="43.1233" lon="-0.24639">
        <ele>321.22</ele>
        <time>2021-08-19T19:26:22Z</time>
      </trkpt>
      <trkpt lat="43.12335" lon="-0.24639">
        <ele>320.26</ele>
        <time>2021-08-19T19:26:23Z</time>
      </trkpt>
      <trkpt lat="43.12342" lon="-0.2464">
        <ele>320.26</ele>
        <time>2021-08-19T19:26:24Z</time>
      </trkpt>
      <trkpt lat="43.12348" lon="-0.24642">
        <ele>319.78</ele>
        <time>2021-08-19T19:26:25Z</time>
      </trkpt>
      <trkpt lat="43.12354" lon="-0.24645">
        <ele>319.78</ele>
        <time>2021-08-19T19:26:26Z</time>
      </trkpt>
      <trkpt lat="43.12359" lon="-0.24648">
        <ele>319.78</ele>
        <time>2021-08-19T19:26:27Z</time>
      </trkpt>
      <trkpt lat="43.12364" lon="-0.24652">
        <ele>319.78</ele>
        <time>2021-08-19T19:26:28Z</time>
      </trkpt>
      <trkpt lat="43.12395" lon="-0.24681">
        <ele>318.81</ele>
        <time>2021-08-19T19:26:34Z</time>
      </trkpt>
      <trkpt lat="43.12419" lon="-0.24725">
        <ele>317.85</ele>
        <time>2021-08-19T19:26:41Z</time>
      </trkpt>
      <trkpt lat="43.12421" lon="-0.24731">
        <ele>317.85</ele>
        <time>2021-08-19T19:26:42Z</time>
      </trkpt>
      <trkpt lat="43.12433" lon="-0.24772">
        <ele>317.85</ele>
        <time>2021-08-19T19:26:49Z</time>
      </trkpt>
      <trkpt lat="43.12444" lon="-0.24811">
        <ele>317.37</ele>
        <time>2021-08-19T19:26:57Z</time>
      </trkpt>
      <trkpt lat="43.12455" lon="-0.24845">
        <ele>317.37</ele>
        <time>2021-08-19T19:27:04Z</time>
      </trkpt>
      <trkpt lat="43.12463" lon="-0.24863">
        <ele>318.81</ele>
        <time>2021-08-19T19:27:09Z</time>
      </trkpt>
      <trkpt lat="43.12482" lon="-0.24888">
        <ele>318.81</ele>
        <time>2021-08-19T19:27:18Z</time>
      </trkpt>
      <trkpt lat="43.12504" lon="-0.24903">
        <ele>318.81</ele>
        <time>2021-08-19T19:27:26Z</time>
      </trkpt>
      <trkpt lat="43.12524" lon="-0.24908">
        <ele>318.81</ele>
        <time>2021-08-19T19:27:33Z</time>
      </trkpt>
      <trkpt lat="43.12549" lon="-0.24912">
        <ele>318.81</ele>
        <time>2021-08-19T19:27:40Z</time>
      </trkpt>
      <trkpt lat="43.12573" lon="-0.24915">
        <ele>318.81</ele>
        <time>2021-08-19T19:27:47Z</time>
      </trkpt>
      <trkpt lat="43.12593" lon="-0.24917">
        <ele>318.81</ele>
        <time>2021-08-19T19:27:53Z</time>
      </trkpt>
      <trkpt lat="43.12614" lon="-0.24916">
        <ele>318.81</ele>
        <time>2021-08-19T19:27:59Z</time>
      </trkpt>
      <trkpt lat="43.12643" lon="-0.24917">
        <ele>317.85</ele>
        <time>2021-08-19T19:28:05Z</time>
      </trkpt>
      <trkpt lat="43.12677" lon="-0.24917">
        <ele>317.85</ele>
        <time>2021-08-19T19:28:13Z</time>
      </trkpt>
      <trkpt lat="43.12702" lon="-0.24917">
        <ele>317.85</ele>
        <time>2021-08-19T19:28:20Z</time>
      </trkpt>
      <trkpt lat="43.12726" lon="-0.24917">
        <ele>317.85</ele>
        <time>2021-08-19T19:28:27Z</time>
      </trkpt>
      <trkpt lat="43.12753" lon="-0.24917">
        <ele>317.85</ele>
        <time>2021-08-19T19:28:35Z</time>
      </trkpt>
      <trkpt lat="43.12775" lon="-0.24918">
        <ele>317.37</ele>
        <time>2021-08-19T19:28:43Z</time>
      </trkpt>
      <trkpt lat="43.12802" lon="-0.24918">
        <ele>316.89</ele>
        <time>2021-08-19T19:28:52Z</time>
      </trkpt>
      <trkpt lat="43.12829" lon="-0.24916">
        <ele>316.41</ele>
        <time>2021-08-19T19:29:00Z</time>
      </trkpt>
      <trkpt lat="43.12849" lon="-0.24915">
        <ele>315.93</ele>
        <time>2021-08-19T19:29:06Z</time>
      </trkpt>
      <trkpt lat="43.12867" lon="-0.24917">
        <ele>315.45</ele>
        <time>2021-08-19T19:29:12Z</time>
      </trkpt>
      <trkpt lat="43.12891" lon="-0.24918">
        <ele>314.97</ele>
        <time>2021-08-19T19:29:19Z</time>
      </trkpt>
      <trkpt lat="43.1291" lon="-0.24918">
        <ele>314.97</ele>
        <time>2021-08-19T19:29:26Z</time>
      </trkpt>
      <trkpt lat="43.12932" lon="-0.24919">
        <ele>314.97</ele>
        <time>2021-08-19T19:29:33Z</time>
      </trkpt>
      <trkpt lat="43.1296" lon="-0.2492">
        <ele>314.97</ele>
        <time>2021-08-19T19:29:41Z</time>
      </trkpt>
      <trkpt lat="43.12983" lon="-0.24919">
        <ele>315.45</ele>
        <time>2021-08-19T19:29:48Z</time>
      </trkpt>
      <trkpt lat="43.13005" lon="-0.24922">
        <ele>315.45</ele>
        <time>2021-08-19T19:29:54Z</time>
      </trkpt>
      <trkpt lat="43.13037" lon="-0.24919">
        <ele>315.45</ele>
        <time>2021-08-19T19:30:01Z</time>
      </trkpt>
      <trkpt lat="43.13065" lon="-0.24916">
        <ele>315.45</ele>
        <time>2021-08-19T19:30:08Z</time>
      </trkpt>
      <trkpt lat="43.13092" lon="-0.24911">
        <ele>315.45</ele>
        <time>2021-08-19T19:30:15Z</time>
      </trkpt>
      <trkpt lat="43.13115" lon="-0.24906">
        <ele>315.45</ele>
        <time>2021-08-19T19:30:21Z</time>
      </trkpt>
      <trkpt lat="43.13144" lon="-0.24902">
        <ele>315.93</ele>
        <time>2021-08-19T19:30:29Z</time>
      </trkpt>
      <trkpt lat="43.13162" lon="-0.24902">
        <ele>315.93</ele>
        <time>2021-08-19T19:30:34Z</time>
      </trkpt>
      <trkpt lat="43.13184" lon="-0.249">
        <ele>315.93</ele>
        <time>2021-08-19T19:30:40Z</time>
      </trkpt>
      <trkpt lat="43.13214" lon="-0.24898">
        <ele>315.93</ele>
        <time>2021-08-19T19:30:47Z</time>
      </trkpt>
      <trkpt lat="43.1324" lon="-0.24896">
        <ele>315.93</ele>
        <time>2021-08-19T19:30:53Z</time>
      </trkpt>
      <trkpt lat="43.13244" lon="-0.24896">
        <ele>315.93</ele>
        <time>2021-08-19T19:30:54Z</time>
      </trkpt>
      <trkpt lat="43.13248" lon="-0.24896">
        <ele>315.45</ele>
        <time>2021-08-19T19:30:55Z</time>
      </trkpt>
      <trkpt lat="43.13253" lon="-0.24895">
        <ele>315.45</ele>
        <time>2021-08-19T19:30:56Z</time>
      </trkpt>
      <trkpt lat="43.13257" lon="-0.24894">
        <ele>315.45</ele>
        <time>2021-08-19T19:30:57Z</time>
      </trkpt>
      <trkpt lat="43.13286" lon="-0.24889">
        <ele>315.45</ele>
        <time>2021-08-19T19:31:04Z</time>
      </trkpt>
      <trkpt lat="43.13295" lon="-0.24888">
        <ele>315.45</ele>
        <time>2021-08-19T19:31:06Z</time>
      </trkpt>
      <trkpt lat="43.133" lon="-0.24887">
        <ele>314.49</ele>
        <time>2021-08-19T19:31:07Z</time>
      </trkpt>
      <trkpt lat="43.13304" lon="-0.24887">
        <ele>314.97</ele>
        <time>2021-08-19T19:31:08Z</time>
      </trkpt>
      <trkpt lat="43.1333" lon="-0.24886">
        <ele>314.97</ele>
        <time>2021-08-19T19:31:15Z</time>
      </trkpt>
      <trkpt lat="43.1335" lon="-0.2489">
        <ele>314.97</ele>
        <time>2021-08-19T19:31:20Z</time>
      </trkpt>
      <trkpt lat="43.13391" lon="-0.24898">
        <ele>314.97</ele>
        <time>2021-08-19T19:31:30Z</time>
      </trkpt>
      <trkpt lat="43.13399" lon="-0.24899">
        <ele>314.97</ele>
        <time>2021-08-19T19:31:32Z</time>
      </trkpt>
      <trkpt lat="43.13421" lon="-0.24898">
        <ele>314.97</ele>
        <time>2021-08-19T19:31:37Z</time>
      </trkpt>
      <trkpt lat="43.13425" lon="-0.24898">
        <ele>314.97</ele>
        <time>2021-08-19T19:31:38Z</time>
      </trkpt>
      <trkpt lat="43.1343" lon="-0.24899">
        <ele>314.97</ele>
        <time>2021-08-19T19:31:39Z</time>
      </trkpt>
      <trkpt lat="43.13434" lon="-0.24898">
        <ele>314.97</ele>
        <time>2021-08-19T19:31:40Z</time>
      </trkpt>
      <trkpt lat="43.13439" lon="-0.24898">
        <ele>315.45</ele>
        <time>2021-08-19T19:31:41Z</time>
      </trkpt>
      <trkpt lat="43.13443" lon="-0.24898">
        <ele>315.45</ele>
        <time>2021-08-19T19:31:42Z</time>
      </trkpt>
      <trkpt lat="43.13461" lon="-0.24899">
        <ele>315.45</ele>
        <time>2021-08-19T19:31:46Z</time>
      </trkpt>
      <trkpt lat="43.13471" lon="-0.24899">
        <ele>315.45</ele>
        <time>2021-08-19T19:31:48Z</time>
      </trkpt>
      <trkpt lat="43.13475" lon="-0.24898">
        <ele>315.45</ele>
        <time>2021-08-19T19:31:49Z</time>
      </trkpt>
      <trkpt lat="43.1348" lon="-0.24898">
        <ele>315.45</ele>
        <time>2021-08-19T19:31:50Z</time>
      </trkpt>
      <trkpt lat="43.13484" lon="-0.24898">
        <ele>315.45</ele>
        <time>2021-08-19T19:31:51Z</time>
      </trkpt>
      <trkpt lat="43.13489" lon="-0.24899">
        <ele>315.45</ele>
        <time>2021-08-19T19:31:52Z</time>
      </trkpt>
      <trkpt lat="43.13523" lon="-0.24904">
        <ele>314.49</ele>
        <time>2021-08-19T19:32:00Z</time>
      </trkpt>
      <trkpt lat="43.13547" lon="-0.24913">
        <ele>314.01</ele>
        <time>2021-08-19T19:32:05Z</time>
      </trkpt>
      <trkpt lat="43.13566" lon="-0.2492">
        <ele>314.01</ele>
        <time>2021-08-19T19:32:09Z</time>
      </trkpt>
      <trkpt lat="43.1358" lon="-0.24926">
        <ele>314.01</ele>
        <time>2021-08-19T19:32:12Z</time>
      </trkpt>
      <trkpt lat="43.13592" lon="-0.24931">
        <ele>314.01</ele>
        <time>2021-08-19T19:32:15Z</time>
      </trkpt>
      <trkpt lat="43.13622" lon="-0.24941">
        <ele>314.01</ele>
        <time>2021-08-19T19:32:21Z</time>
      </trkpt>
      <trkpt lat="43.13658" lon="-0.2495">
        <ele>312.57</ele>
        <time>2021-08-19T19:32:28Z</time>
      </trkpt>
      <trkpt lat="43.1368" lon="-0.24947">
        <ele>312.09</ele>
        <time>2021-08-19T19:32:32Z</time>
      </trkpt>
      <trkpt lat="43.13703" lon="-0.2494">
        <ele>310.64</ele>
        <time>2021-08-19T19:32:38Z</time>
      </trkpt>
      <trkpt lat="43.13726" lon="-0.24933">
        <ele>309.68</ele>
        <time>2021-08-19T19:32:44Z</time>
      </trkpt>
      <trkpt lat="43.13755" lon="-0.24924">
        <ele>308.72</ele>
        <time>2021-08-19T19:32:52Z</time>
      </trkpt>
      <trkpt lat="43.1378" lon="-0.24917">
        <ele>308.24</ele>
        <time>2021-08-19T19:32:59Z</time>
      </trkpt>
      <trkpt lat="43.13804" lon="-0.24911">
        <ele>308.24</ele>
        <time>2021-08-19T19:33:06Z</time>
      </trkpt>
      <trkpt lat="43.1383" lon="-0.2491">
        <ele>308.24</ele>
        <time>2021-08-19T19:33:13Z</time>
      </trkpt>
      <trkpt lat="43.13853" lon="-0.24915">
        <ele>307.76</ele>
        <time>2021-08-19T19:33:19Z</time>
      </trkpt>
      <trkpt lat="43.13884" lon="-0.24927">
        <ele>307.28</ele>
        <time>2021-08-19T19:33:27Z</time>
      </trkpt>
      <trkpt lat="43.139" lon="-0.24935">
        <ele>307.28</ele>
        <time>2021-08-19T19:33:31Z</time>
      </trkpt>
      <trkpt lat="43.13904" lon="-0.24938">
        <ele>307.28</ele>
        <time>2021-08-19T19:33:32Z</time>
      </trkpt>
      <trkpt lat="43.13917" lon="-0.24946">
        <ele>306.8</ele>
        <time>2021-08-19T19:33:35Z</time>
      </trkpt>
      <trkpt lat="43.13921" lon="-0.24949">
        <ele>306.8</ele>
        <time>2021-08-19T19:33:36Z</time>
      </trkpt>
      <trkpt lat="43.13954" lon="-0.24982">
        <ele>306.32</ele>
        <time>2021-08-19T19:33:46Z</time>
      </trkpt>
      <trkpt lat="43.13958" lon="-0.24985">
        <ele>306.32</ele>
        <time>2021-08-19T19:33:47Z</time>
      </trkpt>
      <trkpt lat="43.13965" lon="-0.24992">
        <ele>306.32</ele>
        <time>2021-08-19T19:33:49Z</time>
      </trkpt>
      <trkpt lat="43.13974" lon="-0.25002">
        <ele>306.32</ele>
        <time>2021-08-19T19:33:52Z</time>
      </trkpt>
      <trkpt lat="43.13977" lon="-0.25006">
        <ele>306.32</ele>
        <time>2021-08-19T19:33:53Z</time>
      </trkpt>
      <trkpt lat="43.13998" lon="-0.25028">
        <ele>306.32</ele>
        <time>2021-08-19T19:34:00Z</time>
      </trkpt>
      <trkpt lat="43.14026" lon="-0.25042">
        <ele>305.84</ele>
        <time>2021-08-19T19:34:07Z</time>
      </trkpt>
      <trkpt lat="43.14031" lon="-0.25043">
        <ele>305.84</ele>
        <time>2021-08-19T19:34:08Z</time>
      </trkpt>
      <trkpt lat="43.14035" lon="-0.25043">
        <ele>305.84</ele>
        <time>2021-08-19T19:34:09Z</time>
      </trkpt>
      <trkpt lat="43.14039" lon="-0.25044">
        <ele>305.84</ele>
        <time>2021-08-19T19:34:10Z</time>
      </trkpt>
      <trkpt lat="43.14043" lon="-0.25045">
        <ele>305.84</ele>
        <time>2021-08-19T19:34:11Z</time>
      </trkpt>
      <trkpt lat="43.14047" lon="-0.25045">
        <ele>305.84</ele>
        <time>2021-08-19T19:34:12Z</time>
      </trkpt>
      <trkpt lat="43.14051" lon="-0.25045">
        <ele>305.84</ele>
        <time>2021-08-19T19:34:13Z</time>
      </trkpt>
      <trkpt lat="43.14055" lon="-0.25044">
        <ele>305.84</ele>
        <time>2021-08-19T19:34:14Z</time>
      </trkpt>
      <trkpt lat="43.14059" lon="-0.25043">
        <ele>305.84</ele>
        <time>2021-08-19T19:34:15Z</time>
      </trkpt>
      <trkpt lat="43.14063" lon="-0.25042">
        <ele>305.84</ele>
        <time>2021-08-19T19:34:16Z</time>
      </trkpt>
      <trkpt lat="43.14065" lon="-0.25044">
        <ele>305.84</ele>
        <time>2021-08-19T19:34:17Z</time>
      </trkpt>
      <trkpt lat="43.14068" lon="-0.25046">
        <ele>306.8</ele>
        <time>2021-08-19T19:34:18Z</time>
      </trkpt>
      <trkpt lat="43.14069" lon="-0.2505">
        <ele>306.8</ele>
        <time>2021-08-19T19:34:19Z</time>
      </trkpt>
      <trkpt lat="43.1407" lon="-0.25054">
        <ele>306.8</ele>
        <time>2021-08-19T19:34:20Z</time>
      </trkpt>
      <trkpt lat="43.1407" lon="-0.25058">
        <ele>306.8</ele>
        <time>2021-08-19T19:34:21Z</time>
      </trkpt>
      <trkpt lat="43.14069" lon="-0.25063">
        <ele>306.8</ele>
        <time>2021-08-19T19:34:22Z</time>
      </trkpt>
      <trkpt lat="43.14068" lon="-0.25068">
        <ele>306.8</ele>
        <time>2021-08-19T19:34:23Z</time>
      </trkpt>
      <trkpt lat="43.14063" lon="-0.25131">
        <ele>306.8</ele>
        <time>2021-08-19T19:34:34Z</time>
      </trkpt>
      <trkpt lat="43.14059" lon="-0.25207">
        <ele>305.36</ele>
        <time>2021-08-19T19:34:46Z</time>
      </trkpt>
      <trkpt lat="43.14059" lon="-0.25252">
        <ele>305.36</ele>
        <time>2021-08-19T19:34:54Z</time>
      </trkpt>
      <trkpt lat="43.14059" lon="-0.25274">
        <ele>307.28</ele>
        <time>2021-08-19T19:35:01Z</time>
      </trkpt>
      <trkpt lat="43.14061" lon="-0.25294">
        <ele>309.2</ele>
        <time>2021-08-19T19:35:10Z</time>
      </trkpt>
      <trkpt lat="43.14063" lon="-0.25309">
        <ele>310.16</ele>
        <time>2021-08-19T19:35:19Z</time>
      </trkpt>
      <trkpt lat="43.14063" lon="-0.25311">
        <ele>310.64</ele>
        <time>2021-08-19T19:35:20Z</time>
      </trkpt>
      <trkpt lat="43.14066" lon="-0.25324">
        <ele>312.09</ele>
        <time>2021-08-19T19:35:28Z</time>
      </trkpt>
      <trkpt lat="43.1407" lon="-0.25337">
        <ele>313.53</ele>
        <time>2021-08-19T19:35:36Z</time>
      </trkpt>
      <trkpt lat="43.14073" lon="-0.25348">
        <ele>314.01</ele>
        <time>2021-08-19T19:35:42Z</time>
      </trkpt>
      <trkpt lat="43.14073" lon="-0.2535">
        <ele>314.01</ele>
        <time>2021-08-19T19:35:43Z</time>
      </trkpt>
      <trkpt lat="43.14072" lon="-0.25352">
        <ele>314.49</ele>
        <time>2021-08-19T19:35:44Z</time>
      </trkpt>
      <trkpt lat="43.14072" lon="-0.25355">
        <ele>314.49</ele>
        <time>2021-08-19T19:35:46Z</time>
      </trkpt>
      <trkpt lat="43.14073" lon="-0.25356">
        <ele>314.97</ele>
        <time>2021-08-19T19:35:47Z</time>
      </trkpt>
      <trkpt lat="43.14073" lon="-0.25358">
        <ele>314.97</ele>
        <time>2021-08-19T19:35:48Z</time>
      </trkpt>
      <trkpt lat="43.14074" lon="-0.2536">
        <ele>314.97</ele>
        <time>2021-08-19T19:35:49Z</time>
      </trkpt>
      <trkpt lat="43.14073" lon="-0.25361">
        <ele>315.45</ele>
        <time>2021-08-19T19:35:50Z</time>
      </trkpt>
      <trkpt lat="43.14073" lon="-0.25363">
        <ele>315.45</ele>
        <time>2021-08-19T19:35:51Z</time>
      </trkpt>
      <trkpt lat="43.14073" lon="-0.25365">
        <ele>315.45</ele>
        <time>2021-08-19T19:35:52Z</time>
      </trkpt>
      <trkpt lat="43.14073" lon="-0.25367">
        <ele>315.45</ele>
        <time>2021-08-19T19:35:53Z</time>
      </trkpt>
      <trkpt lat="43.14073" lon="-0.25369">
        <ele>316.41</ele>
        <time>2021-08-19T19:35:54Z</time>
      </trkpt>
      <trkpt lat="43.14073" lon="-0.25371">
        <ele>316.41</ele>
        <time>2021-08-19T19:35:55Z</time>
      </trkpt>
      <trkpt lat="43.14072" lon="-0.25385">
        <ele>317.37</ele>
        <time>2021-08-19T19:36:03Z</time>
      </trkpt>
      <trkpt lat="43.1407" lon="-0.25393">
        <ele>317.85</ele>
        <time>2021-08-19T19:36:08Z</time>
      </trkpt>
      <trkpt lat="43.14069" lon="-0.25395">
        <ele>317.85</ele>
        <time>2021-08-19T19:36:09Z</time>
      </trkpt>
      <trkpt lat="43.14068" lon="-0.25396">
        <ele>317.85</ele>
        <time>2021-08-19T19:36:10Z</time>
      </trkpt>
      <trkpt lat="43.14068" lon="-0.25398">
        <ele>317.85</ele>
        <time>2021-08-19T19:36:11Z</time>
      </trkpt>
      <trkpt lat="43.14067" lon="-0.254">
        <ele>318.33</ele>
        <time>2021-08-19T19:36:12Z</time>
      </trkpt>
      <trkpt lat="43.14061" lon="-0.25416">
        <ele>319.78</ele>
        <time>2021-08-19T19:36:22Z</time>
      </trkpt>
      <trkpt lat="43.14057" lon="-0.25434">
        <ele>321.7</ele>
        <time>2021-08-19T19:36:32Z</time>
      </trkpt>
      <trkpt lat="43.14051" lon="-0.25449">
        <ele>322.66</ele>
        <time>2021-08-19T19:36:41Z</time>
      </trkpt>
      <trkpt lat="43.14044" lon="-0.25464">
        <ele>323.62</ele>
        <time>2021-08-19T19:36:49Z</time>
      </trkpt>
      <trkpt lat="43.14037" lon="-0.25485">
        <ele>324.58</ele>
        <time>2021-08-19T19:36:58Z</time>
      </trkpt>
      <trkpt lat="43.14038" lon="-0.25495">
        <ele>325.06</ele>
        <time>2021-08-19T19:37:02Z</time>
      </trkpt>
      <trkpt lat="43.14039" lon="-0.25497">
        <ele>325.06</ele>
        <time>2021-08-19T19:37:03Z</time>
      </trkpt>
      <trkpt lat="43.1404" lon="-0.25498">
        <ele>325.06</ele>
        <time>2021-08-19T19:37:04Z</time>
      </trkpt>
      <trkpt lat="43.14042" lon="-0.25499">
        <ele>325.06</ele>
        <time>2021-08-19T19:37:05Z</time>
      </trkpt>
      <trkpt lat="43.14044" lon="-0.255">
        <ele>325.06</ele>
        <time>2021-08-19T19:37:06Z</time>
      </trkpt>
      <trkpt lat="43.14046" lon="-0.25501">
        <ele>325.54</ele>
        <time>2021-08-19T19:37:07Z</time>
      </trkpt>
      <trkpt lat="43.14065" lon="-0.2551">
        <ele>325.54</ele>
        <time>2021-08-19T19:37:17Z</time>
      </trkpt>
      <trkpt lat="43.14067" lon="-0.2551">
        <ele>326.02</ele>
        <time>2021-08-19T19:37:18Z</time>
      </trkpt>
      <trkpt lat="43.14069" lon="-0.2551">
        <ele>326.02</ele>
        <time>2021-08-19T19:37:19Z</time>
      </trkpt>
      <trkpt lat="43.14072" lon="-0.25511">
        <ele>326.02</ele>
        <time>2021-08-19T19:37:20Z</time>
      </trkpt>
      <trkpt lat="43.14075" lon="-0.25512">
        <ele>326.02</ele>
        <time>2021-08-19T19:37:21Z</time>
      </trkpt>
      <trkpt lat="43.14076" lon="-0.25513">
        <ele>326.02</ele>
        <time>2021-08-19T19:37:22Z</time>
      </trkpt>
      <trkpt lat="43.14088" lon="-0.25521">
        <ele>326.5</ele>
        <time>2021-08-19T19:37:28Z</time>
      </trkpt>
      <trkpt lat="43.14104" lon="-0.25544">
        <ele>327.47</ele>
        <time>2021-08-19T19:37:37Z</time>
      </trkpt>
      <trkpt lat="43.1412" lon="-0.2557">
        <ele>327.95</ele>
        <time>2021-08-19T19:37:46Z</time>
      </trkpt>
      <trkpt lat="43.14141" lon="-0.25604">
        <ele>328.91</ele>
        <time>2021-08-19T19:37:57Z</time>
      </trkpt>
      <trkpt lat="43.1416" lon="-0.25639">
        <ele>329.87</ele>
        <time>2021-08-19T19:38:07Z</time>
      </trkpt>
      <trkpt lat="43.14178" lon="-0.2567">
        <ele>330.83</ele>
        <time>2021-08-19T19:38:16Z</time>
      </trkpt>
      <trkpt lat="43.14194" lon="-0.2568">
        <ele>331.31</ele>
        <time>2021-08-19T19:38:22Z</time>
      </trkpt>
      <trkpt lat="43.14198" lon="-0.25694">
        <ele>331.79</ele>
        <time>2021-08-19T19:38:27Z</time>
      </trkpt>
      <trkpt lat="43.142" lon="-0.25707">
        <ele>331.79</ele>
        <time>2021-08-19T19:38:32Z</time>
      </trkpt>
      <trkpt lat="43.14202" lon="-0.2571">
        <ele>331.79</ele>
        <time>2021-08-19T19:38:33Z</time>
      </trkpt>
      <trkpt lat="43.14204" lon="-0.25712">
        <ele>331.79</ele>
        <time>2021-08-19T19:38:34Z</time>
      </trkpt>
      <trkpt lat="43.14206" lon="-0.25714">
        <ele>331.79</ele>
        <time>2021-08-19T19:38:35Z</time>
      </trkpt>
      <trkpt lat="43.14208" lon="-0.25717">
        <ele>331.79</ele>
        <time>2021-08-19T19:38:36Z</time>
      </trkpt>
      <trkpt lat="43.14227" lon="-0.25736">
        <ele>331.79</ele>
        <time>2021-08-19T19:38:43Z</time>
      </trkpt>
      <trkpt lat="43.14249" lon="-0.2575">
        <ele>330.35</ele>
        <time>2021-08-19T19:38:50Z</time>
      </trkpt>
      <trkpt lat="43.1425" lon="-0.25754">
        <ele>330.35</ele>
        <time>2021-08-19T19:38:51Z</time>
      </trkpt>
      <trkpt lat="43.1425" lon="-0.25757">
        <ele>330.35</ele>
        <time>2021-08-19T19:38:52Z</time>
      </trkpt>
      <trkpt lat="43.14248" lon="-0.25759">
        <ele>330.35</ele>
        <time>2021-08-19T19:38:53Z</time>
      </trkpt>
      <trkpt lat="43.14246" lon="-0.2576">
        <ele>330.35</ele>
        <time>2021-08-19T19:38:54Z</time>
      </trkpt>
      <trkpt lat="43.14232" lon="-0.25772">
        <ele>330.35</ele>
        <time>2021-08-19T19:39:00Z</time>
      </trkpt>
      <trkpt lat="43.14206" lon="-0.25776">
        <ele>330.35</ele>
        <time>2021-08-19T19:39:08Z</time>
      </trkpt>
      <trkpt lat="43.14177" lon="-0.25781">
        <ele>331.79</ele>
        <time>2021-08-19T19:39:17Z</time>
      </trkpt>
      <trkpt lat="43.14153" lon="-0.25784">
        <ele>331.31</ele>
        <time>2021-08-19T19:39:24Z</time>
      </trkpt>
      <trkpt lat="43.14127" lon="-0.25785">
        <ele>331.79</ele>
        <time>2021-08-19T19:39:32Z</time>
      </trkpt>
      <trkpt lat="43.14107" lon="-0.25786">
        <ele>331.79</ele>
        <time>2021-08-19T19:39:39Z</time>
      </trkpt>
      <trkpt lat="43.14088" lon="-0.25798">
        <ele>332.27</ele>
        <time>2021-08-19T19:39:45Z</time>
      </trkpt>
      <trkpt lat="43.14079" lon="-0.25822">
        <ele>332.27</ele>
        <time>2021-08-19T19:39:51Z</time>
      </trkpt>
      <trkpt lat="43.14066" lon="-0.25857">
        <ele>332.75</ele>
        <time>2021-08-19T19:40:00Z</time>
      </trkpt>
      <trkpt lat="43.14051" lon="-0.25887">
        <ele>332.75</ele>
        <time>2021-08-19T19:40:08Z</time>
      </trkpt>
      <trkpt lat="43.14034" lon="-0.25907">
        <ele>333.23</ele>
        <time>2021-08-19T19:40:16Z</time>
      </trkpt>
      <trkpt lat="43.14009" lon="-0.25925">
        <ele>333.71</ele>
        <time>2021-08-19T19:40:25Z</time>
      </trkpt>
      <trkpt lat="43.1399" lon="-0.25937">
        <ele>334.2</ele>
        <time>2021-08-19T19:40:32Z</time>
      </trkpt>
      <trkpt lat="43.1398" lon="-0.25942">
        <ele>334.2</ele>
        <time>2021-08-19T19:40:38Z</time>
      </trkpt>
      <trkpt lat="43.13981" lon="-0.2594">
        <ele>334.68</ele>
        <time>2021-08-19T19:41:01Z</time>
      </trkpt>
      <trkpt lat="43.13977" lon="-0.25943">
        <ele>334.68</ele>
        <time>2021-08-19T19:41:13Z</time>
      </trkpt>
      <trkpt lat="43.13963" lon="-0.25948">
        <ele>334.2</ele>
        <time>2021-08-19T19:41:21Z</time>
      </trkpt>
      <trkpt lat="43.13947" lon="-0.25954">
        <ele>334.68</ele>
        <time>2021-08-19T19:41:28Z</time>
      </trkpt>
      <trkpt lat="43.1393" lon="-0.25961">
        <ele>334.68</ele>
        <time>2021-08-19T19:41:35Z</time>
      </trkpt>
      <trkpt lat="43.13906" lon="-0.25972">
        <ele>335.16</ele>
        <time>2021-08-19T19:41:44Z</time>
      </trkpt>
      <trkpt lat="43.13881" lon="-0.25984">
        <ele>335.64</ele>
        <time>2021-08-19T19:41:53Z</time>
      </trkpt>
      <trkpt lat="43.1386" lon="-0.26002">
        <ele>336.6</ele>
        <time>2021-08-19T19:42:01Z</time>
      </trkpt>
      <trkpt lat="43.13855" lon="-0.26009">
        <ele>336.6</ele>
        <time>2021-08-19T19:42:04Z</time>
      </trkpt>
      <trkpt lat="43.13853" lon="-0.2601">
        <ele>336.6</ele>
        <time>2021-08-19T19:42:05Z</time>
      </trkpt>
      <trkpt lat="43.1385" lon="-0.26011">
        <ele>336.6</ele>
        <time>2021-08-19T19:42:06Z</time>
      </trkpt>
      <trkpt lat="43.13836" lon="-0.26016">
        <ele>337.08</ele>
        <time>2021-08-19T19:42:13Z</time>
      </trkpt>
      <trkpt lat="43.13835" lon="-0.26018">
        <ele>337.08</ele>
        <time>2021-08-19T19:42:14Z</time>
      </trkpt>
      <trkpt lat="43.13834" lon="-0.2602">
        <ele>337.08</ele>
        <time>2021-08-19T19:42:15Z</time>
      </trkpt>
      <trkpt lat="43.13833" lon="-0.26022">
        <ele>337.08</ele>
        <time>2021-08-19T19:42:16Z</time>
      </trkpt>
      <trkpt lat="43.13831" lon="-0.26023">
        <ele>337.08</ele>
        <time>2021-08-19T19:42:17Z</time>
      </trkpt>
      <trkpt lat="43.13829" lon="-0.26024">
        <ele>337.08</ele>
        <time>2021-08-19T19:42:18Z</time>
      </trkpt>
      <trkpt lat="43.13827" lon="-0.26027">
        <ele>337.08</ele>
        <time>2021-08-19T19:42:19Z</time>
      </trkpt>
      <trkpt lat="43.13825" lon="-0.26028">
        <ele>337.08</ele>
        <time>2021-08-19T19:42:20Z</time>
      </trkpt>
      <trkpt lat="43.13823" lon="-0.2603">
        <ele>337.08</ele>
        <time>2021-08-19T19:42:21Z</time>
      </trkpt>
      <trkpt lat="43.13812" lon="-0.2605">
        <ele>337.08</ele>
        <time>2021-08-19T19:42:27Z</time>
      </trkpt>
      <trkpt lat="43.13798" lon="-0.26099">
        <ele>337.08</ele>
        <time>2021-08-19T19:42:38Z</time>
      </trkpt>
      <trkpt lat="43.13781" lon="-0.26157">
        <ele>337.08</ele>
        <time>2021-08-19T19:42:50Z</time>
      </trkpt>
      <trkpt lat="43.13763" lon="-0.26201">
        <ele>337.56</ele>
        <time>2021-08-19T19:43:00Z</time>
      </trkpt>
      <trkpt lat="43.13743" lon="-0.26241">
        <ele>337.56</ele>
        <time>2021-08-19T19:43:09Z</time>
      </trkpt>
      <trkpt lat="43.13718" lon="-0.26283">
        <ele>337.56</ele>
        <time>2021-08-19T19:43:19Z</time>
      </trkpt>
      <trkpt lat="43.13705" lon="-0.26304">
        <ele>337.56</ele>
        <time>2021-08-19T19:43:24Z</time>
      </trkpt>
      <trkpt lat="43.13679" lon="-0.26336">
        <ele>338.04</ele>
        <time>2021-08-19T19:43:33Z</time>
      </trkpt>
      <trkpt lat="43.13645" lon="-0.26364">
        <ele>339.48</ele>
        <time>2021-08-19T19:43:44Z</time>
      </trkpt>
      <trkpt lat="43.13615" lon="-0.26387">
        <ele>340.92</ele>
        <time>2021-08-19T19:43:55Z</time>
      </trkpt>
      <trkpt lat="43.13579" lon="-0.26414">
        <ele>341.41</ele>
        <time>2021-08-19T19:44:07Z</time>
      </trkpt>
      <trkpt lat="43.13538" lon="-0.26444">
        <ele>341.89</ele>
        <time>2021-08-19T19:44:20Z</time>
      </trkpt>
      <trkpt lat="43.13522" lon="-0.26473">
        <ele>341.89</ele>
        <time>2021-08-19T19:44:27Z</time>
      </trkpt>
      <trkpt lat="43.13511" lon="-0.2651">
        <ele>341.89</ele>
        <time>2021-08-19T19:44:35Z</time>
      </trkpt>
      <trkpt lat="43.13499" lon="-0.26548">
        <ele>342.85</ele>
        <time>2021-08-19T19:44:44Z</time>
      </trkpt>
      <trkpt lat="43.13487" lon="-0.26582">
        <ele>343.33</ele>
        <time>2021-08-19T19:44:52Z</time>
      </trkpt>
      <trkpt lat="43.13473" lon="-0.26619">
        <ele>344.29</ele>
        <time>2021-08-19T19:45:01Z</time>
      </trkpt>
      <trkpt lat="43.13462" lon="-0.26643">
        <ele>344.77</ele>
        <time>2021-08-19T19:45:08Z</time>
      </trkpt>
      <trkpt lat="43.13449" lon="-0.26675">
        <ele>345.73</ele>
        <time>2021-08-19T19:45:17Z</time>
      </trkpt>
      <trkpt lat="43.13439" lon="-0.26698">
        <ele>346.21</ele>
        <time>2021-08-19T19:45:24Z</time>
      </trkpt>
      <trkpt lat="43.13426" lon="-0.26724">
        <ele>347.17</ele>
        <time>2021-08-19T19:45:32Z</time>
      </trkpt>
      <trkpt lat="43.13414" lon="-0.26744">
        <ele>348.62</ele>
        <time>2021-08-19T19:45:39Z</time>
      </trkpt>
      <trkpt lat="43.13405" lon="-0.26755">
        <ele>348.62</ele>
        <time>2021-08-19T19:45:44Z</time>
      </trkpt>
      <trkpt lat="43.13403" lon="-0.26755">
        <ele>349.1</ele>
        <time>2021-08-19T19:45:45Z</time>
      </trkpt>
      <trkpt lat="43.134" lon="-0.26755">
        <ele>349.1</ele>
        <time>2021-08-19T19:45:46Z</time>
      </trkpt>
      <trkpt lat="43.13379" lon="-0.26742">
        <ele>347.65</ele>
        <time>2021-08-19T19:45:53Z</time>
      </trkpt>
      <trkpt lat="43.1337" lon="-0.26735">
        <ele>346.21</ele>
        <time>2021-08-19T19:45:55Z</time>
      </trkpt>
      <trkpt lat="43.13356" lon="-0.26728">
        <ele>343.33</ele>
        <time>2021-08-19T19:45:59Z</time>
      </trkpt>
      <trkpt lat="43.13352" lon="-0.26732">
        <ele>342.37</ele>
        <time>2021-08-19T19:46:02Z</time>
      </trkpt>
      <trkpt lat="43.1335" lon="-0.26735">
        <ele>341.41</ele>
        <time>2021-08-19T19:46:03Z</time>
      </trkpt>
      <trkpt lat="43.13348" lon="-0.26737">
        <ele>340.92</ele>
        <time>2021-08-19T19:46:04Z</time>
      </trkpt>
      <trkpt lat="43.13338" lon="-0.26748">
        <ele>338.52</ele>
        <time>2021-08-19T19:46:08Z</time>
      </trkpt>
      <trkpt lat="43.13332" lon="-0.26762">
        <ele>336.12</ele>
        <time>2021-08-19T19:46:11Z</time>
      </trkpt>
      <trkpt lat="43.13317" lon="-0.268">
        <ele>333.23</ele>
        <time>2021-08-19T19:46:17Z</time>
      </trkpt>
      <trkpt lat="43.13304" lon="-0.26836">
        <ele>330.83</ele>
        <time>2021-08-19T19:46:22Z</time>
      </trkpt>
      <trkpt lat="43.13291" lon="-0.26878">
        <ele>327.47</ele>
        <time>2021-08-19T19:46:27Z</time>
      </trkpt>
      <trkpt lat="43.13276" lon="-0.26922">
        <ele>324.58</ele>
        <time>2021-08-19T19:46:32Z</time>
      </trkpt>
      <trkpt lat="43.13264" lon="-0.26957">
        <ele>322.66</ele>
        <time>2021-08-19T19:46:36Z</time>
      </trkpt>
      <trkpt lat="43.1326" lon="-0.26965">
        <ele>322.18</ele>
        <time>2021-08-19T19:46:37Z</time>
      </trkpt>
      <trkpt lat="43.13255" lon="-0.26972">
        <ele>321.7</ele>
        <time>2021-08-19T19:46:38Z</time>
      </trkpt>
      <trkpt lat="43.1325" lon="-0.26978">
        <ele>321.22</ele>
        <time>2021-08-19T19:46:39Z</time>
      </trkpt>
      <trkpt lat="43.13245" lon="-0.26985">
        <ele>320.74</ele>
        <time>2021-08-19T19:46:40Z</time>
      </trkpt>
      <trkpt lat="43.13239" lon="-0.26991">
        <ele>320.74</ele>
        <time>2021-08-19T19:46:41Z</time>
      </trkpt>
      <trkpt lat="43.13189" lon="-0.27045">
        <ele>317.37</ele>
        <time>2021-08-19T19:46:50Z</time>
      </trkpt>
      <trkpt lat="43.13174" lon="-0.27062">
        <ele>316.41</ele>
        <time>2021-08-19T19:46:53Z</time>
      </trkpt>
      <trkpt lat="43.13138" lon="-0.271">
        <ele>313.53</ele>
        <time>2021-08-19T19:47:01Z</time>
      </trkpt>
      <trkpt lat="43.13136" lon="-0.27105">
        <ele>313.05</ele>
        <time>2021-08-19T19:47:02Z</time>
      </trkpt>
      <trkpt lat="43.13134" lon="-0.27111">
        <ele>313.05</ele>
        <time>2021-08-19T19:47:03Z</time>
      </trkpt>
      <trkpt lat="43.13134" lon="-0.27117">
        <ele>313.05</ele>
        <time>2021-08-19T19:47:04Z</time>
      </trkpt>
      <trkpt lat="43.13133" lon="-0.27123">
        <ele>313.05</ele>
        <time>2021-08-19T19:47:05Z</time>
      </trkpt>
      <trkpt lat="43.13132" lon="-0.27165">
        <ele>313.05</ele>
        <time>2021-08-19T19:47:12Z</time>
      </trkpt>
      <trkpt lat="43.13135" lon="-0.27183">
        <ele>313.05</ele>
        <time>2021-08-19T19:47:15Z</time>
      </trkpt>
      <trkpt lat="43.13136" lon="-0.27189">
        <ele>313.05</ele>
        <time>2021-08-19T19:47:16Z</time>
      </trkpt>
      <trkpt lat="43.13138" lon="-0.27195">
        <ele>313.05</ele>
        <time>2021-08-19T19:47:17Z</time>
      </trkpt>
      <trkpt lat="43.1314" lon="-0.272">
        <ele>313.05</ele>
        <time>2021-08-19T19:47:18Z</time>
      </trkpt>
      <trkpt lat="43.13141" lon="-0.27206">
        <ele>312.57</ele>
        <time>2021-08-19T19:47:19Z</time>
      </trkpt>
      <trkpt lat="43.13143" lon="-0.27211">
        <ele>312.57</ele>
        <time>2021-08-19T19:47:20Z</time>
      </trkpt>
      <trkpt lat="43.13143" lon="-0.27217">
        <ele>312.09</ele>
        <time>2021-08-19T19:47:21Z</time>
      </trkpt>
      <trkpt lat="43.13144" lon="-0.27224">
        <ele>311.6</ele>
        <time>2021-08-19T19:47:22Z</time>
      </trkpt>
      <trkpt lat="43.13147" lon="-0.27248">
        <ele>309.68</ele>
        <time>2021-08-19T19:47:25Z</time>
      </trkpt>
      <trkpt lat="43.13147" lon="-0.27257">
        <ele>309.2</ele>
        <time>2021-08-19T19:47:26Z</time>
      </trkpt>
      <trkpt lat="43.13147" lon="-0.27266">
        <ele>309.2</ele>
        <time>2021-08-19T19:47:27Z</time>
      </trkpt>
      <trkpt lat="43.13146" lon="-0.27276">
        <ele>308.24</ele>
        <time>2021-08-19T19:47:28Z</time>
      </trkpt>
      <trkpt lat="43.13145" lon="-0.27285">
        <ele>308.24</ele>
        <time>2021-08-19T19:47:29Z</time>
      </trkpt>
      <trkpt lat="43.13135" lon="-0.27345">
        <ele>308.24</ele>
        <time>2021-08-19T19:47:36Z</time>
      </trkpt>
      <trkpt lat="43.13131" lon="-0.27374">
        <ele>307.28</ele>
        <time>2021-08-19T19:47:39Z</time>
      </trkpt>
      <trkpt lat="43.13131" lon="-0.27384">
        <ele>307.28</ele>
        <time>2021-08-19T19:47:40Z</time>
      </trkpt>
      <trkpt lat="43.13132" lon="-0.27392">
        <ele>307.28</ele>
        <time>2021-08-19T19:47:41Z</time>
      </trkpt>
      <trkpt lat="43.13135" lon="-0.27422">
        <ele>309.2</ele>
        <time>2021-08-19T19:47:45Z</time>
      </trkpt>
      <trkpt lat="43.13136" lon="-0.27428">
        <ele>309.68</ele>
        <time>2021-08-19T19:47:46Z</time>
      </trkpt>
      <trkpt lat="43.13136" lon="-0.27434">
        <ele>309.68</ele>
        <time>2021-08-19T19:47:47Z</time>
      </trkpt>
      <trkpt lat="43.13138" lon="-0.27476">
        <ele>311.6</ele>
        <time>2021-08-19T19:47:55Z</time>
      </trkpt>
      <trkpt lat="43.13136" lon="-0.27514">
        <ele>312.09</ele>
        <time>2021-08-19T19:48:02Z</time>
      </trkpt>
      <trkpt lat="43.13136" lon="-0.2752">
        <ele>312.09</ele>
        <time>2021-08-19T19:48:03Z</time>
      </trkpt>
      <trkpt lat="43.13136" lon="-0.2758">
        <ele>312.09</ele>
        <time>2021-08-19T19:48:13Z</time>
      </trkpt>
      <trkpt lat="43.13143" lon="-0.27636">
        <ele>308.72</ele>
        <time>2021-08-19T19:48:21Z</time>
      </trkpt>
      <trkpt lat="43.13143" lon="-0.27643">
        <ele>308.72</ele>
        <time>2021-08-19T19:48:22Z</time>
      </trkpt>
      <trkpt lat="43.13146" lon="-0.27668">
        <ele>306.8</ele>
        <time>2021-08-19T19:48:26Z</time>
      </trkpt>
      <trkpt lat="43.13145" lon="-0.27675">
        <ele>306.8</ele>
        <time>2021-08-19T19:48:27Z</time>
      </trkpt>
      <trkpt lat="43.13143" lon="-0.27681">
        <ele>306.8</ele>
        <time>2021-08-19T19:48:28Z</time>
      </trkpt>
      <trkpt lat="43.13139" lon="-0.27699">
        <ele>308.24</ele>
        <time>2021-08-19T19:48:33Z</time>
      </trkpt>
      <trkpt lat="43.13132" lon="-0.27737">
        <ele>310.64</ele>
        <time>2021-08-19T19:48:44Z</time>
      </trkpt>
      <trkpt lat="43.13125" lon="-0.27773">
        <ele>312.57</ele>
        <time>2021-08-19T19:48:55Z</time>
      </trkpt>
      <trkpt lat="43.13115" lon="-0.27807">
        <ele>314.49</ele>
        <time>2021-08-19T19:49:06Z</time>
      </trkpt>
      <trkpt lat="43.13105" lon="-0.27839">
        <ele>315.93</ele>
        <time>2021-08-19T19:49:16Z</time>
      </trkpt>
      <trkpt lat="43.13089" lon="-0.2788">
        <ele>316.89</ele>
        <time>2021-08-19T19:49:27Z</time>
      </trkpt>
      <trkpt lat="43.13071" lon="-0.27921">
        <ele>316.89</ele>
        <time>2021-08-19T19:49:37Z</time>
      </trkpt>
      <trkpt lat="43.13047" lon="-0.27967">
        <ele>316.89</ele>
        <time>2021-08-19T19:49:47Z</time>
      </trkpt>
      <trkpt lat="43.1302" lon="-0.28005">
        <ele>316.89</ele>
        <time>2021-08-19T19:49:56Z</time>
      </trkpt>
      <trkpt lat="43.1299" lon="-0.2803">
        <ele>314.49</ele>
        <time>2021-08-19T19:50:03Z</time>
      </trkpt>
      <trkpt lat="43.12964" lon="-0.28059">
        <ele>314.49</ele>
        <time>2021-08-19T19:50:09Z</time>
      </trkpt>
      <trkpt lat="43.12921" lon="-0.28114">
        <ele>314.01</ele>
        <time>2021-08-19T19:50:20Z</time>
      </trkpt>
      <trkpt lat="43.12874" lon="-0.28157">
        <ele>312.09</ele>
        <time>2021-08-19T19:50:30Z</time>
      </trkpt>
      <trkpt lat="43.12826" lon="-0.28176">
        <ele>309.68</ele>
        <time>2021-08-19T19:50:38Z</time>
      </trkpt>
      <trkpt lat="43.12772" lon="-0.28183">
        <ele>308.72</ele>
        <time>2021-08-19T19:50:46Z</time>
      </trkpt>
      <trkpt lat="43.12727" lon="-0.28178">
        <ele>308.72</ele>
        <time>2021-08-19T19:50:53Z</time>
      </trkpt>
      <trkpt lat="43.1269" lon="-0.28175">
        <ele>309.2</ele>
        <time>2021-08-19T19:51:00Z</time>
      </trkpt>
      <trkpt lat="43.12657" lon="-0.28178">
        <ele>310.16</ele>
        <time>2021-08-19T19:51:07Z</time>
      </trkpt>
      <trkpt lat="43.12622" lon="-0.28184">
        <ele>310.16</ele>
        <time>2021-08-19T19:51:14Z</time>
      </trkpt>
      <trkpt lat="43.12585" lon="-0.28187">
        <ele>310.64</ele>
        <time>2021-08-19T19:51:23Z</time>
      </trkpt>
      <trkpt lat="43.1256" lon="-0.28189">
        <ele>309.2</ele>
        <time>2021-08-19T19:51:30Z</time>
      </trkpt>
      <trkpt lat="43.12527" lon="-0.28198">
        <ele>305.84</ele>
        <time>2021-08-19T19:51:36Z</time>
      </trkpt>
      <trkpt lat="43.12509" lon="-0.28215">
        <ele>305.36</ele>
        <time>2021-08-19T19:51:41Z</time>
      </trkpt>
      <trkpt lat="43.12507" lon="-0.28221">
        <ele>305.36</ele>
        <time>2021-08-19T19:51:43Z</time>
      </trkpt>
      <trkpt lat="43.12508" lon="-0.28224">
        <ele>305.36</ele>
        <time>2021-08-19T19:51:44Z</time>
      </trkpt>
      <trkpt lat="43.12508" lon="-0.28226">
        <ele>305.36</ele>
        <time>2021-08-19T19:51:45Z</time>
      </trkpt>
      <trkpt lat="43.12507" lon="-0.28228">
        <ele>305.36</ele>
        <time>2021-08-19T19:51:46Z</time>
      </trkpt>
      <trkpt lat="43.12505" lon="-0.28228">
        <ele>305.36</ele>
        <time>2021-08-19T19:51:47Z</time>
      </trkpt>
      <trkpt lat="43.12504" lon="-0.28226">
        <ele>305.36</ele>
        <time>2021-08-19T19:51:48Z</time>
      </trkpt>
      <trkpt lat="43.12504" lon="-0.28224">
        <ele>305.36</ele>
        <time>2021-08-19T19:51:49Z</time>
      </trkpt>
      <trkpt lat="43.12504" lon="-0.28221">
        <ele>305.36</ele>
        <time>2021-08-19T19:51:50Z</time>
      </trkpt>
      <trkpt lat="43.12503" lon="-0.28218">
        <ele>305.36</ele>
        <time>2021-08-19T19:51:51Z</time>
      </trkpt>
      <trkpt lat="43.12493" lon="-0.28206">
        <ele>305.36</ele>
        <time>2021-08-19T19:51:58Z</time>
      </trkpt>
      <trkpt lat="43.1249" lon="-0.28206">
        <ele>305.36</ele>
        <time>2021-08-19T19:52:05Z</time>
      </trkpt>
      <trkpt lat="43.12488" lon="-0.28204">
        <ele>305.36</ele>
        <time>2021-08-19T19:52:17Z</time>
      </trkpt>
      <trkpt lat="43.12487" lon="-0.28205">
        <ele>305.36</ele>
        <time>2021-08-19T19:52:38Z</time>
      </trkpt>
      <trkpt lat="43.12488" lon="-0.28205">
        <ele>305.36</ele>
        <time>2021-08-19T19:52:56Z</time>
      </trkpt>
      <trkpt lat="43.12488" lon="-0.28204">
        <ele>304.88</ele>
        <time>2021-08-19T19:53:13Z</time>
      </trkpt>
      <trkpt lat="43.12489" lon="-0.28205">
        <ele>304.88</ele>
        <time>2021-08-19T19:53:28Z</time>
      </trkpt>
      <trkpt lat="43.12489" lon="-0.28206">
        <ele>304.88</ele>
        <time>2021-08-19T19:53:45Z</time>
      </trkpt>
      <trkpt lat="43.12491" lon="-0.28207">
        <ele>304.88</ele>
        <time>2021-08-19T19:54:04Z</time>
      </trkpt>
      <trkpt lat="43.12492" lon="-0.28204">
        <ele>304.88</ele>
        <time>2021-08-19T19:54:20Z</time>
      </trkpt>
      <trkpt lat="43.12492" lon="-0.28201">
        <ele>304.88</ele>
        <time>2021-08-19T19:54:32Z</time>
      </trkpt>
      <trkpt lat="43.12488" lon="-0.28203">
        <ele>304.88</ele>
        <time>2021-08-19T19:54:48Z</time>
      </trkpt>
      <trkpt lat="43.12486" lon="-0.28206">
        <ele>304.88</ele>
        <time>2021-08-19T19:55:05Z</time>
      </trkpt>
      <trkpt lat="43.12487" lon="-0.28207">
        <ele>304.39</ele>
        <time>2021-08-19T19:55:18Z</time>
      </trkpt>
      <trkpt lat="43.12487" lon="-0.28205">
        <ele>304.39</ele>
        <time>2021-08-19T19:55:28Z</time>
      </trkpt>
      <trkpt lat="43.12485" lon="-0.28203">
        <ele>304.39</ele>
        <time>2021-08-19T19:55:47Z</time>
      </trkpt>
      <trkpt lat="43.12483" lon="-0.28204">
        <ele>304.39</ele>
        <time>2021-08-19T19:56:04Z</time>
      </trkpt>
      <trkpt lat="43.12484" lon="-0.28201">
        <ele>304.39</ele>
        <time>2021-08-19T19:56:19Z</time>
      </trkpt>
      <trkpt lat="43.12484" lon="-0.28201">
        <ele>304.39</ele>
        <time>2021-08-19T19:56:35Z</time>
      </trkpt>
      <trkpt lat="43.12484" lon="-0.28201">
        <ele>303.91</ele>
        <time>2021-08-19T19:56:48Z</time>
      </trkpt>
      <trkpt lat="43.12484" lon="-0.28201">
        <ele>303.91</ele>
        <time>2021-08-19T19:57:05Z</time>
      </trkpt>
      <trkpt lat="43.12485" lon="-0.28201">
        <ele>303.91</ele>
        <time>2021-08-19T19:57:15Z</time>
      </trkpt>
      <trkpt lat="43.12485" lon="-0.282">
        <ele>303.91</ele>
        <time>2021-08-19T19:57:31Z</time>
      </trkpt>
      <trkpt lat="43.12487" lon="-0.28202">
        <ele>303.91</ele>
        <time>2021-08-19T19:57:46Z</time>
      </trkpt>
      <trkpt lat="43.12488" lon="-0.28205">
        <ele>303.91</ele>
        <time>2021-08-19T19:58:01Z</time>
      </trkpt>
      <trkpt lat="43.12488" lon="-0.28207">
        <ele>303.91</ele>
        <time>2021-08-19T19:58:14Z</time>
      </trkpt>
      <trkpt lat="43.12489" lon="-0.28205">
        <ele>303.91</ele>
        <time>2021-08-19T19:58:33Z</time>
      </trkpt>
      <trkpt lat="43.12488" lon="-0.28204">
        <ele>303.43</ele>
        <time>2021-08-19T19:58:47Z</time>
      </trkpt>
      <trkpt lat="43.12488" lon="-0.28207">
        <ele>303.43</ele>
        <time>2021-08-19T19:59:11Z</time>
      </trkpt>
      <trkpt lat="43.12489" lon="-0.28205">
        <ele>303.91</ele>
        <time>2021-08-19T19:59:30Z</time>
      </trkpt>
      <trkpt lat="43.1249" lon="-0.28204">
        <ele>303.91</ele>
        <time>2021-08-19T19:59:43Z</time>
      </trkpt>
      <trkpt lat="43.12493" lon="-0.28205">
        <ele>303.91</ele>
        <time>2021-08-19T20:00:03Z</time>
      </trkpt>
      <trkpt lat="43.12493" lon="-0.28205">
        <ele>303.91</ele>
        <time>2021-08-19T20:00:20Z</time>
      </trkpt>
      <trkpt lat="43.12493" lon="-0.28204">
        <ele>303.91</ele>
        <time>2021-08-19T20:00:29Z</time>
      </trkpt>
      <trkpt lat="43.12493" lon="-0.28204">
        <ele>303.91</ele>
        <time>2021-08-19T20:00:35Z</time>
      </trkpt>
      <trkpt lat="43.12492" lon="-0.28206">
        <ele>303.43</ele>
        <time>2021-08-19T20:00:52Z</time>
      </trkpt>
      <trkpt lat="43.12493" lon="-0.28211">
        <ele>303.43</ele>
        <time>2021-08-19T20:01:13Z</time>
      </trkpt>
      <trkpt lat="43.12493" lon="-0.28211">
        <ele>303.43</ele>
        <time>2021-08-19T20:01:14Z</time>
      </trkpt>
      <trkpt lat="43.12495" lon="-0.28213">
        <ele>303.43</ele>
        <time>2021-08-19T20:01:15Z</time>
      </trkpt>
      <trkpt lat="43.12496" lon="-0.28213">
        <ele>303.43</ele>
        <time>2021-08-19T20:01:16Z</time>
      </trkpt>
      <trkpt lat="43.12497" lon="-0.28213">
        <ele>303.43</ele>
        <time>2021-08-19T20:01:17Z</time>
      </trkpt>
      <trkpt lat="43.12499" lon="-0.28214">
        <ele>303.43</ele>
        <time>2021-08-19T20:01:18Z</time>
      </trkpt>
      <trkpt lat="43.125" lon="-0.28215">
        <ele>303.43</ele>
        <time>2021-08-19T20:01:19Z</time>
      </trkpt>
      <trkpt lat="43.12501" lon="-0.28217">
        <ele>303.43</ele>
        <time>2021-08-19T20:01:20Z</time>
      </trkpt>
      <trkpt lat="43.12502" lon="-0.2822">
        <ele>303.43</ele>
        <time>2021-08-19T20:01:21Z</time>
      </trkpt>
      <trkpt lat="43.12503" lon="-0.28223">
        <ele>303.43</ele>
        <time>2021-08-19T20:01:22Z</time>
      </trkpt>
      <trkpt lat="43.12503" lon="-0.28227">
        <ele>303.43</ele>
        <time>2021-08-19T20:01:23Z</time>
      </trkpt>
      <trkpt lat="43.12504" lon="-0.28232">
        <ele>303.43</ele>
        <time>2021-08-19T20:01:24Z</time>
      </trkpt>
      <trkpt lat="43.12504" lon="-0.28236">
        <ele>303.43</ele>
        <time>2021-08-19T20:01:25Z</time>
      </trkpt>
      <trkpt lat="43.12503" lon="-0.28276">
        <ele>302.95</ele>
        <time>2021-08-19T20:01:34Z</time>
      </trkpt>
      <trkpt lat="43.12512" lon="-0.28293">
        <ele>302.95</ele>
        <time>2021-08-19T20:01:39Z</time>
      </trkpt>
      <trkpt lat="43.12515" lon="-0.28299">
        <ele>302.95</ele>
        <time>2021-08-19T20:01:41Z</time>
      </trkpt>
      <trkpt lat="43.12517" lon="-0.283">
        <ele>302.95</ele>
        <time>2021-08-19T20:01:42Z</time>
      </trkpt>
      <trkpt lat="43.12531" lon="-0.28304">
        <ele>301.99</ele>
        <time>2021-08-19T20:01:47Z</time>
      </trkpt>
      <trkpt lat="43.12549" lon="-0.28317">
        <ele>301.99</ele>
        <time>2021-08-19T20:01:53Z</time>
      </trkpt>
      <trkpt lat="43.12559" lon="-0.2833">
        <ele>302.47</ele>
        <time>2021-08-19T20:01:57Z</time>
      </trkpt>
      <trkpt lat="43.12561" lon="-0.28335">
        <ele>301.99</ele>
        <time>2021-08-19T20:01:58Z</time>
      </trkpt>
      <trkpt lat="43.12575" lon="-0.28362">
        <ele>303.43</ele>
        <time>2021-08-19T20:02:05Z</time>
      </trkpt>
      <trkpt lat="43.12578" lon="-0.28372">
        <ele>304.88</ele>
        <time>2021-08-19T20:02:11Z</time>
      </trkpt>
      <trkpt lat="43.12579" lon="-0.28374">
        <ele>304.88</ele>
        <time>2021-08-19T20:02:12Z</time>
      </trkpt>
      <trkpt lat="43.1258" lon="-0.28378">
        <ele>305.84</ele>
        <time>2021-08-19T20:02:15Z</time>
      </trkpt>
      <trkpt lat="43.1258" lon="-0.2838">
        <ele>306.32</ele>
        <time>2021-08-19T20:02:16Z</time>
      </trkpt>
      <trkpt lat="43.12584" lon="-0.28396">
        <ele>307.76</ele>
        <time>2021-08-19T20:02:23Z</time>
      </trkpt>
      <trkpt lat="43.12587" lon="-0.2842">
        <ele>309.2</ele>
        <time>2021-08-19T20:02:33Z</time>
      </trkpt>
      <trkpt lat="43.1259" lon="-0.28455">
        <ele>309.68</ele>
        <time>2021-08-19T20:02:43Z</time>
      </trkpt>
      <trkpt lat="43.12594" lon="-0.2849">
        <ele>309.68</ele>
        <time>2021-08-19T20:02:51Z</time>
      </trkpt>
      <trkpt lat="43.12597" lon="-0.28533">
        <ele>309.68</ele>
        <time>2021-08-19T20:03:00Z</time>
      </trkpt>
      <trkpt lat="43.126" lon="-0.28578">
        <ele>308.72</ele>
        <time>2021-08-19T20:03:08Z</time>
      </trkpt>
      <trkpt lat="43.12593" lon="-0.28612">
        <ele>308.72</ele>
        <time>2021-08-19T20:03:15Z</time>
      </trkpt>
      <trkpt lat="43.12587" lon="-0.28627">
        <ele>309.68</ele>
        <time>2021-08-19T20:03:19Z</time>
      </trkpt>
      <trkpt lat="43.12582" lon="-0.28648">
        <ele>311.6</ele>
        <time>2021-08-19T20:03:26Z</time>
      </trkpt>
      <trkpt lat="43.12585" lon="-0.28666">
        <ele>312.57</ele>
        <time>2021-08-19T20:03:33Z</time>
      </trkpt>
      <trkpt lat="43.12592" lon="-0.28681">
        <ele>314.01</ele>
        <time>2021-08-19T20:03:42Z</time>
      </trkpt>
      <trkpt lat="43.12603" lon="-0.28702">
        <ele>315.45</ele>
        <time>2021-08-19T20:03:52Z</time>
      </trkpt>
      <trkpt lat="43.12608" lon="-0.28708">
        <ele>315.93</ele>
        <time>2021-08-19T20:03:56Z</time>
      </trkpt>
      <trkpt lat="43.1261" lon="-0.28709">
        <ele>315.93</ele>
        <time>2021-08-19T20:03:57Z</time>
      </trkpt>
      <trkpt lat="43.12612" lon="-0.28709">
        <ele>315.93</ele>
        <time>2021-08-19T20:03:58Z</time>
      </trkpt>
      <trkpt lat="43.12614" lon="-0.28709">
        <ele>315.93</ele>
        <time>2021-08-19T20:03:59Z</time>
      </trkpt>
      <trkpt lat="43.12617" lon="-0.28709">
        <ele>315.93</ele>
        <time>2021-08-19T20:04:00Z</time>
      </trkpt>
      <trkpt lat="43.12634" lon="-0.2871">
        <ele>314.01</ele>
        <time>2021-08-19T20:04:04Z</time>
      </trkpt>
      <trkpt lat="43.12661" lon="-0.28715">
        <ele>312.09</ele>
        <time>2021-08-19T20:04:11Z</time>
      </trkpt>
      <trkpt lat="43.12662" lon="-0.28718">
        <ele>312.09</ele>
        <time>2021-08-19T20:04:12Z</time>
      </trkpt>
      <trkpt lat="43.12663" lon="-0.28721">
        <ele>312.09</ele>
        <time>2021-08-19T20:04:13Z</time>
      </trkpt>
      <trkpt lat="43.12663" lon="-0.28725">
        <ele>312.09</ele>
        <time>2021-08-19T20:04:14Z</time>
      </trkpt>
      <trkpt lat="43.12663" lon="-0.28728">
        <ele>312.09</ele>
        <time>2021-08-19T20:04:15Z</time>
      </trkpt>
      <trkpt lat="43.12666" lon="-0.28757">
        <ele>312.09</ele>
        <time>2021-08-19T20:04:22Z</time>
      </trkpt>
      <trkpt lat="43.12672" lon="-0.2881">
        <ele>312.09</ele>
        <time>2021-08-19T20:04:32Z</time>
      </trkpt>
      <trkpt lat="43.12676" lon="-0.28857">
        <ele>313.05</ele>
        <time>2021-08-19T20:04:41Z</time>
      </trkpt>
      <trkpt lat="43.12685" lon="-0.28898">
        <ele>313.53</ele>
        <time>2021-08-19T20:04:50Z</time>
      </trkpt>
      <trkpt lat="43.12695" lon="-0.28941">
        <ele>315.45</ele>
        <time>2021-08-19T20:05:00Z</time>
      </trkpt>
      <trkpt lat="43.12702" lon="-0.2897">
        <ele>315.45</ele>
        <time>2021-08-19T20:05:07Z</time>
      </trkpt>
      <trkpt lat="43.12716" lon="-0.29005">
        <ele>315.93</ele>
        <time>2021-08-19T20:05:16Z</time>
      </trkpt>
      <trkpt lat="43.12728" lon="-0.29035">
        <ele>316.89</ele>
        <time>2021-08-19T20:05:24Z</time>
      </trkpt>
      <trkpt lat="43.12739" lon="-0.29064">
        <ele>316.89</ele>
        <time>2021-08-19T20:05:30Z</time>
      </trkpt>
      <trkpt lat="43.12753" lon="-0.29106">
        <ele>317.37</ele>
        <time>2021-08-19T20:05:39Z</time>
      </trkpt>
      <trkpt lat="43.12754" lon="-0.29111">
        <ele>317.37</ele>
        <time>2021-08-19T20:05:40Z</time>
      </trkpt>
      <trkpt lat="43.1276" lon="-0.29142">
        <ele>315.93</ele>
        <time>2021-08-19T20:05:45Z</time>
      </trkpt>
      <trkpt lat="43.12773" lon="-0.29187">
        <ele>315.93</ele>
        <time>2021-08-19T20:05:53Z</time>
      </trkpt>
      <trkpt lat="43.12774" lon="-0.29193">
        <ele>315.93</ele>
        <time>2021-08-19T20:05:54Z</time>
      </trkpt>
      <trkpt lat="43.12777" lon="-0.29248">
        <ele>313.53</ele>
        <time>2021-08-19T20:06:02Z</time>
      </trkpt>
      <trkpt lat="43.12777" lon="-0.29255">
        <ele>313.05</ele>
        <time>2021-08-19T20:06:03Z</time>
      </trkpt>
      <trkpt lat="43.12778" lon="-0.29261">
        <ele>313.05</ele>
        <time>2021-08-19T20:06:04Z</time>
      </trkpt>
      <trkpt lat="43.1278" lon="-0.29265">
        <ele>313.05</ele>
        <time>2021-08-19T20:06:05Z</time>
      </trkpt>
      <trkpt lat="43.12782" lon="-0.29269">
        <ele>313.05</ele>
        <time>2021-08-19T20:06:06Z</time>
      </trkpt>
      <trkpt lat="43.12784" lon="-0.29271">
        <ele>313.05</ele>
        <time>2021-08-19T20:06:07Z</time>
      </trkpt>
      <trkpt lat="43.12787" lon="-0.29274">
        <ele>313.05</ele>
        <time>2021-08-19T20:06:08Z</time>
      </trkpt>
      <trkpt lat="43.1279" lon="-0.29277">
        <ele>313.05</ele>
        <time>2021-08-19T20:06:09Z</time>
      </trkpt>
      <trkpt lat="43.12792" lon="-0.29279">
        <ele>313.05</ele>
        <time>2021-08-19T20:06:10Z</time>
      </trkpt>
      <trkpt lat="43.12812" lon="-0.293">
        <ele>313.05</ele>
        <time>2021-08-19T20:06:17Z</time>
      </trkpt>
      <trkpt lat="43.12837" lon="-0.29334">
        <ele>312.57</ele>
        <time>2021-08-19T20:06:25Z</time>
      </trkpt>
      <trkpt lat="43.12857" lon="-0.29353">
        <ele>311.6</ele>
        <time>2021-08-19T20:06:30Z</time>
      </trkpt>
      <trkpt lat="43.12874" lon="-0.29361">
        <ele>310.16</ele>
        <time>2021-08-19T20:06:34Z</time>
      </trkpt>
      <trkpt lat="43.1288" lon="-0.29364">
        <ele>309.2</ele>
        <time>2021-08-19T20:06:35Z</time>
      </trkpt>
      <trkpt lat="43.12884" lon="-0.29369">
        <ele>308.72</ele>
        <time>2021-08-19T20:06:36Z</time>
      </trkpt>
      <trkpt lat="43.12887" lon="-0.29375">
        <ele>308.24</ele>
        <time>2021-08-19T20:06:37Z</time>
      </trkpt>
      <trkpt lat="43.1289" lon="-0.29382">
        <ele>308.24</ele>
        <time>2021-08-19T20:06:38Z</time>
      </trkpt>
      <trkpt lat="43.12892" lon="-0.29389">
        <ele>308.24</ele>
        <time>2021-08-19T20:06:39Z</time>
      </trkpt>
      <trkpt lat="43.12893" lon="-0.29396">
        <ele>308.72</ele>
        <time>2021-08-19T20:06:40Z</time>
      </trkpt>
      <trkpt lat="43.12893" lon="-0.29401">
        <ele>308.72</ele>
        <time>2021-08-19T20:06:41Z</time>
      </trkpt>
      <trkpt lat="43.12892" lon="-0.29405">
        <ele>309.68</ele>
        <time>2021-08-19T20:06:42Z</time>
      </trkpt>
      <trkpt lat="43.12892" lon="-0.29407">
        <ele>309.68</ele>
        <time>2021-08-19T20:06:43Z</time>
      </trkpt>
      <trkpt lat="43.12891" lon="-0.2941">
        <ele>310.64</ele>
        <time>2021-08-19T20:06:44Z</time>
      </trkpt>
      <trkpt lat="43.12891" lon="-0.29412">
        <ele>310.64</ele>
        <time>2021-08-19T20:06:45Z</time>
      </trkpt>
      <trkpt lat="43.1289" lon="-0.29415">
        <ele>310.64</ele>
        <time>2021-08-19T20:06:46Z</time>
      </trkpt>
      <trkpt lat="43.12882" lon="-0.29436">
        <ele>312.57</ele>
        <time>2021-08-19T20:06:55Z</time>
      </trkpt>
      <trkpt lat="43.12873" lon="-0.2945">
        <ele>314.49</ele>
        <time>2021-08-19T20:07:04Z</time>
      </trkpt>
      <trkpt lat="43.12866" lon="-0.29461">
        <ele>315.93</ele>
        <time>2021-08-19T20:07:11Z</time>
      </trkpt>
      <trkpt lat="43.12864" lon="-0.29463">
        <ele>315.93</ele>
        <time>2021-08-19T20:07:12Z</time>
      </trkpt>
      <trkpt lat="43.12863" lon="-0.29464">
        <ele>316.89</ele>
        <time>2021-08-19T20:07:13Z</time>
      </trkpt>
      <trkpt lat="43.12862" lon="-0.29466">
        <ele>316.89</ele>
        <time>2021-08-19T20:07:14Z</time>
      </trkpt>
      <trkpt lat="43.12862" lon="-0.29468">
        <ele>317.37</ele>
        <time>2021-08-19T20:07:15Z</time>
      </trkpt>
      <trkpt lat="43.12861" lon="-0.2947">
        <ele>317.37</ele>
        <time>2021-08-19T20:07:16Z</time>
      </trkpt>
      <trkpt lat="43.12861" lon="-0.29472">
        <ele>317.37</ele>
        <time>2021-08-19T20:07:17Z</time>
      </trkpt>
      <trkpt lat="43.12863" lon="-0.29496">
        <ele>318.33</ele>
        <time>2021-08-19T20:07:26Z</time>
      </trkpt>
      <trkpt lat="43.12869" lon="-0.29527">
        <ele>318.33</ele>
        <time>2021-08-19T20:07:35Z</time>
      </trkpt>
      <trkpt lat="43.12877" lon="-0.29563">
        <ele>316.41</ele>
        <time>2021-08-19T20:07:43Z</time>
      </trkpt>
      <trkpt lat="43.12888" lon="-0.29597">
        <ele>316.41</ele>
        <time>2021-08-19T20:07:50Z</time>
      </trkpt>
      <trkpt lat="43.12892" lon="-0.29613">
        <ele>316.41</ele>
        <time>2021-08-19T20:07:53Z</time>
      </trkpt>
      <trkpt lat="43.12908" lon="-0.29659">
        <ele>316.89</ele>
        <time>2021-08-19T20:08:02Z</time>
      </trkpt>
      <trkpt lat="43.12918" lon="-0.29701">
        <ele>317.85</ele>
        <time>2021-08-19T20:08:10Z</time>
      </trkpt>
      <trkpt lat="43.12917" lon="-0.29737">
        <ele>318.81</ele>
        <time>2021-08-19T20:08:17Z</time>
      </trkpt>
      <trkpt lat="43.12912" lon="-0.29763">
        <ele>319.78</ele>
        <time>2021-08-19T20:08:24Z</time>
      </trkpt>
      <trkpt lat="43.12903" lon="-0.29786">
        <ele>320.74</ele>
        <time>2021-08-19T20:08:32Z</time>
      </trkpt>
      <trkpt lat="43.12891" lon="-0.29819">
        <ele>322.18</ele>
        <time>2021-08-19T20:08:42Z</time>
      </trkpt>
      <trkpt lat="43.12879" lon="-0.29856">
        <ele>320.74</ele>
        <time>2021-08-19T20:08:51Z</time>
      </trkpt>
      <trkpt lat="43.12866" lon="-0.29885">
        <ele>320.26</ele>
        <time>2021-08-19T20:08:57Z</time>
      </trkpt>
      <trkpt lat="43.12851" lon="-0.29913">
        <ele>320.26</ele>
        <time>2021-08-19T20:09:04Z</time>
      </trkpt>
      <trkpt lat="43.12828" lon="-0.29945">
        <ele>320.26</ele>
        <time>2021-08-19T20:09:12Z</time>
      </trkpt>
      <trkpt lat="43.12803" lon="-0.2997">
        <ele>319.78</ele>
        <time>2021-08-19T20:09:20Z</time>
      </trkpt>
      <trkpt lat="43.12782" lon="-0.29982">
        <ele>319.78</ele>
        <time>2021-08-19T20:09:26Z</time>
      </trkpt>
      <trkpt lat="43.12778" lon="-0.29983">
        <ele>319.3</ele>
        <time>2021-08-19T20:09:27Z</time>
      </trkpt>
      <trkpt lat="43.12741" lon="-0.29992">
        <ele>316.41</ele>
        <time>2021-08-19T20:09:34Z</time>
      </trkpt>
      <trkpt lat="43.12735" lon="-0.29994">
        <ele>316.41</ele>
        <time>2021-08-19T20:09:35Z</time>
      </trkpt>
      <trkpt lat="43.12729" lon="-0.29998">
        <ele>315.93</ele>
        <time>2021-08-19T20:09:36Z</time>
      </trkpt>
      <trkpt lat="43.12724" lon="-0.30002">
        <ele>315.93</ele>
        <time>2021-08-19T20:09:37Z</time>
      </trkpt>
      <trkpt lat="43.12689" lon="-0.30039">
        <ele>313.53</ele>
        <time>2021-08-19T20:09:44Z</time>
      </trkpt>
      <trkpt lat="43.1267" lon="-0.30072">
        <ele>313.53</ele>
        <time>2021-08-19T20:09:50Z</time>
      </trkpt>
      <trkpt lat="43.12668" lon="-0.30077">
        <ele>314.01</ele>
        <time>2021-08-19T20:09:51Z</time>
      </trkpt>
      <trkpt lat="43.12644" lon="-0.30121">
        <ele>312.57</ele>
        <time>2021-08-19T20:09:59Z</time>
      </trkpt>
      <trkpt lat="43.12626" lon="-0.30148">
        <ele>310.64</ele>
        <time>2021-08-19T20:10:04Z</time>
      </trkpt>
      <trkpt lat="43.12619" lon="-0.30157">
        <ele>310.16</ele>
        <time>2021-08-19T20:10:06Z</time>
      </trkpt>
      <trkpt lat="43.12618" lon="-0.30162">
        <ele>310.16</ele>
        <time>2021-08-19T20:10:07Z</time>
      </trkpt>
      <trkpt lat="43.12618" lon="-0.30168">
        <ele>310.16</ele>
        <time>2021-08-19T20:10:08Z</time>
      </trkpt>
      <trkpt lat="43.12619" lon="-0.30172">
        <ele>310.16</ele>
        <time>2021-08-19T20:10:09Z</time>
      </trkpt>
      <trkpt lat="43.12621" lon="-0.30176">
        <ele>310.16</ele>
        <time>2021-08-19T20:10:10Z</time>
      </trkpt>
      <trkpt lat="43.12625" lon="-0.30179">
        <ele>309.68</ele>
        <time>2021-08-19T20:10:11Z</time>
      </trkpt>
      <trkpt lat="43.12629" lon="-0.30182">
        <ele>309.68</ele>
        <time>2021-08-19T20:10:12Z</time>
      </trkpt>
      <trkpt lat="43.12634" lon="-0.30184">
        <ele>309.68</ele>
        <time>2021-08-19T20:10:13Z</time>
      </trkpt>
      <trkpt lat="43.12638" lon="-0.30184">
        <ele>309.68</ele>
        <time>2021-08-19T20:10:14Z</time>
      </trkpt>
      <trkpt lat="43.12642" lon="-0.30184">
        <ele>309.68</ele>
        <time>2021-08-19T20:10:15Z</time>
      </trkpt>
      <trkpt lat="43.12646" lon="-0.30186">
        <ele>309.68</ele>
        <time>2021-08-19T20:10:16Z</time>
      </trkpt>
      <trkpt lat="43.1265" lon="-0.30188">
        <ele>309.68</ele>
        <time>2021-08-19T20:10:17Z</time>
      </trkpt>
      <trkpt lat="43.12653" lon="-0.3019">
        <ele>309.68</ele>
        <time>2021-08-19T20:10:18Z</time>
      </trkpt>
      <trkpt lat="43.12656" lon="-0.30192">
        <ele>309.68</ele>
        <time>2021-08-19T20:10:19Z</time>
      </trkpt>
      <trkpt lat="43.12659" lon="-0.30195">
        <ele>310.16</ele>
        <time>2021-08-19T20:10:20Z</time>
      </trkpt>
      <trkpt lat="43.12677" lon="-0.30216">
        <ele>310.16</ele>
        <time>2021-08-19T20:10:26Z</time>
      </trkpt>
      <trkpt lat="43.12679" lon="-0.3022">
        <ele>310.16</ele>
        <time>2021-08-19T20:10:27Z</time>
      </trkpt>
      <trkpt lat="43.12681" lon="-0.30225">
        <ele>310.16</ele>
        <time>2021-08-19T20:10:28Z</time>
      </trkpt>
      <trkpt lat="43.12682" lon="-0.3023">
        <ele>310.16</ele>
        <time>2021-08-19T20:10:29Z</time>
      </trkpt>
      <trkpt lat="43.12683" lon="-0.30234">
        <ele>310.16</ele>
        <time>2021-08-19T20:10:30Z</time>
      </trkpt>
      <trkpt lat="43.1269" lon="-0.30267">
        <ele>311.12</ele>
        <time>2021-08-19T20:10:38Z</time>
      </trkpt>
      <trkpt lat="43.12701" lon="-0.30319">
        <ele>311.6</ele>
        <time>2021-08-19T20:10:51Z</time>
      </trkpt>
      <trkpt lat="43.12698" lon="-0.3034">
        <ele>311.6</ele>
        <time>2021-08-19T20:10:57Z</time>
      </trkpt>
      <trkpt lat="43.12691" lon="-0.30368">
        <ele>312.09</ele>
        <time>2021-08-19T20:11:06Z</time>
      </trkpt>
      <trkpt lat="43.12693" lon="-0.30387">
        <ele>312.57</ele>
        <time>2021-08-19T20:11:12Z</time>
      </trkpt>
      <trkpt lat="43.12692" lon="-0.3039">
        <ele>312.57</ele>
        <time>2021-08-19T20:11:13Z</time>
      </trkpt>
      <trkpt lat="43.1269" lon="-0.30392">
        <ele>312.57</ele>
        <time>2021-08-19T20:11:14Z</time>
      </trkpt>
      <trkpt lat="43.12688" lon="-0.30393">
        <ele>312.57</ele>
        <time>2021-08-19T20:11:15Z</time>
      </trkpt>
      <trkpt lat="43.12685" lon="-0.30394">
        <ele>312.57</ele>
        <time>2021-08-19T20:11:16Z</time>
      </trkpt>
      <trkpt lat="43.12674" lon="-0.30402">
        <ele>312.57</ele>
        <time>2021-08-19T20:11:21Z</time>
      </trkpt>
      <trkpt lat="43.12673" lon="-0.30404">
        <ele>312.57</ele>
        <time>2021-08-19T20:11:22Z</time>
      </trkpt>
      <trkpt lat="43.12672" lon="-0.30407">
        <ele>312.57</ele>
        <time>2021-08-19T20:11:23Z</time>
      </trkpt>
      <trkpt lat="43.12671" lon="-0.3041">
        <ele>312.57</ele>
        <time>2021-08-19T20:11:24Z</time>
      </trkpt>
      <trkpt lat="43.1267" lon="-0.30413">
        <ele>312.57</ele>
        <time>2021-08-19T20:11:25Z</time>
      </trkpt>
      <trkpt lat="43.1267" lon="-0.30416">
        <ele>312.57</ele>
        <time>2021-08-19T20:11:26Z</time>
      </trkpt>
      <trkpt lat="43.1267" lon="-0.30419">
        <ele>312.57</ele>
        <time>2021-08-19T20:11:27Z</time>
      </trkpt>
      <trkpt lat="43.12674" lon="-0.30422">
        <ele>313.05</ele>
        <time>2021-08-19T20:11:29Z</time>
      </trkpt>
      <trkpt lat="43.12676" lon="-0.30423">
        <ele>313.05</ele>
        <time>2021-08-19T20:11:30Z</time>
      </trkpt>
      <trkpt lat="43.12678" lon="-0.30423">
        <ele>313.05</ele>
        <time>2021-08-19T20:11:31Z</time>
      </trkpt>
      <trkpt lat="43.12681" lon="-0.30423">
        <ele>313.05</ele>
        <time>2021-08-19T20:11:32Z</time>
      </trkpt>
      <trkpt lat="43.12683" lon="-0.30423">
        <ele>313.05</ele>
        <time>2021-08-19T20:11:33Z</time>
      </trkpt>
      <trkpt lat="43.12685" lon="-0.30422">
        <ele>313.05</ele>
        <time>2021-08-19T20:11:34Z</time>
      </trkpt>
      <trkpt lat="43.12688" lon="-0.30422">
        <ele>313.05</ele>
        <time>2021-08-19T20:11:35Z</time>
      </trkpt>
      <trkpt lat="43.1269" lon="-0.30422">
        <ele>313.53</ele>
        <time>2021-08-19T20:11:36Z</time>
      </trkpt>
      <trkpt lat="43.12692" lon="-0.30421">
        <ele>313.53</ele>
        <time>2021-08-19T20:11:37Z</time>
      </trkpt>
      <trkpt lat="43.12695" lon="-0.3042">
        <ele>313.53</ele>
        <time>2021-08-19T20:11:38Z</time>
      </trkpt>
      <trkpt lat="43.12697" lon="-0.30419">
        <ele>313.53</ele>
        <time>2021-08-19T20:11:39Z</time>
      </trkpt>
      <trkpt lat="43.12698" lon="-0.30417">
        <ele>313.53</ele>
        <time>2021-08-19T20:11:40Z</time>
      </trkpt>
      <trkpt lat="43.127" lon="-0.30415">
        <ele>313.53</ele>
        <time>2021-08-19T20:11:41Z</time>
      </trkpt>
      <trkpt lat="43.12703" lon="-0.30412">
        <ele>313.53</ele>
        <time>2021-08-19T20:11:44Z</time>
      </trkpt>
      <trkpt lat="43.12704" lon="-0.30413">
        <ele>313.53</ele>
        <time>2021-08-19T20:11:45Z</time>
      </trkpt>
      <trkpt lat="43.12704" lon="-0.30414">
        <ele>313.53</ele>
        <time>2021-08-19T20:11:46Z</time>
      </trkpt>
      <trkpt lat="43.12702" lon="-0.30415">
        <ele>313.53</ele>
        <time>2021-08-19T20:11:47Z</time>
      </trkpt>
      <trkpt lat="43.12701" lon="-0.30415">
        <ele>313.53</ele>
        <time>2021-08-19T20:11:48Z</time>
      </trkpt>
      <trkpt lat="43.127" lon="-0.30414">
        <ele>313.53</ele>
        <time>2021-08-19T20:11:49Z</time>
      </trkpt>
      <trkpt lat="43.12697" lon="-0.30409">
        <ele>313.53</ele>
        <time>2021-08-19T20:11:55Z</time>
      </trkpt>
      <trkpt lat="43.12697" lon="-0.30407">
        <ele>313.53</ele>
        <time>2021-08-19T20:12:03Z</time>
      </trkpt>
      <trkpt lat="43.12696" lon="-0.30405">
        <ele>313.53</ele>
        <time>2021-08-19T20:12:04Z</time>
      </trkpt>
      <trkpt lat="43.12693" lon="-0.30398">
        <ele>313.53</ele>
        <time>2021-08-19T20:12:08Z</time>
      </trkpt>
      <trkpt lat="43.12686" lon="-0.30394">
        <ele>313.53</ele>
        <time>2021-08-19T20:12:12Z</time>
      </trkpt>
      <trkpt lat="43.12683" lon="-0.30393">
        <ele>313.53</ele>
        <time>2021-08-19T20:12:14Z</time>
      </trkpt>
      <trkpt lat="43.12675" lon="-0.30396">
        <ele>313.53</ele>
        <time>2021-08-19T20:12:19Z</time>
      </trkpt>
      <trkpt lat="43.1267" lon="-0.30397">
        <ele>313.53</ele>
        <time>2021-08-19T20:12:22Z</time>
      </trkpt>
      <trkpt lat="43.12669" lon="-0.30408">
        <ele>313.53</ele>
        <time>2021-08-19T20:12:29Z</time>
      </trkpt>
      <trkpt lat="43.12671" lon="-0.30407">
        <ele>313.53</ele>
        <time>2021-08-19T20:12:30Z</time>
      </trkpt>
      <trkpt lat="43.12673" lon="-0.30404">
        <ele>313.53</ele>
        <time>2021-08-19T20:12:31Z</time>
      </trkpt>
      <trkpt lat="43.12685" lon="-0.30382">
        <ele>313.53</ele>
        <time>2021-08-19T20:12:39Z</time>
      </trkpt>
      <trkpt lat="43.12693" lon="-0.30358">
        <ele>312.57</ele>
        <time>2021-08-19T20:12:46Z</time>
      </trkpt>
      <trkpt lat="43.12696" lon="-0.30356">
        <ele>312.57</ele>
        <time>2021-08-19T20:12:47Z</time>
      </trkpt>
      <trkpt lat="43.12699" lon="-0.30357">
        <ele>312.09</ele>
        <time>2021-08-19T20:12:48Z</time>
      </trkpt>
      <trkpt lat="43.12701" lon="-0.30359">
        <ele>312.09</ele>
        <time>2021-08-19T20:12:49Z</time>
      </trkpt>
      <trkpt lat="43.12703" lon="-0.30362">
        <ele>312.09</ele>
        <time>2021-08-19T20:12:50Z</time>
      </trkpt>
      <trkpt lat="43.12704" lon="-0.30366">
        <ele>312.09</ele>
        <time>2021-08-19T20:12:51Z</time>
      </trkpt>
      <trkpt lat="43.1271" lon="-0.30399">
        <ele>312.09</ele>
        <time>2021-08-19T20:13:00Z</time>
      </trkpt>
      <trkpt lat="43.12717" lon="-0.30423">
        <ele>313.05</ele>
        <time>2021-08-19T20:13:06Z</time>
      </trkpt>
      <trkpt lat="43.12721" lon="-0.30451">
        <ele>313.05</ele>
        <time>2021-08-19T20:13:14Z</time>
      </trkpt>
      <trkpt lat="43.12725" lon="-0.30454">
        <ele>313.05</ele>
        <time>2021-08-19T20:13:16Z</time>
      </trkpt>
      <trkpt lat="43.12737" lon="-0.30454">
        <ele>313.05</ele>
        <time>2021-08-19T20:13:21Z</time>
      </trkpt>
      <trkpt lat="43.12737" lon="-0.3045">
        <ele>313.05</ele>
        <time>2021-08-19T20:13:26Z</time>
      </trkpt>
      <trkpt lat="43.12731" lon="-0.30454">
        <ele>313.05</ele>
        <time>2021-08-19T20:13:30Z</time>
      </trkpt>
      <trkpt lat="43.12727" lon="-0.30455">
        <ele>313.05</ele>
        <time>2021-08-19T20:13:32Z</time>
      </trkpt>
      <trkpt lat="43.12724" lon="-0.30459">
        <ele>313.05</ele>
        <time>2021-08-19T20:13:34Z</time>
      </trkpt>
      <trkpt lat="43.12724" lon="-0.30462">
        <ele>313.05</ele>
        <time>2021-08-19T20:13:35Z</time>
      </trkpt>
      <trkpt lat="43.12724" lon="-0.30465">
        <ele>313.05</ele>
        <time>2021-08-19T20:13:36Z</time>
      </trkpt>
      <trkpt lat="43.12724" lon="-0.3047">
        <ele>313.05</ele>
        <time>2021-08-19T20:13:37Z</time>
      </trkpt>
      <trkpt lat="43.12724" lon="-0.30474">
        <ele>313.05</ele>
        <time>2021-08-19T20:13:38Z</time>
      </trkpt>
      <trkpt lat="43.12729" lon="-0.30515">
        <ele>313.05</ele>
        <time>2021-08-19T20:13:46Z</time>
      </trkpt>
      <trkpt lat="43.12734" lon="-0.30557">
        <ele>313.05</ele>
        <time>2021-08-19T20:13:54Z</time>
      </trkpt>
      <trkpt lat="43.12739" lon="-0.30602">
        <ele>313.53</ele>
        <time>2021-08-19T20:14:03Z</time>
      </trkpt>
      <trkpt lat="43.12742" lon="-0.3063">
        <ele>314.49</ele>
        <time>2021-08-19T20:14:10Z</time>
      </trkpt>
      <trkpt lat="43.12744" lon="-0.30654">
        <ele>314.97</ele>
        <time>2021-08-19T20:14:18Z</time>
      </trkpt>
      <trkpt lat="43.12747" lon="-0.30682">
        <ele>315.45</ele>
        <time>2021-08-19T20:14:26Z</time>
      </trkpt>
      <trkpt lat="43.12751" lon="-0.3072">
        <ele>316.41</ele>
        <time>2021-08-19T20:14:35Z</time>
      </trkpt>
      <trkpt lat="43.12756" lon="-0.30759">
        <ele>318.33</ele>
        <time>2021-08-19T20:14:46Z</time>
      </trkpt>
      <trkpt lat="43.12757" lon="-0.30768">
        <ele>318.81</ele>
        <time>2021-08-19T20:14:50Z</time>
      </trkpt>
      <trkpt lat="43.12756" lon="-0.30769">
        <ele>318.81</ele>
        <time>2021-08-19T20:14:51Z</time>
      </trkpt>
      <trkpt lat="43.12755" lon="-0.30771">
        <ele>319.3</ele>
        <time>2021-08-19T20:14:52Z</time>
      </trkpt>
      <trkpt lat="43.12754" lon="-0.30772">
        <ele>319.3</ele>
        <time>2021-08-19T20:14:53Z</time>
      </trkpt>
      <trkpt lat="43.12752" lon="-0.30773">
        <ele>319.3</ele>
        <time>2021-08-19T20:14:54Z</time>
      </trkpt>
      <trkpt lat="43.1275" lon="-0.30772">
        <ele>319.3</ele>
        <time>2021-08-19T20:15:01Z</time>
      </trkpt>
      <trkpt lat="43.12749" lon="-0.30773">
        <ele>319.3</ele>
        <time>2021-08-19T20:15:12Z</time>
      </trkpt>
      <trkpt lat="43.12749" lon="-0.30772">
        <ele>319.3</ele>
        <time>2021-08-19T20:15:22Z</time>
      </trkpt>
      <trkpt lat="43.1275" lon="-0.30774">
        <ele>319.3</ele>
        <time>2021-08-19T20:15:34Z</time>
      </trkpt>
      <trkpt lat="43.12751" lon="-0.30773">
        <ele>319.3</ele>
        <time>2021-08-19T20:15:48Z</time>
      </trkpt>
      <trkpt lat="43.12752" lon="-0.30772">
        <ele>319.78</ele>
        <time>2021-08-19T20:16:03Z</time>
      </trkpt>
      <trkpt lat="43.12749" lon="-0.30777">
        <ele>319.78</ele>
        <time>2021-08-19T20:16:14Z</time>
      </trkpt>
      <trkpt lat="43.12748" lon="-0.30779">
        <ele>319.78</ele>
        <time>2021-08-19T20:16:15Z</time>
      </trkpt>
      <trkpt lat="43.12746" lon="-0.30781">
        <ele>319.78</ele>
        <time>2021-08-19T20:16:16Z</time>
      </trkpt>
      <trkpt lat="43.12744" lon="-0.30783">
        <ele>319.78</ele>
        <time>2021-08-19T20:16:17Z</time>
      </trkpt>
      <trkpt lat="43.12741" lon="-0.30784">
        <ele>319.78</ele>
        <time>2021-08-19T20:16:18Z</time>
      </trkpt>
      <trkpt lat="43.12739" lon="-0.30786">
        <ele>319.78</ele>
        <time>2021-08-19T20:16:19Z</time>
      </trkpt>
      <trkpt lat="43.12736" lon="-0.30787">
        <ele>319.78</ele>
        <time>2021-08-19T20:16:20Z</time>
      </trkpt>
      <trkpt lat="43.12715" lon="-0.30795">
        <ele>321.22</ele>
        <time>2021-08-19T20:16:28Z</time>
      </trkpt>
      <trkpt lat="43.127" lon="-0.308">
        <ele>322.66</ele>
        <time>2021-08-19T20:16:36Z</time>
      </trkpt>
      <trkpt lat="43.12694" lon="-0.30816">
        <ele>324.1</ele>
        <time>2021-08-19T20:16:44Z</time>
      </trkpt>
      <trkpt lat="43.12692" lon="-0.3084">
        <ele>326.02</ele>
        <time>2021-08-19T20:16:54Z</time>
      </trkpt>
      <trkpt lat="43.12688" lon="-0.30862">
        <ele>327.47</ele>
        <time>2021-08-19T20:17:04Z</time>
      </trkpt>
      <trkpt lat="43.12684" lon="-0.30881">
        <ele>328.91</ele>
        <time>2021-08-19T20:17:13Z</time>
      </trkpt>
      <trkpt lat="43.12682" lon="-0.30904">
        <ele>330.83</ele>
        <time>2021-08-19T20:17:23Z</time>
      </trkpt>
      <trkpt lat="43.12681" lon="-0.30926">
        <ele>332.27</ele>
        <time>2021-08-19T20:17:33Z</time>
      </trkpt>
      <trkpt lat="43.12681" lon="-0.30941">
        <ele>333.71</ele>
        <time>2021-08-19T20:17:40Z</time>
      </trkpt>
      <trkpt lat="43.12688" lon="-0.30969">
        <ele>334.68</ele>
        <time>2021-08-19T20:17:50Z</time>
      </trkpt>
      <trkpt lat="43.12696" lon="-0.31005">
        <ele>335.64</ele>
        <time>2021-08-19T20:18:00Z</time>
      </trkpt>
      <trkpt lat="43.12706" lon="-0.31051">
        <ele>335.64</ele>
        <time>2021-08-19T20:18:10Z</time>
      </trkpt>
      <trkpt lat="43.12718" lon="-0.311">
        <ele>335.64</ele>
        <time>2021-08-19T20:18:19Z</time>
      </trkpt>
      <trkpt lat="43.12728" lon="-0.31143">
        <ele>334.2</ele>
        <time>2021-08-19T20:18:26Z</time>
      </trkpt>
      <trkpt lat="43.12738" lon="-0.31191">
        <ele>333.71</ele>
        <time>2021-08-19T20:18:33Z</time>
      </trkpt>
      <trkpt lat="43.12746" lon="-0.31242">
        <ele>333.23</ele>
        <time>2021-08-19T20:18:41Z</time>
      </trkpt>
      <trkpt lat="43.12751" lon="-0.31291">
        <ele>332.27</ele>
        <time>2021-08-19T20:18:49Z</time>
      </trkpt>
      <trkpt lat="43.12751" lon="-0.31298">
        <ele>331.79</ele>
        <time>2021-08-19T20:18:50Z</time>
      </trkpt>
      <trkpt lat="43.12749" lon="-0.31305">
        <ele>331.31</ele>
        <time>2021-08-19T20:18:51Z</time>
      </trkpt>
      <trkpt lat="43.12745" lon="-0.31321">
        <ele>330.35</ele>
        <time>2021-08-19T20:18:53Z</time>
      </trkpt>
      <trkpt lat="43.12742" lon="-0.31329">
        <ele>329.87</ele>
        <time>2021-08-19T20:18:54Z</time>
      </trkpt>
      <trkpt lat="43.12739" lon="-0.31337">
        <ele>329.39</ele>
        <time>2021-08-19T20:18:55Z</time>
      </trkpt>
      <trkpt lat="43.12734" lon="-0.31345">
        <ele>328.91</ele>
        <time>2021-08-19T20:18:56Z</time>
      </trkpt>
      <trkpt lat="43.12729" lon="-0.31353">
        <ele>327.95</ele>
        <time>2021-08-19T20:18:57Z</time>
      </trkpt>
      <trkpt lat="43.12724" lon="-0.31359">
        <ele>327.47</ele>
        <time>2021-08-19T20:18:58Z</time>
      </trkpt>
      <trkpt lat="43.12717" lon="-0.31366">
        <ele>327.47</ele>
        <time>2021-08-19T20:18:59Z</time>
      </trkpt>
      <trkpt lat="43.12683" lon="-0.31399">
        <ele>324.1</ele>
        <time>2021-08-19T20:19:04Z</time>
      </trkpt>
      <trkpt lat="43.12639" lon="-0.31442">
        <ele>320.74</ele>
        <time>2021-08-19T20:19:10Z</time>
      </trkpt>
      <trkpt lat="43.12598" lon="-0.31497">
        <ele>317.37</ele>
        <time>2021-08-19T20:19:16Z</time>
      </trkpt>
      <trkpt lat="43.12593" lon="-0.31509">
        <ele>317.37</ele>
        <time>2021-08-19T20:19:17Z</time>
      </trkpt>
      <trkpt lat="43.12589" lon="-0.31521">
        <ele>316.41</ele>
        <time>2021-08-19T20:19:18Z</time>
      </trkpt>
      <trkpt lat="43.12587" lon="-0.31533">
        <ele>316.41</ele>
        <time>2021-08-19T20:19:19Z</time>
      </trkpt>
      <trkpt lat="43.12586" lon="-0.31546">
        <ele>316.41</ele>
        <time>2021-08-19T20:19:20Z</time>
      </trkpt>
      <trkpt lat="43.12585" lon="-0.31559">
        <ele>316.41</ele>
        <time>2021-08-19T20:19:21Z</time>
      </trkpt>
      <trkpt lat="43.12585" lon="-0.3157">
        <ele>315.45</ele>
        <time>2021-08-19T20:19:22Z</time>
      </trkpt>
      <trkpt lat="43.12586" lon="-0.31582">
        <ele>315.45</ele>
        <time>2021-08-19T20:19:23Z</time>
      </trkpt>
      <trkpt lat="43.12588" lon="-0.31594">
        <ele>315.45</ele>
        <time>2021-08-19T20:19:24Z</time>
      </trkpt>
      <trkpt lat="43.1259" lon="-0.31606">
        <ele>315.45</ele>
        <time>2021-08-19T20:19:25Z</time>
      </trkpt>
      <trkpt lat="43.12602" lon="-0.31667">
        <ele>315.45</ele>
        <time>2021-08-19T20:19:31Z</time>
      </trkpt>
      <trkpt lat="43.12603" lon="-0.31676">
        <ele>315.45</ele>
        <time>2021-08-19T20:19:32Z</time>
      </trkpt>
      <trkpt lat="43.12604" lon="-0.31699">
        <ele>316.41</ele>
        <time>2021-08-19T20:19:35Z</time>
      </trkpt>
      <trkpt lat="43.12602" lon="-0.3173">
        <ele>316.89</ele>
        <time>2021-08-19T20:19:41Z</time>
      </trkpt>
      <trkpt lat="43.12597" lon="-0.31745">
        <ele>317.37</ele>
        <time>2021-08-19T20:19:46Z</time>
      </trkpt>
      <trkpt lat="43.12596" lon="-0.31745">
        <ele>317.37</ele>
        <time>2021-08-19T20:19:47Z</time>
      </trkpt>
      <trkpt lat="43.12592" lon="-0.3174">
        <ele>317.37</ele>
        <time>2021-08-19T20:19:51Z</time>
      </trkpt>
      <trkpt lat="43.12591" lon="-0.31739">
        <ele>316.89</ele>
        <time>2021-08-19T20:19:52Z</time>
      </trkpt>
      <trkpt lat="43.12591" lon="-0.31737">
        <ele>316.89</ele>
        <time>2021-08-19T20:19:53Z</time>
      </trkpt>
      <trkpt lat="43.12592" lon="-0.31734">
        <ele>316.89</ele>
        <time>2021-08-19T20:19:54Z</time>
      </trkpt>
      <trkpt lat="43.12594" lon="-0.31734">
        <ele>316.89</ele>
        <time>2021-08-19T20:19:55Z</time>
      </trkpt>
      <trkpt lat="43.12597" lon="-0.31734">
        <ele>316.89</ele>
        <time>2021-08-19T20:19:56Z</time>
      </trkpt>
      <trkpt lat="43.12599" lon="-0.31736">
        <ele>316.89</ele>
        <time>2021-08-19T20:19:57Z</time>
      </trkpt>
      <trkpt lat="43.126" lon="-0.31738">
        <ele>316.89</ele>
        <time>2021-08-19T20:19:58Z</time>
      </trkpt>
      <trkpt lat="43.12601" lon="-0.3174">
        <ele>316.89</ele>
        <time>2021-08-19T20:19:59Z</time>
      </trkpt>
      <trkpt lat="43.12601" lon="-0.31743">
        <ele>316.89</ele>
        <time>2021-08-19T20:20:00Z</time>
      </trkpt>
      <trkpt lat="43.12601" lon="-0.31745">
        <ele>316.89</ele>
        <time>2021-08-19T20:20:01Z</time>
      </trkpt>
      <trkpt lat="43.126" lon="-0.31747">
        <ele>316.89</ele>
        <time>2021-08-19T20:20:02Z</time>
      </trkpt>
      <trkpt lat="43.12598" lon="-0.31756">
        <ele>316.89</ele>
        <time>2021-08-19T20:20:05Z</time>
      </trkpt>
      <trkpt lat="43.12599" lon="-0.31757">
        <ele>317.37</ele>
        <time>2021-08-19T20:20:06Z</time>
      </trkpt>
      <trkpt lat="43.12601" lon="-0.31758">
        <ele>317.37</ele>
        <time>2021-08-19T20:20:07Z</time>
      </trkpt>
      <trkpt lat="43.12602" lon="-0.31758">
        <ele>317.37</ele>
        <time>2021-08-19T20:20:12Z</time>
      </trkpt>
      <trkpt lat="43.12601" lon="-0.31757">
        <ele>317.37</ele>
        <time>2021-08-19T20:20:29Z</time>
      </trkpt>
      <trkpt lat="43.12601" lon="-0.31759">
        <ele>317.37</ele>
        <time>2021-08-19T20:20:44Z</time>
      </trkpt>
      <trkpt lat="43.12601" lon="-0.31759">
        <ele>317.85</ele>
        <time>2021-08-19T20:20:58Z</time>
      </trkpt>
      <trkpt lat="43.12601" lon="-0.31759">
        <ele>317.85</ele>
        <time>2021-08-19T20:21:17Z</time>
      </trkpt>
      <trkpt lat="43.12602" lon="-0.31759">
        <ele>317.85</ele>
        <time>2021-08-19T20:21:31Z</time>
      </trkpt>
      <trkpt lat="43.12601" lon="-0.31759">
        <ele>317.85</ele>
        <time>2021-08-19T20:21:52Z</time>
      </trkpt>
      <trkpt lat="43.12601" lon="-0.31758">
        <ele>317.85</ele>
        <time>2021-08-19T20:22:07Z</time>
      </trkpt>
      <trkpt lat="43.12601" lon="-0.31757">
        <ele>317.85</ele>
        <time>2021-08-19T20:22:25Z</time>
      </trkpt>
      <trkpt lat="43.12601" lon="-0.31757">
        <ele>317.85</ele>
        <time>2021-08-19T20:22:40Z</time>
      </trkpt>
      <trkpt lat="43.12602" lon="-0.31757">
        <ele>317.85</ele>
        <time>2021-08-19T20:22:58Z</time>
      </trkpt>
      <trkpt lat="43.12602" lon="-0.31758">
        <ele>317.85</ele>
        <time>2021-08-19T20:23:13Z</time>
      </trkpt>
      <trkpt lat="43.12602" lon="-0.31759">
        <ele>317.85</ele>
        <time>2021-08-19T20:23:14Z</time>
      </trkpt>
      <trkpt lat="43.12601" lon="-0.3176">
        <ele>317.85</ele>
        <time>2021-08-19T20:23:15Z</time>
      </trkpt>
      <trkpt lat="43.12594" lon="-0.31769">
        <ele>317.85</ele>
        <time>2021-08-19T20:23:21Z</time>
      </trkpt>
      <trkpt lat="43.12587" lon="-0.31799">
        <ele>317.85</ele>
        <time>2021-08-19T20:23:28Z</time>
      </trkpt>
      <trkpt lat="43.12572" lon="-0.31838">
        <ele>317.85</ele>
        <time>2021-08-19T20:23:36Z</time>
      </trkpt>
      <trkpt lat="43.12552" lon="-0.31884">
        <ele>318.81</ele>
        <time>2021-08-19T20:23:46Z</time>
      </trkpt>
      <trkpt lat="43.12548" lon="-0.31917">
        <ele>319.78</ele>
        <time>2021-08-19T20:23:53Z</time>
      </trkpt>
      <trkpt lat="43.12546" lon="-0.31945">
        <ele>321.7</ele>
        <time>2021-08-19T20:24:01Z</time>
      </trkpt>
      <trkpt lat="43.12543" lon="-0.31977">
        <ele>323.62</ele>
        <time>2021-08-19T20:24:10Z</time>
      </trkpt>
      <trkpt lat="43.12541" lon="-0.32019">
        <ele>325.54</ele>
        <time>2021-08-19T20:24:22Z</time>
      </trkpt>
      <trkpt lat="43.12543" lon="-0.32058">
        <ele>326.99</ele>
        <time>2021-08-19T20:24:33Z</time>
      </trkpt>
      <trkpt lat="43.12546" lon="-0.32105">
        <ele>328.91</ele>
        <time>2021-08-19T20:24:46Z</time>
      </trkpt>
      <trkpt lat="43.1255" lon="-0.32143">
        <ele>329.87</ele>
        <time>2021-08-19T20:24:57Z</time>
      </trkpt>
      <trkpt lat="43.1255" lon="-0.32166">
        <ele>330.35</ele>
        <time>2021-08-19T20:25:04Z</time>
      </trkpt>
      <trkpt lat="43.12552" lon="-0.3218">
        <ele>330.83</ele>
        <time>2021-08-19T20:25:10Z</time>
      </trkpt>
      <trkpt lat="43.12552" lon="-0.32184">
        <ele>330.83</ele>
        <time>2021-08-19T20:25:12Z</time>
      </trkpt>
      <trkpt lat="43.12553" lon="-0.32185">
        <ele>330.83</ele>
        <time>2021-08-19T20:25:13Z</time>
      </trkpt>
      <trkpt lat="43.12562" lon="-0.32193">
        <ele>331.31</ele>
        <time>2021-08-19T20:25:20Z</time>
      </trkpt>
      <trkpt lat="43.12563" lon="-0.32196">
        <ele>331.31</ele>
        <time>2021-08-19T20:25:22Z</time>
      </trkpt>
      <trkpt lat="43.12563" lon="-0.32197">
        <ele>331.31</ele>
        <time>2021-08-19T20:25:23Z</time>
      </trkpt>
      <trkpt lat="43.12561" lon="-0.322">
        <ele>331.31</ele>
        <time>2021-08-19T20:25:27Z</time>
      </trkpt>
      <trkpt lat="43.12561" lon="-0.32198">
        <ele>331.31</ele>
        <time>2021-08-19T20:25:33Z</time>
      </trkpt>
      <trkpt lat="43.1256" lon="-0.32196">
        <ele>331.31</ele>
        <time>2021-08-19T20:25:34Z</time>
      </trkpt>
      <trkpt lat="43.1256" lon="-0.32195">
        <ele>331.31</ele>
        <time>2021-08-19T20:25:35Z</time>
      </trkpt>
      <trkpt lat="43.1256" lon="-0.32193">
        <ele>331.31</ele>
        <time>2021-08-19T20:25:36Z</time>
      </trkpt>
      <trkpt lat="43.12559" lon="-0.32191">
        <ele>331.31</ele>
        <time>2021-08-19T20:25:37Z</time>
      </trkpt>
      <trkpt lat="43.12558" lon="-0.3219">
        <ele>331.31</ele>
        <time>2021-08-19T20:25:38Z</time>
      </trkpt>
      <trkpt lat="43.12557" lon="-0.32188">
        <ele>331.31</ele>
        <time>2021-08-19T20:25:39Z</time>
      </trkpt>
      <trkpt lat="43.12555" lon="-0.32187">
        <ele>331.31</ele>
        <time>2021-08-19T20:25:40Z</time>
      </trkpt>
      <trkpt lat="43.12554" lon="-0.32186">
        <ele>331.31</ele>
        <time>2021-08-19T20:25:41Z</time>
      </trkpt>
      <trkpt lat="43.12552" lon="-0.32185">
        <ele>331.31</ele>
        <time>2021-08-19T20:25:42Z</time>
      </trkpt>
      <trkpt lat="43.12551" lon="-0.32184">
        <ele>331.31</ele>
        <time>2021-08-19T20:25:43Z</time>
      </trkpt>
      <trkpt lat="43.1255" lon="-0.32182">
        <ele>331.31</ele>
        <time>2021-08-19T20:25:44Z</time>
      </trkpt>
      <trkpt lat="43.12552" lon="-0.32181">
        <ele>331.31</ele>
        <time>2021-08-19T20:25:45Z</time>
      </trkpt>
      <trkpt lat="43.12553" lon="-0.32181">
        <ele>331.31</ele>
        <time>2021-08-19T20:25:46Z</time>
      </trkpt>
      <trkpt lat="43.12554" lon="-0.32186">
        <ele>331.31</ele>
        <time>2021-08-19T20:25:48Z</time>
      </trkpt>
      <trkpt lat="43.12555" lon="-0.32189">
        <ele>331.31</ele>
        <time>2021-08-19T20:25:49Z</time>
      </trkpt>
      <trkpt lat="43.12555" lon="-0.32192">
        <ele>331.31</ele>
        <time>2021-08-19T20:25:50Z</time>
      </trkpt>
      <trkpt lat="43.1256" lon="-0.32226">
        <ele>331.79</ele>
        <time>2021-08-19T20:26:00Z</time>
      </trkpt>
      <trkpt lat="43.12565" lon="-0.32256">
        <ele>333.71</ele>
        <time>2021-08-19T20:26:10Z</time>
      </trkpt>
      <trkpt lat="43.12568" lon="-0.32278">
        <ele>335.64</ele>
        <time>2021-08-19T20:26:18Z</time>
      </trkpt>
      <trkpt lat="43.1257" lon="-0.32293">
        <ele>336.6</ele>
        <time>2021-08-19T20:26:25Z</time>
      </trkpt>
      <trkpt lat="43.12573" lon="-0.32313">
        <ele>338.52</ele>
        <time>2021-08-19T20:26:34Z</time>
      </trkpt>
      <trkpt lat="43.12575" lon="-0.32336">
        <ele>339.96</ele>
        <time>2021-08-19T20:26:44Z</time>
      </trkpt>
      <trkpt lat="43.12575" lon="-0.3236">
        <ele>341.41</ele>
        <time>2021-08-19T20:26:54Z</time>
      </trkpt>
      <trkpt lat="43.12574" lon="-0.32382">
        <ele>343.33</ele>
        <time>2021-08-19T20:27:03Z</time>
      </trkpt>
      <trkpt lat="43.12573" lon="-0.324">
        <ele>344.77</ele>
        <time>2021-08-19T20:27:11Z</time>
      </trkpt>
      <trkpt lat="43.12569" lon="-0.32423">
        <ele>346.21</ele>
        <time>2021-08-19T20:27:21Z</time>
      </trkpt>
      <trkpt lat="43.12564" lon="-0.32446">
        <ele>347.65</ele>
        <time>2021-08-19T20:27:30Z</time>
      </trkpt>
      <trkpt lat="43.1256" lon="-0.32472">
        <ele>349.1</ele>
        <time>2021-08-19T20:27:40Z</time>
      </trkpt>
      <trkpt lat="43.12559" lon="-0.32476">
        <ele>349.1</ele>
        <time>2021-08-19T20:27:42Z</time>
      </trkpt>
      <trkpt lat="43.12558" lon="-0.32478">
        <ele>349.1</ele>
        <time>2021-08-19T20:27:43Z</time>
      </trkpt>
      <trkpt lat="43.12558" lon="-0.3248">
        <ele>349.1</ele>
        <time>2021-08-19T20:27:44Z</time>
      </trkpt>
      <trkpt lat="43.12558" lon="-0.32483">
        <ele>349.58</ele>
        <time>2021-08-19T20:27:45Z</time>
      </trkpt>
      <trkpt lat="43.12558" lon="-0.32485">
        <ele>349.58</ele>
        <time>2021-08-19T20:27:46Z</time>
      </trkpt>
      <trkpt lat="43.12558" lon="-0.32488">
        <ele>349.58</ele>
        <time>2021-08-19T20:27:47Z</time>
      </trkpt>
      <trkpt lat="43.12555" lon="-0.32511">
        <ele>350.06</ele>
        <time>2021-08-19T20:27:55Z</time>
      </trkpt>
      <trkpt lat="43.1255" lon="-0.32548">
        <ele>348.62</ele>
        <time>2021-08-19T20:28:02Z</time>
      </trkpt>
      <trkpt lat="43.1255" lon="-0.32554">
        <ele>348.62</ele>
        <time>2021-08-19T20:28:03Z</time>
      </trkpt>
      <trkpt lat="43.12548" lon="-0.32587">
        <ele>347.65</ele>
        <time>2021-08-19T20:28:08Z</time>
      </trkpt>
      <trkpt lat="43.12553" lon="-0.3264">
        <ele>347.17</ele>
        <time>2021-08-19T20:28:17Z</time>
      </trkpt>
      <trkpt lat="43.12554" lon="-0.32643">
        <ele>347.17</ele>
        <time>2021-08-19T20:28:22Z</time>
      </trkpt>
      <trkpt lat="43.12557" lon="-0.32642">
        <ele>347.17</ele>
        <time>2021-08-19T20:28:27Z</time>
      </trkpt>
      <trkpt lat="43.12558" lon="-0.32642">
        <ele>347.17</ele>
        <time>2021-08-19T20:28:32Z</time>
      </trkpt>
      <trkpt lat="43.12562" lon="-0.32644">
        <ele>347.17</ele>
        <time>2021-08-19T20:28:40Z</time>
      </trkpt>
      <trkpt lat="43.12561" lon="-0.32643">
        <ele>347.17</ele>
        <time>2021-08-19T20:28:50Z</time>
      </trkpt>
      <trkpt lat="43.12556" lon="-0.32645">
        <ele>347.17</ele>
        <time>2021-08-19T20:28:57Z</time>
      </trkpt>
      <trkpt lat="43.12556" lon="-0.3265">
        <ele>347.17</ele>
        <time>2021-08-19T20:29:01Z</time>
      </trkpt>
      <trkpt lat="43.12556" lon="-0.32651">
        <ele>347.17</ele>
        <time>2021-08-19T20:29:02Z</time>
      </trkpt>
      <trkpt lat="43.12556" lon="-0.32653">
        <ele>347.17</ele>
        <time>2021-08-19T20:29:03Z</time>
      </trkpt>
      <trkpt lat="43.12557" lon="-0.32655">
        <ele>347.17</ele>
        <time>2021-08-19T20:29:04Z</time>
      </trkpt>
      <trkpt lat="43.12558" lon="-0.32658">
        <ele>347.17</ele>
        <time>2021-08-19T20:29:05Z</time>
      </trkpt>
      <trkpt lat="43.12558" lon="-0.3266">
        <ele>347.17</ele>
        <time>2021-08-19T20:29:06Z</time>
      </trkpt>
      <trkpt lat="43.12559" lon="-0.3266">
        <ele>346.69</ele>
        <time>2021-08-19T20:29:12Z</time>
      </trkpt>
      <trkpt lat="43.12561" lon="-0.3266">
        <ele>346.69</ele>
        <time>2021-08-19T20:29:18Z</time>
      </trkpt>
    </trkseg>
  </trk>
</gpx>